<?xml version='1.0' encoding='UTF-8'?><gpx version="1.1" creator="JPX - https://github.com/jenetics/jpx" xmlns="http://www.topografix.com/GPX/1/1"><trk><trkseg><trkpt lat="48.17890972465249" lon="11.564130005509288"><ele>512.0</ele><time>2026-04-17T06:47:40.79Z</time></trkpt><trkpt lat="48.178892623156294" lon="11.564015088893282"><ele>511.99999999999994</ele><time>2026-04-17T06:47:45.79Z</time></trkpt><trkpt lat="48.17883182362553" lon="11.564068540168137"><ele>512.0</ele><time>2026-04-17T06:48:35.999Z</time></trkpt><trkpt lat="48.17888582690888" lon="11.56413127653512"><ele>512.0</ele><time>2026-04-17T06:49:09.999Z</time></trkpt><trkpt lat="48.1789176702574" lon="11.564215138259645"><ele>511.99999999999994</ele><time>2026-04-17T06:52:38.999Z</time></trkpt><trkpt lat="48.17898894424448" lon="11.564255635819986"><ele>512.0</ele><time>2026-04-17T06:55:43.999Z</time></trkpt><trkpt lat="48.17904198585567" lon="11.56418961077996"><ele>512.0</ele><time>2026-04-17T06:56:05Z</time></trkpt><trkpt lat="48.179204643379016" lon="11.563985587619865"><ele>511.8333333333333</ele><time>2026-04-17T06:56:42Z</time></trkpt><trkpt lat="48.17926421537255" lon="11.563945529143675"><ele>511.66666666666663</ele><time>2026-04-17T06:56:43Z</time></trkpt><trkpt lat="48.17932683715666" lon="11.563922278653745"><ele>511.5</ele><time>2026-04-17T06:56:44Z</time></trkpt><trkpt lat="48.17941661007105" lon="11.563937498550846"><ele>511.33333333333337</ele><time>2026-04-17T06:56:45Z</time></trkpt><trkpt lat="48.17948800219851" lon="11.563909021315508"><ele>511.1666666666667</ele><time>2026-04-17T06:56:46Z</time></trkpt><trkpt lat="48.1796005629505" lon="11.563864286437724"><ele>511.0</ele><time>2026-04-17T06:56:48Z</time></trkpt><trkpt lat="48.17970894079419" lon="11.563821346401474"><ele>511.00000000000006</ele><time>2026-04-17T06:56:50Z</time></trkpt><trkpt lat="48.17976973786683" lon="11.56379682888936"><ele>511.0</ele><time>2026-04-17T06:56:51Z</time></trkpt><trkpt lat="48.17983338505859" lon="11.563771162014481"><ele>511.0</ele><time>2026-04-17T06:56:52Z</time></trkpt><trkpt lat="48.179908409651624" lon="11.563740895474961"><ele>511.0</ele><time>2026-04-17T06:56:53Z</time></trkpt><trkpt lat="48.18000696375894" lon="11.563701133077249"><ele>511.00000000000006</ele><time>2026-04-17T06:56:55Z</time></trkpt><trkpt lat="48.18011084885516" lon="11.56363748105348"><ele>511.0</ele><time>2026-04-17T06:56:57Z</time></trkpt><trkpt lat="48.18017380576328" lon="11.563633819406892"><ele>511.33333333333337</ele><time>2026-04-17T06:56:58Z</time></trkpt><trkpt lat="48.180244338261694" lon="11.563605362535203"><ele>511.6666666666667</ele><time>2026-04-17T06:56:59Z</time></trkpt><trkpt lat="48.180313179791796" lon="11.563577599133183"><ele>512.0</ele><time>2026-04-17T06:56:59.999Z</time></trkpt><trkpt lat="48.18041770652918" lon="11.563535485306314"><ele>512.3333333333334</ele><time>2026-04-17T06:57:01.999Z</time></trkpt><trkpt lat="48.18053052749945" lon="11.563490604885379"><ele>512.6666666666666</ele><time>2026-04-17T06:57:03.999Z</time></trkpt><trkpt lat="48.18059771988597" lon="11.563464402218088"><ele>513.0</ele><time>2026-04-17T06:57:04.999Z</time></trkpt><trkpt lat="48.180661676271804" lon="11.563439810405175"><ele>513.0</ele><time>2026-04-17T06:57:05.999Z</time></trkpt><trkpt lat="48.18076392980093" lon="11.563400361736957"><ele>513.0</ele><time>2026-04-17T06:57:07.999Z</time></trkpt><trkpt lat="48.18087749293822" lon="11.563355923987286"><ele>513.0</ele><time>2026-04-17T06:57:09.999Z</time></trkpt><trkpt lat="48.1809470413035" lon="11.563331091257842"><ele>513.0</ele><time>2026-04-17T06:57:10.999Z</time></trkpt><trkpt lat="48.181032912744335" lon="11.563303285201966"><ele>513.0</ele><time>2026-04-17T06:57:11.999Z</time></trkpt><trkpt lat="48.18111802326545" lon="11.563261993798605"><ele>513.0</ele><time>2026-04-17T06:57:13.999Z</time></trkpt><trkpt lat="48.181192310877755" lon="11.563249371793619"><ele>513.0</ele><time>2026-04-17T06:57:15.999Z</time></trkpt><trkpt lat="48.18130353741834" lon="11.563225567456238"><ele>513.0</ele><time>2026-04-17T06:57:17.999Z</time></trkpt><trkpt lat="48.18143461697269" lon="11.56345166814683"><ele>513.0</ele><time>2026-04-17T06:57:23.999Z</time></trkpt><trkpt lat="48.181429160807866" lon="11.563629750860851"><ele>513.1999999999999</ele><time>2026-04-17T06:57:25.999Z</time></trkpt><trkpt lat="48.18142866500082" lon="11.563801109405269"><ele>513.4</ele><time>2026-04-17T06:57:27.999Z</time></trkpt><trkpt lat="48.181432623876766" lon="11.563978147254979"><ele>513.5999999999999</ele><time>2026-04-17T06:57:29.999Z</time></trkpt><trkpt lat="48.18143640051894" lon="11.564124207538214"><ele>513.8</ele><time>2026-04-17T06:57:31.999Z</time></trkpt><trkpt lat="48.18144027668351" lon="11.564262196725092"><ele>514.0</ele><time>2026-04-17T06:57:33.999Z</time></trkpt><trkpt lat="48.18144271339566" lon="11.564371077052831"><ele>514.0</ele><time>2026-04-17T06:57:34.999Z</time></trkpt><trkpt lat="48.18145050724425" lon="11.564526536200447"><ele>514.0</ele><time>2026-04-17T06:57:35.999Z</time></trkpt><trkpt lat="48.181454935565235" lon="11.564639580828723"><ele>514.0</ele><time>2026-04-17T06:57:36.999Z</time></trkpt><trkpt lat="48.181461838276206" lon="11.564808550534494"><ele>514.0</ele><time>2026-04-17T06:57:38.999Z</time></trkpt><trkpt lat="48.18145225324574" lon="11.564989226591594"><ele>514.0</ele><time>2026-04-17T06:57:40.999Z</time></trkpt><trkpt lat="48.18145725144901" lon="11.565182486227753"><ele>514.1666666666667</ele><time>2026-04-17T06:57:42.999Z</time></trkpt><trkpt lat="48.181461331747855" lon="11.56528921883514"><ele>514.3333333333334</ele><time>2026-04-17T06:57:43.999Z</time></trkpt><trkpt lat="48.18146657301059" lon="11.5654000984544"><ele>514.5</ele><time>2026-04-17T06:57:44.999Z</time></trkpt><trkpt lat="48.18147029784001" lon="11.565503107377987"><ele>514.6666666666666</ele><time>2026-04-17T06:57:45.999Z</time></trkpt><trkpt lat="48.18147614249172" lon="11.565600713624583"><ele>514.8333333333333</ele><time>2026-04-17T06:57:46.999Z</time></trkpt><trkpt lat="48.181494176225875" lon="11.56577517674661"><ele>515.0</ele><time>2026-04-17T06:57:48.999Z</time></trkpt><trkpt lat="48.181499051970015" lon="11.565926905494084"><ele>515.0</ele><time>2026-04-17T06:57:50.999Z</time></trkpt><trkpt lat="48.1815055769097" lon="11.566065298043577"><ele>515.0</ele><time>2026-04-17T06:57:52.999Z</time></trkpt><trkpt lat="48.1815098114966" lon="11.56618914451813"><ele>515.0</ele><time>2026-04-17T06:57:54.999Z</time></trkpt><trkpt lat="48.181509303073334" lon="11.566292931095257"><ele>515.0</ele><time>2026-04-17T06:57:56.999Z</time></trkpt><trkpt lat="48.18151118268589" lon="11.566404792931655"><ele>515.0</ele><time>2026-04-17T06:57:59.999Z</time></trkpt><trkpt lat="48.18151775266118" lon="11.566524637454771"><ele>515.0</ele><time>2026-04-17T06:58:05Z</time></trkpt><trkpt lat="48.18152081796735" lon="11.566620259641224"><ele>514.6</ele><time>2026-04-17T06:58:07Z</time></trkpt><trkpt lat="48.18152936462554" lon="11.566801577985338"><ele>514.2</ele><time>2026-04-17T06:58:09Z</time></trkpt><trkpt lat="48.18153991303523" lon="11.566908205232375"><ele>513.8</ele><time>2026-04-17T06:58:10Z</time></trkpt><trkpt lat="48.18157392807192" lon="11.567084043422048"><ele>513.4</ele><time>2026-04-17T06:58:12Z</time></trkpt><trkpt lat="48.18162373289771" lon="11.567243662452286"><ele>513.0</ele><time>2026-04-17T06:58:14Z</time></trkpt><trkpt lat="48.181662258660694" lon="11.56737859521409"><ele>512.6</ele><time>2026-04-17T06:58:16Z</time></trkpt><trkpt lat="48.18170497105897" lon="11.567550430555828"><ele>512.1999999999999</ele><time>2026-04-17T06:58:18Z</time></trkpt><trkpt lat="48.18171896177131" lon="11.567668640783447"><ele>511.8</ele><time>2026-04-17T06:58:19Z</time></trkpt><trkpt lat="48.18172454147708" lon="11.567774362543062"><ele>511.4</ele><time>2026-04-17T06:58:20Z</time></trkpt><trkpt lat="48.18172425201745" lon="11.567930329484017"><ele>511.0</ele><time>2026-04-17T06:58:22Z</time></trkpt><trkpt lat="48.181720499769064" lon="11.568094080185686"><ele>511.0</ele><time>2026-04-17T06:58:24Z</time></trkpt><trkpt lat="48.18172383991847" lon="11.568245943452107"><ele>511.0</ele><time>2026-04-17T06:58:26Z</time></trkpt><trkpt lat="48.181724512209435" lon="11.568378303054294"><ele>511.0</ele><time>2026-04-17T06:58:28Z</time></trkpt><trkpt lat="48.18172675452167" lon="11.56854696444061"><ele>511.0</ele><time>2026-04-17T06:58:30Z</time></trkpt><trkpt lat="48.1817305171989" lon="11.56872363290831"><ele>511.0</ele><time>2026-04-17T06:58:32Z</time></trkpt><trkpt lat="48.181735070233216" lon="11.568869418226697"><ele>511.0</ele><time>2026-04-17T06:58:34Z</time></trkpt><trkpt lat="48.181737442450036" lon="11.569035346346473"><ele>511.0</ele><time>2026-04-17T06:58:36Z</time></trkpt><trkpt lat="48.181738267282796" lon="11.569162952455992"><ele>511.0</ele><time>2026-04-17T06:58:37Z</time></trkpt><trkpt lat="48.181737128378835" lon="11.569339538962726"><ele>511.0</ele><time>2026-04-17T06:58:39Z</time></trkpt><trkpt lat="48.18173625919325" lon="11.569507881364364"><ele>511.0</ele><time>2026-04-17T06:58:41Z</time></trkpt><trkpt lat="48.18173784870436" lon="11.569683719200658"><ele>511.0</ele><time>2026-04-17T06:58:43Z</time></trkpt><trkpt lat="48.18173752493752" lon="11.569827527692274"><ele>511.0</ele><time>2026-04-17T06:58:45Z</time></trkpt><trkpt lat="48.181736449142306" lon="11.569955293810569"><ele>511.0</ele><time>2026-04-17T06:58:48Z</time></trkpt><trkpt lat="48.18173913861942" lon="11.570094437453557"><ele>511.0</ele><time>2026-04-17T06:58:51Z</time></trkpt><trkpt lat="48.181744747285" lon="11.570284723390072"><ele>511.0</ele><time>2026-04-17T06:58:53Z</time></trkpt><trkpt lat="48.18174661143459" lon="11.570393486480086"><ele>510.4</ele><time>2026-04-17T06:58:54Z</time></trkpt><trkpt lat="48.181747596403646" lon="11.57049990333757"><ele>509.8</ele><time>2026-04-17T06:58:55Z</time></trkpt><trkpt lat="48.18174999016158" lon="11.570637936953798"><ele>509.19999999999993</ele><time>2026-04-17T06:58:56Z</time></trkpt><trkpt lat="48.18174766121939" lon="11.570753621132205"><ele>508.59999999999997</ele><time>2026-04-17T06:58:57Z</time></trkpt><trkpt lat="48.18174359087291" lon="11.570934352778933"><ele>508.0</ele><time>2026-04-17T06:58:59Z</time></trkpt><trkpt lat="48.181744459297484" lon="11.571116921172866"><ele>508.2</ele><time>2026-04-17T06:59:01Z</time></trkpt><trkpt lat="48.181745839977005" lon="11.571218910092384"><ele>508.4</ele><time>2026-04-17T06:59:02Z</time></trkpt><trkpt lat="48.181750198201435" lon="11.571342237389905"><ele>508.59999999999997</ele><time>2026-04-17T06:59:03Z</time></trkpt><trkpt lat="48.181751745482636" lon="11.571448671899523"><ele>508.79999999999995</ele><time>2026-04-17T06:59:04Z</time></trkpt><trkpt lat="48.18175225879706" lon="11.571626443468437"><ele>509.0</ele><time>2026-04-17T06:59:06Z</time></trkpt><trkpt lat="48.18175373531266" lon="11.571800076628936"><ele>509.0</ele><time>2026-04-17T06:59:08Z</time></trkpt><trkpt lat="48.18175433523795" lon="11.571979843133953"><ele>509.0</ele><time>2026-04-17T06:59:10Z</time></trkpt><trkpt lat="48.18175370260874" lon="11.572167150694268"><ele>509.0</ele><time>2026-04-17T06:59:12Z</time></trkpt><trkpt lat="48.18175555825511" lon="11.572266260697557"><ele>509.0</ele><time>2026-04-17T06:59:13Z</time></trkpt><trkpt lat="48.18175353453236" lon="11.572417532627846"><ele>509.0</ele><time>2026-04-17T06:59:15Z</time></trkpt><trkpt lat="48.181755103637315" lon="11.572535844998406"><ele>508.99999999999994</ele><time>2026-04-17T06:59:16.999Z</time></trkpt><trkpt lat="48.18175088797467" lon="11.572647152612909"><ele>509.0</ele><time>2026-04-17T06:59:19.999Z</time></trkpt><trkpt lat="48.18175215640635" lon="11.572752975374227"><ele>509.0</ele><time>2026-04-17T06:59:23.999Z</time></trkpt><trkpt lat="48.18175371967821" lon="11.572911705729117"><ele>509.0</ele><time>2026-04-17T07:00:25Z</time></trkpt><trkpt lat="48.18174685791935" lon="11.573010683696737"><ele>508.99999999999994</ele><time>2026-04-17T07:00:26Z</time></trkpt><trkpt lat="48.181735900205176" lon="11.573161912677119"><ele>509.0</ele><time>2026-04-17T07:00:28Z</time></trkpt><trkpt lat="48.1817270201577" lon="11.573309290638974"><ele>508.99999999999994</ele><time>2026-04-17T07:00:30Z</time></trkpt><trkpt lat="48.18171802411464" lon="11.573472404692243"><ele>509.0</ele><time>2026-04-17T07:00:32Z</time></trkpt><trkpt lat="48.181723938039696" lon="11.573570848190517"><ele>509.0</ele><time>2026-04-17T07:00:33Z</time></trkpt><trkpt lat="48.18172100368096" lon="11.573676929623078"><ele>509.0</ele><time>2026-04-17T07:00:34Z</time></trkpt><trkpt lat="48.18170844051214" lon="11.57378379954851"><ele>508.99999999999994</ele><time>2026-04-17T07:00:35Z</time></trkpt><trkpt lat="48.18169505121714" lon="11.573947772174538"><ele>509.0</ele><time>2026-04-17T07:00:37Z</time></trkpt><trkpt lat="48.181686111829606" lon="11.574094361933074"><ele>509.0</ele><time>2026-04-17T07:00:39Z</time></trkpt><trkpt lat="48.18167658360519" lon="11.574289057189311"><ele>509.0</ele><time>2026-04-17T07:00:41Z</time></trkpt><trkpt lat="48.1816656694998" lon="11.574409571696698"><ele>509.0</ele><time>2026-04-17T07:00:42Z</time></trkpt><trkpt lat="48.18165380312437" lon="11.57455052143594"><ele>509.0</ele><time>2026-04-17T07:00:44Z</time></trkpt><trkpt lat="48.18164444958699" lon="11.574673993226043"><ele>509.0</ele><time>2026-04-17T07:00:46Z</time></trkpt><trkpt lat="48.18164175193107" lon="11.5748168960921"><ele>508.79999999999995</ele><time>2026-04-17T07:00:47.999Z</time></trkpt><trkpt lat="48.18161751563779" lon="11.574950651111306"><ele>508.59999999999997</ele><time>2026-04-17T07:00:49.999Z</time></trkpt><trkpt lat="48.18160301066927" lon="11.575097192314209"><ele>508.4</ele><time>2026-04-17T07:00:51.999Z</time></trkpt><trkpt lat="48.1815854261647" lon="11.57525589464972"><ele>508.2</ele><time>2026-04-17T07:00:53.999Z</time></trkpt><trkpt lat="48.18157215563589" lon="11.57539175622703"><ele>508.0</ele><time>2026-04-17T07:00:55.999Z</time></trkpt><trkpt lat="48.18156849673134" lon="11.575521187846686"><ele>508.0</ele><time>2026-04-17T07:00:58.999Z</time></trkpt><trkpt lat="48.18171200538153" lon="11.575577537518654"><ele>507.99999999999994</ele><time>2026-04-17T07:01:02.999Z</time></trkpt><trkpt lat="48.18178614218959" lon="11.575581801078517"><ele>507.99999999999994</ele><time>2026-04-17T07:01:03.999Z</time></trkpt><trkpt lat="48.1818695256089" lon="11.575593646738964"><ele>508.0</ele><time>2026-04-17T07:01:04.999Z</time></trkpt><trkpt lat="48.18198668368597" lon="11.575610525165052"><ele>508.0</ele><time>2026-04-17T07:01:06.999Z</time></trkpt><trkpt lat="48.18206680299673" lon="11.575622730933915"><ele>508.0</ele><time>2026-04-17T07:01:08.999Z</time></trkpt><trkpt lat="48.18214790064738" lon="11.575633970390497"><ele>507.99999999999994</ele><time>2026-04-17T07:01:10.999Z</time></trkpt><trkpt lat="48.18223894629725" lon="11.57564957211672"><ele>507.99999999999994</ele><time>2026-04-17T07:01:12.999Z</time></trkpt><trkpt lat="48.182338548849366" lon="11.5756681101904"><ele>508.0</ele><time>2026-04-17T07:01:14.999Z</time></trkpt><trkpt lat="48.18244764603282" lon="11.575681286417627"><ele>508.0</ele><time>2026-04-17T07:01:16.999Z</time></trkpt><trkpt lat="48.18251450244316" lon="11.575685802776094"><ele>507.33333333333337</ele><time>2026-04-17T07:01:17.999Z</time></trkpt><trkpt lat="48.18258414763188" lon="11.575690509961014"><ele>506.6666666666667</ele><time>2026-04-17T07:01:18.999Z</time></trkpt><trkpt lat="48.18264874451479" lon="11.575693246174486"><ele>506.0</ele><time>2026-04-17T07:01:19.999Z</time></trkpt><trkpt lat="48.18274158312125" lon="11.57570612867464"><ele>505.33333333333337</ele><time>2026-04-17T07:01:21.999Z</time></trkpt><trkpt lat="48.182835455772775" lon="11.575718567911393"><ele>504.6666666666667</ele><time>2026-04-17T07:01:23.999Z</time></trkpt><trkpt lat="48.18292121673183" lon="11.575730864980038"><ele>504.0</ele><time>2026-04-17T07:01:25.999Z</time></trkpt><trkpt lat="48.18302255693078" lon="11.575745610321292"><ele>504.0</ele><time>2026-04-17T07:01:28.999Z</time></trkpt><trkpt lat="48.18311928802039" lon="11.575743019269973"><ele>504.0</ele><time>2026-04-17T07:01:30.999Z</time></trkpt><trkpt lat="48.183204696886826" lon="11.575748908110873"><ele>504.0</ele><time>2026-04-17T07:01:31.999Z</time></trkpt><trkpt lat="48.18328213286614" lon="11.575755540347382"><ele>504.0</ele><time>2026-04-17T07:01:32.999Z</time></trkpt><trkpt lat="48.183403513714595" lon="11.575776960863635"><ele>504.0</ele><time>2026-04-17T07:01:34.999Z</time></trkpt><trkpt lat="48.18352147985636" lon="11.575827114762745"><ele>504.6</ele><time>2026-04-17T07:01:36.999Z</time></trkpt><trkpt lat="48.183639135950024" lon="11.575880251750089"><ele>505.2</ele><time>2026-04-17T07:01:38.999Z</time></trkpt><trkpt lat="48.183709829393614" lon="11.575908698659266"><ele>505.80000000000007</ele><time>2026-04-17T07:01:39.999Z</time></trkpt><trkpt lat="48.18377615327762" lon="11.575935055436378"><ele>506.40000000000003</ele><time>2026-04-17T07:01:40.999Z</time></trkpt><trkpt lat="48.183880634747105" lon="11.575968384924037"><ele>507.0</ele><time>2026-04-17T07:01:42.998Z</time></trkpt><trkpt lat="48.183979308069155" lon="11.576003453806672"><ele>507.1666666666667</ele><time>2026-04-17T07:01:44.998Z</time></trkpt><trkpt lat="48.184065739704145" lon="11.57603619807032"><ele>507.33333333333337</ele><time>2026-04-17T07:01:46.998Z</time></trkpt><trkpt lat="48.18413054550102" lon="11.576053822385353"><ele>507.5</ele><time>2026-04-17T07:01:48.998Z</time></trkpt><trkpt lat="48.18420525891408" lon="11.57607710228248"><ele>507.6666666666667</ele><time>2026-04-17T07:01:51.998Z</time></trkpt><trkpt lat="48.18427130423218" lon="11.576097054300071"><ele>507.83333333333337</ele><time>2026-04-17T07:02:00.998Z</time></trkpt><trkpt lat="48.18436675936951" lon="11.576093274877064"><ele>508.0</ele><time>2026-04-17T07:02:23.999Z</time></trkpt><trkpt lat="48.18445735641026" lon="11.576089028796376"><ele>508.00000000000006</ele><time>2026-04-17T07:02:24.999Z</time></trkpt><trkpt lat="48.184526761486254" lon="11.576089353729179"><ele>508.0</ele><time>2026-04-17T07:02:25.999Z</time></trkpt><trkpt lat="48.18464340961672" lon="11.57609421150734"><ele>508.0</ele><time>2026-04-17T07:02:27.999Z</time></trkpt><trkpt lat="48.18476717677909" lon="11.576108595528993"><ele>508.0</ele><time>2026-04-17T07:02:29.999Z</time></trkpt><trkpt lat="48.18483459883887" lon="11.576112161261364"><ele>508.00000000000006</ele><time>2026-04-17T07:02:30.999Z</time></trkpt><trkpt lat="48.18490159972078" lon="11.576122122918962"><ele>508.0</ele><time>2026-04-17T07:02:31.999Z</time></trkpt><trkpt lat="48.18496455512009" lon="11.576125777230045"><ele>508.0</ele><time>2026-04-17T07:02:32.999Z</time></trkpt><trkpt lat="48.18508466660177" lon="11.576137310840434"><ele>508.0</ele><time>2026-04-17T07:02:34.999Z</time></trkpt><trkpt lat="48.18520424404653" lon="11.576147303166374"><ele>508.0</ele><time>2026-04-17T07:02:36.999Z</time></trkpt><trkpt lat="48.18532276853167" lon="11.576157807865789"><ele>508.0</ele><time>2026-04-17T07:02:38.999Z</time></trkpt><trkpt lat="48.18542786861872" lon="11.57617123430354"><ele>508.00000000000006</ele><time>2026-04-17T07:02:40.999Z</time></trkpt><trkpt lat="48.18550997428505" lon="11.576181700712512"><ele>508.0</ele><time>2026-04-17T07:02:42.999Z</time></trkpt><trkpt lat="48.18558125475888" lon="11.576184670149273"><ele>508.0</ele><time>2026-04-17T07:02:44.999Z</time></trkpt><trkpt lat="48.18563042389627" lon="11.576249886540657"><ele>508.0</ele><time>2026-04-17T07:02:46.999Z</time></trkpt><trkpt lat="48.18564953525729" lon="11.576344377697987"><ele>508.00000000000006</ele><time>2026-04-17T07:02:50.999Z</time></trkpt><trkpt lat="48.18573198228411" lon="11.576364928732575"><ele>508.0</ele><time>2026-04-17T07:02:51.999Z</time></trkpt><trkpt lat="48.185850645429696" lon="11.576357046564464"><ele>507.4</ele><time>2026-04-17T07:02:53.999Z</time></trkpt><trkpt lat="48.18591611509965" lon="11.576358005007425"><ele>506.79999999999995</ele><time>2026-04-17T07:02:54.999Z</time></trkpt><trkpt lat="48.18602133553872" lon="11.576375806177003"><ele>506.2</ele><time>2026-04-17T07:02:56.999Z</time></trkpt><trkpt lat="48.18612961848699" lon="11.576377964105479"><ele>505.6</ele><time>2026-04-17T07:02:58.999Z</time></trkpt><trkpt lat="48.18625495837793" lon="11.576380461955742"><ele>505.0</ele><time>2026-04-17T07:03:00.999Z</time></trkpt><trkpt lat="48.18637547551448" lon="11.57638087708525"><ele>505.0</ele><time>2026-04-17T07:03:02.999Z</time></trkpt><trkpt lat="48.186499417319446" lon="11.576380464006313"><ele>505.0</ele><time>2026-04-17T07:03:04.999Z</time></trkpt><trkpt lat="48.18660906909478" lon="11.57635604188862"><ele>505.0</ele><time>2026-04-17T07:03:06.999Z</time></trkpt><trkpt lat="48.18671465588831" lon="11.576356762628633"><ele>505.0</ele><time>2026-04-17T07:03:08.999Z</time></trkpt><trkpt lat="48.18682199351575" lon="11.576345696819136"><ele>505.0</ele><time>2026-04-17T07:03:10.999Z</time></trkpt><trkpt lat="48.18692197953323" lon="11.576338265203896"><ele>505.1428571428571</ele><time>2026-04-17T07:03:12.999Z</time></trkpt><trkpt lat="48.186989759750254" lon="11.576330386994854"><ele>505.2857142857142</ele><time>2026-04-17T07:03:14.999Z</time></trkpt><trkpt lat="48.18706161294958" lon="11.576318012787649"><ele>505.42857142857144</ele><time>2026-04-17T07:03:16.999Z</time></trkpt><trkpt lat="48.18713557219164" lon="11.576335410911774"><ele>505.57142857142856</ele><time>2026-04-17T07:03:18.999Z</time></trkpt><trkpt lat="48.18720233881095" lon="11.576307516160703"><ele>505.7142857142857</ele><time>2026-04-17T07:03:20.999Z</time></trkpt><trkpt lat="48.18727946326282" lon="11.576307879777273"><ele>505.8571428571429</ele><time>2026-04-17T07:03:23.999Z</time></trkpt><trkpt lat="48.187363614851925" lon="11.57630076341153"><ele>506.00000000000006</ele><time>2026-04-17T07:04:31.999Z</time></trkpt><trkpt lat="48.18744540329228" lon="11.576296522358811"><ele>506.0</ele><time>2026-04-17T07:04:33.999Z</time></trkpt><trkpt lat="48.18750920439277" lon="11.576288554143526"><ele>506.0</ele><time>2026-04-17T07:04:36.999Z</time></trkpt><trkpt lat="48.18757464408017" lon="11.576272444038379"><ele>506.0</ele><time>2026-04-17T07:04:39.999Z</time></trkpt><trkpt lat="48.187670431833084" lon="11.576282765342732"><ele>506.0</ele><time>2026-04-17T07:04:41.999Z</time></trkpt><trkpt lat="48.18767520420074" lon="11.57604425178321"><ele>506.0</ele><time>2026-04-17T07:04:43.999Z</time></trkpt><trkpt lat="48.18767360637842" lon="11.57585963386303"><ele>505.99999999999994</ele><time>2026-04-17T07:04:45.999Z</time></trkpt><trkpt lat="48.18767188846936" lon="11.57573337271484"><ele>506.0</ele><time>2026-04-17T07:04:46.999Z</time></trkpt><trkpt lat="48.187667945196836" lon="11.575609064655998"><ele>506.0</ele><time>2026-04-17T07:04:47.999Z</time></trkpt><trkpt lat="48.18766388680423" lon="11.575494656329692"><ele>506.0</ele><time>2026-04-17T07:04:48.999Z</time></trkpt><trkpt lat="48.187660805503704" lon="11.575381929771869"><ele>505.99999999999994</ele><time>2026-04-17T07:04:49.999Z</time></trkpt><trkpt lat="48.18765845198113" lon="11.575266871440691"><ele>506.0</ele><time>2026-04-17T07:04:50.999Z</time></trkpt><trkpt lat="48.187654796753314" lon="11.575140157553843"><ele>506.0</ele><time>2026-04-17T07:04:51.999Z</time></trkpt><trkpt lat="48.18764972054272" lon="11.575001809765398"><ele>506.0</ele><time>2026-04-17T07:04:52.999Z</time></trkpt><trkpt lat="48.1876442659348" lon="11.574865232728772"><ele>506.0</ele><time>2026-04-17T07:04:53.999Z</time></trkpt><trkpt lat="48.1876390018793" lon="11.574726404501526"><ele>506.0</ele><time>2026-04-17T07:04:54.999Z</time></trkpt><trkpt lat="48.187633762750096" lon="11.574586583044336"><ele>506.0</ele><time>2026-04-17T07:04:55.999Z</time></trkpt><trkpt lat="48.18762857314191" lon="11.57445465778837"><ele>505.99999999999994</ele><time>2026-04-17T07:04:56.999Z</time></trkpt><trkpt lat="48.18762534507789" lon="11.574345466512888"><ele>506.0</ele><time>2026-04-17T07:04:57.999Z</time></trkpt><trkpt lat="48.18761346430117" lon="11.574169638892224"><ele>506.0</ele><time>2026-04-17T07:04:59.999Z</time></trkpt><trkpt lat="48.18760214279024" lon="11.574047060368873"><ele>506.0</ele><time>2026-04-17T07:05:01.999Z</time></trkpt><trkpt lat="48.18760059798014" lon="11.57394970182624"><ele>505.99999999999994</ele><time>2026-04-17T07:05:03.999Z</time></trkpt><trkpt lat="48.18759513941789" lon="11.573836198480565"><ele>506.0</ele><time>2026-04-17T07:05:06.999Z</time></trkpt><trkpt lat="48.18759259484487" lon="11.573718814535962"><ele>505.66666666666663</ele><time>2026-04-17T07:05:12.999Z</time></trkpt><trkpt lat="48.18759233342133" lon="11.573556851828473"><ele>505.3333333333333</ele><time>2026-04-17T07:05:14.999Z</time></trkpt><trkpt lat="48.18760561397408" lon="11.573462987374775"><ele>505.0</ele><time>2026-04-17T07:05:15.999Z</time></trkpt><trkpt lat="48.1876089449573" lon="11.573349866551952"><ele>504.66666666666663</ele><time>2026-04-17T07:05:16.999Z</time></trkpt><trkpt lat="48.18760224251973" lon="11.57323368897752"><ele>504.3333333333333</ele><time>2026-04-17T07:05:17.999Z</time></trkpt><trkpt lat="48.187586941746225" lon="11.573057385443217"><ele>504.0</ele><time>2026-04-17T07:05:19.999Z</time></trkpt><trkpt lat="48.18758298220547" lon="11.572917426854346"><ele>504.0</ele><time>2026-04-17T07:05:21.999Z</time></trkpt><trkpt lat="48.18757994593458" lon="11.572815828949214"><ele>504.0</ele><time>2026-04-17T07:05:23.999Z</time></trkpt><trkpt lat="48.187585285883415" lon="11.572712907151706"><ele>504.0</ele><time>2026-04-17T07:05:27.999Z</time></trkpt><trkpt lat="48.18771110774601" lon="11.572699062116582"><ele>504.0</ele><time>2026-04-17T07:05:29.999Z</time></trkpt><trkpt lat="48.187777919186345" lon="11.572696152461262"><ele>504.0</ele><time>2026-04-17T07:05:34.999Z</time></trkpt><trkpt lat="48.18785762646281" lon="11.57268986755253"><ele>504.0</ele><time>2026-04-17T07:05:38.999Z</time></trkpt><trkpt lat="48.18794423685143" lon="11.57268531605954"><ele>504.0</ele><time>2026-04-17T07:05:42.999Z</time></trkpt><trkpt lat="48.188080941264566" lon="11.572704365583148"><ele>504.0</ele><time>2026-04-17T07:05:44.999Z</time></trkpt><trkpt lat="48.18820985804157" lon="11.572686983641923"><ele>504.0</ele><time>2026-04-17T07:05:45.999Z</time></trkpt><trkpt lat="48.188394997278486" lon="11.572668897728482"><ele>504.0</ele><time>2026-04-17T07:05:46.999Z</time></trkpt><trkpt lat="48.188521879747924" lon="11.572670470354304"><ele>504.0</ele><time>2026-04-17T07:05:47.999Z</time></trkpt><trkpt lat="48.18863585519857" lon="11.572662449989656"><ele>504.0</ele><time>2026-04-17T07:05:48.999Z</time></trkpt><trkpt lat="48.188714262920456" lon="11.572658766550035"><ele>504.0</ele><time>2026-04-17T07:05:49.999Z</time></trkpt><trkpt lat="48.18878039893242" lon="11.572653948215281"><ele>504.0</ele><time>2026-04-17T07:05:50.999Z</time></trkpt><trkpt lat="48.18886490959769" lon="11.572656050845374"><ele>504.0</ele><time>2026-04-17T07:05:51.999Z</time></trkpt><trkpt lat="48.18895540716748" lon="11.572664312157148"><ele>504.0</ele><time>2026-04-17T07:05:52.999Z</time></trkpt><trkpt lat="48.18904375927739" lon="11.572662186142404"><ele>504.0</ele><time>2026-04-17T07:05:53.999Z</time></trkpt><trkpt lat="48.189138810502044" lon="11.57265637973787"><ele>504.0</ele><time>2026-04-17T07:05:54.999Z</time></trkpt><trkpt lat="48.18924385366246" lon="11.572638868006296"><ele>504.0</ele><time>2026-04-17T07:05:55.999Z</time></trkpt><trkpt lat="48.18935968765222" lon="11.572607819556554"><ele>504.0</ele><time>2026-04-17T07:05:56.999Z</time></trkpt><trkpt lat="48.18947484901506" lon="11.572591313614412"><ele>504.0</ele><time>2026-04-17T07:05:57.999Z</time></trkpt><trkpt lat="48.18957122715163" lon="11.57258896711648"><ele>504.0</ele><time>2026-04-17T07:05:58.999Z</time></trkpt><trkpt lat="48.18965546092558" lon="11.572584132565597"><ele>504.0</ele><time>2026-04-17T07:05:59.999Z</time></trkpt><trkpt lat="48.18975322788839" lon="11.572577049663984"><ele>504.0</ele><time>2026-04-17T07:06:00.999Z</time></trkpt><trkpt lat="48.18985032208963" lon="11.572570556859453"><ele>504.25</ele><time>2026-04-17T07:06:01.999Z</time></trkpt><trkpt lat="48.18995870580925" lon="11.572562089176051"><ele>504.5</ele><time>2026-04-17T07:06:02.999Z</time></trkpt><trkpt lat="48.1900808703467" lon="11.572550067113868"><ele>504.75</ele><time>2026-04-17T07:06:03.999Z</time></trkpt><trkpt lat="48.19021462712978" lon="11.57254218211975"><ele>505.0</ele><time>2026-04-17T07:06:04.999Z</time></trkpt><trkpt lat="48.190344744638345" lon="11.572527124421377"><ele>505.0</ele><time>2026-04-17T07:06:05.999Z</time></trkpt><trkpt lat="48.19047365934275" lon="11.572504045988474"><ele>505.0</ele><time>2026-04-17T07:06:06.999Z</time></trkpt><trkpt lat="48.19059735946273" lon="11.572487621908227"><ele>505.0</ele><time>2026-04-17T07:06:07.999Z</time></trkpt><trkpt lat="48.190703062754544" lon="11.57251258882598"><ele>505.0</ele><time>2026-04-17T07:06:08.999Z</time></trkpt><trkpt lat="48.19077634176562" lon="11.572508454204103"><ele>505.0</ele><time>2026-04-17T07:06:09.999Z</time></trkpt><trkpt lat="48.19085032384346" lon="11.572499478311972"><ele>505.33333333333337</ele><time>2026-04-17T07:06:10.999Z</time></trkpt><trkpt lat="48.19091774822481" lon="11.572490889400125"><ele>505.6666666666667</ele><time>2026-04-17T07:06:11.999Z</time></trkpt><trkpt lat="48.19098299830475" lon="11.572478518595874"><ele>506.0</ele><time>2026-04-17T07:06:12.999Z</time></trkpt><trkpt lat="48.19104772677184" lon="11.572466942731783"><ele>506.33333333333337</ele><time>2026-04-17T07:06:13.999Z</time></trkpt><trkpt lat="48.19116193461606" lon="11.572451610723656"><ele>506.6666666666667</ele><time>2026-04-17T07:06:15.999Z</time></trkpt><trkpt lat="48.191258069035065" lon="11.57245353600458"><ele>507.0</ele><time>2026-04-17T07:06:17.999Z</time></trkpt><trkpt lat="48.191335806652994" lon="11.572458463389754"><ele>507.0</ele><time>2026-04-17T07:06:19.999Z</time></trkpt><trkpt lat="48.19144331809553" lon="11.572448999624024"><ele>507.0</ele><time>2026-04-17T07:06:39.999Z</time></trkpt><trkpt lat="48.19151434932413" lon="11.572437593315724"><ele>507.0</ele><time>2026-04-17T07:06:40.999Z</time></trkpt><trkpt lat="48.191587041053054" lon="11.572431005257691"><ele>507.0</ele><time>2026-04-17T07:06:41.999Z</time></trkpt><trkpt lat="48.19165071941575" lon="11.57242243445386"><ele>507.0</ele><time>2026-04-17T07:06:42.999Z</time></trkpt><trkpt lat="48.19174035515841" lon="11.572411632287611"><ele>507.0</ele><time>2026-04-17T07:06:44.999Z</time></trkpt><trkpt lat="48.191818493593324" lon="11.572403997353808"><ele>507.0</ele><time>2026-04-17T07:06:46.999Z</time></trkpt><trkpt lat="48.19194940987975" lon="11.572389056096432"><ele>507.00000000000006</ele><time>2026-04-17T07:06:48.999Z</time></trkpt><trkpt lat="48.192062205242294" lon="11.572377324753464"><ele>507.00000000000006</ele><time>2026-04-17T07:06:50.999Z</time></trkpt><trkpt lat="48.19213998818962" lon="11.572375760514532"><ele>507.0</ele><time>2026-04-17T07:06:52.999Z</time></trkpt><trkpt lat="48.19221267333997" lon="11.572396908629473"><ele>507.0</ele><time>2026-04-17T07:06:54.999Z</time></trkpt><trkpt lat="48.192255688753505" lon="11.572553095305201"><ele>507.0</ele><time>2026-04-17T07:06:56.999Z</time></trkpt><trkpt lat="48.19226286116983" lon="11.572686938711133"><ele>507.0</ele><time>2026-04-17T07:06:57.999Z</time></trkpt><trkpt lat="48.192269726334" lon="11.572828045709606"><ele>507.0</ele><time>2026-04-17T07:06:58.999Z</time></trkpt><trkpt lat="48.19227232111325" lon="11.572942783935773"><ele>507.0</ele><time>2026-04-17T07:06:59.999Z</time></trkpt><trkpt lat="48.192272481728686" lon="11.573062783131167"><ele>507.0</ele><time>2026-04-17T07:07:00.999Z</time></trkpt><trkpt lat="48.192272708097846" lon="11.573196579366892"><ele>507.0</ele><time>2026-04-17T07:07:01.999Z</time></trkpt><trkpt lat="48.19227415744856" lon="11.573340481708435"><ele>507.1666666666667</ele><time>2026-04-17T07:07:02.999Z</time></trkpt><trkpt lat="48.19227888434785" lon="11.573491648724213"><ele>507.33333333333337</ele><time>2026-04-17T07:07:03.999Z</time></trkpt><trkpt lat="48.19228463066691" lon="11.573641172650362"><ele>507.5</ele><time>2026-04-17T07:07:04.999Z</time></trkpt><trkpt lat="48.19228929081561" lon="11.573772780282107"><ele>507.6666666666667</ele><time>2026-04-17T07:07:05.999Z</time></trkpt><trkpt lat="48.192292990857695" lon="11.573887864431054"><ele>507.83333333333337</ele><time>2026-04-17T07:07:06.999Z</time></trkpt><trkpt lat="48.192294276979524" lon="11.573984888580974"><ele>508.0</ele><time>2026-04-17T07:07:07.999Z</time></trkpt><trkpt lat="48.19229025861573" lon="11.574169036496114"><ele>507.6666666666667</ele><time>2026-04-17T07:07:09.999Z</time></trkpt><trkpt lat="48.19229340371823" lon="11.574278275862453"><ele>507.33333333333337</ele><time>2026-04-17T07:07:10.999Z</time></trkpt><trkpt lat="48.192304388253" lon="11.574401050404251"><ele>507.0</ele><time>2026-04-17T07:07:11.999Z</time></trkpt><trkpt lat="48.1923084752601" lon="11.574510613624753"><ele>506.66666666666663</ele><time>2026-04-17T07:07:12.999Z</time></trkpt><trkpt lat="48.19231198919271" lon="11.574682808235393"><ele>506.3333333333333</ele><time>2026-04-17T07:07:14.999Z</time></trkpt><trkpt lat="48.192312616508765" lon="11.574819021105775"><ele>506.0</ele><time>2026-04-17T07:07:16.999Z</time></trkpt><trkpt lat="48.192321227230316" lon="11.574950168701285"><ele>506.0</ele><time>2026-04-17T07:07:19.999Z</time></trkpt><trkpt lat="48.19232312392157" lon="11.57506286247551"><ele>506.0</ele><time>2026-04-17T07:07:32.999Z</time></trkpt><trkpt lat="48.192324349129365" lon="11.575214302345053"><ele>506.0</ele><time>2026-04-17T07:07:34.999Z</time></trkpt><trkpt lat="48.192329822630434" lon="11.575368209621155"><ele>506.0</ele><time>2026-04-17T07:07:36.999Z</time></trkpt><trkpt lat="48.1923320799818" lon="11.575524117188955"><ele>506.0</ele><time>2026-04-17T07:07:38.999Z</time></trkpt><trkpt lat="48.19234531599075" lon="11.575686221576605"><ele>506.1428571428572</ele><time>2026-04-17T07:07:40.999Z</time></trkpt><trkpt lat="48.19235849972932" lon="11.575783791259433"><ele>506.28571428571433</ele><time>2026-04-17T07:07:41.999Z</time></trkpt><trkpt lat="48.19237572321517" lon="11.575887681452835"><ele>506.42857142857144</ele><time>2026-04-17T07:07:42.999Z</time></trkpt><trkpt lat="48.19239528537351" lon="11.575992225320856"><ele>506.5714285714286</ele><time>2026-04-17T07:07:43.999Z</time></trkpt><trkpt lat="48.19241619555107" lon="11.57610020330986"><ele>506.7142857142858</ele><time>2026-04-17T07:07:44.999Z</time></trkpt><trkpt lat="48.1924389035453" lon="11.576209743774292"><ele>506.85714285714283</ele><time>2026-04-17T07:07:45.999Z</time></trkpt><trkpt lat="48.192462143759876" lon="11.576321627577189"><ele>507.0</ele><time>2026-04-17T07:07:46.999Z</time></trkpt><trkpt lat="48.1924877796996" lon="11.576442013496429"><ele>506.6666666666667</ele><time>2026-04-17T07:07:47.999Z</time></trkpt><trkpt lat="48.19250379395181" lon="11.576567892941275"><ele>506.33333333333337</ele><time>2026-04-17T07:07:48.999Z</time></trkpt><trkpt lat="48.192509483785415" lon="11.576690188507342"><ele>506.0</ele><time>2026-04-17T07:07:49.999Z</time></trkpt><trkpt lat="48.19251135961514" lon="11.576812535967878"><ele>505.6666666666667</ele><time>2026-04-17T07:07:50.999Z</time></trkpt><trkpt lat="48.192514188829605" lon="11.576932925542803"><ele>505.33333333333337</ele><time>2026-04-17T07:07:51.999Z</time></trkpt><trkpt lat="48.192519815653974" lon="11.577053916922475"><ele>505.0</ele><time>2026-04-17T07:07:52.999Z</time></trkpt><trkpt lat="48.192525370718045" lon="11.577173426941002"><ele>504.6</ele><time>2026-04-17T07:07:53.999Z</time></trkpt><trkpt lat="48.1925296604704" lon="11.577302301100673"><ele>504.2</ele><time>2026-04-17T07:07:54.999Z</time></trkpt><trkpt lat="48.19253363941331" lon="11.57747919384248"><ele>503.79999999999995</ele><time>2026-04-17T07:07:55.999Z</time></trkpt><trkpt lat="48.192540970419714" lon="11.57764600036681"><ele>503.4</ele><time>2026-04-17T07:07:56.999Z</time></trkpt><trkpt lat="48.19254799801453" lon="11.577789478874285"><ele>503.0</ele><time>2026-04-17T07:07:57.999Z</time></trkpt><trkpt lat="48.19255446043443" lon="11.577919161656522"><ele>502.99999999999994</ele><time>2026-04-17T07:07:58.999Z</time></trkpt><trkpt lat="48.19255998330455" lon="11.578036855208182"><ele>503.0</ele><time>2026-04-17T07:07:59.999Z</time></trkpt><trkpt lat="48.19256346388166" lon="11.578147653967111"><ele>503.0</ele><time>2026-04-17T07:08:00.999Z</time></trkpt><trkpt lat="48.192567027413695" lon="11.57826035171491"><ele>503.0</ele><time>2026-04-17T07:08:01.999Z</time></trkpt><trkpt lat="48.19256746320739" lon="11.578374830551573"><ele>502.99999999999994</ele><time>2026-04-17T07:08:02.999Z</time></trkpt><trkpt lat="48.19256988036974" lon="11.57851949523258"><ele>503.0</ele><time>2026-04-17T07:08:04.999Z</time></trkpt><trkpt lat="48.19257022210882" lon="11.578676712194362"><ele>502.59999999999997</ele><time>2026-04-17T07:08:07.999Z</time></trkpt><trkpt lat="48.19257298536186" lon="11.578826110687547"><ele>502.19999999999993</ele><time>2026-04-17T07:08:09.999Z</time></trkpt><trkpt lat="48.19257647252828" lon="11.5790075110223"><ele>501.8</ele><time>2026-04-17T07:08:11.999Z</time></trkpt><trkpt lat="48.192576834400846" lon="11.579120651484637"><ele>501.4</ele><time>2026-04-17T07:08:12.999Z</time></trkpt><trkpt lat="48.19257483134397" lon="11.579276159607337"><ele>501.0</ele><time>2026-04-17T07:08:13.999Z</time></trkpt><trkpt lat="48.19257539239207" lon="11.579460827222679"><ele>501.20000000000005</ele><time>2026-04-17T07:08:14.999Z</time></trkpt><trkpt lat="48.192577822631556" lon="11.579598352762096"><ele>501.40000000000003</ele><time>2026-04-17T07:08:15.999Z</time></trkpt><trkpt lat="48.19258018883136" lon="11.579717764543023"><ele>501.6</ele><time>2026-04-17T07:08:16.999Z</time></trkpt><trkpt lat="48.19258322605286" lon="11.579835638851673"><ele>501.8</ele><time>2026-04-17T07:08:17.999Z</time></trkpt><trkpt lat="48.19258769809349" lon="11.579978032500701"><ele>502.0</ele><time>2026-04-17T07:08:18.999Z</time></trkpt><trkpt lat="48.19259137108066" lon="11.580161014271251"><ele>502.0</ele><time>2026-04-17T07:08:19.999Z</time></trkpt><trkpt lat="48.1925929707805" lon="11.580336992904765"><ele>502.00000000000006</ele><time>2026-04-17T07:08:20.999Z</time></trkpt><trkpt lat="48.1925943140079" lon="11.58049923024484"><ele>502.00000000000006</ele><time>2026-04-17T07:08:21.999Z</time></trkpt><trkpt lat="48.19259607487467" lon="11.580652965097384"><ele>502.0</ele><time>2026-04-17T07:08:22.999Z</time></trkpt><trkpt lat="48.19259845690407" lon="11.580785734048835"><ele>502.0</ele><time>2026-04-17T07:08:23.999Z</time></trkpt><trkpt lat="48.19259990366009" lon="11.58091081032855"><ele>502.1666666666667</ele><time>2026-04-17T07:08:24.999Z</time></trkpt><trkpt lat="48.19260060875939" lon="11.58103480001096"><ele>502.33333333333337</ele><time>2026-04-17T07:08:25.999Z</time></trkpt><trkpt lat="48.192600984059936" lon="11.581167642739427"><ele>502.5</ele><time>2026-04-17T07:08:26.999Z</time></trkpt><trkpt lat="48.19260271284794" lon="11.581312447445065"><ele>502.66666666666663</ele><time>2026-04-17T07:08:27.999Z</time></trkpt><trkpt lat="48.19260437900147" lon="11.581454387798662"><ele>502.8333333333333</ele><time>2026-04-17T07:08:28.999Z</time></trkpt><trkpt lat="48.19260593136524" lon="11.581580108215546"><ele>503.0</ele><time>2026-04-17T07:08:29.999Z</time></trkpt><trkpt lat="48.19260619455108" lon="11.581688777939833"><ele>503.0</ele><time>2026-04-17T07:08:30.999Z</time></trkpt><trkpt lat="48.19260221535924" lon="11.581865427983566"><ele>502.99999999999994</ele><time>2026-04-17T07:08:32.999Z</time></trkpt><trkpt lat="48.19258974381333" lon="11.582023215985487"><ele>502.99999999999994</ele><time>2026-04-17T07:08:34.999Z</time></trkpt><trkpt lat="48.19252487082776" lon="11.582115231341128"><ele>503.0</ele><time>2026-04-17T07:08:36.999Z</time></trkpt><trkpt lat="48.1924246181674" lon="11.582149700966328"><ele>503.0</ele><time>2026-04-17T07:08:38.999Z</time></trkpt><trkpt lat="48.192355068382966" lon="11.58216194517906"><ele>503.16666666666663</ele><time>2026-04-17T07:08:39.999Z</time></trkpt><trkpt lat="48.192272700299235" lon="11.582180149622191"><ele>503.3333333333333</ele><time>2026-04-17T07:08:40.999Z</time></trkpt><trkpt lat="48.19219775803287" lon="11.582196037688488"><ele>503.5</ele><time>2026-04-17T07:08:41.999Z</time></trkpt><trkpt lat="48.192123421198986" lon="11.582208823964768"><ele>503.66666666666663</ele><time>2026-04-17T07:08:42.999Z</time></trkpt><trkpt lat="48.19204435414832" lon="11.582217183883882"><ele>503.8333333333333</ele><time>2026-04-17T07:08:43.999Z</time></trkpt><trkpt lat="48.19197057252169" lon="11.582227575626684"><ele>504.0</ele><time>2026-04-17T07:08:44.999Z</time></trkpt><trkpt lat="48.19188942023399" lon="11.582233828322863"><ele>504.0</ele><time>2026-04-17T07:08:45.999Z</time></trkpt><trkpt lat="48.191808363825565" lon="11.582241467904867"><ele>504.0</ele><time>2026-04-17T07:08:46.999Z</time></trkpt><trkpt lat="48.19172274610658" lon="11.58224449035665"><ele>504.0</ele><time>2026-04-17T07:08:47.999Z</time></trkpt><trkpt lat="48.19163400214399" lon="11.582242864974448"><ele>504.0</ele><time>2026-04-17T07:08:48.999Z</time></trkpt><trkpt lat="48.19154560811873" lon="11.582243412803214"><ele>504.0</ele><time>2026-04-17T07:08:49.999Z</time></trkpt><trkpt lat="48.191471293524245" lon="11.582243213341012"><ele>504.0</ele><time>2026-04-17T07:08:50.999Z</time></trkpt><trkpt lat="48.19139664554909" lon="11.58224352782351"><ele>504.0</ele><time>2026-04-17T07:08:51.999Z</time></trkpt><trkpt lat="48.19132419527255" lon="11.582240026493164"><ele>504.0</ele><time>2026-04-17T07:08:52.999Z</time></trkpt><trkpt lat="48.19124791628545" lon="11.582235007779309"><ele>504.0</ele><time>2026-04-17T07:08:53.999Z</time></trkpt><trkpt lat="48.19116913935465" lon="11.582227187831483"><ele>504.0</ele><time>2026-04-17T07:08:54.999Z</time></trkpt><trkpt lat="48.19108316626867" lon="11.582231454279357"><ele>504.0</ele><time>2026-04-17T07:08:55.999Z</time></trkpt><trkpt lat="48.19099196472429" lon="11.582226334792042"><ele>504.0</ele><time>2026-04-17T07:08:56.999Z</time></trkpt><trkpt lat="48.190905510515755" lon="11.582281462317344"><ele>504.0</ele><time>2026-04-17T07:08:57.999Z</time></trkpt><trkpt lat="48.19081488104021" lon="11.582338392235835"><ele>504.0</ele><time>2026-04-17T07:08:58.999Z</time></trkpt><trkpt lat="48.190767448515686" lon="11.582445268141715"><ele>504.0</ele><time>2026-04-17T07:08:59.999Z</time></trkpt><trkpt lat="48.190738019806396" lon="11.582579436886592"><ele>504.0</ele><time>2026-04-17T07:09:00.999Z</time></trkpt><trkpt lat="48.190727886300145" lon="11.582700641082578"><ele>504.0</ele><time>2026-04-17T07:09:01.999Z</time></trkpt><trkpt lat="48.19072443254483" lon="11.582814998579648"><ele>504.0</ele><time>2026-04-17T07:09:02.999Z</time></trkpt><trkpt lat="48.19072422331367" lon="11.583002236033037"><ele>503.79999999999995</ele><time>2026-04-17T07:09:03.999Z</time></trkpt><trkpt lat="48.19072353534479" lon="11.583168879948635"><ele>503.59999999999997</ele><time>2026-04-17T07:09:04.999Z</time></trkpt><trkpt lat="48.190721470805435" lon="11.583317131376507"><ele>503.4</ele><time>2026-04-17T07:09:05.999Z</time></trkpt><trkpt lat="48.19071883252815" lon="11.583476560454494"><ele>503.2</ele><time>2026-04-17T07:09:06.999Z</time></trkpt><trkpt lat="48.190718399547606" lon="11.583648777849161"><ele>503.0</ele><time>2026-04-17T07:09:07.999Z</time></trkpt><trkpt lat="48.19071943658432" lon="11.583840504105087"><ele>503.0</ele><time>2026-04-17T07:09:08.999Z</time></trkpt><trkpt lat="48.190718887067014" lon="11.584042545991977"><ele>503.0</ele><time>2026-04-17T07:09:09.999Z</time></trkpt><trkpt lat="48.19072185740954" lon="11.584227956609467"><ele>503.0</ele><time>2026-04-17T07:09:10.999Z</time></trkpt><trkpt lat="48.19072581210762" lon="11.584412763832917"><ele>503.0</ele><time>2026-04-17T07:09:11.999Z</time></trkpt><trkpt lat="48.19072915468259" lon="11.58459094322929"><ele>503.25</ele><time>2026-04-17T07:09:12.999Z</time></trkpt><trkpt lat="48.190732391782745" lon="11.584763539031359"><ele>503.5</ele><time>2026-04-17T07:09:13.999Z</time></trkpt><trkpt lat="48.190735954059186" lon="11.584929107695466"><ele>503.75</ele><time>2026-04-17T07:09:14.999Z</time></trkpt><trkpt lat="48.19073839342269" lon="11.585107692410238"><ele>504.0</ele><time>2026-04-17T07:09:15.999Z</time></trkpt><trkpt lat="48.1907393300352" lon="11.585298449391567"><ele>503.75</ele><time>2026-04-17T07:09:16.999Z</time></trkpt><trkpt lat="48.19073893626442" lon="11.585491109583508"><ele>503.5</ele><time>2026-04-17T07:09:17.999Z</time></trkpt><trkpt lat="48.190742146146285" lon="11.585678833512981"><ele>503.25</ele><time>2026-04-17T07:09:18.999Z</time></trkpt><trkpt lat="48.19074692890305" lon="11.58587460823537"><ele>503.0</ele><time>2026-04-17T07:09:19.999Z</time></trkpt><trkpt lat="48.19075364286416" lon="11.586068509723292"><ele>503.0</ele><time>2026-04-17T07:09:20.999Z</time></trkpt><trkpt lat="48.19076214649055" lon="11.586243899155981"><ele>502.99999999999994</ele><time>2026-04-17T07:09:21.999Z</time></trkpt><trkpt lat="48.19076964556638" lon="11.586401752955606"><ele>502.99999999999994</ele><time>2026-04-17T07:09:22.999Z</time></trkpt><trkpt lat="48.19077893462314" lon="11.586544642248446"><ele>503.0</ele><time>2026-04-17T07:09:23.999Z</time></trkpt><trkpt lat="48.19078815939076" lon="11.586675116579169"><ele>503.0</ele><time>2026-04-17T07:09:24.999Z</time></trkpt><trkpt lat="48.190800014008154" lon="11.586791024694616"><ele>503.0</ele><time>2026-04-17T07:09:25.999Z</time></trkpt><trkpt lat="48.19081590843578" lon="11.586932527955767"><ele>502.99999999999994</ele><time>2026-04-17T07:09:27.999Z</time></trkpt><trkpt lat="48.19082756394957" lon="11.587037947620317"><ele>502.99999999999994</ele><time>2026-04-17T07:09:29.999Z</time></trkpt><trkpt lat="48.19084424502719" lon="11.58720352224321"><ele>503.0</ele><time>2026-04-17T07:09:31.999Z</time></trkpt><trkpt lat="48.19085968931024" lon="11.58733351391871"><ele>503.0</ele><time>2026-04-17T07:09:32.999Z</time></trkpt><trkpt lat="48.19088005049954" lon="11.587484895452615"><ele>503.75</ele><time>2026-04-17T07:09:33.999Z</time></trkpt><trkpt lat="48.19090022713205" lon="11.587671422260815"><ele>504.5</ele><time>2026-04-17T07:09:34.999Z</time></trkpt><trkpt lat="48.19092326858118" lon="11.58787514703776"><ele>505.25</ele><time>2026-04-17T07:09:35.999Z</time></trkpt><trkpt lat="48.19094697665737" lon="11.588069698750434"><ele>506.0</ele><time>2026-04-17T07:09:36.999Z</time></trkpt><trkpt lat="48.19097072613736" lon="11.588252028059248"><ele>506.0</ele><time>2026-04-17T07:09:37.999Z</time></trkpt><trkpt lat="48.190989330288346" lon="11.588422007678815"><ele>506.0</ele><time>2026-04-17T07:09:38.999Z</time></trkpt><trkpt lat="48.19100836391653" lon="11.58858424720755"><ele>506.0</ele><time>2026-04-17T07:09:39.999Z</time></trkpt><trkpt lat="48.19102591234516" lon="11.588742409798938"><ele>506.0</ele><time>2026-04-17T07:09:40.999Z</time></trkpt><trkpt lat="48.191045293897076" lon="11.588894312280429"><ele>506.0</ele><time>2026-04-17T07:09:41.999Z</time></trkpt><trkpt lat="48.19106810154032" lon="11.589044275140589"><ele>505.0</ele><time>2026-04-17T07:09:42.999Z</time></trkpt><trkpt lat="48.19108932438776" lon="11.589192947130117"><ele>504.0</ele><time>2026-04-17T07:09:43.999Z</time></trkpt><trkpt lat="48.19111063870805" lon="11.589344278042388"><ele>503.0</ele><time>2026-04-17T07:09:44.999Z</time></trkpt><trkpt lat="48.191136652511524" lon="11.589496193881544"><ele>502.0</ele><time>2026-04-17T07:09:45.999Z</time></trkpt><trkpt lat="48.19116943292387" lon="11.58964102637822"><ele>501.0</ele><time>2026-04-17T07:09:46.999Z</time></trkpt><trkpt lat="48.19121248820557" lon="11.589778259729266"><ele>501.0</ele><time>2026-04-17T07:09:47.999Z</time></trkpt><trkpt lat="48.19126523941652" lon="11.589899410734585"><ele>501.0</ele><time>2026-04-17T07:09:48.999Z</time></trkpt><trkpt lat="48.19131716753846" lon="11.590006467389122"><ele>501.0</ele><time>2026-04-17T07:09:49.999Z</time></trkpt><trkpt lat="48.191362012798265" lon="11.59009424434014"><ele>501.0</ele><time>2026-04-17T07:09:50.999Z</time></trkpt><trkpt lat="48.19140766271572" lon="11.590175833544864"><ele>501.0</ele><time>2026-04-17T07:09:51.999Z</time></trkpt><trkpt lat="48.19145729983395" lon="11.590245207379448"><ele>501.0</ele><time>2026-04-17T07:09:52.999Z</time></trkpt><trkpt lat="48.19154321510213" lon="11.590353175564823"><ele>501.0</ele><time>2026-04-17T07:09:54.999Z</time></trkpt><trkpt lat="48.191633379061926" lon="11.590395935798108"><ele>501.0</ele><time>2026-04-17T07:09:56.999Z</time></trkpt><trkpt lat="48.19166007503709" lon="11.590566033370099"><ele>501.0</ele><time>2026-04-17T07:09:58.999Z</time></trkpt><trkpt lat="48.191665144268136" lon="11.590673464473733"><ele>501.0</ele><time>2026-04-17T07:09:59.999Z</time></trkpt><trkpt lat="48.19167190419825" lon="11.590790639037973"><ele>501.0</ele><time>2026-04-17T07:10:00.999Z</time></trkpt><trkpt lat="48.19167377011788" lon="11.590886165482376"><ele>501.0</ele><time>2026-04-17T07:10:01.999Z</time></trkpt><trkpt lat="48.19167208540582" lon="11.591019181129928"><ele>501.0</ele><time>2026-04-17T07:10:03.999Z</time></trkpt><trkpt lat="48.191670150557414" lon="11.591139637810196"><ele>501.0</ele><time>2026-04-17T07:10:05.999Z</time></trkpt><trkpt lat="48.191668351255345" lon="11.591240211628785"><ele>501.0</ele><time>2026-04-17T07:10:06.999Z</time></trkpt><trkpt lat="48.19167131254166" lon="11.591376822030252"><ele>501.0</ele><time>2026-04-17T07:10:07.999Z</time></trkpt><trkpt lat="48.19167200783329" lon="11.59156292442109"><ele>501.0</ele><time>2026-04-17T07:10:08.999Z</time></trkpt><trkpt lat="48.1916751352123" lon="11.591752788268847"><ele>501.20000000000005</ele><time>2026-04-17T07:10:09.999Z</time></trkpt><trkpt lat="48.191675742263875" lon="11.59191267043536"><ele>501.40000000000003</ele><time>2026-04-17T07:10:10.999Z</time></trkpt><trkpt lat="48.19167751075045" lon="11.592067137207554"><ele>501.6</ele><time>2026-04-17T07:10:11.999Z</time></trkpt><trkpt lat="48.19167479135281" lon="11.592220018441926"><ele>501.8</ele><time>2026-04-17T07:10:12.999Z</time></trkpt><trkpt lat="48.19167486177943" lon="11.59238693715058"><ele>502.0</ele><time>2026-04-17T07:10:13.999Z</time></trkpt><trkpt lat="48.1916765133686" lon="11.592557775165005"><ele>502.0</ele><time>2026-04-17T07:10:14.999Z</time></trkpt><trkpt lat="48.19168050929076" lon="11.59276016997197"><ele>502.0</ele><time>2026-04-17T07:10:15.999Z</time></trkpt><trkpt lat="48.19168655617847" lon="11.592934562077565"><ele>502.0</ele><time>2026-04-17T07:10:16.999Z</time></trkpt><trkpt lat="48.19168982621975" lon="11.593100718004777"><ele>502.0</ele><time>2026-04-17T07:10:17.999Z</time></trkpt><trkpt lat="48.191691099444114" lon="11.5932715856266"><ele>502.0</ele><time>2026-04-17T07:10:18.999Z</time></trkpt><trkpt lat="48.19169328275117" lon="11.59344331825639"><ele>502.0</ele><time>2026-04-17T07:10:19.999Z</time></trkpt><trkpt lat="48.191695970904874" lon="11.593613699029326"><ele>502.0</ele><time>2026-04-17T07:10:20.999Z</time></trkpt><trkpt lat="48.19169872114689" lon="11.59378262762044"><ele>502.0</ele><time>2026-04-17T07:10:21.999Z</time></trkpt><trkpt lat="48.1917000147602" lon="11.593950324054587"><ele>502.20000000000005</ele><time>2026-04-17T07:10:22.999Z</time></trkpt><trkpt lat="48.19170337333443" lon="11.594113883492323"><ele>502.40000000000003</ele><time>2026-04-17T07:10:23.999Z</time></trkpt><trkpt lat="48.1917049215762" lon="11.594273950493731"><ele>502.59999999999997</ele><time>2026-04-17T07:10:24.999Z</time></trkpt><trkpt lat="48.19170627422895" lon="11.594429492769903"><ele>502.79999999999995</ele><time>2026-04-17T07:10:25.999Z</time></trkpt><trkpt lat="48.1917076868428" lon="11.594582899188982"><ele>503.0</ele><time>2026-04-17T07:10:26.999Z</time></trkpt><trkpt lat="48.19170874315838" lon="11.59473177541581"><ele>503.0</ele><time>2026-04-17T07:10:27.999Z</time></trkpt><trkpt lat="48.19170917581172" lon="11.594882902699375"><ele>502.99999999999994</ele><time>2026-04-17T07:10:28.999Z</time></trkpt><trkpt lat="48.1917092094787" lon="11.595033501678937"><ele>502.99999999999994</ele><time>2026-04-17T07:10:29.999Z</time></trkpt><trkpt lat="48.19171320354957" lon="11.595187579157207"><ele>503.0</ele><time>2026-04-17T07:10:30.999Z</time></trkpt><trkpt lat="48.191717317833664" lon="11.595342899773435"><ele>503.0</ele><time>2026-04-17T07:10:31.999Z</time></trkpt><trkpt lat="48.191717273932824" lon="11.595492721151858"><ele>502.4</ele><time>2026-04-17T07:10:32.999Z</time></trkpt><trkpt lat="48.19171651635101" lon="11.595626018951686"><ele>501.79999999999995</ele><time>2026-04-17T07:10:33.999Z</time></trkpt><trkpt lat="48.19171605504787" lon="11.595759568181995"><ele>501.2</ele><time>2026-04-17T07:10:34.999Z</time></trkpt><trkpt lat="48.19171619190858" lon="11.595907176847884"><ele>500.6</ele><time>2026-04-17T07:10:35.999Z</time></trkpt><trkpt lat="48.19171620760747" lon="11.596055294892397"><ele>500.0</ele><time>2026-04-17T07:10:36.999Z</time></trkpt><trkpt lat="48.19171180934121" lon="11.596181510860163"><ele>499.99999999999994</ele><time>2026-04-17T07:10:37.999Z</time></trkpt><trkpt lat="48.19171722376571" lon="11.596300508985976"><ele>500.0</ele><time>2026-04-17T07:10:38.999Z</time></trkpt><trkpt lat="48.191745839154144" lon="11.596405435984426"><ele>500.0</ele><time>2026-04-17T07:10:39.999Z</time></trkpt><trkpt lat="48.191790194584826" lon="11.596499608842612"><ele>500.0</ele><time>2026-04-17T07:10:40.999Z</time></trkpt><trkpt lat="48.19185015681522" lon="11.596572550796372"><ele>499.99999999999994</ele><time>2026-04-17T07:10:41.999Z</time></trkpt><trkpt lat="48.191934964355895" lon="11.596621482142375"><ele>500.0</ele><time>2026-04-17T07:10:42.999Z</time></trkpt><trkpt lat="48.19202173776732" lon="11.596643813105151"><ele>499.99999999999994</ele><time>2026-04-17T07:10:44Z</time></trkpt><trkpt lat="48.19210790409238" lon="11.596643364087388"><ele>500.0</ele><time>2026-04-17T07:10:45Z</time></trkpt><trkpt lat="48.19219688816879" lon="11.596625706812764"><ele>500.0</ele><time>2026-04-17T07:10:46Z</time></trkpt><trkpt lat="48.192280274339346" lon="11.596611570142668"><ele>500.0</ele><time>2026-04-17T07:10:47Z</time></trkpt><trkpt lat="48.19235291921553" lon="11.596603672607275"><ele>499.99999999999994</ele><time>2026-04-17T07:10:48Z</time></trkpt><trkpt lat="48.192417731118965" lon="11.59659779312871"><ele>500.0</ele><time>2026-04-17T07:10:49Z</time></trkpt><trkpt lat="48.19251450225265" lon="11.59658795496281"><ele>500.0</ele><time>2026-04-17T07:10:51Z</time></trkpt><trkpt lat="48.19258517326636" lon="11.596583875737954"><ele>500.0</ele><time>2026-04-17T07:10:54Z</time></trkpt><trkpt lat="48.19264884156489" lon="11.596582176579599"><ele>500.0</ele><time>2026-04-17T07:11:39Z</time></trkpt><trkpt lat="48.192747252177824" lon="11.596597790584951"><ele>500.0</ele><time>2026-04-17T07:11:41Z</time></trkpt><trkpt lat="48.19276787489669" lon="11.596755215627207"><ele>500.0</ele><time>2026-04-17T07:11:42Z</time></trkpt><trkpt lat="48.19276879653794" lon="11.596965670690428"><ele>499.8333333333333</ele><time>2026-04-17T07:11:44Z</time></trkpt><trkpt lat="48.19277237711603" lon="11.59709150413075"><ele>499.66666666666663</ele><time>2026-04-17T07:11:45Z</time></trkpt><trkpt lat="48.19277649464061" lon="11.597226196065353"><ele>499.5</ele><time>2026-04-17T07:11:46Z</time></trkpt><trkpt lat="48.192779521991866" lon="11.597357480842263"><ele>499.33333333333337</ele><time>2026-04-17T07:11:47Z</time></trkpt><trkpt lat="48.19277968065263" lon="11.597472768629206"><ele>499.1666666666667</ele><time>2026-04-17T07:11:48Z</time></trkpt><trkpt lat="48.19278039514977" lon="11.597589790391211"><ele>499.0</ele><time>2026-04-17T07:11:49Z</time></trkpt><trkpt lat="48.19278108935361" lon="11.59770063556382"><ele>499.00000000000006</ele><time>2026-04-17T07:11:50Z</time></trkpt><trkpt lat="48.19278076292457" lon="11.597805942828229"><ele>499.0</ele><time>2026-04-17T07:11:51Z</time></trkpt><trkpt lat="48.19278235352695" lon="11.597904198550895"><ele>499.0</ele><time>2026-04-17T07:11:52Z</time></trkpt><trkpt lat="48.19278398367109" lon="11.598076408693801"><ele>499.0</ele><time>2026-04-17T07:11:54Z</time></trkpt><trkpt lat="48.19278233804645" lon="11.598217793323965"><ele>499.00000000000006</ele><time>2026-04-17T07:11:56Z</time></trkpt><trkpt lat="48.19278189202582" lon="11.59833876300252"><ele>499.0</ele><time>2026-04-17T07:11:58Z</time></trkpt><trkpt lat="48.19278447972408" lon="11.598463179567222"><ele>499.00000000000006</ele><time>2026-04-17T07:12:00Z</time></trkpt><trkpt lat="48.192783918049514" lon="11.598587209330526"><ele>499.0</ele><time>2026-04-17T07:12:02Z</time></trkpt><trkpt lat="48.192788987593566" lon="11.598705561497722"><ele>499.0</ele><time>2026-04-17T07:12:04Z</time></trkpt><trkpt lat="48.19279191910393" lon="11.598823910058293"><ele>499.0</ele><time>2026-04-17T07:12:06Z</time></trkpt><trkpt lat="48.19278888523423" lon="11.598923728511748"><ele>499.00000000000006</ele><time>2026-04-17T07:12:08Z</time></trkpt><trkpt lat="48.192796522701066" lon="11.599086210160873"><ele>499.0</ele><time>2026-04-17T07:12:19Z</time></trkpt><trkpt lat="48.1927951190659" lon="11.599181858294408"><ele>499.00000000000006</ele><time>2026-04-17T07:12:20Z</time></trkpt><trkpt lat="48.19279746681094" lon="11.599295736273882"><ele>499.0</ele><time>2026-04-17T07:12:21Z</time></trkpt><trkpt lat="48.19280115623585" lon="11.599407046789223"><ele>499.0</ele><time>2026-04-17T07:12:22Z</time></trkpt><trkpt lat="48.192803670738" lon="11.599502820401211"><ele>499.0</ele><time>2026-04-17T07:12:23Z</time></trkpt><trkpt lat="48.19280715470904" lon="11.599678380936977"><ele>499.00000000000006</ele><time>2026-04-17T07:12:25Z</time></trkpt><trkpt lat="48.19280942777038" lon="11.599846040983929"><ele>499.0</ele><time>2026-04-17T07:12:27Z</time></trkpt><trkpt lat="48.19281152952495" lon="11.599941755283655"><ele>499.1666666666667</ele><time>2026-04-17T07:12:28Z</time></trkpt><trkpt lat="48.192814065326516" lon="11.600036578616328"><ele>499.33333333333337</ele><time>2026-04-17T07:12:29Z</time></trkpt><trkpt lat="48.19281749005289" lon="11.60016456201342"><ele>499.5</ele><time>2026-04-17T07:12:31Z</time></trkpt><trkpt lat="48.19281741614911" lon="11.600269103183726"><ele>499.66666666666663</ele><time>2026-04-17T07:12:33Z</time></trkpt><trkpt lat="48.1928184319624" lon="11.600405436601985"><ele>499.8333333333333</ele><time>2026-04-17T07:12:35Z</time></trkpt><trkpt lat="48.192819543233476" lon="11.600513061330743"><ele>500.0</ele><time>2026-04-17T07:12:36Z</time></trkpt><trkpt lat="48.192829062911485" lon="11.60063925462086"><ele>499.99999999999994</ele><time>2026-04-17T07:12:37Z</time></trkpt><trkpt lat="48.19284380141767" lon="11.60077157695815"><ele>500.0</ele><time>2026-04-17T07:12:38Z</time></trkpt><trkpt lat="48.19286505770135" lon="11.60089688179666"><ele>500.0</ele><time>2026-04-17T07:12:39Z</time></trkpt><trkpt lat="48.1928943727013" lon="11.601026409761332"><ele>500.0</ele><time>2026-04-17T07:12:40Z</time></trkpt><trkpt lat="48.19293457562937" lon="11.601155165523787"><ele>499.99999999999994</ele><time>2026-04-17T07:12:41Z</time></trkpt><trkpt lat="48.19297579199747" lon="11.60126687254864"><ele>500.0</ele><time>2026-04-17T07:12:42Z</time></trkpt><trkpt lat="48.19301620310917" lon="11.601372165423374"><ele>500.2</ele><time>2026-04-17T07:12:43Z</time></trkpt><trkpt lat="48.19305644608167" lon="11.601483088118902"><ele>500.4</ele><time>2026-04-17T07:12:44Z</time></trkpt><trkpt lat="48.19310424302714" lon="11.601615846699447"><ele>500.6</ele><time>2026-04-17T07:12:45Z</time></trkpt><trkpt lat="48.193157784462045" lon="11.601751073499457"><ele>500.8</ele><time>2026-04-17T07:12:46Z</time></trkpt><trkpt lat="48.193206878261876" lon="11.601872172325256"><ele>501.0</ele><time>2026-04-17T07:12:47Z</time></trkpt><trkpt lat="48.19325304604733" lon="11.601995415761074"><ele>500.8</ele><time>2026-04-17T07:12:48Z</time></trkpt><trkpt lat="48.19330039580626" lon="11.602116414682357"><ele>500.6</ele><time>2026-04-17T07:12:49Z</time></trkpt><trkpt lat="48.193367440923836" lon="11.602224442098063"><ele>500.4</ele><time>2026-04-17T07:12:50Z</time></trkpt><trkpt lat="48.19345223451098" lon="11.602329532408161"><ele>500.2</ele><time>2026-04-17T07:12:51Z</time></trkpt><trkpt lat="48.19352240165093" lon="11.602405811317011"><ele>500.0</ele><time>2026-04-17T07:12:52Z</time></trkpt><trkpt lat="48.193586609253266" lon="11.602459107485625"><ele>500.0</ele><time>2026-04-17T07:12:53Z</time></trkpt><trkpt lat="48.19365415272226" lon="11.60249839747016"><ele>500.0</ele><time>2026-04-17T07:12:54Z</time></trkpt><trkpt lat="48.19372416076673" lon="11.602525646200617"><ele>500.0</ele><time>2026-04-17T07:12:55Z</time></trkpt><trkpt lat="48.19378971967623" lon="11.6025539403988"><ele>500.0</ele><time>2026-04-17T07:12:56Z</time></trkpt><trkpt lat="48.19385217377756" lon="11.602581753181997"><ele>500.0</ele><time>2026-04-17T07:12:57Z</time></trkpt><trkpt lat="48.193915625905426" lon="11.6026088679974"><ele>500.0</ele><time>2026-04-17T07:12:58Z</time></trkpt><trkpt lat="48.193974565802954" lon="11.60266285526811"><ele>500.0</ele><time>2026-04-17T07:12:59Z</time></trkpt><trkpt lat="48.19404676731295" lon="11.602674123641918"><ele>499.8333333333333</ele><time>2026-04-17T07:13:00Z</time></trkpt><trkpt lat="48.194117512880084" lon="11.602708891736519"><ele>499.66666666666663</ele><time>2026-04-17T07:13:01Z</time></trkpt><trkpt lat="48.1941932027607" lon="11.602744978636373"><ele>499.5</ele><time>2026-04-17T07:13:02Z</time></trkpt><trkpt lat="48.19426522421241" lon="11.602805491559998"><ele>499.33333333333337</ele><time>2026-04-17T07:13:03Z</time></trkpt><trkpt lat="48.19434069137007" lon="11.602843048795155"><ele>499.1666666666667</ele><time>2026-04-17T07:13:04Z</time></trkpt><trkpt lat="48.194421194281304" lon="11.602882985337759"><ele>499.0</ele><time>2026-04-17T07:13:05Z</time></trkpt><trkpt lat="48.194508014064944" lon="11.602926055577862"><ele>499.0</ele><time>2026-04-17T07:13:06Z</time></trkpt><trkpt lat="48.194597408102894" lon="11.602970402888145"><ele>499.0</ele><time>2026-04-17T07:13:07Z</time></trkpt><trkpt lat="48.19469481059093" lon="11.603002034029277"><ele>499.0</ele><time>2026-04-17T07:13:08Z</time></trkpt><trkpt lat="48.194795887983226" lon="11.603056048020788"><ele>499.0</ele><time>2026-04-17T07:13:09Z</time></trkpt><trkpt lat="48.19489610411841" lon="11.603101894777806"><ele>499.0</ele><time>2026-04-17T07:13:10Z</time></trkpt><trkpt lat="48.19498312084381" lon="11.60314107374997"><ele>499.00000000000006</ele><time>2026-04-17T07:13:11Z</time></trkpt><trkpt lat="48.19506353921445" lon="11.603175961582918"><ele>499.0</ele><time>2026-04-17T07:13:12Z</time></trkpt><trkpt lat="48.1951398754382" lon="11.603214020562524"><ele>499.0</ele><time>2026-04-17T07:13:13Z</time></trkpt><trkpt lat="48.19521177222073" lon="11.603256041106395"><ele>499.0</ele><time>2026-04-17T07:13:14Z</time></trkpt><trkpt lat="48.19528977191978" lon="11.603294612679184"><ele>499.00000000000006</ele><time>2026-04-17T07:13:15Z</time></trkpt><trkpt lat="48.19537778500472" lon="11.603338373978323"><ele>499.0</ele><time>2026-04-17T07:13:16Z</time></trkpt><trkpt lat="48.195448980933314" lon="11.603373880019408"><ele>499.00000000000006</ele><time>2026-04-17T07:13:17Z</time></trkpt><trkpt lat="48.19551479979079" lon="11.603407425339796"><ele>499.0</ele><time>2026-04-17T07:13:18Z</time></trkpt><trkpt lat="48.195578160016446" lon="11.603439401633999"><ele>499.00000000000006</ele><time>2026-04-17T07:13:19Z</time></trkpt><trkpt lat="48.19564069952865" lon="11.603463461706475"><ele>499.00000000000006</ele><time>2026-04-17T07:13:20Z</time></trkpt><trkpt lat="48.19570435608634" lon="11.603499999357167"><ele>499.0</ele><time>2026-04-17T07:13:21Z</time></trkpt><trkpt lat="48.19577369449907" lon="11.603535018380702"><ele>499.00000000000006</ele><time>2026-04-17T07:13:22Z</time></trkpt><trkpt lat="48.19584814484521" lon="11.6035733556718"><ele>499.00000000000006</ele><time>2026-04-17T07:13:23Z</time></trkpt><trkpt lat="48.195927031618545" lon="11.603614975980658"><ele>499.00000000000006</ele><time>2026-04-17T07:13:24Z</time></trkpt><trkpt lat="48.19600626162704" lon="11.603659206514102"><ele>499.0</ele><time>2026-04-17T07:13:25Z</time></trkpt><trkpt lat="48.196088298244725" lon="11.603701214766247"><ele>499.0</ele><time>2026-04-17T07:13:26Z</time></trkpt><trkpt lat="48.19617024936289" lon="11.60374310537985"><ele>499.0</ele><time>2026-04-17T07:13:27Z</time></trkpt><trkpt lat="48.19624913270891" lon="11.60378466899986"><ele>499.00000000000006</ele><time>2026-04-17T07:13:28Z</time></trkpt><trkpt lat="48.19632572099187" lon="11.603826706038122"><ele>499.0</ele><time>2026-04-17T07:13:29Z</time></trkpt><trkpt lat="48.1963991954991" lon="11.603864131687988"><ele>499.00000000000006</ele><time>2026-04-17T07:13:30Z</time></trkpt><trkpt lat="48.1964639308279" lon="11.60389735850732"><ele>499.0</ele><time>2026-04-17T07:13:31Z</time></trkpt><trkpt lat="48.196528177928734" lon="11.603929736804114"><ele>499.0</ele><time>2026-04-17T07:13:32Z</time></trkpt><trkpt lat="48.19659700496441" lon="11.60396384952969"><ele>499.0</ele><time>2026-04-17T07:13:33Z</time></trkpt><trkpt lat="48.196671435628424" lon="11.604002695065876"><ele>499.00000000000006</ele><time>2026-04-17T07:13:34Z</time></trkpt><trkpt lat="48.19674971837047" lon="11.604049610592611"><ele>499.0</ele><time>2026-04-17T07:13:35Z</time></trkpt><trkpt lat="48.196838961663616" lon="11.60408583461283"><ele>499.1666666666667</ele><time>2026-04-17T07:13:36Z</time></trkpt><trkpt lat="48.19692986710935" lon="11.604123505313344"><ele>499.33333333333337</ele><time>2026-04-17T07:13:37Z</time></trkpt><trkpt lat="48.19702274221758" lon="11.604158002470673"><ele>499.5</ele><time>2026-04-17T07:13:38Z</time></trkpt><trkpt lat="48.19710950229975" lon="11.604196702636905"><ele>499.66666666666663</ele><time>2026-04-17T07:13:39Z</time></trkpt><trkpt lat="48.19718850827337" lon="11.604232606796439"><ele>499.8333333333333</ele><time>2026-04-17T07:13:40Z</time></trkpt><trkpt lat="48.19726997569954" lon="11.60427216288842"><ele>500.0</ele><time>2026-04-17T07:13:41Z</time></trkpt><trkpt lat="48.19735551896421" lon="11.604314190962056"><ele>499.6</ele><time>2026-04-17T07:13:42Z</time></trkpt><trkpt lat="48.19744495639383" lon="11.604385109250387"><ele>499.2</ele><time>2026-04-17T07:13:43Z</time></trkpt><trkpt lat="48.197546816577926" lon="11.604436177499938"><ele>498.79999999999995</ele><time>2026-04-17T07:13:44Z</time></trkpt><trkpt lat="48.19764640628984" lon="11.604486105340149"><ele>498.4</ele><time>2026-04-17T07:13:45Z</time></trkpt><trkpt lat="48.19773583183977" lon="11.604530939652152"><ele>498.0</ele><time>2026-04-17T07:13:46Z</time></trkpt><trkpt lat="48.19781658328106" lon="11.604570377218138"><ele>498.0</ele><time>2026-04-17T07:13:47Z</time></trkpt><trkpt lat="48.19790013876424" lon="11.604610248276176"><ele>497.99999999999994</ele><time>2026-04-17T07:13:48Z</time></trkpt><trkpt lat="48.197987099152996" lon="11.604651582182454"><ele>497.99999999999994</ele><time>2026-04-17T07:13:49Z</time></trkpt><trkpt lat="48.19807616048361" lon="11.604693914705866"><ele>498.0</ele><time>2026-04-17T07:13:50Z</time></trkpt><trkpt lat="48.198181585480995" lon="11.604726109270015"><ele>498.0</ele><time>2026-04-17T07:13:51Z</time></trkpt><trkpt lat="48.19829261715431" lon="11.604789202463197"><ele>498.0</ele><time>2026-04-17T07:13:52Z</time></trkpt><trkpt lat="48.19839962249778" lon="11.604856105714799"><ele>497.99999999999994</ele><time>2026-04-17T07:13:53Z</time></trkpt><trkpt lat="48.1984916524077" lon="11.60490957948055"><ele>497.99999999999994</ele><time>2026-04-17T07:13:54Z</time></trkpt><trkpt lat="48.19858170406559" lon="11.604956499843805"><ele>498.0</ele><time>2026-04-17T07:13:55Z</time></trkpt><trkpt lat="48.198670560098954" lon="11.60500186703328"><ele>498.0</ele><time>2026-04-17T07:13:56Z</time></trkpt><trkpt lat="48.19876241170088" lon="11.605048716931968"><ele>498.0</ele><time>2026-04-17T07:13:57Z</time></trkpt><trkpt lat="48.19884917689571" lon="11.605127278897251"><ele>497.99999999999994</ele><time>2026-04-17T07:13:58Z</time></trkpt><trkpt lat="48.1989503039674" lon="11.60517640943435"><ele>497.99999999999994</ele><time>2026-04-17T07:13:59Z</time></trkpt><trkpt lat="48.19905204452801" lon="11.605221315142169"><ele>498.0</ele><time>2026-04-17T07:14:00Z</time></trkpt><trkpt lat="48.199160379526425" lon="11.605234032359546"><ele>498.0</ele><time>2026-04-17T07:14:01Z</time></trkpt><trkpt lat="48.19926352920486" lon="11.605276961802549"><ele>498.0</ele><time>2026-04-17T07:14:02Z</time></trkpt><trkpt lat="48.1993680243204" lon="11.605316507400119"><ele>497.99999999999994</ele><time>2026-04-17T07:14:03Z</time></trkpt><trkpt lat="48.199473216275855" lon="11.605357872770176"><ele>497.99999999999994</ele><time>2026-04-17T07:14:04Z</time></trkpt><trkpt lat="48.19957166018223" lon="11.605404763471698"><ele>498.0</ele><time>2026-04-17T07:14:05Z</time></trkpt><trkpt lat="48.199658950130356" lon="11.605447497165525"><ele>498.0</ele><time>2026-04-17T07:14:06Z</time></trkpt><trkpt lat="48.199734982189746" lon="11.605484309745608"><ele>498.1666666666667</ele><time>2026-04-17T07:14:07Z</time></trkpt><trkpt lat="48.199799624300574" lon="11.60551232463512"><ele>498.33333333333337</ele><time>2026-04-17T07:14:08Z</time></trkpt><trkpt lat="48.199862848613456" lon="11.605535910771893"><ele>498.5</ele><time>2026-04-17T07:14:09Z</time></trkpt><trkpt lat="48.199974571421066" lon="11.60558194083448"><ele>498.6666666666667</ele><time>2026-04-17T07:14:11Z</time></trkpt><trkpt lat="48.20006070070311" lon="11.605652285705029"><ele>498.83333333333337</ele><time>2026-04-17T07:14:13Z</time></trkpt><trkpt lat="48.20013694129666" lon="11.605670833116305"><ele>499.0</ele><time>2026-04-17T07:14:16Z</time></trkpt><trkpt lat="48.200199138539105" lon="11.605726151345413"><ele>499.00000000000006</ele><time>2026-04-17T07:14:55Z</time></trkpt><trkpt lat="48.200283294707916" lon="11.605764532250793"><ele>499.0</ele><time>2026-04-17T07:15:06Z</time></trkpt><trkpt lat="48.20035019902154" lon="11.605773938319485"><ele>499.0</ele><time>2026-04-17T07:15:08Z</time></trkpt><trkpt lat="48.20042761549982" lon="11.60581040769997"><ele>499.0</ele><time>2026-04-17T07:15:11Z</time></trkpt><trkpt lat="48.200513458725" lon="11.605839645775621"><ele>499.00000000000006</ele><time>2026-04-17T07:15:13Z</time></trkpt><trkpt lat="48.2006146656722" lon="11.605870912926543"><ele>499.0</ele><time>2026-04-17T07:15:15Z</time></trkpt><trkpt lat="48.2006787521526" lon="11.605887965516812"><ele>499.00000000000006</ele><time>2026-04-17T07:15:16Z</time></trkpt><trkpt lat="48.20078555976319" lon="11.605911503951676"><ele>499.0</ele><time>2026-04-17T07:15:18Z</time></trkpt><trkpt lat="48.20090967093421" lon="11.60593941794393"><ele>499.0</ele><time>2026-04-17T07:15:20Z</time></trkpt><trkpt lat="48.20097316604488" lon="11.605953309485876"><ele>499.0</ele><time>2026-04-17T07:15:21Z</time></trkpt><trkpt lat="48.20104155526094" lon="11.605961245405114"><ele>499.00000000000006</ele><time>2026-04-17T07:15:22Z</time></trkpt><trkpt lat="48.20111623476046" lon="11.60592537902876"><ele>499.0</ele><time>2026-04-17T07:15:23Z</time></trkpt><trkpt lat="48.201193825897334" lon="11.605891340025401"><ele>499.00000000000006</ele><time>2026-04-17T07:15:24Z</time></trkpt><trkpt lat="48.201266421950834" lon="11.605858558836816"><ele>499.0</ele><time>2026-04-17T07:15:25Z</time></trkpt><trkpt lat="48.20133342171403" lon="11.605827200723342"><ele>499.00000000000006</ele><time>2026-04-17T07:15:26Z</time></trkpt><trkpt lat="48.20139858835809" lon="11.60579135663972"><ele>499.00000000000006</ele><time>2026-04-17T07:15:27Z</time></trkpt><trkpt lat="48.20146106336874" lon="11.605761386337718"><ele>499.0</ele><time>2026-04-17T07:15:28Z</time></trkpt><trkpt lat="48.201525172145345" lon="11.605732300561833"><ele>499.00000000000006</ele><time>2026-04-17T07:15:29Z</time></trkpt><trkpt lat="48.201585001276015" lon="11.6057027198207"><ele>499.00000000000006</ele><time>2026-04-17T07:15:30Z</time></trkpt><trkpt lat="48.20170131301847" lon="11.605641799034936"><ele>498.79999999999995</ele><time>2026-04-17T07:15:32Z</time></trkpt><trkpt lat="48.20181294543207" lon="11.60558534672154"><ele>498.59999999999997</ele><time>2026-04-17T07:15:34Z</time></trkpt><trkpt lat="48.2019245439044" lon="11.605526681088282"><ele>498.4</ele><time>2026-04-17T07:15:36Z</time></trkpt><trkpt lat="48.20203306027778" lon="11.605470714386405"><ele>498.2</ele><time>2026-04-17T07:15:38Z</time></trkpt><trkpt lat="48.20211668393407" lon="11.605430096684326"><ele>498.0</ele><time>2026-04-17T07:15:40Z</time></trkpt><trkpt lat="48.202180582575956" lon="11.6053976165866"><ele>498.0</ele><time>2026-04-17T07:15:42Z</time></trkpt><trkpt lat="48.20225178075766" lon="11.605363271470013"><ele>498.0</ele><time>2026-04-17T07:15:45Z</time></trkpt><trkpt lat="48.20233316415099" lon="11.605322775916468"><ele>498.0</ele><time>2026-04-17T07:15:48Z</time></trkpt><trkpt lat="48.20241002845926" lon="11.605253248445948"><ele>498.0</ele><time>2026-04-17T07:16:12.999Z</time></trkpt><trkpt lat="48.202399023955984" lon="11.605133726820066"><ele>498.0</ele><time>2026-04-17T07:16:14.999Z</time></trkpt><trkpt lat="48.20235551975182" lon="11.604985236171245"><ele>498.0</ele><time>2026-04-17T07:16:16.999Z</time></trkpt><trkpt lat="48.20233593416917" lon="11.604877198457032"><ele>498.1666666666667</ele><time>2026-04-17T07:16:17.999Z</time></trkpt><trkpt lat="48.202313207539326" lon="11.604762078792351"><ele>498.33333333333337</ele><time>2026-04-17T07:16:18.999Z</time></trkpt><trkpt lat="48.20229216228649" lon="11.604650173729537"><ele>498.5</ele><time>2026-04-17T07:16:19.999Z</time></trkpt><trkpt lat="48.20227370905068" lon="11.60453657112196"><ele>498.6666666666667</ele><time>2026-04-17T07:16:20.999Z</time></trkpt><trkpt lat="48.20225818031885" lon="11.6044231692961"><ele>498.83333333333337</ele><time>2026-04-17T07:16:21.999Z</time></trkpt><trkpt lat="48.20224465063554" lon="11.604312225110148"><ele>499.0</ele><time>2026-04-17T07:16:22.999Z</time></trkpt><trkpt lat="48.202232066154124" lon="11.60420075917484"><ele>499.00000000000006</ele><time>2026-04-17T07:16:23.999Z</time></trkpt><trkpt lat="48.20222289507538" lon="11.604091871232814"><ele>499.0</ele><time>2026-04-17T07:16:24.999Z</time></trkpt><trkpt lat="48.202215806283085" lon="11.603980749493491"><ele>499.00000000000006</ele><time>2026-04-17T07:16:25.999Z</time></trkpt><trkpt lat="48.20220997308573" lon="11.603872908481113"><ele>499.00000000000006</ele><time>2026-04-17T07:16:26.999Z</time></trkpt><trkpt lat="48.20220383423809" lon="11.603768315340597"><ele>499.0</ele><time>2026-04-17T07:16:27.999Z</time></trkpt><trkpt lat="48.202199164708276" lon="11.603665278768021"><ele>499.00000000000006</ele><time>2026-04-17T07:16:28.999Z</time></trkpt><trkpt lat="48.20219710201276" lon="11.603563805335684"><ele>499.00000000000006</ele><time>2026-04-17T07:16:29.999Z</time></trkpt><trkpt lat="48.20219774344292" lon="11.603463792972004"><ele>499.33333333333337</ele><time>2026-04-17T07:16:30.999Z</time></trkpt><trkpt lat="48.202198328158495" lon="11.603362280319095"><ele>499.6666666666667</ele><time>2026-04-17T07:16:31.999Z</time></trkpt><trkpt lat="48.202204058504044" lon="11.603175183470295"><ele>500.0</ele><time>2026-04-17T07:16:33.999Z</time></trkpt><trkpt lat="48.20220977714332" lon="11.603080419705512"><ele>500.33333333333337</ele><time>2026-04-17T07:16:34.999Z</time></trkpt><trkpt lat="48.20221699922896" lon="11.602986099047566"><ele>500.6666666666667</ele><time>2026-04-17T07:16:35.999Z</time></trkpt><trkpt lat="48.20223136641564" lon="11.60279458374164"><ele>501.0</ele><time>2026-04-17T07:16:37.999Z</time></trkpt><trkpt lat="48.202241009283924" lon="11.602696894503891"><ele>501.0</ele><time>2026-04-17T07:16:38.999Z</time></trkpt><trkpt lat="48.202249824729414" lon="11.602595655493761"><ele>501.0</ele><time>2026-04-17T07:16:39.999Z</time></trkpt><trkpt lat="48.20226169730372" lon="11.602496032666055"><ele>501.0</ele><time>2026-04-17T07:16:40.999Z</time></trkpt><trkpt lat="48.20227725058717" lon="11.60239517979483"><ele>501.0</ele><time>2026-04-17T07:16:41.999Z</time></trkpt><trkpt lat="48.202295252626534" lon="11.602293934835382"><ele>501.0</ele><time>2026-04-17T07:16:42.999Z</time></trkpt><trkpt lat="48.20231278770185" lon="11.602190156088765"><ele>501.0</ele><time>2026-04-17T07:16:43.999Z</time></trkpt><trkpt lat="48.20233136203904" lon="11.602087858808256"><ele>501.0</ele><time>2026-04-17T07:16:44.999Z</time></trkpt><trkpt lat="48.20235213288864" lon="11.60198565902218"><ele>500.7142857142857</ele><time>2026-04-17T07:16:45.999Z</time></trkpt><trkpt lat="48.202373651050955" lon="11.601884618044762"><ele>500.42857142857144</ele><time>2026-04-17T07:16:46.999Z</time></trkpt><trkpt lat="48.202396758597395" lon="11.601783307020066"><ele>500.14285714285717</ele><time>2026-04-17T07:16:47.999Z</time></trkpt><trkpt lat="48.202421876163314" lon="11.601680880704007"><ele>499.8571428571429</ele><time>2026-04-17T07:16:48.999Z</time></trkpt><trkpt lat="48.202448673692764" lon="11.60157881361396"><ele>499.57142857142856</ele><time>2026-04-17T07:16:49.999Z</time></trkpt><trkpt lat="48.20247800445803" lon="11.601477350117161"><ele>499.28571428571433</ele><time>2026-04-17T07:16:50.999Z</time></trkpt><trkpt lat="48.20250846408959" lon="11.601378336513053"><ele>499.00000000000006</ele><time>2026-04-17T07:16:51.999Z</time></trkpt><trkpt lat="48.2025403299094" lon="11.601280129288831"><ele>499.00000000000006</ele><time>2026-04-17T07:16:52.999Z</time></trkpt><trkpt lat="48.202572059196875" lon="11.60118065215639"><ele>499.0</ele><time>2026-04-17T07:16:53.999Z</time></trkpt><trkpt lat="48.20260526664263" lon="11.60108214706216"><ele>499.00000000000006</ele><time>2026-04-17T07:16:54.999Z</time></trkpt><trkpt lat="48.20263994879699" lon="11.600983787525031"><ele>499.00000000000006</ele><time>2026-04-17T07:16:55.999Z</time></trkpt><trkpt lat="48.20267771579498" lon="11.600886680824336"><ele>499.0</ele><time>2026-04-17T07:16:56.999Z</time></trkpt><trkpt lat="48.20271948863113" lon="11.600793213787787"><ele>499.00000000000006</ele><time>2026-04-17T07:16:57.999Z</time></trkpt><trkpt lat="48.202759731607046" lon="11.600698653046104"><ele>499.00000000000006</ele><time>2026-04-17T07:16:58.999Z</time></trkpt><trkpt lat="48.20280482333539" lon="11.600606144907596"><ele>499.1666666666667</ele><time>2026-04-17T07:16:59.999Z</time></trkpt><trkpt lat="48.202850395895545" lon="11.6005158341843"><ele>499.33333333333337</ele><time>2026-04-17T07:17:00.999Z</time></trkpt><trkpt lat="48.2028982767065" lon="11.600426778841754"><ele>499.5</ele><time>2026-04-17T07:17:01.999Z</time></trkpt><trkpt lat="48.202947351040244" lon="11.600339211824638"><ele>499.66666666666663</ele><time>2026-04-17T07:17:02.999Z</time></trkpt><trkpt lat="48.20299767752071" lon="11.600251185519097"><ele>499.8333333333333</ele><time>2026-04-17T07:17:03.999Z</time></trkpt><trkpt lat="48.20304710687761" lon="11.600166447456925"><ele>500.0</ele><time>2026-04-17T07:17:04.999Z</time></trkpt><trkpt lat="48.20309944543779" lon="11.600081832373604"><ele>499.99999999999994</ele><time>2026-04-17T07:17:05.999Z</time></trkpt><trkpt lat="48.20315380116112" lon="11.600003691311688"><ele>500.0</ele><time>2026-04-17T07:17:06.999Z</time></trkpt><trkpt lat="48.20320900778639" lon="11.599925307962629"><ele>500.0</ele><time>2026-04-17T07:17:07.999Z</time></trkpt><trkpt lat="48.20326145486473" lon="11.599849915967283"><ele>500.0</ele><time>2026-04-17T07:17:08.999Z</time></trkpt><trkpt lat="48.20331029263997" lon="11.599781289258825"><ele>499.99999999999994</ele><time>2026-04-17T07:17:09.999Z</time></trkpt><trkpt lat="48.20339521859104" lon="11.5996736854813"><ele>500.0</ele><time>2026-04-17T07:17:11.999Z</time></trkpt><trkpt lat="48.203461653885164" lon="11.599593987656963"><ele>499.99999999999994</ele><time>2026-04-17T07:17:13.999Z</time></trkpt><trkpt lat="48.20351763537828" lon="11.599526533233199"><ele>500.0</ele><time>2026-04-17T07:17:15.999Z</time></trkpt><trkpt lat="48.20360133983015" lon="11.599499948752706"><ele>500.0</ele><time>2026-04-17T07:17:18.999Z</time></trkpt><trkpt lat="48.203651830000766" lon="11.599580455785546"><ele>500.0</ele><time>2026-04-17T07:17:19.999Z</time></trkpt><trkpt lat="48.203726506316286" lon="11.599730427373636"><ele>499.99999999999994</ele><time>2026-04-17T07:17:21.999Z</time></trkpt><trkpt lat="48.20376553922531" lon="11.599808554660976"><ele>500.0</ele><time>2026-04-17T07:17:22.999Z</time></trkpt><trkpt lat="48.203837096217754" lon="11.599943038336068"><ele>499.99999999999994</ele><time>2026-04-17T07:17:24.999Z</time></trkpt><trkpt lat="48.20390822410125" lon="11.600069679987174"><ele>500.0</ele><time>2026-04-17T07:17:26.999Z</time></trkpt><trkpt lat="48.20400321984035" lon="11.600156826616395"><ele>500.0</ele><time>2026-04-17T07:17:28.999Z</time></trkpt><trkpt lat="48.20407319169237" lon="11.60017864803529"><ele>500.0</ele><time>2026-04-17T07:17:31.999Z</time></trkpt><trkpt lat="48.204140966071954" lon="11.60014867193622"><ele>499.99999999999994</ele><time>2026-04-17T07:17:35.999Z</time></trkpt><trkpt lat="48.204208011254444" lon="11.600108172605129"><ele>500.0</ele><time>2026-04-17T07:17:39.999Z</time></trkpt><trkpt lat="48.204323071296216" lon="11.600011503699681"><ele>499.66666666666663</ele><time>2026-04-17T07:17:41.999Z</time></trkpt><trkpt lat="48.20441104040918" lon="11.599944706439"><ele>499.3333333333333</ele><time>2026-04-17T07:17:42.999Z</time></trkpt><trkpt lat="48.204495006607914" lon="11.599891000757262"><ele>499.0</ele><time>2026-04-17T07:17:43.999Z</time></trkpt><trkpt lat="48.204570855959346" lon="11.599847185062705"><ele>498.66666666666663</ele><time>2026-04-17T07:17:44.999Z</time></trkpt><trkpt lat="48.20464805709936" lon="11.599808596022575"><ele>498.3333333333333</ele><time>2026-04-17T07:17:45.999Z</time></trkpt><trkpt lat="48.20473325474368" lon="11.599770482226013"><ele>498.0</ele><time>2026-04-17T07:17:46.999Z</time></trkpt><trkpt lat="48.20482290345096" lon="11.599733179641841"><ele>498.1666666666667</ele><time>2026-04-17T07:17:47.999Z</time></trkpt><trkpt lat="48.20491455929547" lon="11.5996989795163"><ele>498.33333333333337</ele><time>2026-04-17T07:17:48.999Z</time></trkpt><trkpt lat="48.20500467904132" lon="11.599670041387382"><ele>498.5</ele><time>2026-04-17T07:17:49.999Z</time></trkpt><trkpt lat="48.205085211767845" lon="11.599645865479472"><ele>498.6666666666667</ele><time>2026-04-17T07:17:50.999Z</time></trkpt><trkpt lat="48.20515316000168" lon="11.599626410708286"><ele>498.83333333333337</ele><time>2026-04-17T07:17:51.999Z</time></trkpt><trkpt lat="48.20521638223648" lon="11.599609721819318"><ele>499.0</ele><time>2026-04-17T07:17:52.999Z</time></trkpt><trkpt lat="48.20533020681234" lon="11.599622936727638"><ele>499.0</ele><time>2026-04-17T07:17:54.999Z</time></trkpt><trkpt lat="48.20542204118359" lon="11.599618319860316"><ele>499.0</ele><time>2026-04-17T07:17:56.999Z</time></trkpt><trkpt lat="48.205500263815196" lon="11.599617086137027"><ele>499.0</ele><time>2026-04-17T07:17:58.999Z</time></trkpt><trkpt lat="48.20558804541905" lon="11.599620795929816"><ele>499.0</ele><time>2026-04-17T07:18:01.999Z</time></trkpt><trkpt lat="48.20561510644134" lon="11.599392978336823"><ele>499.0</ele><time>2026-04-17T07:18:03.999Z</time></trkpt><trkpt lat="48.205622901816405" lon="11.5992913955792"><ele>498.8571428571429</ele><time>2026-04-17T07:18:04.999Z</time></trkpt><trkpt lat="48.20563400356096" lon="11.599178271758559"><ele>498.7142857142857</ele><time>2026-04-17T07:18:05.999Z</time></trkpt><trkpt lat="48.20564442542784" lon="11.59907170877692"><ele>498.57142857142856</ele><time>2026-04-17T07:18:06.999Z</time></trkpt><trkpt lat="48.20565466639785" lon="11.598969593364004"><ele>498.42857142857144</ele><time>2026-04-17T07:18:07.999Z</time></trkpt><trkpt lat="48.2056660529678" lon="11.598864393604753"><ele>498.2857142857142</ele><time>2026-04-17T07:18:08.999Z</time></trkpt><trkpt lat="48.20567809041909" lon="11.598759714790877"><ele>498.1428571428571</ele><time>2026-04-17T07:18:09.999Z</time></trkpt><trkpt lat="48.2056875321736" lon="11.598654143320424"><ele>498.0</ele><time>2026-04-17T07:18:10.999Z</time></trkpt><trkpt lat="48.205694036944074" lon="11.598552540582128"><ele>497.6666666666667</ele><time>2026-04-17T07:18:11.999Z</time></trkpt><trkpt lat="48.20570652513791" lon="11.598392639142022"><ele>497.33333333333337</ele><time>2026-04-17T07:18:13.999Z</time></trkpt><trkpt lat="48.20571809282697" lon="11.598261632162162"><ele>497.0</ele><time>2026-04-17T07:18:15.999Z</time></trkpt><trkpt lat="48.205729078233844" lon="11.598163181254309"><ele>496.6666666666667</ele><time>2026-04-17T07:18:17.999Z</time></trkpt><trkpt lat="48.20576559098374" lon="11.598073269190389"><ele>496.33333333333337</ele><time>2026-04-17T07:18:20.999Z</time></trkpt><trkpt lat="48.20584676032211" lon="11.598135909505391"><ele>496.0</ele><time>2026-04-17T07:18:21.999Z</time></trkpt><trkpt lat="48.20592912447392" lon="11.59815199909286"><ele>496.0</ele><time>2026-04-17T07:18:23.999Z</time></trkpt><trkpt lat="48.206044220846096" lon="11.598151730651784"><ele>496.0</ele><time>2026-04-17T07:18:25.999Z</time></trkpt><trkpt lat="48.206143161260634" lon="11.598175960257697"><ele>496.0</ele><time>2026-04-17T07:18:27.999Z</time></trkpt><trkpt lat="48.20622896858443" lon="11.598190441219108"><ele>496.0</ele><time>2026-04-17T07:18:30.999Z</time></trkpt><trkpt lat="48.206325745174226" lon="11.598229477489069"><ele>496.0</ele><time>2026-04-17T07:18:33.999Z</time></trkpt><trkpt lat="48.20644355344287" lon="11.598253762903274"><ele>496.50000000000006</ele><time>2026-04-17T07:18:35.999Z</time></trkpt><trkpt lat="48.2065126985917" lon="11.598267832897838"><ele>497.0</ele><time>2026-04-17T07:18:36.999Z</time></trkpt><trkpt lat="48.206578888096956" lon="11.59828130149692"><ele>497.5</ele><time>2026-04-17T07:18:37.999Z</time></trkpt><trkpt lat="48.20669054416306" lon="11.59827940456672"><ele>498.0</ele><time>2026-04-17T07:18:39.999Z</time></trkpt><trkpt lat="48.206770081061656" lon="11.598296460737476"><ele>498.50000000000006</ele><time>2026-04-17T07:18:42.999Z</time></trkpt><trkpt lat="48.20686317353846" lon="11.598339148963229"><ele>499.0</ele><time>2026-04-17T07:18:45.999Z</time></trkpt><trkpt lat="48.20696584639795" lon="11.59836004051982"><ele>499.0</ele><time>2026-04-17T07:18:47.999Z</time></trkpt><trkpt lat="48.20703999360719" lon="11.598374402598845"><ele>499.0</ele><time>2026-04-17T07:18:49.999Z</time></trkpt><trkpt lat="48.20709502867348" lon="11.598191335548796"><ele>499.0</ele><time>2026-04-17T07:18:51.999Z</time></trkpt><trkpt lat="48.20710988454294" lon="11.598015501761388"><ele>499.0</ele><time>2026-04-17T07:18:53.999Z</time></trkpt><trkpt lat="48.20711251271266" lon="11.597853280409003"><ele>499.0</ele><time>2026-04-17T07:18:55.999Z</time></trkpt><trkpt lat="48.20712603089232" lon="11.59770736500132"><ele>498.6666666666667</ele><time>2026-04-17T07:18:57.999Z</time></trkpt><trkpt lat="48.20713554085806" lon="11.597610061511173"><ele>498.33333333333337</ele><time>2026-04-17T07:18:59.999Z</time></trkpt><trkpt lat="48.20714395904106" lon="11.597491923522645"><ele>498.0</ele><time>2026-04-17T07:19:02.999Z</time></trkpt><trkpt lat="48.20715294932597" lon="11.597357215296066"><ele>497.66666666666663</ele><time>2026-04-17T07:19:04.999Z</time></trkpt><trkpt lat="48.207168481321524" lon="11.597165482546865"><ele>497.3333333333333</ele><time>2026-04-17T07:19:06.999Z</time></trkpt><trkpt lat="48.20717841168084" lon="11.597051111356777"><ele>497.0</ele><time>2026-04-17T07:19:07.999Z</time></trkpt><trkpt lat="48.20718716850191" lon="11.596945783003067"><ele>496.8333333333333</ele><time>2026-04-17T07:19:08.999Z</time></trkpt><trkpt lat="48.207199842362684" lon="11.596841040204293"><ele>496.66666666666663</ele><time>2026-04-17T07:19:10.999Z</time></trkpt><trkpt lat="48.207225192737795" lon="11.596724505704262"><ele>496.5</ele><time>2026-04-17T07:19:14.999Z</time></trkpt><trkpt lat="48.207110945901874" lon="11.596641069387417"><ele>496.33333333333337</ele><time>2026-04-17T07:19:16.999Z</time></trkpt><trkpt lat="48.207044771646096" lon="11.596633003244644"><ele>496.1666666666667</ele><time>2026-04-17T07:19:18.999Z</time></trkpt><trkpt lat="48.20697580900346" lon="11.596618648992486"><ele>496.0</ele><time>2026-04-17T07:19:21.999Z</time></trkpt><trkpt lat="48.206856101860886" lon="11.596604900452423"><ele>496.00000000000006</ele><time>2026-04-17T07:19:23.999Z</time></trkpt><trkpt lat="48.20677698569925" lon="11.596583464011875"><ele>496.0</ele><time>2026-04-17T07:19:24.999Z</time></trkpt><trkpt lat="48.2066987705835" lon="11.596563644269075"><ele>496.0</ele><time>2026-04-17T07:19:25.999Z</time></trkpt><trkpt lat="48.20662746477018" lon="11.59655164295532"><ele>496.0</ele><time>2026-04-17T07:19:26.999Z</time></trkpt><trkpt lat="48.206517311312105" lon="11.596529193551468"><ele>496.00000000000006</ele><time>2026-04-17T07:19:28.999Z</time></trkpt><trkpt lat="48.206443568423495" lon="11.596517098096141"><ele>496.0</ele><time>2026-04-17T07:19:31.999Z</time></trkpt><trkpt lat="48.20638011214583" lon="11.596505047012979"><ele>496.33333333333337</ele><time>2026-04-17T07:19:33.999Z</time></trkpt><trkpt lat="48.20626159843783" lon="11.596485504531682"><ele>496.6666666666667</ele><time>2026-04-17T07:19:35.999Z</time></trkpt><trkpt lat="48.20619125952571" lon="11.596471796265678"><ele>497.0</ele><time>2026-04-17T07:19:36.999Z</time></trkpt><trkpt lat="48.2060972645141" lon="11.596447962500893"><ele>497.33333333333337</ele><time>2026-04-17T07:19:38.999Z</time></trkpt><trkpt lat="48.206029251438075" lon="11.596438275357619"><ele>497.6666666666667</ele><time>2026-04-17T07:19:40.999Z</time></trkpt><trkpt lat="48.20596085018852" lon="11.596431108513807"><ele>498.0</ele><time>2026-04-17T07:19:43.999Z</time></trkpt><trkpt lat="48.205892074229375" lon="11.596416676845644"><ele>498.0</ele><time>2026-04-17T07:19:50.999Z</time></trkpt><trkpt lat="48.20578824961452" lon="11.59641564262799"><ele>498.0</ele><time>2026-04-17T07:19:52.999Z</time></trkpt><trkpt lat="48.20571368541556" lon="11.59640415523312"><ele>498.0</ele><time>2026-04-17T07:19:53.999Z</time></trkpt><trkpt lat="48.20564343143581" lon="11.59639275545509"><ele>498.0</ele><time>2026-04-17T07:19:54.999Z</time></trkpt><trkpt lat="48.2055357416197" lon="11.596373597105408"><ele>498.0</ele><time>2026-04-17T07:19:56.999Z</time></trkpt><trkpt lat="48.2054660601819" lon="11.596361260057192"><ele>498.0</ele><time>2026-04-17T07:19:59.999Z</time></trkpt><trkpt lat="48.20539572783346" lon="11.596323712862505"><ele>498.1666666666667</ele><time>2026-04-17T07:20:03.999Z</time></trkpt><trkpt lat="48.205313186032946" lon="11.59631166163956"><ele>498.33333333333337</ele><time>2026-04-17T07:20:06.999Z</time></trkpt><trkpt lat="48.20520413137073" lon="11.596283683796104"><ele>498.5</ele><time>2026-04-17T07:20:08.999Z</time></trkpt><trkpt lat="48.20512064374385" lon="11.596269410102796"><ele>498.6666666666667</ele><time>2026-04-17T07:20:10.999Z</time></trkpt><trkpt lat="48.20504885803446" lon="11.596279165896416"><ele>498.83333333333337</ele><time>2026-04-17T07:20:13.999Z</time></trkpt><trkpt lat="48.204988485739015" lon="11.596244032045425"><ele>499.0</ele><time>2026-04-17T07:20:17.999Z</time></trkpt><trkpt lat="48.20491475027129" lon="11.59622882045171"><ele>499.1666666666667</ele><time>2026-04-17T07:20:21.999Z</time></trkpt><trkpt lat="48.2048115933954" lon="11.596202433697554"><ele>499.33333333333337</ele><time>2026-04-17T07:20:24.999Z</time></trkpt><trkpt lat="48.204744949338924" lon="11.59619565333744"><ele>499.5</ele><time>2026-04-17T07:20:25.999Z</time></trkpt><trkpt lat="48.204664144107035" lon="11.59618160031484"><ele>499.66666666666663</ele><time>2026-04-17T07:20:26.999Z</time></trkpt><trkpt lat="48.20458715829057" lon="11.596165393386855"><ele>499.8333333333333</ele><time>2026-04-17T07:20:27.999Z</time></trkpt><trkpt lat="48.20448623149057" lon="11.596140727724967"><ele>500.0</ele><time>2026-04-17T07:20:29.999Z</time></trkpt><trkpt lat="48.20441397706571" lon="11.596123237129218"><ele>499.8333333333333</ele><time>2026-04-17T07:20:32.999Z</time></trkpt><trkpt lat="48.204314374169954" lon="11.596109735470796"><ele>499.66666666666663</ele><time>2026-04-17T07:20:35.999Z</time></trkpt><trkpt lat="48.20423036553911" lon="11.59609256453953"><ele>499.5</ele><time>2026-04-17T07:20:37.999Z</time></trkpt><trkpt lat="48.204163301779296" lon="11.596076816938856"><ele>499.33333333333337</ele><time>2026-04-17T07:20:39.999Z</time></trkpt><trkpt lat="48.20407633321742" lon="11.59607095901796"><ele>499.1666666666667</ele><time>2026-04-17T07:20:41.999Z</time></trkpt><trkpt lat="48.20399240674941" lon="11.596068143175714"><ele>499.0</ele><time>2026-04-17T07:20:43.999Z</time></trkpt><trkpt lat="48.203922514185116" lon="11.596028700203185"><ele>499.0</ele><time>2026-04-17T07:20:46.999Z</time></trkpt><trkpt lat="48.20383028268603" lon="11.596010249833517"><ele>499.0</ele><time>2026-04-17T07:20:49.999Z</time></trkpt><trkpt lat="48.20370132796071" lon="11.596010963241136"><ele>499.0</ele><time>2026-04-17T07:20:51.999Z</time></trkpt><trkpt lat="48.20363844271991" lon="11.596003659263175"><ele>499.0</ele><time>2026-04-17T07:20:52.999Z</time></trkpt><trkpt lat="48.20354223863274" lon="11.595982989360106"><ele>499.0</ele><time>2026-04-17T07:20:54.999Z</time></trkpt><trkpt lat="48.203452827308865" lon="11.595966033338357"><ele>499.0</ele><time>2026-04-17T07:20:56.999Z</time></trkpt><trkpt lat="48.20335464572934" lon="11.59592330712711"><ele>499.0</ele><time>2026-04-17T07:20:58.999Z</time></trkpt><trkpt lat="48.203253896184854" lon="11.59592933088107"><ele>499.0</ele><time>2026-04-17T07:21:00.999Z</time></trkpt><trkpt lat="48.20316998555078" lon="11.595905630614181"><ele>499.0</ele><time>2026-04-17T07:21:02.999Z</time></trkpt><trkpt lat="48.20307787714438" lon="11.595890997256319"><ele>499.0</ele><time>2026-04-17T07:21:04.999Z</time></trkpt><trkpt lat="48.20299152951838" lon="11.595870527690925"><ele>499.00000000000006</ele><time>2026-04-17T07:21:06.999Z</time></trkpt><trkpt lat="48.20293206871807" lon="11.595827149422814"><ele>499.0</ele><time>2026-04-17T07:21:09.998Z</time></trkpt><trkpt lat="48.20285448821633" lon="11.595803508004687"><ele>499.0</ele><time>2026-04-17T07:21:13.998Z</time></trkpt><trkpt lat="48.20284818462107" lon="11.595664274292115"><ele>499.0</ele><time>2026-04-17T07:21:15.998Z</time></trkpt><trkpt lat="48.20286392282291" lon="11.595550738510465"><ele>499.00000000000006</ele><time>2026-04-17T07:21:17.998Z</time></trkpt><trkpt lat="48.202873147746466" lon="11.595454912287275"><ele>499.0</ele><time>2026-04-17T07:21:19.998Z</time></trkpt><trkpt lat="48.20288005989211" lon="11.59534445293377"><ele>498.83333333333337</ele><time>2026-04-17T07:21:21.999Z</time></trkpt><trkpt lat="48.20289434730823" lon="11.595235996258777"><ele>498.6666666666667</ele><time>2026-04-17T07:21:23.999Z</time></trkpt><trkpt lat="48.202902621586844" lon="11.595137905352676"><ele>498.5</ele><time>2026-04-17T07:21:26.999Z</time></trkpt><trkpt lat="48.20279862097975" lon="11.595071543942137"><ele>498.33333333333337</ele><time>2026-04-17T07:21:29.999Z</time></trkpt><trkpt lat="48.202695631849316" lon="11.595054966929931"><ele>498.1666666666667</ele><time>2026-04-17T07:21:31.999Z</time></trkpt><trkpt lat="48.202631890488476" lon="11.595044445973794"><ele>498.0</ele><time>2026-04-17T07:21:32.999Z</time></trkpt><trkpt lat="48.20254470814685" lon="11.595006720868302"><ele>498.0</ele><time>2026-04-17T07:21:34.999Z</time></trkpt><trkpt lat="48.20247603157619" lon="11.594991076534697"><ele>497.99999999999994</ele><time>2026-04-17T07:21:36.999Z</time></trkpt><trkpt lat="48.202410142700415" lon="11.594975679130705"><ele>497.99999999999994</ele><time>2026-04-17T07:21:38.999Z</time></trkpt><trkpt lat="48.202368773390745" lon="11.594806428699043"><ele>498.0</ele><time>2026-04-17T07:21:41.999Z</time></trkpt><trkpt lat="48.202385802248735" lon="11.594685612875065"><ele>498.0</ele><time>2026-04-17T07:21:43.999Z</time></trkpt><trkpt lat="48.20240037107861" lon="11.594512971568337"><ele>498.1666666666667</ele><time>2026-04-17T07:21:45.999Z</time></trkpt><trkpt lat="48.202408789303554" lon="11.594417541723944"><ele>498.33333333333337</ele><time>2026-04-17T07:21:46.999Z</time></trkpt><trkpt lat="48.20242234761441" lon="11.594295952565567"><ele>498.5</ele><time>2026-04-17T07:21:48.999Z</time></trkpt><trkpt lat="48.202431373759225" lon="11.594147528020423"><ele>498.6666666666667</ele><time>2026-04-17T07:21:50.999Z</time></trkpt><trkpt lat="48.20245092061393" lon="11.59397341014469"><ele>498.83333333333337</ele><time>2026-04-17T07:21:52.999Z</time></trkpt><trkpt lat="48.20246607891797" lon="11.593858862231546"><ele>499.0</ele><time>2026-04-17T07:21:54.999Z</time></trkpt><trkpt lat="48.20247866020673" lon="11.593727401833588"><ele>499.0</ele><time>2026-04-17T07:21:57.999Z</time></trkpt><trkpt lat="48.20248064906708" lon="11.593600111050867"><ele>499.0</ele><time>2026-04-17T07:22:04.999Z</time></trkpt><trkpt lat="48.20237412923252" lon="11.593505855843205"><ele>499.0</ele><time>2026-04-17T07:22:06.999Z</time></trkpt><trkpt lat="48.20230960239356" lon="11.59349256634063"><ele>499.0</ele><time>2026-04-17T07:22:07.999Z</time></trkpt><trkpt lat="48.202199788012955" lon="11.593456734484507"><ele>499.0</ele><time>2026-04-17T07:22:09.999Z</time></trkpt><trkpt lat="48.202068735631414" lon="11.593436438844485"><ele>499.0</ele><time>2026-04-17T07:22:11.999Z</time></trkpt><trkpt lat="48.201980677683174" lon="11.593416675039883"><ele>499.0</ele><time>2026-04-17T07:22:12.999Z</time></trkpt><trkpt lat="48.20191139867941" lon="11.59341073544792"><ele>499.0</ele><time>2026-04-17T07:22:13.999Z</time></trkpt><trkpt lat="48.20181860233276" lon="11.593393331235266"><ele>499.0</ele><time>2026-04-17T07:22:15.999Z</time></trkpt><trkpt lat="48.201776754704525" lon="11.59320608655587"><ele>499.0</ele><time>2026-04-17T07:22:18.999Z</time></trkpt><trkpt lat="48.201754303592395" lon="11.59307631365806"><ele>499.00000000000006</ele><time>2026-04-17T07:22:20.999Z</time></trkpt><trkpt lat="48.20174292243923" lon="11.592973904380669"><ele>499.0</ele><time>2026-04-17T07:22:21.999Z</time></trkpt><trkpt lat="48.20172786897354" lon="11.59285521578872"><ele>499.0</ele><time>2026-04-17T07:22:22.999Z</time></trkpt><trkpt lat="48.201709815960854" lon="11.592727258138371"><ele>499.0</ele><time>2026-04-17T07:22:23.999Z</time></trkpt><trkpt lat="48.2016957187259" lon="11.592612065158422"><ele>499.00000000000006</ele><time>2026-04-17T07:22:24.999Z</time></trkpt><trkpt lat="48.20167945012063" lon="11.592491849287404"><ele>499.0</ele><time>2026-04-17T07:22:26.999Z</time></trkpt><trkpt lat="48.20167097362994" lon="11.59238317773634"><ele>499.00000000000006</ele><time>2026-04-17T07:22:29.999Z</time></trkpt><trkpt lat="48.20165705629005" lon="11.592251523752386"><ele>499.0</ele><time>2026-04-17T07:22:32.999Z</time></trkpt><trkpt lat="48.201638030069596" lon="11.592159318927356"><ele>499.0</ele><time>2026-04-17T07:22:54.999Z</time></trkpt><trkpt lat="48.20160503592154" lon="11.592035962178628"><ele>499.0</ele><time>2026-04-17T07:22:56.999Z</time></trkpt><trkpt lat="48.2015780649305" lon="11.591930926113402"><ele>499.00000000000006</ele><time>2026-04-17T07:22:57.999Z</time></trkpt><trkpt lat="48.201553764693315" lon="11.59180975517839"><ele>499.0</ele><time>2026-04-17T07:22:58.999Z</time></trkpt><trkpt lat="48.20153861370346" lon="11.591700467468273"><ele>499.00000000000006</ele><time>2026-04-17T07:22:59.999Z</time></trkpt><trkpt lat="48.20152575751749" lon="11.591600034782276"><ele>499.0</ele><time>2026-04-17T07:23:00.999Z</time></trkpt><trkpt lat="48.201511476584436" lon="11.591486007118876"><ele>499.0</ele><time>2026-04-17T07:23:01.999Z</time></trkpt><trkpt lat="48.20149931980469" lon="11.591353328848497"><ele>499.0</ele><time>2026-04-17T07:23:02.999Z</time></trkpt><trkpt lat="48.201488785731826" lon="11.591223298855914"><ele>499.00000000000006</ele><time>2026-04-17T07:23:03.999Z</time></trkpt><trkpt lat="48.20147796463739" lon="11.591095702037743"><ele>499.0</ele><time>2026-04-17T07:23:04.999Z</time></trkpt><trkpt lat="48.20146851859107" lon="11.590986557814663"><ele>499.2</ele><time>2026-04-17T07:23:05.999Z</time></trkpt><trkpt lat="48.201461306013925" lon="11.590886043463266"><ele>499.4</ele><time>2026-04-17T07:23:06.999Z</time></trkpt><trkpt lat="48.20145320539375" lon="11.590790847805009"><ele>499.6</ele><time>2026-04-17T07:23:07.999Z</time></trkpt><trkpt lat="48.20144054957838" lon="11.590613966741762"><ele>499.8</ele><time>2026-04-17T07:23:09.999Z</time></trkpt><trkpt lat="48.2014275283454" lon="11.59044906341633"><ele>500.0</ele><time>2026-04-17T07:23:11.999Z</time></trkpt><trkpt lat="48.20140813810382" lon="11.590296080893522"><ele>499.99999999999994</ele><time>2026-04-17T07:23:13.999Z</time></trkpt><trkpt lat="48.201410966784" lon="11.59019263798981"><ele>500.0</ele><time>2026-04-17T07:23:16.999Z</time></trkpt><trkpt lat="48.20138743100268" lon="11.590077872500487"><ele>500.0</ele><time>2026-04-17T07:23:32.999Z</time></trkpt><trkpt lat="48.20137227745194" lon="11.589908455395852"><ele>500.0</ele><time>2026-04-17T07:23:34.999Z</time></trkpt><trkpt lat="48.20136199384056" lon="11.589813830338658"><ele>499.99999999999994</ele><time>2026-04-17T07:23:35.999Z</time></trkpt><trkpt lat="48.201352671520795" lon="11.589699088462847"><ele>500.0</ele><time>2026-04-17T07:23:37.999Z</time></trkpt><trkpt lat="48.20135633095328" lon="11.58957574086948"><ele>499.99999999999994</ele><time>2026-04-17T07:23:41.999Z</time></trkpt><trkpt lat="48.20125430127181" lon="11.589540319068435"><ele>500.0</ele><time>2026-04-17T07:23:43.999Z</time></trkpt><trkpt lat="48.20118028275447" lon="11.589573789082637"><ele>500.0</ele><time>2026-04-17T07:23:45.999Z</time></trkpt><trkpt lat="48.201108680229666" lon="11.589585679454723"><ele>500.0</ele><time>2026-04-17T07:23:48.999Z</time></trkpt><trkpt lat="48.201025955594716" lon="11.589606492701055"><ele>499.99999999999994</ele><time>2026-04-17T07:23:51.999Z</time></trkpt><trkpt lat="48.20093945533524" lon="11.589614849553884"><ele>500.0</ele><time>2026-04-17T07:23:53.999Z</time></trkpt><trkpt lat="48.20084112759062" lon="11.58963022595914"><ele>500.0</ele><time>2026-04-17T07:23:55.999Z</time></trkpt><trkpt lat="48.200709487120605" lon="11.589656255070539"><ele>500.0</ele><time>2026-04-17T07:23:57.999Z</time></trkpt><trkpt lat="48.200603389941016" lon="11.589639573851569"><ele>500.0</ele><time>2026-04-17T07:23:59.999Z</time></trkpt><trkpt lat="48.200537533979336" lon="11.589457904213873"><ele>500.0</ele><time>2026-04-17T07:24:02.999Z</time></trkpt><trkpt lat="48.20051965199511" lon="11.58929941241931"><ele>499.99999999999994</ele><time>2026-04-17T07:24:04.999Z</time></trkpt><trkpt lat="48.20049743730333" lon="11.589117797419336"><ele>500.0</ele><time>2026-04-17T07:24:06.999Z</time></trkpt><trkpt lat="48.200486628479986" lon="11.589003123257303"><ele>500.0</ele><time>2026-04-17T07:24:07.999Z</time></trkpt><trkpt lat="48.20047490666724" lon="11.588889680992216"><ele>500.0</ele><time>2026-04-17T07:24:08.999Z</time></trkpt><trkpt lat="48.20045554616154" lon="11.588794845806019"><ele>499.99999999999994</ele><time>2026-04-17T07:24:09.999Z</time></trkpt><trkpt lat="48.20044962295344" lon="11.588700305844963"><ele>500.0</ele><time>2026-04-17T07:24:10.999Z</time></trkpt><trkpt lat="48.200391256639065" lon="11.588540943293573"><ele>500.16666666666663</ele><time>2026-04-17T07:24:13Z</time></trkpt><trkpt lat="48.200369485590635" lon="11.588446791662667"><ele>500.3333333333333</ele><time>2026-04-17T07:24:14Z</time></trkpt><trkpt lat="48.20034085654466" lon="11.588353822619453"><ele>500.5</ele><time>2026-04-17T07:24:15Z</time></trkpt><trkpt lat="48.20031027105479" lon="11.58825802015492"><ele>500.66666666666663</ele><time>2026-04-17T07:24:16Z</time></trkpt><trkpt lat="48.2002788211211" lon="11.588167141272974"><ele>500.8333333333333</ele><time>2026-04-17T07:24:17Z</time></trkpt><trkpt lat="48.20022572705344" lon="11.588009551250748"><ele>501.0</ele><time>2026-04-17T07:24:19Z</time></trkpt><trkpt lat="48.200179809214404" lon="11.587858258758105"><ele>501.20000000000005</ele><time>2026-04-17T07:24:21Z</time></trkpt><trkpt lat="48.20013451188873" lon="11.58770645519672"><ele>501.40000000000003</ele><time>2026-04-17T07:24:23Z</time></trkpt><trkpt lat="48.20008013678873" lon="11.587543313201127"><ele>501.6</ele><time>2026-04-17T07:24:25Z</time></trkpt><trkpt lat="48.20002395822897" lon="11.587376938970333"><ele>501.8</ele><time>2026-04-17T07:24:27Z</time></trkpt><trkpt lat="48.19999686923603" lon="11.587286833696975"><ele>502.0</ele><time>2026-04-17T07:24:28Z</time></trkpt><trkpt lat="48.19996733686504" lon="11.587190838845464"><ele>502.0</ele><time>2026-04-17T07:24:29Z</time></trkpt><trkpt lat="48.199935637443346" lon="11.58709291307491"><ele>502.00000000000006</ele><time>2026-04-17T07:24:30Z</time></trkpt><trkpt lat="48.19990519309574" lon="11.586999315600277"><ele>502.00000000000006</ele><time>2026-04-17T07:24:31Z</time></trkpt><trkpt lat="48.19985593049811" lon="11.586842599815146"><ele>502.0</ele><time>2026-04-17T07:24:33Z</time></trkpt><trkpt lat="48.19981771973531" lon="11.586704577055333"><ele>502.0</ele><time>2026-04-17T07:24:35Z</time></trkpt><trkpt lat="48.199759565480406" lon="11.58659000738234"><ele>501.8</ele><time>2026-04-17T07:24:37Z</time></trkpt><trkpt lat="48.19967113638491" lon="11.58650709469251"><ele>501.6</ele><time>2026-04-17T07:24:39Z</time></trkpt><trkpt lat="48.19956021530021" lon="11.586482669765612"><ele>501.40000000000003</ele><time>2026-04-17T07:24:41Z</time></trkpt><trkpt lat="48.199455077906435" lon="11.586473050131545"><ele>501.20000000000005</ele><time>2026-04-17T07:24:43Z</time></trkpt><trkpt lat="48.199348589038365" lon="11.586483401929188"><ele>501.0</ele><time>2026-04-17T07:24:45Z</time></trkpt><trkpt lat="48.19922998494599" lon="11.586485216588374"><ele>501.0</ele><time>2026-04-17T07:24:47Z</time></trkpt><trkpt lat="48.199105562947196" lon="11.58647238081735"><ele>501.0</ele><time>2026-04-17T07:24:49Z</time></trkpt><trkpt lat="48.19898686598264" lon="11.58645773229425"><ele>501.0</ele><time>2026-04-17T07:24:51Z</time></trkpt><trkpt lat="48.198875693614795" lon="11.586450724325626"><ele>501.0</ele><time>2026-04-17T07:24:53Z</time></trkpt><trkpt lat="48.19876253041663" lon="11.586451183577106"><ele>501.20000000000005</ele><time>2026-04-17T07:24:55Z</time></trkpt><trkpt lat="48.19864840224468" lon="11.586443294562105"><ele>501.40000000000003</ele><time>2026-04-17T07:24:57Z</time></trkpt><trkpt lat="48.19853494225375" lon="11.586425780533931"><ele>501.6</ele><time>2026-04-17T07:24:59Z</time></trkpt><trkpt lat="48.198430355113416" lon="11.58641120704193"><ele>501.8</ele><time>2026-04-17T07:25:01Z</time></trkpt><trkpt lat="48.198354513769004" lon="11.586395794371425"><ele>502.0</ele><time>2026-04-17T07:25:03Z</time></trkpt><trkpt lat="48.19828333933527" lon="11.58639385882634"><ele>502.00000000000006</ele><time>2026-04-17T07:25:05Z</time></trkpt><trkpt lat="48.19825069415399" lon="11.586527087750298"><ele>502.0</ele><time>2026-04-17T07:25:07Z</time></trkpt><trkpt lat="48.198263873689044" lon="11.586656268257153"><ele>502.0</ele><time>2026-04-17T07:25:09Z</time></trkpt><trkpt lat="48.19826368302532" lon="11.58681122546517"><ele>502.0</ele><time>2026-04-17T07:25:11Z</time></trkpt><trkpt lat="48.198268411526726" lon="11.586916166395207"><ele>502.00000000000006</ele><time>2026-04-17T07:25:12Z</time></trkpt><trkpt lat="48.198273978772235" lon="11.587037003663147"><ele>502.0</ele><time>2026-04-17T07:25:13Z</time></trkpt><trkpt lat="48.1982762388123" lon="11.58716121093843"><ele>502.0</ele><time>2026-04-17T07:25:14Z</time></trkpt><trkpt lat="48.19827901043084" lon="11.587267488250577"><ele>502.00000000000006</ele><time>2026-04-17T07:25:15Z</time></trkpt><trkpt lat="48.19828080884984" lon="11.587441232464503"><ele>502.00000000000006</ele><time>2026-04-17T07:25:17Z</time></trkpt><trkpt lat="48.19828278824256" lon="11.58760505142553"><ele>502.0</ele><time>2026-04-17T07:25:19Z</time></trkpt><trkpt lat="48.19828263570183" lon="11.58778731894953"><ele>502.0</ele><time>2026-04-17T07:25:21Z</time></trkpt><trkpt lat="48.19828331028824" lon="11.587889668039269"><ele>502.0</ele><time>2026-04-17T07:25:21.999Z</time></trkpt><trkpt lat="48.198282352526505" lon="11.587998702627463"><ele>502.00000000000006</ele><time>2026-04-17T07:25:22.999Z</time></trkpt><trkpt lat="48.19828064604599" lon="11.588101214933772"><ele>502.00000000000006</ele><time>2026-04-17T07:25:23.999Z</time></trkpt><trkpt lat="48.19827776015427" lon="11.588275382975908"><ele>502.0</ele><time>2026-04-17T07:25:25.999Z</time></trkpt><trkpt lat="48.19827238136505" lon="11.588443880311104"><ele>502.0</ele><time>2026-04-17T07:25:27.999Z</time></trkpt><trkpt lat="48.19826749893421" lon="11.588610592159524"><ele>501.6</ele><time>2026-04-17T07:25:29.999Z</time></trkpt><trkpt lat="48.198262897416065" lon="11.588782464836468"><ele>501.20000000000005</ele><time>2026-04-17T07:25:31.999Z</time></trkpt><trkpt lat="48.19825427892539" lon="11.588952210424106"><ele>500.8</ele><time>2026-04-17T07:25:33.999Z</time></trkpt><trkpt lat="48.1982562987651" lon="11.589075593529076"><ele>500.4</ele><time>2026-04-17T07:25:35.999Z</time></trkpt><trkpt lat="48.198359831422074" lon="11.589182866781346"><ele>500.0</ele><time>2026-04-17T07:25:38.999Z</time></trkpt><trkpt lat="48.19845302578323" lon="11.589187215590828"><ele>500.0</ele><time>2026-04-17T07:25:40.999Z</time></trkpt><trkpt lat="48.19851984866303" lon="11.589190548567293"><ele>500.0</ele><time>2026-04-17T07:25:41.999Z</time></trkpt><trkpt lat="48.19859228340934" lon="11.589196622902941"><ele>500.0</ele><time>2026-04-17T07:25:42.999Z</time></trkpt><trkpt lat="48.198660350965945" lon="11.589202641543906"><ele>500.0</ele><time>2026-04-17T07:25:43.999Z</time></trkpt><trkpt lat="48.19872422379675" lon="11.589208554563918"><ele>500.0</ele><time>2026-04-17T07:25:44.999Z</time></trkpt><trkpt lat="48.19878886784392" lon="11.589214538989953"><ele>500.0</ele><time>2026-04-17T07:25:45.999Z</time></trkpt><trkpt lat="48.198852365959794" lon="11.589220417322762"><ele>500.0</ele><time>2026-04-17T07:25:46.999Z</time></trkpt><trkpt lat="48.19891631722359" lon="11.5892263376112"><ele>500.0</ele><time>2026-04-17T07:25:47.999Z</time></trkpt><trkpt lat="48.19898025218239" lon="11.589208016817407"><ele>500.0</ele><time>2026-04-17T07:25:48.999Z</time></trkpt><trkpt lat="48.19904337961845" lon="11.589215159997996"><ele>500.0</ele><time>2026-04-17T07:25:49.999Z</time></trkpt><trkpt lat="48.199160006041126" lon="11.589233986176838"><ele>500.0</ele><time>2026-04-17T07:25:51.999Z</time></trkpt><trkpt lat="48.199267449876295" lon="11.589273139325561"><ele>500.0</ele><time>2026-04-17T07:25:53.999Z</time></trkpt><trkpt lat="48.199387172391255" lon="11.589281297811688"><ele>500.0</ele><time>2026-04-17T07:25:56Z</time></trkpt><trkpt lat="48.1994506377291" lon="11.589316347336732"><ele>500.0</ele><time>2026-04-17T07:25:57Z</time></trkpt><trkpt lat="48.199522358929734" lon="11.589338522508449"><ele>500.0</ele><time>2026-04-17T07:25:58Z</time></trkpt><trkpt lat="48.19960347281383" lon="11.58938307777394"><ele>500.0</ele><time>2026-04-17T07:25:59Z</time></trkpt><trkpt lat="48.19967152238549" lon="11.589414979863287"><ele>500.0</ele><time>2026-04-17T07:26:00Z</time></trkpt><trkpt lat="48.19973370289947" lon="11.589444459933821"><ele>500.0</ele><time>2026-04-17T07:26:01Z</time></trkpt><trkpt lat="48.19979548684499" lon="11.589477152538434"><ele>500.0</ele><time>2026-04-17T07:26:02Z</time></trkpt><trkpt lat="48.199856796577144" lon="11.589511079516587"><ele>500.16666666666663</ele><time>2026-04-17T07:26:03Z</time></trkpt><trkpt lat="48.19991877323283" lon="11.589540050537028"><ele>500.3333333333333</ele><time>2026-04-17T07:26:04Z</time></trkpt><trkpt lat="48.19998173351837" lon="11.589564245827654"><ele>500.5</ele><time>2026-04-17T07:26:05Z</time></trkpt><trkpt lat="48.20004837650688" lon="11.589586223673336"><ele>500.66666666666663</ele><time>2026-04-17T07:26:06Z</time></trkpt><trkpt lat="48.200110509603654" lon="11.589629098459064"><ele>500.8333333333333</ele><time>2026-04-17T07:26:07Z</time></trkpt><trkpt lat="48.20017466801801" lon="11.589649444072796"><ele>501.0</ele><time>2026-04-17T07:26:08Z</time></trkpt><trkpt lat="48.200291442713315" lon="11.589680566558485"><ele>501.0</ele><time>2026-04-17T07:26:10Z</time></trkpt><trkpt lat="48.20039943184087" lon="11.58967031581358"><ele>501.0</ele><time>2026-04-17T07:26:12Z</time></trkpt><trkpt lat="48.20051706357146" lon="11.589684256930063"><ele>501.0</ele><time>2026-04-17T07:26:14Z</time></trkpt><trkpt lat="48.20058658617134" lon="11.589680548082526"><ele>501.0</ele><time>2026-04-17T07:26:15Z</time></trkpt><trkpt lat="48.20065941417777" lon="11.589678002096736"><ele>501.0</ele><time>2026-04-17T07:26:16Z</time></trkpt><trkpt lat="48.200729609780495" lon="11.589670674576302"><ele>501.0</ele><time>2026-04-17T07:26:17Z</time></trkpt><trkpt lat="48.20084515970803" lon="11.58965399503629"><ele>500.8333333333333</ele><time>2026-04-17T07:26:19Z</time></trkpt><trkpt lat="48.200941911590085" lon="11.589648842070696"><ele>500.66666666666663</ele><time>2026-04-17T07:26:21Z</time></trkpt><trkpt lat="48.201040860556" lon="11.589646622538702"><ele>500.5</ele><time>2026-04-17T07:26:23Z</time></trkpt><trkpt lat="48.201129209761675" lon="11.589632818475584"><ele>500.3333333333333</ele><time>2026-04-17T07:26:25Z</time></trkpt><trkpt lat="48.201208569345646" lon="11.589632390521304"><ele>500.16666666666663</ele><time>2026-04-17T07:26:28Z</time></trkpt><trkpt lat="48.20128937811925" lon="11.589631029081524"><ele>500.0</ele><time>2026-04-17T07:27:01Z</time></trkpt><trkpt lat="48.20134988039655" lon="11.589583225531115"><ele>499.8333333333333</ele><time>2026-04-17T07:27:05Z</time></trkpt><trkpt lat="48.20133849715041" lon="11.589484374308263"><ele>499.66666666666663</ele><time>2026-04-17T07:27:08Z</time></trkpt><trkpt lat="48.20132557359094" lon="11.589273537796124"><ele>499.5</ele><time>2026-04-17T07:27:10Z</time></trkpt><trkpt lat="48.20131959933252" lon="11.589138293281605"><ele>499.33333333333337</ele><time>2026-04-17T07:27:11Z</time></trkpt><trkpt lat="48.20131152438994" lon="11.589030616487605"><ele>499.1666666666667</ele><time>2026-04-17T07:27:12Z</time></trkpt><trkpt lat="48.20129954463794" lon="11.588932119715096"><ele>499.0</ele><time>2026-04-17T07:27:13Z</time></trkpt><trkpt lat="48.2012866098631" lon="11.588789297167226"><ele>499.4</ele><time>2026-04-17T07:27:15Z</time></trkpt><trkpt lat="48.201269304951026" lon="11.58863872648241"><ele>499.79999999999995</ele><time>2026-04-17T07:27:17Z</time></trkpt><trkpt lat="48.20125814018911" lon="11.588484477086773"><ele>500.20000000000005</ele><time>2026-04-17T07:27:19Z</time></trkpt><trkpt lat="48.20124371997197" lon="11.588336114546422"><ele>500.6</ele><time>2026-04-17T07:27:21Z</time></trkpt><trkpt lat="48.201228951547805" lon="11.588178190615965"><ele>501.0</ele><time>2026-04-17T07:27:23Z</time></trkpt><trkpt lat="48.20121640084006" lon="11.588029035255946"><ele>501.0</ele><time>2026-04-17T07:27:25Z</time></trkpt><trkpt lat="48.20120466301236" lon="11.587894627052354"><ele>501.0</ele><time>2026-04-17T07:27:27Z</time></trkpt><trkpt lat="48.201190090048975" lon="11.587752880675852"><ele>501.0</ele><time>2026-04-17T07:27:29Z</time></trkpt><trkpt lat="48.20117257024976" lon="11.587566715400103"><ele>501.0</ele><time>2026-04-17T07:27:31Z</time></trkpt><trkpt lat="48.201162441383666" lon="11.58744397007384"><ele>501.0</ele><time>2026-04-17T07:27:32Z</time></trkpt><trkpt lat="48.20115254227297" lon="11.587310329594105"><ele>501.0</ele><time>2026-04-17T07:27:33Z</time></trkpt><trkpt lat="48.2011393235807" lon="11.587187126657849"><ele>501.0</ele><time>2026-04-17T07:27:34Z</time></trkpt><trkpt lat="48.20112913918739" lon="11.587079526837005"><ele>501.0</ele><time>2026-04-17T07:27:35Z</time></trkpt><trkpt lat="48.20112301644424" lon="11.586981988142421"><ele>501.0</ele><time>2026-04-17T07:27:36Z</time></trkpt><trkpt lat="48.201111285730846" lon="11.586795699139657"><ele>501.0</ele><time>2026-04-17T07:27:38Z</time></trkpt><trkpt lat="48.20110280161973" lon="11.586617671653539"><ele>500.8333333333333</ele><time>2026-04-17T07:27:40Z</time></trkpt><trkpt lat="48.20109765547776" lon="11.586452985695612"><ele>500.66666666666663</ele><time>2026-04-17T07:27:42Z</time></trkpt><trkpt lat="48.20110211640619" lon="11.586315900529643"><ele>500.5</ele><time>2026-04-17T07:27:44Z</time></trkpt><trkpt lat="48.20110190924192" lon="11.586201570749095"><ele>500.3333333333333</ele><time>2026-04-17T07:27:46Z</time></trkpt><trkpt lat="48.20109481221129" lon="11.586105232374006"><ele>500.16666666666663</ele><time>2026-04-17T07:27:49Z</time></trkpt><trkpt lat="48.20108719949441" lon="11.58600107226161"><ele>500.0</ele><time>2026-04-17T07:28:13Z</time></trkpt><trkpt lat="48.201076954220326" lon="11.585833778377799"><ele>500.0</ele><time>2026-04-17T07:28:15Z</time></trkpt><trkpt lat="48.20107112523926" lon="11.58568539037326"><ele>500.0</ele><time>2026-04-17T07:28:17.001Z</time></trkpt><trkpt lat="48.2010507971392" lon="11.585552089806942"><ele>500.0</ele><time>2026-04-17T07:28:20.001Z</time></trkpt><trkpt lat="48.201179214403474" lon="11.585458662313298"><ele>500.0</ele><time>2026-04-17T07:28:23.001Z</time></trkpt><trkpt lat="48.201250007176185" lon="11.585465854975293"><ele>500.0</ele><time>2026-04-17T07:28:24.001Z</time></trkpt><trkpt lat="48.201326717393684" lon="11.585460777878582"><ele>499.99999999999994</ele><time>2026-04-17T07:28:25.001Z</time></trkpt><trkpt lat="48.2014073693997" lon="11.585457549638003"><ele>500.0</ele><time>2026-04-17T07:28:26.001Z</time></trkpt><trkpt lat="48.201487015702774" lon="11.585464934095098"><ele>500.0</ele><time>2026-04-17T07:28:27.001Z</time></trkpt><trkpt lat="48.20156997602812" lon="11.585482075092239"><ele>500.0</ele><time>2026-04-17T07:28:28.001Z</time></trkpt><trkpt lat="48.20165763048569" lon="11.585500261840624"><ele>499.99999999999994</ele><time>2026-04-17T07:28:29.001Z</time></trkpt><trkpt lat="48.20175055321359" lon="11.585518367810659"><ele>500.0</ele><time>2026-04-17T07:28:30.001Z</time></trkpt><trkpt lat="48.20183965328246" lon="11.58553572661198"><ele>499.99999999999994</ele><time>2026-04-17T07:28:31.001Z</time></trkpt><trkpt lat="48.20192274453565" lon="11.585550836725877"><ele>500.0</ele><time>2026-04-17T07:28:32.001Z</time></trkpt><trkpt lat="48.202006267076435" lon="11.585567074430104"><ele>500.0</ele><time>2026-04-17T07:28:33.001Z</time></trkpt><trkpt lat="48.20208994782857" lon="11.585585548049227"><ele>500.0</ele><time>2026-04-17T07:28:34.001Z</time></trkpt><trkpt lat="48.20217363222039" lon="11.585602884329335"><ele>499.99999999999994</ele><time>2026-04-17T07:28:35.001Z</time></trkpt><trkpt lat="48.20224534965109" lon="11.585597288526388"><ele>500.0</ele><time>2026-04-17T07:28:36.001Z</time></trkpt><trkpt lat="48.20234509624395" lon="11.585606119165528"><ele>499.99999999999994</ele><time>2026-04-17T07:28:38.001Z</time></trkpt><trkpt lat="48.20241140737479" lon="11.585625935640197"><ele>500.0</ele><time>2026-04-17T07:28:40.001Z</time></trkpt><trkpt lat="48.202490961036325" lon="11.58564415440146"><ele>500.0</ele><time>2026-04-17T07:28:43.001Z</time></trkpt><trkpt lat="48.202567580973415" lon="11.585655369841655"><ele>500.0</ele><time>2026-04-17T07:28:45.001Z</time></trkpt><trkpt lat="48.20249400695023" lon="11.585641278814164"><ele>499.99999999999994</ele><time>2026-04-17T07:28:59.001Z</time></trkpt><trkpt lat="48.2024351653045" lon="11.585494919939523"><ele>500.0</ele><time>2026-04-17T07:29:00.001Z</time></trkpt><trkpt lat="48.202324919698704" lon="11.585481071359782"><ele>499.99999999999994</ele><time>2026-04-17T07:29:02.001Z</time></trkpt><trkpt lat="48.20224509164127" lon="11.585468233635723"><ele>500.0</ele><time>2026-04-17T07:29:05.001Z</time></trkpt><trkpt lat="48.202178324784136" lon="11.585451731896041"><ele>500.0</ele><time>2026-04-17T07:29:07.001Z</time></trkpt><trkpt lat="48.20211358673178" lon="11.585435663522572"><ele>500.0</ele><time>2026-04-17T07:29:09.001Z</time></trkpt><trkpt lat="48.20204424260859" lon="11.58542433670306"><ele>499.99999999999994</ele><time>2026-04-17T07:29:17.001Z</time></trkpt><trkpt lat="48.20192819949273" lon="11.585404543955168"><ele>500.0</ele><time>2026-04-17T07:29:19.001Z</time></trkpt><trkpt lat="48.201832617799866" lon="11.585381582796234"><ele>500.0</ele><time>2026-04-17T07:29:21.001Z</time></trkpt><trkpt lat="48.20173222287614" lon="11.585353991356907"><ele>500.0</ele><time>2026-04-17T07:29:23.001Z</time></trkpt><trkpt lat="48.20163342724533" lon="11.585334932910408"><ele>500.0</ele><time>2026-04-17T07:29:25.001Z</time></trkpt><trkpt lat="48.20149920118014" lon="11.585314400121103"><ele>500.0</ele><time>2026-04-17T07:29:27.001Z</time></trkpt><trkpt lat="48.20139528075929" lon="11.585298760844978"><ele>500.0</ele><time>2026-04-17T07:29:28.001Z</time></trkpt><trkpt lat="48.20127693537698" lon="11.58527352351136"><ele>500.4</ele><time>2026-04-17T07:29:29.001Z</time></trkpt><trkpt lat="48.201152125780894" lon="11.585245301810707"><ele>500.8</ele><time>2026-04-17T07:29:30.001Z</time></trkpt><trkpt lat="48.20104984768091" lon="11.585222253865366"><ele>501.20000000000005</ele><time>2026-04-17T07:29:31.001Z</time></trkpt><trkpt lat="48.20096404614368" lon="11.58519979390603"><ele>501.6</ele><time>2026-04-17T07:29:32.001Z</time></trkpt><trkpt lat="48.200878857379855" lon="11.585180921002907"><ele>502.0</ele><time>2026-04-17T07:29:33.001Z</time></trkpt><trkpt lat="48.20079328119038" lon="11.58516435766665"><ele>502.0</ele><time>2026-04-17T07:29:34Z</time></trkpt><trkpt lat="48.20070470427322" lon="11.585149940789167"><ele>502.00000000000006</ele><time>2026-04-17T07:29:35Z</time></trkpt><trkpt lat="48.20061220952663" lon="11.585136543358514"><ele>502.00000000000006</ele><time>2026-04-17T07:29:36Z</time></trkpt><trkpt lat="48.20051544782807" lon="11.585124597719236"><ele>502.0</ele><time>2026-04-17T07:29:37Z</time></trkpt><trkpt lat="48.200418943004586" lon="11.585111048306652"><ele>502.0</ele><time>2026-04-17T07:29:38Z</time></trkpt><trkpt lat="48.200317257462125" lon="11.585092265877636"><ele>502.0</ele><time>2026-04-17T07:29:39Z</time></trkpt><trkpt lat="48.20020924251892" lon="11.585075589569188"><ele>502.00000000000006</ele><time>2026-04-17T07:29:40Z</time></trkpt><trkpt lat="48.20010655031775" lon="11.585069068908235"><ele>502.00000000000006</ele><time>2026-04-17T07:29:41Z</time></trkpt><trkpt lat="48.20001349627936" lon="11.58506060321719"><ele>502.0</ele><time>2026-04-17T07:29:42Z</time></trkpt><trkpt lat="48.199922550214076" lon="11.58505189286854"><ele>502.0</ele><time>2026-04-17T07:29:43Z</time></trkpt><trkpt lat="48.19982967093063" lon="11.585038519196297"><ele>501.6</ele><time>2026-04-17T07:29:44Z</time></trkpt><trkpt lat="48.19973446678426" lon="11.585021129494118"><ele>501.20000000000005</ele><time>2026-04-17T07:29:45Z</time></trkpt><trkpt lat="48.19963469672112" lon="11.585002406840148"><ele>500.8</ele><time>2026-04-17T07:29:46Z</time></trkpt><trkpt lat="48.19952422656735" lon="11.584982499080088"><ele>500.4</ele><time>2026-04-17T07:29:47Z</time></trkpt><trkpt lat="48.19941532901529" lon="11.584961088646418"><ele>500.0</ele><time>2026-04-17T07:29:48Z</time></trkpt><trkpt lat="48.19932019492024" lon="11.584941564234875"><ele>499.99999999999994</ele><time>2026-04-17T07:29:49Z</time></trkpt><trkpt lat="48.199240110432605" lon="11.584926282462462"><ele>500.0</ele><time>2026-04-17T07:29:50.001Z</time></trkpt><trkpt lat="48.19916565521633" lon="11.584914153668613"><ele>500.0</ele><time>2026-04-17T07:29:51.001Z</time></trkpt><trkpt lat="48.1990866380898" lon="11.584902188728767"><ele>500.0</ele><time>2026-04-17T07:29:52.001Z</time></trkpt><trkpt lat="48.19899870875518" lon="11.584900976635753"><ele>499.99999999999994</ele><time>2026-04-17T07:29:53.001Z</time></trkpt><trkpt lat="48.1988951052948" lon="11.5848916214002"><ele>500.0</ele><time>2026-04-17T07:29:54.001Z</time></trkpt><trkpt lat="48.198792129639216" lon="11.584874103337244"><ele>499.99999999999994</ele><time>2026-04-17T07:29:55.001Z</time></trkpt><trkpt lat="48.19870513938537" lon="11.584856829005904"><ele>500.0</ele><time>2026-04-17T07:29:56.001Z</time></trkpt><trkpt lat="48.19863037460822" lon="11.584839674276243"><ele>500.0</ele><time>2026-04-17T07:29:57.001Z</time></trkpt><trkpt lat="48.19855726639352" lon="11.584823493541512"><ele>500.0</ele><time>2026-04-17T07:29:58Z</time></trkpt><trkpt lat="48.198441509199775" lon="11.584802928820269"><ele>499.99999999999994</ele><time>2026-04-17T07:30:00Z</time></trkpt><trkpt lat="48.19836192692381" lon="11.584790091685683"><ele>500.0</ele><time>2026-04-17T07:30:02Z</time></trkpt><trkpt lat="48.19844169258314" lon="11.584800833385051"><ele>500.0</ele><time>2026-04-17T07:30:15Z</time></trkpt><trkpt lat="48.198577409077274" lon="11.584826927445432"><ele>500.0</ele><time>2026-04-17T07:30:17Z</time></trkpt><trkpt lat="48.19869776130805" lon="11.58486018886808"><ele>500.0</ele><time>2026-04-17T07:30:18Z</time></trkpt><trkpt lat="48.19880929420874" lon="11.58496502629895"><ele>500.0</ele><time>2026-04-17T07:30:19Z</time></trkpt><trkpt lat="48.19889548177917" lon="11.584981603387279"><ele>500.0</ele><time>2026-04-17T07:30:20Z</time></trkpt><trkpt lat="48.1989842519738" lon="11.58499559414699"><ele>500.0</ele><time>2026-04-17T07:30:21Z</time></trkpt><trkpt lat="48.199078509563435" lon="11.585017390113796"><ele>500.0</ele><time>2026-04-17T07:30:22Z</time></trkpt><trkpt lat="48.19919179079314" lon="11.585041823490455"><ele>500.0</ele><time>2026-04-17T07:30:23Z</time></trkpt><trkpt lat="48.1993019062065" lon="11.585062212039874"><ele>500.0</ele><time>2026-04-17T07:30:24Z</time></trkpt><trkpt lat="48.19939150874624" lon="11.585078432306931"><ele>500.0</ele><time>2026-04-17T07:30:25Z</time></trkpt><trkpt lat="48.19946758252122" lon="11.585093863986012"><ele>500.0</ele><time>2026-04-17T07:30:26Z</time></trkpt><trkpt lat="48.1995343360693" lon="11.585108109759563"><ele>500.0</ele><time>2026-04-17T07:30:27Z</time></trkpt><trkpt lat="48.199657369701974" lon="11.585133406808813"><ele>500.0</ele><time>2026-04-17T07:30:29Z</time></trkpt><trkpt lat="48.199776678006295" lon="11.585160526553544"><ele>500.0</ele><time>2026-04-17T07:30:31Z</time></trkpt><trkpt lat="48.1998700267372" lon="11.58518261180001"><ele>500.3333333333333</ele><time>2026-04-17T07:30:33Z</time></trkpt><trkpt lat="48.19994428131644" lon="11.585201059580072"><ele>500.66666666666663</ele><time>2026-04-17T07:30:36Z</time></trkpt><trkpt lat="48.2000233860225" lon="11.5852091571797"><ele>501.0</ele><time>2026-04-17T07:30:40Z</time></trkpt><trkpt lat="48.20010883154438" lon="11.585258991434129"><ele>501.33333333333337</ele><time>2026-04-17T07:30:48Z</time></trkpt><trkpt lat="48.200187086324654" lon="11.585291231083348"><ele>501.6666666666667</ele><time>2026-04-17T07:30:51Z</time></trkpt><trkpt lat="48.20029683785406" lon="11.585290119484338"><ele>502.0</ele><time>2026-04-17T07:30:53Z</time></trkpt><trkpt lat="48.20037906792003" lon="11.585297516883301"><ele>502.00000000000006</ele><time>2026-04-17T07:30:55Z</time></trkpt><trkpt lat="48.20047512801201" lon="11.58530411651155"><ele>502.0</ele><time>2026-04-17T07:30:57Z</time></trkpt><trkpt lat="48.20054821435684" lon="11.585313970824092"><ele>502.0</ele><time>2026-04-17T07:30:58Z</time></trkpt><trkpt lat="48.200624347087654" lon="11.585328492371612"><ele>502.0</ele><time>2026-04-17T07:30:59Z</time></trkpt><trkpt lat="48.20069974030538" lon="11.585343382580497"><ele>502.00000000000006</ele><time>2026-04-17T07:31:00Z</time></trkpt><trkpt lat="48.20077773038656" lon="11.585360146770142"><ele>502.0</ele><time>2026-04-17T07:31:01Z</time></trkpt><trkpt lat="48.2008692319173" lon="11.585379413537991"><ele>501.6666666666667</ele><time>2026-04-17T07:31:02Z</time></trkpt><trkpt lat="48.20097067261611" lon="11.585400399760047"><ele>501.33333333333337</ele><time>2026-04-17T07:31:03Z</time></trkpt><trkpt lat="48.2010581228396" lon="11.585418008646068"><ele>501.0</ele><time>2026-04-17T07:31:04Z</time></trkpt><trkpt lat="48.201136196563944" lon="11.585431465925677"><ele>500.66666666666663</ele><time>2026-04-17T07:31:05Z</time></trkpt><trkpt lat="48.201202017022666" lon="11.58544529900478"><ele>500.3333333333333</ele><time>2026-04-17T07:31:06Z</time></trkpt><trkpt lat="48.20131207720219" lon="11.585473939030551"><ele>500.0</ele><time>2026-04-17T07:31:08Z</time></trkpt><trkpt lat="48.20139746113935" lon="11.585491401899201"><ele>499.99999999999994</ele><time>2026-04-17T07:31:10Z</time></trkpt><trkpt lat="48.20148643903026" lon="11.585540525658779"><ele>500.0</ele><time>2026-04-17T07:31:12Z</time></trkpt><trkpt lat="48.2015816917601" lon="11.585573415274641"><ele>500.0</ele><time>2026-04-17T07:31:14Z</time></trkpt><trkpt lat="48.20166908310539" lon="11.585594480342424"><ele>500.0</ele><time>2026-04-17T07:31:16Z</time></trkpt><trkpt lat="48.20174211488394" lon="11.585613548657584"><ele>499.99999999999994</ele><time>2026-04-17T07:31:18Z</time></trkpt><trkpt lat="48.20181358269703" lon="11.585628235257335"><ele>500.0</ele><time>2026-04-17T07:31:22Z</time></trkpt><trkpt lat="48.2018841825371" lon="11.585601338205393"><ele>500.0</ele><time>2026-04-17T07:32:35Z</time></trkpt><trkpt lat="48.201999884014995" lon="11.585630110086285"><ele>500.0</ele><time>2026-04-17T07:32:37Z</time></trkpt><trkpt lat="48.202084088675406" lon="11.585633657726127"><ele>500.0</ele><time>2026-04-17T07:32:39Z</time></trkpt><trkpt lat="48.20215693321455" lon="11.585614167977097"><ele>500.0</ele><time>2026-04-17T07:32:41Z</time></trkpt><trkpt lat="48.20224426945462" lon="11.585604424612585"><ele>500.0</ele><time>2026-04-17T07:32:43Z</time></trkpt><trkpt lat="48.202339445430994" lon="11.585603832192179"><ele>499.8</ele><time>2026-04-17T07:32:45Z</time></trkpt><trkpt lat="48.20240940945105" lon="11.58563949603298"><ele>499.6</ele><time>2026-04-17T07:32:47Z</time></trkpt><trkpt lat="48.20248020370328" lon="11.58562962802422"><ele>499.4</ele><time>2026-04-17T07:32:49Z</time></trkpt><trkpt lat="48.202557655060055" lon="11.585653754145815"><ele>499.2</ele><time>2026-04-17T07:32:52Z</time></trkpt><trkpt lat="48.202657624033186" lon="11.585483553643083"><ele>499.0</ele><time>2026-04-17T07:32:56Z</time></trkpt><trkpt lat="48.202656647302966" lon="11.585331507330965"><ele>499.33333333333337</ele><time>2026-04-17T07:32:58Z</time></trkpt><trkpt lat="48.20268461695491" lon="11.585199424463836"><ele>499.6666666666667</ele><time>2026-04-17T07:33:01Z</time></trkpt><trkpt lat="48.202686281598865" lon="11.585071025762472"><ele>500.0</ele><time>2026-04-17T07:33:03Z</time></trkpt><trkpt lat="48.20269477809861" lon="11.584952614765626"><ele>500.33333333333337</ele><time>2026-04-17T07:33:05Z</time></trkpt><trkpt lat="48.20270551737329" lon="11.5848474775038"><ele>500.6666666666667</ele><time>2026-04-17T07:33:07Z</time></trkpt><trkpt lat="48.20272583418613" lon="11.5847313371671"><ele>501.0</ele><time>2026-04-17T07:33:10Z</time></trkpt><trkpt lat="48.20258080585976" lon="11.584618026611754"><ele>501.0</ele><time>2026-04-17T07:33:15Z</time></trkpt><trkpt lat="48.202479913240055" lon="11.584610786631115"><ele>501.0</ele><time>2026-04-17T07:33:17Z</time></trkpt><trkpt lat="48.202362641326665" lon="11.58460683295872"><ele>501.0</ele><time>2026-04-17T07:33:19.001Z</time></trkpt><trkpt lat="48.202299260976844" lon="11.584588057585725"><ele>501.0</ele><time>2026-04-17T07:33:20.001Z</time></trkpt><trkpt lat="48.2022002872326" lon="11.584566559687472"><ele>501.0</ele><time>2026-04-17T07:33:22.001Z</time></trkpt><trkpt lat="48.202103541131386" lon="11.58454159411093"><ele>501.0</ele><time>2026-04-17T07:33:24.001Z</time></trkpt><trkpt lat="48.20203906540531" lon="11.584528487420119"><ele>501.0</ele><time>2026-04-17T07:33:25.001Z</time></trkpt><trkpt lat="48.201961198559424" lon="11.584518441937622"><ele>501.0</ele><time>2026-04-17T07:33:26.001Z</time></trkpt><trkpt lat="48.20189289739632" lon="11.58450648717823"><ele>501.0</ele><time>2026-04-17T07:33:27.001Z</time></trkpt><trkpt lat="48.201827837175685" lon="11.584488344523232"><ele>501.0</ele><time>2026-04-17T07:33:29.001Z</time></trkpt><trkpt lat="48.20174292171631" lon="11.584438292870257"><ele>501.0</ele><time>2026-04-17T07:33:32.001Z</time></trkpt><trkpt lat="48.201731332221996" lon="11.58432425574203"><ele>501.0</ele><time>2026-04-17T07:33:34.001Z</time></trkpt><trkpt lat="48.201746447882456" lon="11.584175249775221"><ele>501.0</ele><time>2026-04-17T07:33:36.001Z</time></trkpt><trkpt lat="48.20175716058664" lon="11.58407956739057"><ele>501.0</ele><time>2026-04-17T07:33:37.001Z</time></trkpt><trkpt lat="48.20176515970054" lon="11.583969122912492"><ele>501.0</ele><time>2026-04-17T07:33:38.001Z</time></trkpt><trkpt lat="48.201770080117356" lon="11.583824333902346"><ele>501.0</ele><time>2026-04-17T07:33:39.001Z</time></trkpt><trkpt lat="48.201778048548995" lon="11.583705654735832"><ele>501.0</ele><time>2026-04-17T07:33:40.001Z</time></trkpt><trkpt lat="48.201787364628025" lon="11.583543993125042"><ele>501.0</ele><time>2026-04-17T07:33:42.001Z</time></trkpt><trkpt lat="48.20179495578165" lon="11.583379697320893"><ele>500.6666666666667</ele><time>2026-04-17T07:33:44.001Z</time></trkpt><trkpt lat="48.20180286796119" lon="11.583215210932549"><ele>500.33333333333337</ele><time>2026-04-17T07:33:46Z</time></trkpt><trkpt lat="48.201813210731714" lon="11.583038678037344"><ele>500.0</ele><time>2026-04-17T07:33:48Z</time></trkpt><trkpt lat="48.201820583859444" lon="11.582944256128489"><ele>499.6666666666667</ele><time>2026-04-17T07:33:49Z</time></trkpt><trkpt lat="48.201828699322725" lon="11.582846749734554"><ele>499.33333333333337</ele><time>2026-04-17T07:33:50Z</time></trkpt><trkpt lat="48.20183749728544" lon="11.582749518542665"><ele>499.0</ele><time>2026-04-17T07:33:51Z</time></trkpt><trkpt lat="48.201855564774654" lon="11.582573083170194"><ele>499.0</ele><time>2026-04-17T07:33:53Z</time></trkpt><trkpt lat="48.20186863537184" lon="11.582415202809264"><ele>499.0</ele><time>2026-04-17T07:33:55Z</time></trkpt><trkpt lat="48.201879327668465" lon="11.582272857168736"><ele>499.0</ele><time>2026-04-17T07:33:57Z</time></trkpt><trkpt lat="48.20188949700436" lon="11.582126175874611"><ele>499.0</ele><time>2026-04-17T07:33:59Z</time></trkpt><trkpt lat="48.20190693073602" lon="11.581915009836795"><ele>499.0</ele><time>2026-04-17T07:34:01Z</time></trkpt><trkpt lat="48.20191443682211" lon="11.581812470756429"><ele>499.0</ele><time>2026-04-17T07:34:02Z</time></trkpt><trkpt lat="48.20192115102682" lon="11.581656573134406"><ele>499.0</ele><time>2026-04-17T07:34:04Z</time></trkpt><trkpt lat="48.20193319098742" lon="11.581489377034458"><ele>499.0</ele><time>2026-04-17T07:34:06Z</time></trkpt><trkpt lat="48.201943100373796" lon="11.5813330797346"><ele>499.0</ele><time>2026-04-17T07:34:08Z</time></trkpt><trkpt lat="48.201950904713925" lon="11.581166809208256"><ele>499.0</ele><time>2026-04-17T07:34:10Z</time></trkpt><trkpt lat="48.2019598676098" lon="11.581037450767479"><ele>499.00000000000006</ele><time>2026-04-17T07:34:11Z</time></trkpt><trkpt lat="48.20196834185334" lon="11.580930874237252"><ele>499.0</ele><time>2026-04-17T07:34:12Z</time></trkpt><trkpt lat="48.20197854670513" lon="11.580779555545485"><ele>499.0</ele><time>2026-04-17T07:34:14Z</time></trkpt><trkpt lat="48.20198956407366" lon="11.580665039076688"><ele>499.0</ele><time>2026-04-17T07:34:16Z</time></trkpt><trkpt lat="48.20202063486513" lon="11.580561311217565"><ele>499.00000000000006</ele><time>2026-04-17T07:34:18Z</time></trkpt><trkpt lat="48.20212003251876" lon="11.5805427725634"><ele>499.0</ele><time>2026-04-17T07:34:20Z</time></trkpt><trkpt lat="48.20223766805429" lon="11.580565531805755"><ele>499.0</ele><time>2026-04-17T07:34:22Z</time></trkpt><trkpt lat="48.202308278233836" lon="11.580575256650578"><ele>499.0</ele><time>2026-04-17T07:34:23Z</time></trkpt><trkpt lat="48.20239248438043" lon="11.580587350374904"><ele>499.0</ele><time>2026-04-17T07:34:24Z</time></trkpt><trkpt lat="48.20246761024033" lon="11.580601173155118"><ele>499.0</ele><time>2026-04-17T07:34:25Z</time></trkpt><trkpt lat="48.20258004082714" lon="11.58061541515422"><ele>499.0</ele><time>2026-04-17T07:34:27Z</time></trkpt><trkpt lat="48.20268598106838" lon="11.5806286730352"><ele>499.0</ele><time>2026-04-17T07:34:29Z</time></trkpt><trkpt lat="48.20278111604896" lon="11.580632045792576"><ele>499.0</ele><time>2026-04-17T07:34:31Z</time></trkpt><trkpt lat="48.202848718819055" lon="11.580639793266517"><ele>499.0</ele><time>2026-04-17T07:34:34Z</time></trkpt><trkpt lat="48.2029119836886" lon="11.580655597746693"><ele>499.0</ele><time>2026-04-17T07:34:36Z</time></trkpt><trkpt lat="48.20303201634115" lon="11.580681884660383"><ele>499.0</ele><time>2026-04-17T07:34:38Z</time></trkpt><trkpt lat="48.20314050997559" lon="11.580697108131824"><ele>499.2</ele><time>2026-04-17T07:34:40Z</time></trkpt><trkpt lat="48.20325726880443" lon="11.580712549651478"><ele>499.4</ele><time>2026-04-17T07:34:42Z</time></trkpt><trkpt lat="48.203376083537414" lon="11.580726744777815"><ele>499.6</ele><time>2026-04-17T07:34:44Z</time></trkpt><trkpt lat="48.20347529266636" lon="11.580725621331766"><ele>499.8</ele><time>2026-04-17T07:34:46Z</time></trkpt><trkpt lat="48.203560363307744" lon="11.580737766810078"><ele>500.0</ele><time>2026-04-17T07:34:48Z</time></trkpt><trkpt lat="48.2036533187761" lon="11.58075179077148"><ele>500.0</ele><time>2026-04-17T07:34:50Z</time></trkpt><trkpt lat="48.203740126755214" lon="11.580762486826908"><ele>500.0</ele><time>2026-04-17T07:34:52Z</time></trkpt><trkpt lat="48.203827997218475" lon="11.580779671583628"><ele>500.0</ele><time>2026-04-17T07:34:55Z</time></trkpt><trkpt lat="48.20391353301214" lon="11.580789906140046"><ele>500.0</ele><time>2026-04-17T07:34:57Z</time></trkpt><trkpt lat="48.20401548768025" lon="11.580795184767346"><ele>500.0</ele><time>2026-04-17T07:34:59Z</time></trkpt><trkpt lat="48.20413142260687" lon="11.58080760567715"><ele>500.0</ele><time>2026-04-17T07:35:01Z</time></trkpt><trkpt lat="48.20420686785313" lon="11.58082399911481"><ele>500.0</ele><time>2026-04-17T07:35:03Z</time></trkpt><trkpt lat="48.20427237806139" lon="11.580843633146046"><ele>500.0</ele><time>2026-04-17T07:35:07Z</time></trkpt><trkpt lat="48.20432286687392" lon="11.580355620489435"><ele>499.85714285714283</ele><time>2026-04-17T07:35:29.001Z</time></trkpt><trkpt lat="48.20432750485129" lon="11.580249506127311"><ele>499.7142857142858</ele><time>2026-04-17T07:35:31.001Z</time></trkpt><trkpt lat="48.2043333656994" lon="11.580142346257484"><ele>499.5714285714286</ele><time>2026-04-17T07:35:34.001Z</time></trkpt><trkpt lat="48.204366304360356" lon="11.580060409118285"><ele>499.42857142857144</ele><time>2026-04-17T07:35:39.001Z</time></trkpt><trkpt lat="48.20439104053981" lon="11.579959133392634"><ele>499.28571428571433</ele><time>2026-04-17T07:35:43.001Z</time></trkpt><trkpt lat="48.204418141968965" lon="11.579862318854214"><ele>499.1428571428572</ele><time>2026-04-17T07:35:47.001Z</time></trkpt><trkpt lat="48.204413936746676" lon="11.579743464787533"><ele>499.00000000000006</ele><time>2026-04-17T07:35:51Z</time></trkpt><trkpt lat="48.20444967137957" lon="11.579650183357419"><ele>499.00000000000006</ele><time>2026-04-17T07:35:56Z</time></trkpt><trkpt lat="48.20439154205424" lon="11.579575079277646"><ele>499.0</ele><time>2026-04-17T07:35:58Z</time></trkpt><trkpt lat="48.20432454848188" lon="11.579557783628427"><ele>499.0</ele><time>2026-04-17T07:36:01Z</time></trkpt><trkpt lat="48.20425272998544" lon="11.579534016342366"><ele>499.0</ele><time>2026-04-17T07:36:07Z</time></trkpt><trkpt lat="48.20418434964158" lon="11.579519450367215"><ele>499.00000000000006</ele><time>2026-04-17T07:36:12Z</time></trkpt><trkpt lat="48.204116340205644" lon="11.579509517935701"><ele>499.0</ele><time>2026-04-17T07:36:16Z</time></trkpt><trkpt lat="48.203986308497996" lon="11.579471069406408"><ele>499.33333333333337</ele><time>2026-04-17T07:36:18Z</time></trkpt><trkpt lat="48.203876736459584" lon="11.579449435734237"><ele>499.6666666666667</ele><time>2026-04-17T07:36:19Z</time></trkpt><trkpt lat="48.203794612230695" lon="11.579434821329416"><ele>500.0</ele><time>2026-04-17T07:36:20Z</time></trkpt><trkpt lat="48.20372451832573" lon="11.579444026616345"><ele>500.33333333333337</ele><time>2026-04-17T07:36:21Z</time></trkpt><trkpt lat="48.20366151025648" lon="11.57943045865788"><ele>500.6666666666667</ele><time>2026-04-17T07:36:22Z</time></trkpt><trkpt lat="48.203598195481646" lon="11.579422779814491"><ele>501.0</ele><time>2026-04-17T07:36:23Z</time></trkpt><trkpt lat="48.20353517671563" lon="11.579403967668904"><ele>501.0</ele><time>2026-04-17T07:36:24Z</time></trkpt><trkpt lat="48.20347188816719" lon="11.579394104342917"><ele>501.0</ele><time>2026-04-17T07:36:25Z</time></trkpt><trkpt lat="48.20340773253" lon="11.57938389576149"><ele>501.0</ele><time>2026-04-17T07:36:26Z</time></trkpt><trkpt lat="48.20334398063982" lon="11.579368540457274"><ele>501.0</ele><time>2026-04-17T07:36:27Z</time></trkpt><trkpt lat="48.20327926968114" lon="11.57936128701726"><ele>501.0</ele><time>2026-04-17T07:36:28Z</time></trkpt><trkpt lat="48.203213401392276" lon="11.579347185518548"><ele>501.0</ele><time>2026-04-17T07:36:29Z</time></trkpt><trkpt lat="48.203145786748365" lon="11.579332605374008"><ele>501.0</ele><time>2026-04-17T07:36:30Z</time></trkpt><trkpt lat="48.203077271305276" lon="11.579319884866521"><ele>500.6666666666667</ele><time>2026-04-17T07:36:31Z</time></trkpt><trkpt lat="48.20300884316556" lon="11.579306417862233"><ele>500.33333333333337</ele><time>2026-04-17T07:36:32Z</time></trkpt><trkpt lat="48.20293867138363" lon="11.57929314424343"><ele>500.0</ele><time>2026-04-17T07:36:33Z</time></trkpt><trkpt lat="48.20287029244245" lon="11.57927996664182"><ele>499.6666666666667</ele><time>2026-04-17T07:36:34Z</time></trkpt><trkpt lat="48.202804308556104" lon="11.579266431769723"><ele>499.33333333333337</ele><time>2026-04-17T07:36:35Z</time></trkpt><trkpt lat="48.20264862073538" lon="11.579231300144214"><ele>499.0</ele><time>2026-04-17T07:36:37Z</time></trkpt><trkpt lat="48.20257904638444" lon="11.579211603218651"><ele>499.00000000000006</ele><time>2026-04-17T07:36:38Z</time></trkpt><trkpt lat="48.20250752278477" lon="11.579196698109108"><ele>499.0</ele><time>2026-04-17T07:36:39Z</time></trkpt><trkpt lat="48.202438071755665" lon="11.57918860117427"><ele>499.00000000000006</ele><time>2026-04-17T07:36:40Z</time></trkpt><trkpt lat="48.20237476386215" lon="11.579182935444928"><ele>499.00000000000006</ele><time>2026-04-17T07:36:41Z</time></trkpt><trkpt lat="48.20229342916398" lon="11.57914781750708"><ele>499.0</ele><time>2026-04-17T07:36:43Z</time></trkpt><trkpt lat="48.20222477732994" lon="11.579201270752455"><ele>499.00000000000006</ele><time>2026-04-17T07:36:45Z</time></trkpt><trkpt lat="48.20218683876547" lon="11.57930466136858"><ele>499.00000000000006</ele><time>2026-04-17T07:36:47Z</time></trkpt><trkpt lat="48.20214921062129" lon="11.57941714457353"><ele>499.0</ele><time>2026-04-17T07:36:49Z</time></trkpt><trkpt lat="48.202081083967656" lon="11.579604549995445"><ele>499.0</ele><time>2026-04-17T07:36:51Z</time></trkpt><trkpt lat="48.20203051746015" lon="11.579734204310293"><ele>499.0</ele><time>2026-04-17T07:36:52Z</time></trkpt><trkpt lat="48.20199517855429" lon="11.57982944864203"><ele>499.0</ele><time>2026-04-17T07:36:53Z</time></trkpt><trkpt lat="48.20193940664213" lon="11.579964281973522"><ele>499.0</ele><time>2026-04-17T07:36:55Z</time></trkpt><trkpt lat="48.20188680772424" lon="11.58009507875124"><ele>499.00000000000006</ele><time>2026-04-17T07:36:57Z</time></trkpt><trkpt lat="48.201835176558205" lon="11.58023601722091"><ele>499.0</ele><time>2026-04-17T07:36:59Z</time></trkpt><trkpt lat="48.20180524519003" lon="11.58032005449208"><ele>499.0</ele><time>2026-04-17T07:37:00Z</time></trkpt><trkpt lat="48.20173780236451" lon="11.58047362795615"><ele>499.0</ele><time>2026-04-17T07:37:02Z</time></trkpt><trkpt lat="48.20168992981748" lon="11.58056982329807"><ele>499.00000000000006</ele><time>2026-04-17T07:37:04Z</time></trkpt><trkpt lat="48.20164955225547" lon="11.580651384964117"><ele>499.0</ele><time>2026-04-17T07:37:06Z</time></trkpt><trkpt lat="48.20161102616811" lon="11.580742242193224"><ele>499.00000000000006</ele><time>2026-04-17T07:37:08Z</time></trkpt><trkpt lat="48.20157702243934" lon="11.580826355596669"><ele>499.0</ele><time>2026-04-17T07:37:10Z</time></trkpt><trkpt lat="48.20154702340994" lon="11.580911516586076"><ele>499.0</ele><time>2026-04-17T07:37:12Z</time></trkpt><trkpt lat="48.201521038839566" lon="11.5810800579996"><ele>499.0</ele><time>2026-04-17T07:37:14Z</time></trkpt><trkpt lat="48.20150268467942" lon="11.581222117931485"><ele>499.00000000000006</ele><time>2026-04-17T07:37:15Z</time></trkpt><trkpt lat="48.20148261681377" lon="11.581360915619518"><ele>499.0</ele><time>2026-04-17T07:37:16Z</time></trkpt><trkpt lat="48.20146839997138" lon="11.581464677495642"><ele>499.1666666666667</ele><time>2026-04-17T07:37:17Z</time></trkpt><trkpt lat="48.201456831616156" lon="11.581560013229348"><ele>499.33333333333337</ele><time>2026-04-17T07:37:18Z</time></trkpt><trkpt lat="48.20142822094838" lon="11.58175006327017"><ele>499.5</ele><time>2026-04-17T07:37:20Z</time></trkpt><trkpt lat="48.2014152975291" lon="11.581848988704424"><ele>499.66666666666663</ele><time>2026-04-17T07:37:21Z</time></trkpt><trkpt lat="48.20139969149786" lon="11.581951707359677"><ele>499.8333333333333</ele><time>2026-04-17T07:37:22Z</time></trkpt><trkpt lat="48.201384646803525" lon="11.582046485895752"><ele>500.0</ele><time>2026-04-17T07:37:23Z</time></trkpt><trkpt lat="48.20136354292496" lon="11.582200144852344"><ele>499.99999999999994</ele><time>2026-04-17T07:37:25.001Z</time></trkpt><trkpt lat="48.201345514659174" lon="11.582357113980896"><ele>500.0</ele><time>2026-04-17T07:37:27.001Z</time></trkpt><trkpt lat="48.201337132749934" lon="11.582456690028163"><ele>500.0</ele><time>2026-04-17T07:37:28.001Z</time></trkpt><trkpt lat="48.201325357941535" lon="11.582585984279735"><ele>500.0</ele><time>2026-04-17T07:37:29.001Z</time></trkpt><trkpt lat="48.20131311677982" lon="11.58270921171987"><ele>499.99999999999994</ele><time>2026-04-17T07:37:30.001Z</time></trkpt><trkpt lat="48.201300896724135" lon="11.582801871761369"><ele>500.0</ele><time>2026-04-17T07:37:31.001Z</time></trkpt><trkpt lat="48.20128271358248" lon="11.582969485110775"><ele>500.2</ele><time>2026-04-17T07:37:33.001Z</time></trkpt><trkpt lat="48.20125570241431" lon="11.583170587920167"><ele>500.4</ele><time>2026-04-17T07:37:35.001Z</time></trkpt><trkpt lat="48.201238513940055" lon="11.583271412040899"><ele>500.6</ele><time>2026-04-17T07:37:36.001Z</time></trkpt><trkpt lat="48.20122148628225" lon="11.583366149927505"><ele>500.8</ele><time>2026-04-17T07:37:37.001Z</time></trkpt><trkpt lat="48.20119119500881" lon="11.583545224644984"><ele>501.0</ele><time>2026-04-17T07:37:39.001Z</time></trkpt><trkpt lat="48.20116525097646" lon="11.583711310962244"><ele>501.0</ele><time>2026-04-17T07:37:41.001Z</time></trkpt><trkpt lat="48.20113292041545" lon="11.583888931259564"><ele>501.0</ele><time>2026-04-17T07:37:43.001Z</time></trkpt><trkpt lat="48.201099399561826" lon="11.584066259268598"><ele>501.0</ele><time>2026-04-17T07:37:45.001Z</time></trkpt><trkpt lat="48.201066808369056" lon="11.584240633942759"><ele>501.0</ele><time>2026-04-17T07:37:47.001Z</time></trkpt><trkpt lat="48.201037134578634" lon="11.584395921610438"><ele>501.1666666666667</ele><time>2026-04-17T07:37:49.001Z</time></trkpt><trkpt lat="48.20101811685281" lon="11.58453833249903"><ele>501.33333333333337</ele><time>2026-04-17T07:37:51.001Z</time></trkpt><trkpt lat="48.20099662948858" lon="11.5846410361532"><ele>501.5</ele><time>2026-04-17T07:37:53.001Z</time></trkpt><trkpt lat="48.20097800785938" lon="11.584736960171172"><ele>501.6666666666667</ele><time>2026-04-17T07:37:55.001Z</time></trkpt><trkpt lat="48.200959679073605" lon="11.584853202926693"><ele>501.83333333333337</ele><time>2026-04-17T07:37:58Z</time></trkpt><trkpt lat="48.20094007568932" lon="11.584990088045082"><ele>502.0</ele><time>2026-04-17T07:39:09Z</time></trkpt><trkpt lat="48.20092223520333" lon="11.585093629863342"><ele>502.00000000000006</ele><time>2026-04-17T07:39:11.001Z</time></trkpt><trkpt lat="48.20090148076139" lon="11.585188601399521"><ele>502.0</ele><time>2026-04-17T07:39:13.001Z</time></trkpt><trkpt lat="48.200835320638895" lon="11.585189768828494"><ele>502.0</ele><time>2026-04-17T07:39:16.001Z</time></trkpt><trkpt lat="48.20071012324349" lon="11.58516877037531"><ele>502.0</ele><time>2026-04-17T07:39:18.001Z</time></trkpt><trkpt lat="48.20062531799868" lon="11.585158338985627"><ele>502.00000000000006</ele><time>2026-04-17T07:39:19.001Z</time></trkpt><trkpt lat="48.200534826464896" lon="11.585147477969336"><ele>502.0</ele><time>2026-04-17T07:39:20.001Z</time></trkpt><trkpt lat="48.20044290125063" lon="11.585128702390568"><ele>502.0</ele><time>2026-04-17T07:39:21.001Z</time></trkpt><trkpt lat="48.200341167601465" lon="11.58511034680457"><ele>502.00000000000006</ele><time>2026-04-17T07:39:22.001Z</time></trkpt><trkpt lat="48.20023402061089" lon="11.585090170939921"><ele>502.00000000000006</ele><time>2026-04-17T07:39:23.001Z</time></trkpt><trkpt lat="48.20012750500846" lon="11.585065993597157"><ele>502.0</ele><time>2026-04-17T07:39:24.001Z</time></trkpt><trkpt lat="48.2000296892056" lon="11.585050447640956"><ele>502.0</ele><time>2026-04-17T07:39:25.001Z</time></trkpt><trkpt lat="48.19992745736385" lon="11.585032897987972"><ele>501.6</ele><time>2026-04-17T07:39:26.001Z</time></trkpt><trkpt lat="48.1998307591673" lon="11.585014026355825"><ele>501.20000000000005</ele><time>2026-04-17T07:39:27.001Z</time></trkpt><trkpt lat="48.19973236866443" lon="11.584992573315061"><ele>500.8</ele><time>2026-04-17T07:39:28.001Z</time></trkpt><trkpt lat="48.19962660287851" lon="11.584971188209746"><ele>500.4</ele><time>2026-04-17T07:39:29.001Z</time></trkpt><trkpt lat="48.19951427679049" lon="11.584952795642314"><ele>500.0</ele><time>2026-04-17T07:39:30.001Z</time></trkpt><trkpt lat="48.19939780735158" lon="11.584928991807875"><ele>500.0</ele><time>2026-04-17T07:39:31.001Z</time></trkpt><trkpt lat="48.19926793876429" lon="11.584899470423293"><ele>500.0</ele><time>2026-04-17T07:39:32.001Z</time></trkpt><trkpt lat="48.199126926767605" lon="11.584871323664832"><ele>500.0</ele><time>2026-04-17T07:39:33.001Z</time></trkpt><trkpt lat="48.199007803072746" lon="11.58485102729125"><ele>500.0</ele><time>2026-04-17T07:39:34.001Z</time></trkpt><trkpt lat="48.19890126923318" lon="11.58483001412302"><ele>500.0</ele><time>2026-04-17T07:39:35.001Z</time></trkpt><trkpt lat="48.19879801249138" lon="11.584809833865737"><ele>500.0</ele><time>2026-04-17T07:39:36.001Z</time></trkpt><trkpt lat="48.198692770805536" lon="11.584792395500557"><ele>500.0</ele><time>2026-04-17T07:39:37.001Z</time></trkpt><trkpt lat="48.19858650011806" lon="11.584770815953226"><ele>500.0</ele><time>2026-04-17T07:39:38.001Z</time></trkpt><trkpt lat="48.19847556940645" lon="11.584751311856731"><ele>500.0</ele><time>2026-04-17T07:39:39.001Z</time></trkpt><trkpt lat="48.198354795210605" lon="11.584728812592191"><ele>500.0</ele><time>2026-04-17T07:39:40.001Z</time></trkpt><trkpt lat="48.19823724009029" lon="11.584704635000064"><ele>500.0</ele><time>2026-04-17T07:39:41.001Z</time></trkpt><trkpt lat="48.19811171458464" lon="11.584679188810567"><ele>500.0</ele><time>2026-04-17T07:39:42.001Z</time></trkpt><trkpt lat="48.19800570336183" lon="11.584651065920397"><ele>500.0</ele><time>2026-04-17T07:39:43.001Z</time></trkpt><trkpt lat="48.197903443675806" lon="11.584629581433916"><ele>500.5</ele><time>2026-04-17T07:39:44.001Z</time></trkpt><trkpt lat="48.19779921555436" lon="11.584612942341248"><ele>501.0</ele><time>2026-04-17T07:39:45.001Z</time></trkpt><trkpt lat="48.1976786976443" lon="11.584593113335867"><ele>501.5</ele><time>2026-04-17T07:39:46.001Z</time></trkpt><trkpt lat="48.19753887257761" lon="11.584565232699571"><ele>502.0</ele><time>2026-04-17T07:39:47.001Z</time></trkpt><trkpt lat="48.19742822309002" lon="11.584543804216914"><ele>502.0</ele><time>2026-04-17T07:39:48.001Z</time></trkpt><trkpt lat="48.19731771188524" lon="11.584521874496229"><ele>502.0</ele><time>2026-04-17T07:39:49.001Z</time></trkpt><trkpt lat="48.19720238259446" lon="11.58450104776512"><ele>502.0</ele><time>2026-04-17T07:39:50.001Z</time></trkpt><trkpt lat="48.19708646298701" lon="11.584480381181562"><ele>502.0</ele><time>2026-04-17T07:39:51.001Z</time></trkpt><trkpt lat="48.19697673038538" lon="11.584459858761385"><ele>502.0</ele><time>2026-04-17T07:39:52.001Z</time></trkpt><trkpt lat="48.196880453803935" lon="11.5844406078237"><ele>502.00000000000006</ele><time>2026-04-17T07:39:53.001Z</time></trkpt><trkpt lat="48.196783365830406" lon="11.58442047925574"><ele>502.00000000000006</ele><time>2026-04-17T07:39:54.001Z</time></trkpt><trkpt lat="48.19669130250612" lon="11.584403655538415"><ele>502.0</ele><time>2026-04-17T07:39:55.001Z</time></trkpt><trkpt lat="48.19660814682" lon="11.584362030999499"><ele>502.0</ele><time>2026-04-17T07:39:56.001Z</time></trkpt><trkpt lat="48.196527306063786" lon="11.584316944276098"><ele>502.1428571428571</ele><time>2026-04-17T07:39:57.001Z</time></trkpt><trkpt lat="48.19644544034914" lon="11.584311111962993"><ele>502.2857142857143</ele><time>2026-04-17T07:39:58.001Z</time></trkpt><trkpt lat="48.196369747506246" lon="11.584300991244932"><ele>502.42857142857144</ele><time>2026-04-17T07:39:59.001Z</time></trkpt><trkpt lat="48.19630701832025" lon="11.584292606482085"><ele>502.57142857142856</ele><time>2026-04-17T07:40:00.001Z</time></trkpt><trkpt lat="48.196227591356546" lon="11.58427930193758"><ele>502.7142857142858</ele><time>2026-04-17T07:40:02.001Z</time></trkpt><trkpt lat="48.19615546715731" lon="11.58426430487161"><ele>502.8571428571429</ele><time>2026-04-17T07:40:05.001Z</time></trkpt><trkpt lat="48.19608956144648" lon="11.584251271260737"><ele>503.0</ele><time>2026-04-17T07:40:10.001Z</time></trkpt><trkpt lat="48.19599031046343" lon="11.584233776266192"><ele>503.0</ele><time>2026-04-17T07:40:39.001Z</time></trkpt><trkpt lat="48.19589880084671" lon="11.584206852074319"><ele>502.99999999999994</ele><time>2026-04-17T07:40:42.001Z</time></trkpt><trkpt lat="48.195858820008695" lon="11.584088384988915"><ele>502.99999999999994</ele><time>2026-04-17T07:40:44.001Z</time></trkpt><trkpt lat="48.19585956736136" lon="11.58394892593672"><ele>503.0</ele><time>2026-04-17T07:40:46.001Z</time></trkpt><trkpt lat="48.19585687362453" lon="11.58382211412078"><ele>503.0</ele><time>2026-04-17T07:40:48.001Z</time></trkpt><trkpt lat="48.19585086099667" lon="11.583658196390337"><ele>503.16666666666663</ele><time>2026-04-17T07:40:50.001Z</time></trkpt><trkpt lat="48.195853516336754" lon="11.583560113285301"><ele>503.3333333333333</ele><time>2026-04-17T07:40:51.001Z</time></trkpt><trkpt lat="48.19585734009083" lon="11.583381997043137"><ele>503.5</ele><time>2026-04-17T07:40:53.001Z</time></trkpt><trkpt lat="48.19586106603941" lon="11.583284855197194"><ele>503.66666666666663</ele><time>2026-04-17T07:40:54.001Z</time></trkpt><trkpt lat="48.19586499820531" lon="11.583185125696838"><ele>503.8333333333333</ele><time>2026-04-17T07:40:55.001Z</time></trkpt><trkpt lat="48.19587232307326" lon="11.58300560537018"><ele>504.0</ele><time>2026-04-17T07:40:57.001Z</time></trkpt><trkpt lat="48.19588442771385" lon="11.58282785244349"><ele>504.0</ele><time>2026-04-17T07:40:59.001Z</time></trkpt><trkpt lat="48.19589002739719" lon="11.582730877413294"><ele>504.0</ele><time>2026-04-17T07:41:00.001Z</time></trkpt><trkpt lat="48.19590067756125" lon="11.582631633568129"><ele>504.0</ele><time>2026-04-17T07:41:01.001Z</time></trkpt><trkpt lat="48.195907926433904" lon="11.582525554745434"><ele>504.0</ele><time>2026-04-17T07:41:02.001Z</time></trkpt><trkpt lat="48.1959100696986" lon="11.582414076874318"><ele>504.0</ele><time>2026-04-17T07:41:03.001Z</time></trkpt><trkpt lat="48.19591571780584" lon="11.582310424588856"><ele>504.0</ele><time>2026-04-17T07:41:04.001Z</time></trkpt><trkpt lat="48.19592819783356" lon="11.582152778623"><ele>503.79999999999995</ele><time>2026-04-17T07:41:06.001Z</time></trkpt><trkpt lat="48.195943011722804" lon="11.581998941708285"><ele>503.59999999999997</ele><time>2026-04-17T07:41:08.001Z</time></trkpt><trkpt lat="48.19595376903079" lon="11.581853311205906"><ele>503.4</ele><time>2026-04-17T07:41:10.001Z</time></trkpt><trkpt lat="48.19596582450721" lon="11.581710726901674"><ele>503.2</ele><time>2026-04-17T07:41:12.001Z</time></trkpt><trkpt lat="48.19597927988228" lon="11.581566614455955"><ele>503.0</ele><time>2026-04-17T07:41:14.001Z</time></trkpt><trkpt lat="48.19606704011688" lon="11.581494103294771"><ele>502.99999999999994</ele><time>2026-04-17T07:41:17.001Z</time></trkpt><trkpt lat="48.19615078835529" lon="11.581475012990724"><ele>503.0</ele><time>2026-04-17T07:41:19.001Z</time></trkpt><trkpt lat="48.19626234206273" lon="11.581481145273925"><ele>503.0</ele><time>2026-04-17T07:41:21.001Z</time></trkpt><trkpt lat="48.196348306760385" lon="11.581444955736707"><ele>503.0</ele><time>2026-04-17T07:41:23.001Z</time></trkpt><trkpt lat="48.196428112510524" lon="11.581437599237946"><ele>502.99999999999994</ele><time>2026-04-17T07:41:25.001Z</time></trkpt><trkpt lat="48.19651152886533" lon="11.58142667270758"><ele>503.0</ele><time>2026-04-17T07:41:27.001Z</time></trkpt><trkpt lat="48.19659179518468" lon="11.581421273041343"><ele>503.2</ele><time>2026-04-17T07:41:29.001Z</time></trkpt><trkpt lat="48.19667414583056" lon="11.581427000723739"><ele>503.4</ele><time>2026-04-17T07:41:31.001Z</time></trkpt><trkpt lat="48.19678866858315" lon="11.58141506999618"><ele>503.59999999999997</ele><time>2026-04-17T07:41:33.001Z</time></trkpt><trkpt lat="48.19686463650178" lon="11.581403142989469"><ele>503.79999999999995</ele><time>2026-04-17T07:41:34.001Z</time></trkpt><trkpt lat="48.196944007830055" lon="11.581388845621428"><ele>504.0</ele><time>2026-04-17T07:41:35.001Z</time></trkpt><trkpt lat="48.197042192645284" lon="11.581368019292283"><ele>504.0</ele><time>2026-04-17T07:41:37.001Z</time></trkpt><trkpt lat="48.19710832624691" lon="11.581362334988318"><ele>504.0</ele><time>2026-04-17T07:41:39.001Z</time></trkpt><trkpt lat="48.19720062219846" lon="11.581355461545245"><ele>504.0</ele><time>2026-04-17T07:41:56.001Z</time></trkpt><trkpt lat="48.197263406167274" lon="11.581345055761147"><ele>504.0</ele><time>2026-04-17T07:41:57.001Z</time></trkpt><trkpt lat="48.19735999737275" lon="11.581331444707546"><ele>504.0</ele><time>2026-04-17T07:41:58.001Z</time></trkpt><trkpt lat="48.19746630352909" lon="11.581315141204708"><ele>504.0</ele><time>2026-04-17T07:41:59.001Z</time></trkpt><trkpt lat="48.19755580442298" lon="11.581297531008685"><ele>503.6666666666667</ele><time>2026-04-17T07:42:00.001Z</time></trkpt><trkpt lat="48.19763777233814" lon="11.581284386227399"><ele>503.33333333333337</ele><time>2026-04-17T07:42:01.001Z</time></trkpt><trkpt lat="48.19771674635268" lon="11.581274552872951"><ele>503.0</ele><time>2026-04-17T07:42:02.001Z</time></trkpt><trkpt lat="48.19779306592812" lon="11.581265214012351"><ele>502.6666666666667</ele><time>2026-04-17T07:42:03.001Z</time></trkpt><trkpt lat="48.19786244766893" lon="11.581259183301492"><ele>502.33333333333337</ele><time>2026-04-17T07:42:04.001Z</time></trkpt><trkpt lat="48.197932161730385" lon="11.581254024756714"><ele>502.0</ele><time>2026-04-17T07:42:05.001Z</time></trkpt><trkpt lat="48.19800450076471" lon="11.581253976116336"><ele>502.00000000000006</ele><time>2026-04-17T07:42:06.001Z</time></trkpt><trkpt lat="48.19807418785465" lon="11.58124647899999"><ele>502.0</ele><time>2026-04-17T07:42:07.001Z</time></trkpt><trkpt lat="48.198179189665254" lon="11.581224186035168"><ele>502.0</ele><time>2026-04-17T07:42:09.001Z</time></trkpt><trkpt lat="48.19826596221685" lon="11.58121521932776"><ele>502.0</ele><time>2026-04-17T07:42:11.001Z</time></trkpt><trkpt lat="48.19836118683544" lon="11.58120116378498"><ele>502.00000000000006</ele><time>2026-04-17T07:42:13.001Z</time></trkpt><trkpt lat="48.19844467074544" lon="11.581188778226238"><ele>502.0</ele><time>2026-04-17T07:42:15.001Z</time></trkpt><trkpt lat="48.19854014400857" lon="11.581178059124747"><ele>502.0</ele><time>2026-04-17T07:42:17.001Z</time></trkpt><trkpt lat="48.19863214578314" lon="11.581169799790098"><ele>502.00000000000006</ele><time>2026-04-17T07:42:19.001Z</time></trkpt><trkpt lat="48.19872298324331" lon="11.581178555177173"><ele>502.00000000000006</ele><time>2026-04-17T07:42:21.001Z</time></trkpt><trkpt lat="48.198839094061775" lon="11.581171384388147"><ele>502.0</ele><time>2026-04-17T07:42:23.001Z</time></trkpt><trkpt lat="48.19891956243867" lon="11.581161940408595"><ele>502.0</ele><time>2026-04-17T07:42:24.001Z</time></trkpt><trkpt lat="48.19898902931822" lon="11.581147893846763"><ele>501.40000000000003</ele><time>2026-04-17T07:42:25.001Z</time></trkpt><trkpt lat="48.19910117122359" lon="11.581130713914568"><ele>500.80000000000007</ele><time>2026-04-17T07:42:27.001Z</time></trkpt><trkpt lat="48.19920716289614" lon="11.581115126787639"><ele>500.2</ele><time>2026-04-17T07:42:29.001Z</time></trkpt><trkpt lat="48.199317433858205" lon="11.581100286090786"><ele>499.6</ele><time>2026-04-17T07:42:31.001Z</time></trkpt><trkpt lat="48.19938059505853" lon="11.581090087987816"><ele>499.0</ele><time>2026-04-17T07:42:32.001Z</time></trkpt><trkpt lat="48.199499841871216" lon="11.581072852355376"><ele>499.0</ele><time>2026-04-17T07:42:34.001Z</time></trkpt><trkpt lat="48.19960136328027" lon="11.581064450613917"><ele>499.0</ele><time>2026-04-17T07:42:36.001Z</time></trkpt><trkpt lat="48.1997087573537" lon="11.581051990543914"><ele>499.0</ele><time>2026-04-17T07:42:38.001Z</time></trkpt><trkpt lat="48.19981771642564" lon="11.58104213143253"><ele>499.0</ele><time>2026-04-17T07:42:40.001Z</time></trkpt><trkpt lat="48.19994535424858" lon="11.58103690583223"><ele>499.0</ele><time>2026-04-17T07:42:42.001Z</time></trkpt><trkpt lat="48.200013799128186" lon="11.581023736619795"><ele>499.1666666666667</ele><time>2026-04-17T07:42:43.001Z</time></trkpt><trkpt lat="48.20009036521312" lon="11.581014145074988"><ele>499.33333333333337</ele><time>2026-04-17T07:42:44.001Z</time></trkpt><trkpt lat="48.20017375462891" lon="11.581002095879214"><ele>499.5</ele><time>2026-04-17T07:42:45.001Z</time></trkpt><trkpt lat="48.200247987605145" lon="11.580989376841067"><ele>499.66666666666663</ele><time>2026-04-17T07:42:46.001Z</time></trkpt><trkpt lat="48.20031968719372" lon="11.580976140390728"><ele>499.8333333333333</ele><time>2026-04-17T07:42:47.001Z</time></trkpt><trkpt lat="48.20038891837517" lon="11.580975653371942"><ele>500.0</ele><time>2026-04-17T07:42:48.001Z</time></trkpt><trkpt lat="48.20049834474772" lon="11.580958709372466"><ele>500.0</ele><time>2026-04-17T07:42:50.001Z</time></trkpt><trkpt lat="48.20059421971007" lon="11.580946784500204"><ele>500.0</ele><time>2026-04-17T07:42:52.001Z</time></trkpt><trkpt lat="48.20068462576106" lon="11.580937117989071"><ele>500.0</ele><time>2026-04-17T07:42:54.001Z</time></trkpt><trkpt lat="48.2007701895714" lon="11.580893703934422"><ele>500.0</ele><time>2026-04-17T07:42:56.001Z</time></trkpt><trkpt lat="48.20081178937025" lon="11.580778253142148"><ele>500.0</ele><time>2026-04-17T07:42:58.001Z</time></trkpt><trkpt lat="48.20082509506952" lon="11.580628480448445"><ele>499.99999999999994</ele><time>2026-04-17T07:43:00.001Z</time></trkpt><trkpt lat="48.200838163064844" lon="11.58046157288573"><ele>500.0</ele><time>2026-04-17T07:43:02.001Z</time></trkpt><trkpt lat="48.20084789780647" lon="11.580359540079957"><ele>500.0</ele><time>2026-04-17T07:43:03.001Z</time></trkpt><trkpt lat="48.20085520435364" lon="11.58023691933989"><ele>500.0</ele><time>2026-04-17T07:43:04.001Z</time></trkpt><trkpt lat="48.20086621578098" lon="11.580121062801663"><ele>499.99999999999994</ele><time>2026-04-17T07:43:05.001Z</time></trkpt><trkpt lat="48.200871962283244" lon="11.580026729507027"><ele>500.0</ele><time>2026-04-17T07:43:06.001Z</time></trkpt><trkpt lat="48.20087941119986" lon="11.579932411389104"><ele>500.0</ele><time>2026-04-17T07:43:07.001Z</time></trkpt><trkpt lat="48.2008994360374" lon="11.57975498123927"><ele>500.0</ele><time>2026-04-17T07:43:09.001Z</time></trkpt><trkpt lat="48.200917296832976" lon="11.579594790855314"><ele>500.0</ele><time>2026-04-17T07:43:11.001Z</time></trkpt><trkpt lat="48.20093129601451" lon="11.579440255793516"><ele>500.0</ele><time>2026-04-17T07:43:13.001Z</time></trkpt><trkpt lat="48.20094294865406" lon="11.579284912909326"><ele>500.0</ele><time>2026-04-17T07:43:15.001Z</time></trkpt><trkpt lat="48.20094889501331" lon="11.579127125007387"><ele>500.0</ele><time>2026-04-17T07:43:17.001Z</time></trkpt><trkpt lat="48.20099805356776" lon="11.57902592161393"><ele>500.0</ele><time>2026-04-17T07:43:19.001Z</time></trkpt><trkpt lat="48.20109421385937" lon="11.579038864012961"><ele>500.0</ele><time>2026-04-17T07:43:21.001Z</time></trkpt><trkpt lat="48.20116069003744" lon="11.578983995121735"><ele>500.0</ele><time>2026-04-17T07:43:23.001Z</time></trkpt><trkpt lat="48.20118888267311" lon="11.578721349554971"><ele>500.0</ele><time>2026-04-17T07:43:27.001Z</time></trkpt><trkpt lat="48.20118974370648" lon="11.578535748961755"><ele>500.0</ele><time>2026-04-17T07:43:29.001Z</time></trkpt><trkpt lat="48.20119466443096" lon="11.578367630350826"><ele>500.0</ele><time>2026-04-17T07:43:31.001Z</time></trkpt><trkpt lat="48.201199294691804" lon="11.57821314282711"><ele>500.0</ele><time>2026-04-17T07:43:33.001Z</time></trkpt><trkpt lat="48.201202520107195" lon="11.578079347808067"><ele>500.0</ele><time>2026-04-17T07:43:35.001Z</time></trkpt><trkpt lat="48.201205303326205" lon="11.577958592935719"><ele>500.0</ele><time>2026-04-17T07:43:37.001Z</time></trkpt><trkpt lat="48.201208236472546" lon="11.577827647415695"><ele>499.99999999999994</ele><time>2026-04-17T07:43:40.001Z</time></trkpt><trkpt lat="48.20121108412908" lon="11.577700518447024"><ele>500.0</ele><time>2026-04-17T07:43:43.001Z</time></trkpt><trkpt lat="48.20121374962547" lon="11.577581521790792"><ele>500.0</ele><time>2026-04-17T07:43:45.001Z</time></trkpt><trkpt lat="48.201217050711534" lon="11.577434150180398"><ele>500.0</ele><time>2026-04-17T07:43:47.001Z</time></trkpt><trkpt lat="48.20122059379622" lon="11.577301588059377"><ele>499.99999999999994</ele><time>2026-04-17T07:43:49.001Z</time></trkpt><trkpt lat="48.201269479386525" lon="11.577207612860022"><ele>500.0</ele><time>2026-04-17T07:43:51.001Z</time></trkpt><trkpt lat="48.201356324800926" lon="11.577170140864787"><ele>500.0</ele><time>2026-04-17T07:43:53.001Z</time></trkpt><trkpt lat="48.20144969410781" lon="11.57717828163808"><ele>500.0</ele><time>2026-04-17T07:43:55.001Z</time></trkpt><trkpt lat="48.20154753920376" lon="11.577184012304112"><ele>500.0</ele><time>2026-04-17T07:43:57.001Z</time></trkpt><trkpt lat="48.20164732601151" lon="11.577181193272214"><ele>500.0</ele><time>2026-04-17T07:43:59.001Z</time></trkpt><trkpt lat="48.20174118881426" lon="11.577184627592164"><ele>500.0</ele><time>2026-04-17T07:44:01.001Z</time></trkpt><trkpt lat="48.20183465654102" lon="11.577196526039812"><ele>500.2</ele><time>2026-04-17T07:44:03.001Z</time></trkpt><trkpt lat="48.201923873134" lon="11.57719635701103"><ele>500.4</ele><time>2026-04-17T07:44:05.001Z</time></trkpt><trkpt lat="48.20201680249597" lon="11.577198540217191"><ele>500.6</ele><time>2026-04-17T07:44:07Z</time></trkpt><trkpt lat="48.20210884948835" lon="11.577199022811161"><ele>500.8</ele><time>2026-04-17T07:44:09Z</time></trkpt><trkpt lat="48.202220386412385" lon="11.577204133331294"><ele>501.0</ele><time>2026-04-17T07:44:11Z</time></trkpt><trkpt lat="48.202284212192545" lon="11.577206983972962"><ele>501.5</ele><time>2026-04-17T07:44:12Z</time></trkpt><trkpt lat="48.20234729741402" lon="11.577205354187663"><ele>502.0</ele><time>2026-04-17T07:44:13Z</time></trkpt><trkpt lat="48.2024495104274" lon="11.577197780407461"><ele>502.5</ele><time>2026-04-17T07:44:15Z</time></trkpt><trkpt lat="48.20253452663422" lon="11.577191934349658"><ele>503.0</ele><time>2026-04-17T07:44:17Z</time></trkpt><trkpt lat="48.202622010083566" lon="11.577175159741879"><ele>503.5</ele><time>2026-04-17T07:44:19Z</time></trkpt><trkpt lat="48.20271489085638" lon="11.577170907072057"><ele>504.0</ele><time>2026-04-17T07:44:21Z</time></trkpt><trkpt lat="48.20281166326656" lon="11.57716451133713"><ele>504.0</ele><time>2026-04-17T07:44:23Z</time></trkpt><trkpt lat="48.202917825482196" lon="11.57715435464052"><ele>504.0</ele><time>2026-04-17T07:44:25Z</time></trkpt><trkpt lat="48.203039802584314" lon="11.577154859483766"><ele>504.0</ele><time>2026-04-17T07:44:27Z</time></trkpt><trkpt lat="48.20310772758529" lon="11.577148551523631"><ele>504.0</ele><time>2026-04-17T07:44:28Z</time></trkpt><trkpt lat="48.20317659590907" lon="11.577142699443176"><ele>504.0</ele><time>2026-04-17T07:44:29Z</time></trkpt><trkpt lat="48.203246246325605" lon="11.57714008377051"><ele>504.0</ele><time>2026-04-17T07:44:30Z</time></trkpt><trkpt lat="48.20336185612066" lon="11.577140519027703"><ele>504.0</ele><time>2026-04-17T07:44:32Z</time></trkpt><trkpt lat="48.203455827690945" lon="11.577139910381534"><ele>504.0</ele><time>2026-04-17T07:44:34Z</time></trkpt><trkpt lat="48.20353519158564" lon="11.577144348555912"><ele>504.0</ele><time>2026-04-17T07:44:36Z</time></trkpt><trkpt lat="48.20360209281143" lon="11.577147343558211"><ele>504.0</ele><time>2026-04-17T07:44:38Z</time></trkpt><trkpt lat="48.2036861710096" lon="11.577151839734281"><ele>504.0</ele><time>2026-04-17T07:44:41Z</time></trkpt><trkpt lat="48.20371851010612" lon="11.57693956787571"><ele>503.4</ele><time>2026-04-17T07:44:44Z</time></trkpt><trkpt lat="48.20371241709522" lon="11.57677948339223"><ele>502.79999999999995</ele><time>2026-04-17T07:44:46Z</time></trkpt><trkpt lat="48.203704514659314" lon="11.576629400230264"><ele>502.20000000000005</ele><time>2026-04-17T07:44:48Z</time></trkpt><trkpt lat="48.20369447158876" lon="11.576487317255689"><ele>501.6</ele><time>2026-04-17T07:44:50Z</time></trkpt><trkpt lat="48.203680172717455" lon="11.576299728707456"><ele>501.0</ele><time>2026-04-17T07:44:52Z</time></trkpt><trkpt lat="48.20366939499738" lon="11.576134712210077"><ele>500.8333333333333</ele><time>2026-04-17T07:44:54Z</time></trkpt><trkpt lat="48.20366325983703" lon="11.57600754291065"><ele>500.66666666666663</ele><time>2026-04-17T07:44:56Z</time></trkpt><trkpt lat="48.20365891500755" lon="11.575891823599125"><ele>500.5</ele><time>2026-04-17T07:44:58Z</time></trkpt><trkpt lat="48.20365645046988" lon="11.575795174693537"><ele>500.3333333333333</ele><time>2026-04-17T07:45:00Z</time></trkpt><trkpt lat="48.20365428384288" lon="11.575674866753848"><ele>500.16666666666663</ele><time>2026-04-17T07:45:04Z</time></trkpt><trkpt lat="48.20365255841097" lon="11.575579059445614"><ele>500.0</ele><time>2026-04-17T07:45:06Z</time></trkpt><trkpt lat="48.203654914730166" lon="11.575454039866504"><ele>499.99999999999994</ele><time>2026-04-17T07:45:08Z</time></trkpt><trkpt lat="48.203640409370855" lon="11.575359034982878"><ele>500.0</ele><time>2026-04-17T07:45:09Z</time></trkpt><trkpt lat="48.20364102841749" lon="11.57524428825002"><ele>500.0</ele><time>2026-04-17T07:45:10Z</time></trkpt><trkpt lat="48.20365726295377" lon="11.575121498150951"><ele>500.0</ele><time>2026-04-17T07:45:11Z</time></trkpt><trkpt lat="48.20364529746513" lon="11.57501854418068"><ele>499.99999999999994</ele><time>2026-04-17T07:45:12Z</time></trkpt><trkpt lat="48.20364655588688" lon="11.574850828254341"><ele>500.0</ele><time>2026-04-17T07:45:14Z</time></trkpt><trkpt lat="48.20364028498835" lon="11.574661079566859"><ele>499.6</ele><time>2026-04-17T07:45:16Z</time></trkpt><trkpt lat="48.20363920005369" lon="11.574512016205015"><ele>499.2</ele><time>2026-04-17T07:45:18Z</time></trkpt><trkpt lat="48.20363177626313" lon="11.57438157196349"><ele>498.79999999999995</ele><time>2026-04-17T07:45:21Z</time></trkpt><trkpt lat="48.20363029557881" lon="11.574242624540497"><ele>498.4</ele><time>2026-04-17T07:45:23Z</time></trkpt><trkpt lat="48.20362141107637" lon="11.574094204483668"><ele>498.0</ele><time>2026-04-17T07:45:25Z</time></trkpt><trkpt lat="48.20361286606509" lon="11.573934014292552"><ele>498.0</ele><time>2026-04-17T07:45:27Z</time></trkpt><trkpt lat="48.20360381738069" lon="11.573766714523787"><ele>497.99999999999994</ele><time>2026-04-17T07:45:29Z</time></trkpt><trkpt lat="48.20359175683957" lon="11.573604603864299"><ele>497.99999999999994</ele><time>2026-04-17T07:45:31Z</time></trkpt><trkpt lat="48.20357506370326" lon="11.573445763093815"><ele>498.0</ele><time>2026-04-17T07:45:33Z</time></trkpt><trkpt lat="48.2035626655328" lon="11.573318012056877"><ele>498.0</ele><time>2026-04-17T07:45:35Z</time></trkpt><trkpt lat="48.20355219528873" lon="11.57319786668696"><ele>498.59999999999997</ele><time>2026-04-17T07:45:38Z</time></trkpt><trkpt lat="48.20353734766061" lon="11.573105363061575"><ele>499.19999999999993</ele><time>2026-04-17T07:45:43Z</time></trkpt><trkpt lat="48.203659572652214" lon="11.573043750545175"><ele>499.8</ele><time>2026-04-17T07:45:48Z</time></trkpt><trkpt lat="48.20378069492388" lon="11.572997187066473"><ele>500.4</ele><time>2026-04-17T07:45:50Z</time></trkpt><trkpt lat="48.20384501364188" lon="11.573008642341529"><ele>501.0</ele><time>2026-04-17T07:45:51Z</time></trkpt><trkpt lat="48.20393055745033" lon="11.572994605332374"><ele>501.0</ele><time>2026-04-17T07:45:53Z</time></trkpt><trkpt lat="48.20399379665595" lon="11.572985444669756"><ele>501.0</ele><time>2026-04-17T07:45:55Z</time></trkpt><trkpt lat="48.20407653054834" lon="11.572975498791429"><ele>501.0</ele><time>2026-04-17T07:45:58Z</time></trkpt><trkpt lat="48.20417707146474" lon="11.572964410171224"><ele>501.0</ele><time>2026-04-17T07:46:01Z</time></trkpt><trkpt lat="48.20425335084132" lon="11.572956964082046"><ele>501.0</ele><time>2026-04-17T07:46:03Z</time></trkpt><trkpt lat="48.20432181312911" lon="11.572950039932813"><ele>501.0</ele><time>2026-04-17T07:46:06Z</time></trkpt><trkpt lat="48.20435293905834" lon="11.573038477435556"><ele>500.8</ele><time>2026-04-17T07:46:08Z</time></trkpt><trkpt lat="48.20436427303789" lon="11.573199967839217"><ele>500.6</ele><time>2026-04-17T07:46:10Z</time></trkpt><trkpt lat="48.20437057235076" lon="11.573354523455064"><ele>500.4</ele><time>2026-04-17T07:46:12Z</time></trkpt><trkpt lat="48.204377720991936" lon="11.573460310796595"><ele>500.2</ele><time>2026-04-17T07:46:14Z</time></trkpt><trkpt lat="48.20438000732067" lon="11.573563543383885"><ele>500.0</ele><time>2026-04-17T07:46:16Z</time></trkpt><trkpt lat="48.204474152724764" lon="11.573607594332314"><ele>499.99999999999994</ele><time>2026-04-17T07:46:19Z</time></trkpt><trkpt lat="48.20455158273099" lon="11.573607756380534"><ele>500.0</ele><time>2026-04-17T07:46:20.999Z</time></trkpt><trkpt lat="48.20466327928606" lon="11.573606892818333"><ele>500.0</ele><time>2026-04-17T07:46:22.999Z</time></trkpt><trkpt lat="48.20473599914565" lon="11.573608978976536"><ele>500.0</ele><time>2026-04-17T07:46:23.999Z</time></trkpt><trkpt lat="48.20481086716854" lon="11.57360582704102"><ele>499.99999999999994</ele><time>2026-04-17T07:46:24.999Z</time></trkpt><trkpt lat="48.20491028340979" lon="11.573600373436173"><ele>500.0</ele><time>2026-04-17T07:46:26.999Z</time></trkpt><trkpt lat="48.2049848323162" lon="11.573600647122234"><ele>499.66666666666663</ele><time>2026-04-17T07:46:28.999Z</time></trkpt><trkpt lat="48.20507016683796" lon="11.573599616249856"><ele>499.3333333333333</ele><time>2026-04-17T07:46:30.999Z</time></trkpt><trkpt lat="48.205160067015974" lon="11.573598118193823"><ele>499.0</ele><time>2026-04-17T07:46:32.999Z</time></trkpt><trkpt lat="48.20523607140961" lon="11.573595469268987"><ele>498.66666666666663</ele><time>2026-04-17T07:46:36.999Z</time></trkpt><trkpt lat="48.20532352115513" lon="11.573604723396187"><ele>498.3333333333333</ele><time>2026-04-17T07:46:44Z</time></trkpt><trkpt lat="48.20533567075803" lon="11.573508098874997"><ele>498.0</ele><time>2026-04-17T07:46:45Z</time></trkpt><trkpt lat="48.205320002390096" lon="11.573349210470612"><ele>498.0</ele><time>2026-04-17T07:46:47Z</time></trkpt><trkpt lat="48.20532359714178" lon="11.573245535235474"><ele>497.99999999999994</ele><time>2026-04-17T07:46:49Z</time></trkpt><trkpt lat="48.205324790515746" lon="11.573142524714322"><ele>498.0</ele><time>2026-04-17T07:46:51Z</time></trkpt><trkpt lat="48.20530519038514" lon="11.573038326447197"><ele>498.0</ele><time>2026-04-17T07:46:53Z</time></trkpt><trkpt lat="48.205276685384725" lon="11.572945177055873"><ele>497.99999999999994</ele><time>2026-04-17T07:46:55Z</time></trkpt><trkpt lat="48.20520021823108" lon="11.57291443218607"><ele>498.0</ele><time>2026-04-17T07:46:58Z</time></trkpt><trkpt lat="48.20513073316621" lon="11.572893948073952"><ele>498.0</ele><time>2026-04-17T07:47:02Z</time></trkpt><trkpt lat="48.205064549654516" lon="11.572874987248378"><ele>498.2</ele><time>2026-04-17T07:47:15Z</time></trkpt><trkpt lat="48.20504391067834" lon="11.572666881313477"><ele>498.4</ele><time>2026-04-17T07:47:18Z</time></trkpt><trkpt lat="48.20504154479941" lon="11.572559871372471"><ele>498.59999999999997</ele><time>2026-04-17T07:47:19Z</time></trkpt><trkpt lat="48.20503722725411" lon="11.572438315137209"><ele>498.79999999999995</ele><time>2026-04-17T07:47:20Z</time></trkpt><trkpt lat="48.20503383316746" lon="11.57233623888303"><ele>499.0</ele><time>2026-04-17T07:47:21Z</time></trkpt><trkpt lat="48.20503091135442" lon="11.572176657827947"><ele>499.25</ele><time>2026-04-17T07:47:23Z</time></trkpt><trkpt lat="48.20502778455545" lon="11.572008058758659"><ele>499.5</ele><time>2026-04-17T07:47:25Z</time></trkpt><trkpt lat="48.20502865675461" lon="11.571830560514522"><ele>499.75</ele><time>2026-04-17T07:47:27Z</time></trkpt><trkpt lat="48.20502672580931" lon="11.571660848287998"><ele>500.0</ele><time>2026-04-17T07:47:29Z</time></trkpt><trkpt lat="48.205017676453586" lon="11.571485815076684"><ele>499.99999999999994</ele><time>2026-04-17T07:47:31Z</time></trkpt><trkpt lat="48.2050086999287" lon="11.571297438826084"><ele>500.0</ele><time>2026-04-17T07:47:33Z</time></trkpt><trkpt lat="48.20500344477484" lon="11.57119083956898"><ele>500.0</ele><time>2026-04-17T07:47:34Z</time></trkpt><trkpt lat="48.204999633632475" lon="11.571082130362528"><ele>500.0</ele><time>2026-04-17T07:47:35Z</time></trkpt><trkpt lat="48.204997740441904" lon="11.570982163450072"><ele>499.99999999999994</ele><time>2026-04-17T07:47:36Z</time></trkpt><trkpt lat="48.2049934526572" lon="11.570832575628508"><ele>500.0</ele><time>2026-04-17T07:47:38Z</time></trkpt><trkpt lat="48.204998886863166" lon="11.570684271601346"><ele>499.8333333333333</ele><time>2026-04-17T07:47:40Z</time></trkpt><trkpt lat="48.20499882269717" lon="11.570587366852415"><ele>499.66666666666663</ele><time>2026-04-17T07:47:41Z</time></trkpt><trkpt lat="48.20499647045271" lon="11.570476154427027"><ele>499.5</ele><time>2026-04-17T07:47:42Z</time></trkpt><trkpt lat="48.20500360586342" lon="11.57037409254892"><ele>499.33333333333337</ele><time>2026-04-17T07:47:43Z</time></trkpt><trkpt lat="48.205000674398924" lon="11.57018514353482"><ele>499.1666666666667</ele><time>2026-04-17T07:47:45Z</time></trkpt><trkpt lat="48.20499503429055" lon="11.570087723684626"><ele>499.0</ele><time>2026-04-17T07:47:46Z</time></trkpt><trkpt lat="48.2049887641664" lon="11.56998668378206"><ele>498.8571428571429</ele><time>2026-04-17T07:47:47Z</time></trkpt><trkpt lat="48.20498443793629" lon="11.569884605588944"><ele>498.7142857142857</ele><time>2026-04-17T07:47:48Z</time></trkpt><trkpt lat="48.20498291890765" lon="11.569782613193201"><ele>498.57142857142856</ele><time>2026-04-17T07:47:49Z</time></trkpt><trkpt lat="48.20497946553375" lon="11.569677671390545"><ele>498.42857142857144</ele><time>2026-04-17T07:47:50Z</time></trkpt><trkpt lat="48.204974145308995" lon="11.569569707217056"><ele>498.2857142857142</ele><time>2026-04-17T07:47:51Z</time></trkpt><trkpt lat="48.2049585750546" lon="11.569458608126386"><ele>498.1428571428571</ele><time>2026-04-17T07:47:52Z</time></trkpt><trkpt lat="48.20494831793416" lon="11.569359357398598"><ele>498.0</ele><time>2026-04-17T07:47:53Z</time></trkpt><trkpt lat="48.20493879954324" lon="11.569195030524101"><ele>498.0</ele><time>2026-04-17T07:47:55Z</time></trkpt><trkpt lat="48.204934691202936" lon="11.569035155317506"><ele>498.0</ele><time>2026-04-17T07:47:57Z</time></trkpt><trkpt lat="48.2049304704656" lon="11.568935019655145"><ele>498.0</ele><time>2026-04-17T07:47:58Z</time></trkpt><trkpt lat="48.204926979743824" lon="11.568840423369513"><ele>498.0</ele><time>2026-04-17T07:47:59Z</time></trkpt><trkpt lat="48.20491617559368" lon="11.568686048701533"><ele>498.0</ele><time>2026-04-17T07:48:01Z</time></trkpt><trkpt lat="48.20490808468484" lon="11.568557615448087"><ele>498.0</ele><time>2026-04-17T07:48:03Z</time></trkpt><trkpt lat="48.20490370977502" lon="11.568454960183306"><ele>498.1666666666667</ele><time>2026-04-17T07:48:05Z</time></trkpt><trkpt lat="48.20489608588473" lon="11.568339329484067"><ele>498.33333333333337</ele><time>2026-04-17T07:48:30.999Z</time></trkpt><trkpt lat="48.20492012037036" lon="11.568242127054122"><ele>498.5</ele><time>2026-04-17T07:48:32.999Z</time></trkpt><trkpt lat="48.20499946671557" lon="11.568193613933438"><ele>498.6666666666667</ele><time>2026-04-17T07:48:34.999Z</time></trkpt><trkpt lat="48.20514080066513" lon="11.568179285433182"><ele>498.83333333333337</ele><time>2026-04-17T07:48:36.999Z</time></trkpt><trkpt lat="48.205212655978286" lon="11.568165516149438"><ele>499.0</ele><time>2026-04-17T07:48:37.999Z</time></trkpt><trkpt lat="48.20528407889145" lon="11.568150751209961"><ele>499.00000000000006</ele><time>2026-04-17T07:48:38.999Z</time></trkpt><trkpt lat="48.20535337899926" lon="11.568117293483343"><ele>499.0</ele><time>2026-04-17T07:48:39.999Z</time></trkpt><trkpt lat="48.20542125957276" lon="11.56810246144461"><ele>499.00000000000006</ele><time>2026-04-17T07:48:40.999Z</time></trkpt><trkpt lat="48.205488077958044" lon="11.56808923719909"><ele>499.00000000000006</ele><time>2026-04-17T07:48:41.999Z</time></trkpt><trkpt lat="48.2055537619504" lon="11.568070059533289"><ele>499.0</ele><time>2026-04-17T07:48:42.999Z</time></trkpt><trkpt lat="48.20562108814094" lon="11.568055889145763"><ele>499.00000000000006</ele><time>2026-04-17T07:48:43.999Z</time></trkpt><trkpt lat="48.20568920866539" lon="11.568035413220873"><ele>499.00000000000006</ele><time>2026-04-17T07:48:44.999Z</time></trkpt><trkpt lat="48.205754755333174" lon="11.568020037364647"><ele>499.2</ele><time>2026-04-17T07:48:45.999Z</time></trkpt><trkpt lat="48.20587515506799" lon="11.567987666605708"><ele>499.4</ele><time>2026-04-17T07:48:47.999Z</time></trkpt><trkpt lat="48.20597282943076" lon="11.567955395377034"><ele>499.6</ele><time>2026-04-17T07:48:50Z</time></trkpt><trkpt lat="48.206064135237604" lon="11.567929338095759"><ele>499.8</ele><time>2026-04-17T07:48:52Z</time></trkpt><trkpt lat="48.206175192594245" lon="11.56790020045744"><ele>500.0</ele><time>2026-04-17T07:48:54Z</time></trkpt><trkpt lat="48.20624000746024" lon="11.567886129407757"><ele>500.0</ele><time>2026-04-17T07:48:55Z</time></trkpt><trkpt lat="48.206356519772946" lon="11.567862857688095"><ele>500.0</ele><time>2026-04-17T07:48:57Z</time></trkpt><trkpt lat="48.20646717534625" lon="11.56784788677704"><ele>500.0</ele><time>2026-04-17T07:48:59Z</time></trkpt><trkpt lat="48.206589665495635" lon="11.567835625496032"><ele>500.0</ele><time>2026-04-17T07:49:01Z</time></trkpt><trkpt lat="48.206710799439726" lon="11.567825156632276"><ele>500.0</ele><time>2026-04-17T07:49:03Z</time></trkpt><trkpt lat="48.20682202037854" lon="11.567816461455918"><ele>500.0</ele><time>2026-04-17T07:49:05Z</time></trkpt><trkpt lat="48.206926434181426" lon="11.567810623430217"><ele>500.0</ele><time>2026-04-17T07:49:07Z</time></trkpt><trkpt lat="48.20702209963403" lon="11.567803014507277"><ele>500.0</ele><time>2026-04-17T07:49:09Z</time></trkpt><trkpt lat="48.20714801582487" lon="11.567799881306247"><ele>500.0</ele><time>2026-04-17T07:49:11Z</time></trkpt><trkpt lat="48.207250559445335" lon="11.56777156972817"><ele>500.49999999999994</ele><time>2026-04-17T07:49:12Z</time></trkpt><trkpt lat="48.20733521731388" lon="11.567768249945471"><ele>501.0</ele><time>2026-04-17T07:49:13Z</time></trkpt><trkpt lat="48.20745369404788" lon="11.567760880058184"><ele>501.5</ele><time>2026-04-17T07:49:15Z</time></trkpt><trkpt lat="48.20752081967806" lon="11.567755038758412"><ele>502.0</ele><time>2026-04-17T07:49:16Z</time></trkpt><trkpt lat="48.20758924944187" lon="11.567770301968714"><ele>502.49999999999994</ele><time>2026-04-17T07:49:17Z</time></trkpt><trkpt lat="48.20765287571146" lon="11.567765231524405"><ele>503.0</ele><time>2026-04-17T07:49:18Z</time></trkpt><trkpt lat="48.20773505857779" lon="11.567756147604877"><ele>502.99999999999994</ele><time>2026-04-17T07:49:20Z</time></trkpt><trkpt lat="48.207804734290704" lon="11.5677460290568"><ele>503.0</ele><time>2026-04-17T07:49:22Z</time></trkpt><trkpt lat="48.20792473133233" lon="11.567726504554502"><ele>503.0</ele><time>2026-04-17T07:49:24Z</time></trkpt><trkpt lat="48.20799787367001" lon="11.567715610744818"><ele>503.0</ele><time>2026-04-17T07:49:25Z</time></trkpt><trkpt lat="48.20807202410273" lon="11.567705578257245"><ele>502.99999999999994</ele><time>2026-04-17T07:49:26Z</time></trkpt><trkpt lat="48.208145977425886" lon="11.567695572464764"><ele>503.0</ele><time>2026-04-17T07:49:27Z</time></trkpt><trkpt lat="48.20821925402092" lon="11.567685619142894"><ele>502.66666666666663</ele><time>2026-04-17T07:49:28Z</time></trkpt><trkpt lat="48.208293030694215" lon="11.5676754765327"><ele>502.3333333333333</ele><time>2026-04-17T07:49:29Z</time></trkpt><trkpt lat="48.2083644577988" lon="11.56766565694465"><ele>502.0</ele><time>2026-04-17T07:49:30Z</time></trkpt><trkpt lat="48.208434267904344" lon="11.56765605965062"><ele>501.66666666666663</ele><time>2026-04-17T07:49:31Z</time></trkpt><trkpt lat="48.208502474234166" lon="11.567646316769759"><ele>501.3333333333333</ele><time>2026-04-17T07:49:32Z</time></trkpt><trkpt lat="48.20856849329263" lon="11.56763636437521"><ele>501.0</ele><time>2026-04-17T07:49:33Z</time></trkpt><trkpt lat="48.20868458408122" lon="11.567618863654989"><ele>501.0</ele><time>2026-04-17T07:49:35Z</time></trkpt><trkpt lat="48.208777844841514" lon="11.567604650750244"><ele>501.0</ele><time>2026-04-17T07:49:37Z</time></trkpt><trkpt lat="48.20884873687472" lon="11.567592826775732"><ele>501.0</ele><time>2026-04-17T07:49:39Z</time></trkpt><trkpt lat="48.20892950175662" lon="11.567578134206627"><ele>501.0</ele><time>2026-04-17T07:49:42Z</time></trkpt><trkpt lat="48.20900661978404" lon="11.567540165254442"><ele>501.0</ele><time>2026-04-17T07:49:45Z</time></trkpt><trkpt lat="48.209092491821615" lon="11.567534583866202"><ele>501.0</ele><time>2026-04-17T07:50:14Z</time></trkpt><trkpt lat="48.20918288397912" lon="11.567536189299716"><ele>500.20000000000005</ele><time>2026-04-17T07:50:16Z</time></trkpt><trkpt lat="48.209249959632075" lon="11.567701216328265"><ele>499.40000000000003</ele><time>2026-04-17T07:50:18Z</time></trkpt><trkpt lat="48.20926700689258" lon="11.567817056921783"><ele>498.6</ele><time>2026-04-17T07:50:19Z</time></trkpt><trkpt lat="48.20928707490756" lon="11.567935598760869"><ele>497.8</ele><time>2026-04-17T07:50:20Z</time></trkpt><trkpt lat="48.20930986716093" lon="11.568049735904971"><ele>497.0</ele><time>2026-04-17T07:50:21Z</time></trkpt><trkpt lat="48.20933413587898" lon="11.568174038387422"><ele>496.6</ele><time>2026-04-17T07:50:22Z</time></trkpt><trkpt lat="48.20936697775954" lon="11.568345324520113"><ele>496.20000000000005</ele><time>2026-04-17T07:50:24Z</time></trkpt><trkpt lat="48.20939061798642" lon="11.568471760637369"><ele>495.8</ele><time>2026-04-17T07:50:25Z</time></trkpt><trkpt lat="48.20940988694552" lon="11.568575695788253"><ele>495.4</ele><time>2026-04-17T07:50:26Z</time></trkpt><trkpt lat="48.20944627583489" lon="11.568768052954281"><ele>495.0</ele><time>2026-04-17T07:50:28Z</time></trkpt><trkpt lat="48.209463726724714" lon="11.568880606687383"><ele>495.0</ele><time>2026-04-17T07:50:29Z</time></trkpt><trkpt lat="48.20948393442844" lon="11.568991685855812"><ele>495.0</ele><time>2026-04-17T07:50:30Z</time></trkpt><trkpt lat="48.209517730639426" lon="11.569157786274662"><ele>495.0</ele><time>2026-04-17T07:50:31Z</time></trkpt><trkpt lat="48.209544502723254" lon="11.569303921163636"><ele>495.0</ele><time>2026-04-17T07:50:31.999Z</time></trkpt><trkpt lat="48.20957245650636" lon="11.569448443571554"><ele>495.0</ele><time>2026-04-17T07:50:32.999Z</time></trkpt><trkpt lat="48.209599269123366" lon="11.56958538527923"><ele>495.6</ele><time>2026-04-17T07:50:33.999Z</time></trkpt><trkpt lat="48.2096241733321" lon="11.56971775968698"><ele>496.2</ele><time>2026-04-17T07:50:34.999Z</time></trkpt><trkpt lat="48.20965094528038" lon="11.569851968897103"><ele>496.79999999999995</ele><time>2026-04-17T07:50:35.999Z</time></trkpt><trkpt lat="48.209678980064766" lon="11.56999738386545"><ele>497.4</ele><time>2026-04-17T07:50:36.999Z</time></trkpt><trkpt lat="48.20971015096215" lon="11.570153928167393"><ele>498.0</ele><time>2026-04-17T07:50:37.999Z</time></trkpt><trkpt lat="48.20973631413705" lon="11.570291769007891"><ele>497.79999999999995</ele><time>2026-04-17T07:50:38.999Z</time></trkpt><trkpt lat="48.20976399844256" lon="11.570434505396099"><ele>497.59999999999997</ele><time>2026-04-17T07:50:39.999Z</time></trkpt><trkpt lat="48.209788920465485" lon="11.570573776152273"><ele>497.40000000000003</ele><time>2026-04-17T07:50:40.999Z</time></trkpt><trkpt lat="48.20981400386774" lon="11.570711018251185"><ele>497.20000000000005</ele><time>2026-04-17T07:50:41.999Z</time></trkpt><trkpt lat="48.209838874426396" lon="11.57084529606001"><ele>497.0</ele><time>2026-04-17T07:50:42.999Z</time></trkpt><trkpt lat="48.20986472010107" lon="11.570979899726401"><ele>496.8</ele><time>2026-04-17T07:50:43.999Z</time></trkpt><trkpt lat="48.20989165317758" lon="11.571113700241444"><ele>496.6</ele><time>2026-04-17T07:50:44.999Z</time></trkpt><trkpt lat="48.20991793167949" lon="11.5712450936957"><ele>496.40000000000003</ele><time>2026-04-17T07:50:45.999Z</time></trkpt><trkpt lat="48.209944910748256" lon="11.571377725355253"><ele>496.20000000000005</ele><time>2026-04-17T07:50:46.999Z</time></trkpt><trkpt lat="48.20997127997377" lon="11.571508875978841"><ele>496.0</ele><time>2026-04-17T07:50:47.999Z</time></trkpt><trkpt lat="48.209995902083236" lon="11.571644793218985"><ele>496.4</ele><time>2026-04-17T07:50:48.999Z</time></trkpt><trkpt lat="48.21002026076754" lon="11.571783826274403"><ele>496.8</ele><time>2026-04-17T07:50:50Z</time></trkpt><trkpt lat="48.210045548069644" lon="11.571923135569707"><ele>497.19999999999993</ele><time>2026-04-17T07:50:51Z</time></trkpt><trkpt lat="48.21007157807286" lon="11.572064239988144"><ele>497.59999999999997</ele><time>2026-04-17T07:50:52Z</time></trkpt><trkpt lat="48.21009671941374" lon="11.572208665056019"><ele>498.0</ele><time>2026-04-17T07:50:53Z</time></trkpt><trkpt lat="48.210123952698474" lon="11.572356220319847"><ele>498.0</ele><time>2026-04-17T07:50:54Z</time></trkpt><trkpt lat="48.21015105126294" lon="11.572503493357518"><ele>497.99999999999994</ele><time>2026-04-17T07:50:55Z</time></trkpt><trkpt lat="48.21017808686601" lon="11.572650440946772"><ele>497.99999999999994</ele><time>2026-04-17T07:50:56Z</time></trkpt><trkpt lat="48.21020359957538" lon="11.572791678240806"><ele>498.0</ele><time>2026-04-17T07:50:57Z</time></trkpt><trkpt lat="48.210228634515275" lon="11.572930013009946"><ele>498.0</ele><time>2026-04-17T07:50:58Z</time></trkpt><trkpt lat="48.21025054240339" lon="11.573049227848605"><ele>498.0</ele><time>2026-04-17T07:50:59Z</time></trkpt><trkpt lat="48.21027157811438" lon="11.573160315057448"><ele>497.99999999999994</ele><time>2026-04-17T07:51:00Z</time></trkpt><trkpt lat="48.21028971423061" lon="11.573263062493632"><ele>498.0</ele><time>2026-04-17T07:51:01Z</time></trkpt><trkpt lat="48.21030740518599" lon="11.573359688209514"><ele>498.0</ele><time>2026-04-17T07:51:02Z</time></trkpt><trkpt lat="48.21032725577517" lon="11.573458805241081"><ele>497.99999999999994</ele><time>2026-04-17T07:51:03Z</time></trkpt><trkpt lat="48.21034543989244" lon="11.57354954273327"><ele>498.0</ele><time>2026-04-17T07:51:04Z</time></trkpt><trkpt lat="48.210367094061105" lon="11.573674793693423"><ele>498.0</ele><time>2026-04-17T07:51:06Z</time></trkpt><trkpt lat="48.21038315803716" lon="11.573768134671948"><ele>497.59999999999997</ele><time>2026-04-17T07:51:09Z</time></trkpt><trkpt lat="48.2104023843008" lon="11.573877469056798"><ele>497.19999999999993</ele><time>2026-04-17T07:51:14Z</time></trkpt><trkpt lat="48.21041855233535" lon="11.573984307457014"><ele>496.8</ele><time>2026-04-17T07:51:16Z</time></trkpt><trkpt lat="48.21044717833254" lon="11.574151962426328"><ele>496.4</ele><time>2026-04-17T07:51:18Z</time></trkpt><trkpt lat="48.210480449014604" lon="11.57431529519642"><ele>496.0</ele><time>2026-04-17T07:51:20Z</time></trkpt><trkpt lat="48.21050683120365" lon="11.574475278362032"><ele>496.00000000000006</ele><time>2026-04-17T07:51:22Z</time></trkpt><trkpt lat="48.210542735854915" lon="11.574655521690419"><ele>496.0</ele><time>2026-04-17T07:51:24Z</time></trkpt><trkpt lat="48.21056151197697" lon="11.574756974209938"><ele>496.0</ele><time>2026-04-17T07:51:25Z</time></trkpt><trkpt lat="48.21058004690946" lon="11.57486086561037"><ele>496.0</ele><time>2026-04-17T07:51:26Z</time></trkpt><trkpt lat="48.21060009847785" lon="11.5749671388744"><ele>496.00000000000006</ele><time>2026-04-17T07:51:27Z</time></trkpt><trkpt lat="48.21062218888309" lon="11.575085287411799"><ele>496.0</ele><time>2026-04-17T07:51:28Z</time></trkpt><trkpt lat="48.2106454220824" lon="11.57521151566339"><ele>496.50000000000006</ele><time>2026-04-17T07:51:29Z</time></trkpt><trkpt lat="48.21067000055845" lon="11.575346101397988"><ele>497.0</ele><time>2026-04-17T07:51:30Z</time></trkpt><trkpt lat="48.210693338950655" lon="11.575481046544244"><ele>497.5</ele><time>2026-04-17T07:51:31Z</time></trkpt><trkpt lat="48.21071779266378" lon="11.575610837746437"><ele>498.0</ele><time>2026-04-17T07:51:32Z</time></trkpt><trkpt lat="48.2107407036929" lon="11.575728505773407"><ele>498.50000000000006</ele><time>2026-04-17T07:51:33Z</time></trkpt><trkpt lat="48.210760728542446" lon="11.575841417726114"><ele>499.0</ele><time>2026-04-17T07:51:34Z</time></trkpt><trkpt lat="48.21077918126877" lon="11.575951392950063"><ele>499.00000000000006</ele><time>2026-04-17T07:51:35Z</time></trkpt><trkpt lat="48.21079859475188" lon="11.576060673830955"><ele>499.0</ele><time>2026-04-17T07:51:36Z</time></trkpt><trkpt lat="48.21082091908047" lon="11.576168451317525"><ele>499.0</ele><time>2026-04-17T07:51:37Z</time></trkpt><trkpt lat="48.21084355007188" lon="11.57627943747054"><ele>499.0</ele><time>2026-04-17T07:51:38Z</time></trkpt><trkpt lat="48.21086406704666" lon="11.576385496543894"><ele>499.00000000000006</ele><time>2026-04-17T07:51:39Z</time></trkpt><trkpt lat="48.210884334108975" lon="11.576493418566557"><ele>499.0</ele><time>2026-04-17T07:51:40Z</time></trkpt><trkpt lat="48.210904541680215" lon="11.576606423953658"><ele>499.00000000000006</ele><time>2026-04-17T07:51:41Z</time></trkpt><trkpt lat="48.21092637567724" lon="11.576724063891442"><ele>499.0</ele><time>2026-04-17T07:51:42Z</time></trkpt><trkpt lat="48.21094863778321" lon="11.576846030705358"><ele>499.0</ele><time>2026-04-17T07:51:43Z</time></trkpt><trkpt lat="48.21097171757605" lon="11.576974084951205"><ele>499.0</ele><time>2026-04-17T07:51:44Z</time></trkpt><trkpt lat="48.210994927340714" lon="11.577104416095287"><ele>499.00000000000006</ele><time>2026-04-17T07:51:45Z</time></trkpt><trkpt lat="48.211018709558054" lon="11.577230633275303"><ele>499.0</ele><time>2026-04-17T07:51:46Z</time></trkpt><trkpt lat="48.21104022354221" lon="11.577353715688862"><ele>498.83333333333337</ele><time>2026-04-17T07:51:47Z</time></trkpt><trkpt lat="48.21105907684957" lon="11.577473762274934"><ele>498.6666666666667</ele><time>2026-04-17T07:51:48Z</time></trkpt><trkpt lat="48.21107460150921" lon="11.577591241031644"><ele>498.5</ele><time>2026-04-17T07:51:49Z</time></trkpt><trkpt lat="48.21108590290624" lon="11.577709400464785"><ele>498.33333333333337</ele><time>2026-04-17T07:51:50Z</time></trkpt><trkpt lat="48.211095246070535" lon="11.577834303597243"><ele>498.1666666666667</ele><time>2026-04-17T07:51:51Z</time></trkpt><trkpt lat="48.21110355238036" lon="11.577968026223274"><ele>498.0</ele><time>2026-04-17T07:51:52Z</time></trkpt><trkpt lat="48.211112189366474" lon="11.578107832701997"><ele>498.0</ele><time>2026-04-17T07:51:53Z</time></trkpt><trkpt lat="48.211120263712345" lon="11.578239843648387"><ele>498.0</ele><time>2026-04-17T07:51:54Z</time></trkpt><trkpt lat="48.21112625927124" lon="11.578363980170552"><ele>498.0</ele><time>2026-04-17T07:51:55Z</time></trkpt><trkpt lat="48.21112564257245" lon="11.578477048970637"><ele>498.0</ele><time>2026-04-17T07:51:56Z</time></trkpt><trkpt lat="48.21112290562571" lon="11.578586960912247"><ele>498.0</ele><time>2026-04-17T07:51:57Z</time></trkpt><trkpt lat="48.211120634285585" lon="11.578690341554344"><ele>498.0</ele><time>2026-04-17T07:51:58Z</time></trkpt><trkpt lat="48.21111598962194" lon="11.578789922259539"><ele>497.85714285714283</ele><time>2026-04-17T07:51:59Z</time></trkpt><trkpt lat="48.21111205164502" lon="11.578887605834781"><ele>497.71428571428567</ele><time>2026-04-17T07:52:00Z</time></trkpt><trkpt lat="48.21110650867429" lon="11.578986881945305"><ele>497.57142857142856</ele><time>2026-04-17T07:52:01Z</time></trkpt><trkpt lat="48.21109882385047" lon="11.579092867608278"><ele>497.42857142857144</ele><time>2026-04-17T07:52:02Z</time></trkpt><trkpt lat="48.21108814872324" lon="11.579209594397218"><ele>497.2857142857143</ele><time>2026-04-17T07:52:03Z</time></trkpt><trkpt lat="48.21107749567553" lon="11.579331561559044"><ele>497.1428571428571</ele><time>2026-04-17T07:52:04Z</time></trkpt><trkpt lat="48.21106834721706" lon="11.579450007329909"><ele>497.0</ele><time>2026-04-17T07:52:05Z</time></trkpt><trkpt lat="48.211057574625784" lon="11.579562231419784"><ele>496.8571428571429</ele><time>2026-04-17T07:52:06Z</time></trkpt><trkpt lat="48.21104676247144" lon="11.579669536537649"><ele>496.7142857142857</ele><time>2026-04-17T07:52:07Z</time></trkpt><trkpt lat="48.21103698265786" lon="11.57977182007394"><ele>496.57142857142856</ele><time>2026-04-17T07:52:08Z</time></trkpt><trkpt lat="48.21102732278755" lon="11.579875267652822"><ele>496.42857142857144</ele><time>2026-04-17T07:52:09Z</time></trkpt><trkpt lat="48.211017588745676" lon="11.579979430403554"><ele>496.28571428571433</ele><time>2026-04-17T07:52:10Z</time></trkpt><trkpt lat="48.21100679038514" lon="11.580091032520842"><ele>496.14285714285717</ele><time>2026-04-17T07:52:11Z</time></trkpt><trkpt lat="48.2109957258078" lon="11.580208677677359"><ele>496.0</ele><time>2026-04-17T07:52:12Z</time></trkpt><trkpt lat="48.21098646305491" lon="11.580331192364492"><ele>496.0</ele><time>2026-04-17T07:52:13Z</time></trkpt><trkpt lat="48.210979635520566" lon="11.580443569717819"><ele>496.00000000000006</ele><time>2026-04-17T07:52:14Z</time></trkpt><trkpt lat="48.210971820805874" lon="11.580551936283085"><ele>496.0</ele><time>2026-04-17T07:52:15Z</time></trkpt><trkpt lat="48.21096202695903" lon="11.580657166137556"><ele>496.0</ele><time>2026-04-17T07:52:16Z</time></trkpt><trkpt lat="48.2109522296256" lon="11.580762861997869"><ele>496.00000000000006</ele><time>2026-04-17T07:52:17Z</time></trkpt><trkpt lat="48.21094356327926" lon="11.580871218889753"><ele>496.0</ele><time>2026-04-17T07:52:18Z</time></trkpt><trkpt lat="48.2109329847844" lon="11.580983350633337"><ele>496.0</ele><time>2026-04-17T07:52:19Z</time></trkpt><trkpt lat="48.210919869753326" lon="11.581095047649086"><ele>495.8571428571429</ele><time>2026-04-17T07:52:20Z</time></trkpt><trkpt lat="48.210906598785265" lon="11.581202097607038"><ele>495.7142857142858</ele><time>2026-04-17T07:52:21Z</time></trkpt><trkpt lat="48.21089508511508" lon="11.581303350050106"><ele>495.57142857142856</ele><time>2026-04-17T07:52:22Z</time></trkpt><trkpt lat="48.21088526718033" lon="11.581402612422243"><ele>495.42857142857144</ele><time>2026-04-17T07:52:23Z</time></trkpt><trkpt lat="48.21087549354711" lon="11.581501870644946"><ele>495.2857142857143</ele><time>2026-04-17T07:52:24Z</time></trkpt><trkpt lat="48.21086576108908" lon="11.581600347077117"><ele>495.1428571428571</ele><time>2026-04-17T07:52:25Z</time></trkpt><trkpt lat="48.21085771418015" lon="11.581701074741249"><ele>494.99999999999994</ele><time>2026-04-17T07:52:26Z</time></trkpt><trkpt lat="48.21085063086949" lon="11.581801896748503"><ele>494.99999999999994</ele><time>2026-04-17T07:52:27Z</time></trkpt><trkpt lat="48.21084279901574" lon="11.581904324158044"><ele>495.0</ele><time>2026-04-17T07:52:28Z</time></trkpt><trkpt lat="48.21083390555453" lon="11.58200919849279"><ele>494.99999999999994</ele><time>2026-04-17T07:52:29Z</time></trkpt><trkpt lat="48.21082449630351" lon="11.582117686015492"><ele>494.99999999999994</ele><time>2026-04-17T07:52:30Z</time></trkpt><trkpt lat="48.210815282389525" lon="11.582229645722464"><ele>495.0</ele><time>2026-04-17T07:52:31Z</time></trkpt><trkpt lat="48.210804878489405" lon="11.582341266631127"><ele>494.99999999999994</ele><time>2026-04-17T07:52:32Z</time></trkpt><trkpt lat="48.21079456599108" lon="11.582444561223335"><ele>494.99999999999994</ele><time>2026-04-17T07:52:33Z</time></trkpt><trkpt lat="48.210784860805745" lon="11.582544184642154"><ele>495.2857142857142</ele><time>2026-04-17T07:52:34Z</time></trkpt><trkpt lat="48.21077617961169" lon="11.582641174446607"><ele>495.57142857142856</ele><time>2026-04-17T07:52:35Z</time></trkpt><trkpt lat="48.2107685486971" lon="11.582740465474792"><ele>495.85714285714283</ele><time>2026-04-17T07:52:36Z</time></trkpt><trkpt lat="48.21075969747102" lon="11.582838273631511"><ele>496.1428571428571</ele><time>2026-04-17T07:52:37Z</time></trkpt><trkpt lat="48.21074971771234" lon="11.582937609388035"><ele>496.42857142857144</ele><time>2026-04-17T07:52:38Z</time></trkpt><trkpt lat="48.210740276157544" lon="11.583041343902277"><ele>496.7142857142857</ele><time>2026-04-17T07:52:39Z</time></trkpt><trkpt lat="48.210730307980604" lon="11.583151977507425"><ele>497.0</ele><time>2026-04-17T07:52:40Z</time></trkpt><trkpt lat="48.21071910022387" lon="11.583283023714644"><ele>497.75</ele><time>2026-04-17T07:52:41Z</time></trkpt><trkpt lat="48.210706545324776" lon="11.583439388130463"><ele>498.5</ele><time>2026-04-17T07:52:42Z</time></trkpt><trkpt lat="48.210690907168264" lon="11.583612961131537"><ele>499.25</ele><time>2026-04-17T07:52:43Z</time></trkpt><trkpt lat="48.21067400380318" lon="11.583793703053697"><ele>500.0</ele><time>2026-04-17T07:52:44Z</time></trkpt><trkpt lat="48.210660776528584" lon="11.583954292974896"><ele>500.2</ele><time>2026-04-17T07:52:45Z</time></trkpt><trkpt lat="48.21064666613741" lon="11.584104325587697"><ele>500.4</ele><time>2026-04-17T07:52:46Z</time></trkpt><trkpt lat="48.210634188089614" lon="11.584242938727328"><ele>500.6</ele><time>2026-04-17T07:52:47Z</time></trkpt><trkpt lat="48.210623058345924" lon="11.584375854201705"><ele>500.8</ele><time>2026-04-17T07:52:48Z</time></trkpt><trkpt lat="48.210610433027846" lon="11.584510325644818"><ele>501.0</ele><time>2026-04-17T07:52:49Z</time></trkpt><trkpt lat="48.2105982636714" lon="11.584648697302164"><ele>501.1666666666667</ele><time>2026-04-17T07:52:50Z</time></trkpt><trkpt lat="48.21058834923893" lon="11.58477552129896"><ele>501.33333333333337</ele><time>2026-04-17T07:52:51Z</time></trkpt><trkpt lat="48.21057786836692" lon="11.584902911857421"><ele>501.5</ele><time>2026-04-17T07:52:52Z</time></trkpt><trkpt lat="48.21056643357551" lon="11.58502967200942"><ele>501.6666666666667</ele><time>2026-04-17T07:52:53Z</time></trkpt><trkpt lat="48.210554528561566" lon="11.585156704013741"><ele>501.83333333333337</ele><time>2026-04-17T07:52:54Z</time></trkpt><trkpt lat="48.210542214889564" lon="11.58529074651215"><ele>502.0</ele><time>2026-04-17T07:52:55Z</time></trkpt><trkpt lat="48.21053000793271" lon="11.585432398774856"><ele>502.40000000000003</ele><time>2026-04-17T07:52:56Z</time></trkpt><trkpt lat="48.210517622311734" lon="11.585579088327213"><ele>502.80000000000007</ele><time>2026-04-17T07:52:57Z</time></trkpt><trkpt lat="48.2105046563834" lon="11.585731413644428"><ele>503.2</ele><time>2026-04-17T07:52:58Z</time></trkpt><trkpt lat="48.210492801495235" lon="11.585884266910053"><ele>503.6</ele><time>2026-04-17T07:52:59Z</time></trkpt><trkpt lat="48.21048290381984" lon="11.586018844229836"><ele>504.0</ele><time>2026-04-17T07:53:00Z</time></trkpt><trkpt lat="48.2104778939289" lon="11.58613511676405"><ele>503.6666666666667</ele><time>2026-04-17T07:53:01Z</time></trkpt><trkpt lat="48.21047265194797" lon="11.586249080848818"><ele>503.33333333333337</ele><time>2026-04-17T07:53:02Z</time></trkpt><trkpt lat="48.210466310952555" lon="11.586372784205222"><ele>503.0</ele><time>2026-04-17T07:53:03Z</time></trkpt><trkpt lat="48.21046246143249" lon="11.586511877683156"><ele>502.6666666666667</ele><time>2026-04-17T07:53:04Z</time></trkpt><trkpt lat="48.21043528868065" lon="11.586648254476296"><ele>502.33333333333337</ele><time>2026-04-17T07:53:05Z</time></trkpt><trkpt lat="48.21042545012417" lon="11.586771236465848"><ele>502.0</ele><time>2026-04-17T07:53:06Z</time></trkpt><trkpt lat="48.2104166961311" lon="11.586880661373241"><ele>500.25</ele><time>2026-04-17T07:53:07Z</time></trkpt><trkpt lat="48.21040285120541" lon="11.587053979021121"><ele>498.5</ele><time>2026-04-17T07:53:09Z</time></trkpt><trkpt lat="48.21039104834228" lon="11.587201897483807"><ele>496.75</ele><time>2026-04-17T07:53:11Z</time></trkpt><trkpt lat="48.21054640921478" lon="11.587332722496788"><ele>495.0</ele><time>2026-04-17T07:53:13Z</time></trkpt><trkpt lat="48.21062300495632" lon="11.587361612810312"><ele>494.6</ele><time>2026-04-17T07:53:14Z</time></trkpt><trkpt lat="48.210710734349895" lon="11.587377759335803"><ele>494.2</ele><time>2026-04-17T07:53:15Z</time></trkpt><trkpt lat="48.21080386271294" lon="11.5873946471556"><ele>493.79999999999995</ele><time>2026-04-17T07:53:16Z</time></trkpt><trkpt lat="48.21089451545444" lon="11.5874113262245"><ele>493.4</ele><time>2026-04-17T07:53:17Z</time></trkpt><trkpt lat="48.21098331144475" lon="11.58743134262491"><ele>493.0</ele><time>2026-04-17T07:53:18Z</time></trkpt><trkpt lat="48.21107822931951" lon="11.587450667306706"><ele>493.00000000000006</ele><time>2026-04-17T07:53:19Z</time></trkpt><trkpt lat="48.2111714599057" lon="11.587470216120037"><ele>493.0</ele><time>2026-04-17T07:53:20Z</time></trkpt><trkpt lat="48.21125690410652" lon="11.587487818539552"><ele>493.0</ele><time>2026-04-17T07:53:21Z</time></trkpt><trkpt lat="48.21133622560555" lon="11.587502847455024"><ele>493.0</ele><time>2026-04-17T07:53:22Z</time></trkpt><trkpt lat="48.211410354002304" lon="11.587514826465211"><ele>493.00000000000006</ele><time>2026-04-17T07:53:23Z</time></trkpt><trkpt lat="48.21148266741355" lon="11.58752860098026"><ele>493.0</ele><time>2026-04-17T07:53:24Z</time></trkpt><trkpt lat="48.21156324492802" lon="11.587542611852909"><ele>493.75</ele><time>2026-04-17T07:53:25Z</time></trkpt><trkpt lat="48.211658948999876" lon="11.587560439158917"><ele>494.5</ele><time>2026-04-17T07:53:26Z</time></trkpt><trkpt lat="48.211771844429755" lon="11.587581212975872"><ele>495.25</ele><time>2026-04-17T07:53:27Z</time></trkpt><trkpt lat="48.21190921747197" lon="11.587605627755183"><ele>496.0</ele><time>2026-04-17T07:53:28Z</time></trkpt><trkpt lat="48.21202282114813" lon="11.587628336048352"><ele>496.0</ele><time>2026-04-17T07:53:29Z</time></trkpt><trkpt lat="48.21213008466338" lon="11.587650667895645"><ele>496.0</ele><time>2026-04-17T07:53:30Z</time></trkpt><trkpt lat="48.2122337796823" lon="11.58767126354676"><ele>496.0</ele><time>2026-04-17T07:53:31Z</time></trkpt><trkpt lat="48.21233068371926" lon="11.587687618951483"><ele>496.0</ele><time>2026-04-17T07:53:32Z</time></trkpt><trkpt lat="48.21243115928616" lon="11.587706738817145"><ele>496.0</ele><time>2026-04-17T07:53:33Z</time></trkpt><trkpt lat="48.21253460150679" lon="11.587721488512596"><ele>496.0</ele><time>2026-04-17T07:53:34Z</time></trkpt><trkpt lat="48.21263863242999" lon="11.587724681608464"><ele>496.0</ele><time>2026-04-17T07:53:35Z</time></trkpt><trkpt lat="48.21274493682871" lon="11.587724593263848"><ele>496.0</ele><time>2026-04-17T07:53:36Z</time></trkpt><trkpt lat="48.21285115837342" lon="11.5877402763959"><ele>496.0</ele><time>2026-04-17T07:53:37.001Z</time></trkpt><trkpt lat="48.21295538412319" lon="11.587760887585375"><ele>496.0</ele><time>2026-04-17T07:53:38.001Z</time></trkpt><trkpt lat="48.21305941954516" lon="11.587777203082533"><ele>496.20000000000005</ele><time>2026-04-17T07:53:39.001Z</time></trkpt><trkpt lat="48.21316440154107" lon="11.587791989840625"><ele>496.40000000000003</ele><time>2026-04-17T07:53:40.001Z</time></trkpt><trkpt lat="48.21326978075112" lon="11.587803660801251"><ele>496.6</ele><time>2026-04-17T07:53:41.001Z</time></trkpt><trkpt lat="48.213376394328506" lon="11.587814734448084"><ele>496.8</ele><time>2026-04-17T07:53:42.001Z</time></trkpt><trkpt lat="48.2134841044918" lon="11.587823396579068"><ele>497.0</ele><time>2026-04-17T07:53:43.001Z</time></trkpt><trkpt lat="48.213593447844666" lon="11.587832828515879"><ele>497.0</ele><time>2026-04-17T07:53:44.001Z</time></trkpt><trkpt lat="48.21370463094436" lon="11.587840860779604"><ele>497.0</ele><time>2026-04-17T07:53:45.001Z</time></trkpt><trkpt lat="48.21381680595753" lon="11.587847519968651"><ele>497.0</ele><time>2026-04-17T07:53:46.001Z</time></trkpt><trkpt lat="48.2139311059839" lon="11.587854792683338"><ele>497.0</ele><time>2026-04-17T07:53:47.001Z</time></trkpt><trkpt lat="48.21404704687627" lon="11.587858938398515"><ele>496.0</ele><time>2026-04-17T07:53:48.001Z</time></trkpt><trkpt lat="48.21416562053091" lon="11.587859816370639"><ele>495.0</ele><time>2026-04-17T07:53:49.001Z</time></trkpt><trkpt lat="48.214286949037195" lon="11.587860757083282"><ele>494.0</ele><time>2026-04-17T07:53:50.001Z</time></trkpt><trkpt lat="48.2144107432646" lon="11.587858638055444"><ele>493.0</ele><time>2026-04-17T07:53:51.001Z</time></trkpt><trkpt lat="48.21454131625632" lon="11.587857306196602"><ele>493.0</ele><time>2026-04-17T07:53:52.001Z</time></trkpt><trkpt lat="48.214680219203245" lon="11.587857371750996"><ele>493.0</ele><time>2026-04-17T07:53:53.001Z</time></trkpt><trkpt lat="48.2148256964373" lon="11.587856346617121"><ele>493.0</ele><time>2026-04-17T07:53:54.001Z</time></trkpt><trkpt lat="48.214977433758314" lon="11.587854935429538"><ele>493.0</ele><time>2026-04-17T07:53:55.001Z</time></trkpt><trkpt lat="48.21513577409991" lon="11.58785591992556"><ele>493.33333333333337</ele><time>2026-04-17T07:53:56.001Z</time></trkpt><trkpt lat="48.21529590406226" lon="11.587855816537802"><ele>493.66666666666663</ele><time>2026-04-17T07:53:57.001Z</time></trkpt><trkpt lat="48.21546021877565" lon="11.587855617224012"><ele>494.0</ele><time>2026-04-17T07:53:58.001Z</time></trkpt><trkpt lat="48.21562648186747" lon="11.587854708557165"><ele>494.3333333333333</ele><time>2026-04-17T07:53:59.001Z</time></trkpt><trkpt lat="48.21579402322329" lon="11.587854751612142"><ele>494.66666666666663</ele><time>2026-04-17T07:54:00.001Z</time></trkpt><trkpt lat="48.21596392276388" lon="11.587854217063827"><ele>495.0</ele><time>2026-04-17T07:54:01.001Z</time></trkpt><trkpt lat="48.21613089205142" lon="11.587853474152567"><ele>495.0</ele><time>2026-04-17T07:54:02.001Z</time></trkpt><trkpt lat="48.21629354149367" lon="11.58785423977574"><ele>495.0</ele><time>2026-04-17T07:54:03.001Z</time></trkpt><trkpt lat="48.21645156224817" lon="11.587854272958735"><ele>495.0</ele><time>2026-04-17T07:54:04.001Z</time></trkpt><trkpt lat="48.21660840629391" lon="11.587852529695212"><ele>494.66666666666663</ele><time>2026-04-17T07:54:05.001Z</time></trkpt><trkpt lat="48.216763844338416" lon="11.58785153848058"><ele>494.3333333333333</ele><time>2026-04-17T07:54:06.001Z</time></trkpt><trkpt lat="48.21692040959282" lon="11.5878500773844"><ele>494.0</ele><time>2026-04-17T07:54:07.001Z</time></trkpt><trkpt lat="48.21707524424537" lon="11.587849080891313"><ele>494.0</ele><time>2026-04-17T07:54:08.001Z</time></trkpt><trkpt lat="48.217231222165445" lon="11.587847451156138"><ele>494.0</ele><time>2026-04-17T07:54:09.001Z</time></trkpt><trkpt lat="48.21738812452277" lon="11.587846589776602"><ele>494.0</ele><time>2026-04-17T07:54:10.001Z</time></trkpt><trkpt lat="48.21754553006298" lon="11.587846046339585"><ele>494.0</ele><time>2026-04-17T07:54:11.001Z</time></trkpt><trkpt lat="48.217706649590795" lon="11.587843812974112"><ele>494.0</ele><time>2026-04-17T07:54:12.001Z</time></trkpt><trkpt lat="48.21786659446112" lon="11.587841388517909"><ele>494.0</ele><time>2026-04-17T07:54:13.001Z</time></trkpt><trkpt lat="48.21802577965787" lon="11.587839073566029"><ele>493.75</ele><time>2026-04-17T07:54:14.001Z</time></trkpt><trkpt lat="48.21817761607354" lon="11.58783883476763"><ele>493.5</ele><time>2026-04-17T07:54:15.001Z</time></trkpt><trkpt lat="48.21832328271511" lon="11.5878418928396"><ele>493.25</ele><time>2026-04-17T07:54:16.001Z</time></trkpt><trkpt lat="48.218465869296104" lon="11.587842845639573"><ele>493.0</ele><time>2026-04-17T07:54:17.001Z</time></trkpt><trkpt lat="48.218605774038764" lon="11.587842839055698"><ele>493.0</ele><time>2026-04-17T07:54:18.001Z</time></trkpt><trkpt lat="48.21874467547107" lon="11.587842709659359"><ele>493.0</ele><time>2026-04-17T07:54:19.001Z</time></trkpt><trkpt lat="48.21888326971507" lon="11.587841399530046"><ele>493.0</ele><time>2026-04-17T07:54:20.001Z</time></trkpt><trkpt lat="48.21902025802693" lon="11.587840009364388"><ele>493.0</ele><time>2026-04-17T07:54:21.001Z</time></trkpt><trkpt lat="48.2191570992631" lon="11.587837792225969"><ele>493.5</ele><time>2026-04-17T07:54:22.001Z</time></trkpt><trkpt lat="48.21929421460207" lon="11.587837867856305"><ele>494.0</ele><time>2026-04-17T07:54:23.001Z</time></trkpt><trkpt lat="48.21943608007647" lon="11.587835964974296"><ele>494.5</ele><time>2026-04-17T07:54:24.001Z</time></trkpt><trkpt lat="48.219581543266585" lon="11.587833333212847"><ele>495.0</ele><time>2026-04-17T07:54:25.001Z</time></trkpt><trkpt lat="48.219728091382386" lon="11.587828356588806"><ele>494.75</ele><time>2026-04-17T07:54:26.001Z</time></trkpt><trkpt lat="48.21987571024976" lon="11.587822460127486"><ele>494.5</ele><time>2026-04-17T07:54:27.001Z</time></trkpt><trkpt lat="48.220018642597246" lon="11.587817389490793"><ele>494.25</ele><time>2026-04-17T07:54:28.001Z</time></trkpt><trkpt lat="48.22015389578523" lon="11.587812124157832"><ele>494.0</ele><time>2026-04-17T07:54:29.001Z</time></trkpt><trkpt lat="48.220284366113205" lon="11.587806721076433"><ele>494.0</ele><time>2026-04-17T07:54:30.001Z</time></trkpt><trkpt lat="48.22041439895556" lon="11.58780290644861"><ele>494.0</ele><time>2026-04-17T07:54:31.001Z</time></trkpt><trkpt lat="48.22054810590328" lon="11.587800939216649"><ele>494.0</ele><time>2026-04-17T07:54:32.001Z</time></trkpt><trkpt lat="48.22068769369666" lon="11.587799893335484"><ele>494.0</ele><time>2026-04-17T07:54:33.001Z</time></trkpt><trkpt lat="48.22083421578514" lon="11.587795070788637"><ele>493.66666666666663</ele><time>2026-04-17T07:54:34.001Z</time></trkpt><trkpt lat="48.22098502685536" lon="11.587790852865117"><ele>493.33333333333337</ele><time>2026-04-17T07:54:35.001Z</time></trkpt><trkpt lat="48.221137890953806" lon="11.587787060040169"><ele>493.0</ele><time>2026-04-17T07:54:36.001Z</time></trkpt><trkpt lat="48.22128406538332" lon="11.587780144805327"><ele>493.0</ele><time>2026-04-17T07:54:37.001Z</time></trkpt><trkpt lat="48.22142073304902" lon="11.58776972526797"><ele>493.0</ele><time>2026-04-17T07:54:38.001Z</time></trkpt><trkpt lat="48.22154922141293" lon="11.587759703895365"><ele>493.0</ele><time>2026-04-17T07:54:39.001Z</time></trkpt><trkpt lat="48.22166903524003" lon="11.587751668522223"><ele>493.0</ele><time>2026-04-17T07:54:40.001Z</time></trkpt><trkpt lat="48.22178085615464" lon="11.587742194544656"><ele>493.2</ele><time>2026-04-17T07:54:41.001Z</time></trkpt><trkpt lat="48.22188646516696" lon="11.587731794412395"><ele>493.4</ele><time>2026-04-17T07:54:42.001Z</time></trkpt><trkpt lat="48.221987282106475" lon="11.587723824522804"><ele>493.59999999999997</ele><time>2026-04-17T07:54:43.001Z</time></trkpt><trkpt lat="48.22208316422023" lon="11.587717861517282"><ele>493.79999999999995</ele><time>2026-04-17T07:54:44.001Z</time></trkpt><trkpt lat="48.22217443145156" lon="11.587711117999778"><ele>494.0</ele><time>2026-04-17T07:54:45.001Z</time></trkpt><trkpt lat="48.22226012333355" lon="11.587704886103314"><ele>493.99999999999994</ele><time>2026-04-17T07:54:46.001Z</time></trkpt><trkpt lat="48.22233374174498" lon="11.587697919090827"><ele>494.0</ele><time>2026-04-17T07:54:47.001Z</time></trkpt><trkpt lat="48.22240350510235" lon="11.587691114746573"><ele>494.0</ele><time>2026-04-17T07:54:48.001Z</time></trkpt><trkpt lat="48.22247283265831" lon="11.587685108050838"><ele>494.0</ele><time>2026-04-17T07:54:49.001Z</time></trkpt><trkpt lat="48.22253951929463" lon="11.587681092658034"><ele>493.99999999999994</ele><time>2026-04-17T07:54:50.001Z</time></trkpt><trkpt lat="48.22260473175618" lon="11.587675854713135"><ele>494.0</ele><time>2026-04-17T07:54:51.001Z</time></trkpt><trkpt lat="48.22272083424185" lon="11.587660342278724"><ele>494.0</ele><time>2026-04-17T07:54:53.001Z</time></trkpt><trkpt lat="48.222812975600625" lon="11.58765214965665"><ele>494.0</ele><time>2026-04-17T07:54:55.001Z</time></trkpt><trkpt lat="48.22289848650873" lon="11.587647148053883"><ele>494.0</ele><time>2026-04-17T07:54:57.001Z</time></trkpt><trkpt lat="48.22299291131195" lon="11.58763343903476"><ele>494.0</ele><time>2026-04-17T07:54:59.001Z</time></trkpt><trkpt lat="48.22309725058461" lon="11.587619004362562"><ele>494.0</ele><time>2026-04-17T07:55:01.001Z</time></trkpt><trkpt lat="48.22320166653855" lon="11.587598801908012"><ele>493.6</ele><time>2026-04-17T07:55:03.001Z</time></trkpt><trkpt lat="48.22330765589357" lon="11.587581970083024"><ele>493.2</ele><time>2026-04-17T07:55:05.001Z</time></trkpt><trkpt lat="48.2234117349915" lon="11.587570726216295"><ele>492.80000000000007</ele><time>2026-04-17T07:55:07.001Z</time></trkpt><trkpt lat="48.223513499263625" lon="11.5875647942222"><ele>492.40000000000003</ele><time>2026-04-17T07:55:09.001Z</time></trkpt><trkpt lat="48.22361213774658" lon="11.587555290346788"><ele>492.0</ele><time>2026-04-17T07:55:11.001Z</time></trkpt><trkpt lat="48.22370245345228" lon="11.587542902639637"><ele>492.0</ele><time>2026-04-17T07:55:13.001Z</time></trkpt><trkpt lat="48.223797245884036" lon="11.587529339407048"><ele>492.00000000000006</ele><time>2026-04-17T07:55:15.001Z</time></trkpt><trkpt lat="48.22389831579218" lon="11.587516897398153"><ele>492.00000000000006</ele><time>2026-04-17T07:55:17.001Z</time></trkpt><trkpt lat="48.22400320951699" lon="11.58749585282649"><ele>492.0</ele><time>2026-04-17T07:55:19.001Z</time></trkpt><trkpt lat="48.22410361157513" lon="11.587476539309515"><ele>492.0</ele><time>2026-04-17T07:55:21.001Z</time></trkpt><trkpt lat="48.22419977692527" lon="11.58746349847034"><ele>492.40000000000003</ele><time>2026-04-17T07:55:23.001Z</time></trkpt><trkpt lat="48.22429004253718" lon="11.587445407060919"><ele>492.80000000000007</ele><time>2026-04-17T07:55:25.001Z</time></trkpt><trkpt lat="48.22437648892921" lon="11.58743206639947"><ele>493.2</ele><time>2026-04-17T07:55:27.001Z</time></trkpt><trkpt lat="48.22447072330379" lon="11.587415033952754"><ele>493.6</ele><time>2026-04-17T07:55:29.001Z</time></trkpt><trkpt lat="48.22457594574461" lon="11.587396229689807"><ele>494.0</ele><time>2026-04-17T07:55:31.001Z</time></trkpt><trkpt lat="48.22469380775826" lon="11.587380699900429"><ele>493.75</ele><time>2026-04-17T07:55:33.001Z</time></trkpt><trkpt lat="48.22481453453882" lon="11.587360720703758"><ele>493.5</ele><time>2026-04-17T07:55:35.001Z</time></trkpt><trkpt lat="48.22493263671512" lon="11.587337656566636"><ele>493.25</ele><time>2026-04-17T07:55:37.001Z</time></trkpt><trkpt lat="48.22504979761737" lon="11.58731827406685"><ele>493.0</ele><time>2026-04-17T07:55:39.001Z</time></trkpt><trkpt lat="48.22516479805208" lon="11.587296998290082"><ele>493.00000000000006</ele><time>2026-04-17T07:55:41.001Z</time></trkpt><trkpt lat="48.22528588027219" lon="11.587270942427452"><ele>493.0</ele><time>2026-04-17T07:55:43.001Z</time></trkpt><trkpt lat="48.225350262942165" lon="11.587260284233038"><ele>493.0</ele><time>2026-04-17T07:55:44.001Z</time></trkpt><trkpt lat="48.22542166859739" lon="11.587250609422437"><ele>493.0</ele><time>2026-04-17T07:55:45.001Z</time></trkpt><trkpt lat="48.22550165600061" lon="11.587234299726413"><ele>493.00000000000006</ele><time>2026-04-17T07:55:46.001Z</time></trkpt><trkpt lat="48.22559000160599" lon="11.587214885625016"><ele>493.0</ele><time>2026-04-17T07:55:47.001Z</time></trkpt><trkpt lat="48.22568460153375" lon="11.587194627073492"><ele>492.79999999999995</ele><time>2026-04-17T07:55:48.001Z</time></trkpt><trkpt lat="48.2257821882719" lon="11.587177040627529"><ele>492.59999999999997</ele><time>2026-04-17T07:55:49.001Z</time></trkpt><trkpt lat="48.225880783197695" lon="11.587154064604976"><ele>492.40000000000003</ele><time>2026-04-17T07:55:50.001Z</time></trkpt><trkpt lat="48.225979426382885" lon="11.587118727468605"><ele>492.20000000000005</ele><time>2026-04-17T07:55:51.001Z</time></trkpt><trkpt lat="48.226079690187554" lon="11.58708840953466"><ele>492.0</ele><time>2026-04-17T07:55:52.001Z</time></trkpt><trkpt lat="48.22617423342294" lon="11.587071791276635"><ele>492.0</ele><time>2026-04-17T07:55:53.001Z</time></trkpt><trkpt lat="48.22625975717254" lon="11.587054035664854"><ele>492.0</ele><time>2026-04-17T07:55:54.001Z</time></trkpt><trkpt lat="48.22633526609427" lon="11.587036550630911"><ele>492.0</ele><time>2026-04-17T07:55:55.001Z</time></trkpt><trkpt lat="48.22640580451832" lon="11.587021050024513"><ele>492.0</ele><time>2026-04-17T07:55:56.001Z</time></trkpt><trkpt lat="48.226494074864355" lon="11.586996769589934"><ele>492.0</ele><time>2026-04-17T07:55:57.001Z</time></trkpt><trkpt lat="48.22659589378502" lon="11.586971340789821"><ele>492.0</ele><time>2026-04-17T07:55:58.001Z</time></trkpt><trkpt lat="48.226695777682764" lon="11.586949092027808"><ele>491.8</ele><time>2026-04-17T07:55:59.001Z</time></trkpt><trkpt lat="48.226782041409884" lon="11.586924928401064"><ele>491.6</ele><time>2026-04-17T07:56:00.001Z</time></trkpt><trkpt lat="48.226865320346775" lon="11.586904093300014"><ele>491.40000000000003</ele><time>2026-04-17T07:56:01.001Z</time></trkpt><trkpt lat="48.22694588494525" lon="11.586883454716261"><ele>491.20000000000005</ele><time>2026-04-17T07:56:02.001Z</time></trkpt><trkpt lat="48.227039413435016" lon="11.58685848828547"><ele>491.0</ele><time>2026-04-17T07:56:03.001Z</time></trkpt><trkpt lat="48.22714910946031" lon="11.586829654915519"><ele>491.0</ele><time>2026-04-17T07:56:04.001Z</time></trkpt><trkpt lat="48.227262182125514" lon="11.586799021947588"><ele>491.0</ele><time>2026-04-17T07:56:05.001Z</time></trkpt><trkpt lat="48.22739707332021" lon="11.586758423556065"><ele>491.0</ele><time>2026-04-17T07:56:06.001Z</time></trkpt><trkpt lat="48.22753631535165" lon="11.586722966079275"><ele>491.0</ele><time>2026-04-17T07:56:07.001Z</time></trkpt><trkpt lat="48.22767557952038" lon="11.586684652085221"><ele>492.0</ele><time>2026-04-17T07:56:08.001Z</time></trkpt><trkpt lat="48.22781698761721" lon="11.586641580895805"><ele>493.0</ele><time>2026-04-17T07:56:09.001Z</time></trkpt><trkpt lat="48.227961351462774" lon="11.586597426150302"><ele>494.0</ele><time>2026-04-17T07:56:10.001Z</time></trkpt><trkpt lat="48.228110833374046" lon="11.586550934510237"><ele>495.0</ele><time>2026-04-17T07:56:11.001Z</time></trkpt><trkpt lat="48.22826484908318" lon="11.586504646337639"><ele>495.33333333333337</ele><time>2026-04-17T07:56:12.001Z</time></trkpt><trkpt lat="48.22842192515932" lon="11.586456316873198"><ele>495.6666666666667</ele><time>2026-04-17T07:56:13.001Z</time></trkpt><trkpt lat="48.228574397836766" lon="11.586407871020805"><ele>496.0</ele><time>2026-04-17T07:56:14.001Z</time></trkpt><trkpt lat="48.22871226098003" lon="11.586364963150187"><ele>496.0</ele><time>2026-04-17T07:56:15.001Z</time></trkpt><trkpt lat="48.228837692235444" lon="11.586327048897088"><ele>496.0</ele><time>2026-04-17T07:56:16.001Z</time></trkpt><trkpt lat="48.22894809757197" lon="11.586295116454934"><ele>496.0</ele><time>2026-04-17T07:56:17.001Z</time></trkpt><trkpt lat="48.22904354398" lon="11.586262552271311"><ele>496.0</ele><time>2026-04-17T07:56:18.001Z</time></trkpt><trkpt lat="48.22912748351091" lon="11.58623415480436"><ele>496.0</ele><time>2026-04-17T07:56:19.001Z</time></trkpt><trkpt lat="48.2291997362492" lon="11.58621004508689"><ele>495.33333333333337</ele><time>2026-04-17T07:56:20.001Z</time></trkpt><trkpt lat="48.229304245590015" lon="11.586176857707017"><ele>494.6666666666667</ele><time>2026-04-17T07:56:22.001Z</time></trkpt><trkpt lat="48.22938468704909" lon="11.586151701843075"><ele>494.0</ele><time>2026-04-17T07:56:24.001Z</time></trkpt><trkpt lat="48.22944939671637" lon="11.586129179169367"><ele>493.33333333333337</ele><time>2026-04-17T07:56:26.001Z</time></trkpt><trkpt lat="48.22951526374482" lon="11.586110505654348"><ele>492.6666666666667</ele><time>2026-04-17T07:56:28.001Z</time></trkpt><trkpt lat="48.22957882999251" lon="11.586086189758424"><ele>492.0</ele><time>2026-04-17T07:56:31.001Z</time></trkpt><trkpt lat="48.22965086937792" lon="11.586060299550764"><ele>492.0</ele><time>2026-04-17T07:56:56.001Z</time></trkpt><trkpt lat="48.229715140646164" lon="11.586040393680477"><ele>492.00000000000006</ele><time>2026-04-17T07:56:57.001Z</time></trkpt><trkpt lat="48.2298021947102" lon="11.58600991657339"><ele>492.00000000000006</ele><time>2026-04-17T07:56:58.001Z</time></trkpt><trkpt lat="48.22990338188797" lon="11.585975688705588"><ele>492.0</ele><time>2026-04-17T07:56:59.001Z</time></trkpt><trkpt lat="48.23001317312204" lon="11.585939731260599"><ele>492.0</ele><time>2026-04-17T07:57:00.001Z</time></trkpt><trkpt lat="48.230144780740105" lon="11.585895510866075"><ele>492.5</ele><time>2026-04-17T07:57:01.001Z</time></trkpt><trkpt lat="48.23028171621265" lon="11.585849118270547"><ele>493.0</ele><time>2026-04-17T07:57:02.001Z</time></trkpt><trkpt lat="48.230420437073" lon="11.585802317491275"><ele>493.5</ele><time>2026-04-17T07:57:03.001Z</time></trkpt><trkpt lat="48.2305644293628" lon="11.58574922714876"><ele>494.0</ele><time>2026-04-17T07:57:04.001Z</time></trkpt><trkpt lat="48.23071770053442" lon="11.585688507373117"><ele>495.0</ele><time>2026-04-17T07:57:05.001Z</time></trkpt><trkpt lat="48.23087906267344" lon="11.585626734830768"><ele>496.0</ele><time>2026-04-17T07:57:06.001Z</time></trkpt><trkpt lat="48.231039948244636" lon="11.585563748322471"><ele>497.0</ele><time>2026-04-17T07:57:07.001Z</time></trkpt><trkpt lat="48.23119359479324" lon="11.585504423887416"><ele>497.0</ele><time>2026-04-17T07:57:08.001Z</time></trkpt><trkpt lat="48.231346153670565" lon="11.585446273963004"><ele>497.0</ele><time>2026-04-17T07:57:09.001Z</time></trkpt><trkpt lat="48.231499020825076" lon="11.58538392582271"><ele>497.0</ele><time>2026-04-17T07:57:10.001Z</time></trkpt><trkpt lat="48.23164746061242" lon="11.585320532254292"><ele>496.5</ele><time>2026-04-17T07:57:11.001Z</time></trkpt><trkpt lat="48.23178756294736" lon="11.585263939277626"><ele>496.0</ele><time>2026-04-17T07:57:12.001Z</time></trkpt><trkpt lat="48.23192584698195" lon="11.585205500378445"><ele>495.5</ele><time>2026-04-17T07:57:13.001Z</time></trkpt><trkpt lat="48.232066009803724" lon="11.585146671389861"><ele>495.0</ele><time>2026-04-17T07:57:14.001Z</time></trkpt><trkpt lat="48.23220651371629" lon="11.585085627587306"><ele>494.33333333333337</ele><time>2026-04-17T07:57:15.001Z</time></trkpt><trkpt lat="48.23235532665519" lon="11.585015350154487"><ele>493.6666666666667</ele><time>2026-04-17T07:57:16.001Z</time></trkpt><trkpt lat="48.2325077906808" lon="11.584946313915912"><ele>493.0</ele><time>2026-04-17T07:57:17.001Z</time></trkpt><trkpt lat="48.232659215215406" lon="11.58488028907514"><ele>493.0</ele><time>2026-04-17T07:57:18.001Z</time></trkpt><trkpt lat="48.23280803817094" lon="11.584814891749987"><ele>493.0</ele><time>2026-04-17T07:57:19.001Z</time></trkpt><trkpt lat="48.23295363679536" lon="11.584746441345551"><ele>493.0</ele><time>2026-04-17T07:57:20.001Z</time></trkpt><trkpt lat="48.23309807107192" lon="11.58468220608353"><ele>493.0</ele><time>2026-04-17T07:57:21.001Z</time></trkpt><trkpt lat="48.23324123058172" lon="11.584617921197703"><ele>493.0</ele><time>2026-04-17T07:57:22.001Z</time></trkpt><trkpt lat="48.23338698518726" lon="11.58455409979446"><ele>493.0</ele><time>2026-04-17T07:57:23.001Z</time></trkpt><trkpt lat="48.23353612240585" lon="11.584495425985388"><ele>492.6666666666667</ele><time>2026-04-17T07:57:24.001Z</time></trkpt><trkpt lat="48.233692449733" lon="11.584438084783775"><ele>492.33333333333337</ele><time>2026-04-17T07:57:25.001Z</time></trkpt><trkpt lat="48.23385684320342" lon="11.584380961394038"><ele>492.0</ele><time>2026-04-17T07:57:26.001Z</time></trkpt><trkpt lat="48.23402763493896" lon="11.584319650407945"><ele>492.0</ele><time>2026-04-17T07:57:27.001Z</time></trkpt><trkpt lat="48.23419937642055" lon="11.584264635237263"><ele>492.0</ele><time>2026-04-17T07:57:28.001Z</time></trkpt><trkpt lat="48.234369624539795" lon="11.584212678173307"><ele>492.0</ele><time>2026-04-17T07:57:29.001Z</time></trkpt><trkpt lat="48.23453646175324" lon="11.584156606504099"><ele>492.0</ele><time>2026-04-17T07:57:30.001Z</time></trkpt><trkpt lat="48.2347023454588" lon="11.584105317079423"><ele>492.0</ele><time>2026-04-17T07:57:31.001Z</time></trkpt><trkpt lat="48.23486997151548" lon="11.58405611102944"><ele>492.0</ele><time>2026-04-17T07:57:32.001Z</time></trkpt><trkpt lat="48.23504430972014" lon="11.584001904328257"><ele>493.33333333333337</ele><time>2026-04-17T07:57:33.001Z</time></trkpt><trkpt lat="48.23522882376204" lon="11.583944498227165"><ele>494.6666666666667</ele><time>2026-04-17T07:57:34.001Z</time></trkpt><trkpt lat="48.23542111243358" lon="11.583884851150414"><ele>496.0</ele><time>2026-04-17T07:57:35.001Z</time></trkpt><trkpt lat="48.23561651271438" lon="11.58382437000021"><ele>496.33333333333337</ele><time>2026-04-17T07:57:36.001Z</time></trkpt><trkpt lat="48.23581464113138" lon="11.583763954302952"><ele>496.66666666666663</ele><time>2026-04-17T07:57:37.001Z</time></trkpt><trkpt lat="48.236008090552474" lon="11.583706190290163"><ele>497.0</ele><time>2026-04-17T07:57:38.001Z</time></trkpt><trkpt lat="48.236200393323955" lon="11.583646797898947"><ele>495.66666666666663</ele><time>2026-04-17T07:57:39.001Z</time></trkpt><trkpt lat="48.23639514593963" lon="11.583586785939866"><ele>494.33333333333337</ele><time>2026-04-17T07:57:40.001Z</time></trkpt><trkpt lat="48.236592104758486" lon="11.583525980238365"><ele>493.0</ele><time>2026-04-17T07:57:41.001Z</time></trkpt><trkpt lat="48.23679162843913" lon="11.583461595064032"><ele>492.6666666666667</ele><time>2026-04-17T07:57:42.001Z</time></trkpt><trkpt lat="48.23699118012866" lon="11.583399985329045"><ele>492.33333333333337</ele><time>2026-04-17T07:57:43.001Z</time></trkpt><trkpt lat="48.237194039155106" lon="11.58333635698867"><ele>492.0</ele><time>2026-04-17T07:57:44.001Z</time></trkpt><trkpt lat="48.237398719314186" lon="11.58327446395439"><ele>492.0</ele><time>2026-04-17T07:57:45.001Z</time></trkpt><trkpt lat="48.237606926197785" lon="11.583212406699715"><ele>492.0</ele><time>2026-04-17T07:57:46.001Z</time></trkpt><trkpt lat="48.23781906749375" lon="11.58314589178684"><ele>492.0</ele><time>2026-04-17T07:57:47.001Z</time></trkpt><trkpt lat="48.238033273521395" lon="11.58307497675159"><ele>491.0</ele><time>2026-04-17T07:57:48.001Z</time></trkpt><trkpt lat="48.23825286247527" lon="11.583007123715602"><ele>490.0</ele><time>2026-04-17T07:57:49.001Z</time></trkpt><trkpt lat="48.2384758139993" lon="11.58293785819526"><ele>490.0</ele><time>2026-04-17T07:57:50.001Z</time></trkpt><trkpt lat="48.23869534828067" lon="11.582869951445902"><ele>490.0</ele><time>2026-04-17T07:57:51.001Z</time></trkpt><trkpt lat="48.23891178695235" lon="11.582802952028448"><ele>490.0</ele><time>2026-04-17T07:57:52.001Z</time></trkpt><trkpt lat="48.23912146086655" lon="11.582740195093225"><ele>490.33333333333337</ele><time>2026-04-17T07:57:53.001Z</time></trkpt><trkpt lat="48.23932710819838" lon="11.582676607012838"><ele>490.66666666666663</ele><time>2026-04-17T07:57:54.001Z</time></trkpt><trkpt lat="48.239530986270154" lon="11.58261638421868"><ele>491.0</ele><time>2026-04-17T07:57:55.001Z</time></trkpt><trkpt lat="48.23973436965716" lon="11.58256105542171"><ele>491.0</ele><time>2026-04-17T07:57:56.001Z</time></trkpt><trkpt lat="48.23994141992818" lon="11.582519145673007"><ele>491.0</ele><time>2026-04-17T07:57:57.001Z</time></trkpt><trkpt lat="48.24015081250742" lon="11.582491538916466"><ele>491.0</ele><time>2026-04-17T07:57:58.001Z</time></trkpt><trkpt lat="48.24035891825658" lon="11.582467890693989"><ele>491.0</ele><time>2026-04-17T07:57:59.001Z</time></trkpt><trkpt lat="48.240563276992184" lon="11.582449671665232"><ele>491.0</ele><time>2026-04-17T07:58:00.001Z</time></trkpt><trkpt lat="48.240762719092814" lon="11.582437643884422"><ele>491.0</ele><time>2026-04-17T07:58:01.001Z</time></trkpt><trkpt lat="48.24095963279392" lon="11.58242687334414"><ele>491.0</ele><time>2026-04-17T07:58:02.001Z</time></trkpt><trkpt lat="48.24115670146703" lon="11.582423024630177"><ele>491.0</ele><time>2026-04-17T07:58:03.001Z</time></trkpt><trkpt lat="48.24135425792396" lon="11.582432096173173"><ele>491.0</ele><time>2026-04-17T07:58:04.001Z</time></trkpt><trkpt lat="48.24155287509625" lon="11.582450524848761"><ele>491.0</ele><time>2026-04-17T07:58:05.001Z</time></trkpt><trkpt lat="48.24175137459834" lon="11.582473196976908"><ele>491.0</ele><time>2026-04-17T07:58:06.001Z</time></trkpt><trkpt lat="48.24194764039417" lon="11.582501233713412"><ele>491.0</ele><time>2026-04-17T07:58:07.001Z</time></trkpt><trkpt lat="48.24214244015643" lon="11.582535681269084"><ele>491.0</ele><time>2026-04-17T07:58:08.001Z</time></trkpt><trkpt lat="48.24233580615409" lon="11.582566817055337"><ele>491.0</ele><time>2026-04-17T07:58:09.001Z</time></trkpt><trkpt lat="48.24252456371975" lon="11.582596468628608"><ele>491.0</ele><time>2026-04-17T07:58:10.001Z</time></trkpt><trkpt lat="48.24270908147932" lon="11.582627900139878"><ele>491.0</ele><time>2026-04-17T07:58:11.001Z</time></trkpt><trkpt lat="48.24288927754325" lon="11.582656390116213"><ele>491.0</ele><time>2026-04-17T07:58:12.001Z</time></trkpt><trkpt lat="48.243067098718555" lon="11.582688021886604"><ele>491.0</ele><time>2026-04-17T07:58:13.001Z</time></trkpt><trkpt lat="48.24324413396926" lon="11.582720583783845"><ele>491.3333333333333</ele><time>2026-04-17T07:58:14.001Z</time></trkpt><trkpt lat="48.2434218523728" lon="11.582751327267683"><ele>491.66666666666663</ele><time>2026-04-17T07:58:15Z</time></trkpt><trkpt lat="48.24360463911021" lon="11.582782590928657"><ele>492.0</ele><time>2026-04-17T07:58:16Z</time></trkpt><trkpt lat="48.24379112876304" lon="11.582816342867282"><ele>492.66666666666663</ele><time>2026-04-17T07:58:17Z</time></trkpt><trkpt lat="48.24397954808607" lon="11.582849581770056"><ele>493.3333333333333</ele><time>2026-04-17T07:58:18Z</time></trkpt><trkpt lat="48.24417094108835" lon="11.58288091443327"><ele>494.0</ele><time>2026-04-17T07:58:19Z</time></trkpt><trkpt lat="48.24436310711345" lon="11.582910513739671"><ele>494.0</ele><time>2026-04-17T07:58:20Z</time></trkpt><trkpt lat="48.24455164994303" lon="11.582940430851577"><ele>494.0</ele><time>2026-04-17T07:58:21Z</time></trkpt><trkpt lat="48.244740697691554" lon="11.582973141868953"><ele>494.0</ele><time>2026-04-17T07:58:22Z</time></trkpt><trkpt lat="48.24492391493809" lon="11.58300546896504"><ele>493.0</ele><time>2026-04-17T07:58:23Z</time></trkpt><trkpt lat="48.24509656205347" lon="11.583030825968457"><ele>492.0</ele><time>2026-04-17T07:58:24Z</time></trkpt><trkpt lat="48.245262804479104" lon="11.583048090209937"><ele>491.0</ele><time>2026-04-17T07:58:25Z</time></trkpt><trkpt lat="48.245427099575174" lon="11.5830568824954"><ele>491.0</ele><time>2026-04-17T07:58:26Z</time></trkpt><trkpt lat="48.24559085157455" lon="11.583058337230616"><ele>491.0</ele><time>2026-04-17T07:58:27Z</time></trkpt><trkpt lat="48.24575362287305" lon="11.58305595849977"><ele>491.0</ele><time>2026-04-17T07:58:28Z</time></trkpt><trkpt lat="48.245919929506464" lon="11.583048581799327"><ele>490.66666666666663</ele><time>2026-04-17T07:58:29Z</time></trkpt><trkpt lat="48.24608749660862" lon="11.58303686464459"><ele>490.33333333333337</ele><time>2026-04-17T07:58:30Z</time></trkpt><trkpt lat="48.246254232378554" lon="11.58301748050271"><ele>490.0</ele><time>2026-04-17T07:58:31Z</time></trkpt><trkpt lat="48.24642332756573" lon="11.582994542890287"><ele>490.0</ele><time>2026-04-17T07:58:32Z</time></trkpt><trkpt lat="48.24658923209112" lon="11.582970414448912"><ele>490.0</ele><time>2026-04-17T07:58:33Z</time></trkpt><trkpt lat="48.2467528819853" lon="11.582944188478994"><ele>490.0</ele><time>2026-04-17T07:58:34Z</time></trkpt><trkpt lat="48.24691435359106" lon="11.582915254417635"><ele>490.0</ele><time>2026-04-17T07:58:35Z</time></trkpt><trkpt lat="48.2470730924532" lon="11.582886043473355"><ele>490.0</ele><time>2026-04-17T07:58:36Z</time></trkpt><trkpt lat="48.247224130210455" lon="11.582860363366606"><ele>490.0</ele><time>2026-04-17T07:58:37Z</time></trkpt><trkpt lat="48.24736487972704" lon="11.582838019223988"><ele>490.5</ele><time>2026-04-17T07:58:38Z</time></trkpt><trkpt lat="48.247490318351744" lon="11.582815286449502"><ele>491.0</ele><time>2026-04-17T07:58:39Z</time></trkpt><trkpt lat="48.24761268818735" lon="11.58279303834792"><ele>491.5</ele><time>2026-04-17T07:58:40Z</time></trkpt><trkpt lat="48.24773221025904" lon="11.582771804559503"><ele>492.0</ele><time>2026-04-17T07:58:41Z</time></trkpt><trkpt lat="48.24784987413253" lon="11.58274987628756"><ele>492.0</ele><time>2026-04-17T07:58:42Z</time></trkpt><trkpt lat="48.24797552362564" lon="11.582726464538231"><ele>492.0</ele><time>2026-04-17T07:58:43Z</time></trkpt><trkpt lat="48.248107675867004" lon="11.582701431537092"><ele>492.0</ele><time>2026-04-17T07:58:44Z</time></trkpt><trkpt lat="48.248236093115864" lon="11.582676054676826"><ele>492.0</ele><time>2026-04-17T07:58:45Z</time></trkpt><trkpt lat="48.24835461630066" lon="11.582652640778567"><ele>491.40000000000003</ele><time>2026-04-17T07:58:46Z</time></trkpt><trkpt lat="48.24846728343853" lon="11.582629754243703"><ele>490.80000000000007</ele><time>2026-04-17T07:58:47Z</time></trkpt><trkpt lat="48.24857649901976" lon="11.582608398747414"><ele>490.2</ele><time>2026-04-17T07:58:48Z</time></trkpt><trkpt lat="48.24868496230659" lon="11.582590599306915"><ele>489.6</ele><time>2026-04-17T07:58:49Z</time></trkpt><trkpt lat="48.248792729020636" lon="11.582574244883023"><ele>489.0</ele><time>2026-04-17T07:58:50Z</time></trkpt><trkpt lat="48.24890524070227" lon="11.582556564687598"><ele>488.75</ele><time>2026-04-17T07:58:51Z</time></trkpt><trkpt lat="48.24902450219174" lon="11.582533618931834"><ele>488.5</ele><time>2026-04-17T07:58:52Z</time></trkpt><trkpt lat="48.24915325424131" lon="11.582507137836512"><ele>488.25</ele><time>2026-04-17T07:58:53Z</time></trkpt><trkpt lat="48.24928889277191" lon="11.582476699467462"><ele>488.0</ele><time>2026-04-17T07:58:54Z</time></trkpt><trkpt lat="48.24943336452535" lon="11.582446795341005"><ele>488.0</ele><time>2026-04-17T07:58:55Z</time></trkpt><trkpt lat="48.24957480499556" lon="11.582414869090861"><ele>488.0</ele><time>2026-04-17T07:58:56Z</time></trkpt><trkpt lat="48.249707567083114" lon="11.582379472214887"><ele>488.0</ele><time>2026-04-17T07:58:57Z</time></trkpt><trkpt lat="48.249837196538" lon="11.582336254636623"><ele>488.0</ele><time>2026-04-17T07:58:58Z</time></trkpt><trkpt lat="48.24996900070983" lon="11.582287017072295"><ele>488.0</ele><time>2026-04-17T07:58:59Z</time></trkpt><trkpt lat="48.25010269197662" lon="11.582217509617958"><ele>488.0</ele><time>2026-04-17T07:59:00Z</time></trkpt><trkpt lat="48.25023501246635" lon="11.582135290277172"><ele>488.0</ele><time>2026-04-17T07:59:01Z</time></trkpt><trkpt lat="48.25036429548993" lon="11.582044196296485"><ele>488.0</ele><time>2026-04-17T07:59:02Z</time></trkpt><trkpt lat="48.25048525963511" lon="11.581943045790506"><ele>488.0</ele><time>2026-04-17T07:59:03Z</time></trkpt><trkpt lat="48.25059648059638" lon="11.581832779702022"><ele>488.0</ele><time>2026-04-17T07:59:04Z</time></trkpt><trkpt lat="48.250698460632904" lon="11.581726739591314"><ele>488.0</ele><time>2026-04-17T07:59:05Z</time></trkpt><trkpt lat="48.250795312944724" lon="11.581616011172587"><ele>488.0</ele><time>2026-04-17T07:59:06Z</time></trkpt><trkpt lat="48.250886871825145" lon="11.581503110186995"><ele>488.0</ele><time>2026-04-17T07:59:07Z</time></trkpt><trkpt lat="48.25097156369221" lon="11.581386752022986"><ele>487.99999999999994</ele><time>2026-04-17T07:59:08Z</time></trkpt><trkpt lat="48.251048249462784" lon="11.581265634934454"><ele>487.99999999999994</ele><time>2026-04-17T07:59:09Z</time></trkpt><trkpt lat="48.25111941295323" lon="11.581144045261194"><ele>488.0</ele><time>2026-04-17T07:59:10Z</time></trkpt><trkpt lat="48.25118323427018" lon="11.581030298790832"><ele>488.0</ele><time>2026-04-17T07:59:11Z</time></trkpt><trkpt lat="48.251241203122014" lon="11.580927079539617"><ele>487.8333333333333</ele><time>2026-04-17T07:59:12Z</time></trkpt><trkpt lat="48.251291888307136" lon="11.580835594854214"><ele>487.66666666666663</ele><time>2026-04-17T07:59:13Z</time></trkpt><trkpt lat="48.251337736930466" lon="11.580751285388958"><ele>487.5</ele><time>2026-04-17T07:59:14Z</time></trkpt><trkpt lat="48.25138016402037" lon="11.580673775909014"><ele>487.33333333333337</ele><time>2026-04-17T07:59:15Z</time></trkpt><trkpt lat="48.2514227039885" lon="11.58059947500586"><ele>487.1666666666667</ele><time>2026-04-17T07:59:16Z</time></trkpt><trkpt lat="48.25146642035133" lon="11.580527053878447"><ele>487.0</ele><time>2026-04-17T07:59:17Z</time></trkpt><trkpt lat="48.25154906516271" lon="11.58038763905843"><ele>487.00000000000006</ele><time>2026-04-17T07:59:19Z</time></trkpt><trkpt lat="48.25162626782355" lon="11.580263860889456"><ele>487.0</ele><time>2026-04-17T07:59:21Z</time></trkpt><trkpt lat="48.251686698680224" lon="11.580183131722677"><ele>487.0</ele><time>2026-04-17T07:59:23Z</time></trkpt><trkpt lat="48.25174809047734" lon="11.580114250247128"><ele>487.0</ele><time>2026-04-17T07:59:26Z</time></trkpt><trkpt lat="48.25181558378862" lon="11.580061280340702"><ele>487.00000000000006</ele><time>2026-04-17T07:59:31Z</time></trkpt><trkpt lat="48.251895006971914" lon="11.580062761768572"><ele>487.0</ele><time>2026-04-17T07:59:40Z</time></trkpt><trkpt lat="48.25200738053441" lon="11.580110808860262"><ele>487.00000000000006</ele><time>2026-04-17T07:59:42Z</time></trkpt><trkpt lat="48.25207370619966" lon="11.580087961852692"><ele>487.0</ele><time>2026-04-17T07:59:43Z</time></trkpt><trkpt lat="48.25213150549141" lon="11.580037105732675"><ele>487.0</ele><time>2026-04-17T07:59:44Z</time></trkpt><trkpt lat="48.252173385512876" lon="11.579964143819085"><ele>487.0</ele><time>2026-04-17T07:59:45Z</time></trkpt><trkpt lat="48.25219789086056" lon="11.579794993473778"><ele>487.00000000000006</ele><time>2026-04-17T07:59:47Z</time></trkpt><trkpt lat="48.25216211850207" lon="11.579636608704742"><ele>487.0</ele><time>2026-04-17T07:59:49Z</time></trkpt><trkpt lat="48.25206937411243" lon="11.57950895413044"><ele>487.0</ele><time>2026-04-17T07:59:51Z</time></trkpt><trkpt lat="48.25200284497532" lon="11.579485441019745"><ele>487.0</ele><time>2026-04-17T07:59:52Z</time></trkpt><trkpt lat="48.2519315546883" lon="11.57949803707139"><ele>487.0</ele><time>2026-04-17T07:59:53Z</time></trkpt><trkpt lat="48.25186792198689" lon="11.579543824248958"><ele>487.0</ele><time>2026-04-17T07:59:54Z</time></trkpt><trkpt lat="48.25182073965579" lon="11.57961978345353"><ele>487.0</ele><time>2026-04-17T07:59:55Z</time></trkpt><trkpt lat="48.25179201363445" lon="11.579714753046463"><ele>487.0</ele><time>2026-04-17T07:59:56Z</time></trkpt><trkpt lat="48.251784583314475" lon="11.579817866176626"><ele>487.0</ele><time>2026-04-17T07:59:57Z</time></trkpt><trkpt lat="48.251798930991086" lon="11.579915518901965"><ele>487.00000000000006</ele><time>2026-04-17T07:59:58Z</time></trkpt><trkpt lat="48.2518378887071" lon="11.579998314770767"><ele>487.0</ele><time>2026-04-17T07:59:59Z</time></trkpt><trkpt lat="48.251931453412936" lon="11.580132288093269"><ele>487.0</ele><time>2026-04-17T08:00:01Z</time></trkpt><trkpt lat="48.25200637929194" lon="11.580139062590952"><ele>487.0</ele><time>2026-04-17T08:00:02Z</time></trkpt><trkpt lat="48.25207572520829" lon="11.58012210702869"><ele>487.00000000000006</ele><time>2026-04-17T08:00:03Z</time></trkpt><trkpt lat="48.252135657231236" lon="11.580070870553646"><ele>487.0</ele><time>2026-04-17T08:00:04Z</time></trkpt><trkpt lat="48.25218645994695" lon="11.579992945294373"><ele>487.00000000000006</ele><time>2026-04-17T08:00:05Z</time></trkpt><trkpt lat="48.25221533687709" lon="11.579886374874802"><ele>487.0</ele><time>2026-04-17T08:00:06Z</time></trkpt><trkpt lat="48.252218868253564" lon="11.579770043840933"><ele>487.0</ele><time>2026-04-17T08:00:07Z</time></trkpt><trkpt lat="48.252193922425135" lon="11.579654454943649"><ele>487.0</ele><time>2026-04-17T08:00:08Z</time></trkpt><trkpt lat="48.25214480961345" lon="11.579552307241885"><ele>487.00000000000006</ele><time>2026-04-17T08:00:09Z</time></trkpt><trkpt lat="48.252082012559185" lon="11.579481564099394"><ele>487.0</ele><time>2026-04-17T08:00:10Z</time></trkpt><trkpt lat="48.25200625768768" lon="11.57944710467646"><ele>487.00000000000006</ele><time>2026-04-17T08:00:11Z</time></trkpt><trkpt lat="48.25192938123279" lon="11.579457026231411"><ele>487.0</ele><time>2026-04-17T08:00:12Z</time></trkpt><trkpt lat="48.25186172941212" lon="11.57951654619751"><ele>487.0</ele><time>2026-04-17T08:00:13Z</time></trkpt><trkpt lat="48.25180795876704" lon="11.579604964399527"><ele>487.0</ele><time>2026-04-17T08:00:14Z</time></trkpt><trkpt lat="48.25177686691359" lon="11.579714768030035"><ele>487.00000000000006</ele><time>2026-04-17T08:00:15Z</time></trkpt><trkpt lat="48.251771899471194" lon="11.579844947920531"><ele>487.0</ele><time>2026-04-17T08:00:16Z</time></trkpt><trkpt lat="48.25179189390784" lon="11.57996133307859"><ele>487.0</ele><time>2026-04-17T08:00:17Z</time></trkpt><trkpt lat="48.25183701696045" lon="11.580049059907838"><ele>487.00000000000006</ele><time>2026-04-17T08:00:18Z</time></trkpt><trkpt lat="48.25192718264701" lon="11.580114652888975"><ele>487.00000000000006</ele><time>2026-04-17T08:00:20Z</time></trkpt><trkpt lat="48.252024244401206" lon="11.580230018384016"><ele>487.0</ele><time>2026-04-17T08:00:22Z</time></trkpt><trkpt lat="48.25204347459507" lon="11.580355091138248"><ele>487.0</ele><time>2026-04-17T08:00:23Z</time></trkpt><trkpt lat="48.25204785238932" lon="11.580511312451257"><ele>487.0</ele><time>2026-04-17T08:00:24Z</time></trkpt><trkpt lat="48.25204178845021" lon="11.580668398368418"><ele>487.00000000000006</ele><time>2026-04-17T08:00:25Z</time></trkpt><trkpt lat="48.252029088283244" lon="11.580826410222064"><ele>487.00000000000006</ele><time>2026-04-17T08:00:26Z</time></trkpt><trkpt lat="48.252008614831915" lon="11.580980200169652"><ele>487.0</ele><time>2026-04-17T08:00:27Z</time></trkpt><trkpt lat="48.25196071769462" lon="11.581133290646811"><ele>487.0</ele><time>2026-04-17T08:00:28Z</time></trkpt><trkpt lat="48.2519304942114" lon="11.581319842927247"><ele>487.33333333333337</ele><time>2026-04-17T08:00:29Z</time></trkpt><trkpt lat="48.25184230272739" lon="11.581514951409298"><ele>487.66666666666663</ele><time>2026-04-17T08:00:30Z</time></trkpt><trkpt lat="48.25175278374206" lon="11.581718882807067"><ele>488.0</ele><time>2026-04-17T08:00:31Z</time></trkpt><trkpt lat="48.251669656347296" lon="11.581885773030693"><ele>488.0</ele><time>2026-04-17T08:00:32Z</time></trkpt><trkpt lat="48.25159533875021" lon="11.582036262972302"><ele>488.0</ele><time>2026-04-17T08:00:33Z</time></trkpt><trkpt lat="48.25153627777248" lon="11.58218572492407"><ele>488.0</ele><time>2026-04-17T08:00:34Z</time></trkpt><trkpt lat="48.25147023922764" lon="11.582326811314688"><ele>488.0</ele><time>2026-04-17T08:00:35Z</time></trkpt><trkpt lat="48.251414172092595" lon="11.58248328352453"><ele>489.0</ele><time>2026-04-17T08:00:36Z</time></trkpt><trkpt lat="48.251362079160714" lon="11.582655017284802"><ele>490.0</ele><time>2026-04-17T08:00:37Z</time></trkpt><trkpt lat="48.25131433579117" lon="11.582833223676863"><ele>491.0</ele><time>2026-04-17T08:00:38Z</time></trkpt><trkpt lat="48.25127635442054" lon="11.583015466873997"><ele>492.0</ele><time>2026-04-17T08:00:39Z</time></trkpt><trkpt lat="48.251248998264806" lon="11.583203938487813"><ele>492.25</ele><time>2026-04-17T08:00:40Z</time></trkpt><trkpt lat="48.25122773781296" lon="11.583392989411646"><ele>492.5</ele><time>2026-04-17T08:00:41Z</time></trkpt><trkpt lat="48.25120605981427" lon="11.583600269453699"><ele>492.75</ele><time>2026-04-17T08:00:42Z</time></trkpt><trkpt lat="48.25118084022903" lon="11.583826413776523"><ele>493.0</ele><time>2026-04-17T08:00:43Z</time></trkpt><trkpt lat="48.25115172923839" lon="11.58406961230764"><ele>493.0</ele><time>2026-04-17T08:00:44Z</time></trkpt><trkpt lat="48.25111698419654" lon="11.584352033181162"><ele>493.0</ele><time>2026-04-17T08:00:45Z</time></trkpt><trkpt lat="48.25108016706177" lon="11.584658488206118"><ele>493.0</ele><time>2026-04-17T08:00:46Z</time></trkpt><trkpt lat="48.2510419337168" lon="11.584979340246745"><ele>492.6666666666667</ele><time>2026-04-17T08:00:47Z</time></trkpt><trkpt lat="48.25100295154002" lon="11.585289266046678"><ele>492.33333333333337</ele><time>2026-04-17T08:00:48Z</time></trkpt><trkpt lat="48.250961710596265" lon="11.585595314961443"><ele>492.0</ele><time>2026-04-17T08:00:49Z</time></trkpt><trkpt lat="48.2509189770309" lon="11.585912108693174"><ele>492.66666666666663</ele><time>2026-04-17T08:00:50Z</time></trkpt><trkpt lat="48.250878363621695" lon="11.586228566165895"><ele>493.3333333333333</ele><time>2026-04-17T08:00:51Z</time></trkpt><trkpt lat="48.25084023930624" lon="11.586554729659815"><ele>494.0</ele><time>2026-04-17T08:00:52Z</time></trkpt><trkpt lat="48.25079759541152" lon="11.586878357290706"><ele>493.0</ele><time>2026-04-17T08:00:53Z</time></trkpt><trkpt lat="48.25075725355998" lon="11.587194183154223"><ele>492.0</ele><time>2026-04-17T08:00:54Z</time></trkpt><trkpt lat="48.2507209848323" lon="11.587513476092758"><ele>491.0</ele><time>2026-04-17T08:00:55Z</time></trkpt><trkpt lat="48.2506771747298" lon="11.587845176301204"><ele>490.0</ele><time>2026-04-17T08:00:56Z</time></trkpt><trkpt lat="48.25063420159508" lon="11.588180828779548"><ele>489.0</ele><time>2026-04-17T08:00:57Z</time></trkpt><trkpt lat="48.25058993206197" lon="11.588510588581313"><ele>490.0</ele><time>2026-04-17T08:00:58Z</time></trkpt><trkpt lat="48.250544952756805" lon="11.588837536242412"><ele>491.0</ele><time>2026-04-17T08:00:59Z</time></trkpt><trkpt lat="48.250502152322525" lon="11.589163029419009"><ele>492.0</ele><time>2026-04-17T08:01:00Z</time></trkpt><trkpt lat="48.25046197800628" lon="11.589486934826848"><ele>492.0</ele><time>2026-04-17T08:01:01Z</time></trkpt><trkpt lat="48.25042258601496" lon="11.589794280853608"><ele>492.0</ele><time>2026-04-17T08:01:02Z</time></trkpt><trkpt lat="48.25038519347512" lon="11.59008467367698"><ele>492.0</ele><time>2026-04-17T08:01:03Z</time></trkpt><trkpt lat="48.25034426252757" lon="11.590388614347813"><ele>491.66666666666663</ele><time>2026-04-17T08:01:04Z</time></trkpt><trkpt lat="48.25030199266805" lon="11.590699513063818"><ele>491.3333333333333</ele><time>2026-04-17T08:01:05Z</time></trkpt><trkpt lat="48.25026342572437" lon="11.591019865178671"><ele>491.0</ele><time>2026-04-17T08:01:06Z</time></trkpt><trkpt lat="48.25021933402665" lon="11.591353542765884"><ele>491.0</ele><time>2026-04-17T08:01:07Z</time></trkpt><trkpt lat="48.25017299355419" lon="11.591711061988452"><ele>491.0</ele><time>2026-04-17T08:01:08Z</time></trkpt><trkpt lat="48.250123580120814" lon="11.592070026534095"><ele>491.5</ele><time>2026-04-17T08:01:09Z</time></trkpt><trkpt lat="48.250075362312366" lon="11.592449155215569"><ele>492.0</ele><time>2026-04-17T08:01:10Z</time></trkpt><trkpt lat="48.25002806825261" lon="11.592824012004531"><ele>492.0</ele><time>2026-04-17T08:01:11Z</time></trkpt><trkpt lat="48.249979218828024" lon="11.593191918092003"><ele>492.0</ele><time>2026-04-17T08:01:12Z</time></trkpt><trkpt lat="48.2499341260783" lon="11.593544231419031"><ele>492.0</ele><time>2026-04-17T08:01:13Z</time></trkpt><trkpt lat="48.24989233403007" lon="11.593873440639598"><ele>492.0</ele><time>2026-04-17T08:01:14Z</time></trkpt><trkpt lat="48.24985052292458" lon="11.594182583511015"><ele>492.0</ele><time>2026-04-17T08:01:15Z</time></trkpt><trkpt lat="48.24981019073944" lon="11.594478607806108"><ele>491.33333333333337</ele><time>2026-04-17T08:01:16Z</time></trkpt><trkpt lat="48.24977485744681" lon="11.594761409620938"><ele>490.6666666666667</ele><time>2026-04-17T08:01:17Z</time></trkpt><trkpt lat="48.24974207584404" lon="11.595028221685764"><ele>490.0</ele><time>2026-04-17T08:01:18Z</time></trkpt><trkpt lat="48.249711331457114" lon="11.595279663761387"><ele>490.0</ele><time>2026-04-17T08:01:19Z</time></trkpt><trkpt lat="48.24967947820763" lon="11.595518919308981"><ele>490.0</ele><time>2026-04-17T08:01:20Z</time></trkpt><trkpt lat="48.249649427184096" lon="11.595753136680505"><ele>490.0</ele><time>2026-04-17T08:01:21Z</time></trkpt><trkpt lat="48.24961821721359" lon="11.595995262119564"><ele>490.33333333333337</ele><time>2026-04-17T08:01:22Z</time></trkpt><trkpt lat="48.24958606357875" lon="11.59624284776815"><ele>490.66666666666663</ele><time>2026-04-17T08:01:23Z</time></trkpt><trkpt lat="48.24955248191476" lon="11.596493788215646"><ele>491.0</ele><time>2026-04-17T08:01:24Z</time></trkpt><trkpt lat="48.24951849785407" lon="11.596749981452875"><ele>491.0</ele><time>2026-04-17T08:01:25Z</time></trkpt><trkpt lat="48.24948357472808" lon="11.597005197463936"><ele>491.0</ele><time>2026-04-17T08:01:26Z</time></trkpt><trkpt lat="48.24945324853746" lon="11.597245268519135"><ele>491.0</ele><time>2026-04-17T08:01:27Z</time></trkpt><trkpt lat="48.24942735226829" lon="11.597458744423655"><ele>491.0</ele><time>2026-04-17T08:01:28Z</time></trkpt><trkpt lat="48.249406541549405" lon="11.597640749277952"><ele>491.0</ele><time>2026-04-17T08:01:29Z</time></trkpt><trkpt lat="48.24938420779091" lon="11.59781125651249"><ele>491.0</ele><time>2026-04-17T08:01:30Z</time></trkpt><trkpt lat="48.24936063086315" lon="11.597983466846388"><ele>491.0</ele><time>2026-04-17T08:01:31Z</time></trkpt><trkpt lat="48.24933545691978" lon="11.598158163021692"><ele>490.5</ele><time>2026-04-17T08:01:32Z</time></trkpt><trkpt lat="48.24931320896201" lon="11.598331985908025"><ele>490.0</ele><time>2026-04-17T08:01:33Z</time></trkpt><trkpt lat="48.24929158236249" lon="11.598502154710545"><ele>489.5</ele><time>2026-04-17T08:01:34Z</time></trkpt><trkpt lat="48.24926443122489" lon="11.598689413044688"><ele>489.0</ele><time>2026-04-17T08:01:35Z</time></trkpt><trkpt lat="48.249236379996475" lon="11.598893755671495"><ele>489.0</ele><time>2026-04-17T08:01:36Z</time></trkpt><trkpt lat="48.24921006341528" lon="11.599104299759075"><ele>489.0</ele><time>2026-04-17T08:01:37Z</time></trkpt><trkpt lat="48.24918381493786" lon="11.5993154002478"><ele>489.0</ele><time>2026-04-17T08:01:38Z</time></trkpt><trkpt lat="48.24915528254955" lon="11.599517558011403"><ele>489.0</ele><time>2026-04-17T08:01:39Z</time></trkpt><trkpt lat="48.2491247550439" lon="11.599711561117868"><ele>488.75</ele><time>2026-04-17T08:01:40Z</time></trkpt><trkpt lat="48.24909643741383" lon="11.59990397968959"><ele>488.5</ele><time>2026-04-17T08:01:41Z</time></trkpt><trkpt lat="48.2490712471319" lon="11.600093354620904"><ele>488.25</ele><time>2026-04-17T08:01:42Z</time></trkpt><trkpt lat="48.249047110557555" lon="11.600267212611818"><ele>488.0</ele><time>2026-04-17T08:01:43Z</time></trkpt><trkpt lat="48.24902276011595" lon="11.600437680905367"><ele>488.0</ele><time>2026-04-17T08:01:44Z</time></trkpt><trkpt lat="48.24900030262395" lon="11.600598972931582"><ele>487.99999999999994</ele><time>2026-04-17T08:01:45Z</time></trkpt><trkpt lat="48.24897928516044" lon="11.600756798984628"><ele>487.99999999999994</ele><time>2026-04-17T08:01:46Z</time></trkpt><trkpt lat="48.24895947690597" lon="11.600897561496595"><ele>488.0</ele><time>2026-04-17T08:01:47Z</time></trkpt><trkpt lat="48.24894228399254" lon="11.601017977449184"><ele>488.0</ele><time>2026-04-17T08:01:48Z</time></trkpt><trkpt lat="48.24892992541362" lon="11.601126556305056"><ele>487.8333333333333</ele><time>2026-04-17T08:01:49Z</time></trkpt><trkpt lat="48.248917360257785" lon="11.601228651996344"><ele>487.66666666666663</ele><time>2026-04-17T08:01:50Z</time></trkpt><trkpt lat="48.248897499867205" lon="11.601398696896382"><ele>487.5</ele><time>2026-04-17T08:01:52Z</time></trkpt><trkpt lat="48.24888081697655" lon="11.601538156581244"><ele>487.33333333333337</ele><time>2026-04-17T08:01:54Z</time></trkpt><trkpt lat="48.248863564948095" lon="11.601641776835066"><ele>487.1666666666667</ele><time>2026-04-17T08:01:56Z</time></trkpt><trkpt lat="48.24884792873895" lon="11.60173455009166"><ele>487.0</ele><time>2026-04-17T08:01:59Z</time></trkpt><trkpt lat="48.2488240460537" lon="11.601874282031792"><ele>487.0</ele><time>2026-04-17T08:03:06Z</time></trkpt><trkpt lat="48.24882459483814" lon="11.60197936448803"><ele>487.0</ele><time>2026-04-17T08:03:09.001Z</time></trkpt><trkpt lat="48.24902823282414" lon="11.602120344129242"><ele>487.0</ele><time>2026-04-17T08:03:18.001Z</time></trkpt><trkpt lat="48.2491160752995" lon="11.602113931986976"><ele>487.0</ele><time>2026-04-17T08:03:19.001Z</time></trkpt><trkpt lat="48.249202795019215" lon="11.602094418149523"><ele>486.8</ele><time>2026-04-17T08:03:20.001Z</time></trkpt><trkpt lat="48.249299200453365" lon="11.602079891280917"><ele>486.6</ele><time>2026-04-17T08:03:21.001Z</time></trkpt><trkpt lat="48.24940081032176" lon="11.602058012454734"><ele>486.40000000000003</ele><time>2026-04-17T08:03:22.001Z</time></trkpt><trkpt lat="48.24950572893988" lon="11.602030673161206"><ele>486.20000000000005</ele><time>2026-04-17T08:03:23.001Z</time></trkpt><trkpt lat="48.24961439128657" lon="11.602007187399161"><ele>486.0</ele><time>2026-04-17T08:03:24.001Z</time></trkpt><trkpt lat="48.249722870094196" lon="11.601985860567266"><ele>485.75</ele><time>2026-04-17T08:03:25.001Z</time></trkpt><trkpt lat="48.249833087407374" lon="11.601961407983717"><ele>485.5</ele><time>2026-04-17T08:03:26.001Z</time></trkpt><trkpt lat="48.24994397502932" lon="11.601934089127008"><ele>485.25</ele><time>2026-04-17T08:03:27.001Z</time></trkpt><trkpt lat="48.25005508458465" lon="11.601906368345837"><ele>485.0</ele><time>2026-04-17T08:03:28.001Z</time></trkpt><trkpt lat="48.25016751169833" lon="11.601877482668334"><ele>485.0</ele><time>2026-04-17T08:03:29.001Z</time></trkpt><trkpt lat="48.2502801916958" lon="11.601846074939763"><ele>485.0</ele><time>2026-04-17T08:03:30.001Z</time></trkpt><trkpt lat="48.25039363245237" lon="11.601812820062568"><ele>485.0</ele><time>2026-04-17T08:03:31.001Z</time></trkpt><trkpt lat="48.25050490887231" lon="11.601777754551621"><ele>485.0</ele><time>2026-04-17T08:03:32Z</time></trkpt><trkpt lat="48.25061653363026" lon="11.60174611558186"><ele>485.0</ele><time>2026-04-17T08:03:33Z</time></trkpt><trkpt lat="48.250734620920454" lon="11.601714993898797"><ele>485.0</ele><time>2026-04-17T08:03:34Z</time></trkpt><trkpt lat="48.250858109656704" lon="11.601679524504858"><ele>485.0</ele><time>2026-04-17T08:03:35Z</time></trkpt><trkpt lat="48.250987495459405" lon="11.601637995758647"><ele>485.0</ele><time>2026-04-17T08:03:36Z</time></trkpt><trkpt lat="48.251118123982145" lon="11.60159369269526"><ele>485.0</ele><time>2026-04-17T08:03:37Z</time></trkpt><trkpt lat="48.25124866684911" lon="11.601547124743407"><ele>485.0</ele><time>2026-04-17T08:03:38Z</time></trkpt><trkpt lat="48.25137401388516" lon="11.601503358056599"><ele>485.0</ele><time>2026-04-17T08:03:39Z</time></trkpt><trkpt lat="48.25149265759557" lon="11.601460444901164"><ele>485.0</ele><time>2026-04-17T08:03:40Z</time></trkpt><trkpt lat="48.251605523259" lon="11.601417869654048"><ele>484.5</ele><time>2026-04-17T08:03:41Z</time></trkpt><trkpt lat="48.2517176861946" lon="11.601371649187525"><ele>484.0</ele><time>2026-04-17T08:03:42Z</time></trkpt><trkpt lat="48.25183253382835" lon="11.601327558463858"><ele>483.5</ele><time>2026-04-17T08:03:43Z</time></trkpt><trkpt lat="48.25194918353767" lon="11.601281395785747"><ele>483.0</ele><time>2026-04-17T08:03:44Z</time></trkpt><trkpt lat="48.25206792621036" lon="11.601230658466397"><ele>483.0</ele><time>2026-04-17T08:03:45Z</time></trkpt><trkpt lat="48.25219269893685" lon="11.60117608078453"><ele>483.0</ele><time>2026-04-17T08:03:46Z</time></trkpt><trkpt lat="48.252327060124635" lon="11.601114417970289"><ele>483.0</ele><time>2026-04-17T08:03:47Z</time></trkpt><trkpt lat="48.252474491390025" lon="11.601051033353986"><ele>483.0</ele><time>2026-04-17T08:03:48Z</time></trkpt><trkpt lat="48.252643246351056" lon="11.600972720052582"><ele>483.0</ele><time>2026-04-17T08:03:49Z</time></trkpt><trkpt lat="48.252817719922575" lon="11.600891436367036"><ele>483.0</ele><time>2026-04-17T08:03:50Z</time></trkpt><trkpt lat="48.25298668424482" lon="11.60081440802029"><ele>483.0</ele><time>2026-04-17T08:03:51Z</time></trkpt><trkpt lat="48.253150067996096" lon="11.600737861795855"><ele>483.0</ele><time>2026-04-17T08:03:52Z</time></trkpt><trkpt lat="48.25331233002096" lon="11.600661779180971"><ele>483.0</ele><time>2026-04-17T08:03:53Z</time></trkpt><trkpt lat="48.25347360057758" lon="11.600585934261316"><ele>483.0</ele><time>2026-04-17T08:03:54Z</time></trkpt><trkpt lat="48.25363888298137" lon="11.600509385518581"><ele>483.0</ele><time>2026-04-17T08:03:55Z</time></trkpt><trkpt lat="48.253806943819406" lon="11.600430438650733"><ele>483.0</ele><time>2026-04-17T08:03:56Z</time></trkpt><trkpt lat="48.25397365214028" lon="11.600353387974089"><ele>483.0</ele><time>2026-04-17T08:03:57Z</time></trkpt><trkpt lat="48.254130051171565" lon="11.600278832117507"><ele>484.33333333333337</ele><time>2026-04-17T08:03:58Z</time></trkpt><trkpt lat="48.254285828470955" lon="11.60020299415762"><ele>485.6666666666667</ele><time>2026-04-17T08:03:59Z</time></trkpt><trkpt lat="48.254442400415165" lon="11.6001276729048"><ele>487.0</ele><time>2026-04-17T08:04:00Z</time></trkpt><trkpt lat="48.25460010204045" lon="11.600052260638508"><ele>487.0</ele><time>2026-04-17T08:04:01Z</time></trkpt><trkpt lat="48.25475896583399" lon="11.599977913604631"><ele>487.0</ele><time>2026-04-17T08:04:02Z</time></trkpt><trkpt lat="48.2549207094172" lon="11.599903497577863"><ele>487.0</ele><time>2026-04-17T08:04:03Z</time></trkpt><trkpt lat="48.25508303670734" lon="11.59982722730691"><ele>485.6666666666667</ele><time>2026-04-17T08:04:04Z</time></trkpt><trkpt lat="48.255247156929606" lon="11.599748327688538"><ele>484.33333333333337</ele><time>2026-04-17T08:04:05Z</time></trkpt><trkpt lat="48.25541520539796" lon="11.599671499554848"><ele>483.0</ele><time>2026-04-17T08:04:06Z</time></trkpt><trkpt lat="48.255583464915105" lon="11.599591647205902"><ele>482.33333333333337</ele><time>2026-04-17T08:04:07Z</time></trkpt><trkpt lat="48.25574957712168" lon="11.599513516205265"><ele>481.6666666666667</ele><time>2026-04-17T08:04:08Z</time></trkpt><trkpt lat="48.255921586513345" lon="11.59943175399364"><ele>481.0</ele><time>2026-04-17T08:04:09Z</time></trkpt><trkpt lat="48.25609911845522" lon="11.599346435267732"><ele>482.0</ele><time>2026-04-17T08:04:10Z</time></trkpt><trkpt lat="48.25628341039925" lon="11.599260761811088"><ele>483.0</ele><time>2026-04-17T08:04:11Z</time></trkpt><trkpt lat="48.25646792438292" lon="11.599175257507113"><ele>484.0</ele><time>2026-04-17T08:04:12Z</time></trkpt><trkpt lat="48.256643574929875" lon="11.599093046409434"><ele>484.0</ele><time>2026-04-17T08:04:13Z</time></trkpt><trkpt lat="48.256808770484945" lon="11.599014945076316"><ele>484.0</ele><time>2026-04-17T08:04:14Z</time></trkpt><trkpt lat="48.25696647674588" lon="11.598938863893721"><ele>484.0</ele><time>2026-04-17T08:04:15Z</time></trkpt><trkpt lat="48.25711996698866" lon="11.598863559393997"><ele>484.0</ele><time>2026-04-17T08:04:16Z</time></trkpt><trkpt lat="48.25727437261423" lon="11.598789110586742"><ele>484.0</ele><time>2026-04-17T08:04:17Z</time></trkpt><trkpt lat="48.25743515712839" lon="11.59871333349891"><ele>484.0</ele><time>2026-04-17T08:04:18Z</time></trkpt><trkpt lat="48.25760561390932" lon="11.598634056209674"><ele>483.6666666666667</ele><time>2026-04-17T08:04:19Z</time></trkpt><trkpt lat="48.25778529722917" lon="11.598548748637258"><ele>483.33333333333337</ele><time>2026-04-17T08:04:20Z</time></trkpt><trkpt lat="48.25797082268646" lon="11.598461391163042"><ele>483.0</ele><time>2026-04-17T08:04:21Z</time></trkpt><trkpt lat="48.25815037247402" lon="11.598378404577833"><ele>483.0</ele><time>2026-04-17T08:04:22Z</time></trkpt><trkpt lat="48.25832220841768" lon="11.598299019032982"><ele>483.0</ele><time>2026-04-17T08:04:23Z</time></trkpt><trkpt lat="48.25849357598136" lon="11.598219203564755"><ele>483.0</ele><time>2026-04-17T08:04:24Z</time></trkpt><trkpt lat="48.258668033265636" lon="11.59813516062556"><ele>483.0</ele><time>2026-04-17T08:04:25Z</time></trkpt><trkpt lat="48.25884754289368" lon="11.598049598893063"><ele>483.0</ele><time>2026-04-17T08:04:26Z</time></trkpt><trkpt lat="48.25902315201199" lon="11.597966251130096"><ele>483.0</ele><time>2026-04-17T08:04:27Z</time></trkpt><trkpt lat="48.25919236407782" lon="11.5978890502964"><ele>483.33333333333337</ele><time>2026-04-17T08:04:28Z</time></trkpt><trkpt lat="48.25935736600703" lon="11.597813539244443"><ele>483.6666666666667</ele><time>2026-04-17T08:04:29Z</time></trkpt><trkpt lat="48.25952456892033" lon="11.597734778970077"><ele>484.0</ele><time>2026-04-17T08:04:30Z</time></trkpt><trkpt lat="48.259693640516524" lon="11.597652340057774"><ele>483.33333333333337</ele><time>2026-04-17T08:04:31Z</time></trkpt><trkpt lat="48.25986359533089" lon="11.597570644710759"><ele>482.66666666666663</ele><time>2026-04-17T08:04:32Z</time></trkpt><trkpt lat="48.26002655309759" lon="11.597492100658808"><ele>482.0</ele><time>2026-04-17T08:04:33Z</time></trkpt><trkpt lat="48.260186329466116" lon="11.597415667720377"><ele>482.0</ele><time>2026-04-17T08:04:34Z</time></trkpt><trkpt lat="48.26034587296148" lon="11.597338817794434"><ele>482.0</ele><time>2026-04-17T08:04:35Z</time></trkpt><trkpt lat="48.26050614030129" lon="11.597265526684719"><ele>482.0</ele><time>2026-04-17T08:04:36Z</time></trkpt><trkpt lat="48.26066737924754" lon="11.597189633819335"><ele>481.0</ele><time>2026-04-17T08:04:37Z</time></trkpt><trkpt lat="48.260828245425536" lon="11.597112126519372"><ele>480.0</ele><time>2026-04-17T08:04:38Z</time></trkpt><trkpt lat="48.260986938210905" lon="11.597036599996152"><ele>479.0</ele><time>2026-04-17T08:04:39Z</time></trkpt><trkpt lat="48.26114075350116" lon="11.596961405951271"><ele>479.0</ele><time>2026-04-17T08:04:40Z</time></trkpt><trkpt lat="48.26128387462543" lon="11.596891740761722"><ele>479.0</ele><time>2026-04-17T08:04:41Z</time></trkpt><trkpt lat="48.26141625123207" lon="11.59682934159922"><ele>479.0</ele><time>2026-04-17T08:04:42Z</time></trkpt><trkpt lat="48.261540597310834" lon="11.596772573838669"><ele>479.0</ele><time>2026-04-17T08:04:43Z</time></trkpt><trkpt lat="48.2616632427271" lon="11.59671401195839"><ele>478.5</ele><time>2026-04-17T08:04:44Z</time></trkpt><trkpt lat="48.26178478144605" lon="11.596658258942213"><ele>478.0</ele><time>2026-04-17T08:04:45Z</time></trkpt><trkpt lat="48.26190632138206" lon="11.59659862374887"><ele>477.5</ele><time>2026-04-17T08:04:46Z</time></trkpt><trkpt lat="48.26202765511339" lon="11.596532173242391"><ele>477.0</ele><time>2026-04-17T08:04:47Z</time></trkpt><trkpt lat="48.262149960197526" lon="11.596466558823488"><ele>477.0</ele><time>2026-04-17T08:04:48Z</time></trkpt><trkpt lat="48.26227657823134" lon="11.596401706292648"><ele>477.0</ele><time>2026-04-17T08:04:49Z</time></trkpt><trkpt lat="48.26241136228115" lon="11.596336082457892"><ele>477.0</ele><time>2026-04-17T08:04:50Z</time></trkpt><trkpt lat="48.26255479155039" lon="11.596267033522125"><ele>477.0</ele><time>2026-04-17T08:04:51Z</time></trkpt><trkpt lat="48.26270449824195" lon="11.596192750216018"><ele>477.0</ele><time>2026-04-17T08:04:52Z</time></trkpt><trkpt lat="48.262851261740444" lon="11.5961232653739"><ele>477.0</ele><time>2026-04-17T08:04:53Z</time></trkpt><trkpt lat="48.26298647282444" lon="11.596059179371489"><ele>477.0</ele><time>2026-04-17T08:04:54Z</time></trkpt><trkpt lat="48.26310949892502" lon="11.595998351338269"><ele>477.0</ele><time>2026-04-17T08:04:55Z</time></trkpt><trkpt lat="48.263224886590955" lon="11.595945020629518"><ele>477.0</ele><time>2026-04-17T08:04:56Z</time></trkpt><trkpt lat="48.263335287088566" lon="11.595894327586386"><ele>477.0</ele><time>2026-04-17T08:04:57Z</time></trkpt><trkpt lat="48.263446489690104" lon="11.595841726279673"><ele>477.0</ele><time>2026-04-17T08:04:58.001Z</time></trkpt><trkpt lat="48.26356093420534" lon="11.595786125961869"><ele>477.0</ele><time>2026-04-17T08:04:59.001Z</time></trkpt><trkpt lat="48.26368035939304" lon="11.59572967678828"><ele>477.0</ele><time>2026-04-17T08:05:00.001Z</time></trkpt><trkpt lat="48.263800212178694" lon="11.595674743094746"><ele>477.0</ele><time>2026-04-17T08:05:01.001Z</time></trkpt><trkpt lat="48.263910134285865" lon="11.59562428579997"><ele>477.0</ele><time>2026-04-17T08:05:02.001Z</time></trkpt><trkpt lat="48.264013762424845" lon="11.595575698409643"><ele>477.0</ele><time>2026-04-17T08:05:03.001Z</time></trkpt><trkpt lat="48.264112659391394" lon="11.595530063817366"><ele>477.6</ele><time>2026-04-17T08:05:04.001Z</time></trkpt><trkpt lat="48.26420625989125" lon="11.595487894770097"><ele>478.20000000000005</ele><time>2026-04-17T08:05:05.001Z</time></trkpt><trkpt lat="48.26429397355487" lon="11.595445850320129"><ele>478.8</ele><time>2026-04-17T08:05:06.001Z</time></trkpt><trkpt lat="48.26438318119752" lon="11.595420203074754"><ele>479.4</ele><time>2026-04-17T08:05:07.001Z</time></trkpt><trkpt lat="48.2644727514087" lon="11.595400681774251"><ele>480.0</ele><time>2026-04-17T08:05:08.001Z</time></trkpt><trkpt lat="48.26456122874651" lon="11.595368527552203"><ele>479.8333333333333</ele><time>2026-04-17T08:05:09.001Z</time></trkpt><trkpt lat="48.264643988685734" lon="11.595330718831027"><ele>479.66666666666663</ele><time>2026-04-17T08:05:10.001Z</time></trkpt><trkpt lat="48.26471817084557" lon="11.595294038101647"><ele>479.5</ele><time>2026-04-17T08:05:11.001Z</time></trkpt><trkpt lat="48.26478613466332" lon="11.595260945611917"><ele>479.3333333333333</ele><time>2026-04-17T08:05:12.001Z</time></trkpt><trkpt lat="48.26484501978156" lon="11.59521250114468"><ele>479.16666666666663</ele><time>2026-04-17T08:05:13.001Z</time></trkpt><trkpt lat="48.26496446799289" lon="11.59521090865828"><ele>479.0</ele><time>2026-04-17T08:05:15.001Z</time></trkpt><trkpt lat="48.265047843934106" lon="11.595231360986713"><ele>479.0</ele><time>2026-04-17T08:05:17.001Z</time></trkpt><trkpt lat="48.26511991945378" lon="11.595275497111563"><ele>479.0</ele><time>2026-04-17T08:05:19.001Z</time></trkpt><trkpt lat="48.26521719368036" lon="11.595377804630761"><ele>479.0</ele><time>2026-04-17T08:05:21.001Z</time></trkpt><trkpt lat="48.26529567293788" lon="11.595512908460003"><ele>479.0</ele><time>2026-04-17T08:05:23.001Z</time></trkpt><trkpt lat="48.265346797461504" lon="11.595611378438601"><ele>479.0</ele><time>2026-04-17T08:05:25.001Z</time></trkpt><trkpt lat="48.265395216669326" lon="11.595712974592695"><ele>479.0</ele><time>2026-04-17T08:05:27.001Z</time></trkpt><trkpt lat="48.26543749602053" lon="11.595784191598879"><ele>479.0</ele><time>2026-04-17T08:05:28.001Z</time></trkpt><trkpt lat="48.26548261564522" lon="11.595868484253618"><ele>479.0</ele><time>2026-04-17T08:05:29Z</time></trkpt><trkpt lat="48.265523600165466" lon="11.595942638405285"><ele>479.0</ele><time>2026-04-17T08:05:30Z</time></trkpt><trkpt lat="48.26557960404137" lon="11.596026825282982"><ele>479.0</ele><time>2026-04-17T08:05:32Z</time></trkpt><trkpt lat="48.265634406082" lon="11.596124193304163"><ele>479.0</ele><time>2026-04-17T08:05:35Z</time></trkpt><trkpt lat="48.26568087322875" lon="11.596197262968271"><ele>479.0</ele><time>2026-04-17T08:05:36Z</time></trkpt><trkpt lat="48.26574862739259" lon="11.596274147014716"><ele>479.4</ele><time>2026-04-17T08:05:37Z</time></trkpt><trkpt lat="48.26582788900141" lon="11.59635461715801"><ele>479.79999999999995</ele><time>2026-04-17T08:05:38Z</time></trkpt><trkpt lat="48.26590708457045" lon="11.596429709447918"><ele>480.20000000000005</ele><time>2026-04-17T08:05:39Z</time></trkpt><trkpt lat="48.26599166534618" lon="11.596494473708928"><ele>480.6</ele><time>2026-04-17T08:05:40Z</time></trkpt><trkpt lat="48.26608667326878" lon="11.596549889395424"><ele>481.0</ele><time>2026-04-17T08:05:41Z</time></trkpt><trkpt lat="48.26619435551845" lon="11.596605997809727"><ele>481.0</ele><time>2026-04-17T08:05:42Z</time></trkpt><trkpt lat="48.266320114191025" lon="11.596663809648167"><ele>481.0</ele><time>2026-04-17T08:05:43Z</time></trkpt><trkpt lat="48.26646483423257" lon="11.59671078501191"><ele>481.0</ele><time>2026-04-17T08:05:44Z</time></trkpt><trkpt lat="48.26661280186607" lon="11.596718861634718"><ele>481.0</ele><time>2026-04-17T08:05:45Z</time></trkpt><trkpt lat="48.266750217019144" lon="11.596720938567742"><ele>480.5</ele><time>2026-04-17T08:05:46Z</time></trkpt><trkpt lat="48.26689332128119" lon="11.596723222774983"><ele>480.0</ele><time>2026-04-17T08:05:47Z</time></trkpt><trkpt lat="48.267040761971295" lon="11.596722208687575"><ele>479.5</ele><time>2026-04-17T08:05:48Z</time></trkpt><trkpt lat="48.267188389713255" lon="11.596724861977785"><ele>479.0</ele><time>2026-04-17T08:05:49Z</time></trkpt><trkpt lat="48.267331053967204" lon="11.596737734755019"><ele>479.0</ele><time>2026-04-17T08:05:50Z</time></trkpt><trkpt lat="48.267469543409376" lon="11.596766830765537"><ele>479.0</ele><time>2026-04-17T08:05:51Z</time></trkpt><trkpt lat="48.267607700779095" lon="11.59682099810603"><ele>479.0</ele><time>2026-04-17T08:05:52Z</time></trkpt><trkpt lat="48.267752267902196" lon="11.59690076671912"><ele>479.0</ele><time>2026-04-17T08:05:53Z</time></trkpt><trkpt lat="48.26790667225065" lon="11.597007652170996"><ele>479.3333333333333</ele><time>2026-04-17T08:05:54Z</time></trkpt><trkpt lat="48.26806674549317" lon="11.597133991978135"><ele>479.66666666666663</ele><time>2026-04-17T08:05:55Z</time></trkpt><trkpt lat="48.268224402201774" lon="11.59726514515877"><ele>480.0</ele><time>2026-04-17T08:05:56Z</time></trkpt><trkpt lat="48.2683769189927" lon="11.597399444914137"><ele>479.66666666666663</ele><time>2026-04-17T08:05:57Z</time></trkpt><trkpt lat="48.26853340938473" lon="11.597539220678579"><ele>479.3333333333333</ele><time>2026-04-17T08:05:58Z</time></trkpt><trkpt lat="48.268700807971854" lon="11.597686956507646"><ele>479.0</ele><time>2026-04-17T08:05:59Z</time></trkpt><trkpt lat="48.26887742368657" lon="11.597842329077023"><ele>480.5</ele><time>2026-04-17T08:06:00Z</time></trkpt><trkpt lat="48.269069505669265" lon="11.598014139941496"><ele>482.0</ele><time>2026-04-17T08:06:01Z</time></trkpt><trkpt lat="48.26927807263007" lon="11.598190475779647"><ele>482.0</ele><time>2026-04-17T08:06:02Z</time></trkpt><trkpt lat="48.26947074503107" lon="11.598358243173882"><ele>482.0</ele><time>2026-04-17T08:06:03Z</time></trkpt><trkpt lat="48.26965181893108" lon="11.598518908176935"><ele>482.0</ele><time>2026-04-17T08:06:04Z</time></trkpt><trkpt lat="48.26982944655656" lon="11.5986756548044"><ele>482.66666666666663</ele><time>2026-04-17T08:06:05Z</time></trkpt><trkpt lat="48.27000513639781" lon="11.598830857302598"><ele>483.33333333333337</ele><time>2026-04-17T08:06:06Z</time></trkpt><trkpt lat="48.27017715881798" lon="11.598982273008277"><ele>484.0</ele><time>2026-04-17T08:06:07Z</time></trkpt><trkpt lat="48.27034518671356" lon="11.599133587935071"><ele>484.0</ele><time>2026-04-17T08:06:08Z</time></trkpt><trkpt lat="48.27051277284772" lon="11.599279484767417"><ele>484.0</ele><time>2026-04-17T08:06:09Z</time></trkpt><trkpt lat="48.27067885137327" lon="11.599421523123503"><ele>484.0</ele><time>2026-04-17T08:06:10Z</time></trkpt><trkpt lat="48.27084731519141" lon="11.599567464239668"><ele>483.6666666666667</ele><time>2026-04-17T08:06:11Z</time></trkpt><trkpt lat="48.271015013362806" lon="11.59972760134401"><ele>483.33333333333337</ele><time>2026-04-17T08:06:12Z</time></trkpt><trkpt lat="48.27119201223922" lon="11.599873045662264"><ele>483.0</ele><time>2026-04-17T08:06:13Z</time></trkpt><trkpt lat="48.27136531745648" lon="11.600041897968431"><ele>482.66666666666663</ele><time>2026-04-17T08:06:14Z</time></trkpt><trkpt lat="48.27154907877666" lon="11.600175648056416"><ele>482.3333333333333</ele><time>2026-04-17T08:06:15Z</time></trkpt><trkpt lat="48.27170780365251" lon="11.600313398529005"><ele>482.0</ele><time>2026-04-17T08:06:16Z</time></trkpt><trkpt lat="48.27186245010402" lon="11.60045092215096"><ele>481.66666666666663</ele><time>2026-04-17T08:06:17Z</time></trkpt><trkpt lat="48.27202579850215" lon="11.600595346606138"><ele>481.33333333333337</ele><time>2026-04-17T08:06:18Z</time></trkpt><trkpt lat="48.27220136126099" lon="11.600751730365108"><ele>481.0</ele><time>2026-04-17T08:06:19Z</time></trkpt><trkpt lat="48.27237307609823" lon="11.600902662537774"><ele>481.0</ele><time>2026-04-17T08:06:20Z</time></trkpt><trkpt lat="48.27254538618591" lon="11.601048428405916"><ele>481.0</ele><time>2026-04-17T08:06:21Z</time></trkpt><trkpt lat="48.27271557741227" lon="11.60119601857801"><ele>481.0</ele><time>2026-04-17T08:06:22Z</time></trkpt><trkpt lat="48.2728864917719" lon="11.601346085169459"><ele>481.0</ele><time>2026-04-17T08:06:23Z</time></trkpt><trkpt lat="48.27305755347966" lon="11.601496051526592"><ele>481.0</ele><time>2026-04-17T08:06:24Z</time></trkpt><trkpt lat="48.27322949975306" lon="11.601647019912171"><ele>481.0</ele><time>2026-04-17T08:06:25Z</time></trkpt><trkpt lat="48.27340334335584" lon="11.601803825261651"><ele>481.0</ele><time>2026-04-17T08:06:26Z</time></trkpt><trkpt lat="48.27358549633334" lon="11.60196419577419"><ele>481.0</ele><time>2026-04-17T08:06:27Z</time></trkpt><trkpt lat="48.273778503183955" lon="11.60213068637563"><ele>481.0</ele><time>2026-04-17T08:06:28Z</time></trkpt><trkpt lat="48.27396887709452" lon="11.602294320576544"><ele>480.0</ele><time>2026-04-17T08:06:29Z</time></trkpt><trkpt lat="48.27415278136401" lon="11.602457177895555"><ele>479.0</ele><time>2026-04-17T08:06:30Z</time></trkpt><trkpt lat="48.2743306164123" lon="11.60261400195908"><ele>478.0</ele><time>2026-04-17T08:06:31Z</time></trkpt><trkpt lat="48.274506184387754" lon="11.602767327538029"><ele>478.33333333333337</ele><time>2026-04-17T08:06:32Z</time></trkpt><trkpt lat="48.274678044381155" lon="11.602917056440317"><ele>478.66666666666663</ele><time>2026-04-17T08:06:33Z</time></trkpt><trkpt lat="48.274847122610375" lon="11.603066096267376"><ele>479.0</ele><time>2026-04-17T08:06:34Z</time></trkpt><trkpt lat="48.275017421902156" lon="11.60321451624858"><ele>478.0</ele><time>2026-04-17T08:06:35Z</time></trkpt><trkpt lat="48.275190140020094" lon="11.603362676264316"><ele>477.0</ele><time>2026-04-17T08:06:36Z</time></trkpt><trkpt lat="48.27536489621079" lon="11.603512592019104"><ele>476.0</ele><time>2026-04-17T08:06:37Z</time></trkpt><trkpt lat="48.275540269135625" lon="11.603666239538061"><ele>476.0</ele><time>2026-04-17T08:06:38Z</time></trkpt><trkpt lat="48.27571440287314" lon="11.603819413697797"><ele>476.0</ele><time>2026-04-17T08:06:39Z</time></trkpt><trkpt lat="48.275887704441786" lon="11.603969007996575"><ele>476.0</ele><time>2026-04-17T08:06:40Z</time></trkpt><trkpt lat="48.27605641867378" lon="11.604115751307596"><ele>476.0</ele><time>2026-04-17T08:06:41Z</time></trkpt><trkpt lat="48.27622177426446" lon="11.604261940863035"><ele>476.0</ele><time>2026-04-17T08:06:42Z</time></trkpt><trkpt lat="48.27638338377547" lon="11.604407032060628"><ele>476.0</ele><time>2026-04-17T08:06:43Z</time></trkpt><trkpt lat="48.27654352094437" lon="11.6045496398402"><ele>475.66666666666663</ele><time>2026-04-17T08:06:44Z</time></trkpt><trkpt lat="48.27671173090005" lon="11.604697287441967"><ele>475.33333333333337</ele><time>2026-04-17T08:06:45Z</time></trkpt><trkpt lat="48.276890318562536" lon="11.604853777215812"><ele>475.0</ele><time>2026-04-17T08:06:46Z</time></trkpt><trkpt lat="48.27707804862509" lon="11.605018508697153"><ele>475.5</ele><time>2026-04-17T08:06:47Z</time></trkpt><trkpt lat="48.277285339557594" lon="11.60519881172668"><ele>476.0</ele><time>2026-04-17T08:06:48Z</time></trkpt><trkpt lat="48.277487563725636" lon="11.605376840440211"><ele>476.0</ele><time>2026-04-17T08:06:49Z</time></trkpt><trkpt lat="48.27767733051347" lon="11.605544979396344"><ele>476.0</ele><time>2026-04-17T08:06:50Z</time></trkpt><trkpt lat="48.277858680540874" lon="11.605702590289384"><ele>476.0</ele><time>2026-04-17T08:06:51Z</time></trkpt><trkpt lat="48.27803003802238" lon="11.60585306556832"><ele>476.3333333333333</ele><time>2026-04-17T08:06:52Z</time></trkpt><trkpt lat="48.278190280579686" lon="11.605992445321638"><ele>476.66666666666663</ele><time>2026-04-17T08:06:53Z</time></trkpt><trkpt lat="48.27834425908214" lon="11.606125442809347"><ele>477.0</ele><time>2026-04-17T08:06:54Z</time></trkpt><trkpt lat="48.27850081361116" lon="11.60625516122065"><ele>477.0</ele><time>2026-04-17T08:06:55Z</time></trkpt><trkpt lat="48.2786555209312" lon="11.60639482375513"><ele>477.0</ele><time>2026-04-17T08:06:56Z</time></trkpt><trkpt lat="48.278810737967376" lon="11.606539633789474"><ele>477.0</ele><time>2026-04-17T08:06:57Z</time></trkpt><trkpt lat="48.27897090612683" lon="11.606676831128727"><ele>477.0</ele><time>2026-04-17T08:06:58Z</time></trkpt><trkpt lat="48.27912735999837" lon="11.606827548121341"><ele>477.0</ele><time>2026-04-17T08:06:59Z</time></trkpt><trkpt lat="48.27930030976401" lon="11.606947986589557"><ele>477.0</ele><time>2026-04-17T08:07:00Z</time></trkpt><trkpt lat="48.27946102251878" lon="11.607088782652987"><ele>477.0</ele><time>2026-04-17T08:07:01Z</time></trkpt><trkpt lat="48.279621140736346" lon="11.60723037158369"><ele>477.0</ele><time>2026-04-17T08:07:02Z</time></trkpt><trkpt lat="48.27978341943596" lon="11.607369011406874"><ele>477.0</ele><time>2026-04-17T08:07:03Z</time></trkpt><trkpt lat="48.27993887218694" lon="11.607502778096359"><ele>476.0</ele><time>2026-04-17T08:07:04Z</time></trkpt><trkpt lat="48.28009220777834" lon="11.607632451392469"><ele>475.0</ele><time>2026-04-17T08:07:05Z</time></trkpt><trkpt lat="48.280246070028255" lon="11.60776154807382"><ele>474.0</ele><time>2026-04-17T08:07:06Z</time></trkpt><trkpt lat="48.28038922510326" lon="11.607889089835018"><ele>474.0</ele><time>2026-04-17T08:07:07Z</time></trkpt><trkpt lat="48.280524744832924" lon="11.608011876994222"><ele>474.0</ele><time>2026-04-17T08:07:08Z</time></trkpt><trkpt lat="48.28065847127643" lon="11.608129595664344"><ele>474.0</ele><time>2026-04-17T08:07:09Z</time></trkpt><trkpt lat="48.28079320300285" lon="11.60825028730994"><ele>473.66666666666663</ele><time>2026-04-17T08:07:10Z</time></trkpt><trkpt lat="48.28092988543351" lon="11.608371705144696"><ele>473.3333333333333</ele><time>2026-04-17T08:07:11Z</time></trkpt><trkpt lat="48.28107265250475" lon="11.608494849917227"><ele>473.0</ele><time>2026-04-17T08:07:12Z</time></trkpt><trkpt lat="48.28122444783803" lon="11.608629212802821"><ele>472.3333333333333</ele><time>2026-04-17T08:07:13Z</time></trkpt><trkpt lat="48.2813854628785" lon="11.608780890373259"><ele>471.66666666666663</ele><time>2026-04-17T08:07:14Z</time></trkpt><trkpt lat="48.281552693633635" lon="11.608926432907818"><ele>471.0</ele><time>2026-04-17T08:07:15Z</time></trkpt><trkpt lat="48.28171648443205" lon="11.609065582944943"><ele>471.0</ele><time>2026-04-17T08:07:16Z</time></trkpt><trkpt lat="48.28188117467015" lon="11.609208656081245"><ele>471.0</ele><time>2026-04-17T08:07:17Z</time></trkpt><trkpt lat="48.2820447307187" lon="11.609352182911943"><ele>471.0</ele><time>2026-04-17T08:07:18Z</time></trkpt><trkpt lat="48.282208118634216" lon="11.60949573940753"><ele>471.66666666666663</ele><time>2026-04-17T08:07:19.001Z</time></trkpt><trkpt lat="48.28237196978568" lon="11.609638984334781"><ele>472.3333333333333</ele><time>2026-04-17T08:07:20.001Z</time></trkpt><trkpt lat="48.28253492826506" lon="11.60978068361168"><ele>473.0</ele><time>2026-04-17T08:07:21.001Z</time></trkpt><trkpt lat="48.28270064225283" lon="11.609922468623967"><ele>473.0</ele><time>2026-04-17T08:07:22.001Z</time></trkpt><trkpt lat="48.28286161624287" lon="11.61006203785207"><ele>473.0</ele><time>2026-04-17T08:07:23.001Z</time></trkpt><trkpt lat="48.283021723361244" lon="11.610202283619266"><ele>473.0</ele><time>2026-04-17T08:07:24.001Z</time></trkpt><trkpt lat="48.283177192720416" lon="11.610340193478455"><ele>472.3333333333333</ele><time>2026-04-17T08:07:25.001Z</time></trkpt><trkpt lat="48.28333215491234" lon="11.610477661939996"><ele>471.66666666666663</ele><time>2026-04-17T08:07:26.001Z</time></trkpt><trkpt lat="48.283488820427074" lon="11.610611765735214"><ele>471.0</ele><time>2026-04-17T08:07:27.001Z</time></trkpt><trkpt lat="48.28364899448678" lon="11.610748461432387"><ele>471.0</ele><time>2026-04-17T08:07:28.001Z</time></trkpt><trkpt lat="48.283815239681104" lon="11.610892559430697"><ele>471.0</ele><time>2026-04-17T08:07:29.001Z</time></trkpt><trkpt lat="48.28397767304739" lon="11.611035442747859"><ele>471.0</ele><time>2026-04-17T08:07:30.001Z</time></trkpt><trkpt lat="48.2841312915012" lon="11.61117136019682"><ele>470.66666666666663</ele><time>2026-04-17T08:07:31.001Z</time></trkpt><trkpt lat="48.284288664302494" lon="11.611308708541015"><ele>470.3333333333333</ele><time>2026-04-17T08:07:32.001Z</time></trkpt><trkpt lat="48.28445084060161" lon="11.611447026149781"><ele>470.0</ele><time>2026-04-17T08:07:33.001Z</time></trkpt><trkpt lat="48.28461558469009" lon="11.611591105077991"><ele>470.66666666666663</ele><time>2026-04-17T08:07:34.001Z</time></trkpt><trkpt lat="48.28478251945228" lon="11.611737095550776"><ele>471.33333333333337</ele><time>2026-04-17T08:07:35.001Z</time></trkpt><trkpt lat="48.28493710555295" lon="11.611873537918646"><ele>472.0</ele><time>2026-04-17T08:07:36Z</time></trkpt><trkpt lat="48.285089418578394" lon="11.612008146231469"><ele>472.0</ele><time>2026-04-17T08:07:37Z</time></trkpt><trkpt lat="48.28524466172626" lon="11.612142367869088"><ele>472.0</ele><time>2026-04-17T08:07:38Z</time></trkpt><trkpt lat="48.285399909259816" lon="11.612306246318383"><ele>472.0</ele><time>2026-04-17T08:07:39Z</time></trkpt><trkpt lat="48.28557087963127" lon="11.6124586756397"><ele>472.0</ele><time>2026-04-17T08:07:40Z</time></trkpt><trkpt lat="48.285744822613985" lon="11.612614053746373"><ele>472.0</ele><time>2026-04-17T08:07:41Z</time></trkpt><trkpt lat="48.28590836439724" lon="11.612760859511665"><ele>472.0</ele><time>2026-04-17T08:07:42Z</time></trkpt><trkpt lat="48.286068380366" lon="11.612901664838763"><ele>471.6666666666667</ele><time>2026-04-17T08:07:43Z</time></trkpt><trkpt lat="48.28623220236713" lon="11.613042125314834"><ele>471.33333333333337</ele><time>2026-04-17T08:07:44Z</time></trkpt><trkpt lat="48.286394515217935" lon="11.613177303798246"><ele>471.0</ele><time>2026-04-17T08:07:45Z</time></trkpt><trkpt lat="48.286555987572534" lon="11.613287049998062"><ele>470.33333333333337</ele><time>2026-04-17T08:07:46Z</time></trkpt><trkpt lat="48.286706782424325" lon="11.613405942890845"><ele>469.6666666666667</ele><time>2026-04-17T08:07:47Z</time></trkpt><trkpt lat="48.28685555424698" lon="11.613513531278986"><ele>469.0</ele><time>2026-04-17T08:07:48Z</time></trkpt><trkpt lat="48.287011719216025" lon="11.613620616468035"><ele>468.6666666666667</ele><time>2026-04-17T08:07:49Z</time></trkpt><trkpt lat="48.287173329989336" lon="11.613724788991107"><ele>468.33333333333337</ele><time>2026-04-17T08:07:50Z</time></trkpt><trkpt lat="48.28733317424533" lon="11.613826950334074"><ele>468.0</ele><time>2026-04-17T08:07:51Z</time></trkpt><trkpt lat="48.287490697905525" lon="11.613931716668418"><ele>468.0</ele><time>2026-04-17T08:07:52Z</time></trkpt><trkpt lat="48.28765155294383" lon="11.614037622435971"><ele>468.0</ele><time>2026-04-17T08:07:53Z</time></trkpt><trkpt lat="48.28781897446846" lon="11.614145813686255"><ele>468.0</ele><time>2026-04-17T08:07:54Z</time></trkpt><trkpt lat="48.28799193480933" lon="11.61425890623037"><ele>468.0</ele><time>2026-04-17T08:07:55Z</time></trkpt><trkpt lat="48.28816458857333" lon="11.614369719124193"><ele>468.0</ele><time>2026-04-17T08:07:56Z</time></trkpt><trkpt lat="48.28833497580443" lon="11.614478097196214"><ele>468.0</ele><time>2026-04-17T08:07:57Z</time></trkpt><trkpt lat="48.28849149052897" lon="11.614581640039798"><ele>468.33333333333337</ele><time>2026-04-17T08:07:58Z</time></trkpt><trkpt lat="48.28864051735811" lon="11.614678592486179"><ele>468.6666666666667</ele><time>2026-04-17T08:07:59Z</time></trkpt><trkpt lat="48.288776911066215" lon="11.614793413101886"><ele>469.0</ele><time>2026-04-17T08:08:00Z</time></trkpt><trkpt lat="48.28890650831565" lon="11.61487960644514"><ele>468.75</ele><time>2026-04-17T08:08:01Z</time></trkpt><trkpt lat="48.289028914285424" lon="11.614961016917952"><ele>468.5</ele><time>2026-04-17T08:08:02Z</time></trkpt><trkpt lat="48.289147290646596" lon="11.615039747381607"><ele>468.25</ele><time>2026-04-17T08:08:03Z</time></trkpt><trkpt lat="48.289268425453685" lon="11.615118344876532"><ele>468.0</ele><time>2026-04-17T08:08:04Z</time></trkpt><trkpt lat="48.28939440694891" lon="11.615199580079292"><ele>468.0</ele><time>2026-04-17T08:08:05Z</time></trkpt><trkpt lat="48.28952260878502" lon="11.615280794135138"><ele>468.0</ele><time>2026-04-17T08:08:06Z</time></trkpt><trkpt lat="48.28964426191665" lon="11.615358575302702"><ele>468.0</ele><time>2026-04-17T08:08:07Z</time></trkpt><trkpt lat="48.28975947690186" lon="11.61543224222768"><ele>468.0</ele><time>2026-04-17T08:08:08Z</time></trkpt><trkpt lat="48.289877450489314" lon="11.615480263022269"><ele>468.0</ele><time>2026-04-17T08:08:09Z</time></trkpt><trkpt lat="48.28998673434415" lon="11.6155540090306"><ele>468.0</ele><time>2026-04-17T08:08:10Z</time></trkpt><trkpt lat="48.2900990124626" lon="11.615629490970722"><ele>468.0</ele><time>2026-04-17T08:08:11Z</time></trkpt><trkpt lat="48.29021594625206" lon="11.615708163343681"><ele>468.0</ele><time>2026-04-17T08:08:12Z</time></trkpt><trkpt lat="48.290338997143856" lon="11.615787604149357"><ele>468.0</ele><time>2026-04-17T08:08:13Z</time></trkpt><trkpt lat="48.290462932356256" lon="11.615866398247626"><ele>468.0</ele><time>2026-04-17T08:08:14Z</time></trkpt><trkpt lat="48.29057328062762" lon="11.615941906640115"><ele>468.0</ele><time>2026-04-17T08:08:15Z</time></trkpt><trkpt lat="48.29068096406076" lon="11.616013736420424"><ele>468.0</ele><time>2026-04-17T08:08:16Z</time></trkpt><trkpt lat="48.290781448376066" lon="11.616082097995937"><ele>468.0</ele><time>2026-04-17T08:08:17Z</time></trkpt><trkpt lat="48.290884096414295" lon="11.616151928661228"><ele>468.0</ele><time>2026-04-17T08:08:18Z</time></trkpt><trkpt lat="48.290989821974385" lon="11.616248999413449"><ele>468.0</ele><time>2026-04-17T08:08:19Z</time></trkpt><trkpt lat="48.291097113997495" lon="11.616321385165149"><ele>468.0</ele><time>2026-04-17T08:08:20Z</time></trkpt><trkpt lat="48.29120620419068" lon="11.616374900237382"><ele>467.79999999999995</ele><time>2026-04-17T08:08:21Z</time></trkpt><trkpt lat="48.29130845371176" lon="11.616451984291523"><ele>467.59999999999997</ele><time>2026-04-17T08:08:22Z</time></trkpt><trkpt lat="48.291409618947156" lon="11.616523803643826"><ele>467.40000000000003</ele><time>2026-04-17T08:08:23Z</time></trkpt><trkpt lat="48.291507149811686" lon="11.616589902324362"><ele>467.20000000000005</ele><time>2026-04-17T08:08:24Z</time></trkpt><trkpt lat="48.29160388193937" lon="11.616646715246159"><ele>467.0</ele><time>2026-04-17T08:08:25Z</time></trkpt><trkpt lat="48.29170192135928" lon="11.616699981994119"><ele>467.6</ele><time>2026-04-17T08:08:26Z</time></trkpt><trkpt lat="48.29179881783561" lon="11.61675634390275"><ele>468.20000000000005</ele><time>2026-04-17T08:08:27Z</time></trkpt><trkpt lat="48.29189663310161" lon="11.616815332930555"><ele>468.8</ele><time>2026-04-17T08:08:28Z</time></trkpt><trkpt lat="48.291986601375484" lon="11.616900148558205"><ele>469.4</ele><time>2026-04-17T08:08:29Z</time></trkpt><trkpt lat="48.29208422087265" lon="11.61696516762726"><ele>470.0</ele><time>2026-04-17T08:08:30Z</time></trkpt><trkpt lat="48.29218210198806" lon="11.617030360939143"><ele>470.0</ele><time>2026-04-17T08:08:31Z</time></trkpt><trkpt lat="48.29227872637984" lon="11.617093549161556"><ele>470.0</ele><time>2026-04-17T08:08:32Z</time></trkpt><trkpt lat="48.29237343107492" lon="11.617155294434632"><ele>470.0</ele><time>2026-04-17T08:08:33Z</time></trkpt><trkpt lat="48.29247306984574" lon="11.617193236166095"><ele>470.0</ele><time>2026-04-17T08:08:34Z</time></trkpt><trkpt lat="48.29256533353417" lon="11.617255040286244"><ele>470.0</ele><time>2026-04-17T08:08:35Z</time></trkpt><trkpt lat="48.292655885210415" lon="11.617317350021358"><ele>470.0</ele><time>2026-04-17T08:08:36Z</time></trkpt><trkpt lat="48.29274390471329" lon="11.617381070612925"><ele>470.0</ele><time>2026-04-17T08:08:37Z</time></trkpt><trkpt lat="48.292830654325755" lon="11.617442772874268"><ele>470.0</ele><time>2026-04-17T08:08:38Z</time></trkpt><trkpt lat="48.29291817964503" lon="11.617506411998768"><ele>470.0</ele><time>2026-04-17T08:08:39Z</time></trkpt><trkpt lat="48.29300600090922" lon="11.617577338855137"><ele>470.0</ele><time>2026-04-17T08:08:40Z</time></trkpt><trkpt lat="48.29309095121035" lon="11.617651036353047"><ele>469.8</ele><time>2026-04-17T08:08:41Z</time></trkpt><trkpt lat="48.29317925090314" lon="11.617726239487093"><ele>469.6</ele><time>2026-04-17T08:08:42Z</time></trkpt><trkpt lat="48.293268481828456" lon="11.617804537982284"><ele>469.4</ele><time>2026-04-17T08:08:43Z</time></trkpt><trkpt lat="48.29336084085405" lon="11.617885957893556"><ele>469.2</ele><time>2026-04-17T08:08:44Z</time></trkpt><trkpt lat="48.293455573132185" lon="11.617972615802854"><ele>469.0</ele><time>2026-04-17T08:08:45Z</time></trkpt><trkpt lat="48.29355038721936" lon="11.618065260679707"><ele>469.0</ele><time>2026-04-17T08:08:46Z</time></trkpt><trkpt lat="48.293645500878455" lon="11.618154831354893"><ele>469.0</ele><time>2026-04-17T08:08:47Z</time></trkpt><trkpt lat="48.29373928729423" lon="11.618240957181403"><ele>469.0</ele><time>2026-04-17T08:08:48Z</time></trkpt><trkpt lat="48.293830427441414" lon="11.618328124475308"><ele>469.0</ele><time>2026-04-17T08:08:49Z</time></trkpt><trkpt lat="48.29392037710891" lon="11.618412388406343"><ele>469.0</ele><time>2026-04-17T08:08:50Z</time></trkpt><trkpt lat="48.294009743220684" lon="11.618495312219647"><ele>468.79999999999995</ele><time>2026-04-17T08:08:51Z</time></trkpt><trkpt lat="48.29409623818848" lon="11.618579985905193"><ele>468.59999999999997</ele><time>2026-04-17T08:08:52Z</time></trkpt><trkpt lat="48.29418081588642" lon="11.61866508470218"><ele>468.4</ele><time>2026-04-17T08:08:53Z</time></trkpt><trkpt lat="48.29426370345447" lon="11.618750859622855"><ele>468.2</ele><time>2026-04-17T08:08:54Z</time></trkpt><trkpt lat="48.29434840705675" lon="11.618832301640666"><ele>468.0</ele><time>2026-04-17T08:08:55Z</time></trkpt><trkpt lat="48.29443730155191" lon="11.618907141297797"><ele>468.0</ele><time>2026-04-17T08:08:56Z</time></trkpt><trkpt lat="48.294524700817746" lon="11.618985911084582"><ele>467.99999999999994</ele><time>2026-04-17T08:08:57Z</time></trkpt><trkpt lat="48.294610222162945" lon="11.619067734808825"><ele>467.99999999999994</ele><time>2026-04-17T08:08:58Z</time></trkpt><trkpt lat="48.29469416684406" lon="11.619148055816131"><ele>468.0</ele><time>2026-04-17T08:08:59Z</time></trkpt><trkpt lat="48.29477955091346" lon="11.619231676449031"><ele>468.0</ele><time>2026-04-17T08:09:00Z</time></trkpt><trkpt lat="48.29485987057263" lon="11.619312971547274"><ele>468.0</ele><time>2026-04-17T08:09:01Z</time></trkpt><trkpt lat="48.29494031982303" lon="11.61939229510415"><ele>467.99999999999994</ele><time>2026-04-17T08:09:02Z</time></trkpt><trkpt lat="48.295018571773625" lon="11.61946969432293"><ele>467.99999999999994</ele><time>2026-04-17T08:09:03Z</time></trkpt><trkpt lat="48.29509877409008" lon="11.619546276545625"><ele>468.0</ele><time>2026-04-17T08:09:04Z</time></trkpt><trkpt lat="48.29518084111062" lon="11.619623088310535"><ele>468.0</ele><time>2026-04-17T08:09:05Z</time></trkpt><trkpt lat="48.295263993750865" lon="11.619702418351368"><ele>468.0</ele><time>2026-04-17T08:09:06Z</time></trkpt><trkpt lat="48.295346076866636" lon="11.619785330779626"><ele>467.99999999999994</ele><time>2026-04-17T08:09:07Z</time></trkpt><trkpt lat="48.29543104187718" lon="11.619867804003722"><ele>467.99999999999994</ele><time>2026-04-17T08:09:08Z</time></trkpt><trkpt lat="48.295519677709656" lon="11.619954290228923"><ele>468.0</ele><time>2026-04-17T08:09:09Z</time></trkpt><trkpt lat="48.295613514948315" lon="11.620036451606788"><ele>468.0</ele><time>2026-04-17T08:09:10Z</time></trkpt><trkpt lat="48.295707623882215" lon="11.620122521818228"><ele>468.0</ele><time>2026-04-17T08:09:11Z</time></trkpt><trkpt lat="48.29579899435699" lon="11.620207366165339"><ele>467.99999999999994</ele><time>2026-04-17T08:09:12Z</time></trkpt><trkpt lat="48.295883351935835" lon="11.620289450098886"><ele>467.99999999999994</ele><time>2026-04-17T08:09:13Z</time></trkpt><trkpt lat="48.295962873488236" lon="11.620368524580368"><ele>468.0</ele><time>2026-04-17T08:09:14Z</time></trkpt><trkpt lat="48.29604623235927" lon="11.620450244748934"><ele>468.0</ele><time>2026-04-17T08:09:15Z</time></trkpt><trkpt lat="48.29613002067702" lon="11.620530450382212"><ele>468.0</ele><time>2026-04-17T08:09:16Z</time></trkpt><trkpt lat="48.29621631768512" lon="11.620613733715546"><ele>467.99999999999994</ele><time>2026-04-17T08:09:17Z</time></trkpt><trkpt lat="48.29629858060858" lon="11.620691170629643"><ele>467.99999999999994</ele><time>2026-04-17T08:09:18Z</time></trkpt><trkpt lat="48.29636537301783" lon="11.620759573516633"><ele>468.0</ele><time>2026-04-17T08:09:19Z</time></trkpt><trkpt lat="48.29641831702715" lon="11.620815158252405"><ele>468.0</ele><time>2026-04-17T08:09:20Z</time></trkpt><trkpt lat="48.29649940654418" lon="11.620917359742013"><ele>468.1666666666667</ele><time>2026-04-17T08:09:22Z</time></trkpt><trkpt lat="48.296554973335866" lon="11.620967748077208"><ele>468.33333333333337</ele><time>2026-04-17T08:09:47.001Z</time></trkpt><trkpt lat="48.29660677971243" lon="11.621044503857153"><ele>468.5</ele><time>2026-04-17T08:09:49.001Z</time></trkpt><trkpt lat="48.29669103861299" lon="11.621191666379156"><ele>468.6666666666667</ele><time>2026-04-17T08:09:51.001Z</time></trkpt><trkpt lat="48.29672612584337" lon="11.621271448375644"><ele>468.83333333333337</ele><time>2026-04-17T08:09:52.001Z</time></trkpt><trkpt lat="48.296757474237275" lon="11.621362299248194"><ele>469.0</ele><time>2026-04-17T08:09:53.001Z</time></trkpt><trkpt lat="48.29678957173906" lon="11.621456220946756"><ele>469.00000000000006</ele><time>2026-04-17T08:09:54.001Z</time></trkpt><trkpt lat="48.29682136854674" lon="11.621559802250784"><ele>469.0</ele><time>2026-04-17T08:09:55.001Z</time></trkpt><trkpt lat="48.296849811118" lon="11.621664293054744"><ele>469.0</ele><time>2026-04-17T08:09:56.001Z</time></trkpt><trkpt lat="48.296876885353534" lon="11.621756973670559"><ele>469.0</ele><time>2026-04-17T08:09:57.001Z</time></trkpt><trkpt lat="48.296922085056714" lon="11.621907913788718"><ele>469.00000000000006</ele><time>2026-04-17T08:09:59.001Z</time></trkpt><trkpt lat="48.29695726420655" lon="11.62203825449256"><ele>469.0</ele><time>2026-04-17T08:10:01.001Z</time></trkpt><trkpt lat="48.29701285234404" lon="11.622219652902213"><ele>469.0</ele><time>2026-04-17T08:10:03.001Z</time></trkpt><trkpt lat="48.297047403646275" lon="11.622330196268502"><ele>469.0</ele><time>2026-04-17T08:10:04.001Z</time></trkpt><trkpt lat="48.29707700320682" lon="11.622439685993118"><ele>469.0</ele><time>2026-04-17T08:10:05.001Z</time></trkpt><trkpt lat="48.29710154814555" lon="11.62253590143545"><ele>469.0</ele><time>2026-04-17T08:10:06.001Z</time></trkpt><trkpt lat="48.29714443364323" lon="11.622702032153109"><ele>469.0</ele><time>2026-04-17T08:10:08.001Z</time></trkpt><trkpt lat="48.297184800001155" lon="11.622850239316303"><ele>469.00000000000006</ele><time>2026-04-17T08:10:10.001Z</time></trkpt><trkpt lat="48.297232162512834" lon="11.622995284083249"><ele>469.0</ele><time>2026-04-17T08:10:12.001Z</time></trkpt><trkpt lat="48.29725951213093" lon="11.623080897966013"><ele>469.0</ele><time>2026-04-17T08:10:13.001Z</time></trkpt><trkpt lat="48.29729075377242" lon="11.623180992142014"><ele>469.0</ele><time>2026-04-17T08:10:14.001Z</time></trkpt><trkpt lat="48.297326711430735" lon="11.623294798279462"><ele>469.00000000000006</ele><time>2026-04-17T08:10:15.001Z</time></trkpt><trkpt lat="48.297362563692595" lon="11.623424459562596"><ele>469.0</ele><time>2026-04-17T08:10:16.001Z</time></trkpt><trkpt lat="48.297397823386" lon="11.62355101287063"><ele>469.0</ele><time>2026-04-17T08:10:17.001Z</time></trkpt><trkpt lat="48.29743239761259" lon="11.623658893281759"><ele>469.0</ele><time>2026-04-17T08:10:18.001Z</time></trkpt><trkpt lat="48.29746395911095" lon="11.62375421889603"><ele>469.0</ele><time>2026-04-17T08:10:19.001Z</time></trkpt><trkpt lat="48.29749536435167" lon="11.62384973345816"><ele>469.0</ele><time>2026-04-17T08:10:20.001Z</time></trkpt><trkpt lat="48.29752446933387" lon="11.6239399221003"><ele>469.0</ele><time>2026-04-17T08:10:21Z</time></trkpt><trkpt lat="48.29755400559228" lon="11.624027286054831"><ele>469.0</ele><time>2026-04-17T08:10:22Z</time></trkpt><trkpt lat="48.2975830096075" lon="11.624117747142577"><ele>469.0</ele><time>2026-04-17T08:10:23Z</time></trkpt><trkpt lat="48.29761383938985" lon="11.624214107626392"><ele>469.0</ele><time>2026-04-17T08:10:24Z</time></trkpt><trkpt lat="48.29764659518674" lon="11.624307685648258"><ele>469.0</ele><time>2026-04-17T08:10:25Z</time></trkpt><trkpt lat="48.297681145484304" lon="11.624396503331095"><ele>469.0</ele><time>2026-04-17T08:10:26Z</time></trkpt><trkpt lat="48.29771495919238" lon="11.624486056993593"><ele>469.0</ele><time>2026-04-17T08:10:27Z</time></trkpt><trkpt lat="48.29774788289621" lon="11.624574182635751"><ele>469.0</ele><time>2026-04-17T08:10:28Z</time></trkpt><trkpt lat="48.29778054644018" lon="11.62466018549201"><ele>469.0</ele><time>2026-04-17T08:10:29Z</time></trkpt><trkpt lat="48.29781240928164" lon="11.624741902569259"><ele>469.0</ele><time>2026-04-17T08:10:30Z</time></trkpt><trkpt lat="48.29787866577654" lon="11.624905290710439"><ele>468.8571428571429</ele><time>2026-04-17T08:10:32Z</time></trkpt><trkpt lat="48.29791228937265" lon="11.624989783859249"><ele>468.7142857142857</ele><time>2026-04-17T08:10:33Z</time></trkpt><trkpt lat="48.297947477760594" lon="11.62507909602251"><ele>468.57142857142856</ele><time>2026-04-17T08:10:34Z</time></trkpt><trkpt lat="48.297985360801576" lon="11.625172091269253"><ele>468.42857142857144</ele><time>2026-04-17T08:10:35Z</time></trkpt><trkpt lat="48.298026042939235" lon="11.625271044538113"><ele>468.28571428571433</ele><time>2026-04-17T08:10:36Z</time></trkpt><trkpt lat="48.2980692650887" lon="11.625370535244112"><ele>468.14285714285717</ele><time>2026-04-17T08:10:37Z</time></trkpt><trkpt lat="48.298112723158184" lon="11.625471639580397"><ele>468.0</ele><time>2026-04-17T08:10:38Z</time></trkpt><trkpt lat="48.2981521421474" lon="11.625567377759339"><ele>468.0</ele><time>2026-04-17T08:10:39Z</time></trkpt><trkpt lat="48.29818850829123" lon="11.6256535199921"><ele>468.00000000000006</ele><time>2026-04-17T08:10:40Z</time></trkpt><trkpt lat="48.29822240628552" lon="11.625735258085228"><ele>468.0</ele><time>2026-04-17T08:10:41Z</time></trkpt><trkpt lat="48.29825663940445" lon="11.625819631676634"><ele>468.0</ele><time>2026-04-17T08:10:42Z</time></trkpt><trkpt lat="48.29829169271779" lon="11.625910085808757"><ele>468.00000000000006</ele><time>2026-04-17T08:10:43Z</time></trkpt><trkpt lat="48.29832808175837" lon="11.626000412384634"><ele>468.0</ele><time>2026-04-17T08:10:44Z</time></trkpt><trkpt lat="48.29836733094567" lon="11.62608977816573"><ele>468.0</ele><time>2026-04-17T08:10:45Z</time></trkpt><trkpt lat="48.298402760218984" lon="11.626172560319237"><ele>467.79999999999995</ele><time>2026-04-17T08:10:46Z</time></trkpt><trkpt lat="48.29846379217456" lon="11.626327962342303"><ele>467.59999999999997</ele><time>2026-04-17T08:10:48Z</time></trkpt><trkpt lat="48.29849447067397" lon="11.626472375916375"><ele>467.40000000000003</ele><time>2026-04-17T08:10:50Z</time></trkpt><trkpt lat="48.2984433156247" lon="11.62660223688673"><ele>467.20000000000005</ele><time>2026-04-17T08:10:52Z</time></trkpt><trkpt lat="48.29836921891437" lon="11.626725226045531"><ele>467.0</ele><time>2026-04-17T08:10:54Z</time></trkpt><trkpt lat="48.29832272292721" lon="11.626795482766308"><ele>466.99999999999994</ele><time>2026-04-17T08:10:55Z</time></trkpt><trkpt lat="48.29826891686752" lon="11.62687746947618"><ele>467.0</ele><time>2026-04-17T08:10:56Z</time></trkpt><trkpt lat="48.298210805958355" lon="11.626976104572734"><ele>467.0</ele><time>2026-04-17T08:10:57Z</time></trkpt><trkpt lat="48.29815384907962" lon="11.627079532631127"><ele>467.0</ele><time>2026-04-17T08:10:58Z</time></trkpt><trkpt lat="48.29810088941772" lon="11.627173663511282"><ele>466.99999999999994</ele><time>2026-04-17T08:10:59Z</time></trkpt><trkpt lat="48.29804661311408" lon="11.627265961734297"><ele>467.0</ele><time>2026-04-17T08:11:00Z</time></trkpt><trkpt lat="48.29799148068764" lon="11.627355532784536"><ele>466.99999999999994</ele><time>2026-04-17T08:11:01Z</time></trkpt><trkpt lat="48.297936238466114" lon="11.627446083355343"><ele>467.0</ele><time>2026-04-17T08:11:02Z</time></trkpt><trkpt lat="48.2978807730849" lon="11.62753698767795"><ele>467.0</ele><time>2026-04-17T08:11:03Z</time></trkpt><trkpt lat="48.297826133203735" lon="11.62762741703699"><ele>467.0</ele><time>2026-04-17T08:11:04Z</time></trkpt><trkpt lat="48.297772144943" lon="11.627718066955273"><ele>466.99999999999994</ele><time>2026-04-17T08:11:05Z</time></trkpt><trkpt lat="48.29771790935312" lon="11.627810817745225"><ele>467.0</ele><time>2026-04-17T08:11:06Z</time></trkpt><trkpt lat="48.29766561581198" lon="11.627902772727843"><ele>467.16666666666663</ele><time>2026-04-17T08:11:07Z</time></trkpt><trkpt lat="48.29761473595292" lon="11.627995073449489"><ele>467.3333333333333</ele><time>2026-04-17T08:11:08Z</time></trkpt><trkpt lat="48.29756446455935" lon="11.628089089074123"><ele>467.5</ele><time>2026-04-17T08:11:09Z</time></trkpt><trkpt lat="48.297512966932835" lon="11.628174729750564"><ele>467.66666666666663</ele><time>2026-04-17T08:11:10Z</time></trkpt><trkpt lat="48.297457193130015" lon="11.628268608688995"><ele>467.8333333333333</ele><time>2026-04-17T08:11:11Z</time></trkpt><trkpt lat="48.2974008126769" lon="11.62836244892025"><ele>468.0</ele><time>2026-04-17T08:11:12Z</time></trkpt><trkpt lat="48.29734459190683" lon="11.628459836048176"><ele>468.0</ele><time>2026-04-17T08:11:13Z</time></trkpt><trkpt lat="48.2972910704398" lon="11.62855203651899"><ele>468.0</ele><time>2026-04-17T08:11:14Z</time></trkpt><trkpt lat="48.297239828338924" lon="11.628638132422797"><ele>468.0</ele><time>2026-04-17T08:11:15Z</time></trkpt><trkpt lat="48.297187792118294" lon="11.628723186616853"><ele>468.0</ele><time>2026-04-17T08:11:16Z</time></trkpt><trkpt lat="48.29713488204894" lon="11.628810420676862"><ele>468.0</ele><time>2026-04-17T08:11:17Z</time></trkpt><trkpt lat="48.29708021990916" lon="11.628901589410136"><ele>468.0</ele><time>2026-04-17T08:11:18Z</time></trkpt><trkpt lat="48.29702649424256" lon="11.628996232286655"><ele>467.8333333333333</ele><time>2026-04-17T08:11:19Z</time></trkpt><trkpt lat="48.29697137988302" lon="11.629093705988641"><ele>467.66666666666663</ele><time>2026-04-17T08:11:20Z</time></trkpt><trkpt lat="48.296916720040606" lon="11.629187972495254"><ele>467.5</ele><time>2026-04-17T08:11:21Z</time></trkpt><trkpt lat="48.296861376350435" lon="11.62927794402977"><ele>467.3333333333333</ele><time>2026-04-17T08:11:22Z</time></trkpt><trkpt lat="48.29680879109176" lon="11.629366320685932"><ele>467.16666666666663</ele><time>2026-04-17T08:11:23Z</time></trkpt><trkpt lat="48.29675543598772" lon="11.629455337122273"><ele>467.0</ele><time>2026-04-17T08:11:24Z</time></trkpt><trkpt lat="48.296701802716875" lon="11.629548165626696"><ele>467.0</ele><time>2026-04-17T08:11:25Z</time></trkpt><trkpt lat="48.29664442584289" lon="11.629642185391504"><ele>467.00000000000006</ele><time>2026-04-17T08:11:26Z</time></trkpt><trkpt lat="48.29658459201513" lon="11.629737218409343"><ele>467.00000000000006</ele><time>2026-04-17T08:11:27Z</time></trkpt><trkpt lat="48.296523046477475" lon="11.62983964041257"><ele>467.0</ele><time>2026-04-17T08:11:28Z</time></trkpt><trkpt lat="48.29646023767907" lon="11.629946912788379"><ele>467.0</ele><time>2026-04-17T08:11:29Z</time></trkpt><trkpt lat="48.29639973600139" lon="11.630049114542482"><ele>466.99999999999994</ele><time>2026-04-17T08:11:30Z</time></trkpt><trkpt lat="48.296342207792485" lon="11.630148111047927"><ele>467.0</ele><time>2026-04-17T08:11:31.001Z</time></trkpt><trkpt lat="48.296287548557345" lon="11.630245293730749"><ele>467.0</ele><time>2026-04-17T08:11:32.001Z</time></trkpt><trkpt lat="48.29623270732583" lon="11.630340026646353"><ele>467.0</ele><time>2026-04-17T08:11:33.001Z</time></trkpt><trkpt lat="48.29616859730663" lon="11.630444047819031"><ele>466.99999999999994</ele><time>2026-04-17T08:11:34.001Z</time></trkpt><trkpt lat="48.29611147409434" lon="11.630538995551257"><ele>467.0</ele><time>2026-04-17T08:11:35.001Z</time></trkpt><trkpt lat="48.29606125391336" lon="11.630623162595533"><ele>467.16666666666663</ele><time>2026-04-17T08:11:36.001Z</time></trkpt><trkpt lat="48.2960140325472" lon="11.630702570353018"><ele>467.3333333333333</ele><time>2026-04-17T08:11:37.001Z</time></trkpt><trkpt lat="48.29596839509458" lon="11.630777484497921"><ele>467.5</ele><time>2026-04-17T08:11:38.001Z</time></trkpt><trkpt lat="48.29588833477231" lon="11.630904970753166"><ele>467.66666666666663</ele><time>2026-04-17T08:11:40.001Z</time></trkpt><trkpt lat="48.295818515348024" lon="11.63097413218974"><ele>467.8333333333333</ele><time>2026-04-17T08:11:42.001Z</time></trkpt><trkpt lat="48.29574547411914" lon="11.630933901366651"><ele>468.0</ele><time>2026-04-17T08:11:44.001Z</time></trkpt><trkpt lat="48.295672980745906" lon="11.630873447874853"><ele>468.0</ele><time>2026-04-17T08:11:46.001Z</time></trkpt><trkpt lat="48.29558131200233" lon="11.63083658140622"><ele>468.0</ele><time>2026-04-17T08:11:49.001Z</time></trkpt><trkpt lat="48.29551080673904" lon="11.630810082137778"><ele>468.0</ele><time>2026-04-17T08:11:51.001Z</time></trkpt><trkpt lat="48.295452480130535" lon="11.630856650998867"><ele>468.0</ele><time>2026-04-17T08:11:52.001Z</time></trkpt><trkpt lat="48.29538776616792" lon="11.63088642325204"><ele>468.0</ele><time>2026-04-17T08:11:53.001Z</time></trkpt><trkpt lat="48.29532015103774" lon="11.630937056926802"><ele>468.0</ele><time>2026-04-17T08:11:54.001Z</time></trkpt><trkpt lat="48.2952629177921" lon="11.63101976855564"><ele>468.0</ele><time>2026-04-17T08:11:55.001Z</time></trkpt><trkpt lat="48.29522015744462" lon="11.63111736189233"><ele>468.0</ele><time>2026-04-17T08:11:56.001Z</time></trkpt><trkpt lat="48.295190437033554" lon="11.631227729659662"><ele>468.0</ele><time>2026-04-17T08:11:57.001Z</time></trkpt><trkpt lat="48.29515132545525" lon="11.631332822555809"><ele>468.0</ele><time>2026-04-17T08:11:58.001Z</time></trkpt><trkpt lat="48.29512689661545" lon="11.631448040812502"><ele>468.0</ele><time>2026-04-17T08:11:59.001Z</time></trkpt><trkpt lat="48.295118842927714" lon="11.631563833020348"><ele>468.0</ele><time>2026-04-17T08:12:00.001Z</time></trkpt><trkpt lat="48.295099719225476" lon="11.631659533789842"><ele>468.1666666666667</ele><time>2026-04-17T08:12:01.001Z</time></trkpt><trkpt lat="48.29507922447875" lon="11.631750103899813"><ele>468.33333333333337</ele><time>2026-04-17T08:12:02.001Z</time></trkpt><trkpt lat="48.295060552639555" lon="11.631841151819325"><ele>468.5</ele><time>2026-04-17T08:12:03.001Z</time></trkpt><trkpt lat="48.29504190461995" lon="11.631931581590326"><ele>468.6666666666667</ele><time>2026-04-17T08:12:04.001Z</time></trkpt><trkpt lat="48.29502127449897" lon="11.63202148841528"><ele>468.83333333333337</ele><time>2026-04-17T08:12:05.001Z</time></trkpt><trkpt lat="48.2949867878924" lon="11.632179808233442"><ele>469.0</ele><time>2026-04-17T08:12:07.001Z</time></trkpt><trkpt lat="48.2949554879058" lon="11.632321082404024"><ele>468.83333333333337</ele><time>2026-04-17T08:12:09.001Z</time></trkpt><trkpt lat="48.294924410966715" lon="11.632443229192095"><ele>468.6666666666667</ele><time>2026-04-17T08:12:11.001Z</time></trkpt><trkpt lat="48.29489662980365" lon="11.632537990504"><ele>468.5</ele><time>2026-04-17T08:12:13.001Z</time></trkpt><trkpt lat="48.29485157896321" lon="11.63266600647608"><ele>468.33333333333337</ele><time>2026-04-17T08:12:15.001Z</time></trkpt><trkpt lat="48.29481810910604" lon="11.632754150159446"><ele>468.1666666666667</ele><time>2026-04-17T08:12:16.001Z</time></trkpt><trkpt lat="48.29477696372326" lon="11.632837422459392"><ele>468.0</ele><time>2026-04-17T08:12:17.001Z</time></trkpt><trkpt lat="48.29472841029852" lon="11.63292004982649"><ele>468.0</ele><time>2026-04-17T08:12:18.001Z</time></trkpt><trkpt lat="48.29467585449577" lon="11.632995058651558"><ele>468.00000000000006</ele><time>2026-04-17T08:12:19.001Z</time></trkpt><trkpt lat="48.29462119933679" lon="11.633065637062662"><ele>468.0</ele><time>2026-04-17T08:12:20.001Z</time></trkpt><trkpt lat="48.29456370596224" lon="11.633128227389541"><ele>468.0</ele><time>2026-04-17T08:12:21.001Z</time></trkpt><trkpt lat="48.294505612151745" lon="11.633181944624257"><ele>468.00000000000006</ele><time>2026-04-17T08:12:22.001Z</time></trkpt><trkpt lat="48.29443834456375" lon="11.633238665051685"><ele>468.0</ele><time>2026-04-17T08:12:23.001Z</time></trkpt><trkpt lat="48.29436875619325" lon="11.633289883118431"><ele>468.0</ele><time>2026-04-17T08:12:24.001Z</time></trkpt><trkpt lat="48.29429705771762" lon="11.633335746698831"><ele>468.0</ele><time>2026-04-17T08:12:25.001Z</time></trkpt><trkpt lat="48.29423000838828" lon="11.633373860981983"><ele>468.0</ele><time>2026-04-17T08:12:26.001Z</time></trkpt><trkpt lat="48.29411099780305" lon="11.63342966802834"><ele>468.0</ele><time>2026-04-17T08:12:28.001Z</time></trkpt><trkpt lat="48.29404787739428" lon="11.633459834770028"><ele>468.0</ele><time>2026-04-17T08:12:29.001Z</time></trkpt><trkpt lat="48.293984685180796" lon="11.633491483236849"><ele>468.0</ele><time>2026-04-17T08:12:30.001Z</time></trkpt><trkpt lat="48.29387928387701" lon="11.633550208552602"><ele>468.0</ele><time>2026-04-17T08:12:32.001Z</time></trkpt><trkpt lat="48.29379408896257" lon="11.633593783262494"><ele>468.0</ele><time>2026-04-17T08:12:34.001Z</time></trkpt><trkpt lat="48.29372949793972" lon="11.633631243533417"><ele>467.99999999999994</ele><time>2026-04-17T08:12:36.001Z</time></trkpt><trkpt lat="48.29365603366622" lon="11.633610969011043"><ele>467.99999999999994</ele><time>2026-04-17T08:12:39.001Z</time></trkpt><trkpt lat="48.29361719570706" lon="11.63351938661449"><ele>468.0</ele><time>2026-04-17T08:12:42.001Z</time></trkpt><trkpt lat="48.293594214584246" lon="11.633663592150588"><ele>468.0</ele><time>2026-04-17T08:12:45.001Z</time></trkpt><trkpt lat="48.29349957925789" lon="11.633502711326823"><ele>468.0</ele><time>2026-04-17T08:12:48.001Z</time></trkpt><trkpt lat="48.29347702905856" lon="11.633362062751116"><ele>468.0</ele><time>2026-04-17T08:12:49.001Z</time></trkpt><trkpt lat="48.29338528198391" lon="11.633324268971007"><ele>468.0</ele><time>2026-04-17T08:12:51.001Z</time></trkpt><trkpt lat="48.29330443991561" lon="11.63339669754318"><ele>468.0</ele><time>2026-04-17T08:12:52.001Z</time></trkpt><trkpt lat="48.29322695650543" lon="11.6334304811402"><ele>468.0</ele><time>2026-04-17T08:12:53.001Z</time></trkpt><trkpt lat="48.29316274254879" lon="11.633461728101564"><ele>468.0</ele><time>2026-04-17T08:12:54.001Z</time></trkpt><trkpt lat="48.29310010948459" lon="11.633491938688953"><ele>467.59999999999997</ele><time>2026-04-17T08:12:55.001Z</time></trkpt><trkpt lat="48.29303103022341" lon="11.633492182447037"><ele>467.19999999999993</ele><time>2026-04-17T08:12:56.001Z</time></trkpt><trkpt lat="48.29297007559952" lon="11.633523301287111"><ele>466.8</ele><time>2026-04-17T08:12:57.001Z</time></trkpt><trkpt lat="48.29285654151829" lon="11.633583265912177"><ele>466.4</ele><time>2026-04-17T08:12:59.001Z</time></trkpt><trkpt lat="48.29275115627146" lon="11.633640607516856"><ele>466.0</ele><time>2026-04-17T08:13:01Z</time></trkpt><trkpt lat="48.29266361433411" lon="11.633706216354604"><ele>466.6</ele><time>2026-04-17T08:13:03Z</time></trkpt><trkpt lat="48.29257423511709" lon="11.633755570775298"><ele>467.20000000000005</ele><time>2026-04-17T08:13:05Z</time></trkpt><trkpt lat="48.29248183094203" lon="11.633810468916195"><ele>467.79999999999995</ele><time>2026-04-17T08:13:07Z</time></trkpt><trkpt lat="48.29238759930894" lon="11.633852314485813"><ele>468.4</ele><time>2026-04-17T08:13:09Z</time></trkpt><trkpt lat="48.292300727261974" lon="11.633904775295193"><ele>469.0</ele><time>2026-04-17T08:13:11Z</time></trkpt><trkpt lat="48.29222288013737" lon="11.633946662908789"><ele>469.0</ele><time>2026-04-17T08:13:13Z</time></trkpt><trkpt lat="48.2921205080927" lon="11.634001859634125"><ele>469.0</ele><time>2026-04-17T08:13:15Z</time></trkpt><trkpt lat="48.29199726421328" lon="11.634067300830687"><ele>469.0</ele><time>2026-04-17T08:13:16.999Z</time></trkpt><trkpt lat="48.29193039906819" lon="11.634072259825837"><ele>469.0</ele><time>2026-04-17T08:13:17.999Z</time></trkpt><trkpt lat="48.29183371232975" lon="11.634139410575578"><ele>469.0</ele><time>2026-04-17T08:13:19.999Z</time></trkpt><trkpt lat="48.29174355478883" lon="11.634152456782827"><ele>469.00000000000006</ele><time>2026-04-17T08:13:21.999Z</time></trkpt><trkpt lat="48.291660092448275" lon="11.634213538967547"><ele>469.0</ele><time>2026-04-17T08:13:23.999Z</time></trkpt><trkpt lat="48.29161007954052" lon="11.634300686980039"><ele>469.0</ele><time>2026-04-17T08:13:25.999Z</time></trkpt><trkpt lat="48.29160871241864" lon="11.634419666437115"><ele>469.0</ele><time>2026-04-17T08:13:27.999Z</time></trkpt><trkpt lat="48.29161496629946" lon="11.634529231145436"><ele>469.00000000000006</ele><time>2026-04-17T08:13:30.999Z</time></trkpt><trkpt lat="48.29156585362079" lon="11.634627102059719"><ele>469.0</ele><time>2026-04-17T08:13:32.999Z</time></trkpt><trkpt lat="48.291567639275705" lon="11.634746344930983"><ele>469.2</ele><time>2026-04-17T08:13:36Z</time></trkpt><trkpt lat="48.29168528054075" lon="11.634733672297397"><ele>469.4</ele><time>2026-04-17T08:13:39Z</time></trkpt><trkpt lat="48.291775550415174" lon="11.634695847763854"><ele>469.6</ele><time>2026-04-17T08:13:43Z</time></trkpt><trkpt lat="48.29183603136832" lon="11.634668194397218"><ele>469.8</ele><time>2026-04-17T08:13:45Z</time></trkpt><trkpt lat="48.291904205080826" lon="11.634629333047863"><ele>470.0</ele><time>2026-04-17T08:13:47Z</time></trkpt><trkpt lat="48.29201261606006" lon="11.634569214991561"><ele>470.0</ele><time>2026-04-17T08:13:49Z</time></trkpt><trkpt lat="48.2920887123496" lon="11.634524856211462"><ele>470.0</ele><time>2026-04-17T08:13:50Z</time></trkpt><trkpt lat="48.29220168546639" lon="11.634465726488783"><ele>470.0</ele><time>2026-04-17T08:13:51Z</time></trkpt><trkpt lat="48.292296313529434" lon="11.634417535003013"><ele>470.0</ele><time>2026-04-17T08:13:52Z</time></trkpt><trkpt lat="48.29238623732839" lon="11.6343669572827"><ele>470.0</ele><time>2026-04-17T08:13:53Z</time></trkpt><trkpt lat="48.292462707148644" lon="11.634326410449367"><ele>470.16666666666663</ele><time>2026-04-17T08:13:54Z</time></trkpt><trkpt lat="48.292541739658695" lon="11.634280515531461"><ele>470.3333333333333</ele><time>2026-04-17T08:13:55Z</time></trkpt><trkpt lat="48.29262493822005" lon="11.634231309883642"><ele>470.5</ele><time>2026-04-17T08:13:56Z</time></trkpt><trkpt lat="48.2927080243216" lon="11.634187762825997"><ele>470.66666666666663</ele><time>2026-04-17T08:13:57Z</time></trkpt><trkpt lat="48.292790510671175" lon="11.634144751815365"><ele>470.8333333333333</ele><time>2026-04-17T08:13:58Z</time></trkpt><trkpt lat="48.292874388439174" lon="11.634099547516138"><ele>471.0</ele><time>2026-04-17T08:13:59Z</time></trkpt><trkpt lat="48.2929610833718" lon="11.634054609413786"><ele>471.0</ele><time>2026-04-17T08:14:00Z</time></trkpt><trkpt lat="48.29305023779405" lon="11.634011066402978"><ele>471.0</ele><time>2026-04-17T08:14:01Z</time></trkpt><trkpt lat="48.29314279301214" lon="11.633961314892106"><ele>471.0</ele><time>2026-04-17T08:14:02Z</time></trkpt><trkpt lat="48.29323662844114" lon="11.633908916981168"><ele>471.0</ele><time>2026-04-17T08:14:03Z</time></trkpt><trkpt lat="48.293329676090146" lon="11.633885488991046"><ele>471.0</ele><time>2026-04-17T08:14:04Z</time></trkpt><trkpt lat="48.29340115901499" lon="11.63382378092329"><ele>471.0</ele><time>2026-04-17T08:14:05Z</time></trkpt><trkpt lat="48.29347543300382" lon="11.633790596763252"><ele>471.0</ele><time>2026-04-17T08:14:06Z</time></trkpt><trkpt lat="48.293545058060275" lon="11.633748872943926"><ele>471.0</ele><time>2026-04-17T08:14:07Z</time></trkpt><trkpt lat="48.29362103018572" lon="11.633706379517214"><ele>471.0</ele><time>2026-04-17T08:14:08Z</time></trkpt><trkpt lat="48.29370370804161" lon="11.633666594781173"><ele>471.0</ele><time>2026-04-17T08:14:09Z</time></trkpt><trkpt lat="48.293792655774546" lon="11.633624269898757"><ele>471.0</ele><time>2026-04-17T08:14:10Z</time></trkpt><trkpt lat="48.29387932627021" lon="11.633577310693173"><ele>470.5</ele><time>2026-04-17T08:14:11Z</time></trkpt><trkpt lat="48.293961703195194" lon="11.633528862846093"><ele>470.0</ele><time>2026-04-17T08:14:12Z</time></trkpt><trkpt lat="48.29403621449775" lon="11.6334854797328"><ele>469.5</ele><time>2026-04-17T08:14:13Z</time></trkpt><trkpt lat="48.29411231528355" lon="11.633444515481782"><ele>469.0</ele><time>2026-04-17T08:14:14Z</time></trkpt><trkpt lat="48.29418875484436" lon="11.63340439273779"><ele>468.5</ele><time>2026-04-17T08:14:15Z</time></trkpt><trkpt lat="48.29426567659078" lon="11.633364861239293"><ele>468.0</ele><time>2026-04-17T08:14:16Z</time></trkpt><trkpt lat="48.2943418288558" lon="11.633323386352645"><ele>468.0</ele><time>2026-04-17T08:14:17Z</time></trkpt><trkpt lat="48.29441822842429" lon="11.633271189552842"><ele>468.0</ele><time>2026-04-17T08:14:18Z</time></trkpt><trkpt lat="48.29449682891912" lon="11.633210609194881"><ele>468.0</ele><time>2026-04-17T08:14:19Z</time></trkpt><trkpt lat="48.29456959772236" lon="11.633141154325232"><ele>468.0</ele><time>2026-04-17T08:14:20Z</time></trkpt><trkpt lat="48.29464292792798" lon="11.633081001396791"><ele>468.0</ele><time>2026-04-17T08:14:21Z</time></trkpt><trkpt lat="48.29469535178589" lon="11.632977450352804"><ele>468.0</ele><time>2026-04-17T08:14:22Z</time></trkpt><trkpt lat="48.29475245416507" lon="11.63289157452744"><ele>468.5</ele><time>2026-04-17T08:14:23Z</time></trkpt><trkpt lat="48.29480460771067" lon="11.632799168042192"><ele>469.0</ele><time>2026-04-17T08:14:24Z</time></trkpt><trkpt lat="48.29485416444295" lon="11.63270256893582"><ele>469.5</ele><time>2026-04-17T08:14:25Z</time></trkpt><trkpt lat="48.29489668070919" lon="11.632593807903975"><ele>470.0</ele><time>2026-04-17T08:14:26Z</time></trkpt><trkpt lat="48.294934151237584" lon="11.6324770605"><ele>470.5</ele><time>2026-04-17T08:14:27Z</time></trkpt><trkpt lat="48.294962718885074" lon="11.632356178666429"><ele>471.0</ele><time>2026-04-17T08:14:28Z</time></trkpt><trkpt lat="48.29498890009107" lon="11.6322308762386"><ele>471.0</ele><time>2026-04-17T08:14:29Z</time></trkpt><trkpt lat="48.295018668345364" lon="11.632106468691072"><ele>471.0</ele><time>2026-04-17T08:14:30Z</time></trkpt><trkpt lat="48.29504998424517" lon="11.631985061083345"><ele>471.0</ele><time>2026-04-17T08:14:31Z</time></trkpt><trkpt lat="48.295079542298545" lon="11.631862032150359"><ele>471.0</ele><time>2026-04-17T08:14:32Z</time></trkpt><trkpt lat="48.29510524982438" lon="11.631737934693165"><ele>471.0</ele><time>2026-04-17T08:14:33Z</time></trkpt><trkpt lat="48.295130342674426" lon="11.631614077442299"><ele>471.0</ele><time>2026-04-17T08:14:34Z</time></trkpt><trkpt lat="48.29515299440019" lon="11.631499096305848"><ele>470.6666666666667</ele><time>2026-04-17T08:14:35Z</time></trkpt><trkpt lat="48.295172933586684" lon="11.631394702339433"><ele>470.33333333333337</ele><time>2026-04-17T08:14:36Z</time></trkpt><trkpt lat="48.295194435475864" lon="11.631285215258336"><ele>470.0</ele><time>2026-04-17T08:14:37Z</time></trkpt><trkpt lat="48.295217142484226" lon="11.63117888720081"><ele>469.6666666666667</ele><time>2026-04-17T08:14:38Z</time></trkpt><trkpt lat="48.295249215204095" lon="11.631090383233682"><ele>469.33333333333337</ele><time>2026-04-17T08:14:39Z</time></trkpt><trkpt lat="48.29534318984203" lon="11.630968856737814"><ele>469.0</ele><time>2026-04-17T08:14:41Z</time></trkpt><trkpt lat="48.2954011653975" lon="11.630924638874827"><ele>468.83333333333337</ele><time>2026-04-17T08:14:42Z</time></trkpt><trkpt lat="48.295460843232384" lon="11.63088610935561"><ele>468.6666666666667</ele><time>2026-04-17T08:14:43Z</time></trkpt><trkpt lat="48.29557639975549" lon="11.630874675263103"><ele>468.5</ele><time>2026-04-17T08:14:45Z</time></trkpt><trkpt lat="48.29565900777427" lon="11.63091153410728"><ele>468.33333333333337</ele><time>2026-04-17T08:14:47Z</time></trkpt><trkpt lat="48.29572166515803" lon="11.630971616104864"><ele>468.1666666666667</ele><time>2026-04-17T08:14:50Z</time></trkpt><trkpt lat="48.295801201616925" lon="11.631049592963102"><ele>468.0</ele><time>2026-04-17T08:15:09Z</time></trkpt><trkpt lat="48.295909494595094" lon="11.630953876180309"><ele>468.0</ele><time>2026-04-17T08:15:11Z</time></trkpt><trkpt lat="48.29594785883759" lon="11.630873189224667"><ele>468.0</ele><time>2026-04-17T08:15:12Z</time></trkpt><trkpt lat="48.295987299462304" lon="11.630797434603384"><ele>468.0</ele><time>2026-04-17T08:15:13Z</time></trkpt><trkpt lat="48.29602967547778" lon="11.630723458238844"><ele>468.0</ele><time>2026-04-17T08:15:14Z</time></trkpt><trkpt lat="48.296073701879145" lon="11.630650303474837"><ele>468.0</ele><time>2026-04-17T08:15:15Z</time></trkpt><trkpt lat="48.296149318614376" lon="11.630519961440527"><ele>468.0</ele><time>2026-04-17T08:15:17Z</time></trkpt><trkpt lat="48.29621651426848" lon="11.630413364928105"><ele>468.0</ele><time>2026-04-17T08:15:18.999Z</time></trkpt><trkpt lat="48.29627469038789" lon="11.630311486160734"><ele>467.99999999999994</ele><time>2026-04-17T08:15:20.999Z</time></trkpt><trkpt lat="48.29633165779509" lon="11.630209959836453"><ele>467.99999999999994</ele><time>2026-04-17T08:15:22.999Z</time></trkpt><trkpt lat="48.296394579563554" lon="11.630108988614365"><ele>468.0</ele><time>2026-04-17T08:15:24.999Z</time></trkpt><trkpt lat="48.29645906259231" lon="11.630006114626292"><ele>468.0</ele><time>2026-04-17T08:15:26.999Z</time></trkpt><trkpt lat="48.29651681212873" lon="11.62989860951353"><ele>467.79999999999995</ele><time>2026-04-17T08:15:28.999Z</time></trkpt><trkpt lat="48.29657432806311" lon="11.629791811167845"><ele>467.59999999999997</ele><time>2026-04-17T08:15:30.999Z</time></trkpt><trkpt lat="48.296636137604224" lon="11.629689964480939"><ele>467.40000000000003</ele><time>2026-04-17T08:15:32.999Z</time></trkpt><trkpt lat="48.296701865454516" lon="11.629578977114164"><ele>467.20000000000005</ele><time>2026-04-17T08:15:34.999Z</time></trkpt><trkpt lat="48.29678843241033" lon="11.629440750744829"><ele>467.0</ele><time>2026-04-17T08:15:36.999Z</time></trkpt><trkpt lat="48.29683751978257" lon="11.62936363397712"><ele>467.0</ele><time>2026-04-17T08:15:37.999Z</time></trkpt><trkpt lat="48.29691302657639" lon="11.629231647524827"><ele>467.00000000000006</ele><time>2026-04-17T08:15:39.999Z</time></trkpt><trkpt lat="48.29700738476975" lon="11.62907207832498"><ele>467.00000000000006</ele><time>2026-04-17T08:15:42Z</time></trkpt><trkpt lat="48.29706492790786" lon="11.628972329459657"><ele>467.0</ele><time>2026-04-17T08:15:43Z</time></trkpt><trkpt lat="48.2971236470662" lon="11.62886863225492"><ele>467.0</ele><time>2026-04-17T08:15:44Z</time></trkpt><trkpt lat="48.29718304442213" lon="11.628761006366677"><ele>467.16666666666663</ele><time>2026-04-17T08:15:45Z</time></trkpt><trkpt lat="48.29725575573618" lon="11.628672085125928"><ele>467.3333333333333</ele><time>2026-04-17T08:15:46Z</time></trkpt><trkpt lat="48.297303068717035" lon="11.628549753821858"><ele>467.5</ele><time>2026-04-17T08:15:47Z</time></trkpt><trkpt lat="48.297361066525745" lon="11.628450359803095"><ele>467.66666666666663</ele><time>2026-04-17T08:15:48Z</time></trkpt><trkpt lat="48.297419592039624" lon="11.628358041055057"><ele>467.8333333333333</ele><time>2026-04-17T08:15:49Z</time></trkpt><trkpt lat="48.29747893660069" lon="11.628262533531421"><ele>468.0</ele><time>2026-04-17T08:15:50Z</time></trkpt><trkpt lat="48.29753595039583" lon="11.628163106124843"><ele>468.0</ele><time>2026-04-17T08:15:51Z</time></trkpt><trkpt lat="48.297592423297345" lon="11.628067149542213"><ele>468.0</ele><time>2026-04-17T08:15:52Z</time></trkpt><trkpt lat="48.297651568175155" lon="11.627973432608236"><ele>468.0</ele><time>2026-04-17T08:15:53Z</time></trkpt><trkpt lat="48.297710585807486" lon="11.627878688067968"><ele>468.0</ele><time>2026-04-17T08:15:54Z</time></trkpt><trkpt lat="48.297767634308045" lon="11.627783267101858"><ele>468.0</ele><time>2026-04-17T08:15:55Z</time></trkpt><trkpt lat="48.29782282790675" lon="11.627692310401658"><ele>468.0</ele><time>2026-04-17T08:15:56Z</time></trkpt><trkpt lat="48.29788122330261" lon="11.627598813396641"><ele>467.79999999999995</ele><time>2026-04-17T08:15:57Z</time></trkpt><trkpt lat="48.29794392953127" lon="11.627501764787963"><ele>467.59999999999997</ele><time>2026-04-17T08:15:58Z</time></trkpt><trkpt lat="48.29800844265743" lon="11.62739303896516"><ele>467.40000000000003</ele><time>2026-04-17T08:15:59Z</time></trkpt><trkpt lat="48.298075851413316" lon="11.627275900786056"><ele>467.20000000000005</ele><time>2026-04-17T08:16:00Z</time></trkpt><trkpt lat="48.29814603166284" lon="11.627159209632042"><ele>467.0</ele><time>2026-04-17T08:16:01Z</time></trkpt><trkpt lat="48.298215199637916" lon="11.627045551867175"><ele>467.0</ele><time>2026-04-17T08:16:02Z</time></trkpt><trkpt lat="48.29828289427105" lon="11.626932351620079"><ele>467.00000000000006</ele><time>2026-04-17T08:16:03Z</time></trkpt><trkpt lat="48.29834654950851" lon="11.62681941594932"><ele>467.00000000000006</ele><time>2026-04-17T08:16:04Z</time></trkpt><trkpt lat="48.29840733899428" lon="11.626709254885002"><ele>467.0</ele><time>2026-04-17T08:16:05Z</time></trkpt><trkpt lat="48.29846800819545" lon="11.626605000791661"><ele>467.0</ele><time>2026-04-17T08:16:06Z</time></trkpt><trkpt lat="48.29852980903191" lon="11.626505858575728"><ele>466.99999999999994</ele><time>2026-04-17T08:16:07Z</time></trkpt><trkpt lat="48.29859014178844" lon="11.626420683486177"><ele>467.0</ele><time>2026-04-17T08:16:08Z</time></trkpt><trkpt lat="48.29864925853314" lon="11.626335076349484"><ele>467.0</ele><time>2026-04-17T08:16:09Z</time></trkpt><trkpt lat="48.29870624261761" lon="11.626243274095511"><ele>467.0</ele><time>2026-04-17T08:16:10Z</time></trkpt><trkpt lat="48.29876232183142" lon="11.626156417172846"><ele>466.99999999999994</ele><time>2026-04-17T08:16:11Z</time></trkpt><trkpt lat="48.29881839020407" lon="11.626076451698257"><ele>467.0</ele><time>2026-04-17T08:16:12Z</time></trkpt><trkpt lat="48.298871738869025" lon="11.626000150271599"><ele>467.0</ele><time>2026-04-17T08:16:13Z</time></trkpt><trkpt lat="48.29892507341291" lon="11.625920292319776"><ele>467.00000000000006</ele><time>2026-04-17T08:16:14Z</time></trkpt><trkpt lat="48.298980965908996" lon="11.625830457055992"><ele>467.00000000000006</ele><time>2026-04-17T08:16:15Z</time></trkpt><trkpt lat="48.29905112342354" lon="11.625713655589319"><ele>467.0</ele><time>2026-04-17T08:16:16Z</time></trkpt><trkpt lat="48.29911719484363" lon="11.625607868626068"><ele>467.0</ele><time>2026-04-17T08:16:17Z</time></trkpt><trkpt lat="48.299185679998615" lon="11.625501750269594"><ele>467.0</ele><time>2026-04-17T08:16:18Z</time></trkpt><trkpt lat="48.29925692621171" lon="11.625397252831691"><ele>467.00000000000006</ele><time>2026-04-17T08:16:19Z</time></trkpt><trkpt lat="48.299327386009224" lon="11.625291589837737"><ele>467.00000000000006</ele><time>2026-04-17T08:16:20Z</time></trkpt><trkpt lat="48.29939810356951" lon="11.625176496677017"><ele>467.0</ele><time>2026-04-17T08:16:21Z</time></trkpt><trkpt lat="48.29947015168131" lon="11.625065139127429"><ele>467.0</ele><time>2026-04-17T08:16:22Z</time></trkpt><trkpt lat="48.299542286578884" lon="11.624955792438213"><ele>467.0</ele><time>2026-04-17T08:16:23Z</time></trkpt><trkpt lat="48.29961402644052" lon="11.624846264231383"><ele>467.00000000000006</ele><time>2026-04-17T08:16:24Z</time></trkpt><trkpt lat="48.2996851156534" lon="11.624737457482077"><ele>467.00000000000006</ele><time>2026-04-17T08:16:25Z</time></trkpt><trkpt lat="48.299753827953936" lon="11.62462982030641"><ele>467.0</ele><time>2026-04-17T08:16:26Z</time></trkpt><trkpt lat="48.29981920134672" lon="11.624526751061357"><ele>467.0</ele><time>2026-04-17T08:16:27Z</time></trkpt><trkpt lat="48.29988379882939" lon="11.62442755084651"><ele>467.0</ele><time>2026-04-17T08:16:28Z</time></trkpt><trkpt lat="48.299946385948566" lon="11.62433010381828"><ele>467.00000000000006</ele><time>2026-04-17T08:16:29Z</time></trkpt><trkpt lat="48.30001002294737" lon="11.624235000772808"><ele>467.00000000000006</ele><time>2026-04-17T08:16:30Z</time></trkpt><trkpt lat="48.300076282483374" lon="11.624134161018187"><ele>467.0</ele><time>2026-04-17T08:16:31Z</time></trkpt><trkpt lat="48.300143975490116" lon="11.624031796047836"><ele>467.0</ele><time>2026-04-17T08:16:32Z</time></trkpt><trkpt lat="48.300209681945944" lon="11.623924847020765"><ele>467.0</ele><time>2026-04-17T08:16:33Z</time></trkpt><trkpt lat="48.300272617385225" lon="11.623819049829574"><ele>467.00000000000006</ele><time>2026-04-17T08:16:34Z</time></trkpt><trkpt lat="48.300338267476626" lon="11.623716461055025"><ele>467.00000000000006</ele><time>2026-04-17T08:16:35Z</time></trkpt><trkpt lat="48.30040475446358" lon="11.623612227915588"><ele>467.0</ele><time>2026-04-17T08:16:36Z</time></trkpt><trkpt lat="48.3004702265757" lon="11.623501207274096"><ele>467.0</ele><time>2026-04-17T08:16:37Z</time></trkpt><trkpt lat="48.30053575754451" lon="11.623385184874124"><ele>467.25</ele><time>2026-04-17T08:16:38Z</time></trkpt><trkpt lat="48.30060755260662" lon="11.62326788323358"><ele>467.5</ele><time>2026-04-17T08:16:39Z</time></trkpt><trkpt lat="48.3006851900564" lon="11.623142994687347"><ele>467.75</ele><time>2026-04-17T08:16:40Z</time></trkpt><trkpt lat="48.30076717511076" lon="11.623012422733158"><ele>468.0</ele><time>2026-04-17T08:16:41Z</time></trkpt><trkpt lat="48.30084997297142" lon="11.622884978361293"><ele>468.0</ele><time>2026-04-17T08:16:42Z</time></trkpt><trkpt lat="48.30093437678226" lon="11.62275990243762"><ele>467.99999999999994</ele><time>2026-04-17T08:16:43Z</time></trkpt><trkpt lat="48.30101458426757" lon="11.622645068406312"><ele>467.99999999999994</ele><time>2026-04-17T08:16:44Z</time></trkpt><trkpt lat="48.301089389787734" lon="11.622536930932698"><ele>468.0</ele><time>2026-04-17T08:16:45Z</time></trkpt><trkpt lat="48.30116345016453" lon="11.622434798015362"><ele>468.0</ele><time>2026-04-17T08:16:46Z</time></trkpt><trkpt lat="48.301236172271274" lon="11.622336406396009"><ele>468.0</ele><time>2026-04-17T08:16:47Z</time></trkpt><trkpt lat="48.30130814288559" lon="11.622241162488537"><ele>467.99999999999994</ele><time>2026-04-17T08:16:48Z</time></trkpt><trkpt lat="48.30138141738037" lon="11.622146658435057"><ele>467.99999999999994</ele><time>2026-04-17T08:16:49Z</time></trkpt><trkpt lat="48.30145745035173" lon="11.622054030785579"><ele>468.0</ele><time>2026-04-17T08:16:50Z</time></trkpt><trkpt lat="48.301546151754465" lon="11.621984241320002"><ele>468.0</ele><time>2026-04-17T08:16:51Z</time></trkpt><trkpt lat="48.30162336404304" lon="11.621882293381129"><ele>467.59999999999997</ele><time>2026-04-17T08:16:52Z</time></trkpt><trkpt lat="48.30171553132914" lon="11.621813476838458"><ele>467.19999999999993</ele><time>2026-04-17T08:16:53Z</time></trkpt><trkpt lat="48.30180293751845" lon="11.62174329346532"><ele>466.8</ele><time>2026-04-17T08:16:54Z</time></trkpt><trkpt lat="48.30188879548215" lon="11.62167691275682"><ele>466.4</ele><time>2026-04-17T08:16:55Z</time></trkpt><trkpt lat="48.30197280035739" lon="11.621610916335564"><ele>466.0</ele><time>2026-04-17T08:16:56Z</time></trkpt><trkpt lat="48.30205458249951" lon="11.621547130320105"><ele>466.00000000000006</ele><time>2026-04-17T08:16:57Z</time></trkpt><trkpt lat="48.30213516729922" lon="11.621489871253603"><ele>466.0</ele><time>2026-04-17T08:16:58Z</time></trkpt><trkpt lat="48.302215187646766" lon="11.6214449720521"><ele>466.0</ele><time>2026-04-17T08:16:59Z</time></trkpt><trkpt lat="48.30229092085619" lon="11.621396200304373"><ele>466.0</ele><time>2026-04-17T08:17:00Z</time></trkpt><trkpt lat="48.30236327640984" lon="11.621345280728935"><ele>466.00000000000006</ele><time>2026-04-17T08:17:01Z</time></trkpt><trkpt lat="48.302433999428125" lon="11.621298635983527"><ele>466.0</ele><time>2026-04-17T08:17:02Z</time></trkpt><trkpt lat="48.30250551699009" lon="11.621250892419775"><ele>465.83333333333337</ele><time>2026-04-17T08:17:03Z</time></trkpt><trkpt lat="48.30257464127747" lon="11.621203567932511"><ele>465.6666666666667</ele><time>2026-04-17T08:17:04Z</time></trkpt><trkpt lat="48.30264141663833" lon="11.621161039728575"><ele>465.5</ele><time>2026-04-17T08:17:05Z</time></trkpt><trkpt lat="48.30270214475316" lon="11.621126256435478"><ele>465.33333333333337</ele><time>2026-04-17T08:17:06Z</time></trkpt><trkpt lat="48.30281453375433" lon="11.621058696364235"><ele>465.1666666666667</ele><time>2026-04-17T08:17:08Z</time></trkpt><trkpt lat="48.30287719397256" lon="11.621020198048935"><ele>465.0</ele><time>2026-04-17T08:17:09Z</time></trkpt><trkpt lat="48.30293915596066" lon="11.620984026847982"><ele>465.0</ele><time>2026-04-17T08:17:10Z</time></trkpt><trkpt lat="48.30304491123472" lon="11.620933705064488"><ele>465.0</ele><time>2026-04-17T08:17:12Z</time></trkpt><trkpt lat="48.303125247581455" lon="11.620894594422738"><ele>465.0</ele><time>2026-04-17T08:17:14Z</time></trkpt><trkpt lat="48.30321062599447" lon="11.620849415382374"><ele>465.0</ele><time>2026-04-17T08:17:16.999Z</time></trkpt><trkpt lat="48.30328129804378" lon="11.620807854146676"><ele>465.0</ele><time>2026-04-17T08:17:48.999Z</time></trkpt><trkpt lat="48.303392513499446" lon="11.620744078832912"><ele>465.4</ele><time>2026-04-17T08:17:50.999Z</time></trkpt><trkpt lat="48.30349085247745" lon="11.6206955597097"><ele>465.8</ele><time>2026-04-17T08:17:51.999Z</time></trkpt><trkpt lat="48.30358982567588" lon="11.620651360915438"><ele>466.20000000000005</ele><time>2026-04-17T08:17:52.999Z</time></trkpt><trkpt lat="48.303673906326246" lon="11.620610994243465"><ele>466.6</ele><time>2026-04-17T08:17:53.999Z</time></trkpt><trkpt lat="48.30377424145945" lon="11.620566377091"><ele>467.0</ele><time>2026-04-17T08:17:55.999Z</time></trkpt><trkpt lat="48.30384011163863" lon="11.620539520582136"><ele>466.99999999999994</ele><time>2026-04-17T08:17:56.999Z</time></trkpt><trkpt lat="48.303913697883196" lon="11.620510925077532"><ele>467.0</ele><time>2026-04-17T08:17:57.999Z</time></trkpt><trkpt lat="48.303994448437116" lon="11.620475463903201"><ele>467.0</ele><time>2026-04-17T08:17:58.999Z</time></trkpt><trkpt lat="48.30407453872498" lon="11.62044070941346"><ele>467.0</ele><time>2026-04-17T08:17:59.999Z</time></trkpt><trkpt lat="48.304148707357065" lon="11.6204078177107"><ele>466.99999999999994</ele><time>2026-04-17T08:18:00.999Z</time></trkpt><trkpt lat="48.30422538869912" lon="11.620374600645482"><ele>467.0</ele><time>2026-04-17T08:18:01.999Z</time></trkpt><trkpt lat="48.30430958859106" lon="11.620335973907807"><ele>467.0</ele><time>2026-04-17T08:18:02.999Z</time></trkpt><trkpt lat="48.30440249660345" lon="11.620292125703106"><ele>467.00000000000006</ele><time>2026-04-17T08:18:03.999Z</time></trkpt><trkpt lat="48.30449129348647" lon="11.620251044690391"><ele>467.00000000000006</ele><time>2026-04-17T08:18:04.999Z</time></trkpt><trkpt lat="48.3045770233474" lon="11.62021160010246"><ele>467.0</ele><time>2026-04-17T08:18:05.999Z</time></trkpt><trkpt lat="48.30465981376594" lon="11.620171803116804"><ele>467.0</ele><time>2026-04-17T08:18:06.999Z</time></trkpt><trkpt lat="48.304742379804296" lon="11.620131490181727"><ele>467.0</ele><time>2026-04-17T08:18:07.999Z</time></trkpt><trkpt lat="48.30482510336342" lon="11.620090618590794"><ele>467.00000000000006</ele><time>2026-04-17T08:18:08.999Z</time></trkpt><trkpt lat="48.30490980693746" lon="11.620049120124202"><ele>467.00000000000006</ele><time>2026-04-17T08:18:09.999Z</time></trkpt><trkpt lat="48.30499898529805" lon="11.620006547171542"><ele>467.0</ele><time>2026-04-17T08:18:10.999Z</time></trkpt><trkpt lat="48.30509338767744" lon="11.619960275935847"><ele>467.0</ele><time>2026-04-17T08:18:11.999Z</time></trkpt><trkpt lat="48.30518939908779" lon="11.619911913904705"><ele>467.0</ele><time>2026-04-17T08:18:12.999Z</time></trkpt><trkpt lat="48.30528733056076" lon="11.619863170129085"><ele>467.00000000000006</ele><time>2026-04-17T08:18:13.999Z</time></trkpt><trkpt lat="48.305390064207785" lon="11.619814774745823"><ele>467.00000000000006</ele><time>2026-04-17T08:18:14.999Z</time></trkpt><trkpt lat="48.30549481592988" lon="11.61976841354114"><ele>467.0</ele><time>2026-04-17T08:18:15.999Z</time></trkpt><trkpt lat="48.305599946686" lon="11.619719509668345"><ele>467.0</ele><time>2026-04-17T08:18:16.999Z</time></trkpt><trkpt lat="48.30570451920368" lon="11.619664535162608"><ele>467.5</ele><time>2026-04-17T08:18:17.999Z</time></trkpt><trkpt lat="48.30581414599179" lon="11.619618723184782"><ele>468.0</ele><time>2026-04-17T08:18:18.999Z</time></trkpt><trkpt lat="48.30592611939708" lon="11.619570873197272"><ele>468.5</ele><time>2026-04-17T08:18:19.999Z</time></trkpt><trkpt lat="48.30604600936465" lon="11.619520944674509"><ele>469.0</ele><time>2026-04-17T08:18:20.999Z</time></trkpt><trkpt lat="48.30615845724406" lon="11.61947369945902"><ele>468.2</ele><time>2026-04-17T08:18:21.999Z</time></trkpt><trkpt lat="48.30626183739769" lon="11.619432774574538"><ele>467.4</ele><time>2026-04-17T08:18:22.999Z</time></trkpt><trkpt lat="48.30636032857136" lon="11.61939582977221"><ele>466.6</ele><time>2026-04-17T08:18:23.999Z</time></trkpt><trkpt lat="48.30646238437499" lon="11.6193553016153"><ele>465.8</ele><time>2026-04-17T08:18:24.999Z</time></trkpt><trkpt lat="48.30656698854296" lon="11.619313535043913"><ele>465.0</ele><time>2026-04-17T08:18:25.999Z</time></trkpt><trkpt lat="48.306673605375565" lon="11.619269809109928"><ele>464.8</ele><time>2026-04-17T08:18:26.999Z</time></trkpt><trkpt lat="48.30677968019107" lon="11.619221119028932"><ele>464.6</ele><time>2026-04-17T08:18:27.999Z</time></trkpt><trkpt lat="48.30688562346067" lon="11.619172320678556"><ele>464.4</ele><time>2026-04-17T08:18:28.999Z</time></trkpt><trkpt lat="48.30699055998159" lon="11.619122334946244"><ele>464.2</ele><time>2026-04-17T08:18:29.999Z</time></trkpt><trkpt lat="48.307093231311676" lon="11.619071516124984"><ele>464.0</ele><time>2026-04-17T08:18:30.999Z</time></trkpt><trkpt lat="48.307196537433306" lon="11.619019766755763"><ele>463.75</ele><time>2026-04-17T08:18:31.999Z</time></trkpt><trkpt lat="48.307303562057676" lon="11.618968684482294"><ele>463.5</ele><time>2026-04-17T08:18:32.999Z</time></trkpt><trkpt lat="48.30741639874058" lon="11.618914384335431"><ele>463.25</ele><time>2026-04-17T08:18:33.999Z</time></trkpt><trkpt lat="48.30753631677005" lon="11.618854228054492"><ele>463.0</ele><time>2026-04-17T08:18:34.999Z</time></trkpt><trkpt lat="48.30766186264296" lon="11.618793068210625"><ele>463.0</ele><time>2026-04-17T08:18:35.999Z</time></trkpt><trkpt lat="48.30778635154937" lon="11.618733381562668"><ele>463.0</ele><time>2026-04-17T08:18:36.999Z</time></trkpt><trkpt lat="48.307907646140016" lon="11.618674380482023"><ele>463.0</ele><time>2026-04-17T08:18:37.999Z</time></trkpt><trkpt lat="48.30802568244768" lon="11.61861404784154"><ele>463.0</ele><time>2026-04-17T08:18:38.999Z</time></trkpt><trkpt lat="48.308142272092326" lon="11.618555877261588"><ele>462.75</ele><time>2026-04-17T08:18:39.999Z</time></trkpt><trkpt lat="48.308254884253294" lon="11.618501790488983"><ele>462.5</ele><time>2026-04-17T08:18:40.999Z</time></trkpt><trkpt lat="48.308366690055486" lon="11.618450215319202"><ele>462.25</ele><time>2026-04-17T08:18:41.999Z</time></trkpt><trkpt lat="48.30847966801245" lon="11.618396452858633"><ele>462.0</ele><time>2026-04-17T08:18:42.999Z</time></trkpt><trkpt lat="48.30859382766735" lon="11.618339406585818"><ele>462.0</ele><time>2026-04-17T08:18:43.999Z</time></trkpt><trkpt lat="48.30870770815465" lon="11.618282862041394"><ele>462.0</ele><time>2026-04-17T08:18:44.999Z</time></trkpt><trkpt lat="48.30882148521854" lon="11.618225507263741"><ele>462.0</ele><time>2026-04-17T08:18:45.999Z</time></trkpt><trkpt lat="48.308933736915684" lon="11.618166530238106"><ele>462.0</ele><time>2026-04-17T08:18:46.999Z</time></trkpt><trkpt lat="48.30904447036159" lon="11.618106999957186"><ele>462.25</ele><time>2026-04-17T08:18:47.999Z</time></trkpt><trkpt lat="48.30915475584418" lon="11.618046428651896"><ele>462.5</ele><time>2026-04-17T08:18:48.999Z</time></trkpt><trkpt lat="48.30926392169223" lon="11.61798592314362"><ele>462.75</ele><time>2026-04-17T08:18:49.999Z</time></trkpt><trkpt lat="48.30937445570972" lon="11.617922256613005"><ele>463.0</ele><time>2026-04-17T08:18:50.999Z</time></trkpt><trkpt lat="48.30948646645647" lon="11.61785644331968"><ele>463.0</ele><time>2026-04-17T08:18:51.999Z</time></trkpt><trkpt lat="48.309601166468774" lon="11.617782551587323"><ele>463.0</ele><time>2026-04-17T08:18:52.999Z</time></trkpt><trkpt lat="48.30971968912755" lon="11.617700604536859"><ele>463.0</ele><time>2026-04-17T08:18:53.999Z</time></trkpt><trkpt lat="48.309840419999475" lon="11.617611974537466"><ele>463.0</ele><time>2026-04-17T08:18:54.999Z</time></trkpt><trkpt lat="48.30995979599023" lon="11.617517715292125"><ele>463.0</ele><time>2026-04-17T08:18:55.999Z</time></trkpt><trkpt lat="48.31008122224362" lon="11.617417844414247"><ele>463.0</ele><time>2026-04-17T08:18:56.999Z</time></trkpt><trkpt lat="48.3102021386874" lon="11.617311391722245"><ele>463.0</ele><time>2026-04-17T08:18:57.999Z</time></trkpt><trkpt lat="48.310331806953975" lon="11.617214540302584"><ele>463.0</ele><time>2026-04-17T08:18:58.999Z</time></trkpt><trkpt lat="48.31045664974542" lon="11.617062260957876"><ele>463.0</ele><time>2026-04-17T08:18:59.999Z</time></trkpt><trkpt lat="48.31061045333926" lon="11.61691432857142"><ele>463.0</ele><time>2026-04-17T08:19:00.999Z</time></trkpt><trkpt lat="48.31075347376061" lon="11.61674114188187"><ele>463.0</ele><time>2026-04-17T08:19:01.999Z</time></trkpt><trkpt lat="48.310874354609595" lon="11.616580957181558"><ele>463.0</ele><time>2026-04-17T08:19:02.999Z</time></trkpt><trkpt lat="48.31098256317035" lon="11.616423994973871"><ele>463.0</ele><time>2026-04-17T08:19:03.999Z</time></trkpt><trkpt lat="48.31108605433288" lon="11.616263802854617"><ele>463.0</ele><time>2026-04-17T08:19:04.999Z</time></trkpt><trkpt lat="48.3111894290371" lon="11.616098799675571"><ele>463.0</ele><time>2026-04-17T08:19:05.999Z</time></trkpt><trkpt lat="48.31129117038425" lon="11.615928374450162"><ele>463.0</ele><time>2026-04-17T08:19:06.999Z</time></trkpt><trkpt lat="48.31139116929044" lon="11.615745837486314"><ele>463.0</ele><time>2026-04-17T08:19:07.999Z</time></trkpt><trkpt lat="48.31149487219279" lon="11.615546361392994"><ele>463.0</ele><time>2026-04-17T08:19:08.999Z</time></trkpt><trkpt lat="48.31160369371558" lon="11.615323683971365"><ele>463.0</ele><time>2026-04-17T08:19:09.999Z</time></trkpt><trkpt lat="48.3117109155303" lon="11.615089860369027"><ele>463.0</ele><time>2026-04-17T08:19:10.999Z</time></trkpt><trkpt lat="48.3118106549992" lon="11.614858653718112"><ele>463.0</ele><time>2026-04-17T08:19:11.999Z</time></trkpt><trkpt lat="48.311900531558756" lon="11.614639118651017"><ele>463.0</ele><time>2026-04-17T08:19:12.999Z</time></trkpt><trkpt lat="48.311977101689735" lon="11.61443620319355"><ele>463.0</ele><time>2026-04-17T08:19:13.999Z</time></trkpt><trkpt lat="48.3120487416689" lon="11.614234663966089"><ele>463.0</ele><time>2026-04-17T08:19:14.999Z</time></trkpt><trkpt lat="48.31211866148014" lon="11.61403384817076"><ele>463.0</ele><time>2026-04-17T08:19:15.999Z</time></trkpt><trkpt lat="48.31218824722668" lon="11.613826779055154"><ele>463.0</ele><time>2026-04-17T08:19:16.999Z</time></trkpt><trkpt lat="48.312256592764044" lon="11.61362027886203"><ele>463.5</ele><time>2026-04-17T08:19:17.999Z</time></trkpt><trkpt lat="48.312322147143696" lon="11.613416754087071"><ele>464.0</ele><time>2026-04-17T08:19:18.999Z</time></trkpt><trkpt lat="48.31238623567909" lon="11.613219935666756"><ele>464.5</ele><time>2026-04-17T08:19:19.999Z</time></trkpt><trkpt lat="48.31244746315378" lon="11.61302899280548"><ele>465.0</ele><time>2026-04-17T08:19:20.999Z</time></trkpt><trkpt lat="48.312504384544866" lon="11.612842264526313"><ele>464.5</ele><time>2026-04-17T08:19:21.999Z</time></trkpt><trkpt lat="48.312561993558255" lon="11.612654281535766"><ele>464.0</ele><time>2026-04-17T08:19:22.999Z</time></trkpt><trkpt lat="48.3126204001774" lon="11.612463067046878"><ele>463.5</ele><time>2026-04-17T08:19:23.999Z</time></trkpt><trkpt lat="48.31267964785626" lon="11.61226376172714"><ele>463.0</ele><time>2026-04-17T08:19:24.999Z</time></trkpt><trkpt lat="48.31274046698352" lon="11.612057185357544"><ele>463.6666666666667</ele><time>2026-04-17T08:19:25.999Z</time></trkpt><trkpt lat="48.31280422170034" lon="11.611837459349355"><ele>464.33333333333337</ele><time>2026-04-17T08:19:26.999Z</time></trkpt><trkpt lat="48.31287292846662" lon="11.61161492259724"><ele>465.0</ele><time>2026-04-17T08:19:27.999Z</time></trkpt><trkpt lat="48.31294388594191" lon="11.61138549935301"><ele>464.0</ele><time>2026-04-17T08:19:28.999Z</time></trkpt><trkpt lat="48.31301931582912" lon="11.611153682056553"><ele>463.0</ele><time>2026-04-17T08:19:29.999Z</time></trkpt><trkpt lat="48.31309528805968" lon="11.610926884036202"><ele>462.0</ele><time>2026-04-17T08:19:30.999Z</time></trkpt><trkpt lat="48.31316893056774" lon="11.61071546097213"><ele>462.0</ele><time>2026-04-17T08:19:31.999Z</time></trkpt><trkpt lat="48.313240070257066" lon="11.610518519311873"><ele>462.0</ele><time>2026-04-17T08:19:32.999Z</time></trkpt><trkpt lat="48.31330934208201" lon="11.610324470867837"><ele>462.0</ele><time>2026-04-17T08:19:33.999Z</time></trkpt><trkpt lat="48.313388950485574" lon="11.61013868410453"><ele>462.0</ele><time>2026-04-17T08:19:34.999Z</time></trkpt><trkpt lat="48.31346677849987" lon="11.609947739585545"><ele>461.66666666666663</ele><time>2026-04-17T08:19:35.999Z</time></trkpt><trkpt lat="48.31354942587333" lon="11.609747012804192"><ele>461.3333333333333</ele><time>2026-04-17T08:19:36.999Z</time></trkpt><trkpt lat="48.31364455814226" lon="11.60954166981975"><ele>461.0</ele><time>2026-04-17T08:19:37.999Z</time></trkpt><trkpt lat="48.313748295496346" lon="11.60933080195675"><ele>461.3333333333333</ele><time>2026-04-17T08:19:38.999Z</time></trkpt><trkpt lat="48.31385380957853" lon="11.609110426752663"><ele>461.66666666666663</ele><time>2026-04-17T08:19:39.999Z</time></trkpt><trkpt lat="48.31396681637029" lon="11.608889359094754"><ele>462.0</ele><time>2026-04-17T08:19:40.999Z</time></trkpt><trkpt lat="48.31408388488206" lon="11.608679189678677"><ele>462.33333333333337</ele><time>2026-04-17T08:19:41.999Z</time></trkpt><trkpt lat="48.31420574976211" lon="11.608477911998552"><ele>462.6666666666667</ele><time>2026-04-17T08:19:42.999Z</time></trkpt><trkpt lat="48.314331273274455" lon="11.608284198127139"><ele>463.0</ele><time>2026-04-17T08:19:43.999Z</time></trkpt><trkpt lat="48.31445442694907" lon="11.60810397172941"><ele>463.0</ele><time>2026-04-17T08:19:44.999Z</time></trkpt><trkpt lat="48.314576508497616" lon="11.607932335796942"><ele>463.0</ele><time>2026-04-17T08:19:45.999Z</time></trkpt><trkpt lat="48.31469992460468" lon="11.607768402291212"><ele>463.0</ele><time>2026-04-17T08:19:46.999Z</time></trkpt><trkpt lat="48.31482288571193" lon="11.607616287393654"><ele>462.5</ele><time>2026-04-17T08:19:47.999Z</time></trkpt><trkpt lat="48.31494645283598" lon="11.607478601881876"><ele>462.0</ele><time>2026-04-17T08:19:48.999Z</time></trkpt><trkpt lat="48.31506839168412" lon="11.607355324896627"><ele>461.5</ele><time>2026-04-17T08:19:49.999Z</time></trkpt><trkpt lat="48.31518722652247" lon="11.607229830733898"><ele>461.0</ele><time>2026-04-17T08:19:50.999Z</time></trkpt><trkpt lat="48.31530927418562" lon="11.607101459168524"><ele>461.25</ele><time>2026-04-17T08:19:51.999Z</time></trkpt><trkpt lat="48.31543243243468" lon="11.606976719338242"><ele>461.5</ele><time>2026-04-17T08:19:52.999Z</time></trkpt><trkpt lat="48.315554488595666" lon="11.606850665635971"><ele>461.75</ele><time>2026-04-17T08:19:53.999Z</time></trkpt><trkpt lat="48.3156817414135" lon="11.606732859349973"><ele>462.0</ele><time>2026-04-17T08:19:54.999Z</time></trkpt><trkpt lat="48.31581194929387" lon="11.606626205661389"><ele>461.5</ele><time>2026-04-17T08:19:55.999Z</time></trkpt><trkpt lat="48.31593266053307" lon="11.606500422357605"><ele>461.0</ele><time>2026-04-17T08:19:56.999Z</time></trkpt><trkpt lat="48.31606104606467" lon="11.606395677425729"><ele>460.5</ele><time>2026-04-17T08:19:57.999Z</time></trkpt><trkpt lat="48.316190254723324" lon="11.606291267417273"><ele>460.0</ele><time>2026-04-17T08:19:58.999Z</time></trkpt><trkpt lat="48.31631392193207" lon="11.606174631569013"><ele>460.33333333333337</ele><time>2026-04-17T08:19:59.999Z</time></trkpt><trkpt lat="48.31644076331963" lon="11.606062872328067"><ele>460.66666666666663</ele><time>2026-04-17T08:20:00.999Z</time></trkpt><trkpt lat="48.31657416000755" lon="11.605944141128843"><ele>461.0</ele><time>2026-04-17T08:20:01.999Z</time></trkpt><trkpt lat="48.316706902381604" lon="11.605827467046456"><ele>461.0</ele><time>2026-04-17T08:20:02.999Z</time></trkpt><trkpt lat="48.316837249181155" lon="11.605707744593722"><ele>461.0</ele><time>2026-04-17T08:20:03.999Z</time></trkpt><trkpt lat="48.31697369949061" lon="11.60557854081114"><ele>461.0</ele><time>2026-04-17T08:20:04.999Z</time></trkpt><trkpt lat="48.317119946602034" lon="11.605446784663673"><ele>461.0</ele><time>2026-04-17T08:20:05.999Z</time></trkpt><trkpt lat="48.31727146830847" lon="11.605315390994942"><ele>461.0</ele><time>2026-04-17T08:20:06.999Z</time></trkpt><trkpt lat="48.31742211839754" lon="11.605185302607149"><ele>461.0</ele><time>2026-04-17T08:20:07.999Z</time></trkpt><trkpt lat="48.31756876392634" lon="11.60505765215476"><ele>461.0</ele><time>2026-04-17T08:20:08.999Z</time></trkpt><trkpt lat="48.317707563213645" lon="11.604937174687992"><ele>461.0</ele><time>2026-04-17T08:20:09.999Z</time></trkpt><trkpt lat="48.317839524126995" lon="11.604826779387242"><ele>461.0</ele><time>2026-04-17T08:20:10.999Z</time></trkpt><trkpt lat="48.31797490704425" lon="11.604714377790792"><ele>461.0</ele><time>2026-04-17T08:20:11.999Z</time></trkpt><trkpt lat="48.318106216695476" lon="11.60460440549953"><ele>461.0</ele><time>2026-04-17T08:20:12.999Z</time></trkpt><trkpt lat="48.31823681145758" lon="11.604492211384612"><ele>461.0</ele><time>2026-04-17T08:20:13.999Z</time></trkpt><trkpt lat="48.318367210144494" lon="11.604377023979822"><ele>461.0</ele><time>2026-04-17T08:20:14.999Z</time></trkpt><trkpt lat="48.318502209648805" lon="11.604259260009048"><ele>461.0</ele><time>2026-04-17T08:20:15.999Z</time></trkpt><trkpt lat="48.31863708969086" lon="11.604143999317818"><ele>461.0</ele><time>2026-04-17T08:20:16.999Z</time></trkpt><trkpt lat="48.3187723809215" lon="11.604032205536608"><ele>461.0</ele><time>2026-04-17T08:20:17.999Z</time></trkpt><trkpt lat="48.318904087374314" lon="11.603925599280572"><ele>461.0</ele><time>2026-04-17T08:20:19Z</time></trkpt><trkpt lat="48.31903260901575" lon="11.603820236570531"><ele>461.0</ele><time>2026-04-17T08:20:20Z</time></trkpt><trkpt lat="48.31915657597052" lon="11.603715813505671"><ele>461.0</ele><time>2026-04-17T08:20:21Z</time></trkpt><trkpt lat="48.31927753460155" lon="11.60361469964273"><ele>461.0</ele><time>2026-04-17T08:20:22Z</time></trkpt><trkpt lat="48.3193977762755" lon="11.603516594825091"><ele>461.0</ele><time>2026-04-17T08:20:23Z</time></trkpt><trkpt lat="48.31951643071578" lon="11.603417642263736"><ele>461.0</ele><time>2026-04-17T08:20:24Z</time></trkpt><trkpt lat="48.31963247727267" lon="11.603318037831365"><ele>461.0</ele><time>2026-04-17T08:20:25Z</time></trkpt><trkpt lat="48.31974653843909" lon="11.603221880014681"><ele>461.20000000000005</ele><time>2026-04-17T08:20:26Z</time></trkpt><trkpt lat="48.31985408080868" lon="11.603130070710487"><ele>461.40000000000003</ele><time>2026-04-17T08:20:27Z</time></trkpt><trkpt lat="48.31994958395443" lon="11.603050660729311"><ele>461.6</ele><time>2026-04-17T08:20:28Z</time></trkpt><trkpt lat="48.320035398499286" lon="11.60298156849091"><ele>461.8</ele><time>2026-04-17T08:20:29Z</time></trkpt><trkpt lat="48.32010915630363" lon="11.602922975515455"><ele>462.0</ele><time>2026-04-17T08:20:30Z</time></trkpt><trkpt lat="48.320179176442316" lon="11.602865918781664"><ele>462.1428571428571</ele><time>2026-04-17T08:20:31Z</time></trkpt><trkpt lat="48.32024431015677" lon="11.60281202403176"><ele>462.2857142857143</ele><time>2026-04-17T08:20:32Z</time></trkpt><trkpt lat="48.32030629028732" lon="11.602760389939016"><ele>462.42857142857144</ele><time>2026-04-17T08:20:33Z</time></trkpt><trkpt lat="48.32036447727795" lon="11.602711014005115"><ele>462.57142857142856</ele><time>2026-04-17T08:20:34Z</time></trkpt><trkpt lat="48.32042512771943" lon="11.602660748802947"><ele>462.71428571428567</ele><time>2026-04-17T08:20:35Z</time></trkpt><trkpt lat="48.3204860296657" lon="11.602610411350176"><ele>462.85714285714283</ele><time>2026-04-17T08:20:36Z</time></trkpt><trkpt lat="48.32054746034137" lon="11.60255857324375"><ele>463.0</ele><time>2026-04-17T08:20:37Z</time></trkpt><trkpt lat="48.320603535036874" lon="11.60250188999722"><ele>464.00000000000006</ele><time>2026-04-17T08:20:38Z</time></trkpt><trkpt lat="48.32065758738463" lon="11.602448283405158"><ele>465.0</ele><time>2026-04-17T08:20:39Z</time></trkpt><trkpt lat="48.320709672322835" lon="11.602393283652031"><ele>466.0</ele><time>2026-04-17T08:20:40Z</time></trkpt><trkpt lat="48.32080129968721" lon="11.60226962785388"><ele>467.0</ele><time>2026-04-17T08:20:42Z</time></trkpt><trkpt lat="48.32084781314082" lon="11.602197988248308"><ele>468.00000000000006</ele><time>2026-04-17T08:20:43Z</time></trkpt><trkpt lat="48.32089803688886" lon="11.602121052848792"><ele>469.0</ele><time>2026-04-17T08:20:44Z</time></trkpt><trkpt lat="48.32094570507534" lon="11.602051266454547"><ele>468.83333333333337</ele><time>2026-04-17T08:20:45Z</time></trkpt><trkpt lat="48.32103031467097" lon="11.601929778087005"><ele>468.6666666666667</ele><time>2026-04-17T08:20:47Z</time></trkpt><trkpt lat="48.32112309875826" lon="11.6018044291691"><ele>468.5</ele><time>2026-04-17T08:20:49Z</time></trkpt><trkpt lat="48.321172781547354" lon="11.601737699640232"><ele>468.33333333333337</ele><time>2026-04-17T08:20:50Z</time></trkpt><trkpt lat="48.321222864580115" lon="11.601669195288117"><ele>468.1666666666667</ele><time>2026-04-17T08:20:51Z</time></trkpt><trkpt lat="48.321274454202815" lon="11.60160967120042"><ele>468.0</ele><time>2026-04-17T08:20:52Z</time></trkpt><trkpt lat="48.32132955190269" lon="11.601549550811585"><ele>468.0</ele><time>2026-04-17T08:20:53Z</time></trkpt><trkpt lat="48.32139605115845" lon="11.601520231111552"><ele>468.00000000000006</ele><time>2026-04-17T08:20:54Z</time></trkpt><trkpt lat="48.32144888905622" lon="11.601449971469876"><ele>468.0</ele><time>2026-04-17T08:20:55Z</time></trkpt><trkpt lat="48.32150981267432" lon="11.601404142382941"><ele>468.0</ele><time>2026-04-17T08:20:56Z</time></trkpt><trkpt lat="48.32157286020766" lon="11.601360338134013"><ele>468.00000000000006</ele><time>2026-04-17T08:20:57Z</time></trkpt><trkpt lat="48.32163269044059" lon="11.601318526696506"><ele>468.0</ele><time>2026-04-17T08:20:58Z</time></trkpt><trkpt lat="48.32169727999324" lon="11.60131288619807"><ele>468.0</ele><time>2026-04-17T08:20:59Z</time></trkpt><trkpt lat="48.32180979590924" lon="11.601243208850718"><ele>469.3333333333333</ele><time>2026-04-17T08:21:01Z</time></trkpt><trkpt lat="48.32187359728541" lon="11.601232209912645"><ele>470.66666666666663</ele><time>2026-04-17T08:21:02Z</time></trkpt><trkpt lat="48.32194213199782" lon="11.601227095627415"><ele>472.0</ele><time>2026-04-17T08:21:03Z</time></trkpt><trkpt lat="48.32201514800961" lon="11.601239791622442"><ele>473.3333333333333</ele><time>2026-04-17T08:21:04Z</time></trkpt><trkpt lat="48.32208584781963" lon="11.601258799073268"><ele>474.66666666666663</ele><time>2026-04-17T08:21:05Z</time></trkpt><trkpt lat="48.32215273130793" lon="11.601271248336099"><ele>476.0</ele><time>2026-04-17T08:21:06Z</time></trkpt><trkpt lat="48.32226674711329" lon="11.601289762002228"><ele>477.3333333333333</ele><time>2026-04-17T08:21:08Z</time></trkpt><trkpt lat="48.322376417225925" lon="11.60124626093783"><ele>478.66666666666663</ele><time>2026-04-17T08:21:10Z</time></trkpt><trkpt lat="48.32243099562185" lon="11.60117833661161"><ele>480.0</ele><time>2026-04-17T08:21:11Z</time></trkpt><trkpt lat="48.32248798144666" lon="11.601095947294013"><ele>481.33333333333337</ele><time>2026-04-17T08:21:12Z</time></trkpt><trkpt lat="48.32254252282981" lon="11.601004310355771"><ele>482.6666666666667</ele><time>2026-04-17T08:21:13Z</time></trkpt><trkpt lat="48.3225987206003" lon="11.600911814336692"><ele>484.0</ele><time>2026-04-17T08:21:14Z</time></trkpt><trkpt lat="48.32264496345229" lon="11.600833206657756"><ele>484.2857142857143</ele><time>2026-04-17T08:21:15Z</time></trkpt><trkpt lat="48.322689870149134" lon="11.600757003414742"><ele>484.57142857142856</ele><time>2026-04-17T08:21:16Z</time></trkpt><trkpt lat="48.32273922937201" lon="11.600685944956075"><ele>484.85714285714283</ele><time>2026-04-17T08:21:17Z</time></trkpt><trkpt lat="48.32279725749969" lon="11.60062339756621"><ele>485.1428571428571</ele><time>2026-04-17T08:21:18Z</time></trkpt><trkpt lat="48.322859593811344" lon="11.6005645612204"><ele>485.42857142857144</ele><time>2026-04-17T08:21:19Z</time></trkpt><trkpt lat="48.32293068307099" lon="11.600517728127706"><ele>485.71428571428567</ele><time>2026-04-17T08:21:20Z</time></trkpt><trkpt lat="48.32301024888757" lon="11.600506306789114"><ele>486.0</ele><time>2026-04-17T08:21:21Z</time></trkpt><trkpt lat="48.32307772533102" lon="11.60048165423264"><ele>486.0</ele><time>2026-04-17T08:21:22Z</time></trkpt><trkpt lat="48.3231448581112" lon="11.600455687784871"><ele>486.0</ele><time>2026-04-17T08:21:23Z</time></trkpt><trkpt lat="48.32320793585783" lon="11.600431289940763"><ele>486.0</ele><time>2026-04-17T08:21:24Z</time></trkpt><trkpt lat="48.32327487430166" lon="11.600402546849715"><ele>486.0</ele><time>2026-04-17T08:21:25Z</time></trkpt><trkpt lat="48.32334290631312" lon="11.600373778978064"><ele>486.0</ele><time>2026-04-17T08:21:26Z</time></trkpt><trkpt lat="48.32340982360271" lon="11.60032254830793"><ele>486.0</ele><time>2026-04-17T08:21:27Z</time></trkpt><trkpt lat="48.32347543186736" lon="11.600295997405572"><ele>486.0</ele><time>2026-04-17T08:21:28Z</time></trkpt><trkpt lat="48.323585177813015" lon="11.600258021946976"><ele>486.0</ele><time>2026-04-17T08:21:30Z</time></trkpt><trkpt lat="48.32368390014025" lon="11.600220211761483"><ele>486.0</ele><time>2026-04-17T08:21:32Z</time></trkpt><trkpt lat="48.323760680600635" lon="11.600204478952335"><ele>486.0</ele><time>2026-04-17T08:21:34Z</time></trkpt><trkpt lat="48.3238326822558" lon="11.600356994440459"><ele>486.0</ele><time>2026-04-17T08:21:38Z</time></trkpt><trkpt lat="48.32382867294239" lon="11.600453914566812"><ele>486.0</ele><time>2026-04-17T08:21:39Z</time></trkpt><trkpt lat="48.323830690724925" lon="11.600554750917278"><ele>486.0</ele><time>2026-04-17T08:21:40Z</time></trkpt><trkpt lat="48.32383577131908" lon="11.600664328866342"><ele>486.0</ele><time>2026-04-17T08:21:41Z</time></trkpt><trkpt lat="48.323840399327835" lon="11.600770253425226"><ele>486.0</ele><time>2026-04-17T08:21:42Z</time></trkpt><trkpt lat="48.32384168101337" lon="11.600948708623234"><ele>486.0</ele><time>2026-04-17T08:21:44Z</time></trkpt><trkpt lat="48.323846002638554" lon="11.601132383844211"><ele>486.0</ele><time>2026-04-17T08:21:46Z</time></trkpt><trkpt lat="48.3238503632779" lon="11.60123334786791"><ele>486.0</ele><time>2026-04-17T08:21:47Z</time></trkpt><trkpt lat="48.32386629392057" lon="11.601343469267666"><ele>485.8333333333333</ele><time>2026-04-17T08:21:48Z</time></trkpt><trkpt lat="48.32388049628751" lon="11.60144443665888"><ele>485.66666666666663</ele><time>2026-04-17T08:21:49Z</time></trkpt><trkpt lat="48.323953948557694" lon="11.601495657158367"><ele>485.5</ele><time>2026-04-17T08:21:50Z</time></trkpt><trkpt lat="48.32406013743142" lon="11.601562326728972"><ele>485.3333333333333</ele><time>2026-04-17T08:21:52Z</time></trkpt><trkpt lat="48.32413290659171" lon="11.60156423303656"><ele>485.16666666666663</ele><time>2026-04-17T08:21:53Z</time></trkpt><trkpt lat="48.32421083976967" lon="11.601558279844456"><ele>485.0</ele><time>2026-04-17T08:21:54Z</time></trkpt><trkpt lat="48.32428911178034" lon="11.601553411225694"><ele>485.28571428571433</ele><time>2026-04-17T08:21:55Z</time></trkpt><trkpt lat="48.324366407797065" lon="11.601552215913525"><ele>485.57142857142856</ele><time>2026-04-17T08:21:56Z</time></trkpt><trkpt lat="48.32442992749329" lon="11.601548228857926"><ele>485.8571428571429</ele><time>2026-04-17T08:21:57Z</time></trkpt><trkpt lat="48.32449352612454" lon="11.60154087800055"><ele>486.14285714285717</ele><time>2026-04-17T08:21:58Z</time></trkpt><trkpt lat="48.32456293894222" lon="11.601536079296134"><ele>486.42857142857144</ele><time>2026-04-17T08:21:59Z</time></trkpt><trkpt lat="48.32464287128156" lon="11.601535956130075"><ele>486.7142857142857</ele><time>2026-04-17T08:22:00Z</time></trkpt><trkpt lat="48.3247313838178" lon="11.601543295409476"><ele>487.0</ele><time>2026-04-17T08:22:01Z</time></trkpt><trkpt lat="48.3248230362272" lon="11.601563158413626"><ele>487.1666666666667</ele><time>2026-04-17T08:22:02Z</time></trkpt><trkpt lat="48.3249133345379" lon="11.601585864292659"><ele>487.33333333333337</ele><time>2026-04-17T08:22:03Z</time></trkpt><trkpt lat="48.324999705259145" lon="11.601620112393977"><ele>487.5</ele><time>2026-04-17T08:22:04Z</time></trkpt><trkpt lat="48.325078320396514" lon="11.601674583481806"><ele>487.66666666666663</ele><time>2026-04-17T08:22:05Z</time></trkpt><trkpt lat="48.325149819598174" lon="11.601744262087983"><ele>487.8333333333333</ele><time>2026-04-17T08:22:06Z</time></trkpt><trkpt lat="48.32521531280798" lon="11.601827359525865"><ele>488.0</ele><time>2026-04-17T08:22:07Z</time></trkpt><trkpt lat="48.32528123435131" lon="11.601919687149515"><ele>488.0</ele><time>2026-04-17T08:22:08Z</time></trkpt><trkpt lat="48.325349417953085" lon="11.602015159955855"><ele>487.99999999999994</ele><time>2026-04-17T08:22:09Z</time></trkpt><trkpt lat="48.32541644473052" lon="11.602108079970419"><ele>487.99999999999994</ele><time>2026-04-17T08:22:10Z</time></trkpt><trkpt lat="48.3254849896844" lon="11.602202463004042"><ele>488.0</ele><time>2026-04-17T08:22:11Z</time></trkpt><trkpt lat="48.32555367102523" lon="11.60229339821944"><ele>488.0</ele><time>2026-04-17T08:22:12Z</time></trkpt><trkpt lat="48.325622907759794" lon="11.602384170706248"><ele>488.2</ele><time>2026-04-17T08:22:13Z</time></trkpt><trkpt lat="48.32569040782185" lon="11.602479583998466"><ele>488.4</ele><time>2026-04-17T08:22:14Z</time></trkpt><trkpt lat="48.32576244563985" lon="11.60258678992411"><ele>488.59999999999997</ele><time>2026-04-17T08:22:15Z</time></trkpt><trkpt lat="48.325847899303675" lon="11.602706512503032"><ele>488.79999999999995</ele><time>2026-04-17T08:22:16Z</time></trkpt><trkpt lat="48.32594496621779" lon="11.602840282753801"><ele>489.0</ele><time>2026-04-17T08:22:17Z</time></trkpt><trkpt lat="48.326045375978" lon="11.602991594727564"><ele>489.25</ele><time>2026-04-17T08:22:18Z</time></trkpt><trkpt lat="48.32614920669004" lon="11.603160928503529"><ele>489.5</ele><time>2026-04-17T08:22:19Z</time></trkpt><trkpt lat="48.32624604117435" lon="11.603308323039743"><ele>489.75</ele><time>2026-04-17T08:22:20Z</time></trkpt><trkpt lat="48.32633553142784" lon="11.603442443435815"><ele>490.0</ele><time>2026-04-17T08:22:21Z</time></trkpt><trkpt lat="48.32642742529362" lon="11.603575320577745"><ele>490.5</ele><time>2026-04-17T08:22:22Z</time></trkpt><trkpt lat="48.326526393878254" lon="11.603711365394897"><ele>491.0</ele><time>2026-04-17T08:22:23Z</time></trkpt><trkpt lat="48.32663334008901" lon="11.603849580481919"><ele>491.5</ele><time>2026-04-17T08:22:24Z</time></trkpt><trkpt lat="48.326736395088076" lon="11.603981055884924"><ele>492.0</ele><time>2026-04-17T08:22:25Z</time></trkpt><trkpt lat="48.3268329972362" lon="11.604103829427206"><ele>492.0</ele><time>2026-04-17T08:22:26Z</time></trkpt><trkpt lat="48.326930358888546" lon="11.604225847513373"><ele>492.0</ele><time>2026-04-17T08:22:27Z</time></trkpt><trkpt lat="48.32702727201054" lon="11.604345354159161"><ele>492.0</ele><time>2026-04-17T08:22:28Z</time></trkpt><trkpt lat="48.327126414186154" lon="11.60446598500214"><ele>492.0</ele><time>2026-04-17T08:22:29Z</time></trkpt><trkpt lat="48.32722482924519" lon="11.604574874966799"><ele>492.8</ele><time>2026-04-17T08:22:30Z</time></trkpt><trkpt lat="48.327316938784946" lon="11.604684290623622"><ele>493.6</ele><time>2026-04-17T08:22:31Z</time></trkpt><trkpt lat="48.32739876615516" lon="11.604790276441227"><ele>494.40000000000003</ele><time>2026-04-17T08:22:32Z</time></trkpt><trkpt lat="48.327479439098624" lon="11.604897181732497"><ele>495.20000000000005</ele><time>2026-04-17T08:22:33Z</time></trkpt><trkpt lat="48.327563537667" lon="11.605008240628635"><ele>496.0</ele><time>2026-04-17T08:22:34Z</time></trkpt><trkpt lat="48.327649697161796" lon="11.605118125894922"><ele>496.0</ele><time>2026-04-17T08:22:35Z</time></trkpt><trkpt lat="48.32773161352319" lon="11.605222558233104"><ele>496.0</ele><time>2026-04-17T08:22:36Z</time></trkpt><trkpt lat="48.32780043696449" lon="11.605308061877373"><ele>496.0</ele><time>2026-04-17T08:22:37Z</time></trkpt><trkpt lat="48.32786556384501" lon="11.605391586276555"><ele>496.0</ele><time>2026-04-17T08:22:38Z</time></trkpt><trkpt lat="48.32793316650619" lon="11.605467176780845"><ele>496.0</ele><time>2026-04-17T08:22:39Z</time></trkpt><trkpt lat="48.328005557712686" lon="11.605549326820183"><ele>495.8</ele><time>2026-04-17T08:22:40Z</time></trkpt><trkpt lat="48.32807614581594" lon="11.605651245380804"><ele>495.6</ele><time>2026-04-17T08:22:41Z</time></trkpt><trkpt lat="48.328146902434106" lon="11.605771225531578"><ele>495.4</ele><time>2026-04-17T08:22:42Z</time></trkpt><trkpt lat="48.32821892966061" lon="11.60590327826064"><ele>495.2</ele><time>2026-04-17T08:22:43Z</time></trkpt><trkpt lat="48.328288077596504" lon="11.6060442733688"><ele>495.0</ele><time>2026-04-17T08:22:44Z</time></trkpt><trkpt lat="48.328355108996504" lon="11.606190552860115"><ele>494.75</ele><time>2026-04-17T08:22:45Z</time></trkpt><trkpt lat="48.32842048584531" lon="11.606340945525366"><ele>494.5</ele><time>2026-04-17T08:22:46Z</time></trkpt><trkpt lat="48.32848986468705" lon="11.606499440836405"><ele>494.25</ele><time>2026-04-17T08:22:47Z</time></trkpt><trkpt lat="48.328559696325755" lon="11.606668314086834"><ele>494.0</ele><time>2026-04-17T08:22:48Z</time></trkpt><trkpt lat="48.32862813283891" lon="11.606836004474413"><ele>493.0</ele><time>2026-04-17T08:22:49Z</time></trkpt><trkpt lat="48.328700728225996" lon="11.607008370781976"><ele>492.0</ele><time>2026-04-17T08:22:50Z</time></trkpt><trkpt lat="48.32877212982304" lon="11.607177693902436"><ele>491.0</ele><time>2026-04-17T08:22:51Z</time></trkpt><trkpt lat="48.328845170900166" lon="11.607339597497056"><ele>490.0</ele><time>2026-04-17T08:22:52Z</time></trkpt><trkpt lat="48.32892533538853" lon="11.60749523315481"><ele>490.0</ele><time>2026-04-17T08:22:53Z</time></trkpt><trkpt lat="48.329012695386716" lon="11.607635784773702"><ele>490.0</ele><time>2026-04-17T08:22:54Z</time></trkpt><trkpt lat="48.329108234644224" lon="11.60775712128301"><ele>490.0</ele><time>2026-04-17T08:22:55Z</time></trkpt><trkpt lat="48.32921106305536" lon="11.607858864952618"><ele>490.0</ele><time>2026-04-17T08:22:56Z</time></trkpt><trkpt lat="48.32931420982436" lon="11.607947772722593"><ele>489.5</ele><time>2026-04-17T08:22:57Z</time></trkpt><trkpt lat="48.32941511882963" lon="11.60803821484344"><ele>489.0</ele><time>2026-04-17T08:22:58Z</time></trkpt><trkpt lat="48.32950605223793" lon="11.608139610702754"><ele>488.5</ele><time>2026-04-17T08:22:59Z</time></trkpt><trkpt lat="48.3295886760022" lon="11.608254039369916"><ele>488.0</ele><time>2026-04-17T08:23:00Z</time></trkpt><trkpt lat="48.329666751861254" lon="11.608365149195087"><ele>488.2</ele><time>2026-04-17T08:23:01Z</time></trkpt><trkpt lat="48.32974571137083" lon="11.608476479037678"><ele>488.4</ele><time>2026-04-17T08:23:02Z</time></trkpt><trkpt lat="48.32981949907808" lon="11.608576975209516"><ele>488.59999999999997</ele><time>2026-04-17T08:23:03Z</time></trkpt><trkpt lat="48.32988719641253" lon="11.608675024701814"><ele>488.79999999999995</ele><time>2026-04-17T08:23:04Z</time></trkpt><trkpt lat="48.329952237515876" lon="11.608787363053027"><ele>489.0</ele><time>2026-04-17T08:23:05Z</time></trkpt><trkpt lat="48.330021907297684" lon="11.608911202517387"><ele>489.0</ele><time>2026-04-17T08:23:06Z</time></trkpt><trkpt lat="48.330086612004" lon="11.609056569058692"><ele>489.0</ele><time>2026-04-17T08:23:07Z</time></trkpt><trkpt lat="48.33014972078696" lon="11.60922068047211"><ele>489.0</ele><time>2026-04-17T08:23:08Z</time></trkpt><trkpt lat="48.330210553260706" lon="11.609399451215696"><ele>489.0</ele><time>2026-04-17T08:23:09Z</time></trkpt><trkpt lat="48.33026467567231" lon="11.60958412630146"><ele>489.5</ele><time>2026-04-17T08:23:10Z</time></trkpt><trkpt lat="48.3303141158852" lon="11.609758827371635"><ele>490.0</ele><time>2026-04-17T08:23:11Z</time></trkpt><trkpt lat="48.3303636869212" lon="11.609931429517331"><ele>490.5</ele><time>2026-04-17T08:23:12Z</time></trkpt><trkpt lat="48.330412886808794" lon="11.610102680830199"><ele>491.0</ele><time>2026-04-17T08:23:13Z</time></trkpt><trkpt lat="48.330458157020544" lon="11.610274734869282"><ele>490.5</ele><time>2026-04-17T08:23:14Z</time></trkpt><trkpt lat="48.33050212566915" lon="11.610453360974594"><ele>490.0</ele><time>2026-04-17T08:23:15Z</time></trkpt><trkpt lat="48.330544914556484" lon="11.61064105891131"><ele>489.5</ele><time>2026-04-17T08:23:16Z</time></trkpt><trkpt lat="48.33058447306759" lon="11.610836849489674"><ele>489.0</ele><time>2026-04-17T08:23:17Z</time></trkpt><trkpt lat="48.33062236280685" lon="11.611041004937464"><ele>488.0</ele><time>2026-04-17T08:23:18Z</time></trkpt><trkpt lat="48.33065703183803" lon="11.611250020458744"><ele>487.0</ele><time>2026-04-17T08:23:19Z</time></trkpt><trkpt lat="48.3306846941794" lon="11.61144609888148"><ele>486.0</ele><time>2026-04-17T08:23:20Z</time></trkpt><trkpt lat="48.33070821197193" lon="11.611646129896538"><ele>485.0</ele><time>2026-04-17T08:23:21Z</time></trkpt><trkpt lat="48.33074006176488" lon="11.611848950555165"><ele>484.5</ele><time>2026-04-17T08:23:22Z</time></trkpt><trkpt lat="48.33078283858448" lon="11.612048042427547"><ele>484.0</ele><time>2026-04-17T08:23:23Z</time></trkpt><trkpt lat="48.330828186013655" lon="11.612240942129148"><ele>483.5</ele><time>2026-04-17T08:23:24Z</time></trkpt><trkpt lat="48.330877040523845" lon="11.61243356814828"><ele>483.0</ele><time>2026-04-17T08:23:25Z</time></trkpt><trkpt lat="48.330927347558884" lon="11.612625194992601"><ele>483.0</ele><time>2026-04-17T08:23:26Z</time></trkpt><trkpt lat="48.330975277618826" lon="11.612810974702395"><ele>483.0</ele><time>2026-04-17T08:23:27Z</time></trkpt><trkpt lat="48.33102241607595" lon="11.612996658136993"><ele>483.0</ele><time>2026-04-17T08:23:28Z</time></trkpt><trkpt lat="48.33106850684021" lon="11.6131850553065"><ele>483.0</ele><time>2026-04-17T08:23:29Z</time></trkpt><trkpt lat="48.33110538186539" lon="11.613368323579836"><ele>482.5</ele><time>2026-04-17T08:23:30Z</time></trkpt><trkpt lat="48.33114563272232" lon="11.613586282801297"><ele>482.0</ele><time>2026-04-17T08:23:31Z</time></trkpt><trkpt lat="48.331173210670045" lon="11.613783744395855"><ele>481.5</ele><time>2026-04-17T08:23:32Z</time></trkpt><trkpt lat="48.33120260494013" lon="11.613976391311667"><ele>481.0</ele><time>2026-04-17T08:23:33Z</time></trkpt><trkpt lat="48.33123102040465" lon="11.614147838842847"><ele>480.8</ele><time>2026-04-17T08:23:34Z</time></trkpt><trkpt lat="48.33125526359086" lon="11.614296301787771"><ele>480.6</ele><time>2026-04-17T08:23:35Z</time></trkpt><trkpt lat="48.33127090926019" lon="11.614430326957875"><ele>480.4</ele><time>2026-04-17T08:23:36Z</time></trkpt><trkpt lat="48.331285922304865" lon="11.614571354890618"><ele>480.2</ele><time>2026-04-17T08:23:37Z</time></trkpt><trkpt lat="48.33130077339539" lon="11.614715173649744"><ele>480.0</ele><time>2026-04-17T08:23:38Z</time></trkpt><trkpt lat="48.33131499816971" lon="11.614865862531088"><ele>480.0</ele><time>2026-04-17T08:23:39Z</time></trkpt><trkpt lat="48.331325882830114" lon="11.615020543339876"><ele>480.0</ele><time>2026-04-17T08:23:40Z</time></trkpt><trkpt lat="48.33132960082901" lon="11.61518153463843"><ele>480.0</ele><time>2026-04-17T08:23:41Z</time></trkpt><trkpt lat="48.33133222601543" lon="11.615345398328675"><ele>480.0</ele><time>2026-04-17T08:23:42Z</time></trkpt><trkpt lat="48.33133033349635" lon="11.615507008876387"><ele>480.0</ele><time>2026-04-17T08:23:43Z</time></trkpt><trkpt lat="48.331326992623026" lon="11.615657226925954"><ele>480.2</ele><time>2026-04-17T08:23:44Z</time></trkpt><trkpt lat="48.33132471708319" lon="11.61580280569142"><ele>480.4</ele><time>2026-04-17T08:23:45Z</time></trkpt><trkpt lat="48.331321534756526" lon="11.615950732953214"><ele>480.6</ele><time>2026-04-17T08:23:46Z</time></trkpt><trkpt lat="48.33131226057879" lon="11.616100286886898"><ele>480.8</ele><time>2026-04-17T08:23:47Z</time></trkpt><trkpt lat="48.33129914357753" lon="11.61625665056367"><ele>481.0</ele><time>2026-04-17T08:23:48Z</time></trkpt><trkpt lat="48.331285145688305" lon="11.616410924698558"><ele>481.00000000000006</ele><time>2026-04-17T08:23:49Z</time></trkpt><trkpt lat="48.33127110443237" lon="11.616551461193778"><ele>481.0</ele><time>2026-04-17T08:23:50Z</time></trkpt><trkpt lat="48.33125767495285" lon="11.6166775570974"><ele>481.0</ele><time>2026-04-17T08:23:51Z</time></trkpt><trkpt lat="48.3312448985365" lon="11.616783187670718"><ele>481.0</ele><time>2026-04-17T08:23:52Z</time></trkpt><trkpt lat="48.331229015673046" lon="11.616887028267865"><ele>481.00000000000006</ele><time>2026-04-17T08:23:53Z</time></trkpt><trkpt lat="48.33121414085411" lon="11.616991354203739"><ele>481.0</ele><time>2026-04-17T08:23:54Z</time></trkpt><trkpt lat="48.33120199022884" lon="11.617095521073228"><ele>479.8</ele><time>2026-04-17T08:23:55Z</time></trkpt><trkpt lat="48.33119236057837" lon="11.617200227712695"><ele>478.6</ele><time>2026-04-17T08:23:56Z</time></trkpt><trkpt lat="48.33118336655245" lon="11.617296294628723"><ele>477.4</ele><time>2026-04-17T08:23:57Z</time></trkpt><trkpt lat="48.33116696505854" lon="11.617479660940594"><ele>476.2</ele><time>2026-04-17T08:23:59Z</time></trkpt><trkpt lat="48.33115302032631" lon="11.617653864730844"><ele>475.0</ele><time>2026-04-17T08:24:01Z</time></trkpt><trkpt lat="48.33114738374201" lon="11.617835396804178"><ele>473.6</ele><time>2026-04-17T08:24:03Z</time></trkpt><trkpt lat="48.33117367730057" lon="11.618015433070298"><ele>472.2</ele><time>2026-04-17T08:24:05Z</time></trkpt><trkpt lat="48.3311951223465" lon="11.618181712548004"><ele>470.79999999999995</ele><time>2026-04-17T08:24:07Z</time></trkpt><trkpt lat="48.33121387476957" lon="11.618325292212498"><ele>469.4</ele><time>2026-04-17T08:24:09Z</time></trkpt><trkpt lat="48.33119281178076" lon="11.618487589547545"><ele>468.0</ele><time>2026-04-17T08:24:11Z</time></trkpt><trkpt lat="48.33117687688886" lon="11.618666251952888"><ele>467.42857142857144</ele><time>2026-04-17T08:24:13Z</time></trkpt><trkpt lat="48.33118380296122" lon="11.61876280685421"><ele>466.8571428571429</ele><time>2026-04-17T08:24:14Z</time></trkpt><trkpt lat="48.33119857652672" lon="11.618861241100163"><ele>466.28571428571433</ele><time>2026-04-17T08:24:15Z</time></trkpt><trkpt lat="48.331230978313506" lon="11.618950905339203"><ele>465.7142857142858</ele><time>2026-04-17T08:24:16Z</time></trkpt><trkpt lat="48.33127086455714" lon="11.619037504101241"><ele>465.14285714285717</ele><time>2026-04-17T08:24:17Z</time></trkpt><trkpt lat="48.331313031701384" lon="11.619119205714803"><ele>464.57142857142867</ele><time>2026-04-17T08:24:18Z</time></trkpt><trkpt lat="48.33135732763579" lon="11.619195814408377"><ele>464.00000000000006</ele><time>2026-04-17T08:24:19Z</time></trkpt><trkpt lat="48.33140304086436" lon="11.619262985035562"><ele>463.99999999999994</ele><time>2026-04-17T08:24:20Z</time></trkpt><trkpt lat="48.33145384992726" lon="11.619332744604247"><ele>464.0</ele><time>2026-04-17T08:24:21Z</time></trkpt><trkpt lat="48.331508487714224" lon="11.619402208559443"><ele>464.0</ele><time>2026-04-17T08:24:22Z</time></trkpt><trkpt lat="48.33156500793244" lon="11.619477757133433"><ele>464.0</ele><time>2026-04-17T08:24:23Z</time></trkpt><trkpt lat="48.33162998553637" lon="11.619560248337221"><ele>463.99999999999994</ele><time>2026-04-17T08:24:24Z</time></trkpt><trkpt lat="48.33170307756962" lon="11.619651666269931"><ele>464.0</ele><time>2026-04-17T08:24:25Z</time></trkpt><trkpt lat="48.33177162392121" lon="11.619752738970371"><ele>463.99999999999994</ele><time>2026-04-17T08:24:26Z</time></trkpt><trkpt lat="48.33183335424948" lon="11.619858050778216"><ele>464.0</ele><time>2026-04-17T08:24:27Z</time></trkpt><trkpt lat="48.33188479199491" lon="11.619968498948495"><ele>464.0</ele><time>2026-04-17T08:24:28Z</time></trkpt><trkpt lat="48.33192552585826" lon="11.620083534431657"><ele>464.0</ele><time>2026-04-17T08:24:29Z</time></trkpt><trkpt lat="48.33196258515947" lon="11.620205504334129"><ele>463.99999999999994</ele><time>2026-04-17T08:24:30Z</time></trkpt><trkpt lat="48.33199882692763" lon="11.620326411544092"><ele>464.0</ele><time>2026-04-17T08:24:31Z</time></trkpt><trkpt lat="48.33203349124584" lon="11.620446874998214"><ele>463.8571428571429</ele><time>2026-04-17T08:24:32Z</time></trkpt><trkpt lat="48.332067237746365" lon="11.620550476522142"><ele>463.7142857142857</ele><time>2026-04-17T08:24:33Z</time></trkpt><trkpt lat="48.332102345458054" lon="11.620643066419685"><ele>463.57142857142856</ele><time>2026-04-17T08:24:34Z</time></trkpt><trkpt lat="48.33213855546707" lon="11.620729734222014"><ele>463.42857142857144</ele><time>2026-04-17T08:24:35Z</time></trkpt><trkpt lat="48.33217918676279" lon="11.620813604884493"><ele>463.2857142857142</ele><time>2026-04-17T08:24:36Z</time></trkpt><trkpt lat="48.332210708130376" lon="11.620907521275088"><ele>463.1428571428571</ele><time>2026-04-17T08:24:37Z</time></trkpt><trkpt lat="48.33225532631151" lon="11.620986641993248"><ele>463.0</ele><time>2026-04-17T08:24:38Z</time></trkpt><trkpt lat="48.33230296330235" lon="11.621067057916713"><ele>464.33333333333337</ele><time>2026-04-17T08:24:39Z</time></trkpt><trkpt lat="48.33235816520386" lon="11.621154132849895"><ele>465.6666666666667</ele><time>2026-04-17T08:24:40Z</time></trkpt><trkpt lat="48.332417080971034" lon="11.621243885723285"><ele>467.0</ele><time>2026-04-17T08:24:41Z</time></trkpt><trkpt lat="48.33248761584723" lon="11.621319687666526"><ele>468.33333333333337</ele><time>2026-04-17T08:24:42Z</time></trkpt><trkpt lat="48.332548040371336" lon="11.62141098599788"><ele>469.6666666666667</ele><time>2026-04-17T08:24:43Z</time></trkpt><trkpt lat="48.33260812708896" lon="11.621498406000251"><ele>471.0</ele><time>2026-04-17T08:24:44Z</time></trkpt><trkpt lat="48.332668701691595" lon="11.621591294582595"><ele>471.0</ele><time>2026-04-17T08:24:45Z</time></trkpt><trkpt lat="48.33272827953544" lon="11.621689447929386"><ele>471.0</ele><time>2026-04-17T08:24:46Z</time></trkpt><trkpt lat="48.3327918826543" lon="11.621798096762967"><ele>471.0</ele><time>2026-04-17T08:24:47Z</time></trkpt><trkpt lat="48.332855978228366" lon="11.621911266384524"><ele>471.0</ele><time>2026-04-17T08:24:48Z</time></trkpt><trkpt lat="48.33291930777794" lon="11.622036480463512"><ele>471.0</ele><time>2026-04-17T08:24:49Z</time></trkpt><trkpt lat="48.332984597199136" lon="11.622169994737563"><ele>472.20000000000005</ele><time>2026-04-17T08:24:50Z</time></trkpt><trkpt lat="48.333050742534546" lon="11.622303532561501"><ele>473.40000000000003</ele><time>2026-04-17T08:24:51Z</time></trkpt><trkpt lat="48.33311467109961" lon="11.62243806193182"><ele>474.6</ele><time>2026-04-17T08:24:52Z</time></trkpt><trkpt lat="48.33317767028237" lon="11.622577798466924"><ele>475.8</ele><time>2026-04-17T08:24:53Z</time></trkpt><trkpt lat="48.33323769922586" lon="11.622713571555524"><ele>477.0</ele><time>2026-04-17T08:24:54Z</time></trkpt><trkpt lat="48.33329325608195" lon="11.622843843421785"><ele>477.0</ele><time>2026-04-17T08:24:55Z</time></trkpt><trkpt lat="48.33334627261813" lon="11.622971461418084"><ele>477.00000000000006</ele><time>2026-04-17T08:24:56Z</time></trkpt><trkpt lat="48.333403379537934" lon="11.623104762339144"><ele>477.00000000000006</ele><time>2026-04-17T08:24:57Z</time></trkpt><trkpt lat="48.333462639461736" lon="11.62326193585692"><ele>477.0</ele><time>2026-04-17T08:24:58Z</time></trkpt><trkpt lat="48.333524929454875" lon="11.623418631710788"><ele>477.0</ele><time>2026-04-17T08:24:59Z</time></trkpt><trkpt lat="48.3335770440432" lon="11.623574218679575"><ele>476.20000000000005</ele><time>2026-04-17T08:25:00Z</time></trkpt><trkpt lat="48.3336134854906" lon="11.623719229919931"><ele>475.40000000000003</ele><time>2026-04-17T08:25:01Z</time></trkpt><trkpt lat="48.33365153237045" lon="11.623877697144476"><ele>474.59999999999997</ele><time>2026-04-17T08:25:02Z</time></trkpt><trkpt lat="48.33369370913725" lon="11.624038626729915"><ele>473.79999999999995</ele><time>2026-04-17T08:25:03Z</time></trkpt><trkpt lat="48.33373627091902" lon="11.624200498347541"><ele>473.0</ele><time>2026-04-17T08:25:04Z</time></trkpt><trkpt lat="48.33380304595234" lon="11.624356581711437"><ele>471.0</ele><time>2026-04-17T08:25:05Z</time></trkpt><trkpt lat="48.33387170057965" lon="11.62452392175068"><ele>469.0</ele><time>2026-04-17T08:25:06Z</time></trkpt><trkpt lat="48.33394022449124" lon="11.624684750113987"><ele>467.0</ele><time>2026-04-17T08:25:07Z</time></trkpt><trkpt lat="48.33400395450681" lon="11.624830527871655"><ele>465.0</ele><time>2026-04-17T08:25:08Z</time></trkpt><trkpt lat="48.33406897696706" lon="11.624974107179296"><ele>467.25</ele><time>2026-04-17T08:25:09Z</time></trkpt><trkpt lat="48.33412956897354" lon="11.625114174413664"><ele>469.5</ele><time>2026-04-17T08:25:10Z</time></trkpt><trkpt lat="48.334189323371795" lon="11.625255388852203"><ele>471.75</ele><time>2026-04-17T08:25:11Z</time></trkpt><trkpt lat="48.334247457513754" lon="11.625407831135378"><ele>474.0</ele><time>2026-04-17T08:25:12Z</time></trkpt><trkpt lat="48.334307297580075" lon="11.625564179720056"><ele>474.0</ele><time>2026-04-17T08:25:13Z</time></trkpt><trkpt lat="48.33436591174865" lon="11.625723837801129"><ele>474.0</ele><time>2026-04-17T08:25:14Z</time></trkpt><trkpt lat="48.33442139434808" lon="11.625887136633505"><ele>474.0</ele><time>2026-04-17T08:25:15Z</time></trkpt><trkpt lat="48.33447330004174" lon="11.62604719998427"><ele>474.0</ele><time>2026-04-17T08:25:16Z</time></trkpt><trkpt lat="48.33451521568015" lon="11.62620523131457"><ele>472.2</ele><time>2026-04-17T08:25:17Z</time></trkpt><trkpt lat="48.33454534037015" lon="11.626354528887948"><ele>470.4</ele><time>2026-04-17T08:25:18Z</time></trkpt><trkpt lat="48.33457803598651" lon="11.626510536226819"><ele>468.6</ele><time>2026-04-17T08:25:19Z</time></trkpt><trkpt lat="48.334621549695996" lon="11.626668053829292"><ele>466.8</ele><time>2026-04-17T08:25:20Z</time></trkpt><trkpt lat="48.33466949908677" lon="11.626820076546432"><ele>465.0</ele><time>2026-04-17T08:25:21Z</time></trkpt><trkpt lat="48.33471992403423" lon="11.626969930895255"><ele>468.0</ele><time>2026-04-17T08:25:22Z</time></trkpt><trkpt lat="48.33477097963653" lon="11.627130126730304"><ele>471.0</ele><time>2026-04-17T08:25:23Z</time></trkpt><trkpt lat="48.334824380276466" lon="11.627303685613194"><ele>474.0</ele><time>2026-04-17T08:25:24Z</time></trkpt><trkpt lat="48.33487663502213" lon="11.62748760886654"><ele>477.0</ele><time>2026-04-17T08:25:25Z</time></trkpt><trkpt lat="48.33492649130431" lon="11.627668119433286"><ele>474.5</ele><time>2026-04-17T08:25:26Z</time></trkpt><trkpt lat="48.33497130245531" lon="11.627838016839366"><ele>472.0</ele><time>2026-04-17T08:25:27Z</time></trkpt><trkpt lat="48.33501265974986" lon="11.628000210728079"><ele>469.5</ele><time>2026-04-17T08:25:28Z</time></trkpt><trkpt lat="48.33505908117069" lon="11.628164771898517"><ele>467.0</ele><time>2026-04-17T08:25:29Z</time></trkpt><trkpt lat="48.33511419688993" lon="11.628338205112387"><ele>467.0</ele><time>2026-04-17T08:25:30Z</time></trkpt><trkpt lat="48.335179102541254" lon="11.628506263373138"><ele>467.0</ele><time>2026-04-17T08:25:31Z</time></trkpt><trkpt lat="48.33525037588145" lon="11.62866647269895"><ele>467.0</ele><time>2026-04-17T08:25:32Z</time></trkpt><trkpt lat="48.335327594103134" lon="11.628817066284945"><ele>467.0</ele><time>2026-04-17T08:25:33Z</time></trkpt><trkpt lat="48.33540767427341" lon="11.628949795099944"><ele>465.0</ele><time>2026-04-17T08:25:34Z</time></trkpt><trkpt lat="48.33548976201265" lon="11.629069071667749"><ele>463.0</ele><time>2026-04-17T08:25:35Z</time></trkpt><trkpt lat="48.33557680631874" lon="11.62917864926709"><ele>461.0</ele><time>2026-04-17T08:25:36Z</time></trkpt><trkpt lat="48.33566640581671" lon="11.62928295310464"><ele>459.0</ele><time>2026-04-17T08:25:37Z</time></trkpt><trkpt lat="48.335755862503795" lon="11.629381396331967"><ele>459.75</ele><time>2026-04-17T08:25:38Z</time></trkpt><trkpt lat="48.33584710437087" lon="11.629478824593416"><ele>460.5</ele><time>2026-04-17T08:25:39Z</time></trkpt><trkpt lat="48.33594040981896" lon="11.62957981729254"><ele>461.25</ele><time>2026-04-17T08:25:40Z</time></trkpt><trkpt lat="48.336035681180995" lon="11.629683138841576"><ele>462.0</ele><time>2026-04-17T08:25:41Z</time></trkpt><trkpt lat="48.33613201536481" lon="11.629787942157446"><ele>462.0</ele><time>2026-04-17T08:25:42Z</time></trkpt><trkpt lat="48.33622809875271" lon="11.62989716643464"><ele>462.0</ele><time>2026-04-17T08:25:43Z</time></trkpt><trkpt lat="48.336323516342034" lon="11.630005008526949"><ele>462.0</ele><time>2026-04-17T08:25:44Z</time></trkpt><trkpt lat="48.33641449388008" lon="11.630108014401811"><ele>462.0</ele><time>2026-04-17T08:25:45Z</time></trkpt><trkpt lat="48.336502679178786" lon="11.63020334089481"><ele>462.25</ele><time>2026-04-17T08:25:46Z</time></trkpt><trkpt lat="48.336589378060125" lon="11.630296613111685"><ele>462.5</ele><time>2026-04-17T08:25:47Z</time></trkpt><trkpt lat="48.336678436983156" lon="11.630393362959474"><ele>462.75</ele><time>2026-04-17T08:25:48Z</time></trkpt><trkpt lat="48.33677296103159" lon="11.630494339899668"><ele>463.0</ele><time>2026-04-17T08:25:49Z</time></trkpt><trkpt lat="48.33687050902841" lon="11.630602591978978"><ele>463.0</ele><time>2026-04-17T08:25:50Z</time></trkpt><trkpt lat="48.33696822932978" lon="11.630713248001237"><ele>463.0</ele><time>2026-04-17T08:25:51Z</time></trkpt><trkpt lat="48.33706500162566" lon="11.630819826483002"><ele>463.0</ele><time>2026-04-17T08:25:52Z</time></trkpt><trkpt lat="48.33716150280708" lon="11.63092467205605"><ele>463.0</ele><time>2026-04-17T08:25:53Z</time></trkpt><trkpt lat="48.33725952922582" lon="11.631029457214986"><ele>463.0</ele><time>2026-04-17T08:25:54Z</time></trkpt><trkpt lat="48.33735868100223" lon="11.631135820199233"><ele>463.0</ele><time>2026-04-17T08:25:55Z</time></trkpt><trkpt lat="48.33745996895642" lon="11.631242251410075"><ele>463.0</ele><time>2026-04-17T08:25:56Z</time></trkpt><trkpt lat="48.337561148072815" lon="11.631348199352246"><ele>463.0</ele><time>2026-04-17T08:25:57Z</time></trkpt><trkpt lat="48.33766474437373" lon="11.631456890685357"><ele>463.0</ele><time>2026-04-17T08:25:58Z</time></trkpt><trkpt lat="48.337770905737564" lon="11.631565309694977"><ele>463.0</ele><time>2026-04-17T08:25:59Z</time></trkpt><trkpt lat="48.33787614325256" lon="11.631672559039695"><ele>463.0</ele><time>2026-04-17T08:26:00Z</time></trkpt><trkpt lat="48.33798166043596" lon="11.631778873138948"><ele>463.0</ele><time>2026-04-17T08:26:01Z</time></trkpt><trkpt lat="48.338084630446644" lon="11.63188111742969"><ele>462.25</ele><time>2026-04-17T08:26:02Z</time></trkpt><trkpt lat="48.33818737018132" lon="11.631978165195443"><ele>461.5</ele><time>2026-04-17T08:26:03Z</time></trkpt><trkpt lat="48.33828589193007" lon="11.632069111650495"><ele>460.75</ele><time>2026-04-17T08:26:04Z</time></trkpt><trkpt lat="48.33838249686257" lon="11.632155004639921"><ele>460.0</ele><time>2026-04-17T08:26:05Z</time></trkpt><trkpt lat="48.338478781231224" lon="11.632242566502162"><ele>460.0</ele><time>2026-04-17T08:26:06Z</time></trkpt><trkpt lat="48.33857316217551" lon="11.632331757979989"><ele>460.0</ele><time>2026-04-17T08:26:07Z</time></trkpt><trkpt lat="48.33866707856138" lon="11.632418439571547"><ele>460.0</ele><time>2026-04-17T08:26:08Z</time></trkpt><trkpt lat="48.33876547946957" lon="11.63250564962731"><ele>460.0</ele><time>2026-04-17T08:26:09Z</time></trkpt><trkpt lat="48.338866687524764" lon="11.632590785065805"><ele>460.25</ele><time>2026-04-17T08:26:10Z</time></trkpt><trkpt lat="48.33896970232404" lon="11.632674090359782"><ele>460.5</ele><time>2026-04-17T08:26:11Z</time></trkpt><trkpt lat="48.33907426180615" lon="11.632761186789446"><ele>460.75</ele><time>2026-04-17T08:26:12.001Z</time></trkpt><trkpt lat="48.33917862666928" lon="11.632853953899598"><ele>461.0</ele><time>2026-04-17T08:26:13.001Z</time></trkpt><trkpt lat="48.3392838295043" lon="11.632950715634841"><ele>461.0</ele><time>2026-04-17T08:26:14.001Z</time></trkpt><trkpt lat="48.33938940871956" lon="11.633043536596585"><ele>461.0</ele><time>2026-04-17T08:26:15.001Z</time></trkpt><trkpt lat="48.33948842283767" lon="11.63312953615127"><ele>461.0</ele><time>2026-04-17T08:26:16.001Z</time></trkpt><trkpt lat="48.33958627217996" lon="11.63321717911066"><ele>461.0</ele><time>2026-04-17T08:26:17.001Z</time></trkpt><trkpt lat="48.33968678682607" lon="11.633307593267627"><ele>461.0</ele><time>2026-04-17T08:26:18.001Z</time></trkpt><trkpt lat="48.33979049552488" lon="11.633399373564872"><ele>461.0</ele><time>2026-04-17T08:26:19.001Z</time></trkpt><trkpt lat="48.3398946678311" lon="11.633492157881774"><ele>461.0</ele><time>2026-04-17T08:26:20.001Z</time></trkpt><trkpt lat="48.339994742092856" lon="11.633584138246515"><ele>461.0</ele><time>2026-04-17T08:26:21.001Z</time></trkpt><trkpt lat="48.34009206194892" lon="11.63367148672914"><ele>461.0</ele><time>2026-04-17T08:26:22.001Z</time></trkpt><trkpt lat="48.340187693514714" lon="11.633757186308186"><ele>461.0</ele><time>2026-04-17T08:26:23.001Z</time></trkpt><trkpt lat="48.34028134985667" lon="11.633839508523623"><ele>461.0</ele><time>2026-04-17T08:26:24.001Z</time></trkpt><trkpt lat="48.34037310782164" lon="11.633923681750701"><ele>461.0</ele><time>2026-04-17T08:26:25.001Z</time></trkpt><trkpt lat="48.34046300733364" lon="11.634014597424667"><ele>461.0</ele><time>2026-04-17T08:26:26.001Z</time></trkpt><trkpt lat="48.34055422105881" lon="11.634101021831954"><ele>460.75</ele><time>2026-04-17T08:26:27.001Z</time></trkpt><trkpt lat="48.34064805319899" lon="11.634193974628207"><ele>460.5</ele><time>2026-04-17T08:26:28.001Z</time></trkpt><trkpt lat="48.34075078516448" lon="11.634294541625653"><ele>460.25</ele><time>2026-04-17T08:26:29.001Z</time></trkpt><trkpt lat="48.34085772442829" lon="11.634399548333677"><ele>460.0</ele><time>2026-04-17T08:26:30.001Z</time></trkpt><trkpt lat="48.34095936923641" lon="11.6345033510568"><ele>459.0</ele><time>2026-04-17T08:26:31.001Z</time></trkpt><trkpt lat="48.34105872772225" lon="11.634606899995655"><ele>458.0</ele><time>2026-04-17T08:26:32.001Z</time></trkpt><trkpt lat="48.3411557689871" lon="11.634703621114763"><ele>457.0</ele><time>2026-04-17T08:26:33.001Z</time></trkpt><trkpt lat="48.34125231916707" lon="11.634799502956666"><ele>456.0</ele><time>2026-04-17T08:26:34.001Z</time></trkpt><trkpt lat="48.341352069932725" lon="11.634899353335602"><ele>456.75</ele><time>2026-04-17T08:26:35.001Z</time></trkpt><trkpt lat="48.34145497486552" lon="11.63500142380636"><ele>457.5</ele><time>2026-04-17T08:26:36.001Z</time></trkpt><trkpt lat="48.341558783621046" lon="11.63510194289164"><ele>458.25</ele><time>2026-04-17T08:26:37.001Z</time></trkpt><trkpt lat="48.3416615988407" lon="11.635202509227984"><ele>459.0</ele><time>2026-04-17T08:26:38.001Z</time></trkpt><trkpt lat="48.34176170777892" lon="11.63530341224746"><ele>458.5</ele><time>2026-04-17T08:26:39.001Z</time></trkpt><trkpt lat="48.341861653607054" lon="11.63540415233055"><ele>458.0</ele><time>2026-04-17T08:26:40.001Z</time></trkpt><trkpt lat="48.34195903663252" lon="11.635502911919342"><ele>457.5</ele><time>2026-04-17T08:26:41.001Z</time></trkpt><trkpt lat="48.342051237326906" lon="11.635597586552166"><ele>457.0</ele><time>2026-04-17T08:26:42.001Z</time></trkpt><trkpt lat="48.342137183361984" lon="11.635686436094973"><ele>457.20000000000005</ele><time>2026-04-17T08:26:43.001Z</time></trkpt><trkpt lat="48.34222332786961" lon="11.635776586829332"><ele>457.40000000000003</ele><time>2026-04-17T08:26:44.001Z</time></trkpt><trkpt lat="48.342311050317534" lon="11.635868961947526"><ele>457.59999999999997</ele><time>2026-04-17T08:26:45.001Z</time></trkpt><trkpt lat="48.34239856024807" lon="11.635966871451359"><ele>457.79999999999995</ele><time>2026-04-17T08:26:46.001Z</time></trkpt><trkpt lat="48.342483985151745" lon="11.636065194689317"><ele>458.0</ele><time>2026-04-17T08:26:47.001Z</time></trkpt><trkpt lat="48.342565939766516" lon="11.636164635080883"><ele>458.0</ele><time>2026-04-17T08:26:48.001Z</time></trkpt><trkpt lat="48.34264734725013" lon="11.636263466616235"><ele>457.99999999999994</ele><time>2026-04-17T08:26:49.001Z</time></trkpt><trkpt lat="48.3427332283879" lon="11.636366569976314"><ele>457.99999999999994</ele><time>2026-04-17T08:26:50.001Z</time></trkpt><trkpt lat="48.3428134345725" lon="11.63646428458691"><ele>458.0</ele><time>2026-04-17T08:26:51.001Z</time></trkpt><trkpt lat="48.342895448083674" lon="11.636553840094823"><ele>458.0</ele><time>2026-04-17T08:26:52.001Z</time></trkpt><trkpt lat="48.34297488485166" lon="11.636641602849807"><ele>457.99999999999994</ele><time>2026-04-17T08:26:53.001Z</time></trkpt><trkpt lat="48.34304352126995" lon="11.636728875249615"><ele>458.0</ele><time>2026-04-17T08:26:54.001Z</time></trkpt><trkpt lat="48.34311069847066" lon="11.636813012289352"><ele>458.0</ele><time>2026-04-17T08:26:55.001Z</time></trkpt><trkpt lat="48.34317543535052" lon="11.636898440464439"><ele>458.0</ele><time>2026-04-17T08:26:56.001Z</time></trkpt><trkpt lat="48.34323926069249" lon="11.636989335291508"><ele>457.99999999999994</ele><time>2026-04-17T08:26:57.001Z</time></trkpt><trkpt lat="48.343303914956806" lon="11.637083788675438"><ele>458.0</ele><time>2026-04-17T08:26:58.001Z</time></trkpt><trkpt lat="48.343368863036396" lon="11.637174391361063"><ele>458.79999999999995</ele><time>2026-04-17T08:26:59.001Z</time></trkpt><trkpt lat="48.34343126516398" lon="11.637250742432677"><ele>459.59999999999997</ele><time>2026-04-17T08:27:00.001Z</time></trkpt><trkpt lat="48.34348627032379" lon="11.637310029011982"><ele>460.40000000000003</ele><time>2026-04-17T08:27:01.001Z</time></trkpt><trkpt lat="48.34358649491423" lon="11.637411050652378"><ele>461.20000000000005</ele><time>2026-04-17T08:27:03.001Z</time></trkpt><trkpt lat="48.34367701059143" lon="11.637490574199795"><ele>462.0</ele><time>2026-04-17T08:27:05.001Z</time></trkpt><trkpt lat="48.343780147826" lon="11.63756608219232"><ele>462.0</ele><time>2026-04-17T08:27:07.001Z</time></trkpt><trkpt lat="48.34389043622401" lon="11.637638475940703"><ele>462.00000000000006</ele><time>2026-04-17T08:27:09.001Z</time></trkpt><trkpt lat="48.34398172794031" lon="11.63768633961456"><ele>462.00000000000006</ele><time>2026-04-17T08:27:11.001Z</time></trkpt><trkpt lat="48.34405988051637" lon="11.637724589409462"><ele>462.0</ele><time>2026-04-17T08:27:13.001Z</time></trkpt><trkpt lat="48.34415226098273" lon="11.637765515144679"><ele>462.0</ele><time>2026-04-17T08:27:15.001Z</time></trkpt><trkpt lat="48.344266193905455" lon="11.637847742769802"><ele>462.0</ele><time>2026-04-17T08:27:17.001Z</time></trkpt><trkpt lat="48.3443528932789" lon="11.637944343656342"><ele>462.00000000000006</ele><time>2026-04-17T08:27:19.001Z</time></trkpt><trkpt lat="48.344423198581666" lon="11.638032715267153"><ele>462.00000000000006</ele><time>2026-04-17T08:27:21.001Z</time></trkpt><trkpt lat="48.34449355237092" lon="11.638161415175496"><ele>462.0</ele><time>2026-04-17T08:27:23.001Z</time></trkpt><trkpt lat="48.34454543404868" lon="11.638336511795687"><ele>462.0</ele><time>2026-04-17T08:27:25.001Z</time></trkpt><trkpt lat="48.344562945701966" lon="11.63842918859852"><ele>462.0</ele><time>2026-04-17T08:27:26.001Z</time></trkpt><trkpt lat="48.344575181333255" lon="11.638525584343604"><ele>462.0</ele><time>2026-04-17T08:27:27.001Z</time></trkpt><trkpt lat="48.344588029165195" lon="11.638625260325771"><ele>462.0</ele><time>2026-04-17T08:27:28.001Z</time></trkpt><trkpt lat="48.34460151967072" lon="11.63872773696226"><ele>462.0</ele><time>2026-04-17T08:27:29.001Z</time></trkpt><trkpt lat="48.34462280823861" lon="11.638832785539755"><ele>462.0</ele><time>2026-04-17T08:27:30.001Z</time></trkpt><trkpt lat="48.34465664977794" lon="11.638937503856262"><ele>462.0</ele><time>2026-04-17T08:27:31.001Z</time></trkpt><trkpt lat="48.3447069851814" lon="11.639041065026266"><ele>462.0</ele><time>2026-04-17T08:27:32.001Z</time></trkpt><trkpt lat="48.34476251133412" lon="11.639147891391127"><ele>462.6</ele><time>2026-04-17T08:27:33Z</time></trkpt><trkpt lat="48.34482505916524" lon="11.63925217587788"><ele>463.20000000000005</ele><time>2026-04-17T08:27:34Z</time></trkpt><trkpt lat="48.34489863541493" lon="11.639336977001872"><ele>463.8</ele><time>2026-04-17T08:27:35Z</time></trkpt><trkpt lat="48.344975185850714" lon="11.639414929426055"><ele>464.4</ele><time>2026-04-17T08:27:36Z</time></trkpt><trkpt lat="48.34505421454071" lon="11.639490657625684"><ele>465.0</ele><time>2026-04-17T08:27:37Z</time></trkpt><trkpt lat="48.34513562134106" lon="11.639564000252067"><ele>465.2</ele><time>2026-04-17T08:27:38Z</time></trkpt><trkpt lat="48.345216446449584" lon="11.639637505443039"><ele>465.4</ele><time>2026-04-17T08:27:39Z</time></trkpt><trkpt lat="48.345296941501836" lon="11.639709271812112"><ele>465.6</ele><time>2026-04-17T08:27:40Z</time></trkpt><trkpt lat="48.34537944093065" lon="11.639785733741697"><ele>465.8</ele><time>2026-04-17T08:27:41Z</time></trkpt><trkpt lat="48.34546574120253" lon="11.63987462151288"><ele>466.0</ele><time>2026-04-17T08:27:42Z</time></trkpt><trkpt lat="48.345565451739716" lon="11.639962185556737"><ele>465.0</ele><time>2026-04-17T08:27:43Z</time></trkpt><trkpt lat="48.345665814274625" lon="11.640050705400638"><ele>464.0</ele><time>2026-04-17T08:27:44Z</time></trkpt><trkpt lat="48.34575700249061" lon="11.64013163052667"><ele>463.0</ele><time>2026-04-17T08:27:45Z</time></trkpt><trkpt lat="48.3458531022468" lon="11.64019530318488"><ele>462.0</ele><time>2026-04-17T08:27:46Z</time></trkpt><trkpt lat="48.34594242184845" lon="11.640292011073385"><ele>461.0</ele><time>2026-04-17T08:27:47Z</time></trkpt><trkpt lat="48.3460357617831" lon="11.640375604583342"><ele>460.0</ele><time>2026-04-17T08:27:48Z</time></trkpt><trkpt lat="48.346117326394406" lon="11.640444748157218"><ele>459.0</ele><time>2026-04-17T08:27:49Z</time></trkpt><trkpt lat="48.34618699447627" lon="11.640510133873885"><ele>458.0</ele><time>2026-04-17T08:27:50Z</time></trkpt><trkpt lat="48.34625511191142" lon="11.640581372821014"><ele>457.0</ele><time>2026-04-17T08:27:51Z</time></trkpt><trkpt lat="48.34633312246672" lon="11.640658428129113"><ele>456.0</ele><time>2026-04-17T08:27:52Z</time></trkpt><trkpt lat="48.34641815922529" lon="11.640746448196"><ele>456.0</ele><time>2026-04-17T08:27:53Z</time></trkpt><trkpt lat="48.34650449078353" lon="11.640848399705671"><ele>456.0</ele><time>2026-04-17T08:27:54Z</time></trkpt><trkpt lat="48.34658996544384" lon="11.64097036628766"><ele>456.0</ele><time>2026-04-17T08:27:55Z</time></trkpt><trkpt lat="48.346671436971484" lon="11.641103062561298"><ele>456.0</ele><time>2026-04-17T08:27:56Z</time></trkpt><trkpt lat="48.346738731767076" lon="11.6412324240922"><ele>455.8</ele><time>2026-04-17T08:27:57Z</time></trkpt><trkpt lat="48.34679495536138" lon="11.641356848773802"><ele>455.6</ele><time>2026-04-17T08:27:58Z</time></trkpt><trkpt lat="48.34684090608601" lon="11.641483680494643"><ele>455.4</ele><time>2026-04-17T08:27:59Z</time></trkpt><trkpt lat="48.34686076311015" lon="11.641630119690054"><ele>455.2</ele><time>2026-04-17T08:28:00Z</time></trkpt><trkpt lat="48.346900766894194" lon="11.641765702682944"><ele>455.0</ele><time>2026-04-17T08:28:01Z</time></trkpt><trkpt lat="48.34692426608114" lon="11.641908842275502"><ele>454.8333333333333</ele><time>2026-04-17T08:28:02Z</time></trkpt><trkpt lat="48.346946980142576" lon="11.642049513536735"><ele>454.66666666666663</ele><time>2026-04-17T08:28:03Z</time></trkpt><trkpt lat="48.34696985588276" lon="11.642191108822905"><ele>454.5</ele><time>2026-04-17T08:28:04Z</time></trkpt><trkpt lat="48.34699381067622" lon="11.64232943966845"><ele>454.33333333333337</ele><time>2026-04-17T08:28:05Z</time></trkpt><trkpt lat="48.34701892803281" lon="11.642451879002923"><ele>454.1666666666667</ele><time>2026-04-17T08:28:06Z</time></trkpt><trkpt lat="48.34704182867887" lon="11.642556413475342"><ele>454.0</ele><time>2026-04-17T08:28:07Z</time></trkpt><trkpt lat="48.347068821130335" lon="11.642653883737395"><ele>454.00000000000006</ele><time>2026-04-17T08:28:08Z</time></trkpt><trkpt lat="48.34710404349309" lon="11.642751968871202"><ele>454.0</ele><time>2026-04-17T08:28:09Z</time></trkpt><trkpt lat="48.347145590637005" lon="11.642839310440866"><ele>454.0</ele><time>2026-04-17T08:28:10Z</time></trkpt><trkpt lat="48.34718967726548" lon="11.64291071802325"><ele>454.0</ele><time>2026-04-17T08:28:11Z</time></trkpt><trkpt lat="48.34726638870186" lon="11.643008913372642"><ele>454.00000000000006</ele><time>2026-04-17T08:28:13Z</time></trkpt><trkpt lat="48.347338325388286" lon="11.643103192655609"><ele>454.0</ele><time>2026-04-17T08:28:15Z</time></trkpt><trkpt lat="48.34737450206716" lon="11.64326757210734"><ele>454.2</ele><time>2026-04-17T08:28:17Z</time></trkpt><trkpt lat="48.34740973253686" lon="11.643393778153637"><ele>454.4</ele><time>2026-04-17T08:28:19Z</time></trkpt><trkpt lat="48.34735785905621" lon="11.643526501663224"><ele>454.6</ele><time>2026-04-17T08:28:21Z</time></trkpt><trkpt lat="48.34732786082667" lon="11.643654381182593"><ele>454.8</ele><time>2026-04-17T08:28:24Z</time></trkpt><trkpt lat="48.347392714570454" lon="11.64380202374756"><ele>455.0</ele><time>2026-04-17T08:28:26Z</time></trkpt><trkpt lat="48.34743338279708" lon="11.643903754085775"><ele>455.16666666666663</ele><time>2026-04-17T08:28:28Z</time></trkpt><trkpt lat="48.347451993050086" lon="11.644000786332569"><ele>455.3333333333333</ele><time>2026-04-17T08:28:30Z</time></trkpt><trkpt lat="48.34746964257167" lon="11.644120002781028"><ele>455.5</ele><time>2026-04-17T08:28:38Z</time></trkpt><trkpt lat="48.34751752894402" lon="11.644274422540818"><ele>455.66666666666663</ele><time>2026-04-17T08:28:40Z</time></trkpt><trkpt lat="48.34755738150695" lon="11.64438256897255"><ele>455.8333333333333</ele><time>2026-04-17T08:28:41Z</time></trkpt><trkpt lat="48.347598927105814" lon="11.644476580719283"><ele>456.0</ele><time>2026-04-17T08:28:42Z</time></trkpt><trkpt lat="48.3476693838109" lon="11.644627558017064"><ele>456.0</ele><time>2026-04-17T08:28:44Z</time></trkpt><trkpt lat="48.34770701570808" lon="11.644708188813471"><ele>455.99999999999994</ele><time>2026-04-17T08:28:45Z</time></trkpt><trkpt lat="48.34774514307096" lon="11.644794495988686"><ele>456.0</ele><time>2026-04-17T08:28:46Z</time></trkpt><trkpt lat="48.34778317943066" lon="11.64488868933967"><ele>456.0</ele><time>2026-04-17T08:28:47Z</time></trkpt><trkpt lat="48.34780788434986" lon="11.644991041465229"><ele>455.99999999999994</ele><time>2026-04-17T08:28:48Z</time></trkpt><trkpt lat="48.34780640891518" lon="11.645105712965858"><ele>456.0</ele><time>2026-04-17T08:28:49Z</time></trkpt><trkpt lat="48.34777718950699" lon="11.645213441195729"><ele>456.0</ele><time>2026-04-17T08:28:50Z</time></trkpt><trkpt lat="48.34771061405228" lon="11.645292961169716"><ele>455.8333333333333</ele><time>2026-04-17T08:28:51Z</time></trkpt><trkpt lat="48.34767101831514" lon="11.645391441981747"><ele>455.66666666666663</ele><time>2026-04-17T08:28:52Z</time></trkpt><trkpt lat="48.34762384248025" lon="11.645490200480342"><ele>455.5</ele><time>2026-04-17T08:28:53Z</time></trkpt><trkpt lat="48.34758995863074" lon="11.645608862215118"><ele>455.3333333333333</ele><time>2026-04-17T08:28:54Z</time></trkpt><trkpt lat="48.34757092911985" lon="11.645748139022306"><ele>455.16666666666663</ele><time>2026-04-17T08:28:55Z</time></trkpt><trkpt lat="48.34756264648977" lon="11.64591013743505"><ele>455.0</ele><time>2026-04-17T08:28:56Z</time></trkpt><trkpt lat="48.34757003113814" lon="11.646084056524707"><ele>454.5</ele><time>2026-04-17T08:28:57Z</time></trkpt><trkpt lat="48.347584974942976" lon="11.646243894257571"><ele>454.0</ele><time>2026-04-17T08:28:58Z</time></trkpt><trkpt lat="48.347597807687066" lon="11.646383133646387"><ele>453.5</ele><time>2026-04-17T08:28:59Z</time></trkpt><trkpt lat="48.3475977635516" lon="11.646557004626377"><ele>453.0</ele><time>2026-04-17T08:29:00Z</time></trkpt><trkpt lat="48.34761645520154" lon="11.646804685152174"><ele>452.66666666666663</ele><time>2026-04-17T08:29:01Z</time></trkpt><trkpt lat="48.34764766876205" lon="11.64708200196147"><ele>452.3333333333333</ele><time>2026-04-17T08:29:02Z</time></trkpt><trkpt lat="48.34770374093392" lon="11.647297434574647"><ele>452.0</ele><time>2026-04-17T08:29:03Z</time></trkpt><trkpt lat="48.34774461545705" lon="11.647473314098473"><ele>452.0</ele><time>2026-04-17T08:29:04Z</time></trkpt><trkpt lat="48.34779266547697" lon="11.64762786762001"><ele>452.0</ele><time>2026-04-17T08:29:05Z</time></trkpt><trkpt lat="48.347818057962904" lon="11.647799329616328"><ele>452.0</ele><time>2026-04-17T08:29:06Z</time></trkpt><trkpt lat="48.34785053082004" lon="11.64798366870446"><ele>452.0</ele><time>2026-04-17T08:29:07Z</time></trkpt><trkpt lat="48.34787437569361" lon="11.648174668135368"><ele>452.25</ele><time>2026-04-17T08:29:08Z</time></trkpt><trkpt lat="48.34789942193621" lon="11.648369048108819"><ele>452.5</ele><time>2026-04-17T08:29:09Z</time></trkpt><trkpt lat="48.34791175253625" lon="11.64855263553825"><ele>452.75</ele><time>2026-04-17T08:29:10Z</time></trkpt><trkpt lat="48.34791743036266" lon="11.648747449209445"><ele>453.0</ele><time>2026-04-17T08:29:11Z</time></trkpt><trkpt lat="48.34793154166871" lon="11.648945177881634"><ele>453.0</ele><time>2026-04-17T08:29:12Z</time></trkpt><trkpt lat="48.347950983538006" lon="11.64914469656031"><ele>453.0</ele><time>2026-04-17T08:29:13Z</time></trkpt><trkpt lat="48.34796328140149" lon="11.64935303688136"><ele>453.0</ele><time>2026-04-17T08:29:14Z</time></trkpt><trkpt lat="48.34800434725527" lon="11.64956005322029"><ele>453.0</ele><time>2026-04-17T08:29:15Z</time></trkpt><trkpt lat="48.34802082025263" lon="11.649774061746662"><ele>453.25</ele><time>2026-04-17T08:29:16Z</time></trkpt><trkpt lat="48.34804428566643" lon="11.64998812041747"><ele>453.5</ele><time>2026-04-17T08:29:17Z</time></trkpt><trkpt lat="48.348070279500675" lon="11.650181095934716"><ele>453.75</ele><time>2026-04-17T08:29:18Z</time></trkpt><trkpt lat="48.34810387728022" lon="11.65036908095817"><ele>454.0</ele><time>2026-04-17T08:29:19Z</time></trkpt><trkpt lat="48.34814948930764" lon="11.65054141039847"><ele>454.0</ele><time>2026-04-17T08:29:20Z</time></trkpt><trkpt lat="48.3481962550698" lon="11.650708415501803"><ele>454.0</ele><time>2026-04-17T08:29:21Z</time></trkpt><trkpt lat="48.348237651059186" lon="11.650875139137744"><ele>454.0</ele><time>2026-04-17T08:29:22Z</time></trkpt><trkpt lat="48.348282740017986" lon="11.65104684292018"><ele>454.0</ele><time>2026-04-17T08:29:23Z</time></trkpt><trkpt lat="48.348329553563275" lon="11.651222770508664"><ele>454.0</ele><time>2026-04-17T08:29:24Z</time></trkpt><trkpt lat="48.34837665413748" lon="11.651408642174061"><ele>454.0</ele><time>2026-04-17T08:29:25Z</time></trkpt><trkpt lat="48.34843155459132" lon="11.651603863555517"><ele>454.0</ele><time>2026-04-17T08:29:26Z</time></trkpt><trkpt lat="48.34850374300322" lon="11.651802408684627"><ele>454.0</ele><time>2026-04-17T08:29:27Z</time></trkpt><trkpt lat="48.34857486418157" lon="11.651998592977982"><ele>453.75</ele><time>2026-04-17T08:29:28Z</time></trkpt><trkpt lat="48.348644077784975" lon="11.652192356646413"><ele>453.5</ele><time>2026-04-17T08:29:29Z</time></trkpt><trkpt lat="48.34871023905317" lon="11.652374331202932"><ele>453.25</ele><time>2026-04-17T08:29:30Z</time></trkpt><trkpt lat="48.34877050600737" lon="11.652543910432065"><ele>453.0</ele><time>2026-04-17T08:29:31Z</time></trkpt><trkpt lat="48.34882729912934" lon="11.652699968935385"><ele>453.0</ele><time>2026-04-17T08:29:32Z</time></trkpt><trkpt lat="48.34888234892893" lon="11.65285219533664"><ele>453.0</ele><time>2026-04-17T08:29:33Z</time></trkpt><trkpt lat="48.348940520151224" lon="11.653018696065555"><ele>453.0</ele><time>2026-04-17T08:29:34Z</time></trkpt><trkpt lat="48.34900094764445" lon="11.653189930385066"><ele>453.0</ele><time>2026-04-17T08:29:35Z</time></trkpt><trkpt lat="48.349063790275245" lon="11.653363773612742"><ele>453.0</ele><time>2026-04-17T08:29:36Z</time></trkpt><trkpt lat="48.349125193755434" lon="11.653541860616526"><ele>453.0</ele><time>2026-04-17T08:29:37Z</time></trkpt><trkpt lat="48.34918982275687" lon="11.653717289998204"><ele>453.0</ele><time>2026-04-17T08:29:38Z</time></trkpt><trkpt lat="48.3492552710675" lon="11.653888411775714"><ele>453.0</ele><time>2026-04-17T08:29:39Z</time></trkpt><trkpt lat="48.34932448120846" lon="11.6540521532033"><ele>453.0</ele><time>2026-04-17T08:29:40Z</time></trkpt><trkpt lat="48.349402252945225" lon="11.654207926998776"><ele>453.0</ele><time>2026-04-17T08:29:41Z</time></trkpt><trkpt lat="48.349487693456176" lon="11.654355325703587"><ele>453.0</ele><time>2026-04-17T08:29:42Z</time></trkpt><trkpt lat="48.34957926419275" lon="11.654495163439483"><ele>453.0</ele><time>2026-04-17T08:29:43Z</time></trkpt><trkpt lat="48.349670726573585" lon="11.654635766709392"><ele>452.75</ele><time>2026-04-17T08:29:44Z</time></trkpt><trkpt lat="48.34975810406318" lon="11.654784410849214"><ele>452.5</ele><time>2026-04-17T08:29:45Z</time></trkpt><trkpt lat="48.349852339825645" lon="11.654927623688"><ele>452.25</ele><time>2026-04-17T08:29:46Z</time></trkpt><trkpt lat="48.349947760413876" lon="11.655068589046525"><ele>452.0</ele><time>2026-04-17T08:29:47Z</time></trkpt><trkpt lat="48.35004535477607" lon="11.655205359679282"><ele>452.0</ele><time>2026-04-17T08:29:48Z</time></trkpt><trkpt lat="48.35014411158552" lon="11.655339328424992"><ele>452.0</ele><time>2026-04-17T08:29:49Z</time></trkpt><trkpt lat="48.3502405892984" lon="11.65547946546875"><ele>452.0</ele><time>2026-04-17T08:29:50Z</time></trkpt><trkpt lat="48.350328002886236" lon="11.655633899055257"><ele>452.0</ele><time>2026-04-17T08:29:51Z</time></trkpt><trkpt lat="48.350393816673034" lon="11.655806484533791"><ele>452.0</ele><time>2026-04-17T08:29:52Z</time></trkpt><trkpt lat="48.350447971272786" lon="11.655985772378772"><ele>452.0</ele><time>2026-04-17T08:29:53Z</time></trkpt><trkpt lat="48.35050034005544" lon="11.656166063557144"><ele>452.0</ele><time>2026-04-17T08:29:54Z</time></trkpt><trkpt lat="48.35055305705597" lon="11.65635204086465"><ele>452.0</ele><time>2026-04-17T08:29:55Z</time></trkpt><trkpt lat="48.35059950064022" lon="11.656521615074512"><ele>451.99999999999994</ele><time>2026-04-17T08:29:56Z</time></trkpt><trkpt lat="48.35063736532753" lon="11.656663901275206"><ele>452.0</ele><time>2026-04-17T08:29:57Z</time></trkpt><trkpt lat="48.35067446428641" lon="11.65679386922394"><ele>452.0</ele><time>2026-04-17T08:29:58Z</time></trkpt><trkpt lat="48.35070959981693" lon="11.656910417079624"><ele>452.0</ele><time>2026-04-17T08:29:59Z</time></trkpt><trkpt lat="48.350740751734286" lon="11.65702089715061"><ele>451.99999999999994</ele><time>2026-04-17T08:30:00Z</time></trkpt><trkpt lat="48.350774153731855" lon="11.657129620045495"><ele>452.0</ele><time>2026-04-17T08:30:01Z</time></trkpt><trkpt lat="48.35080576491902" lon="11.657233999835599"><ele>451.99999999999994</ele><time>2026-04-17T08:30:02Z</time></trkpt><trkpt lat="48.350835610616656" lon="11.657333848929934"><ele>452.0</ele><time>2026-04-17T08:30:03Z</time></trkpt><trkpt lat="48.350862747803774" lon="11.657430946716843"><ele>452.0</ele><time>2026-04-17T08:30:04Z</time></trkpt><trkpt lat="48.35089236747587" lon="11.657520761081196"><ele>452.0</ele><time>2026-04-17T08:30:05Z</time></trkpt><trkpt lat="48.35090422915931" lon="11.657615840407024"><ele>451.99999999999994</ele><time>2026-04-17T08:30:06Z</time></trkpt><trkpt lat="48.35092938036084" lon="11.657713535417844"><ele>452.0</ele><time>2026-04-17T08:30:07Z</time></trkpt><trkpt lat="48.3510523523945" lon="11.657760907937893"><ele>452.16666666666663</ele><time>2026-04-17T08:30:08Z</time></trkpt><trkpt lat="48.351132520975604" lon="11.657841005459758"><ele>452.3333333333333</ele><time>2026-04-17T08:30:09Z</time></trkpt><trkpt lat="48.351206553352824" lon="11.657912208119468"><ele>452.5</ele><time>2026-04-17T08:30:10Z</time></trkpt><trkpt lat="48.35126334933352" lon="11.657963770943043"><ele>452.66666666666663</ele><time>2026-04-17T08:30:11Z</time></trkpt><trkpt lat="48.35136899370638" lon="11.658054330356881"><ele>452.8333333333333</ele><time>2026-04-17T08:30:13Z</time></trkpt><trkpt lat="48.35143043321641" lon="11.658108897138563"><ele>453.0</ele><time>2026-04-17T08:30:14Z</time></trkpt><trkpt lat="48.35150272729926" lon="11.658172199662145"><ele>453.0</ele><time>2026-04-17T08:30:15Z</time></trkpt><trkpt lat="48.35160567787666" lon="11.65825569493857"><ele>453.0</ele><time>2026-04-17T08:30:16Z</time></trkpt><trkpt lat="48.351745107847655" lon="11.658367961346935"><ele>453.0</ele><time>2026-04-17T08:30:17Z</time></trkpt><trkpt lat="48.35188130133158" lon="11.658490742773399"><ele>453.0</ele><time>2026-04-17T08:30:18Z</time></trkpt><trkpt lat="48.35199480693845" lon="11.658593761293131"><ele>453.0</ele><time>2026-04-17T08:30:19Z</time></trkpt><trkpt lat="48.35211705647937" lon="11.65870187722649"><ele>453.0</ele><time>2026-04-17T08:30:20Z</time></trkpt><trkpt lat="48.35224419830031" lon="11.658813392811341"><ele>453.0</ele><time>2026-04-17T08:30:21Z</time></trkpt><trkpt lat="48.352371747843826" lon="11.658920388269863"><ele>453.0</ele><time>2026-04-17T08:30:22Z</time></trkpt><trkpt lat="48.3525104979142" lon="11.659038626960015"><ele>453.0</ele><time>2026-04-17T08:30:23Z</time></trkpt><trkpt lat="48.35265091560068" lon="11.659159641332753"><ele>453.0</ele><time>2026-04-17T08:30:24Z</time></trkpt><trkpt lat="48.35277903185451" lon="11.659264856593792"><ele>453.0</ele><time>2026-04-17T08:30:25Z</time></trkpt><trkpt lat="48.35291103286152" lon="11.659376028465088"><ele>452.66666666666663</ele><time>2026-04-17T08:30:26Z</time></trkpt><trkpt lat="48.35304609910207" lon="11.659486511513984"><ele>452.3333333333333</ele><time>2026-04-17T08:30:27Z</time></trkpt><trkpt lat="48.3531820171906" lon="11.659592016394203"><ele>452.0</ele><time>2026-04-17T08:30:28Z</time></trkpt><trkpt lat="48.353316859612356" lon="11.659696140471546"><ele>452.0</ele><time>2026-04-17T08:30:29Z</time></trkpt><trkpt lat="48.35344713990864" lon="11.659798560536695"><ele>452.0</ele><time>2026-04-17T08:30:30Z</time></trkpt><trkpt lat="48.35356408576001" lon="11.659894908719668"><ele>452.0</ele><time>2026-04-17T08:30:31Z</time></trkpt><trkpt lat="48.35367651131267" lon="11.659986611996201"><ele>452.0</ele><time>2026-04-17T08:30:32Z</time></trkpt><trkpt lat="48.35378834085011" lon="11.66007818413403"><ele>452.0</ele><time>2026-04-17T08:30:33Z</time></trkpt><trkpt lat="48.3538995316509" lon="11.660168103641967"><ele>452.0</ele><time>2026-04-17T08:30:34Z</time></trkpt><trkpt lat="48.3540111673316" lon="11.660263649020381"><ele>452.0</ele><time>2026-04-17T08:30:35Z</time></trkpt><trkpt lat="48.3541199968691" lon="11.66035368870412"><ele>452.0</ele><time>2026-04-17T08:30:36Z</time></trkpt><trkpt lat="48.354224361172186" lon="11.66044012917775"><ele>452.0</ele><time>2026-04-17T08:30:37Z</time></trkpt><trkpt lat="48.35433412223884" lon="11.66053536903666"><ele>452.0</ele><time>2026-04-17T08:30:38Z</time></trkpt><trkpt lat="48.354436672157064" lon="11.660624065618123"><ele>452.0</ele><time>2026-04-17T08:30:39Z</time></trkpt><trkpt lat="48.354526990971024" lon="11.660703377282468"><ele>452.0</ele><time>2026-04-17T08:30:40Z</time></trkpt><trkpt lat="48.354625196488406" lon="11.660788633192166"><ele>451.75</ele><time>2026-04-17T08:30:41Z</time></trkpt><trkpt lat="48.35473458466213" lon="11.660881183649492"><ele>451.5</ele><time>2026-04-17T08:30:42Z</time></trkpt><trkpt lat="48.35483616234999" lon="11.660967798400675"><ele>451.25</ele><time>2026-04-17T08:30:43Z</time></trkpt><trkpt lat="48.35494296729822" lon="11.661061406295394"><ele>451.0</ele><time>2026-04-17T08:30:44Z</time></trkpt><trkpt lat="48.35506388218924" lon="11.66116341258961"><ele>451.0</ele><time>2026-04-17T08:30:45Z</time></trkpt><trkpt lat="48.35518582828207" lon="11.66126836420712"><ele>451.0</ele><time>2026-04-17T08:30:46Z</time></trkpt><trkpt lat="48.3552981675126" lon="11.661367751745635"><ele>451.0</ele><time>2026-04-17T08:30:47Z</time></trkpt><trkpt lat="48.355414205880216" lon="11.661468311341592"><ele>451.0</ele><time>2026-04-17T08:30:48Z</time></trkpt><trkpt lat="48.35552557925785" lon="11.661565692335639"><ele>451.0</ele><time>2026-04-17T08:30:49Z</time></trkpt><trkpt lat="48.35562405172444" lon="11.661654086735375"><ele>451.0</ele><time>2026-04-17T08:30:50Z</time></trkpt><trkpt lat="48.35570578413475" lon="11.66172765544544"><ele>451.0</ele><time>2026-04-17T08:30:51Z</time></trkpt><trkpt lat="48.3557899431566" lon="11.661801506243977"><ele>451.0</ele><time>2026-04-17T08:30:52Z</time></trkpt><trkpt lat="48.35587746957897" lon="11.66187565313892"><ele>451.0</ele><time>2026-04-17T08:30:53Z</time></trkpt><trkpt lat="48.355969961833104" lon="11.661953600630063"><ele>450.8</ele><time>2026-04-17T08:30:54Z</time></trkpt><trkpt lat="48.35606148512959" lon="11.662035426609021"><ele>450.6</ele><time>2026-04-17T08:30:55Z</time></trkpt><trkpt lat="48.3561420457267" lon="11.662109226597634"><ele>450.4</ele><time>2026-04-17T08:30:56Z</time></trkpt><trkpt lat="48.35621847864452" lon="11.662177300350272"><ele>450.2</ele><time>2026-04-17T08:30:57Z</time></trkpt><trkpt lat="48.35629357555877" lon="11.662240383874806"><ele>450.0</ele><time>2026-04-17T08:30:58Z</time></trkpt><trkpt lat="48.356362792438546" lon="11.662297687854807"><ele>450.0</ele><time>2026-04-17T08:30:59Z</time></trkpt><trkpt lat="48.35642991285859" lon="11.662356270140155"><ele>450.0</ele><time>2026-04-17T08:31:00Z</time></trkpt><trkpt lat="48.35648434928151" lon="11.662405064650637"><ele>450.0</ele><time>2026-04-17T08:31:01Z</time></trkpt><trkpt lat="48.356572606239425" lon="11.662477599050158"><ele>450.0</ele><time>2026-04-17T08:31:03Z</time></trkpt><trkpt lat="48.35667355540007" lon="11.662560585034825"><ele>450.0</ele><time>2026-04-17T08:31:05Z</time></trkpt><trkpt lat="48.35673199801243" lon="11.662612337104292"><ele>450.0</ele><time>2026-04-17T08:31:06Z</time></trkpt><trkpt lat="48.35677512984653" lon="11.662691466767804"><ele>450.0</ele><time>2026-04-17T08:31:07Z</time></trkpt><trkpt lat="48.35677745126236" lon="11.662881837935505"><ele>450.0</ele><time>2026-04-17T08:31:09Z</time></trkpt><trkpt lat="48.356751930883824" lon="11.662986242546872"><ele>450.0</ele><time>2026-04-17T08:31:10Z</time></trkpt><trkpt lat="48.356720236690144" lon="11.663120939432089"><ele>450.0</ele><time>2026-04-17T08:31:11Z</time></trkpt><trkpt lat="48.35669200564822" lon="11.663274731156518"><ele>450.0</ele><time>2026-04-17T08:31:12Z</time></trkpt><trkpt lat="48.3566625617649" lon="11.66342165225527"><ele>450.0</ele><time>2026-04-17T08:31:13Z</time></trkpt><trkpt lat="48.35662892673738" lon="11.663572200718917"><ele>450.0</ele><time>2026-04-17T08:31:14Z</time></trkpt><trkpt lat="48.356595722350015" lon="11.663733050768084"><ele>450.0</ele><time>2026-04-17T08:31:15Z</time></trkpt><trkpt lat="48.356561224489866" lon="11.663903232585769"><ele>450.0</ele><time>2026-04-17T08:31:16Z</time></trkpt><trkpt lat="48.356527880302444" lon="11.66407897218772"><ele>450.0</ele><time>2026-04-17T08:31:17Z</time></trkpt><trkpt lat="48.35649577190998" lon="11.664252215529391"><ele>450.0</ele><time>2026-04-17T08:31:18Z</time></trkpt><trkpt lat="48.356464762735534" lon="11.664425147813958"><ele>450.0</ele><time>2026-04-17T08:31:19Z</time></trkpt><trkpt lat="48.35643497258002" lon="11.664598693567202"><ele>450.0</ele><time>2026-04-17T08:31:20Z</time></trkpt><trkpt lat="48.3564032558232" lon="11.664772165839263"><ele>450.25</ele><time>2026-04-17T08:31:21Z</time></trkpt><trkpt lat="48.35637245280292" lon="11.66494706975753"><ele>450.5</ele><time>2026-04-17T08:31:22Z</time></trkpt><trkpt lat="48.356341825908785" lon="11.665119894193833"><ele>450.75</ele><time>2026-04-17T08:31:23Z</time></trkpt><trkpt lat="48.356310086024955" lon="11.665296258458728"><ele>451.0</ele><time>2026-04-17T08:31:24Z</time></trkpt><trkpt lat="48.35627439196959" lon="11.66547559962083"><ele>451.25</ele><time>2026-04-17T08:31:25Z</time></trkpt><trkpt lat="48.3562333650831" lon="11.665653281501676"><ele>451.5</ele><time>2026-04-17T08:31:26Z</time></trkpt><trkpt lat="48.35618846249485" lon="11.665823672454682"><ele>451.75</ele><time>2026-04-17T08:31:27Z</time></trkpt><trkpt lat="48.35613812340967" lon="11.665996515423295"><ele>452.0</ele><time>2026-04-17T08:31:28Z</time></trkpt><trkpt lat="48.35608802283799" lon="11.66617228442431"><ele>452.0</ele><time>2026-04-17T08:31:29Z</time></trkpt><trkpt lat="48.356037462978925" lon="11.666348318526467"><ele>452.0</ele><time>2026-04-17T08:31:30Z</time></trkpt><trkpt lat="48.355984047813706" lon="11.66652643664668"><ele>452.0</ele><time>2026-04-17T08:31:31Z</time></trkpt><trkpt lat="48.35593143672148" lon="11.666707795940683"><ele>452.0</ele><time>2026-04-17T08:31:32Z</time></trkpt><trkpt lat="48.3558771332629" lon="11.666894898706351"><ele>451.75</ele><time>2026-04-17T08:31:33Z</time></trkpt><trkpt lat="48.35581973601724" lon="11.667088913298786"><ele>451.5</ele><time>2026-04-17T08:31:34Z</time></trkpt><trkpt lat="48.355762884577516" lon="11.667288635753021"><ele>451.25</ele><time>2026-04-17T08:31:35Z</time></trkpt><trkpt lat="48.355709428161596" lon="11.6674912337734"><ele>451.0</ele><time>2026-04-17T08:31:36Z</time></trkpt><trkpt lat="48.35564588361426" lon="11.667689307571688"><ele>450.75</ele><time>2026-04-17T08:31:37Z</time></trkpt><trkpt lat="48.35559005392457" lon="11.667892258009486"><ele>450.5</ele><time>2026-04-17T08:31:38Z</time></trkpt><trkpt lat="48.35552958631701" lon="11.668093806524789"><ele>450.25</ele><time>2026-04-17T08:31:39Z</time></trkpt><trkpt lat="48.35545945257767" lon="11.668290079650843"><ele>450.0</ele><time>2026-04-17T08:31:40Z</time></trkpt><trkpt lat="48.35539285444539" lon="11.668488500528852"><ele>450.0</ele><time>2026-04-17T08:31:41Z</time></trkpt><trkpt lat="48.35532877964133" lon="11.668675898070635"><ele>450.0</ele><time>2026-04-17T08:31:42Z</time></trkpt><trkpt lat="48.35526816692069" lon="11.668862973345403"><ele>450.0</ele><time>2026-04-17T08:31:43Z</time></trkpt><trkpt lat="48.35520795540141" lon="11.669049338573986"><ele>450.0</ele><time>2026-04-17T08:31:44Z</time></trkpt><trkpt lat="48.35514603320866" lon="11.669238962313019"><ele>450.0</ele><time>2026-04-17T08:31:45Z</time></trkpt><trkpt lat="48.355082183302414" lon="11.669434769091525"><ele>450.0</ele><time>2026-04-17T08:31:46Z</time></trkpt><trkpt lat="48.35501812804261" lon="11.669635616747357"><ele>450.0</ele><time>2026-04-17T08:31:47Z</time></trkpt><trkpt lat="48.35495518291616" lon="11.669834414331953"><ele>450.0</ele><time>2026-04-17T08:31:48Z</time></trkpt><trkpt lat="48.35488307503065" lon="11.67002490814637"><ele>450.0</ele><time>2026-04-17T08:31:49Z</time></trkpt><trkpt lat="48.35481792229723" lon="11.670221325603091"><ele>450.0</ele><time>2026-04-17T08:31:50Z</time></trkpt><trkpt lat="48.354754528487" lon="11.670423206494007"><ele>450.0</ele><time>2026-04-17T08:31:51Z</time></trkpt><trkpt lat="48.35468877016659" lon="11.670630393537243"><ele>450.0</ele><time>2026-04-17T08:31:52Z</time></trkpt><trkpt lat="48.3546195285828" lon="11.670839192844875"><ele>450.0</ele><time>2026-04-17T08:31:53Z</time></trkpt><trkpt lat="48.35455083443079" lon="11.671046341390003"><ele>450.0</ele><time>2026-04-17T08:31:54Z</time></trkpt><trkpt lat="48.35448214922144" lon="11.671253462954738"><ele>450.0</ele><time>2026-04-17T08:31:55Z</time></trkpt><trkpt lat="48.354414927579306" lon="11.67145861169165"><ele>450.0</ele><time>2026-04-17T08:31:56Z</time></trkpt><trkpt lat="48.354365177363306" lon="11.67166852332245"><ele>450.0</ele><time>2026-04-17T08:31:57Z</time></trkpt><trkpt lat="48.35429821135811" lon="11.671866442438105"><ele>450.0</ele><time>2026-04-17T08:31:58Z</time></trkpt><trkpt lat="48.35423035230626" lon="11.672067874978648"><ele>450.0</ele><time>2026-04-17T08:31:59Z</time></trkpt><trkpt lat="48.35416315298384" lon="11.672273114608796"><ele>450.0</ele><time>2026-04-17T08:32:00Z</time></trkpt><trkpt lat="48.35407954585651" lon="11.672467586479836"><ele>450.0</ele><time>2026-04-17T08:32:01Z</time></trkpt><trkpt lat="48.35402281960485" lon="11.67268750110499"><ele>450.0</ele><time>2026-04-17T08:32:02Z</time></trkpt><trkpt lat="48.35394723366827" lon="11.67289091045954"><ele>450.0</ele><time>2026-04-17T08:32:03Z</time></trkpt><trkpt lat="48.353878120079784" lon="11.673088635357258"><ele>450.0</ele><time>2026-04-17T08:32:04Z</time></trkpt><trkpt lat="48.35381470734876" lon="11.673277634056426"><ele>450.0</ele><time>2026-04-17T08:32:05Z</time></trkpt><trkpt lat="48.35375018368442" lon="11.673464688041314"><ele>450.0</ele><time>2026-04-17T08:32:06Z</time></trkpt><trkpt lat="48.35368518956631" lon="11.673655026498658"><ele>450.0</ele><time>2026-04-17T08:32:07Z</time></trkpt><trkpt lat="48.35362404177696" lon="11.673862134396352"><ele>450.0</ele><time>2026-04-17T08:32:08Z</time></trkpt><trkpt lat="48.353547258872354" lon="11.674059002399856"><ele>450.0</ele><time>2026-04-17T08:32:09Z</time></trkpt><trkpt lat="48.35348948543549" lon="11.67423126910326"><ele>450.0</ele><time>2026-04-17T08:32:10Z</time></trkpt><trkpt lat="48.35344495690006" lon="11.674363833969217"><ele>450.0</ele><time>2026-04-17T08:32:11Z</time></trkpt><trkpt lat="48.35341914275902" lon="11.674491634680537"><ele>450.0</ele><time>2026-04-17T08:32:12Z</time></trkpt><trkpt lat="48.35337441785741" lon="11.674613536420845"><ele>450.0</ele><time>2026-04-17T08:32:13Z</time></trkpt><trkpt lat="48.353327467079566" lon="11.674734828242487"><ele>450.0</ele><time>2026-04-17T08:32:14Z</time></trkpt><trkpt lat="48.353285870183896" lon="11.674841927539221"><ele>450.0</ele><time>2026-04-17T08:32:15Z</time></trkpt><trkpt lat="48.353246183758216" lon="11.674947490756264"><ele>450.0</ele><time>2026-04-17T08:32:16Z</time></trkpt><trkpt lat="48.35320664573895" lon="11.67506513570566"><ele>450.0</ele><time>2026-04-17T08:32:17Z</time></trkpt><trkpt lat="48.35315952036454" lon="11.675212194477107"><ele>450.0</ele><time>2026-04-17T08:32:18Z</time></trkpt><trkpt lat="48.35310478987927" lon="11.675369916901865"><ele>450.0</ele><time>2026-04-17T08:32:19Z</time></trkpt><trkpt lat="48.3530494409279" lon="11.675531621665614"><ele>450.0</ele><time>2026-04-17T08:32:20Z</time></trkpt><trkpt lat="48.352992194459645" lon="11.675698828002902"><ele>450.25</ele><time>2026-04-17T08:32:21Z</time></trkpt><trkpt lat="48.3529334808315" lon="11.675868664872942"><ele>450.5</ele><time>2026-04-17T08:32:22Z</time></trkpt><trkpt lat="48.35287197363461" lon="11.67605249979426"><ele>450.75</ele><time>2026-04-17T08:32:23Z</time></trkpt><trkpt lat="48.35281036061725" lon="11.676232228166548"><ele>451.0</ele><time>2026-04-17T08:32:24Z</time></trkpt><trkpt lat="48.35275002991633" lon="11.676415077864823"><ele>451.0</ele><time>2026-04-17T08:32:25Z</time></trkpt><trkpt lat="48.35269944644096" lon="11.676565346841866"><ele>451.0</ele><time>2026-04-17T08:32:26Z</time></trkpt><trkpt lat="48.35265196368453" lon="11.676703978143342"><ele>451.0</ele><time>2026-04-17T08:32:27Z</time></trkpt><trkpt lat="48.35260751494183" lon="11.676851609644235"><ele>451.0</ele><time>2026-04-17T08:32:28Z</time></trkpt><trkpt lat="48.35254330456643" lon="11.676993231371565"><ele>451.0</ele><time>2026-04-17T08:32:29.001Z</time></trkpt><trkpt lat="48.3524924321102" lon="11.677143433137175"><ele>451.0</ele><time>2026-04-17T08:32:30.001Z</time></trkpt><trkpt lat="48.35244474501622" lon="11.677286973067641"><ele>451.0</ele><time>2026-04-17T08:32:31.001Z</time></trkpt><trkpt lat="48.35239836531262" lon="11.677427610032671"><ele>451.0</ele><time>2026-04-17T08:32:32.001Z</time></trkpt><trkpt lat="48.352352376552105" lon="11.677567061502797"><ele>451.0</ele><time>2026-04-17T08:32:33.001Z</time></trkpt><trkpt lat="48.35230493069167" lon="11.677710931415303"><ele>451.0</ele><time>2026-04-17T08:32:34.001Z</time></trkpt><trkpt lat="48.35227003985681" lon="11.67787056927588"><ele>451.4</ele><time>2026-04-17T08:32:35.001Z</time></trkpt><trkpt lat="48.352203135260325" lon="11.67801473311592"><ele>451.8</ele><time>2026-04-17T08:32:36.001Z</time></trkpt><trkpt lat="48.352151841869215" lon="11.678171090970912"><ele>452.19999999999993</ele><time>2026-04-17T08:32:37.001Z</time></trkpt><trkpt lat="48.352122308293325" lon="11.678316796846833"><ele>452.59999999999997</ele><time>2026-04-17T08:32:38.001Z</time></trkpt><trkpt lat="48.35207998409609" lon="11.678434008181869"><ele>453.0</ele><time>2026-04-17T08:32:39.001Z</time></trkpt><trkpt lat="48.35203946577186" lon="11.67854866915476"><ele>452.8571428571428</ele><time>2026-04-17T08:32:40Z</time></trkpt><trkpt lat="48.35200071986053" lon="11.67866237959487"><ele>452.71428571428567</ele><time>2026-04-17T08:32:41Z</time></trkpt><trkpt lat="48.35197004074747" lon="11.678764071634157"><ele>452.57142857142856</ele><time>2026-04-17T08:32:42Z</time></trkpt><trkpt lat="48.35193891915435" lon="11.678851882137927"><ele>452.4285714285714</ele><time>2026-04-17T08:32:43Z</time></trkpt><trkpt lat="48.351907268432214" lon="11.67893792972277"><ele>452.2857142857142</ele><time>2026-04-17T08:32:44Z</time></trkpt><trkpt lat="48.35186123824271" lon="11.679012033081083"><ele>452.14285714285717</ele><time>2026-04-17T08:32:45Z</time></trkpt><trkpt lat="48.35183149085989" lon="11.679095918953976"><ele>452.0</ele><time>2026-04-17T08:32:46Z</time></trkpt><trkpt lat="48.351788039282965" lon="11.679234450341715"><ele>452.0</ele><time>2026-04-17T08:32:48Z</time></trkpt><trkpt lat="48.35177174743316" lon="11.679344884193865"><ele>452.00000000000006</ele><time>2026-04-17T08:32:50Z</time></trkpt><trkpt lat="48.35173857584896" lon="11.679458816068175"><ele>452.00000000000006</ele><time>2026-04-17T08:32:53Z</time></trkpt><trkpt lat="48.35162517047382" lon="11.679445376107498"><ele>452.0</ele><time>2026-04-17T08:32:54Z</time></trkpt><trkpt lat="48.351539866435424" lon="11.679463130418865"><ele>452.0</ele><time>2026-04-17T08:32:56Z</time></trkpt><trkpt lat="48.351449003040315" lon="11.679527891711368"><ele>451.8333333333333</ele><time>2026-04-17T08:33:43Z</time></trkpt><trkpt lat="48.351381688446864" lon="11.679539448635806"><ele>451.66666666666663</ele><time>2026-04-17T08:33:44Z</time></trkpt><trkpt lat="48.35131076254795" lon="11.679555896856982"><ele>451.5</ele><time>2026-04-17T08:33:45Z</time></trkpt><trkpt lat="48.35124568151939" lon="11.679524359109362"><ele>451.33333333333337</ele><time>2026-04-17T08:33:46Z</time></trkpt><trkpt lat="48.35113111481699" lon="11.679548203860442"><ele>451.1666666666667</ele><time>2026-04-17T08:33:48Z</time></trkpt><trkpt lat="48.35106446268117" lon="11.679562076218971"><ele>451.0</ele><time>2026-04-17T08:33:49Z</time></trkpt><trkpt lat="48.35099745148125" lon="11.679576023243177"><ele>450.8</ele><time>2026-04-17T08:33:50Z</time></trkpt><trkpt lat="48.350892668079936" lon="11.679597831796228"><ele>450.6</ele><time>2026-04-17T08:33:52Z</time></trkpt><trkpt lat="48.35076943844048" lon="11.6796234795962"><ele>450.4</ele><time>2026-04-17T08:33:54Z</time></trkpt><trkpt lat="48.350699797883976" lon="11.679637973882876"><ele>450.2</ele><time>2026-04-17T08:33:55Z</time></trkpt><trkpt lat="48.35063317001386" lon="11.679651841130408"><ele>450.0</ele><time>2026-04-17T08:33:56Z</time></trkpt><trkpt lat="48.35052335811188" lon="11.67967469627355"><ele>450.28571428571433</ele><time>2026-04-17T08:33:58Z</time></trkpt><trkpt lat="48.35041351526623" lon="11.679697557854446"><ele>450.57142857142856</ele><time>2026-04-17T08:34:00Z</time></trkpt><trkpt lat="48.35034944196597" lon="11.679710895690286"><ele>450.8571428571429</ele><time>2026-04-17T08:34:01Z</time></trkpt><trkpt lat="48.350285206601676" lon="11.679724264989348"><ele>451.14285714285717</ele><time>2026-04-17T08:34:02Z</time></trkpt><trkpt lat="48.350218677758306" lon="11.679739896836628"><ele>451.42857142857144</ele><time>2026-04-17T08:34:03Z</time></trkpt><trkpt lat="48.35015247206508" lon="11.679755660070292"><ele>451.7142857142857</ele><time>2026-04-17T08:34:04Z</time></trkpt><trkpt lat="48.350083301790335" lon="11.679774204571268"><ele>452.0</ele><time>2026-04-17T08:34:05Z</time></trkpt><trkpt lat="48.350018755515194" lon="11.67979146656215"><ele>451.99999999999994</ele><time>2026-04-17T08:34:06Z</time></trkpt><trkpt lat="48.349899120840774" lon="11.679822229074896"><ele>452.0</ele><time>2026-04-17T08:34:08Z</time></trkpt><trkpt lat="48.34978632318196" lon="11.679848800095971"><ele>452.0</ele><time>2026-04-17T08:34:10Z</time></trkpt><trkpt lat="48.3497194635097" lon="11.679863903430071"><ele>452.0</ele><time>2026-04-17T08:34:11Z</time></trkpt><trkpt lat="48.34964769013841" lon="11.679880116753939"><ele>451.99999999999994</ele><time>2026-04-17T08:34:12Z</time></trkpt><trkpt lat="48.349585017542594" lon="11.679894274278748"><ele>452.0</ele><time>2026-04-17T08:34:13Z</time></trkpt><trkpt lat="48.349474185380004" lon="11.679919310830497"><ele>451.99999999999994</ele><time>2026-04-17T08:34:15Z</time></trkpt><trkpt lat="48.34935610261085" lon="11.679945985252514"><ele>452.0</ele><time>2026-04-17T08:34:17Z</time></trkpt><trkpt lat="48.34928797455379" lon="11.679961375140898"><ele>452.0</ele><time>2026-04-17T08:34:18Z</time></trkpt><trkpt lat="48.349215792215986" lon="11.67997768086184"><ele>452.0</ele><time>2026-04-17T08:34:19Z</time></trkpt><trkpt lat="48.34914189213935" lon="11.679994567184476"><ele>451.99999999999994</ele><time>2026-04-17T08:34:20Z</time></trkpt><trkpt lat="48.34906833166291" lon="11.680011415275208"><ele>452.0</ele><time>2026-04-17T08:34:21Z</time></trkpt><trkpt lat="48.349002410758736" lon="11.68002651359827"><ele>452.0</ele><time>2026-04-17T08:34:22Z</time></trkpt><trkpt lat="48.34888751490174" lon="11.680050652289644"><ele>452.0</ele><time>2026-04-17T08:34:24Z</time></trkpt><trkpt lat="48.34877021676579" lon="11.680073142941504"><ele>452.0</ele><time>2026-04-17T08:34:26Z</time></trkpt><trkpt lat="48.34865470268488" lon="11.68009529145726"><ele>452.0</ele><time>2026-04-17T08:34:28Z</time></trkpt><trkpt lat="48.348532747615664" lon="11.680118675010688"><ele>451.99999999999994</ele><time>2026-04-17T08:34:30Z</time></trkpt><trkpt lat="48.348464901368615" lon="11.680131683789952"><ele>452.0</ele><time>2026-04-17T08:34:31Z</time></trkpt><trkpt lat="48.34839304773015" lon="11.680145460922674"><ele>452.0</ele><time>2026-04-17T08:34:32Z</time></trkpt><trkpt lat="48.34827851722631" lon="11.680167699889047"><ele>452.0</ele><time>2026-04-17T08:34:34Z</time></trkpt><trkpt lat="48.348155552376966" lon="11.680192717877015"><ele>451.99999999999994</ele><time>2026-04-17T08:34:36.001Z</time></trkpt><trkpt lat="48.348087567214066" lon="11.680206549946409"><ele>452.0</ele><time>2026-04-17T08:34:37.001Z</time></trkpt><trkpt lat="48.34797084664434" lon="11.680230304142757"><ele>451.99999999999994</ele><time>2026-04-17T08:34:39.001Z</time></trkpt><trkpt lat="48.3479044369253" lon="11.68024409202301"><ele>452.0</ele><time>2026-04-17T08:34:40.001Z</time></trkpt><trkpt lat="48.34783171166873" lon="11.680259191097113"><ele>452.0</ele><time>2026-04-17T08:34:41.001Z</time></trkpt><trkpt lat="48.34776142194451" lon="11.680273784497189"><ele>452.0</ele><time>2026-04-17T08:34:42.001Z</time></trkpt><trkpt lat="48.34769071424948" lon="11.680289166198088"><ele>451.99999999999994</ele><time>2026-04-17T08:34:43Z</time></trkpt><trkpt lat="48.347626034268174" lon="11.680303657124808"><ele>452.0</ele><time>2026-04-17T08:34:44Z</time></trkpt><trkpt lat="48.34752193608211" lon="11.680326979288221"><ele>451.99999999999994</ele><time>2026-04-17T08:34:46Z</time></trkpt><trkpt lat="48.34739550671526" lon="11.680355938945468"><ele>452.0</ele><time>2026-04-17T08:34:48Z</time></trkpt><trkpt lat="48.34732739888579" lon="11.680372327456382"><ele>452.0</ele><time>2026-04-17T08:34:49Z</time></trkpt><trkpt lat="48.34725964604284" lon="11.680388630523275"><ele>452.0</ele><time>2026-04-17T08:34:50Z</time></trkpt><trkpt lat="48.34719386829582" lon="11.68040445836365"><ele>451.99999999999994</ele><time>2026-04-17T08:34:51Z</time></trkpt><trkpt lat="48.347124853139135" lon="11.680421091752162"><ele>452.0</ele><time>2026-04-17T08:34:52Z</time></trkpt><trkpt lat="48.34705630532612" lon="11.680438476384415"><ele>451.99999999999994</ele><time>2026-04-17T08:34:53Z</time></trkpt><trkpt lat="48.346991010986784" lon="11.680455035895239"><ele>452.0</ele><time>2026-04-17T08:34:54Z</time></trkpt><trkpt lat="48.34692729057513" lon="11.680471196244383"><ele>452.0</ele><time>2026-04-17T08:34:55Z</time></trkpt><trkpt lat="48.346857953081326" lon="11.680488781134633"><ele>452.0</ele><time>2026-04-17T08:34:56Z</time></trkpt><trkpt lat="48.346736842331076" lon="11.68052299870044"><ele>451.99999999999994</ele><time>2026-04-17T08:34:58Z</time></trkpt><trkpt lat="48.34666761183455" lon="11.680543000737066"><ele>452.0</ele><time>2026-04-17T08:34:59Z</time></trkpt><trkpt lat="48.34660160050889" lon="11.680561569036376"><ele>451.99999999999994</ele><time>2026-04-17T08:35:00Z</time></trkpt><trkpt lat="48.34647802294385" lon="11.680591552141417"><ele>452.0</ele><time>2026-04-17T08:35:02Z</time></trkpt><trkpt lat="48.34640712782399" lon="11.680607000131534"><ele>452.0</ele><time>2026-04-17T08:35:03Z</time></trkpt><trkpt lat="48.34630490526134" lon="11.680627954651998"><ele>452.0</ele><time>2026-04-17T08:35:05Z</time></trkpt><trkpt lat="48.34623703175857" lon="11.680641379081782"><ele>451.99999999999994</ele><time>2026-04-17T08:35:06Z</time></trkpt><trkpt lat="48.34616196397422" lon="11.680656226403597"><ele>452.0</ele><time>2026-04-17T08:35:07Z</time></trkpt><trkpt lat="48.346088447129084" lon="11.680670767053806"><ele>452.0</ele><time>2026-04-17T08:35:08Z</time></trkpt><trkpt lat="48.346020150011896" lon="11.68068427525214"><ele>452.0</ele><time>2026-04-17T08:35:09Z</time></trkpt><trkpt lat="48.345954205149546" lon="11.680697495275503"><ele>452.0</ele><time>2026-04-17T08:35:10Z</time></trkpt><trkpt lat="48.34588535881307" lon="11.680712352823056"><ele>452.0</ele><time>2026-04-17T08:35:11Z</time></trkpt><trkpt lat="48.34581128001996" lon="11.680728339464059"><ele>452.0</ele><time>2026-04-17T08:35:12Z</time></trkpt><trkpt lat="48.345736597127896" lon="11.680744496774988"><ele>452.0</ele><time>2026-04-17T08:35:13Z</time></trkpt><trkpt lat="48.34566120910299" lon="11.680760955282315"><ele>452.0</ele><time>2026-04-17T08:35:14Z</time></trkpt><trkpt lat="48.345588402054055" lon="11.680776850293327"><ele>452.16666666666663</ele><time>2026-04-17T08:35:15Z</time></trkpt><trkpt lat="48.345512989674894" lon="11.680793314055403"><ele>452.3333333333333</ele><time>2026-04-17T08:35:16Z</time></trkpt><trkpt lat="48.34543690463023" lon="11.680809927152822"><ele>452.5</ele><time>2026-04-17T08:35:17Z</time></trkpt><trkpt lat="48.34535924232899" lon="11.680826882160941"><ele>452.66666666666663</ele><time>2026-04-17T08:35:18Z</time></trkpt><trkpt lat="48.34527973406168" lon="11.680844240180674"><ele>452.8333333333333</ele><time>2026-04-17T08:35:19Z</time></trkpt><trkpt lat="48.34519350074657" lon="11.680863066388854"><ele>453.0</ele><time>2026-04-17T08:35:20Z</time></trkpt><trkpt lat="48.345105995117954" lon="11.680881660288778"><ele>453.0</ele><time>2026-04-17T08:35:21Z</time></trkpt><trkpt lat="48.34502010765634" lon="11.680899776552604"><ele>453.0</ele><time>2026-04-17T08:35:22Z</time></trkpt><trkpt lat="48.34493676475191" lon="11.680917356083906"><ele>453.0</ele><time>2026-04-17T08:35:23Z</time></trkpt><trkpt lat="48.34485472139931" lon="11.680934661491325"><ele>453.0</ele><time>2026-04-17T08:35:24Z</time></trkpt><trkpt lat="48.344772777661404" lon="11.68095194586717"><ele>453.0</ele><time>2026-04-17T08:35:25Z</time></trkpt><trkpt lat="48.344692822554094" lon="11.680968810793134"><ele>453.0</ele><time>2026-04-17T08:35:26Z</time></trkpt><trkpt lat="48.344617390967734" lon="11.680985552206899"><ele>452.8333333333333</ele><time>2026-04-17T08:35:27Z</time></trkpt><trkpt lat="48.344544701144926" lon="11.68100255867805"><ele>452.66666666666663</ele><time>2026-04-17T08:35:28Z</time></trkpt><trkpt lat="48.34446724286502" lon="11.681020680706538"><ele>452.5</ele><time>2026-04-17T08:35:29Z</time></trkpt><trkpt lat="48.344388226734836" lon="11.681039819987486"><ele>452.3333333333333</ele><time>2026-04-17T08:35:30Z</time></trkpt><trkpt lat="48.344308540380865" lon="11.681059911656593"><ele>452.16666666666663</ele><time>2026-04-17T08:35:31Z</time></trkpt><trkpt lat="48.344237910728765" lon="11.681077463761076"><ele>452.0</ele><time>2026-04-17T08:35:32Z</time></trkpt><trkpt lat="48.344160712363326" lon="11.68109797684257"><ele>451.99999999999994</ele><time>2026-04-17T08:35:33Z</time></trkpt><trkpt lat="48.344084998388745" lon="11.681119029018362"><ele>452.0</ele><time>2026-04-17T08:35:34Z</time></trkpt><trkpt lat="48.34400670408698" lon="11.681141042847813"><ele>452.0</ele><time>2026-04-17T08:35:35Z</time></trkpt><trkpt lat="48.34392646601983" lon="11.681163761661514"><ele>452.0</ele><time>2026-04-17T08:35:36Z</time></trkpt><trkpt lat="48.34384802128991" lon="11.681185972783242"><ele>451.99999999999994</ele><time>2026-04-17T08:35:37Z</time></trkpt><trkpt lat="48.343766974993564" lon="11.68120892044368"><ele>452.0</ele><time>2026-04-17T08:35:38Z</time></trkpt><trkpt lat="48.343692274922155" lon="11.68122989072773"><ele>452.16666666666663</ele><time>2026-04-17T08:35:39Z</time></trkpt><trkpt lat="48.34362123814101" lon="11.681249524653452"><ele>452.3333333333333</ele><time>2026-04-17T08:35:40Z</time></trkpt><trkpt lat="48.34354986710772" lon="11.681269005514231"><ele>452.5</ele><time>2026-04-17T08:35:41Z</time></trkpt><trkpt lat="48.34347667258092" lon="11.681289704186414"><ele>452.66666666666663</ele><time>2026-04-17T08:35:42Z</time></trkpt><trkpt lat="48.34340214875398" lon="11.681312533409178"><ele>452.8333333333333</ele><time>2026-04-17T08:35:43Z</time></trkpt><trkpt lat="48.34332660129001" lon="11.681338044959778"><ele>453.0</ele><time>2026-04-17T08:35:44Z</time></trkpt><trkpt lat="48.34324594732219" lon="11.681367634939047"><ele>453.0</ele><time>2026-04-17T08:35:45Z</time></trkpt><trkpt lat="48.3431637392087" lon="11.681399857669586"><ele>453.0</ele><time>2026-04-17T08:35:46Z</time></trkpt><trkpt lat="48.34308284559019" lon="11.681433526749823"><ele>453.0</ele><time>2026-04-17T08:35:47Z</time></trkpt><trkpt lat="48.343002931931885" lon="11.681467869050676"><ele>453.0</ele><time>2026-04-17T08:35:48Z</time></trkpt><trkpt lat="48.34292432998261" lon="11.681502858178991"><ele>453.0</ele><time>2026-04-17T08:35:49Z</time></trkpt><trkpt lat="48.34284346463545" lon="11.6815388548383"><ele>453.0</ele><time>2026-04-17T08:35:50Z</time></trkpt><trkpt lat="48.342770513390505" lon="11.681571328579905"><ele>453.3333333333333</ele><time>2026-04-17T08:35:51Z</time></trkpt><trkpt lat="48.3427065416165" lon="11.681599757797136"><ele>453.66666666666663</ele><time>2026-04-17T08:35:52Z</time></trkpt><trkpt lat="48.342640374620125" lon="11.681629091558637"><ele>454.0</ele><time>2026-04-17T08:35:53Z</time></trkpt><trkpt lat="48.34256833231491" lon="11.681661030063655"><ele>454.3333333333333</ele><time>2026-04-17T08:35:54Z</time></trkpt><trkpt lat="48.34248206738803" lon="11.681699044285622"><ele>454.66666666666663</ele><time>2026-04-17T08:35:55Z</time></trkpt><trkpt lat="48.34239090226947" lon="11.681739503107924"><ele>455.0</ele><time>2026-04-17T08:35:56Z</time></trkpt><trkpt lat="48.34229961673167" lon="11.681780478853002"><ele>455.0</ele><time>2026-04-17T08:35:57Z</time></trkpt><trkpt lat="48.342206308283814" lon="11.681825713004782"><ele>455.0</ele><time>2026-04-17T08:35:58Z</time></trkpt><trkpt lat="48.34212396204436" lon="11.681925425639893"><ele>455.0</ele><time>2026-04-17T08:35:59Z</time></trkpt><trkpt lat="48.3420233947938" lon="11.68198221219387"><ele>455.0</ele><time>2026-04-17T08:36:00Z</time></trkpt><trkpt lat="48.34190604955395" lon="11.682047175153063"><ele>455.0</ele><time>2026-04-17T08:36:01Z</time></trkpt><trkpt lat="48.34178398552367" lon="11.682121837567982"><ele>455.0</ele><time>2026-04-17T08:36:02Z</time></trkpt><trkpt lat="48.341670389509" lon="11.682188271079117"><ele>455.0</ele><time>2026-04-17T08:36:03Z</time></trkpt><trkpt lat="48.341555840198275" lon="11.682254877707564"><ele>455.0</ele><time>2026-04-17T08:36:04Z</time></trkpt><trkpt lat="48.34143910152904" lon="11.682324935706754"><ele>455.0</ele><time>2026-04-17T08:36:05Z</time></trkpt><trkpt lat="48.34132716506681" lon="11.682400212394914"><ele>455.25</ele><time>2026-04-17T08:36:06Z</time></trkpt><trkpt lat="48.341219301754855" lon="11.682474211026838"><ele>455.5</ele><time>2026-04-17T08:36:07Z</time></trkpt><trkpt lat="48.3410940879019" lon="11.68248059900812"><ele>455.75</ele><time>2026-04-17T08:36:08Z</time></trkpt><trkpt lat="48.34098868886137" lon="11.682551298506587"><ele>456.0</ele><time>2026-04-17T08:36:09Z</time></trkpt><trkpt lat="48.34088394649635" lon="11.682624084100112"><ele>456.0</ele><time>2026-04-17T08:36:10Z</time></trkpt><trkpt lat="48.340776282346816" lon="11.682704434738767"><ele>456.0</ele><time>2026-04-17T08:36:11Z</time></trkpt><trkpt lat="48.34067443189898" lon="11.682784453636176"><ele>456.0</ele><time>2026-04-17T08:36:12Z</time></trkpt><trkpt lat="48.340572504179555" lon="11.682865488419258"><ele>456.0</ele><time>2026-04-17T08:36:13Z</time></trkpt><trkpt lat="48.34047149972759" lon="11.68294661584941"><ele>455.75</ele><time>2026-04-17T08:36:14Z</time></trkpt><trkpt lat="48.34036664183205" lon="11.683030404541876"><ele>455.5</ele><time>2026-04-17T08:36:15Z</time></trkpt><trkpt lat="48.340257874327605" lon="11.683116491293266"><ele>455.25</ele><time>2026-04-17T08:36:16Z</time></trkpt><trkpt lat="48.34015035474293" lon="11.683200331387326"><ele>455.0</ele><time>2026-04-17T08:36:17Z</time></trkpt><trkpt lat="48.340051452603184" lon="11.683276951053768"><ele>455.0</ele><time>2026-04-17T08:36:18Z</time></trkpt><trkpt lat="48.339951122558176" lon="11.683358110929849"><ele>455.0</ele><time>2026-04-17T08:36:19Z</time></trkpt><trkpt lat="48.3398520768494" lon="11.68344125962691"><ele>455.0</ele><time>2026-04-17T08:36:20Z</time></trkpt><trkpt lat="48.339752670767304" lon="11.683514830853616"><ele>455.0</ele><time>2026-04-17T08:36:21Z</time></trkpt><trkpt lat="48.339644368459176" lon="11.683580459795268"><ele>454.5</ele><time>2026-04-17T08:36:22Z</time></trkpt><trkpt lat="48.339531006800264" lon="11.683641434568308"><ele>454.0</ele><time>2026-04-17T08:36:23Z</time></trkpt><trkpt lat="48.3394173731179" lon="11.683691693350056"><ele>453.5</ele><time>2026-04-17T08:36:24Z</time></trkpt><trkpt lat="48.339301870743505" lon="11.683748178376598"><ele>453.0</ele><time>2026-04-17T08:36:25Z</time></trkpt><trkpt lat="48.339181966441124" lon="11.683760635690913"><ele>453.0</ele><time>2026-04-17T08:36:26Z</time></trkpt><trkpt lat="48.33906502263034" lon="11.683761751269483"><ele>453.0</ele><time>2026-04-17T08:36:27Z</time></trkpt><trkpt lat="48.338948120544735" lon="11.68375007799658"><ele>453.0</ele><time>2026-04-17T08:36:28Z</time></trkpt><trkpt lat="48.33883234869537" lon="11.683723584473517"><ele>453.0</ele><time>2026-04-17T08:36:29Z</time></trkpt><trkpt lat="48.338716817635266" lon="11.683684943696047"><ele>452.75</ele><time>2026-04-17T08:36:30Z</time></trkpt><trkpt lat="48.33860187803469" lon="11.683639185444694"><ele>452.5</ele><time>2026-04-17T08:36:31Z</time></trkpt><trkpt lat="48.33848531963677" lon="11.68359539730845"><ele>452.25</ele><time>2026-04-17T08:36:32Z</time></trkpt><trkpt lat="48.33836962653552" lon="11.683549763590138"><ele>452.0</ele><time>2026-04-17T08:36:33Z</time></trkpt><trkpt lat="48.338262541579645" lon="11.68350268749289"><ele>452.40000000000003</ele><time>2026-04-17T08:36:34Z</time></trkpt><trkpt lat="48.33816621136389" lon="11.683461604056289"><ele>452.80000000000007</ele><time>2026-04-17T08:36:35Z</time></trkpt><trkpt lat="48.33807574747925" lon="11.683421223293221"><ele>453.2</ele><time>2026-04-17T08:36:36Z</time></trkpt><trkpt lat="48.337991851999035" lon="11.683384227894702"><ele>453.6</ele><time>2026-04-17T08:36:37Z</time></trkpt><trkpt lat="48.3379209673854" lon="11.683353156241271"><ele>454.0</ele><time>2026-04-17T08:36:38Z</time></trkpt><trkpt lat="48.33780671336976" lon="11.683296365427188"><ele>454.2</ele><time>2026-04-17T08:36:40Z</time></trkpt><trkpt lat="48.337711806576216" lon="11.683220366583551"><ele>454.4</ele><time>2026-04-17T08:36:42Z</time></trkpt><trkpt lat="48.33765053425773" lon="11.683108646670801"><ele>454.6</ele><time>2026-04-17T08:36:44Z</time></trkpt><trkpt lat="48.337683908080486" lon="11.682915733531889"><ele>454.8</ele><time>2026-04-17T08:36:46Z</time></trkpt><trkpt lat="48.337727419963784" lon="11.682811151234384"><ele>455.0</ele><time>2026-04-17T08:36:47Z</time></trkpt><trkpt lat="48.33777205292576" lon="11.68270291120543"><ele>455.16666666666663</ele><time>2026-04-17T08:36:48Z</time></trkpt><trkpt lat="48.337815422038254" lon="11.682605140871516"><ele>455.3333333333333</ele><time>2026-04-17T08:36:49Z</time></trkpt><trkpt lat="48.33786272682042" lon="11.682505800352384"><ele>455.5</ele><time>2026-04-17T08:36:50Z</time></trkpt><trkpt lat="48.33791105609495" lon="11.68240652281527"><ele>455.66666666666663</ele><time>2026-04-17T08:36:51Z</time></trkpt><trkpt lat="48.33795585701739" lon="11.68231587232749"><ele>455.8333333333333</ele><time>2026-04-17T08:36:52Z</time></trkpt><trkpt lat="48.33799915736995" lon="11.682229973779899"><ele>456.0</ele><time>2026-04-17T08:36:53Z</time></trkpt><trkpt lat="48.338044212136005" lon="11.682140344314174"><ele>455.6666666666667</ele><time>2026-04-17T08:36:54Z</time></trkpt><trkpt lat="48.338090505624315" lon="11.682046797959577"><ele>455.33333333333337</ele><time>2026-04-17T08:36:55Z</time></trkpt><trkpt lat="48.338138024589604" lon="11.681949786804994"><ele>455.0</ele><time>2026-04-17T08:36:56Z</time></trkpt><trkpt lat="48.33818375500755" lon="11.681854366872551"><ele>454.6666666666667</ele><time>2026-04-17T08:36:57Z</time></trkpt><trkpt lat="48.33822429715497" lon="11.681767552622455"><ele>454.33333333333337</ele><time>2026-04-17T08:36:58Z</time></trkpt><trkpt lat="48.338262475364324" lon="11.681688743076368"><ele>454.0</ele><time>2026-04-17T08:36:59Z</time></trkpt><trkpt lat="48.33833405259401" lon="11.681545603020393"><ele>454.0</ele><time>2026-04-17T08:37:01Z</time></trkpt><trkpt lat="48.33840212042166" lon="11.681410078084374"><ele>454.0</ele><time>2026-04-17T08:37:03Z</time></trkpt><trkpt lat="48.338435513852886" lon="11.681247170152778"><ele>454.0</ele><time>2026-04-17T08:37:05Z</time></trkpt><trkpt lat="48.33841378268738" lon="11.68114642528805"><ele>454.0</ele><time>2026-04-17T08:37:06Z</time></trkpt><trkpt lat="48.33838184526751" lon="11.681038549316915"><ele>454.0</ele><time>2026-04-17T08:37:07Z</time></trkpt><trkpt lat="48.338314047329355" lon="11.680962409206682"><ele>454.0</ele><time>2026-04-17T08:37:08Z</time></trkpt><trkpt lat="48.33825224404442" lon="11.680892979728227"><ele>454.0</ele><time>2026-04-17T08:37:09Z</time></trkpt><trkpt lat="48.33818851266484" lon="11.680825620369616"><ele>454.0</ele><time>2026-04-17T08:37:10Z</time></trkpt><trkpt lat="48.33810850884014" lon="11.6807396358225"><ele>454.0</ele><time>2026-04-17T08:37:11Z</time></trkpt><trkpt lat="48.337987071452346" lon="11.680607164276838"><ele>454.0</ele><time>2026-04-17T08:37:12Z</time></trkpt><trkpt lat="48.33787041502665" lon="11.680481219730693"><ele>454.0</ele><time>2026-04-17T08:37:13Z</time></trkpt><trkpt lat="48.337784852669095" lon="11.680402565971603"><ele>454.0</ele><time>2026-04-17T08:37:14Z</time></trkpt><trkpt lat="48.33770935293904" lon="11.680322500379786"><ele>454.0</ele><time>2026-04-17T08:37:15Z</time></trkpt><trkpt lat="48.337614179657265" lon="11.680220572052303"><ele>454.0</ele><time>2026-04-17T08:37:16Z</time></trkpt><trkpt lat="48.337522085634205" lon="11.680123308637022"><ele>454.0</ele><time>2026-04-17T08:37:17Z</time></trkpt><trkpt lat="48.33740510978372" lon="11.68001560653382"><ele>453.75</ele><time>2026-04-17T08:37:18Z</time></trkpt><trkpt lat="48.33727468267866" lon="11.679882362474698"><ele>453.5</ele><time>2026-04-17T08:37:19Z</time></trkpt><trkpt lat="48.33715924690741" lon="11.679753472383926"><ele>453.25</ele><time>2026-04-17T08:37:20Z</time></trkpt><trkpt lat="48.33704351172991" lon="11.679636650017487"><ele>453.0</ele><time>2026-04-17T08:37:21Z</time></trkpt><trkpt lat="48.3369335857827" lon="11.679507336011845"><ele>453.0</ele><time>2026-04-17T08:37:22Z</time></trkpt><trkpt lat="48.336813867506926" lon="11.679391032937476"><ele>453.0</ele><time>2026-04-17T08:37:23Z</time></trkpt><trkpt lat="48.33670037721165" lon="11.679271810627682"><ele>453.0</ele><time>2026-04-17T08:37:24Z</time></trkpt><trkpt lat="48.336589038568256" lon="11.679153791480932"><ele>453.0</ele><time>2026-04-17T08:37:25Z</time></trkpt><trkpt lat="48.3364703608215" lon="11.67902314843885"><ele>453.0</ele><time>2026-04-17T08:37:26Z</time></trkpt><trkpt lat="48.33635887518742" lon="11.678899444269547"><ele>453.0</ele><time>2026-04-17T08:37:27Z</time></trkpt><trkpt lat="48.336232455344174" lon="11.678759901001037"><ele>453.0</ele><time>2026-04-17T08:37:28Z</time></trkpt><trkpt lat="48.3361221061427" lon="11.678640241458858"><ele>453.0</ele><time>2026-04-17T08:37:29Z</time></trkpt><trkpt lat="48.3360236114581" lon="11.678528868116215"><ele>453.25</ele><time>2026-04-17T08:37:30Z</time></trkpt><trkpt lat="48.33593387575211" lon="11.678430904852585"><ele>453.5</ele><time>2026-04-17T08:37:31Z</time></trkpt><trkpt lat="48.33584613991262" lon="11.678334177054564"><ele>453.75</ele><time>2026-04-17T08:37:32Z</time></trkpt><trkpt lat="48.3357587416158" lon="11.678237063452265"><ele>454.0</ele><time>2026-04-17T08:37:33Z</time></trkpt><trkpt lat="48.335659662833024" lon="11.678121669019802"><ele>454.0</ele><time>2026-04-17T08:37:34Z</time></trkpt><trkpt lat="48.335565732378825" lon="11.678020590555159"><ele>454.0</ele><time>2026-04-17T08:37:35Z</time></trkpt><trkpt lat="48.33548484426582" lon="11.67792638503792"><ele>454.0</ele><time>2026-04-17T08:37:36Z</time></trkpt><trkpt lat="48.3354108977504" lon="11.677846443011335"><ele>454.0</ele><time>2026-04-17T08:37:37Z</time></trkpt><trkpt lat="48.33535398482278" lon="11.677749211225132"><ele>454.0</ele><time>2026-04-17T08:37:38Z</time></trkpt><trkpt lat="48.33527488609545" lon="11.677686153001932"><ele>454.25</ele><time>2026-04-17T08:37:39Z</time></trkpt><trkpt lat="48.335195783704215" lon="11.677594635095046"><ele>454.5</ele><time>2026-04-17T08:37:40Z</time></trkpt><trkpt lat="48.335110131391424" lon="11.677486186087709"><ele>454.75</ele><time>2026-04-17T08:37:41Z</time></trkpt><trkpt lat="48.335008199757375" lon="11.67736960956347"><ele>455.0</ele><time>2026-04-17T08:37:42Z</time></trkpt><trkpt lat="48.33489129757608" lon="11.677241984406892"><ele>455.0</ele><time>2026-04-17T08:37:43Z</time></trkpt><trkpt lat="48.33478600062459" lon="11.677128156396012"><ele>455.0</ele><time>2026-04-17T08:37:44Z</time></trkpt><trkpt lat="48.33469076375597" lon="11.677017341106957"><ele>455.0</ele><time>2026-04-17T08:37:45Z</time></trkpt><trkpt lat="48.33459533653426" lon="11.67690872319626"><ele>455.0</ele><time>2026-04-17T08:37:46Z</time></trkpt><trkpt lat="48.334502278722596" lon="11.676800702844083"><ele>455.0</ele><time>2026-04-17T08:37:47Z</time></trkpt><trkpt lat="48.334408097237144" lon="11.676694308381299"><ele>455.0</ele><time>2026-04-17T08:37:48Z</time></trkpt><trkpt lat="48.33430907699637" lon="11.676592496722037"><ele>455.0</ele><time>2026-04-17T08:37:49Z</time></trkpt><trkpt lat="48.33421171919998" lon="11.676471196656337"><ele>455.0</ele><time>2026-04-17T08:37:50Z</time></trkpt><trkpt lat="48.33410102171011" lon="11.67636166488707"><ele>455.0</ele><time>2026-04-17T08:37:51Z</time></trkpt><trkpt lat="48.333990591234084" lon="11.67625058289243"><ele>455.0</ele><time>2026-04-17T08:37:52Z</time></trkpt><trkpt lat="48.33389268554434" lon="11.676141127326762"><ele>455.0</ele><time>2026-04-17T08:37:53Z</time></trkpt><trkpt lat="48.33380278062477" lon="11.676040468571255"><ele>455.0</ele><time>2026-04-17T08:37:54Z</time></trkpt><trkpt lat="48.33371079294838" lon="11.67594058160786"><ele>455.5</ele><time>2026-04-17T08:37:55Z</time></trkpt><trkpt lat="48.333612350523865" lon="11.67583670382581"><ele>456.0</ele><time>2026-04-17T08:37:56Z</time></trkpt><trkpt lat="48.33349554922291" lon="11.675715241566971"><ele>456.5</ele><time>2026-04-17T08:37:57Z</time></trkpt><trkpt lat="48.33339185544579" lon="11.675608553704821"><ele>457.0</ele><time>2026-04-17T08:37:58Z</time></trkpt><trkpt lat="48.333293275463724" lon="11.675503819943959"><ele>457.0</ele><time>2026-04-17T08:37:59Z</time></trkpt><trkpt lat="48.33319584090085" lon="11.67539848515395"><ele>457.0</ele><time>2026-04-17T08:38:00Z</time></trkpt><trkpt lat="48.33309964635192" lon="11.67529164775267"><ele>457.0</ele><time>2026-04-17T08:38:01Z</time></trkpt><trkpt lat="48.333006298056695" lon="11.675184678106756"><ele>457.0</ele><time>2026-04-17T08:38:02Z</time></trkpt><trkpt lat="48.33291912866292" lon="11.675085495907622"><ele>457.40000000000003</ele><time>2026-04-17T08:38:03Z</time></trkpt><trkpt lat="48.33283651312054" lon="11.67499242799552"><ele>457.80000000000007</ele><time>2026-04-17T08:38:04Z</time></trkpt><trkpt lat="48.33276172797857" lon="11.674904920555369"><ele>458.2</ele><time>2026-04-17T08:38:05Z</time></trkpt><trkpt lat="48.33269724849668" lon="11.674824831651318"><ele>458.6</ele><time>2026-04-17T08:38:06Z</time></trkpt><trkpt lat="48.33264354499234" lon="11.674762697382413"><ele>459.0</ele><time>2026-04-17T08:38:07Z</time></trkpt><trkpt lat="48.33254522368288" lon="11.674641783659782"><ele>459.0</ele><time>2026-04-17T08:38:09Z</time></trkpt><trkpt lat="48.33249500357428" lon="11.674568101495385"><ele>459.0</ele><time>2026-04-17T08:38:10Z</time></trkpt><trkpt lat="48.33242466048913" lon="11.67454702401152"><ele>459.0</ele><time>2026-04-17T08:38:11Z</time></trkpt><trkpt lat="48.332353935090204" lon="11.674530198489519"><ele>459.0</ele><time>2026-04-17T08:38:12Z</time></trkpt><trkpt lat="48.33229792834698" lon="11.674641960890613"><ele>459.0</ele><time>2026-04-17T08:38:14Z</time></trkpt><trkpt lat="48.33229664421482" lon="11.674764266747564"><ele>459.0</ele><time>2026-04-17T08:38:15Z</time></trkpt><trkpt lat="48.332308499170075" lon="11.674877346866252"><ele>459.0</ele><time>2026-04-17T08:38:16Z</time></trkpt><trkpt lat="48.33231782462855" lon="11.675014646673224"><ele>459.0</ele><time>2026-04-17T08:38:17Z</time></trkpt><trkpt lat="48.332326309037086" lon="11.675182508602223"><ele>459.0</ele><time>2026-04-17T08:38:18Z</time></trkpt><trkpt lat="48.33233434130314" lon="11.675341424970414"><ele>459.0</ele><time>2026-04-17T08:38:19Z</time></trkpt><trkpt lat="48.33234329767619" lon="11.67550024052792"><ele>459.0</ele><time>2026-04-17T08:38:20Z</time></trkpt><trkpt lat="48.3323666443085" lon="11.675667392213514"><ele>459.2</ele><time>2026-04-17T08:38:21Z</time></trkpt><trkpt lat="48.33237589792952" lon="11.675838352416536"><ele>459.4</ele><time>2026-04-17T08:38:22Z</time></trkpt><trkpt lat="48.33238812460187" lon="11.67599203046123"><ele>459.6</ele><time>2026-04-17T08:38:23Z</time></trkpt><trkpt lat="48.3323810253019" lon="11.676137865874615"><ele>459.8</ele><time>2026-04-17T08:38:24Z</time></trkpt><trkpt lat="48.33240509985773" lon="11.676274939972334"><ele>460.0</ele><time>2026-04-17T08:38:25Z</time></trkpt><trkpt lat="48.33241099519186" lon="11.676406451117831"><ele>460.00000000000006</ele><time>2026-04-17T08:38:26Z</time></trkpt><trkpt lat="48.3324151811682" lon="11.676534485298609"><ele>460.0</ele><time>2026-04-17T08:38:27Z</time></trkpt><trkpt lat="48.33242148005885" lon="11.676658649174978"><ele>460.0</ele><time>2026-04-17T08:38:28Z</time></trkpt><trkpt lat="48.33242752681105" lon="11.676783225113049"><ele>460.0</ele><time>2026-04-17T08:38:29Z</time></trkpt><trkpt lat="48.33243608613095" lon="11.676909320916293"><ele>460.00000000000006</ele><time>2026-04-17T08:38:30Z</time></trkpt><trkpt lat="48.332445863590884" lon="11.677044347272252"><ele>460.0</ele><time>2026-04-17T08:38:31Z</time></trkpt><trkpt lat="48.332451562821035" lon="11.6771873836175"><ele>460.00000000000006</ele><time>2026-04-17T08:38:32Z</time></trkpt><trkpt lat="48.33245243098904" lon="11.677329036917092"><ele>460.0</ele><time>2026-04-17T08:38:33Z</time></trkpt><trkpt lat="48.33245060444513" lon="11.677438948694729"><ele>460.0</ele><time>2026-04-17T08:38:34Z</time></trkpt><trkpt lat="48.33243636288846" lon="11.677532880175862"><ele>460.0</ele><time>2026-04-17T08:38:35Z</time></trkpt><trkpt lat="48.332399820640504" lon="11.67761542783258"><ele>460.00000000000006</ele><time>2026-04-17T08:38:36Z</time></trkpt><trkpt lat="48.33233704705153" lon="11.677649120808264"><ele>460.0</ele><time>2026-04-17T08:38:37Z</time></trkpt><trkpt lat="48.332216960286445" lon="11.677705108190318"><ele>459.2</ele><time>2026-04-17T08:38:39Z</time></trkpt><trkpt lat="48.33212906717928" lon="11.677737397661808"><ele>458.4</ele><time>2026-04-17T08:38:41Z</time></trkpt><trkpt lat="48.332053202489355" lon="11.677795664375799"><ele>457.6</ele><time>2026-04-17T08:38:43Z</time></trkpt><trkpt lat="48.33203391647853" lon="11.677927894029004"><ele>456.8</ele><time>2026-04-17T08:38:45Z</time></trkpt><trkpt lat="48.332059278729055" lon="11.678065785923907"><ele>456.0</ele><time>2026-04-17T08:38:47Z</time></trkpt><trkpt lat="48.332082892946175" lon="11.678210532016438"><ele>456.0</ele><time>2026-04-17T08:38:49Z</time></trkpt><trkpt lat="48.33211566105596" lon="11.67834708535316"><ele>456.0</ele><time>2026-04-17T08:38:51Z</time></trkpt><trkpt lat="48.332141764798926" lon="11.678465519733255"><ele>456.0</ele><time>2026-04-17T08:38:53Z</time></trkpt><trkpt lat="48.3321581929444" lon="11.678592411694526"><ele>456.0</ele><time>2026-04-17T08:38:55Z</time></trkpt><trkpt lat="48.332183162320135" lon="11.678749785302674"><ele>456.0</ele><time>2026-04-17T08:38:57Z</time></trkpt><trkpt lat="48.33221708059072" lon="11.67893335038453"><ele>456.5</ele><time>2026-04-17T08:38:59Z</time></trkpt><trkpt lat="48.33223520897473" lon="11.679041290861012"><ele>457.0</ele><time>2026-04-17T08:39:00Z</time></trkpt><trkpt lat="48.332248012463204" lon="11.679147087369422"><ele>457.5</ele><time>2026-04-17T08:39:01Z</time></trkpt><trkpt lat="48.3322561640154" lon="11.679288877115749"><ele>458.0</ele><time>2026-04-17T08:39:03Z</time></trkpt><trkpt lat="48.332264846957266" lon="11.679393137697604"><ele>458.5</ele><time>2026-04-17T08:39:04Z</time></trkpt><trkpt lat="48.33227454011712" lon="11.67952880198911"><ele>459.0</ele><time>2026-04-17T08:39:05Z</time></trkpt><trkpt lat="48.33228721284241" lon="11.679676805348498"><ele>459.0</ele><time>2026-04-17T08:39:06Z</time></trkpt><trkpt lat="48.33229948735843" lon="11.679812844551533"><ele>459.0</ele><time>2026-04-17T08:39:07Z</time></trkpt><trkpt lat="48.33230457295043" lon="11.679952573122577"><ele>459.0</ele><time>2026-04-17T08:39:08Z</time></trkpt><trkpt lat="48.3323134160288" lon="11.680102826307833"><ele>459.0</ele><time>2026-04-17T08:39:09Z</time></trkpt><trkpt lat="48.33231867927243" lon="11.680263242332053"><ele>459.0</ele><time>2026-04-17T08:39:10Z</time></trkpt><trkpt lat="48.3323240106922" lon="11.680416075250019"><ele>458.6</ele><time>2026-04-17T08:39:11Z</time></trkpt><trkpt lat="48.33232903936911" lon="11.680554737921144"><ele>458.2</ele><time>2026-04-17T08:39:12Z</time></trkpt><trkpt lat="48.33233459634907" lon="11.680689682563978"><ele>457.80000000000007</ele><time>2026-04-17T08:39:13Z</time></trkpt><trkpt lat="48.33234034866988" lon="11.680823553213353"><ele>457.40000000000003</ele><time>2026-04-17T08:39:14Z</time></trkpt><trkpt lat="48.33232476404084" lon="11.680960688871709"><ele>457.0</ele><time>2026-04-17T08:39:15Z</time></trkpt><trkpt lat="48.33232476404087" lon="11.681100711436097"><ele>457.00000000000006</ele><time>2026-04-17T08:39:16Z</time></trkpt><trkpt lat="48.33232386019431" lon="11.681238490502754"><ele>457.0</ele><time>2026-04-17T08:39:17Z</time></trkpt><trkpt lat="48.33232229818607" lon="11.681372094185953"><ele>457.0</ele><time>2026-04-17T08:39:18Z</time></trkpt><trkpt lat="48.332320798784465" lon="11.681500343038335"><ele>457.0</ele><time>2026-04-17T08:39:19Z</time></trkpt><trkpt lat="48.33233171453222" lon="11.681631017304689"><ele>457.00000000000006</ele><time>2026-04-17T08:39:20Z</time></trkpt><trkpt lat="48.33232513988585" lon="11.681764314136975"><ele>457.0</ele><time>2026-04-17T08:39:21Z</time></trkpt><trkpt lat="48.332320089026496" lon="11.681901532388835"><ele>457.0</ele><time>2026-04-17T08:39:22Z</time></trkpt><trkpt lat="48.33231664893609" lon="11.68204372719723"><ele>457.00000000000006</ele><time>2026-04-17T08:39:23Z</time></trkpt><trkpt lat="48.332314359619424" lon="11.68218945234714"><ele>457.00000000000006</ele><time>2026-04-17T08:39:24Z</time></trkpt><trkpt lat="48.33231068139897" lon="11.682339705143058"><ele>457.0</ele><time>2026-04-17T08:39:25Z</time></trkpt><trkpt lat="48.332305191730235" lon="11.682486093361122"><ele>457.0</ele><time>2026-04-17T08:39:26Z</time></trkpt><trkpt lat="48.33230149884791" lon="11.682638862696859"><ele>457.0</ele><time>2026-04-17T08:39:27Z</time></trkpt><trkpt lat="48.33229683891232" lon="11.682808318004255"><ele>457.0</ele><time>2026-04-17T08:39:28Z</time></trkpt><trkpt lat="48.3322987230918" lon="11.683001981363667"><ele>457.0</ele><time>2026-04-17T08:39:29Z</time></trkpt><trkpt lat="48.332270144216814" lon="11.683197414813323"><ele>457.0</ele><time>2026-04-17T08:39:30Z</time></trkpt><trkpt lat="48.332236077001944" lon="11.683411208007634"><ele>457.75</ele><time>2026-04-17T08:39:31Z</time></trkpt><trkpt lat="48.33218486513511" lon="11.683619095436342"><ele>458.5</ele><time>2026-04-17T08:39:32Z</time></trkpt><trkpt lat="48.33213299328053" lon="11.683796589077886"><ele>459.25</ele><time>2026-04-17T08:39:33Z</time></trkpt><trkpt lat="48.33206496566762" lon="11.683923379145357"><ele>460.0</ele><time>2026-04-17T08:39:34Z</time></trkpt><trkpt lat="48.33198678194042" lon="11.684055965700727"><ele>460.0</ele><time>2026-04-17T08:39:35Z</time></trkpt><trkpt lat="48.331875736514704" lon="11.684200971188568"><ele>460.0</ele><time>2026-04-17T08:39:36Z</time></trkpt><trkpt lat="48.33174008746207" lon="11.684343905396759"><ele>460.0</ele><time>2026-04-17T08:39:37Z</time></trkpt><trkpt lat="48.33159562301447" lon="11.684454701164274"><ele>459.6666666666667</ele><time>2026-04-17T08:39:38Z</time></trkpt><trkpt lat="48.33145941027333" lon="11.684537910059031"><ele>459.33333333333337</ele><time>2026-04-17T08:39:39Z</time></trkpt><trkpt lat="48.33131862523016" lon="11.684617474578971"><ele>459.0</ele><time>2026-04-17T08:39:40Z</time></trkpt><trkpt lat="48.33116740775905" lon="11.684705583590082"><ele>458.33333333333337</ele><time>2026-04-17T08:39:41Z</time></trkpt><trkpt lat="48.33101082757212" lon="11.684797261695037"><ele>457.6666666666667</ele><time>2026-04-17T08:39:42Z</time></trkpt><trkpt lat="48.33086160982093" lon="11.684909021310945"><ele>457.0</ele><time>2026-04-17T08:39:43Z</time></trkpt><trkpt lat="48.33069991085738" lon="11.684975029795105"><ele>456.6666666666667</ele><time>2026-04-17T08:39:44Z</time></trkpt><trkpt lat="48.33054564822176" lon="11.68506244796555"><ele>456.33333333333337</ele><time>2026-04-17T08:39:45Z</time></trkpt><trkpt lat="48.330394469295854" lon="11.685147963924894"><ele>456.0</ele><time>2026-04-17T08:39:46Z</time></trkpt><trkpt lat="48.33025212379857" lon="11.68522848316373"><ele>456.33333333333337</ele><time>2026-04-17T08:39:47Z</time></trkpt><trkpt lat="48.330117631752664" lon="11.685304891633212"><ele>456.6666666666667</ele><time>2026-04-17T08:39:48Z</time></trkpt><trkpt lat="48.32997918987424" lon="11.685384318151815"><ele>457.0</ele><time>2026-04-17T08:39:49Z</time></trkpt><trkpt lat="48.32983080591306" lon="11.685469448606714"><ele>457.0</ele><time>2026-04-17T08:39:50Z</time></trkpt><trkpt lat="48.32967792365365" lon="11.685557159826025"><ele>457.0</ele><time>2026-04-17T08:39:51Z</time></trkpt><trkpt lat="48.3295293558731" lon="11.68564220907298"><ele>457.0</ele><time>2026-04-17T08:39:52Z</time></trkpt><trkpt lat="48.32938847085233" lon="11.68572299938609"><ele>457.0</ele><time>2026-04-17T08:39:53Z</time></trkpt><trkpt lat="48.3292534998507" lon="11.685803801853885"><ele>457.0</ele><time>2026-04-17T08:39:54Z</time></trkpt><trkpt lat="48.32912285506483" lon="11.685912997700905"><ele>457.0</ele><time>2026-04-17T08:39:55Z</time></trkpt><trkpt lat="48.32897871419273" lon="11.686012371963892"><ele>457.0</ele><time>2026-04-17T08:39:56Z</time></trkpt><trkpt lat="48.32884134894274" lon="11.686113323553828"><ele>457.0</ele><time>2026-04-17T08:39:57Z</time></trkpt><trkpt lat="48.328703149301404" lon="11.686196274039125"><ele>457.0</ele><time>2026-04-17T08:39:58Z</time></trkpt><trkpt lat="48.32857399738057" lon="11.68629806262381"><ele>457.0</ele><time>2026-04-17T08:39:59Z</time></trkpt><trkpt lat="48.328442937372905" lon="11.686395789345658"><ele>457.0</ele><time>2026-04-17T08:40:00Z</time></trkpt><trkpt lat="48.32830448826613" lon="11.686492733014692"><ele>457.0</ele><time>2026-04-17T08:40:01Z</time></trkpt><trkpt lat="48.328166124775805" lon="11.686605964086993"><ele>457.0</ele><time>2026-04-17T08:40:02Z</time></trkpt><trkpt lat="48.328029178846556" lon="11.686680989861589"><ele>456.8</ele><time>2026-04-17T08:40:03Z</time></trkpt><trkpt lat="48.32791183652236" lon="11.686744025381829"><ele>456.6</ele><time>2026-04-17T08:40:04Z</time></trkpt><trkpt lat="48.32780857336215" lon="11.686798065002012"><ele>456.40000000000003</ele><time>2026-04-17T08:40:05Z</time></trkpt><trkpt lat="48.327716704945374" lon="11.686844535901963"><ele>456.20000000000005</ele><time>2026-04-17T08:40:06Z</time></trkpt><trkpt lat="48.32762479496033" lon="11.686863710809563"><ele>456.0</ele><time>2026-04-17T08:40:07Z</time></trkpt><trkpt lat="48.327560524365865" lon="11.686916517557592"><ele>456.0</ele><time>2026-04-17T08:40:08Z</time></trkpt><trkpt lat="48.32748870093328" lon="11.68694293215298"><ele>456.0</ele><time>2026-04-17T08:40:09Z</time></trkpt><trkpt lat="48.32741439950203" lon="11.68697710577167"><ele>456.0</ele><time>2026-04-17T08:40:10Z</time></trkpt><trkpt lat="48.32735180978781" lon="11.687002513911938"><ele>456.0</ele><time>2026-04-17T08:40:11Z</time></trkpt><trkpt lat="48.32722804014547" lon="11.687026712254488"><ele>456.0</ele><time>2026-04-17T08:40:13Z</time></trkpt><trkpt lat="48.32715525555543" lon="11.68705036535338"><ele>456.0</ele><time>2026-04-17T08:40:14Z</time></trkpt><trkpt lat="48.32708273271475" lon="11.687073302420693"><ele>456.25</ele><time>2026-04-17T08:40:15Z</time></trkpt><trkpt lat="48.326986149367066" lon="11.68711410164772"><ele>456.5</ele><time>2026-04-17T08:40:16Z</time></trkpt><trkpt lat="48.32689418882381" lon="11.687137284426043"><ele>456.75</ele><time>2026-04-17T08:40:17Z</time></trkpt><trkpt lat="48.326785600397265" lon="11.68716935800838"><ele>457.0</ele><time>2026-04-17T08:40:18Z</time></trkpt><trkpt lat="48.326638763062654" lon="11.687207637871168"><ele>457.0</ele><time>2026-04-17T08:40:19Z</time></trkpt><trkpt lat="48.326502832322355" lon="11.687240983426046"><ele>457.0</ele><time>2026-04-17T08:40:20Z</time></trkpt><trkpt lat="48.326360471437475" lon="11.687270779755258"><ele>457.0</ele><time>2026-04-17T08:40:21Z</time></trkpt><trkpt lat="48.32622151885424" lon="11.687296931585426"><ele>457.0</ele><time>2026-04-17T08:40:22Z</time></trkpt><trkpt lat="48.32609613846237" lon="11.68732043235315"><ele>456.75</ele><time>2026-04-17T08:40:23Z</time></trkpt><trkpt lat="48.325964808905034" lon="11.687344483430584"><ele>456.5</ele><time>2026-04-17T08:40:24Z</time></trkpt><trkpt lat="48.32584118308476" lon="11.687365749847084"><ele>456.25</ele><time>2026-04-17T08:40:25Z</time></trkpt><trkpt lat="48.325717223052195" lon="11.687395812376625"><ele>456.0</ele><time>2026-04-17T08:40:26Z</time></trkpt><trkpt lat="48.32558834507967" lon="11.687392095438305"><ele>456.0</ele><time>2026-04-17T08:40:27Z</time></trkpt><trkpt lat="48.32546357049079" lon="11.687424054497107"><ele>456.0</ele><time>2026-04-17T08:40:28Z</time></trkpt><trkpt lat="48.325335685655126" lon="11.687435666325792"><ele>456.0</ele><time>2026-04-17T08:40:29Z</time></trkpt><trkpt lat="48.32521293133044" lon="11.687445710993991"><ele>456.0</ele><time>2026-04-17T08:40:30Z</time></trkpt><trkpt lat="48.32509472631755" lon="11.687460058308384"><ele>456.0</ele><time>2026-04-17T08:40:31Z</time></trkpt><trkpt lat="48.32497207091069" lon="11.68747231617441"><ele>456.0</ele><time>2026-04-17T08:40:32Z</time></trkpt><trkpt lat="48.324836146474404" lon="11.687480827369583"><ele>456.0</ele><time>2026-04-17T08:40:33Z</time></trkpt><trkpt lat="48.324687019183735" lon="11.687487786750454"><ele>456.0</ele><time>2026-04-17T08:40:34Z</time></trkpt><trkpt lat="48.324540167926756" lon="11.687492200554773"><ele>456.5</ele><time>2026-04-17T08:40:35Z</time></trkpt><trkpt lat="48.32441137377561" lon="11.68748789943618"><ele>457.0</ele><time>2026-04-17T08:40:36Z</time></trkpt><trkpt lat="48.3242811559776" lon="11.68748213601527"><ele>457.5</ele><time>2026-04-17T08:40:37Z</time></trkpt><trkpt lat="48.324150846145116" lon="11.687475431297743"><ele>458.0</ele><time>2026-04-17T08:40:38Z</time></trkpt><trkpt lat="48.32402015842944" lon="11.687466298212154"><ele>458.0</ele><time>2026-04-17T08:40:39Z</time></trkpt><trkpt lat="48.3238870171482" lon="11.687449889374872"><ele>458.0</ele><time>2026-04-17T08:40:40Z</time></trkpt><trkpt lat="48.32375871060759" lon="11.687431082146974"><ele>458.0</ele><time>2026-04-17T08:40:41Z</time></trkpt><trkpt lat="48.32363413130633" lon="11.68740997831429"><ele>458.0</ele><time>2026-04-17T08:40:42Z</time></trkpt><trkpt lat="48.32350913518707" lon="11.687387643377692"><ele>458.0</ele><time>2026-04-17T08:40:43Z</time></trkpt><trkpt lat="48.323384580054665" lon="11.687363899561186"><ele>458.0</ele><time>2026-04-17T08:40:44Z</time></trkpt><trkpt lat="48.323261633099186" lon="11.687334760963887"><ele>458.0</ele><time>2026-04-17T08:40:45Z</time></trkpt><trkpt lat="48.323150541426934" lon="11.687305992321553"><ele>458.0</ele><time>2026-04-17T08:40:46Z</time></trkpt><trkpt lat="48.32305228152481" lon="11.687279809051255"><ele>458.2</ele><time>2026-04-17T08:40:47Z</time></trkpt><trkpt lat="48.32296162899615" lon="11.687254350536888"><ele>458.4</ele><time>2026-04-17T08:40:48Z</time></trkpt><trkpt lat="48.32287009923281" lon="11.687229006022456"><ele>458.59999999999997</ele><time>2026-04-17T08:40:49Z</time></trkpt><trkpt lat="48.32277806622326" lon="11.687200806025626"><ele>458.79999999999995</ele><time>2026-04-17T08:40:50Z</time></trkpt><trkpt lat="48.322679158641854" lon="11.687162624773617"><ele>459.0</ele><time>2026-04-17T08:40:51Z</time></trkpt><trkpt lat="48.32256993945985" lon="11.687121107317182"><ele>459.0</ele><time>2026-04-17T08:40:52Z</time></trkpt><trkpt lat="48.32246119623439" lon="11.687080228977901"><ele>459.0</ele><time>2026-04-17T08:40:53Z</time></trkpt><trkpt lat="48.32237239539178" lon="11.687045240286121"><ele>459.0</ele><time>2026-04-17T08:40:54Z</time></trkpt><trkpt lat="48.322297988202955" lon="11.687013775430078"><ele>459.0</ele><time>2026-04-17T08:40:55Z</time></trkpt><trkpt lat="48.322220034514636" lon="11.686983984026442"><ele>459.0</ele><time>2026-04-17T08:40:56Z</time></trkpt><trkpt lat="48.32213867342689" lon="11.686952741943243"><ele>459.0</ele><time>2026-04-17T08:40:57Z</time></trkpt><trkpt lat="48.32205057361932" lon="11.68691600790212"><ele>459.4</ele><time>2026-04-17T08:40:58Z</time></trkpt><trkpt lat="48.32195595362299" lon="11.686875365727007"><ele>459.79999999999995</ele><time>2026-04-17T08:40:59Z</time></trkpt><trkpt lat="48.32186120934069" lon="11.686832282872327"><ele>460.20000000000005</ele><time>2026-04-17T08:41:00Z</time></trkpt><trkpt lat="48.32177036299422" lon="11.686793661792855"><ele>460.6</ele><time>2026-04-17T08:41:01Z</time></trkpt><trkpt lat="48.32167824200299" lon="11.68676040191311"><ele>461.0</ele><time>2026-04-17T08:41:02Z</time></trkpt><trkpt lat="48.32158647190303" lon="11.686726665957623"><ele>460.99999999999994</ele><time>2026-04-17T08:41:03Z</time></trkpt><trkpt lat="48.32150217799064" lon="11.68668704127479"><ele>461.0</ele><time>2026-04-17T08:41:04Z</time></trkpt><trkpt lat="48.3214238417463" lon="11.686646227378107"><ele>461.0</ele><time>2026-04-17T08:41:05Z</time></trkpt><trkpt lat="48.321350976863435" lon="11.68660417029387"><ele>461.0</ele><time>2026-04-17T08:41:06Z</time></trkpt><trkpt lat="48.32128170317877" lon="11.68656417251598"><ele>460.99999999999994</ele><time>2026-04-17T08:41:07Z</time></trkpt><trkpt lat="48.32122172036674" lon="11.686524796383647"><ele>461.0</ele><time>2026-04-17T08:41:08Z</time></trkpt><trkpt lat="48.32112421766945" lon="11.686455249397685"><ele>461.3333333333333</ele><time>2026-04-17T08:41:10Z</time></trkpt><trkpt lat="48.32105225018825" lon="11.686408152189651"><ele>461.66666666666663</ele><time>2026-04-17T08:41:12Z</time></trkpt><trkpt lat="48.32098500578058" lon="11.68633101755866"><ele>462.0</ele><time>2026-04-17T08:41:19Z</time></trkpt><trkpt lat="48.32092252780613" lon="11.68630981624258"><ele>462.33333333333337</ele><time>2026-04-17T08:41:21Z</time></trkpt><trkpt lat="48.32086868820725" lon="11.686450797346328"><ele>462.6666666666667</ele><time>2026-04-17T08:41:22Z</time></trkpt><trkpt lat="48.32081558451793" lon="11.686602784834578"><ele>463.0</ele><time>2026-04-17T08:41:24Z</time></trkpt><trkpt lat="48.32077901299685" lon="11.686686088757842"><ele>463.0</ele><time>2026-04-17T08:41:25Z</time></trkpt><trkpt lat="48.3207353514007" lon="11.686772822744901"><ele>462.99999999999994</ele><time>2026-04-17T08:41:26Z</time></trkpt><trkpt lat="48.3206957619094" lon="11.686846489113998"><ele>462.99999999999994</ele><time>2026-04-17T08:41:27Z</time></trkpt><trkpt lat="48.32061830672953" lon="11.686984501842428"><ele>463.0</ele><time>2026-04-17T08:41:29Z</time></trkpt><trkpt lat="48.32053600677995" lon="11.687113944271095"><ele>463.0</ele><time>2026-04-17T08:41:31Z</time></trkpt><trkpt lat="48.32044083254701" lon="11.687213898580733"><ele>462.79999999999995</ele><time>2026-04-17T08:41:33Z</time></trkpt><trkpt lat="48.32035480056253" lon="11.687333709742449"><ele>462.59999999999997</ele><time>2026-04-17T08:41:35Z</time></trkpt><trkpt lat="48.32026831290388" lon="11.687451193415846"><ele>462.40000000000003</ele><time>2026-04-17T08:41:37Z</time></trkpt><trkpt lat="48.320170983187396" lon="11.687571149321409"><ele>462.20000000000005</ele><time>2026-04-17T08:41:39Z</time></trkpt><trkpt lat="48.320114881327335" lon="11.687638080408728"><ele>462.0</ele><time>2026-04-17T08:41:40Z</time></trkpt><trkpt lat="48.32005061589561" lon="11.687720715487641"><ele>462.0</ele><time>2026-04-17T08:41:41Z</time></trkpt><trkpt lat="48.320001168902074" lon="11.687838493752881"><ele>462.0</ele><time>2026-04-17T08:41:42Z</time></trkpt><trkpt lat="48.31994547943564" lon="11.687939763506222"><ele>462.0</ele><time>2026-04-17T08:41:43Z</time></trkpt><trkpt lat="48.31989864809258" lon="11.688034639598998"><ele>462.0</ele><time>2026-04-17T08:41:44Z</time></trkpt><trkpt lat="48.319855948898784" lon="11.688121457210599"><ele>462.0</ele><time>2026-04-17T08:41:45Z</time></trkpt><trkpt lat="48.31981508550582" lon="11.688201474716344"><ele>462.0</ele><time>2026-04-17T08:41:46Z</time></trkpt><trkpt lat="48.31976800254535" lon="11.688268826029784"><ele>462.1666666666667</ele><time>2026-04-17T08:41:47Z</time></trkpt><trkpt lat="48.31971490410298" lon="11.68832674326455"><ele>462.33333333333337</ele><time>2026-04-17T08:41:48Z</time></trkpt><trkpt lat="48.319660422193586" lon="11.688391928964608"><ele>462.5</ele><time>2026-04-17T08:41:49Z</time></trkpt><trkpt lat="48.31961988905362" lon="11.688481948732571"><ele>462.6666666666667</ele><time>2026-04-17T08:41:50Z</time></trkpt><trkpt lat="48.31960987918516" lon="11.688576486344779"><ele>462.83333333333337</ele><time>2026-04-17T08:41:51Z</time></trkpt><trkpt lat="48.31965807755093" lon="11.68870939978248"><ele>463.0</ele><time>2026-04-17T08:41:53Z</time></trkpt><trkpt lat="48.31974196851017" lon="11.68880800136282"><ele>462.59999999999997</ele><time>2026-04-17T08:41:55Z</time></trkpt><trkpt lat="48.31982818241249" lon="11.68889804459779"><ele>462.19999999999993</ele><time>2026-04-17T08:41:57Z</time></trkpt><trkpt lat="48.31988427485082" lon="11.689064756245594"><ele>461.8</ele><time>2026-04-17T08:41:59Z</time></trkpt><trkpt lat="48.319871897247495" lon="11.689173032648512"><ele>461.4</ele><time>2026-04-17T08:42:00Z</time></trkpt><trkpt lat="48.31985175744799" lon="11.68929049795256"><ele>461.0</ele><time>2026-04-17T08:42:01Z</time></trkpt><trkpt lat="48.319837352587584" lon="11.689416967153472"><ele>461.20000000000005</ele><time>2026-04-17T08:42:02Z</time></trkpt><trkpt lat="48.319820478489824" lon="11.689553496839896"><ele>461.40000000000003</ele><time>2026-04-17T08:42:03Z</time></trkpt><trkpt lat="48.31979823070817" lon="11.689696910417748"><ele>461.6</ele><time>2026-04-17T08:42:04Z</time></trkpt><trkpt lat="48.31975603015338" lon="11.689840836418195"><ele>461.8</ele><time>2026-04-17T08:42:05Z</time></trkpt><trkpt lat="48.319742325998206" lon="11.69000388613578"><ele>462.0</ele><time>2026-04-17T08:42:06Z</time></trkpt><trkpt lat="48.31969825776103" lon="11.690150179272992"><ele>462.1666666666667</ele><time>2026-04-17T08:42:07Z</time></trkpt><trkpt lat="48.31968806179398" lon="11.69029861847658"><ele>462.33333333333337</ele><time>2026-04-17T08:42:08Z</time></trkpt><trkpt lat="48.3196622051216" lon="11.69042696934087"><ele>462.5</ele><time>2026-04-17T08:42:09Z</time></trkpt><trkpt lat="48.31963801026569" lon="11.690537991007107"><ele>462.6666666666667</ele><time>2026-04-17T08:42:10Z</time></trkpt><trkpt lat="48.31961590533295" lon="11.690641761083938"><ele>462.83333333333337</ele><time>2026-04-17T08:42:11Z</time></trkpt><trkpt lat="48.3195971079073" lon="11.690746745837295"><ele>463.0</ele><time>2026-04-17T08:42:12Z</time></trkpt><trkpt lat="48.319580143501696" lon="11.69086628298378"><ele>463.00000000000006</ele><time>2026-04-17T08:42:13Z</time></trkpt><trkpt lat="48.31955670239477" lon="11.690991083033753"><ele>463.0</ele><time>2026-04-17T08:42:14Z</time></trkpt><trkpt lat="48.31953824581114" lon="11.691117734455847"><ele>463.0</ele><time>2026-04-17T08:42:15Z</time></trkpt><trkpt lat="48.31952268751453" lon="11.691230981678645"><ele>463.0</ele><time>2026-04-17T08:42:16Z</time></trkpt><trkpt lat="48.31949152066855" lon="11.691313754954706"><ele>463.00000000000006</ele><time>2026-04-17T08:42:17Z</time></trkpt><trkpt lat="48.319478630363896" lon="11.691468519848145"><ele>463.0</ele><time>2026-04-17T08:42:19Z</time></trkpt><trkpt lat="48.31944275335526" lon="11.691577294921009"><ele>463.1666666666667</ele><time>2026-04-17T08:42:20.999Z</time></trkpt><trkpt lat="48.31940079951194" lon="11.691651179414"><ele>463.33333333333337</ele><time>2026-04-17T08:42:22.999Z</time></trkpt><trkpt lat="48.31930271136862" lon="11.69167147044164"><ele>463.5</ele><time>2026-04-17T08:42:44.999Z</time></trkpt><trkpt lat="48.31923867653707" lon="11.691653125156614"><ele>463.66666666666663</ele><time>2026-04-17T08:42:45.999Z</time></trkpt><trkpt lat="48.319159972031" lon="11.691626588554225"><ele>463.8333333333333</ele><time>2026-04-17T08:42:46.999Z</time></trkpt><trkpt lat="48.31906971183249" lon="11.691600548372147"><ele>464.0</ele><time>2026-04-17T08:42:47.999Z</time></trkpt><trkpt lat="48.3189900937536" lon="11.691584807725802"><ele>463.99999999999994</ele><time>2026-04-17T08:42:48.999Z</time></trkpt><trkpt lat="48.31891250950012" lon="11.691569132607185"><ele>464.0</ele><time>2026-04-17T08:42:49.999Z</time></trkpt><trkpt lat="48.31883315219555" lon="11.69155304740365"><ele>464.0</ele><time>2026-04-17T08:42:50.999Z</time></trkpt><trkpt lat="48.31874813653618" lon="11.691527098460519"><ele>464.0</ele><time>2026-04-17T08:42:51.999Z</time></trkpt><trkpt lat="48.31867050732485" lon="11.691493654824672"><ele>463.99999999999994</ele><time>2026-04-17T08:42:52.999Z</time></trkpt><trkpt lat="48.31860348273712" lon="11.69146525599413"><ele>464.0</ele><time>2026-04-17T08:42:53.999Z</time></trkpt><trkpt lat="48.31851016391614" lon="11.691425606908405"><ele>463.5</ele><time>2026-04-17T08:42:55.999Z</time></trkpt><trkpt lat="48.318440036459734" lon="11.691395954399967"><ele>463.0</ele><time>2026-04-17T08:42:59.999Z</time></trkpt><trkpt lat="48.3183609692679" lon="11.691351610926269"><ele>462.5</ele><time>2026-04-17T08:43:02.999Z</time></trkpt><trkpt lat="48.31829717747564" lon="11.691339543675099"><ele>462.0</ele><time>2026-04-17T08:43:08.999Z</time></trkpt><trkpt lat="48.318211111530275" lon="11.691668765190677"><ele>462.0</ele><time>2026-04-17T08:43:13.999Z</time></trkpt><trkpt lat="48.31815683446839" lon="11.691741293280021"><ele>462.0</ele><time>2026-04-17T08:43:16.999Z</time></trkpt><trkpt lat="48.318091596315696" lon="11.69177837524902"><ele>462.0</ele><time>2026-04-17T08:43:17.999Z</time></trkpt><trkpt lat="48.318047582518055" lon="11.691690300137841"><ele>462.0</ele><time>2026-04-17T08:43:20.999Z</time></trkpt><trkpt lat="48.318013172047955" lon="11.691571323083565"><ele>462.0</ele><time>2026-04-17T08:53:05Z</time></trkpt><trkpt lat="48.318015392437516" lon="11.691473536893058"><ele>462.0</ele><time>2026-04-17T08:53:08Z</time></trkpt><trkpt lat="48.31799013889166" lon="11.691352963515634"><ele>462.0</ele><time>2026-04-17T08:53:10Z</time></trkpt><trkpt lat="48.31800721736711" lon="11.691241378891723"><ele>462.00000000000006</ele><time>2026-04-17T08:53:22Z</time></trkpt><trkpt lat="48.31809114332652" lon="11.691245994768229"><ele>462.00000000000006</ele><time>2026-04-17T08:53:35.998Z</time></trkpt><trkpt lat="48.318184441834624" lon="11.691298208114945"><ele>462.0</ele><time>2026-04-17T08:53:37.998Z</time></trkpt><trkpt lat="48.31828935411595" lon="11.691351968215853"><ele>462.0</ele><time>2026-04-17T08:53:39.998Z</time></trkpt><trkpt lat="48.318378233424184" lon="11.691391763941631"><ele>462.0</ele><time>2026-04-17T08:53:40.999Z</time></trkpt><trkpt lat="48.3184886284521" lon="11.691437301000194"><ele>462.00000000000006</ele><time>2026-04-17T08:53:41.999Z</time></trkpt><trkpt lat="48.31857429508105" lon="11.691477371059412"><ele>462.00000000000006</ele><time>2026-04-17T08:53:42.999Z</time></trkpt><trkpt lat="48.31865069580397" lon="11.691510854255297"><ele>462.0</ele><time>2026-04-17T08:53:43.999Z</time></trkpt><trkpt lat="48.3187324089599" lon="11.691540301694568"><ele>462.0</ele><time>2026-04-17T08:53:44.999Z</time></trkpt><trkpt lat="48.31882066728503" lon="11.691574078333533"><ele>462.40000000000003</ele><time>2026-04-17T08:53:45.999Z</time></trkpt><trkpt lat="48.318914723945554" lon="11.691606657128993"><ele>462.80000000000007</ele><time>2026-04-17T08:53:46.999Z</time></trkpt><trkpt lat="48.319017740093884" lon="11.691633232218942"><ele>463.2</ele><time>2026-04-17T08:53:47.999Z</time></trkpt><trkpt lat="48.31912344737246" lon="11.691655180238628"><ele>463.6</ele><time>2026-04-17T08:53:48.999Z</time></trkpt><trkpt lat="48.319229753961174" lon="11.69168265767233"><ele>464.0</ele><time>2026-04-17T08:53:49.999Z</time></trkpt><trkpt lat="48.319332655658314" lon="11.691709777775463"><ele>464.0</ele><time>2026-04-17T08:53:50.999Z</time></trkpt><trkpt lat="48.319433241859315" lon="11.691738036617592"><ele>464.0</ele><time>2026-04-17T08:53:51.999Z</time></trkpt><trkpt lat="48.31953202741295" lon="11.691762583868599"><ele>464.0</ele><time>2026-04-17T08:53:52.999Z</time></trkpt><trkpt lat="48.31962720658416" lon="11.691786407731254"><ele>464.0</ele><time>2026-04-17T08:53:53.999Z</time></trkpt><trkpt lat="48.31972107974369" lon="11.691808413356677"><ele>464.0</ele><time>2026-04-17T08:53:54.999Z</time></trkpt><trkpt lat="48.31982219624269" lon="11.691829997507567"><ele>463.2</ele><time>2026-04-17T08:53:55.999Z</time></trkpt><trkpt lat="48.31992046335921" lon="11.691849837427947"><ele>462.4</ele><time>2026-04-17T08:53:56.999Z</time></trkpt><trkpt lat="48.32002355779963" lon="11.691873299889808"><ele>461.6</ele><time>2026-04-17T08:53:57.999Z</time></trkpt><trkpt lat="48.320125551425605" lon="11.691898795336124"><ele>460.8</ele><time>2026-04-17T08:53:58.999Z</time></trkpt><trkpt lat="48.320229251939494" lon="11.691921537997981"><ele>460.0</ele><time>2026-04-17T08:53:59.999Z</time></trkpt><trkpt lat="48.320332135848375" lon="11.691946115463525"><ele>460.0</ele><time>2026-04-17T08:54:00.999Z</time></trkpt><trkpt lat="48.32043760257226" lon="11.691970848737785"><ele>460.0</ele><time>2026-04-17T08:54:01.999Z</time></trkpt><trkpt lat="48.32054196027935" lon="11.69199083901928"><ele>460.0</ele><time>2026-04-17T08:54:02.999Z</time></trkpt><trkpt lat="48.32064720146581" lon="11.692012612677589"><ele>460.0</ele><time>2026-04-17T08:54:03.999Z</time></trkpt><trkpt lat="48.320751276073004" lon="11.692030718459726"><ele>460.0</ele><time>2026-04-17T08:54:04.999Z</time></trkpt><trkpt lat="48.32085385216243" lon="11.692054860325117"><ele>460.0</ele><time>2026-04-17T08:54:05.999Z</time></trkpt><trkpt lat="48.32096491351931" lon="11.692080205192308"><ele>460.0</ele><time>2026-04-17T08:54:06.999Z</time></trkpt><trkpt lat="48.32108344464954" lon="11.692104286605456"><ele>460.0</ele><time>2026-04-17T08:54:07.999Z</time></trkpt><trkpt lat="48.32120083850074" lon="11.69212802158508"><ele>460.0</ele><time>2026-04-17T08:54:08.999Z</time></trkpt><trkpt lat="48.32130862656251" lon="11.692156073170581"><ele>459.5</ele><time>2026-04-17T08:54:10Z</time></trkpt><trkpt lat="48.3214151469368" lon="11.692182456184586"><ele>459.0</ele><time>2026-04-17T08:54:11Z</time></trkpt><trkpt lat="48.321528774363365" lon="11.69220642757363"><ele>458.5</ele><time>2026-04-17T08:54:12Z</time></trkpt><trkpt lat="48.32165793057945" lon="11.692229962537416"><ele>458.0</ele><time>2026-04-17T08:54:13Z</time></trkpt><trkpt lat="48.32178414849177" lon="11.692258327022046"><ele>458.0</ele><time>2026-04-17T08:54:14Z</time></trkpt><trkpt lat="48.32189476946098" lon="11.692286206512629"><ele>457.99999999999994</ele><time>2026-04-17T08:54:15Z</time></trkpt><trkpt lat="48.32199848113798" lon="11.692310534667852"><ele>457.99999999999994</ele><time>2026-04-17T08:54:16Z</time></trkpt><trkpt lat="48.32209937551674" lon="11.692335541242253"><ele>458.0</ele><time>2026-04-17T08:54:17Z</time></trkpt><trkpt lat="48.32219610205976" lon="11.692359820125908"><ele>458.0</ele><time>2026-04-17T08:54:18Z</time></trkpt><trkpt lat="48.32228705469693" lon="11.692381048535355"><ele>458.2</ele><time>2026-04-17T08:54:19Z</time></trkpt><trkpt lat="48.32237253571717" lon="11.692399270253144"><ele>458.4</ele><time>2026-04-17T08:54:20Z</time></trkpt><trkpt lat="48.32245832906556" lon="11.692418822560638"><ele>458.59999999999997</ele><time>2026-04-17T08:54:21Z</time></trkpt><trkpt lat="48.32255166017283" lon="11.692440116498934"><ele>458.79999999999995</ele><time>2026-04-17T08:54:22Z</time></trkpt><trkpt lat="48.32266597314052" lon="11.692471001213859"><ele>459.0</ele><time>2026-04-17T08:54:23Z</time></trkpt><trkpt lat="48.322797590836764" lon="11.692504773091684"><ele>459.0</ele><time>2026-04-17T08:54:24Z</time></trkpt><trkpt lat="48.32294090881057" lon="11.692538912657755"><ele>459.0</ele><time>2026-04-17T08:54:25Z</time></trkpt><trkpt lat="48.323091066454595" lon="11.692577256697811"><ele>459.0</ele><time>2026-04-17T08:54:26Z</time></trkpt><trkpt lat="48.32324026053805" lon="11.692618167424028"><ele>459.0</ele><time>2026-04-17T08:54:27Z</time></trkpt><trkpt lat="48.32339208122887" lon="11.69265829878925"><ele>458.66666666666663</ele><time>2026-04-17T08:54:28Z</time></trkpt><trkpt lat="48.323556405319586" lon="11.692699852687676"><ele>458.3333333333333</ele><time>2026-04-17T08:54:29Z</time></trkpt><trkpt lat="48.323719845643204" lon="11.692741197782418"><ele>458.0</ele><time>2026-04-17T08:54:30Z</time></trkpt><trkpt lat="48.32387312404192" lon="11.692781053663138"><ele>457.66666666666663</ele><time>2026-04-17T08:54:31Z</time></trkpt><trkpt lat="48.324045420331096" lon="11.69282127366073"><ele>457.33333333333337</ele><time>2026-04-17T08:54:32Z</time></trkpt><trkpt lat="48.32423719006389" lon="11.692861689135178"><ele>457.0</ele><time>2026-04-17T08:54:33Z</time></trkpt><trkpt lat="48.32443540899025" lon="11.692904973561173"><ele>457.0</ele><time>2026-04-17T08:54:34Z</time></trkpt><trkpt lat="48.32462303291428" lon="11.692947630769883"><ele>457.0</ele><time>2026-04-17T08:54:35Z</time></trkpt><trkpt lat="48.3248166136766" lon="11.692995124332842"><ele>457.0</ele><time>2026-04-17T08:54:36Z</time></trkpt><trkpt lat="48.32499185621157" lon="11.693038180180489"><ele>457.6666666666667</ele><time>2026-04-17T08:54:37Z</time></trkpt><trkpt lat="48.32515227312194" lon="11.69307628737469"><ele>458.33333333333337</ele><time>2026-04-17T08:54:38Z</time></trkpt><trkpt lat="48.32530452242439" lon="11.693112321427826"><ele>459.0</ele><time>2026-04-17T08:54:39Z</time></trkpt><trkpt lat="48.325457056577434" lon="11.69314913297558"><ele>459.25</ele><time>2026-04-17T08:54:40Z</time></trkpt><trkpt lat="48.32559851210084" lon="11.69318420419681"><ele>459.5</ele><time>2026-04-17T08:54:41Z</time></trkpt><trkpt lat="48.32572829506097" lon="11.693217107540356"><ele>459.75</ele><time>2026-04-17T08:54:42Z</time></trkpt><trkpt lat="48.32585806741299" lon="11.693249516372582"><ele>460.0</ele><time>2026-04-17T08:54:43Z</time></trkpt><trkpt lat="48.32597827175003" lon="11.693279288120044"><ele>460.0</ele><time>2026-04-17T08:54:44Z</time></trkpt><trkpt lat="48.32609904840853" lon="11.693309570857242"><ele>460.0</ele><time>2026-04-17T08:54:45Z</time></trkpt><trkpt lat="48.32623044539667" lon="11.69334311866306"><ele>460.0</ele><time>2026-04-17T08:54:46Z</time></trkpt><trkpt lat="48.32637310138411" lon="11.69337734303721"><ele>460.0</ele><time>2026-04-17T08:54:47Z</time></trkpt><trkpt lat="48.32652355099227" lon="11.693415928388296"><ele>459.33333333333337</ele><time>2026-04-17T08:54:48Z</time></trkpt><trkpt lat="48.32667723858149" lon="11.693458282271529"><ele>458.66666666666663</ele><time>2026-04-17T08:54:49Z</time></trkpt><trkpt lat="48.326829885539844" lon="11.693501115834568"><ele>458.0</ele><time>2026-04-17T08:54:50Z</time></trkpt><trkpt lat="48.32696816531367" lon="11.693541943975514"><ele>458.0</ele><time>2026-04-17T08:54:51Z</time></trkpt><trkpt lat="48.32709641693703" lon="11.693581159701312"><ele>457.99999999999994</ele><time>2026-04-17T08:54:52Z</time></trkpt><trkpt lat="48.32720984595743" lon="11.693612555505307"><ele>457.99999999999994</ele><time>2026-04-17T08:54:53Z</time></trkpt><trkpt lat="48.32729496630723" lon="11.693638649305177"><ele>458.0</ele><time>2026-04-17T08:54:54Z</time></trkpt><trkpt lat="48.32739316374462" lon="11.693668809314412"><ele>458.0</ele><time>2026-04-17T08:54:56Z</time></trkpt><trkpt lat="48.32747246026181" lon="11.693694672339758"><ele>458.0</ele><time>2026-04-17T08:54:58Z</time></trkpt><trkpt lat="48.32760348158653" lon="11.69373987133837"><ele>457.99999999999994</ele><time>2026-04-17T08:55:00Z</time></trkpt><trkpt lat="48.327687151960276" lon="11.69376893173936"><ele>457.99999999999994</ele><time>2026-04-17T08:55:01Z</time></trkpt><trkpt lat="48.32777614765901" lon="11.693799863636633"><ele>458.0</ele><time>2026-04-17T08:55:02Z</time></trkpt><trkpt lat="48.327873391427325" lon="11.693835798300992"><ele>458.0</ele><time>2026-04-17T08:55:03Z</time></trkpt><trkpt lat="48.32797292116749" lon="11.693882329319303"><ele>458.0</ele><time>2026-04-17T08:55:04Z</time></trkpt><trkpt lat="48.328091701345535" lon="11.693932675406186"><ele>458.0</ele><time>2026-04-17T08:55:05Z</time></trkpt><trkpt lat="48.32819486150591" lon="11.693978910368317"><ele>458.0</ele><time>2026-04-17T08:55:06Z</time></trkpt><trkpt lat="48.328308461816164" lon="11.694035563811244"><ele>458.0</ele><time>2026-04-17T08:55:07Z</time></trkpt><trkpt lat="48.32841441175775" lon="11.694093489298938"><ele>458.0</ele><time>2026-04-17T08:55:08Z</time></trkpt><trkpt lat="48.32850570462571" lon="11.694142797892694"><ele>457.99999999999994</ele><time>2026-04-17T08:55:09Z</time></trkpt><trkpt lat="48.32860223816542" lon="11.694200810315083"><ele>457.99999999999994</ele><time>2026-04-17T08:55:10Z</time></trkpt><trkpt lat="48.32869780792124" lon="11.694262174394005"><ele>458.0</ele><time>2026-04-17T08:55:11Z</time></trkpt><trkpt lat="48.32878602572003" lon="11.69432047131677"><ele>458.0</ele><time>2026-04-17T08:55:12Z</time></trkpt><trkpt lat="48.328867760576536" lon="11.69437620771948"><ele>458.0</ele><time>2026-04-17T08:55:13Z</time></trkpt><trkpt lat="48.32894307343026" lon="11.69442857390573"><ele>457.99999999999994</ele><time>2026-04-17T08:55:14Z</time></trkpt><trkpt lat="48.329017778751414" lon="11.694481646399371"><ele>457.99999999999994</ele><time>2026-04-17T08:55:15Z</time></trkpt><trkpt lat="48.3290837056555" lon="11.694533618155958"><ele>458.0</ele><time>2026-04-17T08:55:16Z</time></trkpt><trkpt lat="48.32918689992661" lon="11.694616272532805"><ele>458.0</ele><time>2026-04-17T08:55:18Z</time></trkpt><trkpt lat="48.32929784440998" lon="11.69470542602258"><ele>458.0</ele><time>2026-04-17T08:55:20Z</time></trkpt><trkpt lat="48.32936026375853" lon="11.694754858805156"><ele>458.0</ele><time>2026-04-17T08:55:21Z</time></trkpt><trkpt lat="48.329418408660885" lon="11.694802962964516"><ele>458.0</ele><time>2026-04-17T08:55:22Z</time></trkpt><trkpt lat="48.329478499557936" lon="11.69485395070113"><ele>458.0</ele><time>2026-04-17T08:55:23Z</time></trkpt><trkpt lat="48.32953927224136" lon="11.694904675834476"><ele>458.0</ele><time>2026-04-17T08:55:24.001Z</time></trkpt><trkpt lat="48.329597206551085" lon="11.69495359499029"><ele>458.0</ele><time>2026-04-17T08:55:25.001Z</time></trkpt><trkpt lat="48.32965629400176" lon="11.695004365605707"><ele>458.0</ele><time>2026-04-17T08:55:26.001Z</time></trkpt><trkpt lat="48.329719167794806" lon="11.695059316154689"><ele>458.0</ele><time>2026-04-17T08:55:27.001Z</time></trkpt><trkpt lat="48.32979181125342" lon="11.695125743873847"><ele>457.99999999999994</ele><time>2026-04-17T08:55:28.001Z</time></trkpt><trkpt lat="48.3298821092168" lon="11.695214460577528"><ele>457.99999999999994</ele><time>2026-04-17T08:55:29.001Z</time></trkpt><trkpt lat="48.32997948268938" lon="11.695304602719865"><ele>458.0</ele><time>2026-04-17T08:55:30.001Z</time></trkpt><trkpt lat="48.33008439571247" lon="11.695399660118712"><ele>458.0</ele><time>2026-04-17T08:55:31.001Z</time></trkpt><trkpt lat="48.33019281661291" lon="11.695500864532587"><ele>458.0</ele><time>2026-04-17T08:55:32.001Z</time></trkpt><trkpt lat="48.330299561797645" lon="11.695601304618595"><ele>458.0</ele><time>2026-04-17T08:55:33.001Z</time></trkpt><trkpt lat="48.33040433924748" lon="11.695700157014086"><ele>458.0</ele><time>2026-04-17T08:55:34.001Z</time></trkpt><trkpt lat="48.330505429806244" lon="11.695796877180145"><ele>458.0</ele><time>2026-04-17T08:55:34.999Z</time></trkpt><trkpt lat="48.33061401347302" lon="11.695903948914031"><ele>457.75</ele><time>2026-04-17T08:55:35.999Z</time></trkpt><trkpt lat="48.33073997426682" lon="11.696030902762887"><ele>457.5</ele><time>2026-04-17T08:55:36.999Z</time></trkpt><trkpt lat="48.330862360878044" lon="11.696149410746429"><ele>457.25</ele><time>2026-04-17T08:55:37.999Z</time></trkpt><trkpt lat="48.33097479770998" lon="11.696264745253632"><ele>457.0</ele><time>2026-04-17T08:55:38.999Z</time></trkpt><trkpt lat="48.33108526065263" lon="11.696382160905852"><ele>457.0</ele><time>2026-04-17T08:55:39.999Z</time></trkpt><trkpt lat="48.33119780941622" lon="11.696504462770456"><ele>457.0</ele><time>2026-04-17T08:55:40.999Z</time></trkpt><trkpt lat="48.3313201751176" lon="11.696637545380854"><ele>457.0</ele><time>2026-04-17T08:55:41.999Z</time></trkpt><trkpt lat="48.331439372794364" lon="11.69676560901944"><ele>457.0</ele><time>2026-04-17T08:55:42.999Z</time></trkpt><trkpt lat="48.331556395772225" lon="11.69689061333696"><ele>457.0</ele><time>2026-04-17T08:55:43.999Z</time></trkpt><trkpt lat="48.331671330067635" lon="11.697013400603485"><ele>457.0</ele><time>2026-04-17T08:55:44.999Z</time></trkpt><trkpt lat="48.33178493788772" lon="11.697136856503537"><ele>457.0</ele><time>2026-04-17T08:55:45.999Z</time></trkpt><trkpt lat="48.33190185560504" lon="11.69726477054514"><ele>457.0</ele><time>2026-04-17T08:55:46.999Z</time></trkpt><trkpt lat="48.33201770570763" lon="11.697390588516294"><ele>457.0</ele><time>2026-04-17T08:55:47.999Z</time></trkpt><trkpt lat="48.33213628693268" lon="11.697520148843974"><ele>457.0</ele><time>2026-04-17T08:55:48.999Z</time></trkpt><trkpt lat="48.3322485303009" lon="11.697645136477783"><ele>457.0</ele><time>2026-04-17T08:55:49.999Z</time></trkpt><trkpt lat="48.332352997766364" lon="11.697759178366228"><ele>457.0</ele><time>2026-04-17T08:55:50.999Z</time></trkpt><trkpt lat="48.33246126911001" lon="11.69787957013506"><ele>457.25</ele><time>2026-04-17T08:55:51.999Z</time></trkpt><trkpt lat="48.33257496942567" lon="11.698007464871324"><ele>457.5</ele><time>2026-04-17T08:55:52.999Z</time></trkpt><trkpt lat="48.33269403830118" lon="11.69814001142706"><ele>457.75</ele><time>2026-04-17T08:55:53.999Z</time></trkpt><trkpt lat="48.332816754482266" lon="11.698275838963296"><ele>458.0</ele><time>2026-04-17T08:55:54.999Z</time></trkpt><trkpt lat="48.332932718616085" lon="11.698406572671523"><ele>458.0</ele><time>2026-04-17T08:55:56Z</time></trkpt><trkpt lat="48.3330497277927" lon="11.698537578051377"><ele>458.0</ele><time>2026-04-17T08:55:57Z</time></trkpt><trkpt lat="48.33317457760412" lon="11.69867507084983"><ele>458.0</ele><time>2026-04-17T08:55:58Z</time></trkpt><trkpt lat="48.33329450949456" lon="11.698804333140803"><ele>458.0</ele><time>2026-04-17T08:55:59Z</time></trkpt><trkpt lat="48.333401195667534" lon="11.698922145934253"><ele>458.5</ele><time>2026-04-17T08:56:00Z</time></trkpt><trkpt lat="48.33350354395071" lon="11.699045635670082"><ele>459.0</ele><time>2026-04-17T08:56:01Z</time></trkpt><trkpt lat="48.33360673938283" lon="11.699167108027378"><ele>459.5</ele><time>2026-04-17T08:56:02Z</time></trkpt><trkpt lat="48.3337036967167" lon="11.699276328024261"><ele>460.0</ele><time>2026-04-17T08:56:03Z</time></trkpt><trkpt lat="48.33380086574061" lon="11.699377317857353"><ele>459.5</ele><time>2026-04-17T08:56:04Z</time></trkpt><trkpt lat="48.333901944841166" lon="11.69947908927721"><ele>459.0</ele><time>2026-04-17T08:56:05Z</time></trkpt><trkpt lat="48.3340067916727" lon="11.69958680082468"><ele>458.5</ele><time>2026-04-17T08:56:06Z</time></trkpt><trkpt lat="48.33410973452668" lon="11.699694447230248"><ele>458.0</ele><time>2026-04-17T08:56:07Z</time></trkpt><trkpt lat="48.33420984447267" lon="11.69979003640079"><ele>458.0</ele><time>2026-04-17T08:56:08Z</time></trkpt><trkpt lat="48.334307040974444" lon="11.699871921248526"><ele>458.0</ele><time>2026-04-17T08:56:08.999Z</time></trkpt><trkpt lat="48.33440104321325" lon="11.699969230947287"><ele>458.0</ele><time>2026-04-17T08:56:09.999Z</time></trkpt><trkpt lat="48.33449836870817" lon="11.700073939257756"><ele>458.0</ele><time>2026-04-17T08:56:10.999Z</time></trkpt><trkpt lat="48.33460002553086" lon="11.700181076626977"><ele>458.0</ele><time>2026-04-17T08:56:11.999Z</time></trkpt><trkpt lat="48.3346960056339" lon="11.70028350784353"><ele>457.99999999999994</ele><time>2026-04-17T08:56:12.999Z</time></trkpt><trkpt lat="48.3347760503997" lon="11.700373548898453"><ele>457.99999999999994</ele><time>2026-04-17T08:56:13.999Z</time></trkpt><trkpt lat="48.33484730468873" lon="11.70045560547111"><ele>458.0</ele><time>2026-04-17T08:56:14.999Z</time></trkpt><trkpt lat="48.33491290035687" lon="11.70052718578358"><ele>458.0</ele><time>2026-04-17T08:56:15.999Z</time></trkpt><trkpt lat="48.33496892984192" lon="11.700587928901003"><ele>459.0</ele><time>2026-04-17T08:56:16.999Z</time></trkpt><trkpt lat="48.3350444586117" lon="11.700672793766119"><ele>459.99999999999994</ele><time>2026-04-17T08:56:18.999Z</time></trkpt><trkpt lat="48.33512042309825" lon="11.700747627180593"><ele>460.99999999999994</ele><time>2026-04-17T08:56:20.999Z</time></trkpt><trkpt lat="48.33523267548444" lon="11.700735125855472"><ele>462.0</ele><time>2026-04-17T08:56:22.999Z</time></trkpt><trkpt lat="48.33528996960603" lon="11.700664925592815"><ele>463.0</ele><time>2026-04-17T08:56:23.999Z</time></trkpt><trkpt lat="48.3353436304446" lon="11.700562045233356"><ele>463.0</ele><time>2026-04-17T08:56:24.999Z</time></trkpt><trkpt lat="48.33539609873779" lon="11.700431597132278"><ele>462.99999999999994</ele><time>2026-04-17T08:56:25.999Z</time></trkpt><trkpt lat="48.33543557162009" lon="11.700316108874512"><ele>462.99999999999994</ele><time>2026-04-17T08:56:26.999Z</time></trkpt><trkpt lat="48.335470383410524" lon="11.700204267200302"><ele>463.0</ele><time>2026-04-17T08:56:27.999Z</time></trkpt><trkpt lat="48.335506628866575" lon="11.700071285748281"><ele>463.0</ele><time>2026-04-17T08:56:28.999Z</time></trkpt><trkpt lat="48.335532049876605" lon="11.699914389992994"><ele>462.59999999999997</ele><time>2026-04-17T08:56:29.999Z</time></trkpt><trkpt lat="48.33554467340266" lon="11.69973950728336"><ele>462.19999999999993</ele><time>2026-04-17T08:56:30.999Z</time></trkpt><trkpt lat="48.335539664138246" lon="11.699569150744928"><ele>461.8</ele><time>2026-04-17T08:56:31.999Z</time></trkpt><trkpt lat="48.33551614527045" lon="11.699417539675114"><ele>461.4</ele><time>2026-04-17T08:56:32.999Z</time></trkpt><trkpt lat="48.33547710447321" lon="11.699271682698221"><ele>461.0</ele><time>2026-04-17T08:56:33.999Z</time></trkpt><trkpt lat="48.335422878823216" lon="11.699128339006068"><ele>460.5</ele><time>2026-04-17T08:56:34.999Z</time></trkpt><trkpt lat="48.335350938964666" lon="11.698996529328532"><ele>460.0</ele><time>2026-04-17T08:56:35.999Z</time></trkpt><trkpt lat="48.33526636893993" lon="11.698874047080313"><ele>459.5</ele><time>2026-04-17T08:56:36.999Z</time></trkpt><trkpt lat="48.335175155862274" lon="11.698760392249186"><ele>459.0</ele><time>2026-04-17T08:56:37.999Z</time></trkpt><trkpt lat="48.33507544676169" lon="11.698659507738697"><ele>458.75</ele><time>2026-04-17T08:56:38.999Z</time></trkpt><trkpt lat="48.33497006345651" lon="11.698571780111125"><ele>458.5</ele><time>2026-04-17T08:56:40Z</time></trkpt><trkpt lat="48.33486615249277" lon="11.698494031997946"><ele>458.25</ele><time>2026-04-17T08:56:41Z</time></trkpt><trkpt lat="48.33476121933191" lon="11.698430483382122"><ele>458.0</ele><time>2026-04-17T08:56:42Z</time></trkpt><trkpt lat="48.334658114795786" lon="11.698369997912764"><ele>458.0</ele><time>2026-04-17T08:56:43Z</time></trkpt><trkpt lat="48.3345568868901" lon="11.698304298904468"><ele>457.99999999999994</ele><time>2026-04-17T08:56:44Z</time></trkpt><trkpt lat="48.33446145424874" lon="11.698238714806186"><ele>457.99999999999994</ele><time>2026-04-17T08:56:45Z</time></trkpt><trkpt lat="48.33437091175216" lon="11.69816778289312"><ele>458.0</ele><time>2026-04-17T08:56:46Z</time></trkpt><trkpt lat="48.334283509276986" lon="11.698082457965477"><ele>458.0</ele><time>2026-04-17T08:56:47Z</time></trkpt><trkpt lat="48.334199141440905" lon="11.697988852300698"><ele>458.0</ele><time>2026-04-17T08:56:48Z</time></trkpt><trkpt lat="48.334118511320106" lon="11.697892913748527"><ele>457.99999999999994</ele><time>2026-04-17T08:56:49Z</time></trkpt><trkpt lat="48.33403929113079" lon="11.697780502562997"><ele>457.99999999999994</ele><time>2026-04-17T08:56:50Z</time></trkpt><trkpt lat="48.333964458818905" lon="11.697645443625918"><ele>458.0</ele><time>2026-04-17T08:56:51Z</time></trkpt><trkpt lat="48.33389817270248" lon="11.697496795025573"><ele>458.0</ele><time>2026-04-17T08:56:52Z</time></trkpt><trkpt lat="48.3338407815059" lon="11.697338755397718"><ele>457.66666666666663</ele><time>2026-04-17T08:56:53Z</time></trkpt><trkpt lat="48.33379248182169" lon="11.697164602131995"><ele>457.33333333333337</ele><time>2026-04-17T08:56:54Z</time></trkpt><trkpt lat="48.33374820456014" lon="11.696949896072736"><ele>457.0</ele><time>2026-04-17T08:56:55Z</time></trkpt><trkpt lat="48.33370762498336" lon="11.696688292865987"><ele>457.0</ele><time>2026-04-17T08:56:56Z</time></trkpt><trkpt lat="48.33366273645217" lon="11.696406867968143"><ele>457.0</ele><time>2026-04-17T08:56:57Z</time></trkpt><trkpt lat="48.333612061388955" lon="11.696089915963727"><ele>457.0</ele><time>2026-04-17T08:56:58Z</time></trkpt><trkpt lat="48.33356229320252" lon="11.695772386531871"><ele>457.0</ele><time>2026-04-17T08:56:59Z</time></trkpt><trkpt lat="48.33351548412853" lon="11.69543735313421"><ele>457.0</ele><time>2026-04-17T08:57:00Z</time></trkpt><trkpt lat="48.333471927962975" lon="11.695078101027896"><ele>457.0</ele><time>2026-04-17T08:57:01Z</time></trkpt><trkpt lat="48.33342764504386" lon="11.694701030021593"><ele>457.0</ele><time>2026-04-17T08:57:02Z</time></trkpt><trkpt lat="48.33338032759083" lon="11.69431181193689"><ele>457.0</ele><time>2026-04-17T08:57:03Z</time></trkpt><trkpt lat="48.333335186902744" lon="11.693929226657668"><ele>457.0</ele><time>2026-04-17T08:57:04Z</time></trkpt><trkpt lat="48.333295923366435" lon="11.693578602436254"><ele>457.0</ele><time>2026-04-17T08:57:05Z</time></trkpt><trkpt lat="48.33326202495293" lon="11.693241305062791"><ele>457.0</ele><time>2026-04-17T08:57:06Z</time></trkpt><trkpt lat="48.33323230692058" lon="11.692908937273787"><ele>457.33333333333337</ele><time>2026-04-17T08:57:07Z</time></trkpt><trkpt lat="48.3332045503281" lon="11.69257972432209"><ele>457.66666666666663</ele><time>2026-04-17T08:57:08Z</time></trkpt><trkpt lat="48.33317739757317" lon="11.692252816843961"><ele>458.0</ele><time>2026-04-17T08:57:09Z</time></trkpt><trkpt lat="48.333149358678234" lon="11.691918522573411"><ele>458.0</ele><time>2026-04-17T08:57:10Z</time></trkpt><trkpt lat="48.33312315782763" lon="11.691573496838044"><ele>458.0</ele><time>2026-04-17T08:57:11Z</time></trkpt><trkpt lat="48.333100171448336" lon="11.691213222142359"><ele>457.0</ele><time>2026-04-17T08:57:12Z</time></trkpt><trkpt lat="48.33307534206392" lon="11.69083924665133"><ele>456.0</ele><time>2026-04-17T08:57:13Z</time></trkpt><trkpt lat="48.33305334976829" lon="11.690454829718762"><ele>455.5</ele><time>2026-04-17T08:57:14Z</time></trkpt><trkpt lat="48.33303459187907" lon="11.690083749542953"><ele>455.0</ele><time>2026-04-17T08:57:15Z</time></trkpt><trkpt lat="48.33301887604543" lon="11.689709990338747"><ele>454.5</ele><time>2026-04-17T08:57:16Z</time></trkpt><trkpt lat="48.33300384495652" lon="11.689331328205546"><ele>454.0</ele><time>2026-04-17T08:57:17Z</time></trkpt><trkpt lat="48.332989985663296" lon="11.688934645349"><ele>455.0</ele><time>2026-04-17T08:57:18Z</time></trkpt><trkpt lat="48.33297837411943" lon="11.688533072614906"><ele>456.0</ele><time>2026-04-17T08:57:19Z</time></trkpt><trkpt lat="48.332969186118014" lon="11.688150768133717"><ele>456.0</ele><time>2026-04-17T08:57:20Z</time></trkpt><trkpt lat="48.33296169604215" lon="11.687781017316563"><ele>456.0</ele><time>2026-04-17T08:57:21Z</time></trkpt><trkpt lat="48.33295567449642" lon="11.68741274137552"><ele>456.5</ele><time>2026-04-17T08:57:22Z</time></trkpt><trkpt lat="48.332946938272535" lon="11.687029564460007"><ele>457.0</ele><time>2026-04-17T08:57:23Z</time></trkpt><trkpt lat="48.33293816844861" lon="11.686637334494888"><ele>457.0</ele><time>2026-04-17T08:57:24Z</time></trkpt><trkpt lat="48.33293234493805" lon="11.68625522985309"><ele>457.0</ele><time>2026-04-17T08:57:25Z</time></trkpt><trkpt lat="48.33292659359778" lon="11.685878199775138"><ele>456.5</ele><time>2026-04-17T08:57:26Z</time></trkpt><trkpt lat="48.33292366064846" lon="11.685501944875769"><ele>456.0</ele><time>2026-04-17T08:57:27Z</time></trkpt><trkpt lat="48.33292094363553" lon="11.685111311365226"><ele>456.0</ele><time>2026-04-17T08:57:28Z</time></trkpt><trkpt lat="48.332918034326255" lon="11.68471934162384"><ele>456.0</ele><time>2026-04-17T08:57:29Z</time></trkpt><trkpt lat="48.33291454412609" lon="11.684331021949786"><ele>456.5</ele><time>2026-04-17T08:57:30Z</time></trkpt><trkpt lat="48.33291143935782" lon="11.683942594339022"><ele>457.0</ele><time>2026-04-17T08:57:31Z</time></trkpt><trkpt lat="48.33290997424317" lon="11.683549481905656"><ele>457.0</ele><time>2026-04-17T08:57:32Z</time></trkpt><trkpt lat="48.33290867884055" lon="11.683153120904953"><ele>457.0</ele><time>2026-04-17T08:57:33Z</time></trkpt><trkpt lat="48.3329101772311" lon="11.682748615749894"><ele>457.0</ele><time>2026-04-17T08:57:34Z</time></trkpt><trkpt lat="48.332907085509575" lon="11.682335285181598"><ele>457.0</ele><time>2026-04-17T08:57:35Z</time></trkpt><trkpt lat="48.33290349562629" lon="11.681925627025885"><ele>457.0</ele><time>2026-04-17T08:57:36Z</time></trkpt><trkpt lat="48.332897147790675" lon="11.681518635706324"><ele>457.0</ele><time>2026-04-17T08:57:37Z</time></trkpt><trkpt lat="48.332886354908915" lon="11.681106633936334"><ele>457.0</ele><time>2026-04-17T08:57:38Z</time></trkpt><trkpt lat="48.33287573156108" lon="11.680686592275991"><ele>457.0</ele><time>2026-04-17T08:57:39Z</time></trkpt><trkpt lat="48.33286734437665" lon="11.680268101807616"><ele>458.0</ele><time>2026-04-17T08:57:40Z</time></trkpt><trkpt lat="48.33286022612968" lon="11.679864355872947"><ele>459.0</ele><time>2026-04-17T08:57:41Z</time></trkpt><trkpt lat="48.33285366097477" lon="11.679466884866955"><ele>460.0</ele><time>2026-04-17T08:57:42Z</time></trkpt><trkpt lat="48.33284594254675" lon="11.679054436406123"><ele>461.0</ele><time>2026-04-17T08:57:43Z</time></trkpt><trkpt lat="48.33283685805946" lon="11.678619567851511"><ele>460.5</ele><time>2026-04-17T08:57:44Z</time></trkpt><trkpt lat="48.332830783717355" lon="11.678169077712086"><ele>460.0</ele><time>2026-04-17T08:57:45Z</time></trkpt><trkpt lat="48.33282589748463" lon="11.67770818409374"><ele>460.0</ele><time>2026-04-17T08:57:46Z</time></trkpt><trkpt lat="48.332814474691745" lon="11.677248832490804"><ele>460.0</ele><time>2026-04-17T08:57:47Z</time></trkpt><trkpt lat="48.33279922260956" lon="11.67681003927371"><ele>460.0</ele><time>2026-04-17T08:57:48Z</time></trkpt><trkpt lat="48.33278294806946" lon="11.67638763758711"><ele>460.0</ele><time>2026-04-17T08:57:49Z</time></trkpt><trkpt lat="48.33276432043901" lon="11.6759867688162"><ele>460.0</ele><time>2026-04-17T08:57:50Z</time></trkpt><trkpt lat="48.33274522154273" lon="11.675597432445041"><ele>460.0</ele><time>2026-04-17T08:57:51Z</time></trkpt><trkpt lat="48.33272740361836" lon="11.675213649902087"><ele>459.5</ele><time>2026-04-17T08:57:52Z</time></trkpt><trkpt lat="48.33271062572979" lon="11.674847024329875"><ele>459.0</ele><time>2026-04-17T08:57:53Z</time></trkpt><trkpt lat="48.33269617233393" lon="11.674500164369272"><ele>459.0</ele><time>2026-04-17T08:57:54Z</time></trkpt><trkpt lat="48.332682431425134" lon="11.674162491144406"><ele>459.0</ele><time>2026-04-17T08:57:55Z</time></trkpt><trkpt lat="48.332666607815106" lon="11.673830697429791"><ele>459.0</ele><time>2026-04-17T08:57:56Z</time></trkpt><trkpt lat="48.33264983411929" lon="11.673498864283024"><ele>459.0</ele><time>2026-04-17T08:57:57Z</time></trkpt><trkpt lat="48.33262901802462" lon="11.673144325343687"><ele>459.0</ele><time>2026-04-17T08:57:58Z</time></trkpt><trkpt lat="48.33260201569072" lon="11.672763957926561"><ele>458.5</ele><time>2026-04-17T08:57:59Z</time></trkpt><trkpt lat="48.332571365591015" lon="11.672356539087813"><ele>458.0</ele><time>2026-04-17T08:58:00Z</time></trkpt><trkpt lat="48.33253766554397" lon="11.671921604700596"><ele>457.5</ele><time>2026-04-17T08:58:01Z</time></trkpt><trkpt lat="48.332502391341045" lon="11.67147974510424"><ele>457.0</ele><time>2026-04-17T08:58:02Z</time></trkpt><trkpt lat="48.33246670084921" lon="11.671048511870406"><ele>457.0</ele><time>2026-04-17T08:58:03Z</time></trkpt><trkpt lat="48.33243207099908" lon="11.670623869246176"><ele>457.0</ele><time>2026-04-17T08:58:04Z</time></trkpt><trkpt lat="48.332395304213144" lon="11.670192341929527"><ele>457.5</ele><time>2026-04-17T08:58:05Z</time></trkpt><trkpt lat="48.33235119077926" lon="11.66975124128188"><ele>458.0</ele><time>2026-04-17T08:58:06Z</time></trkpt><trkpt lat="48.33230502758748" lon="11.669304507422927"><ele>458.5</ele><time>2026-04-17T08:58:07Z</time></trkpt><trkpt lat="48.33225885333236" lon="11.668866638343934"><ele>459.0</ele><time>2026-04-17T08:58:08Z</time></trkpt><trkpt lat="48.33221368555009" lon="11.668433663002041"><ele>458.0</ele><time>2026-04-17T08:58:09Z</time></trkpt><trkpt lat="48.33216847723856" lon="11.668000260939696"><ele>457.0</ele><time>2026-04-17T08:58:10Z</time></trkpt><trkpt lat="48.332122688131" lon="11.667561191403365"><ele>456.5</ele><time>2026-04-17T08:58:11Z</time></trkpt><trkpt lat="48.33207238029516" lon="11.667109076281406"><ele>456.0</ele><time>2026-04-17T08:58:12Z</time></trkpt><trkpt lat="48.332018315171496" lon="11.666657958821649"><ele>456.0</ele><time>2026-04-17T08:58:13Z</time></trkpt><trkpt lat="48.331960702306404" lon="11.666200910496892"><ele>456.0</ele><time>2026-04-17T08:58:14Z</time></trkpt><trkpt lat="48.33190050194807" lon="11.665738335422613"><ele>455.5</ele><time>2026-04-17T08:58:15Z</time></trkpt><trkpt lat="48.331840895729314" lon="11.665277511935377"><ele>455.0</ele><time>2026-04-17T08:58:16Z</time></trkpt><trkpt lat="48.3317810807832" lon="11.66482825583971"><ele>455.5</ele><time>2026-04-17T08:58:17Z</time></trkpt><trkpt lat="48.33172053896716" lon="11.664402091728928"><ele>456.0</ele><time>2026-04-17T08:58:18Z</time></trkpt><trkpt lat="48.33166013859315" lon="11.663996456101717"><ele>456.0</ele><time>2026-04-17T08:58:19Z</time></trkpt><trkpt lat="48.331598197165754" lon="11.663605541685385"><ele>456.0</ele><time>2026-04-17T08:58:20Z</time></trkpt><trkpt lat="48.331536594409556" lon="11.663224195131312"><ele>456.0</ele><time>2026-04-17T08:58:21Z</time></trkpt><trkpt lat="48.33147574787811" lon="11.662846973155608"><ele>456.0</ele><time>2026-04-17T08:58:22Z</time></trkpt><trkpt lat="48.331416908060596" lon="11.662471470971393"><ele>457.5</ele><time>2026-04-17T08:58:23Z</time></trkpt><trkpt lat="48.331355889123095" lon="11.662090995700709"><ele>459.0</ele><time>2026-04-17T08:58:24.001Z</time></trkpt><trkpt lat="48.33129168363256" lon="11.661703993757152"><ele>459.0</ele><time>2026-04-17T08:58:25.001Z</time></trkpt><trkpt lat="48.33122638150079" lon="11.66131042208965"><ele>459.0</ele><time>2026-04-17T08:58:26.001Z</time></trkpt><trkpt lat="48.33116050163036" lon="11.660917355710458"><ele>459.0</ele><time>2026-04-17T08:58:27.001Z</time></trkpt><trkpt lat="48.33109321581214" lon="11.6605505466101"><ele>459.0</ele><time>2026-04-17T08:58:28.001Z</time></trkpt><trkpt lat="48.33102582457689" lon="11.660196010559696"><ele>459.0</ele><time>2026-04-17T08:58:29.001Z</time></trkpt><trkpt lat="48.33096359486123" lon="11.659846877946759"><ele>459.0</ele><time>2026-04-17T08:58:30.001Z</time></trkpt><trkpt lat="48.330902130441686" lon="11.659502984484432"><ele>459.0</ele><time>2026-04-17T08:58:31.001Z</time></trkpt><trkpt lat="48.33083451989648" lon="11.65915890746665"><ele>459.0</ele><time>2026-04-17T08:58:32.001Z</time></trkpt><trkpt lat="48.33076301294799" lon="11.658807892431403"><ele>459.0</ele><time>2026-04-17T08:58:33.001Z</time></trkpt><trkpt lat="48.330691995203004" lon="11.65844427500717"><ele>459.0</ele><time>2026-04-17T08:58:34.001Z</time></trkpt><trkpt lat="48.33062003683978" lon="11.65807513332686"><ele>457.5</ele><time>2026-04-17T08:58:35.001Z</time></trkpt><trkpt lat="48.33054735684778" lon="11.657714927966364"><ele>456.0</ele><time>2026-04-17T08:58:36.001Z</time></trkpt><trkpt lat="48.330482827236814" lon="11.657371778403096"><ele>456.0</ele><time>2026-04-17T08:58:37.001Z</time></trkpt><trkpt lat="48.33041944509898" lon="11.657030388257152"><ele>456.0</ele><time>2026-04-17T08:58:38.001Z</time></trkpt><trkpt lat="48.330347692237" lon="11.656689365588607"><ele>457.0</ele><time>2026-04-17T08:58:39.001Z</time></trkpt><trkpt lat="48.33027224330747" lon="11.656339113240536"><ele>458.0</ele><time>2026-04-17T08:58:40.001Z</time></trkpt><trkpt lat="48.33019586774572" lon="11.655983312592738"><ele>458.5</ele><time>2026-04-17T08:58:41.001Z</time></trkpt><trkpt lat="48.330115870774485" lon="11.655622200915928"><ele>459.0</ele><time>2026-04-17T08:58:42.001Z</time></trkpt><trkpt lat="48.33003154319731" lon="11.655243219411659"><ele>459.0</ele><time>2026-04-17T08:58:43.001Z</time></trkpt><trkpt lat="48.329940945907836" lon="11.654845560463315"><ele>459.0</ele><time>2026-04-17T08:58:44.001Z</time></trkpt><trkpt lat="48.32984413962187" lon="11.654437852087373"><ele>459.0</ele><time>2026-04-17T08:58:45.001Z</time></trkpt><trkpt lat="48.32974680836575" lon="11.654024617470752"><ele>459.0</ele><time>2026-04-17T08:58:46.001Z</time></trkpt><trkpt lat="48.3296496735376" lon="11.653611679173697"><ele>459.0</ele><time>2026-04-17T08:58:47.001Z</time></trkpt><trkpt lat="48.329549474994714" lon="11.653193304349116"><ele>459.0</ele><time>2026-04-17T08:58:48.001Z</time></trkpt><trkpt lat="48.32944517828671" lon="11.652776818861254"><ele>458.5</ele><time>2026-04-17T08:58:49.001Z</time></trkpt><trkpt lat="48.32934189904383" lon="11.652369612949533"><ele>458.0</ele><time>2026-04-17T08:58:50.001Z</time></trkpt><trkpt lat="48.32924066339401" lon="11.651974642575793"><ele>457.5</ele><time>2026-04-17T08:58:51.001Z</time></trkpt><trkpt lat="48.329140972940394" lon="11.651589272220729"><ele>457.0</ele><time>2026-04-17T08:58:52.001Z</time></trkpt><trkpt lat="48.32904415277799" lon="11.651219219267757"><ele>457.0</ele><time>2026-04-17T08:58:53.001Z</time></trkpt><trkpt lat="48.32894808021439" lon="11.650852442996587"><ele>457.0</ele><time>2026-04-17T08:58:54.001Z</time></trkpt><trkpt lat="48.32884979551312" lon="11.650487216482487"><ele>457.0</ele><time>2026-04-17T08:58:55.001Z</time></trkpt><trkpt lat="48.32874557814805" lon="11.650117934526861"><ele>457.0</ele><time>2026-04-17T08:58:56.001Z</time></trkpt><trkpt lat="48.328637318132905" lon="11.649738076019807"><ele>457.0</ele><time>2026-04-17T08:58:57.001Z</time></trkpt><trkpt lat="48.32852632940021" lon="11.649349836173617"><ele>457.0</ele><time>2026-04-17T08:58:58.001Z</time></trkpt><trkpt lat="48.32841135459507" lon="11.648951640124778"><ele>456.5</ele><time>2026-04-17T08:58:59.001Z</time></trkpt><trkpt lat="48.32829268000955" lon="11.648544548901128"><ele>456.0</ele><time>2026-04-17T08:59:00.001Z</time></trkpt><trkpt lat="48.328172890348576" lon="11.648142417333453"><ele>457.0</ele><time>2026-04-17T08:59:01.001Z</time></trkpt><trkpt lat="48.32805157303328" lon="11.647744868118664"><ele>458.0</ele><time>2026-04-17T08:59:02.001Z</time></trkpt><trkpt lat="48.32794133455108" lon="11.6473635887818"><ele>458.0</ele><time>2026-04-17T08:59:03.001Z</time></trkpt><trkpt lat="48.327836674126196" lon="11.646997384838539"><ele>458.0</ele><time>2026-04-17T08:59:04.001Z</time></trkpt><trkpt lat="48.32773323986839" lon="11.64665081345344"><ele>458.0</ele><time>2026-04-17T08:59:05.001Z</time></trkpt><trkpt lat="48.3276313229699" lon="11.646319733596608"><ele>458.0</ele><time>2026-04-17T08:59:06.001Z</time></trkpt><trkpt lat="48.327532265578775" lon="11.645995154707869"><ele>458.0</ele><time>2026-04-17T08:59:07.001Z</time></trkpt><trkpt lat="48.32743451204096" lon="11.645645533179296"><ele>458.0</ele><time>2026-04-17T08:59:08.001Z</time></trkpt><trkpt lat="48.327321402790396" lon="11.645282297813296"><ele>457.5</ele><time>2026-04-17T08:59:09.001Z</time></trkpt><trkpt lat="48.32719171263372" lon="11.644905616436606"><ele>457.0</ele><time>2026-04-17T08:59:10.001Z</time></trkpt><trkpt lat="48.32706139830451" lon="11.644515872818161"><ele>457.5</ele><time>2026-04-17T08:59:11.001Z</time></trkpt><trkpt lat="48.326929313708135" lon="11.644130763579156"><ele>458.0</ele><time>2026-04-17T08:59:12.001Z</time></trkpt><trkpt lat="48.32679648777527" lon="11.64374928474691"><ele>457.5</ele><time>2026-04-17T08:59:13.001Z</time></trkpt><trkpt lat="48.32666233202802" lon="11.643365373763666"><ele>457.0</ele><time>2026-04-17T08:59:14.001Z</time></trkpt><trkpt lat="48.32653007090172" lon="11.642989742517939"><ele>457.0</ele><time>2026-04-17T08:59:15.001Z</time></trkpt><trkpt lat="48.32640352271238" lon="11.642634666297306"><ele>457.0</ele><time>2026-04-17T08:59:16.001Z</time></trkpt><trkpt lat="48.32628069235018" lon="11.642292805539165"><ele>457.5</ele><time>2026-04-17T08:59:17.001Z</time></trkpt><trkpt lat="48.32616316536016" lon="11.641958351822357"><ele>458.0</ele><time>2026-04-17T08:59:18.001Z</time></trkpt><trkpt lat="48.32605381175008" lon="11.641630698240801"><ele>458.0</ele><time>2026-04-17T08:59:19.001Z</time></trkpt><trkpt lat="48.32594649659233" lon="11.641304805816723"><ele>458.0</ele><time>2026-04-17T08:59:20.001Z</time></trkpt><trkpt lat="48.3258328192669" lon="11.640989433568885"><ele>458.0</ele><time>2026-04-17T08:59:21.001Z</time></trkpt><trkpt lat="48.32571003195079" lon="11.64068118425948"><ele>458.0</ele><time>2026-04-17T08:59:22.001Z</time></trkpt><trkpt lat="48.32558453213524" lon="11.640379362714329"><ele>457.0</ele><time>2026-04-17T08:59:23.001Z</time></trkpt><trkpt lat="48.3254585066384" lon="11.640075306159005"><ele>456.0</ele><time>2026-04-17T08:59:24.001Z</time></trkpt><trkpt lat="48.3253346543887" lon="11.639761296704734"><ele>456.5</ele><time>2026-04-17T08:59:25.001Z</time></trkpt><trkpt lat="48.32520767850076" lon="11.639441194558097"><ele>457.0</ele><time>2026-04-17T08:59:26.001Z</time></trkpt><trkpt lat="48.325073224633705" lon="11.639114411663854"><ele>457.0</ele><time>2026-04-17T08:59:27.001Z</time></trkpt><trkpt lat="48.32493308528443" lon="11.638770130366414"><ele>457.0</ele><time>2026-04-17T08:59:28.001Z</time></trkpt><trkpt lat="48.32479386366251" lon="11.638427912145175"><ele>457.0</ele><time>2026-04-17T08:59:29.001Z</time></trkpt><trkpt lat="48.32466107498755" lon="11.63810483624006"><ele>457.0</ele><time>2026-04-17T08:59:30.001Z</time></trkpt><trkpt lat="48.324529426691036" lon="11.637790570532554"><ele>457.0</ele><time>2026-04-17T08:59:31.001Z</time></trkpt><trkpt lat="48.324395803724705" lon="11.637478209257964"><ele>457.0</ele><time>2026-04-17T08:59:32.001Z</time></trkpt><trkpt lat="48.32425684488905" lon="11.637157843435386"><ele>457.0</ele><time>2026-04-17T08:59:33.001Z</time></trkpt><trkpt lat="48.32411816198854" lon="11.636838715969661"><ele>457.0</ele><time>2026-04-17T08:59:34.001Z</time></trkpt><trkpt lat="48.32398185714825" lon="11.636526568535276"><ele>457.0</ele><time>2026-04-17T08:59:35.001Z</time></trkpt><trkpt lat="48.32385260382053" lon="11.636235885713814"><ele>457.0</ele><time>2026-04-17T08:59:36.001Z</time></trkpt><trkpt lat="48.32372465775231" lon="11.635950083956033"><ele>457.5</ele><time>2026-04-17T08:59:37.001Z</time></trkpt><trkpt lat="48.323599291790664" lon="11.635659983942368"><ele>458.0</ele><time>2026-04-17T08:59:38.001Z</time></trkpt><trkpt lat="48.32348123539399" lon="11.635367658247404"><ele>459.5</ele><time>2026-04-17T08:59:39.001Z</time></trkpt><trkpt lat="48.32336974384226" lon="11.635072583283232"><ele>461.0</ele><time>2026-04-17T08:59:40.001Z</time></trkpt><trkpt lat="48.32325285364772" lon="11.634779787458706"><ele>461.0</ele><time>2026-04-17T08:59:41.001Z</time></trkpt><trkpt lat="48.32313441881876" lon="11.634502930290177"><ele>461.0</ele><time>2026-04-17T08:59:42.001Z</time></trkpt><trkpt lat="48.32300855243774" lon="11.634225467208001"><ele>461.0</ele><time>2026-04-17T08:59:43.002Z</time></trkpt><trkpt lat="48.32287075746139" lon="11.63393072543937"><ele>460.0</ele><time>2026-04-17T08:59:44.002Z</time></trkpt><trkpt lat="48.322720689141576" lon="11.633615441230768"><ele>459.0</ele><time>2026-04-17T08:59:45.002Z</time></trkpt><trkpt lat="48.32256021647679" lon="11.633281184782177"><ele>459.0</ele><time>2026-04-17T08:59:46.002Z</time></trkpt><trkpt lat="48.322397263323154" lon="11.632944911456391"><ele>459.0</ele><time>2026-04-17T08:59:47.002Z</time></trkpt><trkpt lat="48.32224591647513" lon="11.632627149200834"><ele>458.0</ele><time>2026-04-17T08:59:48.002Z</time></trkpt><trkpt lat="48.3221004596435" lon="11.632319106381656"><ele>457.0</ele><time>2026-04-17T08:59:49.002Z</time></trkpt><trkpt lat="48.3219568243805" lon="11.632022076672788"><ele>457.0</ele><time>2026-04-17T08:59:50.002Z</time></trkpt><trkpt lat="48.32181573712432" lon="11.631728985958604"><ele>457.0</ele><time>2026-04-17T08:59:51.002Z</time></trkpt><trkpt lat="48.32167665468175" lon="11.631435510626334"><ele>457.0</ele><time>2026-04-17T08:59:52.002Z</time></trkpt><trkpt lat="48.321537665400975" lon="11.631142407535856"><ele>457.0</ele><time>2026-04-17T08:59:53.002Z</time></trkpt><trkpt lat="48.32139599811051" lon="11.630847789755183"><ele>458.5</ele><time>2026-04-17T08:59:54.002Z</time></trkpt><trkpt lat="48.32125163079003" lon="11.630549138472466"><ele>460.0</ele><time>2026-04-17T08:59:55.002Z</time></trkpt><trkpt lat="48.32110422857232" lon="11.630246646467045"><ele>460.0</ele><time>2026-04-17T08:59:56.002Z</time></trkpt><trkpt lat="48.320965757083364" lon="11.629961161732867"><ele>460.0</ele><time>2026-04-17T08:59:57.002Z</time></trkpt><trkpt lat="48.32083560401157" lon="11.629688656825426"><ele>459.6666666666667</ele><time>2026-04-17T08:59:58.002Z</time></trkpt><trkpt lat="48.32071249503302" lon="11.62943131119902"><ele>459.33333333333337</ele><time>2026-04-17T08:59:59.002Z</time></trkpt><trkpt lat="48.32059107976872" lon="11.629179181282504"><ele>459.0</ele><time>2026-04-17T09:00:00.001Z</time></trkpt><trkpt lat="48.320469096559016" lon="11.628927024587552"><ele>459.0</ele><time>2026-04-17T09:00:01.001Z</time></trkpt><trkpt lat="48.32034420801845" lon="11.628670588011921"><ele>459.0</ele><time>2026-04-17T09:00:02.001Z</time></trkpt><trkpt lat="48.3202139758167" lon="11.628401531692443"><ele>459.0</ele><time>2026-04-17T09:00:03.001Z</time></trkpt><trkpt lat="48.32007988720191" lon="11.6281220702597"><ele>459.0</ele><time>2026-04-17T09:00:04.001Z</time></trkpt><trkpt lat="48.319941910991844" lon="11.62783200515582"><ele>459.0</ele><time>2026-04-17T09:00:05.001Z</time></trkpt><trkpt lat="48.319805476052096" lon="11.627547230728304"><ele>459.33333333333337</ele><time>2026-04-17T09:00:06.001Z</time></trkpt><trkpt lat="48.31967752719532" lon="11.627276125522908"><ele>459.6666666666667</ele><time>2026-04-17T09:00:07.001Z</time></trkpt><trkpt lat="48.31955230352128" lon="11.627010157433135"><ele>460.0</ele><time>2026-04-17T09:00:08.001Z</time></trkpt><trkpt lat="48.31942751486446" lon="11.6267493786999"><ele>460.0</ele><time>2026-04-17T09:00:09.001Z</time></trkpt><trkpt lat="48.319303011516126" lon="11.626487337058645"><ele>460.0</ele><time>2026-04-17T09:00:10.001Z</time></trkpt><trkpt lat="48.319187647789015" lon="11.626209580100408"><ele>460.0</ele><time>2026-04-17T09:00:11.001Z</time></trkpt><trkpt lat="48.31908635440568" lon="11.625914610698413"><ele>460.33333333333337</ele><time>2026-04-17T09:00:12.001Z</time></trkpt><trkpt lat="48.31899497848429" lon="11.625616548582684"><ele>460.66666666666663</ele><time>2026-04-17T09:00:13.001Z</time></trkpt><trkpt lat="48.31891089832687" lon="11.625328974336515"><ele>461.0</ele><time>2026-04-17T09:00:14.001Z</time></trkpt><trkpt lat="48.31883352555883" lon="11.625043719021013"><ele>460.0</ele><time>2026-04-17T09:00:15.001Z</time></trkpt><trkpt lat="48.31875865292089" lon="11.62474606290061"><ele>459.0</ele><time>2026-04-17T09:00:16.001Z</time></trkpt><trkpt lat="48.31868654632447" lon="11.624428021943652"><ele>458.0</ele><time>2026-04-17T09:00:17.001Z</time></trkpt><trkpt lat="48.31861929734127" lon="11.624103317373615"><ele>458.0</ele><time>2026-04-17T09:00:18.001Z</time></trkpt><trkpt lat="48.31855421308243" lon="11.623778354906753"><ele>458.0</ele><time>2026-04-17T09:00:19.001Z</time></trkpt><trkpt lat="48.31849184482748" lon="11.623454958844743"><ele>458.0</ele><time>2026-04-17T09:00:20.001Z</time></trkpt><trkpt lat="48.31842310776327" lon="11.623131076034845"><ele>458.0</ele><time>2026-04-17T09:00:21.001Z</time></trkpt><trkpt lat="48.31834596300377" lon="11.622809383600249"><ele>458.66666666666663</ele><time>2026-04-17T09:00:22.001Z</time></trkpt><trkpt lat="48.31826744637903" lon="11.622517411881487"><ele>459.33333333333337</ele><time>2026-04-17T09:00:23.001Z</time></trkpt><trkpt lat="48.31818144239997" lon="11.622254718487707"><ele>460.0</ele><time>2026-04-17T09:00:24.001Z</time></trkpt><trkpt lat="48.31809038537083" lon="11.622004567469501"><ele>460.6666666666667</ele><time>2026-04-17T09:00:25.001Z</time></trkpt><trkpt lat="48.31798833685379" lon="11.62176242158162"><ele>461.33333333333337</ele><time>2026-04-17T09:00:26.001Z</time></trkpt><trkpt lat="48.31787335197474" lon="11.62153676646928"><ele>462.0</ele><time>2026-04-17T09:00:27.001Z</time></trkpt><trkpt lat="48.31774545036594" lon="11.62132696663804"><ele>462.66666666666663</ele><time>2026-04-17T09:00:28.001Z</time></trkpt><trkpt lat="48.317608703757884" lon="11.621131411265646"><ele>463.3333333333333</ele><time>2026-04-17T09:00:29.001Z</time></trkpt><trkpt lat="48.3174631599151" lon="11.620955686959288"><ele>464.0</ele><time>2026-04-17T09:00:30.001Z</time></trkpt><trkpt lat="48.3173122716265" lon="11.620795812900521"><ele>463.66666666666663</ele><time>2026-04-17T09:00:31.001Z</time></trkpt><trkpt lat="48.317157475894035" lon="11.620655687983303"><ele>463.33333333333337</ele><time>2026-04-17T09:00:32.001Z</time></trkpt><trkpt lat="48.316993924698174" lon="11.620532660598776"><ele>463.0</ele><time>2026-04-17T09:00:33.001Z</time></trkpt><trkpt lat="48.3168203854441" lon="11.620428516429909"><ele>463.0</ele><time>2026-04-17T09:00:34.001Z</time></trkpt><trkpt lat="48.316634110538274" lon="11.620339743445754"><ele>463.0</ele><time>2026-04-17T09:00:35.001Z</time></trkpt><trkpt lat="48.316439308434745" lon="11.620273799919907"><ele>463.0</ele><time>2026-04-17T09:00:36.001Z</time></trkpt><trkpt lat="48.31624492810901" lon="11.620234595690683"><ele>462.33333333333337</ele><time>2026-04-17T09:00:37.001Z</time></trkpt><trkpt lat="48.316047371889894" lon="11.6202161506614"><ele>461.66666666666663</ele><time>2026-04-17T09:00:38.001Z</time></trkpt><trkpt lat="48.31585452239624" lon="11.62022165307358"><ele>461.0</ele><time>2026-04-17T09:00:39.001Z</time></trkpt><trkpt lat="48.31566435803376" lon="11.620253601047256"><ele>461.3333333333333</ele><time>2026-04-17T09:00:40.001Z</time></trkpt><trkpt lat="48.31547769496628" lon="11.620304442255884"><ele>461.66666666666663</ele><time>2026-04-17T09:00:41.001Z</time></trkpt><trkpt lat="48.31529271567005" lon="11.620372660056866"><ele>462.0</ele><time>2026-04-17T09:00:42.001Z</time></trkpt><trkpt lat="48.315109092343256" lon="11.620466992814922"><ele>462.0</ele><time>2026-04-17T09:00:43.001Z</time></trkpt><trkpt lat="48.314926844354375" lon="11.620584190796217"><ele>462.0</ele><time>2026-04-17T09:00:44.001Z</time></trkpt><trkpt lat="48.314748475766855" lon="11.620724982756071"><ele>462.0</ele><time>2026-04-17T09:00:45.001Z</time></trkpt><trkpt lat="48.31457888252517" lon="11.620883796047087"><ele>462.0</ele><time>2026-04-17T09:00:46.001Z</time></trkpt><trkpt lat="48.314416139286706" lon="11.621046051298864"><ele>462.0</ele><time>2026-04-17T09:00:47.001Z</time></trkpt><trkpt lat="48.31425401480505" lon="11.621206377555175"><ele>462.0</ele><time>2026-04-17T09:00:48.001Z</time></trkpt><trkpt lat="48.31409362774437" lon="11.621366123864503"><ele>462.33333333333337</ele><time>2026-04-17T09:00:49.001Z</time></trkpt><trkpt lat="48.31393002155951" lon="11.621539954768325"><ele>462.6666666666667</ele><time>2026-04-17T09:00:50.001Z</time></trkpt><trkpt lat="48.313769900791456" lon="11.621705107331048"><ele>463.0</ele><time>2026-04-17T09:00:51.001Z</time></trkpt><trkpt lat="48.313609031259716" lon="11.621868619941216"><ele>463.0</ele><time>2026-04-17T09:00:52.001Z</time></trkpt><trkpt lat="48.313449068860535" lon="11.622031971052605"><ele>463.0</ele><time>2026-04-17T09:00:53.001Z</time></trkpt><trkpt lat="48.31328580450801" lon="11.622186714780083"><ele>463.0</ele><time>2026-04-17T09:00:54.001Z</time></trkpt><trkpt lat="48.31312093869166" lon="11.622325799650707"><ele>462.6666666666667</ele><time>2026-04-17T09:00:55.001Z</time></trkpt><trkpt lat="48.312954293244" lon="11.622454997125622"><ele>462.33333333333337</ele><time>2026-04-17T09:00:56.001Z</time></trkpt><trkpt lat="48.31278356341608" lon="11.62258190856759"><ele>462.0</ele><time>2026-04-17T09:00:57.001Z</time></trkpt><trkpt lat="48.31260495865027" lon="11.622709469857144"><ele>462.66666666666663</ele><time>2026-04-17T09:00:58.001Z</time></trkpt><trkpt lat="48.312424035034006" lon="11.622833891711927"><ele>463.3333333333333</ele><time>2026-04-17T09:00:59.001Z</time></trkpt><trkpt lat="48.312244584099275" lon="11.622954486528728"><ele>464.0</ele><time>2026-04-17T09:01:00.001Z</time></trkpt><trkpt lat="48.31207034500903" lon="11.623073345265396"><ele>464.66666666666663</ele><time>2026-04-17T09:01:01.001Z</time></trkpt><trkpt lat="48.31190044567552" lon="11.623192369504277"><ele>465.33333333333337</ele><time>2026-04-17T09:01:02.001Z</time></trkpt><trkpt lat="48.31173115107662" lon="11.623313301926306"><ele>466.0</ele><time>2026-04-17T09:01:03.001Z</time></trkpt><trkpt lat="48.3115597054483" lon="11.623434918152315"><ele>465.6666666666667</ele><time>2026-04-17T09:01:04.001Z</time></trkpt><trkpt lat="48.31137941372142" lon="11.62356491546996"><ele>465.33333333333337</ele><time>2026-04-17T09:01:05.001Z</time></trkpt><trkpt lat="48.31118947282076" lon="11.623703368351128"><ele>465.0</ele><time>2026-04-17T09:01:06.001Z</time></trkpt><trkpt lat="48.31099025804002" lon="11.623850764951253"><ele>465.0</ele><time>2026-04-17T09:01:07.001Z</time></trkpt><trkpt lat="48.31078523958862" lon="11.624007217103083"><ele>465.0</ele><time>2026-04-17T09:01:08.001Z</time></trkpt><trkpt lat="48.310570278399275" lon="11.624171047162543"><ele>464.0</ele><time>2026-04-17T09:01:09.001Z</time></trkpt><trkpt lat="48.31036031704722" lon="11.62432961984674"><ele>463.0</ele><time>2026-04-17T09:01:10.001Z</time></trkpt><trkpt lat="48.310149338321445" lon="11.624477326943799"><ele>464.5</ele><time>2026-04-17T09:01:11.001Z</time></trkpt><trkpt lat="48.30992967616333" lon="11.62463055880329"><ele>466.0</ele><time>2026-04-17T09:01:12.001Z</time></trkpt><trkpt lat="48.30969997202367" lon="11.62479021165621"><ele>466.0</ele><time>2026-04-17T09:01:13.001Z</time></trkpt><trkpt lat="48.30946966732972" lon="11.624945725151264"><ele>466.0</ele><time>2026-04-17T09:01:14.001Z</time></trkpt><trkpt lat="48.30924990192691" lon="11.625095831348215"><ele>466.0</ele><time>2026-04-17T09:01:15.001Z</time></trkpt><trkpt lat="48.30904320299904" lon="11.625237492035179"><ele>466.0</ele><time>2026-04-17T09:01:16.001Z</time></trkpt><trkpt lat="48.30884109389903" lon="11.625371952697051"><ele>466.0</ele><time>2026-04-17T09:01:17.002Z</time></trkpt><trkpt lat="48.308641618789395" lon="11.625503802930524"><ele>467.0</ele><time>2026-04-17T09:01:18.002Z</time></trkpt><trkpt lat="48.308441629956185" lon="11.62563093753528"><ele>468.0</ele><time>2026-04-17T09:01:19.002Z</time></trkpt><trkpt lat="48.3082495371945" lon="11.625749991485446"><ele>469.0</ele><time>2026-04-17T09:01:20.002Z</time></trkpt><trkpt lat="48.30806238282226" lon="11.625866028945223"><ele>469.0</ele><time>2026-04-17T09:01:21.002Z</time></trkpt><trkpt lat="48.307873763076344" lon="11.625979897273327"><ele>469.0</ele><time>2026-04-17T09:01:22.002Z</time></trkpt><trkpt lat="48.30768248698577" lon="11.626093949220195"><ele>469.0</ele><time>2026-04-17T09:01:23.002Z</time></trkpt><trkpt lat="48.30748744036768" lon="11.626206138528213"><ele>469.0</ele><time>2026-04-17T09:01:24.002Z</time></trkpt><trkpt lat="48.30728284383936" lon="11.626319223221806"><ele>469.0</ele><time>2026-04-17T09:01:25.002Z</time></trkpt><trkpt lat="48.30707014741174" lon="11.626442568515996"><ele>469.0</ele><time>2026-04-17T09:01:26.002Z</time></trkpt><trkpt lat="48.30684844254371" lon="11.6265800730893"><ele>468.5</ele><time>2026-04-17T09:01:27.002Z</time></trkpt><trkpt lat="48.30661591912044" lon="11.626721039558886"><ele>468.0</ele><time>2026-04-17T09:01:28.002Z</time></trkpt><trkpt lat="48.306387809761425" lon="11.626855710070645"><ele>466.5</ele><time>2026-04-17T09:01:29.002Z</time></trkpt><trkpt lat="48.306168300350095" lon="11.626988549636849"><ele>465.0</ele><time>2026-04-17T09:01:30.002Z</time></trkpt><trkpt lat="48.30595854830795" lon="11.627113263855506"><ele>465.0</ele><time>2026-04-17T09:01:31.002Z</time></trkpt><trkpt lat="48.305748458763375" lon="11.627236698853114"><ele>465.0</ele><time>2026-04-17T09:01:32.002Z</time></trkpt><trkpt lat="48.3055392867823" lon="11.627359762732159"><ele>466.0</ele><time>2026-04-17T09:01:33.002Z</time></trkpt><trkpt lat="48.305328615524516" lon="11.627482562404554"><ele>467.0</ele><time>2026-04-17T09:01:34.002Z</time></trkpt><trkpt lat="48.30511688480966" lon="11.627607436242878"><ele>467.0</ele><time>2026-04-17T09:01:35.002Z</time></trkpt><trkpt lat="48.30491018584086" lon="11.627736839391437"><ele>467.0</ele><time>2026-04-17T09:01:36.002Z</time></trkpt><trkpt lat="48.3047044557257" lon="11.627869969835182"><ele>467.0</ele><time>2026-04-17T09:01:37.002Z</time></trkpt><trkpt lat="48.30450515032243" lon="11.627999047850592"><ele>467.0</ele><time>2026-04-17T09:01:38.002Z</time></trkpt><trkpt lat="48.30430702650772" lon="11.628125780224451"><ele>467.0</ele><time>2026-04-17T09:01:39.002Z</time></trkpt><trkpt lat="48.30410986238351" lon="11.628246998868585"><ele>467.0</ele><time>2026-04-17T09:01:40.002Z</time></trkpt><trkpt lat="48.30390928616708" lon="11.628363262899434"><ele>467.0</ele><time>2026-04-17T09:01:41.002Z</time></trkpt><trkpt lat="48.30370553707832" lon="11.628477688887564"><ele>467.0</ele><time>2026-04-17T09:01:42.002Z</time></trkpt><trkpt lat="48.30349560272267" lon="11.628597400368866"><ele>467.0</ele><time>2026-04-17T09:01:43.002Z</time></trkpt><trkpt lat="48.303277124018194" lon="11.62872237852489"><ele>465.5</ele><time>2026-04-17T09:01:44.002Z</time></trkpt><trkpt lat="48.303043972283" lon="11.628855139610872"><ele>464.0</ele><time>2026-04-17T09:01:45.002Z</time></trkpt><trkpt lat="48.3027972498212" lon="11.628995958694832"><ele>464.0</ele><time>2026-04-17T09:01:46.002Z</time></trkpt><trkpt lat="48.30253700253064" lon="11.629145313275744"><ele>464.0</ele><time>2026-04-17T09:01:47.002Z</time></trkpt><trkpt lat="48.30226779602869" lon="11.629305236469186"><ele>464.0</ele><time>2026-04-17T09:01:48.002Z</time></trkpt><trkpt lat="48.30199947455075" lon="11.629465262343947"><ele>464.0</ele><time>2026-04-17T09:01:49.002Z</time></trkpt><trkpt lat="48.301734318572585" lon="11.629621987422997"><ele>464.0</ele><time>2026-04-17T09:01:50.002Z</time></trkpt><trkpt lat="48.30146881289997" lon="11.629778315524996"><ele>464.0</ele><time>2026-04-17T09:01:51.002Z</time></trkpt><trkpt lat="48.301210637044306" lon="11.629928538371118"><ele>465.5</ele><time>2026-04-17T09:01:52.002Z</time></trkpt><trkpt lat="48.300959008542804" lon="11.630072774512906"><ele>467.0</ele><time>2026-04-17T09:01:53.002Z</time></trkpt><trkpt lat="48.30071325356104" lon="11.630216736857452"><ele>468.0</ele><time>2026-04-17T09:01:54.002Z</time></trkpt><trkpt lat="48.300467835749885" lon="11.630363720018371"><ele>469.0</ele><time>2026-04-17T09:01:55.002Z</time></trkpt><trkpt lat="48.300220728130355" lon="11.630511052014269"><ele>469.0</ele><time>2026-04-17T09:01:56.002Z</time></trkpt><trkpt lat="48.299971836221424" lon="11.630658687573995"><ele>469.0</ele><time>2026-04-17T09:01:57.002Z</time></trkpt><trkpt lat="48.2997222971278" lon="11.630810533629312"><ele>468.5</ele><time>2026-04-17T09:01:58.002Z</time></trkpt><trkpt lat="48.29947741132977" lon="11.630953484391478"><ele>468.0</ele><time>2026-04-17T09:01:59.002Z</time></trkpt><trkpt lat="48.29923987869274" lon="11.631089894842885"><ele>468.5</ele><time>2026-04-17T09:02:00.002Z</time></trkpt><trkpt lat="48.29900824467928" lon="11.631222119906747"><ele>469.0</ele><time>2026-04-17T09:02:01.002Z</time></trkpt><trkpt lat="48.29878379455756" lon="11.631349070721157"><ele>469.0</ele><time>2026-04-17T09:02:02.002Z</time></trkpt><trkpt lat="48.29855994681564" lon="11.631479443071338"><ele>469.0</ele><time>2026-04-17T09:02:03.002Z</time></trkpt><trkpt lat="48.298333384053" lon="11.631613261899266"><ele>469.0</ele><time>2026-04-17T09:02:04.002Z</time></trkpt><trkpt lat="48.298108044055" lon="11.63174761309069"><ele>469.0</ele><time>2026-04-17T09:02:05.002Z</time></trkpt><trkpt lat="48.29788221981288" lon="11.631881862495721"><ele>468.0</ele><time>2026-04-17T09:02:06.002Z</time></trkpt><trkpt lat="48.2976609500185" lon="11.632011824792622"><ele>467.0</ele><time>2026-04-17T09:02:07.002Z</time></trkpt><trkpt lat="48.29744031931405" lon="11.632142214133506"><ele>468.0</ele><time>2026-04-17T09:02:08.002Z</time></trkpt><trkpt lat="48.29721798259022" lon="11.632273647906771"><ele>469.0</ele><time>2026-04-17T09:02:09.002Z</time></trkpt><trkpt lat="48.29698863976657" lon="11.632408942716099"><ele>469.0</ele><time>2026-04-17T09:02:10.002Z</time></trkpt><trkpt lat="48.29674678930852" lon="11.632544064745831"><ele>469.0</ele><time>2026-04-17T09:02:11.002Z</time></trkpt><trkpt lat="48.29649781911129" lon="11.632694757305618"><ele>469.0</ele><time>2026-04-17T09:02:12.002Z</time></trkpt><trkpt lat="48.296257305865666" lon="11.632835451112216"><ele>469.0</ele><time>2026-04-17T09:02:13.002Z</time></trkpt><trkpt lat="48.29601315526547" lon="11.632973336042165"><ele>469.0</ele><time>2026-04-17T09:02:14.002Z</time></trkpt><trkpt lat="48.2957659792565" lon="11.633111554004822"><ele>469.0</ele><time>2026-04-17T09:02:15.002Z</time></trkpt><trkpt lat="48.29552811434524" lon="11.633246943407666"><ele>470.5</ele><time>2026-04-17T09:02:16.002Z</time></trkpt><trkpt lat="48.29529774446895" lon="11.633372361205966"><ele>472.0</ele><time>2026-04-17T09:02:17.001Z</time></trkpt><trkpt lat="48.29506949965254" lon="11.633491784035638"><ele>472.0</ele><time>2026-04-17T09:02:18.001Z</time></trkpt><trkpt lat="48.29484162900023" lon="11.633609448820799"><ele>472.0</ele><time>2026-04-17T09:02:19.001Z</time></trkpt><trkpt lat="48.29461460914702" lon="11.633727214995197"><ele>470.0</ele><time>2026-04-17T09:02:20.001Z</time></trkpt><trkpt lat="48.29439139969794" lon="11.633848981189331"><ele>468.0</ele><time>2026-04-17T09:02:21.001Z</time></trkpt><trkpt lat="48.29417031911586" lon="11.633966421193492"><ele>468.0</ele><time>2026-04-17T09:02:22.001Z</time></trkpt><trkpt lat="48.29395033387053" lon="11.634086654076029"><ele>468.0</ele><time>2026-04-17T09:02:23.001Z</time></trkpt><trkpt lat="48.29372615625713" lon="11.634204283387227"><ele>469.5</ele><time>2026-04-17T09:02:24.001Z</time></trkpt><trkpt lat="48.293497583006605" lon="11.634325558105456"><ele>471.0</ele><time>2026-04-17T09:02:25.001Z</time></trkpt><trkpt lat="48.29326888986306" lon="11.63444698104277"><ele>470.5</ele><time>2026-04-17T09:02:26.001Z</time></trkpt><trkpt lat="48.29303683162797" lon="11.63456934116296"><ele>470.0</ele><time>2026-04-17T09:02:27.001Z</time></trkpt><trkpt lat="48.292809913958436" lon="11.63468927794945"><ele>470.0</ele><time>2026-04-17T09:02:28.001Z</time></trkpt><trkpt lat="48.29258578264091" lon="11.634805940272303"><ele>470.0</ele><time>2026-04-17T09:02:29.001Z</time></trkpt><trkpt lat="48.29236362703386" lon="11.634924383103359"><ele>470.0</ele><time>2026-04-17T09:02:30.001Z</time></trkpt><trkpt lat="48.29214192213033" lon="11.63504184961564"><ele>470.0</ele><time>2026-04-17T09:02:31.001Z</time></trkpt><trkpt lat="48.29191682474385" lon="11.635161663086695"><ele>470.0</ele><time>2026-04-17T09:02:32.001Z</time></trkpt><trkpt lat="48.29168588108119" lon="11.635284764274285"><ele>470.0</ele><time>2026-04-17T09:02:33.001Z</time></trkpt><trkpt lat="48.29144900027805" lon="11.635407554680251"><ele>469.0</ele><time>2026-04-17T09:02:34.001Z</time></trkpt><trkpt lat="48.29121290356592" lon="11.635539152815593"><ele>468.0</ele><time>2026-04-17T09:02:35.001Z</time></trkpt><trkpt lat="48.290967323887934" lon="11.635665033050556"><ele>468.0</ele><time>2026-04-17T09:02:36.001Z</time></trkpt><trkpt lat="48.29071804125883" lon="11.635798271971975"><ele>468.0</ele><time>2026-04-17T09:02:37.001Z</time></trkpt><trkpt lat="48.290462693345454" lon="11.63593591304743"><ele>469.0</ele><time>2026-04-17T09:02:38.001Z</time></trkpt><trkpt lat="48.29020217857197" lon="11.636073259263593"><ele>470.0</ele><time>2026-04-17T09:02:39.001Z</time></trkpt><trkpt lat="48.289938126548876" lon="11.636210358124012"><ele>469.5</ele><time>2026-04-17T09:02:40.001Z</time></trkpt><trkpt lat="48.28967097595878" lon="11.63635049589483"><ele>469.0</ele><time>2026-04-17T09:02:41.001Z</time></trkpt><trkpt lat="48.28940906725265" lon="11.636489997868658"><ele>469.0</ele><time>2026-04-17T09:02:42.001Z</time></trkpt><trkpt lat="48.28915308990018" lon="11.636626699930035"><ele>469.0</ele><time>2026-04-17T09:02:43.001Z</time></trkpt><trkpt lat="48.28889995288734" lon="11.636762141798108"><ele>468.0</ele><time>2026-04-17T09:02:44.001Z</time></trkpt><trkpt lat="48.28864918040063" lon="11.636893211108712"><ele>467.0</ele><time>2026-04-17T09:02:45.001Z</time></trkpt><trkpt lat="48.288398632472614" lon="11.637025655919523"><ele>467.0</ele><time>2026-04-17T09:02:46.001Z</time></trkpt><trkpt lat="48.28814312063054" lon="11.637160454130786"><ele>467.0</ele><time>2026-04-17T09:02:47.001Z</time></trkpt><trkpt lat="48.28788366769891" lon="11.637299548475362"><ele>468.0</ele><time>2026-04-17T09:02:48.001Z</time></trkpt><trkpt lat="48.28762047060954" lon="11.63743778650142"><ele>469.0</ele><time>2026-04-17T09:02:49.001Z</time></trkpt><trkpt lat="48.28735832303695" lon="11.63757770104826"><ele>469.0</ele><time>2026-04-17T09:02:50.001Z</time></trkpt><trkpt lat="48.28710146190673" lon="11.637713263831722"><ele>469.0</ele><time>2026-04-17T09:02:51.001Z</time></trkpt><trkpt lat="48.286850908055705" lon="11.637844737087674"><ele>469.0</ele><time>2026-04-17T09:02:52.001Z</time></trkpt><trkpt lat="48.28660802329522" lon="11.637972341987833"><ele>469.0</ele><time>2026-04-17T09:02:53.001Z</time></trkpt><trkpt lat="48.286367434384424" lon="11.638099111044129"><ele>469.0</ele><time>2026-04-17T09:02:54.001Z</time></trkpt><trkpt lat="48.28612859108008" lon="11.638226479925272"><ele>469.0</ele><time>2026-04-17T09:02:55.001Z</time></trkpt><trkpt lat="48.28588682996041" lon="11.638353490608756"><ele>469.0</ele><time>2026-04-17T09:02:56.001Z</time></trkpt><trkpt lat="48.285640305452475" lon="11.638485054637604"><ele>469.0</ele><time>2026-04-17T09:02:57.001Z</time></trkpt><trkpt lat="48.28539038919739" lon="11.638621782370373"><ele>468.5</ele><time>2026-04-17T09:02:58.001Z</time></trkpt><trkpt lat="48.285136103789654" lon="11.638753930183496"><ele>468.0</ele><time>2026-04-17T09:02:59.001Z</time></trkpt><trkpt lat="48.28487823268998" lon="11.638888252571125"><ele>469.5</ele><time>2026-04-17T09:03:00.001Z</time></trkpt><trkpt lat="48.28461557011294" lon="11.639020047101116"><ele>471.0</ele><time>2026-04-17T09:03:01.001Z</time></trkpt><trkpt lat="48.28434667050979" lon="11.63915326566995"><ele>471.0</ele><time>2026-04-17T09:03:02.001Z</time></trkpt><trkpt lat="48.284076264684934" lon="11.639286130816318"><ele>471.0</ele><time>2026-04-17T09:03:03.001Z</time></trkpt><trkpt lat="48.28381048730395" lon="11.639409377444597"><ele>470.0</ele><time>2026-04-17T09:03:04.001Z</time></trkpt><trkpt lat="48.283552776903385" lon="11.639526024375812"><ele>469.0</ele><time>2026-04-17T09:03:05.001Z</time></trkpt><trkpt lat="48.28330521770089" lon="11.63964035629458"><ele>469.5</ele><time>2026-04-17T09:03:06.001Z</time></trkpt><trkpt lat="48.283059690134955" lon="11.639754167000193"><ele>470.0</ele><time>2026-04-17T09:03:07.001Z</time></trkpt><trkpt lat="48.282813152241445" lon="11.639861887190344"><ele>470.0</ele><time>2026-04-17T09:03:08.001Z</time></trkpt><trkpt lat="48.282564875608294" lon="11.639972910357608"><ele>470.0</ele><time>2026-04-17T09:03:09.001Z</time></trkpt><trkpt lat="48.282317370754356" lon="11.640077250956622"><ele>471.0</ele><time>2026-04-17T09:03:10.001Z</time></trkpt><trkpt lat="48.282070400268" lon="11.640178985327484"><ele>472.0</ele><time>2026-04-17T09:03:11.001Z</time></trkpt><trkpt lat="48.28182166678503" lon="11.640276842044726"><ele>471.5</ele><time>2026-04-17T09:03:12.001Z</time></trkpt><trkpt lat="48.28156979016198" lon="11.64037804611085"><ele>471.0</ele><time>2026-04-17T09:03:13.001Z</time></trkpt><trkpt lat="48.2813147232973" lon="11.640480970729822"><ele>471.0</ele><time>2026-04-17T09:03:14.001Z</time></trkpt><trkpt lat="48.28105816928113" lon="11.640581898684504"><ele>471.0</ele><time>2026-04-17T09:03:15.001Z</time></trkpt><trkpt lat="48.28080156516937" lon="11.640678583557001"><ele>471.0</ele><time>2026-04-17T09:03:16.001Z</time></trkpt><trkpt lat="48.280546238675484" lon="11.640772970697387"><ele>471.0</ele><time>2026-04-17T09:03:17.001Z</time></trkpt><trkpt lat="48.28029302086354" lon="11.640863532823097"><ele>471.0</ele><time>2026-04-17T09:03:18.001Z</time></trkpt><trkpt lat="48.2800419061846" lon="11.64095001562065"><ele>471.0</ele><time>2026-04-17T09:03:19.001Z</time></trkpt><trkpt lat="48.27979676377104" lon="11.641034232796859"><ele>471.5</ele><time>2026-04-17T09:03:20.001Z</time></trkpt><trkpt lat="48.27955762024173" lon="11.6411030112515"><ele>472.0</ele><time>2026-04-17T09:03:21.001Z</time></trkpt><trkpt lat="48.279325085140464" lon="11.641161208491148"><ele>472.5</ele><time>2026-04-17T09:03:22.002Z</time></trkpt><trkpt lat="48.27910070339818" lon="11.641220309789768"><ele>473.0</ele><time>2026-04-17T09:03:23.002Z</time></trkpt><trkpt lat="48.278877943325874" lon="11.641273756164303"><ele>473.5</ele><time>2026-04-17T09:03:24.002Z</time></trkpt><trkpt lat="48.27865532291677" lon="11.641348084185216"><ele>474.0</ele><time>2026-04-17T09:03:25.002Z</time></trkpt><trkpt lat="48.27843260883174" lon="11.641428439889854"><ele>474.0</ele><time>2026-04-17T09:03:26.002Z</time></trkpt><trkpt lat="48.27820087695884" lon="11.641509268422523"><ele>474.0</ele><time>2026-04-17T09:03:27.002Z</time></trkpt><trkpt lat="48.277956823030316" lon="11.641592487683198"><ele>474.0</ele><time>2026-04-17T09:03:28.002Z</time></trkpt><trkpt lat="48.27769986588659" lon="11.641677676804527"><ele>474.0</ele><time>2026-04-17T09:03:29.002Z</time></trkpt><trkpt lat="48.27743610798398" lon="11.641767595758694"><ele>473.5</ele><time>2026-04-17T09:03:30.002Z</time></trkpt><trkpt lat="48.2771702700855" lon="11.641859054872043"><ele>473.0</ele><time>2026-04-17T09:03:31.002Z</time></trkpt><trkpt lat="48.27690205088857" lon="11.641948164118677"><ele>473.5</ele><time>2026-04-17T09:03:32.002Z</time></trkpt><trkpt lat="48.276629853627135" lon="11.642039725775708"><ele>474.0</ele><time>2026-04-17T09:03:33.002Z</time></trkpt><trkpt lat="48.27635485122362" lon="11.64213343354446"><ele>475.0</ele><time>2026-04-17T09:03:34.002Z</time></trkpt><trkpt lat="48.27607827448106" lon="11.642228558229686"><ele>476.0</ele><time>2026-04-17T09:03:35.002Z</time></trkpt><trkpt lat="48.27580393581115" lon="11.642321109974418"><ele>475.0</ele><time>2026-04-17T09:03:36.002Z</time></trkpt><trkpt lat="48.27553288688173" lon="11.642414451438814"><ele>474.0</ele><time>2026-04-17T09:03:37.002Z</time></trkpt><trkpt lat="48.27526422226473" lon="11.642508000750436"><ele>474.0</ele><time>2026-04-17T09:03:38.002Z</time></trkpt><trkpt lat="48.27501148880281" lon="11.642591323128926"><ele>474.0</ele><time>2026-04-17T09:03:39.002Z</time></trkpt><trkpt lat="48.27477286031297" lon="11.642670322187826"><ele>474.0</ele><time>2026-04-17T09:03:40.002Z</time></trkpt><trkpt lat="48.27454743062628" lon="11.642746223453102"><ele>474.0</ele><time>2026-04-17T09:03:41.002Z</time></trkpt><trkpt lat="48.27433079970475" lon="11.642821969444828"><ele>473.5</ele><time>2026-04-17T09:03:42.002Z</time></trkpt><trkpt lat="48.274115338918214" lon="11.642898017488884"><ele>473.0</ele><time>2026-04-17T09:03:43.002Z</time></trkpt><trkpt lat="48.273892308776276" lon="11.64297218293906"><ele>472.0</ele><time>2026-04-17T09:03:44.002Z</time></trkpt><trkpt lat="48.27366150563601" lon="11.643049122864303"><ele>471.0</ele><time>2026-04-17T09:03:45.002Z</time></trkpt><trkpt lat="48.273422459631654" lon="11.643130048892619"><ele>471.0</ele><time>2026-04-17T09:03:46.002Z</time></trkpt><trkpt lat="48.27317251911691" lon="11.643210840401355"><ele>471.0</ele><time>2026-04-17T09:03:47.002Z</time></trkpt><trkpt lat="48.272913066584444" lon="11.643295495666846"><ele>471.5</ele><time>2026-04-17T09:03:48.002Z</time></trkpt><trkpt lat="48.27264177169699" lon="11.643386774218618"><ele>472.0</ele><time>2026-04-17T09:03:49.002Z</time></trkpt><trkpt lat="48.272367731508524" lon="11.64348235335418"><ele>472.5</ele><time>2026-04-17T09:03:50.002Z</time></trkpt><trkpt lat="48.2721161253947" lon="11.643569537230224"><ele>473.0</ele><time>2026-04-17T09:03:51.002Z</time></trkpt><trkpt lat="48.271873902486156" lon="11.643651982348613"><ele>473.0</ele><time>2026-04-17T09:03:52.002Z</time></trkpt><trkpt lat="48.271631594973755" lon="11.643731874897961"><ele>473.0</ele><time>2026-04-17T09:03:53.002Z</time></trkpt><trkpt lat="48.271392707597606" lon="11.64381188355897"><ele>473.5</ele><time>2026-04-17T09:03:54.002Z</time></trkpt><trkpt lat="48.271156876196656" lon="11.64389167472058"><ele>474.0</ele><time>2026-04-17T09:03:55.002Z</time></trkpt><trkpt lat="48.27091610409031" lon="11.643972949271161"><ele>474.0</ele><time>2026-04-17T09:03:56.002Z</time></trkpt><trkpt lat="48.27067039138427" lon="11.644054890212297"><ele>474.0</ele><time>2026-04-17T09:03:57.002Z</time></trkpt><trkpt lat="48.27042317069942" lon="11.64413718034732"><ele>474.0</ele><time>2026-04-17T09:03:58.002Z</time></trkpt><trkpt lat="48.27017534967115" lon="11.644219117897116"><ele>474.0</ele><time>2026-04-17T09:03:59.002Z</time></trkpt><trkpt lat="48.26993000092249" lon="11.644304879396218"><ele>474.5</ele><time>2026-04-17T09:04:00.002Z</time></trkpt><trkpt lat="48.26968908181909" lon="11.644387541101946"><ele>475.0</ele><time>2026-04-17T09:04:01.002Z</time></trkpt><trkpt lat="48.26945120377455" lon="11.644469424160336"><ele>475.5</ele><time>2026-04-17T09:04:02.002Z</time></trkpt><trkpt lat="48.26921469644017" lon="11.644551531514013"><ele>476.0</ele><time>2026-04-17T09:04:03.002Z</time></trkpt><trkpt lat="48.26897743947553" lon="11.644631252414644"><ele>475.0</ele><time>2026-04-17T09:04:04.002Z</time></trkpt><trkpt lat="48.26873781589025" lon="11.644711334959698"><ele>474.0</ele><time>2026-04-17T09:04:05.002Z</time></trkpt><trkpt lat="48.268496181572644" lon="11.6447949397937"><ele>474.0</ele><time>2026-04-17T09:04:06.002Z</time></trkpt><trkpt lat="48.26825142250673" lon="11.644880546399477"><ele>474.0</ele><time>2026-04-17T09:04:07.002Z</time></trkpt><trkpt lat="48.268003424671576" lon="11.644964796488338"><ele>474.5</ele><time>2026-04-17T09:04:08.002Z</time></trkpt><trkpt lat="48.267752694772554" lon="11.645048837580868"><ele>475.0</ele><time>2026-04-17T09:04:09.002Z</time></trkpt><trkpt lat="48.26750287243318" lon="11.645131327505707"><ele>475.5</ele><time>2026-04-17T09:04:10.002Z</time></trkpt><trkpt lat="48.26725200314809" lon="11.645214625007046"><ele>476.0</ele><time>2026-04-17T09:04:11.002Z</time></trkpt><trkpt lat="48.267001161088764" lon="11.645300573831339"><ele>476.0</ele><time>2026-04-17T09:04:12.002Z</time></trkpt><trkpt lat="48.26675218258568" lon="11.645386798939624"><ele>476.0</ele><time>2026-04-17T09:04:13.002Z</time></trkpt><trkpt lat="48.26650496558306" lon="11.64547084156441"><ele>476.5</ele><time>2026-04-17T09:04:14.002Z</time></trkpt><trkpt lat="48.26625776771575" lon="11.64555599156067"><ele>477.0</ele><time>2026-04-17T09:04:15.002Z</time></trkpt><trkpt lat="48.26601335930419" lon="11.645641440297563"><ele>477.0</ele><time>2026-04-17T09:04:16.002Z</time></trkpt><trkpt lat="48.26577395706108" lon="11.645725996251173"><ele>477.0</ele><time>2026-04-17T09:04:17.002Z</time></trkpt><trkpt lat="48.26553456027392" lon="11.645809804320168"><ele>476.5</ele><time>2026-04-17T09:04:18.002Z</time></trkpt><trkpt lat="48.265291547229786" lon="11.645889125186352"><ele>476.0</ele><time>2026-04-17T09:04:19.002Z</time></trkpt><trkpt lat="48.265049160342585" lon="11.645970798983312"><ele>476.0</ele><time>2026-04-17T09:04:20.002Z</time></trkpt><trkpt lat="48.26481933241032" lon="11.64604725379495"><ele>476.0</ele><time>2026-04-17T09:04:21.002Z</time></trkpt><trkpt lat="48.26460212229672" lon="11.6461226819105"><ele>477.3333333333333</ele><time>2026-04-17T09:04:22.002Z</time></trkpt><trkpt lat="48.26439170957388" lon="11.646197351243064"><ele>478.66666666666663</ele><time>2026-04-17T09:04:23.002Z</time></trkpt><trkpt lat="48.264179430877384" lon="11.646269097855983"><ele>480.0</ele><time>2026-04-17T09:04:24.002Z</time></trkpt><trkpt lat="48.26396087823036" lon="11.646340087468756"><ele>479.5</ele><time>2026-04-17T09:04:25.001Z</time></trkpt><trkpt lat="48.263740630781164" lon="11.64641555499638"><ele>479.0</ele><time>2026-04-17T09:04:26.001Z</time></trkpt><trkpt lat="48.263507978072724" lon="11.646498606036115"><ele>479.0</ele><time>2026-04-17T09:04:27.001Z</time></trkpt><trkpt lat="48.26327937345191" lon="11.646575023902296"><ele>479.0</ele><time>2026-04-17T09:04:28.001Z</time></trkpt><trkpt lat="48.26306197295068" lon="11.64664055849179"><ele>477.3333333333333</ele><time>2026-04-17T09:04:29.001Z</time></trkpt><trkpt lat="48.26285483325603" lon="11.646699897013772"><ele>475.66666666666663</ele><time>2026-04-17T09:04:30.001Z</time></trkpt><trkpt lat="48.262648741174665" lon="11.646754811114134"><ele>474.0</ele><time>2026-04-17T09:04:31.001Z</time></trkpt><trkpt lat="48.26244109830998" lon="11.646812613178268"><ele>474.66666666666663</ele><time>2026-04-17T09:04:32.001Z</time></trkpt><trkpt lat="48.262226744764355" lon="11.646870327953133"><ele>475.3333333333333</ele><time>2026-04-17T09:04:33.001Z</time></trkpt><trkpt lat="48.2620120390744" lon="11.646917925743923"><ele>476.0</ele><time>2026-04-17T09:04:34.001Z</time></trkpt><trkpt lat="48.26180311746333" lon="11.64695793267334"><ele>475.66666666666663</ele><time>2026-04-17T09:04:35.001Z</time></trkpt><trkpt lat="48.261598240396836" lon="11.646992701692161"><ele>475.33333333333337</ele><time>2026-04-17T09:04:36.001Z</time></trkpt><trkpt lat="48.26139023709976" lon="11.647023341799455"><ele>475.0</ele><time>2026-04-17T09:04:37.001Z</time></trkpt><trkpt lat="48.261172324444225" lon="11.647046131590058"><ele>475.0</ele><time>2026-04-17T09:04:38.001Z</time></trkpt><trkpt lat="48.26094603151997" lon="11.647065123638532"><ele>475.0</ele><time>2026-04-17T09:04:39.001Z</time></trkpt><trkpt lat="48.260703622782884" lon="11.64708246516776"><ele>476.5</ele><time>2026-04-17T09:04:40.001Z</time></trkpt><trkpt lat="48.260448507124956" lon="11.647091482313217"><ele>478.0</ele><time>2026-04-17T09:04:41.001Z</time></trkpt><trkpt lat="48.26018194653903" lon="11.647097259482159"><ele>478.0</ele><time>2026-04-17T09:04:42.001Z</time></trkpt><trkpt lat="48.25990543672996" lon="11.64710021760916"><ele>478.0</ele><time>2026-04-17T09:04:43.001Z</time></trkpt><trkpt lat="48.2596189433451" lon="11.647100253639115"><ele>478.5</ele><time>2026-04-17T09:04:44.001Z</time></trkpt><trkpt lat="48.25932501289755" lon="11.647093340406869"><ele>479.0</ele><time>2026-04-17T09:04:45.001Z</time></trkpt><trkpt lat="48.259040871872685" lon="11.647076199073835"><ele>478.0</ele><time>2026-04-17T09:04:46.001Z</time></trkpt><trkpt lat="48.2587575351826" lon="11.64705406897992"><ele>477.0</ele><time>2026-04-17T09:04:47.001Z</time></trkpt><trkpt lat="48.2584750443192" lon="11.647028170662994"><ele>477.0</ele><time>2026-04-17T09:04:48.001Z</time></trkpt><trkpt lat="48.25819097438421" lon="11.64699170763864"><ele>477.0</ele><time>2026-04-17T09:04:49.001Z</time></trkpt><trkpt lat="48.25790536528996" lon="11.646946355392714"><ele>478.0</ele><time>2026-04-17T09:04:50.001Z</time></trkpt><trkpt lat="48.257617833051285" lon="11.646892606635019"><ele>479.0</ele><time>2026-04-17T09:04:51.001Z</time></trkpt><trkpt lat="48.25733301677494" lon="11.646834533253193"><ele>478.5</ele><time>2026-04-17T09:04:52.001Z</time></trkpt><trkpt lat="48.25704781811743" lon="11.646768705448313"><ele>478.0</ele><time>2026-04-17T09:04:53.001Z</time></trkpt><trkpt lat="48.256761265178504" lon="11.6466955925964"><ele>478.0</ele><time>2026-04-17T09:04:54.001Z</time></trkpt><trkpt lat="48.25647403605697" lon="11.646617075253472"><ele>478.0</ele><time>2026-04-17T09:04:55.001Z</time></trkpt><trkpt lat="48.25618865677107" lon="11.646531578280817"><ele>480.0</ele><time>2026-04-17T09:04:56.001Z</time></trkpt><trkpt lat="48.25590263020871" lon="11.646440358376529"><ele>482.0</ele><time>2026-04-17T09:04:57.001Z</time></trkpt><trkpt lat="48.25561728079755" lon="11.646341001340277"><ele>482.5</ele><time>2026-04-17T09:04:58.001Z</time></trkpt><trkpt lat="48.255333060595405" lon="11.64623270756772"><ele>483.0</ele><time>2026-04-17T09:04:59.001Z</time></trkpt><trkpt lat="48.25505141890314" lon="11.646117317737648"><ele>482.5</ele><time>2026-04-17T09:05:00.001Z</time></trkpt><trkpt lat="48.25478087951122" lon="11.645996515608832"><ele>482.0</ele><time>2026-04-17T09:05:01.001Z</time></trkpt><trkpt lat="48.254511426259064" lon="11.645874130362829"><ele>482.0</ele><time>2026-04-17T09:05:02.001Z</time></trkpt><trkpt lat="48.25425077288273" lon="11.645740137717596"><ele>482.0</ele><time>2026-04-17T09:05:03.001Z</time></trkpt><trkpt lat="48.25399669143803" lon="11.645580533713161"><ele>481.0</ele><time>2026-04-17T09:05:04.001Z</time></trkpt><trkpt lat="48.253740657746796" lon="11.645423236209108"><ele>480.0</ele><time>2026-04-17T09:05:05.001Z</time></trkpt><trkpt lat="48.253485653963395" lon="11.645294213149493"><ele>479.5</ele><time>2026-04-17T09:05:06.001Z</time></trkpt><trkpt lat="48.253258235303605" lon="11.645183250793632"><ele>479.0</ele><time>2026-04-17T09:05:07.001Z</time></trkpt><trkpt lat="48.25304011139397" lon="11.645075525192123"><ele>481.0</ele><time>2026-04-17T09:05:08.001Z</time></trkpt><trkpt lat="48.252824517341" lon="11.644967778425755"><ele>483.0</ele><time>2026-04-17T09:05:09.001Z</time></trkpt><trkpt lat="48.25260809884659" lon="11.644860227607294"><ele>483.0</ele><time>2026-04-17T09:05:10.001Z</time></trkpt><trkpt lat="48.25238491915508" lon="11.644748720923813"><ele>483.0</ele><time>2026-04-17T09:05:11.001Z</time></trkpt><trkpt lat="48.25215602575459" lon="11.644635069939516"><ele>483.0</ele><time>2026-04-17T09:05:12.001Z</time></trkpt><trkpt lat="48.25192182220099" lon="11.644518928599659"><ele>483.0</ele><time>2026-04-17T09:05:13.001Z</time></trkpt><trkpt lat="48.251681099414945" lon="11.644398937916714"><ele>484.0</ele><time>2026-04-17T09:05:14.001Z</time></trkpt><trkpt lat="48.25143715023684" lon="11.644278001280403"><ele>485.0</ele><time>2026-04-17T09:05:15.001Z</time></trkpt><trkpt lat="48.251179765376904" lon="11.64415231537851"><ele>485.0</ele><time>2026-04-17T09:05:16.001Z</time></trkpt><trkpt lat="48.25090896509121" lon="11.644018718109487"><ele>485.0</ele><time>2026-04-17T09:05:17.001Z</time></trkpt><trkpt lat="48.25062747076858" lon="11.64387446197929"><ele>484.5</ele><time>2026-04-17T09:05:18.001Z</time></trkpt><trkpt lat="48.25033793238068" lon="11.643724655952562"><ele>484.0</ele><time>2026-04-17T09:05:19.001Z</time></trkpt><trkpt lat="48.25005824894439" lon="11.643582780770116"><ele>484.5</ele><time>2026-04-17T09:05:20.001Z</time></trkpt><trkpt lat="48.24979063551588" lon="11.64344694307477"><ele>485.0</ele><time>2026-04-17T09:05:21.001Z</time></trkpt><trkpt lat="48.24952539943627" lon="11.643311856357183"><ele>485.0</ele><time>2026-04-17T09:05:22.001Z</time></trkpt><trkpt lat="48.24925489227605" lon="11.643174340876673"><ele>485.0</ele><time>2026-04-17T09:05:23.001Z</time></trkpt><trkpt lat="48.24898182159645" lon="11.643035811505019"><ele>485.0</ele><time>2026-04-17T09:05:24.001Z</time></trkpt><trkpt lat="48.24870446141086" lon="11.642899374089257"><ele>485.0</ele><time>2026-04-17T09:05:25.001Z</time></trkpt><trkpt lat="48.24843140905796" lon="11.642764670532591"><ele>485.0</ele><time>2026-04-17T09:05:26.001Z</time></trkpt><trkpt lat="48.248167453559326" lon="11.642633071517915"><ele>485.0</ele><time>2026-04-17T09:05:27.001Z</time></trkpt><trkpt lat="48.24791414794174" lon="11.642503578697196"><ele>484.0</ele><time>2026-04-17T09:05:28.001Z</time></trkpt><trkpt lat="48.24766858594199" lon="11.642378374362012"><ele>483.0</ele><time>2026-04-17T09:05:29.001Z</time></trkpt><trkpt lat="48.24742598128565" lon="11.642256214297072"><ele>482.5</ele><time>2026-04-17T09:05:30.001Z</time></trkpt><trkpt lat="48.24718991341631" lon="11.642136878447884"><ele>482.0</ele><time>2026-04-17T09:05:31.001Z</time></trkpt><trkpt lat="48.24695808466573" lon="11.642020514333442"><ele>483.0</ele><time>2026-04-17T09:05:32.001Z</time></trkpt><trkpt lat="48.246729018989015" lon="11.64190748304671"><ele>484.0</ele><time>2026-04-17T09:05:33.001Z</time></trkpt><trkpt lat="48.24649951154316" lon="11.641793908223379"><ele>484.0</ele><time>2026-04-17T09:05:34.001Z</time></trkpt><trkpt lat="48.24626391314964" lon="11.641675802316549"><ele>484.0</ele><time>2026-04-17T09:05:35.001Z</time></trkpt><trkpt lat="48.246023191444806" lon="11.641553696778855"><ele>484.0</ele><time>2026-04-17T09:05:36.001Z</time></trkpt><trkpt lat="48.24577120748921" lon="11.641430070900958"><ele>484.0</ele><time>2026-04-17T09:05:37.001Z</time></trkpt><trkpt lat="48.245515896695395" lon="11.641302961344437"><ele>484.0</ele><time>2026-04-17T09:05:38.001Z</time></trkpt><trkpt lat="48.24525886511057" lon="11.641182626985337"><ele>484.0</ele><time>2026-04-17T09:05:39.001Z</time></trkpt><trkpt lat="48.24501077843578" lon="11.641076211209487"><ele>485.5</ele><time>2026-04-17T09:05:40.001Z</time></trkpt><trkpt lat="48.244768756540374" lon="11.640973879319393"><ele>487.0</ele><time>2026-04-17T09:05:41.001Z</time></trkpt><trkpt lat="48.244535687613734" lon="11.640867658808192"><ele>487.0</ele><time>2026-04-17T09:05:42.001Z</time></trkpt><trkpt lat="48.244309122844726" lon="11.640759417414136"><ele>487.0</ele><time>2026-04-17T09:05:43.001Z</time></trkpt><trkpt lat="48.24408650340481" lon="11.640646960529413"><ele>487.0</ele><time>2026-04-17T09:05:44.001Z</time></trkpt><trkpt lat="48.24386242780823" lon="11.640526895803228"><ele>487.0</ele><time>2026-04-17T09:05:45.001Z</time></trkpt><trkpt lat="48.2436373791078" lon="11.640408963984429"><ele>486.0</ele><time>2026-04-17T09:05:46.001Z</time></trkpt><trkpt lat="48.24340837945266" lon="11.640292565188044"><ele>485.0</ele><time>2026-04-17T09:05:47.001Z</time></trkpt><trkpt lat="48.24317347749667" lon="11.640177538670569"><ele>483.5</ele><time>2026-04-17T09:05:48.001Z</time></trkpt><trkpt lat="48.24293313970927" lon="11.640060166000223"><ele>482.0</ele><time>2026-04-17T09:05:49.001Z</time></trkpt><trkpt lat="48.242683921664934" lon="11.63993888493016"><ele>482.0</ele><time>2026-04-17T09:05:50.001Z</time></trkpt><trkpt lat="48.2424276374453" lon="11.639812866867523"><ele>482.0</ele><time>2026-04-17T09:05:51.001Z</time></trkpt><trkpt lat="48.24216696346212" lon="11.639679959538206"><ele>482.0</ele><time>2026-04-17T09:05:52.001Z</time></trkpt><trkpt lat="48.241891199314225" lon="11.63953874157425"><ele>482.0</ele><time>2026-04-17T09:05:53.001Z</time></trkpt><trkpt lat="48.241623845192905" lon="11.639401463709945"><ele>482.0</ele><time>2026-04-17T09:05:54.001Z</time></trkpt><trkpt lat="48.241360046310504" lon="11.639269053017829"><ele>482.0</ele><time>2026-04-17T09:05:55.001Z</time></trkpt><trkpt lat="48.2410990477286" lon="11.639139415083509"><ele>482.0</ele><time>2026-04-17T09:05:56.001Z</time></trkpt><trkpt lat="48.24084260599623" lon="11.63901251368856"><ele>482.0</ele><time>2026-04-17T09:05:57.001Z</time></trkpt><trkpt lat="48.24059268576127" lon="11.638887123062755"><ele>482.0</ele><time>2026-04-17T09:05:58.001Z</time></trkpt><trkpt lat="48.24035580851395" lon="11.638765017053846"><ele>482.0</ele><time>2026-04-17T09:05:59.001Z</time></trkpt><trkpt lat="48.24013837112526" lon="11.638653301314335"><ele>482.0</ele><time>2026-04-17T09:06:00.001Z</time></trkpt><trkpt lat="48.2399281844289" lon="11.638548213155646"><ele>482.0</ele><time>2026-04-17T09:06:01.001Z</time></trkpt><trkpt lat="48.239709794736676" lon="11.638439358418237"><ele>482.0</ele><time>2026-04-17T09:06:02.001Z</time></trkpt><trkpt lat="48.23948465565657" lon="11.63832882137446"><ele>482.0</ele><time>2026-04-17T09:06:03.001Z</time></trkpt><trkpt lat="48.239254424966404" lon="11.638214146748219"><ele>482.0</ele><time>2026-04-17T09:06:04.001Z</time></trkpt><trkpt lat="48.23901899054531" lon="11.638094977683457"><ele>482.0</ele><time>2026-04-17T09:06:05.002Z</time></trkpt><trkpt lat="48.23878077637386" lon="11.637974939738438"><ele>482.5</ele><time>2026-04-17T09:06:06.002Z</time></trkpt><trkpt lat="48.23853696904262" lon="11.637851286334703"><ele>483.0</ele><time>2026-04-17T09:06:07.002Z</time></trkpt><trkpt lat="48.23828849879734" lon="11.637727456425232"><ele>483.5</ele><time>2026-04-17T09:06:08.002Z</time></trkpt><trkpt lat="48.2380378870011" lon="11.637602626012695"><ele>484.0</ele><time>2026-04-17T09:06:09.002Z</time></trkpt><trkpt lat="48.237792149487255" lon="11.63747993671519"><ele>484.0</ele><time>2026-04-17T09:06:10.002Z</time></trkpt><trkpt lat="48.23754415926081" lon="11.637357054190742"><ele>484.0</ele><time>2026-04-17T09:06:11.002Z</time></trkpt><trkpt lat="48.237298774118315" lon="11.63723440785347"><ele>483.5</ele><time>2026-04-17T09:06:12.002Z</time></trkpt><trkpt lat="48.237052222297365" lon="11.637109388678896"><ele>483.0</ele><time>2026-04-17T09:06:13.002Z</time></trkpt><trkpt lat="48.236803576778655" lon="11.636984502962815"><ele>483.5</ele><time>2026-04-17T09:06:14.002Z</time></trkpt><trkpt lat="48.2365484622883" lon="11.636858002379295"><ele>484.0</ele><time>2026-04-17T09:06:15.002Z</time></trkpt><trkpt lat="48.23629005128781" lon="11.636729200210993"><ele>484.0</ele><time>2026-04-17T09:06:16.002Z</time></trkpt><trkpt lat="48.236032374343516" lon="11.636598746992115"><ele>484.0</ele><time>2026-04-17T09:06:17.002Z</time></trkpt><trkpt lat="48.23577179870287" lon="11.636467008765813"><ele>484.5</ele><time>2026-04-17T09:06:18.002Z</time></trkpt><trkpt lat="48.235505157785425" lon="11.63633640721963"><ele>485.0</ele><time>2026-04-17T09:06:19.002Z</time></trkpt><trkpt lat="48.235238101445454" lon="11.63620568670923"><ele>485.5</ele><time>2026-04-17T09:06:20.002Z</time></trkpt><trkpt lat="48.23497393225803" lon="11.636072756755398"><ele>486.0</ele><time>2026-04-17T09:06:21.002Z</time></trkpt><trkpt lat="48.2347133054629" lon="11.63593803014282"><ele>486.0</ele><time>2026-04-17T09:06:22.002Z</time></trkpt><trkpt lat="48.23445777737631" lon="11.635806008918086"><ele>486.0</ele><time>2026-04-17T09:06:23.002Z</time></trkpt><trkpt lat="48.23420464099182" lon="11.63567914846676"><ele>487.5</ele><time>2026-04-17T09:06:24.002Z</time></trkpt><trkpt lat="48.23395116502415" lon="11.63555475391941"><ele>489.0</ele><time>2026-04-17T09:06:25.001Z</time></trkpt><trkpt lat="48.23369637620228" lon="11.635428732937541"><ele>488.5</ele><time>2026-04-17T09:06:26.001Z</time></trkpt><trkpt lat="48.233435044942745" lon="11.635298626130137"><ele>488.0</ele><time>2026-04-17T09:06:27.001Z</time></trkpt><trkpt lat="48.233170852373924" lon="11.635164445808853"><ele>487.5</ele><time>2026-04-17T09:06:28.001Z</time></trkpt><trkpt lat="48.23290211292352" lon="11.635028535987797"><ele>487.0</ele><time>2026-04-17T09:06:29.001Z</time></trkpt><trkpt lat="48.232638574542605" lon="11.6348970606001"><ele>487.0</ele><time>2026-04-17T09:06:30.001Z</time></trkpt><trkpt lat="48.23238289363249" lon="11.634771808633937"><ele>487.0</ele><time>2026-04-17T09:06:31.001Z</time></trkpt><trkpt lat="48.23213167854755" lon="11.634646206728851"><ele>486.0</ele><time>2026-04-17T09:06:32.001Z</time></trkpt><trkpt lat="48.23188275577379" lon="11.634519700205482"><ele>485.0</ele><time>2026-04-17T09:06:33.001Z</time></trkpt><trkpt lat="48.231638948839766" lon="11.634397699024262"><ele>485.5</ele><time>2026-04-17T09:06:34.001Z</time></trkpt><trkpt lat="48.23139940690177" lon="11.634277594111492"><ele>486.0</ele><time>2026-04-17T09:06:35.001Z</time></trkpt><trkpt lat="48.231161401038364" lon="11.634156697053399"><ele>486.0</ele><time>2026-04-17T09:06:36.001Z</time></trkpt><trkpt lat="48.2309275002224" lon="11.634037261964492"><ele>486.0</ele><time>2026-04-17T09:06:37.001Z</time></trkpt><trkpt lat="48.23069494375946" lon="11.633917382710328"><ele>486.0</ele><time>2026-04-17T09:06:38.001Z</time></trkpt><trkpt lat="48.23046479513259" lon="11.633803619392733"><ele>486.0</ele><time>2026-04-17T09:06:39.001Z</time></trkpt><trkpt lat="48.23023684517979" lon="11.633692190348073"><ele>486.5</ele><time>2026-04-17T09:06:40.001Z</time></trkpt><trkpt lat="48.23001515250151" lon="11.633581590989118"><ele>487.0</ele><time>2026-04-17T09:06:41.001Z</time></trkpt><trkpt lat="48.22979706213251" lon="11.63347218636113"><ele>487.5</ele><time>2026-04-17T09:06:42.001Z</time></trkpt><trkpt lat="48.229579569423834" lon="11.633364509518955"><ele>488.0</ele><time>2026-04-17T09:06:43.001Z</time></trkpt><trkpt lat="48.22936674770951" lon="11.633254489205244"><ele>488.0</ele><time>2026-04-17T09:06:44.001Z</time></trkpt><trkpt lat="48.22915608552285" lon="11.633142854596912"><ele>488.0</ele><time>2026-04-17T09:06:45.001Z</time></trkpt><trkpt lat="48.22894455120183" lon="11.633033730693073"><ele>488.0</ele><time>2026-04-17T09:06:46.001Z</time></trkpt><trkpt lat="48.22873402518284" lon="11.63292916766898"><ele>487.0</ele><time>2026-04-17T09:06:47.001Z</time></trkpt><trkpt lat="48.228516056107544" lon="11.632819933949797"><ele>486.0</ele><time>2026-04-17T09:06:48.001Z</time></trkpt><trkpt lat="48.22829461178441" lon="11.632708972353038"><ele>486.5</ele><time>2026-04-17T09:06:49.001Z</time></trkpt><trkpt lat="48.22806453130627" lon="11.632594599781193"><ele>487.0</ele><time>2026-04-17T09:06:50.001Z</time></trkpt><trkpt lat="48.22783126315175" lon="11.632476497155519"><ele>487.0</ele><time>2026-04-17T09:06:51.001Z</time></trkpt><trkpt lat="48.22759225624434" lon="11.632356882136714"><ele>487.0</ele><time>2026-04-17T09:06:52.001Z</time></trkpt><trkpt lat="48.227348433898314" lon="11.632235402732094"><ele>488.5</ele><time>2026-04-17T09:06:53.001Z</time></trkpt><trkpt lat="48.22709904272864" lon="11.632112494643318"><ele>490.0</ele><time>2026-04-17T09:06:54.001Z</time></trkpt><trkpt lat="48.22684814041296" lon="11.631986682546655"><ele>489.5</ele><time>2026-04-17T09:06:55.001Z</time></trkpt><trkpt lat="48.2265931707167" lon="11.631857060075173"><ele>489.0</ele><time>2026-04-17T09:06:56.001Z</time></trkpt><trkpt lat="48.22633644356708" lon="11.63172726159424"><ele>490.0</ele><time>2026-04-17T09:06:57.001Z</time></trkpt><trkpt lat="48.22608466328766" lon="11.631600452247103"><ele>491.0</ele><time>2026-04-17T09:06:58.001Z</time></trkpt><trkpt lat="48.225831444975256" lon="11.631475254853166"><ele>490.5</ele><time>2026-04-17T09:06:59.001Z</time></trkpt><trkpt lat="48.225581533655905" lon="11.631349365498702"><ele>490.0</ele><time>2026-04-17T09:07:00.001Z</time></trkpt><trkpt lat="48.225335134016824" lon="11.631226561047718"><ele>491.0</ele><time>2026-04-17T09:07:01.001Z</time></trkpt><trkpt lat="48.22509302365294" lon="11.631106923653427"><ele>492.0</ele><time>2026-04-17T09:07:02.001Z</time></trkpt><trkpt lat="48.22485443305192" lon="11.630992038869168"><ele>492.0</ele><time>2026-04-17T09:07:03.001Z</time></trkpt><trkpt lat="48.224618762165846" lon="11.630881023706785"><ele>492.0</ele><time>2026-04-17T09:07:04.001Z</time></trkpt><trkpt lat="48.2243854714667" lon="11.630766944918637"><ele>492.0</ele><time>2026-04-17T09:07:05.001Z</time></trkpt><trkpt lat="48.22415666812365" lon="11.630641990008723"><ele>492.0</ele><time>2026-04-17T09:07:06.001Z</time></trkpt><trkpt lat="48.22392933782931" lon="11.630519131280769"><ele>492.0</ele><time>2026-04-17T09:07:07.001Z</time></trkpt><trkpt lat="48.223706540160144" lon="11.630410802820604"><ele>492.0</ele><time>2026-04-17T09:07:08.001Z</time></trkpt><trkpt lat="48.22348768589443" lon="11.630303814939888"><ele>492.0</ele><time>2026-04-17T09:07:09.001Z</time></trkpt><trkpt lat="48.22328069376378" lon="11.630200767004728"><ele>492.0</ele><time>2026-04-17T09:07:10.001Z</time></trkpt><trkpt lat="48.223082773656856" lon="11.630102380548076"><ele>492.0</ele><time>2026-04-17T09:07:11.001Z</time></trkpt><trkpt lat="48.2228897716286" lon="11.630008365654811"><ele>491.33333333333337</ele><time>2026-04-17T09:07:12.001Z</time></trkpt><trkpt lat="48.222694906749254" lon="11.629911090985829"><ele>490.6666666666667</ele><time>2026-04-17T09:07:13.001Z</time></trkpt><trkpt lat="48.22249755417988" lon="11.629808922157784"><ele>490.0</ele><time>2026-04-17T09:07:14.001Z</time></trkpt><trkpt lat="48.22229418883911" lon="11.629708180702579"><ele>489.6666666666667</ele><time>2026-04-17T09:07:15.001Z</time></trkpt><trkpt lat="48.222089368569414" lon="11.629607534682908"><ele>489.33333333333337</ele><time>2026-04-17T09:07:16.001Z</time></trkpt><trkpt lat="48.22188181495735" lon="11.629503783920072"><ele>489.0</ele><time>2026-04-17T09:07:17.001Z</time></trkpt><trkpt lat="48.2216796384467" lon="11.62940018039629"><ele>489.66666666666663</ele><time>2026-04-17T09:07:18.001Z</time></trkpt><trkpt lat="48.22148999729031" lon="11.629304097721723"><ele>490.3333333333333</ele><time>2026-04-17T09:07:19.001Z</time></trkpt><trkpt lat="48.22130179573481" lon="11.629213672622999"><ele>491.0</ele><time>2026-04-17T09:07:20.001Z</time></trkpt><trkpt lat="48.22110891353555" lon="11.629123376168407"><ele>491.0</ele><time>2026-04-17T09:07:21.001Z</time></trkpt><trkpt lat="48.22090378698928" lon="11.62902317157795"><ele>491.0</ele><time>2026-04-17T09:07:22.001Z</time></trkpt><trkpt lat="48.22069415536905" lon="11.628913465092682"><ele>491.0</ele><time>2026-04-17T09:07:23.001Z</time></trkpt><trkpt lat="48.220476460689795" lon="11.628804282235128"><ele>491.0</ele><time>2026-04-17T09:07:24.001Z</time></trkpt><trkpt lat="48.22025656162461" lon="11.6286992918668"><ele>491.0</ele><time>2026-04-17T09:07:25.001Z</time></trkpt><trkpt lat="48.220050943804466" lon="11.628585609308525"><ele>491.3333333333333</ele><time>2026-04-17T09:07:26.001Z</time></trkpt><trkpt lat="48.21985426507446" lon="11.628485309509117"><ele>491.66666666666663</ele><time>2026-04-17T09:07:27.001Z</time></trkpt><trkpt lat="48.21966268930838" lon="11.628389753930076"><ele>492.0</ele><time>2026-04-17T09:07:28.001Z</time></trkpt><trkpt lat="48.219473736556374" lon="11.628294907104289"><ele>492.0</ele><time>2026-04-17T09:07:29.001Z</time></trkpt><trkpt lat="48.21928627889317" lon="11.62819954346675"><ele>492.0</ele><time>2026-04-17T09:07:30.001Z</time></trkpt><trkpt lat="48.219094765608425" lon="11.628104197055121"><ele>492.0</ele><time>2026-04-17T09:07:31.001Z</time></trkpt><trkpt lat="48.21889996794196" lon="11.62800840838419"><ele>492.0</ele><time>2026-04-17T09:07:32.001Z</time></trkpt><trkpt lat="48.218709633362934" lon="11.627912958076102"><ele>492.0</ele><time>2026-04-17T09:07:33.001Z</time></trkpt><trkpt lat="48.21852003826398" lon="11.627817795535726"><ele>492.0</ele><time>2026-04-17T09:07:34.001Z</time></trkpt><trkpt lat="48.21832708997804" lon="11.627719944269067"><ele>492.0</ele><time>2026-04-17T09:07:35.001Z</time></trkpt><trkpt lat="48.218125283788886" lon="11.627618712548177"><ele>492.0</ele><time>2026-04-17T09:07:36.001Z</time></trkpt><trkpt lat="48.217914264804335" lon="11.627516972248134"><ele>492.0</ele><time>2026-04-17T09:07:37.001Z</time></trkpt><trkpt lat="48.21768579817726" lon="11.627408610938202"><ele>492.0</ele><time>2026-04-17T09:07:38.001Z</time></trkpt><trkpt lat="48.217451259389044" lon="11.62729473025332"><ele>492.0</ele><time>2026-04-17T09:07:39.001Z</time></trkpt><trkpt lat="48.217214288585225" lon="11.627178522769254"><ele>492.0</ele><time>2026-04-17T09:07:40.001Z</time></trkpt><trkpt lat="48.21698007821979" lon="11.6270649468799"><ele>492.0</ele><time>2026-04-17T09:07:41.001Z</time></trkpt><trkpt lat="48.21674755534727" lon="11.626955890154598"><ele>492.0</ele><time>2026-04-17T09:07:42.001Z</time></trkpt><trkpt lat="48.21651713434935" lon="11.6268476055866"><ele>492.0</ele><time>2026-04-17T09:07:43.001Z</time></trkpt><trkpt lat="48.216296093764115" lon="11.626738355631462"><ele>492.0</ele><time>2026-04-17T09:07:44.001Z</time></trkpt><trkpt lat="48.21607257990568" lon="11.626633382576669"><ele>492.0</ele><time>2026-04-17T09:07:45.001Z</time></trkpt><trkpt lat="48.21585489447773" lon="11.626524251856665"><ele>492.0</ele><time>2026-04-17T09:07:46.001Z</time></trkpt><trkpt lat="48.21565655139475" lon="11.626421293733465"><ele>492.0</ele><time>2026-04-17T09:07:47.001Z</time></trkpt><trkpt lat="48.21545748192475" lon="11.626324911334802"><ele>492.0</ele><time>2026-04-17T09:07:48.001Z</time></trkpt><trkpt lat="48.21524643366658" lon="11.626224745713563"><ele>492.66666666666663</ele><time>2026-04-17T09:07:49.001Z</time></trkpt><trkpt lat="48.21503224705495" lon="11.626119729113572"><ele>493.3333333333333</ele><time>2026-04-17T09:07:50.001Z</time></trkpt><trkpt lat="48.21483182445927" lon="11.62601159486175"><ele>494.0</ele><time>2026-04-17T09:07:51.001Z</time></trkpt><trkpt lat="48.2146449284765" lon="11.625894569439264"><ele>492.66666666666663</ele><time>2026-04-17T09:07:52.001Z</time></trkpt><trkpt lat="48.214469367387174" lon="11.625776560925143"><ele>491.33333333333337</ele><time>2026-04-17T09:07:53.001Z</time></trkpt><trkpt lat="48.214299630302065" lon="11.625668075430818"><ele>490.0</ele><time>2026-04-17T09:07:54.001Z</time></trkpt><trkpt lat="48.21413087849137" lon="11.625578634082544"><ele>490.6666666666667</ele><time>2026-04-17T09:07:55.001Z</time></trkpt><trkpt lat="48.213964674663835" lon="11.625470278834756"><ele>491.33333333333337</ele><time>2026-04-17T09:07:56.001Z</time></trkpt><trkpt lat="48.21379481710071" lon="11.625364609450004"><ele>492.0</ele><time>2026-04-17T09:07:57.001Z</time></trkpt><trkpt lat="48.21361191484755" lon="11.625272298804026"><ele>492.33333333333337</ele><time>2026-04-17T09:07:58.001Z</time></trkpt><trkpt lat="48.21343359686951" lon="11.625175247481883"><ele>492.6666666666667</ele><time>2026-04-17T09:07:59.001Z</time></trkpt><trkpt lat="48.21325781611115" lon="11.625097310203715"><ele>493.0</ele><time>2026-04-17T09:08:00.001Z</time></trkpt><trkpt lat="48.213083630463274" lon="11.625026306671836"><ele>493.6666666666667</ele><time>2026-04-17T09:08:01.001Z</time></trkpt><trkpt lat="48.21291987047293" lon="11.624943959975505"><ele>494.33333333333337</ele><time>2026-04-17T09:08:02.001Z</time></trkpt><trkpt lat="48.21274534268907" lon="11.624852686592615"><ele>495.0</ele><time>2026-04-17T09:08:03.001Z</time></trkpt><trkpt lat="48.21255426239789" lon="11.624754857549515"><ele>495.0</ele><time>2026-04-17T09:08:04.001Z</time></trkpt><trkpt lat="48.2123340458883" lon="11.624645468268795"><ele>495.0</ele><time>2026-04-17T09:08:05.001Z</time></trkpt><trkpt lat="48.212100588854774" lon="11.624529755215267"><ele>494.33333333333337</ele><time>2026-04-17T09:08:06.001Z</time></trkpt><trkpt lat="48.211887697998385" lon="11.624424833573125"><ele>493.6666666666667</ele><time>2026-04-17T09:08:07.001Z</time></trkpt><trkpt lat="48.21168877861936" lon="11.624326983450793"><ele>493.0</ele><time>2026-04-17T09:08:08.001Z</time></trkpt><trkpt lat="48.211498311262886" lon="11.624230271784873"><ele>493.0</ele><time>2026-04-17T09:08:09.001Z</time></trkpt><trkpt lat="48.21130548757173" lon="11.624131232567157"><ele>493.0</ele><time>2026-04-17T09:08:10.001Z</time></trkpt><trkpt lat="48.21110341162794" lon="11.624029585429762"><ele>493.0</ele><time>2026-04-17T09:08:11.002Z</time></trkpt><trkpt lat="48.21088568770741" lon="11.623922236094424"><ele>493.0</ele><time>2026-04-17T09:08:12.002Z</time></trkpt><trkpt lat="48.210662343765435" lon="11.623809868500526"><ele>493.0</ele><time>2026-04-17T09:08:13.002Z</time></trkpt><trkpt lat="48.21044079310094" lon="11.623697673482651"><ele>493.6666666666667</ele><time>2026-04-17T09:08:14.002Z</time></trkpt><trkpt lat="48.21023704833369" lon="11.623596727968609"><ele>494.33333333333337</ele><time>2026-04-17T09:08:15.002Z</time></trkpt><trkpt lat="48.210044796757565" lon="11.623500274603252"><ele>495.0</ele><time>2026-04-17T09:08:16.002Z</time></trkpt><trkpt lat="48.20985306307024" lon="11.623403851281964"><ele>494.66666666666663</ele><time>2026-04-17T09:08:17.002Z</time></trkpt><trkpt lat="48.20966498057425" lon="11.62330874411245"><ele>494.3333333333333</ele><time>2026-04-17T09:08:18.002Z</time></trkpt><trkpt lat="48.20948196681126" lon="11.623215383504347"><ele>494.0</ele><time>2026-04-17T09:08:19.002Z</time></trkpt><trkpt lat="48.20929523803727" lon="11.623120534485087"><ele>494.0</ele><time>2026-04-17T09:08:20.002Z</time></trkpt><trkpt lat="48.20910531808082" lon="11.62302502607834"><ele>494.0</ele><time>2026-04-17T09:08:21.002Z</time></trkpt><trkpt lat="48.20891314021231" lon="11.62293136904067"><ele>494.0</ele><time>2026-04-17T09:08:22.002Z</time></trkpt><trkpt lat="48.20872425552498" lon="11.62284059543245"><ele>494.0</ele><time>2026-04-17T09:08:23.001Z</time></trkpt><trkpt lat="48.20854422784052" lon="11.622751631927125"><ele>494.0</ele><time>2026-04-17T09:08:24.001Z</time></trkpt><trkpt lat="48.208370594309976" lon="11.622662954703856"><ele>494.0</ele><time>2026-04-17T09:08:25.001Z</time></trkpt><trkpt lat="48.20820177538512" lon="11.622574344086098"><ele>494.3333333333333</ele><time>2026-04-17T09:08:26.001Z</time></trkpt><trkpt lat="48.208029693500485" lon="11.622485307146782"><ele>494.66666666666663</ele><time>2026-04-17T09:08:27.001Z</time></trkpt><trkpt lat="48.20785460385647" lon="11.622394813132644"><ele>495.0</ele><time>2026-04-17T09:08:28.001Z</time></trkpt><trkpt lat="48.207676869500204" lon="11.62230809896676"><ele>495.0</ele><time>2026-04-17T09:08:29.001Z</time></trkpt><trkpt lat="48.207522997735126" lon="11.62223148221025"><ele>495.0</ele><time>2026-04-17T09:08:30.001Z</time></trkpt><trkpt lat="48.20740225044575" lon="11.622167961345495"><ele>495.0</ele><time>2026-04-17T09:08:31.001Z</time></trkpt><trkpt lat="48.207265062178514" lon="11.622097944093197"><ele>495.0</ele><time>2026-04-17T09:08:32.001Z</time></trkpt><trkpt lat="48.207123626176795" lon="11.622030670862522"><ele>495.25</ele><time>2026-04-17T09:08:33.001Z</time></trkpt><trkpt lat="48.206987697247904" lon="11.621954444511974"><ele>495.5</ele><time>2026-04-17T09:08:34.001Z</time></trkpt><trkpt lat="48.20687744500934" lon="11.621850708303336"><ele>495.75</ele><time>2026-04-17T09:08:35.001Z</time></trkpt><trkpt lat="48.20677736382509" lon="11.621731005864236"><ele>496.0</ele><time>2026-04-17T09:08:36.001Z</time></trkpt><trkpt lat="48.20668751991844" lon="11.621591558095819"><ele>496.0</ele><time>2026-04-17T09:08:37.001Z</time></trkpt><trkpt lat="48.206612249746314" lon="11.621427111413588"><ele>496.0</ele><time>2026-04-17T09:08:38.001Z</time></trkpt><trkpt lat="48.2065542045433" lon="11.621248933858041"><ele>496.0</ele><time>2026-04-17T09:08:39.001Z</time></trkpt><trkpt lat="48.20651721824629" lon="11.621067417670815"><ele>496.0</ele><time>2026-04-17T09:08:40.001Z</time></trkpt><trkpt lat="48.206501345205155" lon="11.620886984816654"><ele>495.8</ele><time>2026-04-17T09:08:41.001Z</time></trkpt><trkpt lat="48.20650377644376" lon="11.620715943964898"><ele>495.6</ele><time>2026-04-17T09:08:42.001Z</time></trkpt><trkpt lat="48.206520670769045" lon="11.620554657974136"><ele>495.4</ele><time>2026-04-17T09:08:43.001Z</time></trkpt><trkpt lat="48.20655116144419" lon="11.620396407500046"><ele>495.2</ele><time>2026-04-17T09:08:44.001Z</time></trkpt><trkpt lat="48.20659275277799" lon="11.620241444757838"><ele>495.0</ele><time>2026-04-17T09:08:45.001Z</time></trkpt><trkpt lat="48.20664312145298" lon="11.62009286730308"><ele>494.8</ele><time>2026-04-17T09:08:46.001Z</time></trkpt><trkpt lat="48.206666233806786" lon="11.619917936258851"><ele>494.6</ele><time>2026-04-17T09:08:47.001Z</time></trkpt><trkpt lat="48.20673027833798" lon="11.619785490345865"><ele>494.4</ele><time>2026-04-17T09:08:48.001Z</time></trkpt><trkpt lat="48.20680691889637" lon="11.619650169511644"><ele>494.2</ele><time>2026-04-17T09:08:49.001Z</time></trkpt><trkpt lat="48.206855580448426" lon="11.61951403947036"><ele>494.0</ele><time>2026-04-17T09:08:50.001Z</time></trkpt><trkpt lat="48.206900311028974" lon="11.619390400619391"><ele>493.8333333333333</ele><time>2026-04-17T09:08:51.001Z</time></trkpt><trkpt lat="48.20694220038175" lon="11.619274809537307"><ele>493.66666666666663</ele><time>2026-04-17T09:08:52.001Z</time></trkpt><trkpt lat="48.20701297914408" lon="11.619199133433716"><ele>493.5</ele><time>2026-04-17T09:08:53.001Z</time></trkpt><trkpt lat="48.20705335537358" lon="11.619116435571966"><ele>493.33333333333337</ele><time>2026-04-17T09:08:54.001Z</time></trkpt><trkpt lat="48.20710899300384" lon="11.619006290395737"><ele>493.1666666666667</ele><time>2026-04-17T09:08:56.001Z</time></trkpt><trkpt lat="48.20715400776338" lon="11.618918541594905"><ele>493.0</ele><time>2026-04-17T09:08:58.001Z</time></trkpt><trkpt lat="48.20720065749398" lon="11.618850126426489"><ele>493.75</ele><time>2026-04-17T09:09:01.001Z</time></trkpt><trkpt lat="48.20715077151786" lon="11.618588733718092"><ele>494.5</ele><time>2026-04-17T09:09:07.001Z</time></trkpt><trkpt lat="48.20711759412112" lon="11.618494471365633"><ele>495.25</ele><time>2026-04-17T09:09:08.001Z</time></trkpt><trkpt lat="48.20702516885098" lon="11.618381723542736"><ele>496.0</ele><time>2026-04-17T09:09:10.001Z</time></trkpt><trkpt lat="48.20696044124179" lon="11.618314102669865"><ele>496.0</ele><time>2026-04-17T09:09:12.001Z</time></trkpt><trkpt lat="48.20688472550201" lon="11.618283177038302"><ele>496.0</ele><time>2026-04-17T09:09:14.001Z</time></trkpt><trkpt lat="48.20675363422021" lon="11.618235435071966"><ele>496.0</ele><time>2026-04-17T09:09:16.001Z</time></trkpt><trkpt lat="48.20666377034352" lon="11.618202707663968"><ele>496.0</ele><time>2026-04-17T09:09:17.001Z</time></trkpt><trkpt lat="48.206563646874294" lon="11.618163704964523"><ele>496.0</ele><time>2026-04-17T09:09:18.001Z</time></trkpt><trkpt lat="48.20649605244014" lon="11.61813338341291"><ele>496.6666666666667</ele><time>2026-04-17T09:09:19.001Z</time></trkpt><trkpt lat="48.206407969132506" lon="11.618092947212144"><ele>497.33333333333337</ele><time>2026-04-17T09:09:21.001Z</time></trkpt><trkpt lat="48.20634148744457" lon="11.618062427595794"><ele>498.0</ele><time>2026-04-17T09:09:23.001Z</time></trkpt><trkpt lat="48.206258379009235" lon="11.618032318315842"><ele>498.66666666666663</ele><time>2026-04-17T09:09:25.001Z</time></trkpt><trkpt lat="48.20618122749966" lon="11.618000803942557"><ele>499.3333333333333</ele><time>2026-04-17T09:09:26.001Z</time></trkpt><trkpt lat="48.20609453992761" lon="11.617966440113218"><ele>500.0</ele><time>2026-04-17T09:09:27.001Z</time></trkpt><trkpt lat="48.20602561037319" lon="11.61793921103763"><ele>499.99999999999994</ele><time>2026-04-17T09:09:28.001Z</time></trkpt><trkpt lat="48.20595995103025" lon="11.617913273780255"><ele>500.0</ele><time>2026-04-17T09:09:29.001Z</time></trkpt><trkpt lat="48.205898780983475" lon="11.617886584720592"><ele>500.0</ele><time>2026-04-17T09:09:30.001Z</time></trkpt><trkpt lat="48.20583725046426" lon="11.617860145509285"><ele>500.0</ele><time>2026-04-17T09:09:31.001Z</time></trkpt><trkpt lat="48.205715758544045" lon="11.617822395102117"><ele>499.99999999999994</ele><time>2026-04-17T09:09:33.001Z</time></trkpt><trkpt lat="48.205637285003164" lon="11.617823311901425"><ele>500.0</ele><time>2026-04-17T09:09:34.001Z</time></trkpt><trkpt lat="48.20554954862073" lon="11.617877538415602"><ele>500.0</ele><time>2026-04-17T09:09:35.001Z</time></trkpt><trkpt lat="48.20543017564205" lon="11.617833764541077"><ele>500.0</ele><time>2026-04-17T09:09:36.001Z</time></trkpt><trkpt lat="48.205298212702125" lon="11.617782578153816"><ele>500.0</ele><time>2026-04-17T09:09:37.001Z</time></trkpt><trkpt lat="48.20521336184525" lon="11.61774541204386"><ele>500.0</ele><time>2026-04-17T09:09:38.001Z</time></trkpt><trkpt lat="48.20513567467956" lon="11.617714985393935"><ele>500.0</ele><time>2026-04-17T09:09:39.001Z</time></trkpt><trkpt lat="48.20506289660559" lon="11.617689287438896"><ele>500.0</ele><time>2026-04-17T09:09:40.001Z</time></trkpt><trkpt lat="48.204999532880336" lon="11.617665188320736"><ele>500.0</ele><time>2026-04-17T09:09:41.001Z</time></trkpt><trkpt lat="48.20490705066085" lon="11.617627351012388"><ele>500.0</ele><time>2026-04-17T09:09:43.001Z</time></trkpt><trkpt lat="48.20482154952011" lon="11.617596669970922"><ele>500.0</ele><time>2026-04-17T09:09:46.001Z</time></trkpt><trkpt lat="48.20472780730049" lon="11.61754917926772"><ele>500.0</ele><time>2026-04-17T09:09:48.001Z</time></trkpt><trkpt lat="48.204624032440876" lon="11.617631006767624"><ele>500.16666666666663</ele><time>2026-04-17T09:09:50.001Z</time></trkpt><trkpt lat="48.204605417842366" lon="11.617722040199231"><ele>500.3333333333333</ele><time>2026-04-17T09:09:51.001Z</time></trkpt><trkpt lat="48.204593207367516" lon="11.61781891686606"><ele>500.5</ele><time>2026-04-17T09:09:52.001Z</time></trkpt><trkpt lat="48.20457270937245" lon="11.617924248528482"><ele>500.66666666666663</ele><time>2026-04-17T09:09:53.001Z</time></trkpt><trkpt lat="48.20455115801805" lon="11.618024725646057"><ele>500.8333333333333</ele><time>2026-04-17T09:09:54.001Z</time></trkpt><trkpt lat="48.204513941077" lon="11.61818564386894"><ele>501.0</ele><time>2026-04-17T09:09:56.001Z</time></trkpt><trkpt lat="48.204468830877765" lon="11.618350570585433"><ele>501.0</ele><time>2026-04-17T09:09:58.001Z</time></trkpt><trkpt lat="48.20441424185384" lon="11.618514644627128"><ele>501.0</ele><time>2026-04-17T09:10:00.001Z</time></trkpt><trkpt lat="48.20436999667526" lon="11.618597928619396"><ele>501.0</ele><time>2026-04-17T09:10:01.001Z</time></trkpt><trkpt lat="48.204351143364306" lon="11.618692810661393"><ele>501.0</ele><time>2026-04-17T09:10:02.001Z</time></trkpt><trkpt lat="48.204333884530186" lon="11.618784583973897"><ele>501.0</ele><time>2026-04-17T09:10:03.001Z</time></trkpt><trkpt lat="48.20435399065661" lon="11.618882189711677"><ele>501.0</ele><time>2026-04-17T09:10:04.001Z</time></trkpt><trkpt lat="48.20440421470624" lon="11.619016162002309"><ele>500.4</ele><time>2026-04-17T09:10:06.001Z</time></trkpt><trkpt lat="48.20440442997835" lon="11.619184027276063"><ele>499.8</ele><time>2026-04-17T09:10:08.001Z</time></trkpt><trkpt lat="48.204482903524976" lon="11.61918168614652"><ele>499.19999999999993</ele><time>2026-04-17T09:10:09.001Z</time></trkpt><trkpt lat="48.20451483751721" lon="11.619307565370072"><ele>498.59999999999997</ele><time>2026-04-17T09:10:11.001Z</time></trkpt><trkpt lat="48.204626056242596" lon="11.619259965050347"><ele>498.0</ele><time>2026-04-17T09:10:13.001Z</time></trkpt><trkpt lat="48.2047177191681" lon="11.619264057904374"><ele>498.0</ele><time>2026-04-17T09:10:14.001Z</time></trkpt><trkpt lat="48.20482105683375" lon="11.619267913260117"><ele>498.0</ele><time>2026-04-17T09:10:15.001Z</time></trkpt><trkpt lat="48.204909324589586" lon="11.619295901300523"><ele>498.0</ele><time>2026-04-17T09:10:16.001Z</time></trkpt><trkpt lat="48.20498357265165" lon="11.619334253239106"><ele>498.0</ele><time>2026-04-17T09:10:17.001Z</time></trkpt><trkpt lat="48.20506678010722" lon="11.61937782847471"><ele>498.0</ele><time>2026-04-17T09:10:18.001Z</time></trkpt><trkpt lat="48.20514451354489" lon="11.619415741944339"><ele>498.0</ele><time>2026-04-17T09:10:19.001Z</time></trkpt><trkpt lat="48.20522060998918" lon="11.619453978096525"><ele>497.5</ele><time>2026-04-17T09:10:20.001Z</time></trkpt><trkpt lat="48.205294973167575" lon="11.619492637450037"><ele>497.0</ele><time>2026-04-17T09:10:21.001Z</time></trkpt><trkpt lat="48.20537633788257" lon="11.619533623876789"><ele>496.5</ele><time>2026-04-17T09:10:22.001Z</time></trkpt><trkpt lat="48.20545634459438" lon="11.619570927432262"><ele>496.0</ele><time>2026-04-17T09:10:23.001Z</time></trkpt><trkpt lat="48.20552947065565" lon="11.619632568496327"><ele>495.5</ele><time>2026-04-17T09:10:24.001Z</time></trkpt><trkpt lat="48.20560159813877" lon="11.619669260762464"><ele>495.0</ele><time>2026-04-17T09:10:25.001Z</time></trkpt><trkpt lat="48.20567280670741" lon="11.61968044026317"><ele>494.99999999999994</ele><time>2026-04-17T09:10:26.001Z</time></trkpt><trkpt lat="48.20573325053011" lon="11.619720635586186"><ele>495.0</ele><time>2026-04-17T09:10:27.001Z</time></trkpt><trkpt lat="48.20579159770842" lon="11.619763834872323"><ele>494.99999999999994</ele><time>2026-04-17T09:10:28.001Z</time></trkpt><trkpt lat="48.205853812087895" lon="11.619800731997904"><ele>494.99999999999994</ele><time>2026-04-17T09:10:29.001Z</time></trkpt><trkpt lat="48.205922496425906" lon="11.619831869098109"><ele>495.0</ele><time>2026-04-17T09:10:30.001Z</time></trkpt><trkpt lat="48.20599765737024" lon="11.619837356607617"><ele>494.99999999999994</ele><time>2026-04-17T09:10:31.001Z</time></trkpt><trkpt lat="48.20606901038597" lon="11.61980150549807"><ele>494.99999999999994</ele><time>2026-04-17T09:10:32.001Z</time></trkpt><trkpt lat="48.20611631213194" lon="11.619722700559299"><ele>495.0</ele><time>2026-04-17T09:10:33.001Z</time></trkpt><trkpt lat="48.20614305700776" lon="11.619634195909645"><ele>495.0</ele><time>2026-04-17T09:10:34.001Z</time></trkpt><trkpt lat="48.20615868389" lon="11.619539045211958"><ele>495.0</ele><time>2026-04-17T09:10:35.001Z</time></trkpt><trkpt lat="48.206172964321865" lon="11.61941801094067"><ele>495.0</ele><time>2026-04-17T09:10:36.001Z</time></trkpt><trkpt lat="48.20618868676859" lon="11.619272443638932"><ele>495.0</ele><time>2026-04-17T09:10:37.001Z</time></trkpt><trkpt lat="48.20621112863014" lon="11.619120617762457"><ele>495.0</ele><time>2026-04-17T09:10:38.001Z</time></trkpt><trkpt lat="48.20623544324352" lon="11.618983372190145"><ele>495.5</ele><time>2026-04-17T09:10:39.001Z</time></trkpt><trkpt lat="48.20625583267286" lon="11.618869485260062"><ele>496.0</ele><time>2026-04-17T09:10:40.001Z</time></trkpt><trkpt lat="48.20627497793924" lon="11.618770286930555"><ele>496.5</ele><time>2026-04-17T09:10:41.001Z</time></trkpt><trkpt lat="48.2062919642259" lon="11.618673905582403"><ele>497.0</ele><time>2026-04-17T09:10:42.001Z</time></trkpt><trkpt lat="48.20632204493608" lon="11.618510204354301"><ele>497.5</ele><time>2026-04-17T09:10:44.001Z</time></trkpt><trkpt lat="48.20634532683821" lon="11.618371140859551"><ele>498.0</ele><time>2026-04-17T09:10:46.001Z</time></trkpt><trkpt lat="48.20636627359265" lon="11.618259445193335"><ele>498.4</ele><time>2026-04-17T09:10:48.001Z</time></trkpt><trkpt lat="48.20642514163507" lon="11.61818463604431"><ele>498.79999999999995</ele><time>2026-04-17T09:10:50.001Z</time></trkpt><trkpt lat="48.20652446099049" lon="11.618139764062134"><ele>499.2</ele><time>2026-04-17T09:10:52.001Z</time></trkpt><trkpt lat="48.20661663196152" lon="11.61822214935473"><ele>499.6</ele><time>2026-04-17T09:10:53.001Z</time></trkpt><trkpt lat="48.2066921899271" lon="11.618248374816154"><ele>500.0</ele><time>2026-04-17T09:10:54.001Z</time></trkpt><trkpt lat="48.20680615773568" lon="11.61829197272766"><ele>499.3333333333333</ele><time>2026-04-17T09:10:56.001Z</time></trkpt><trkpt lat="48.20690873612354" lon="11.618329524944773"><ele>498.66666666666663</ele><time>2026-04-17T09:10:58Z</time></trkpt><trkpt lat="48.206977481006035" lon="11.618361509981284"><ele>498.0</ele><time>2026-04-17T09:11:00Z</time></trkpt><trkpt lat="48.20702871000384" lon="11.61844255047059"><ele>497.33333333333337</ele><time>2026-04-17T09:11:03Z</time></trkpt><trkpt lat="48.20707022554427" lon="11.618520724827533"><ele>496.6666666666667</ele><time>2026-04-17T09:11:06Z</time></trkpt><trkpt lat="48.207113392449834" lon="11.618602429315366"><ele>496.0</ele><time>2026-04-17T09:12:14.999Z</time></trkpt><trkpt lat="48.20715808596647" lon="11.618735195685653"><ele>495.8</ele><time>2026-04-17T09:12:16.999Z</time></trkpt><trkpt lat="48.20732994460918" lon="11.618742001195496"><ele>495.6</ele><time>2026-04-17T09:12:18.999Z</time></trkpt><trkpt lat="48.20740396820438" lon="11.61871889889288"><ele>495.4</ele><time>2026-04-17T09:12:19.999Z</time></trkpt><trkpt lat="48.207478639672836" lon="11.618723622643541"><ele>495.2</ele><time>2026-04-17T09:12:20.999Z</time></trkpt><trkpt lat="48.20758324462274" lon="11.618730239995026"><ele>495.0</ele><time>2026-04-17T09:12:22.999Z</time></trkpt><trkpt lat="48.207704921972365" lon="11.618767409461778"><ele>495.0</ele><time>2026-04-17T09:12:24.999Z</time></trkpt><trkpt lat="48.20776494207027" lon="11.618799393906674"><ele>495.0</ele><time>2026-04-17T09:12:25.999Z</time></trkpt><trkpt lat="48.207831003760624" lon="11.61883459788991"><ele>495.0</ele><time>2026-04-17T09:12:26.999Z</time></trkpt><trkpt lat="48.207848288139246" lon="11.619047807189054"><ele>495.0</ele><time>2026-04-17T09:12:27.999Z</time></trkpt><trkpt lat="48.207870656343495" lon="11.619159712572959"><ele>495.0</ele><time>2026-04-17T09:12:28.999Z</time></trkpt><trkpt lat="48.207872017380595" lon="11.619278090668928"><ele>495.0</ele><time>2026-04-17T09:12:29.999Z</time></trkpt><trkpt lat="48.20785212985129" lon="11.619429653410704"><ele>494.5</ele><time>2026-04-17T09:12:30.999Z</time></trkpt><trkpt lat="48.20779183988895" lon="11.619604264692418"><ele>494.0</ele><time>2026-04-17T09:12:31.999Z</time></trkpt><trkpt lat="48.20777160365419" lon="11.619785360275705"><ele>493.5</ele><time>2026-04-17T09:12:32.999Z</time></trkpt><trkpt lat="48.207734055809446" lon="11.619957350360616"><ele>493.0</ele><time>2026-04-17T09:12:33.999Z</time></trkpt><trkpt lat="48.20770251597438" lon="11.62012654537547"><ele>493.0</ele><time>2026-04-17T09:12:34.999Z</time></trkpt><trkpt lat="48.20765946151412" lon="11.620288175061875"><ele>493.0</ele><time>2026-04-17T09:12:35.999Z</time></trkpt><trkpt lat="48.207626904396854" lon="11.620455560241634"><ele>493.0</ele><time>2026-04-17T09:12:36.999Z</time></trkpt><trkpt lat="48.20759220617219" lon="11.62061571333716"><ele>493.0</ele><time>2026-04-17T09:12:37.999Z</time></trkpt><trkpt lat="48.20756818872109" lon="11.620774450601791"><ele>493.2</ele><time>2026-04-17T09:12:38.999Z</time></trkpt><trkpt lat="48.207521762837814" lon="11.620915392006857"><ele>493.4</ele><time>2026-04-17T09:12:39.999Z</time></trkpt><trkpt lat="48.20746687687578" lon="11.621039240307146"><ele>493.59999999999997</ele><time>2026-04-17T09:12:40.999Z</time></trkpt><trkpt lat="48.20739937356008" lon="11.621153469630302"><ele>493.79999999999995</ele><time>2026-04-17T09:12:41.999Z</time></trkpt><trkpt lat="48.20731431616567" lon="11.621243569225623"><ele>494.0</ele><time>2026-04-17T09:12:42.999Z</time></trkpt><trkpt lat="48.20721374008629" lon="11.621289143917924"><ele>494.2</ele><time>2026-04-17T09:12:43.999Z</time></trkpt><trkpt lat="48.207106930190974" lon="11.621284635138068"><ele>494.4</ele><time>2026-04-17T09:12:44.999Z</time></trkpt><trkpt lat="48.20700737745745" lon="11.621229185186777"><ele>494.6</ele><time>2026-04-17T09:12:45.999Z</time></trkpt><trkpt lat="48.206931924933954" lon="11.621126847245975"><ele>494.8</ele><time>2026-04-17T09:12:46.999Z</time></trkpt><trkpt lat="48.206881429921495" lon="11.620994837734113"><ele>495.0</ele><time>2026-04-17T09:12:47.999Z</time></trkpt><trkpt lat="48.20686390432996" lon="11.620847168986982"><ele>495.0</ele><time>2026-04-17T09:12:48.999Z</time></trkpt><trkpt lat="48.20688051699001" lon="11.620701017715247"><ele>495.0</ele><time>2026-04-17T09:12:49.999Z</time></trkpt><trkpt lat="48.2069236917737" lon="11.620571065994499"><ele>495.0</ele><time>2026-04-17T09:12:50.999Z</time></trkpt><trkpt lat="48.206964594521445" lon="11.620445317099628"><ele>495.0</ele><time>2026-04-17T09:12:51.999Z</time></trkpt><trkpt lat="48.207017997238566" lon="11.620321662311346"><ele>495.0</ele><time>2026-04-17T09:12:52.999Z</time></trkpt><trkpt lat="48.20708690085252" lon="11.62020543062396"><ele>494.75</ele><time>2026-04-17T09:12:53.999Z</time></trkpt><trkpt lat="48.20716524519307" lon="11.620089244713744"><ele>494.5</ele><time>2026-04-17T09:12:54.999Z</time></trkpt><trkpt lat="48.207245690426284" lon="11.619966439972407"><ele>494.25</ele><time>2026-04-17T09:12:55.999Z</time></trkpt><trkpt lat="48.2073271928513" lon="11.619828278033506"><ele>494.0</ele><time>2026-04-17T09:12:56.999Z</time></trkpt><trkpt lat="48.2074065955325" lon="11.619678356851951"><ele>493.75</ele><time>2026-04-17T09:12:57.999Z</time></trkpt><trkpt lat="48.20747903782495" lon="11.619517314400973"><ele>493.5</ele><time>2026-04-17T09:12:58.999Z</time></trkpt><trkpt lat="48.20753839016255" lon="11.61935179014081"><ele>493.25</ele><time>2026-04-17T09:12:59.999Z</time></trkpt><trkpt lat="48.20758972884295" lon="11.619176013106525"><ele>493.0</ele><time>2026-04-17T09:13:00.999Z</time></trkpt><trkpt lat="48.20763826357317" lon="11.618993049917629"><ele>493.25</ele><time>2026-04-17T09:13:01.999Z</time></trkpt><trkpt lat="48.20768487151037" lon="11.61880612939869"><ele>493.5</ele><time>2026-04-17T09:13:02.999Z</time></trkpt><trkpt lat="48.20773312921922" lon="11.618617307104287"><ele>493.75</ele><time>2026-04-17T09:13:03.999Z</time></trkpt><trkpt lat="48.20778178608244" lon="11.618429036835344"><ele>494.0</ele><time>2026-04-17T09:13:04.999Z</time></trkpt><trkpt lat="48.207828198904025" lon="11.61824320102059"><ele>494.0</ele><time>2026-04-17T09:13:05.999Z</time></trkpt><trkpt lat="48.20787463747511" lon="11.618061450494016"><ele>494.0</ele><time>2026-04-17T09:13:06.999Z</time></trkpt><trkpt lat="48.20791980617248" lon="11.617890215654299"><ele>494.0</ele><time>2026-04-17T09:13:07.999Z</time></trkpt><trkpt lat="48.207960059469166" lon="11.617722757459903"><ele>494.0</ele><time>2026-04-17T09:13:08.999Z</time></trkpt><trkpt lat="48.2079935208601" lon="11.617561210724462"><ele>494.0</ele><time>2026-04-17T09:13:09.999Z</time></trkpt><trkpt lat="48.20803094970901" lon="11.617405122699639"><ele>494.0</ele><time>2026-04-17T09:13:10.999Z</time></trkpt><trkpt lat="48.208073091501916" lon="11.61725286534724"><ele>494.0</ele><time>2026-04-17T09:13:11.999Z</time></trkpt><trkpt lat="48.20811304878397" lon="11.61710613317415"><ele>494.0</ele><time>2026-04-17T09:13:12.999Z</time></trkpt><trkpt lat="48.2081524983368" lon="11.616962347762946"><ele>494.0</ele><time>2026-04-17T09:13:13.999Z</time></trkpt><trkpt lat="48.20819290676085" lon="11.616821912411044"><ele>494.0</ele><time>2026-04-17T09:13:14.999Z</time></trkpt><trkpt lat="48.20823378676102" lon="11.616682336347232"><ele>494.0</ele><time>2026-04-17T09:13:15.999Z</time></trkpt><trkpt lat="48.20828570516174" lon="11.616556423257935"><ele>494.0</ele><time>2026-04-17T09:13:16.999Z</time></trkpt><trkpt lat="48.20835913800152" lon="11.616461527586162"><ele>494.0</ele><time>2026-04-17T09:13:17.999Z</time></trkpt><trkpt lat="48.208446295059666" lon="11.616399520449413"><ele>494.0</ele><time>2026-04-17T09:13:18.999Z</time></trkpt><trkpt lat="48.20854028780149" lon="11.616374421113424"><ele>494.0</ele><time>2026-04-17T09:13:19.999Z</time></trkpt><trkpt lat="48.20863805666584" lon="11.616394849827532"><ele>494.0</ele><time>2026-04-17T09:13:20.999Z</time></trkpt><trkpt lat="48.208754255885346" lon="11.616443120776749"><ele>494.0</ele><time>2026-04-17T09:13:21.999Z</time></trkpt><trkpt lat="48.208892354669764" lon="11.616504202671608"><ele>494.0</ele><time>2026-04-17T09:13:22.999Z</time></trkpt><trkpt lat="48.20902599171293" lon="11.616566093031567"><ele>494.0</ele><time>2026-04-17T09:13:23.999Z</time></trkpt><trkpt lat="48.20913699065762" lon="11.61662734791497"><ele>494.0</ele><time>2026-04-17T09:13:24.999Z</time></trkpt><trkpt lat="48.20925086333037" lon="11.616690042742976"><ele>494.0</ele><time>2026-04-17T09:13:25.999Z</time></trkpt><trkpt lat="48.209369188156856" lon="11.616755089155662"><ele>494.0</ele><time>2026-04-17T09:13:26.999Z</time></trkpt><trkpt lat="48.209503123642996" lon="11.616829842856632"><ele>494.0</ele><time>2026-04-17T09:13:27.999Z</time></trkpt><trkpt lat="48.209652593455175" lon="11.616910880540011"><ele>494.0</ele><time>2026-04-17T09:13:28.999Z</time></trkpt><trkpt lat="48.20975812316869" lon="11.616970396506881"><ele>494.0</ele><time>2026-04-17T09:13:29.999Z</time></trkpt><trkpt lat="48.20984651330924" lon="11.617019778442156"><ele>494.0</ele><time>2026-04-17T09:13:30.999Z</time></trkpt><trkpt lat="48.20992823822181" lon="11.617053687821791"><ele>494.3333333333333</ele><time>2026-04-17T09:13:31.999Z</time></trkpt><trkpt lat="48.210000746974984" lon="11.617084672288593"><ele>494.66666666666663</ele><time>2026-04-17T09:13:32.999Z</time></trkpt><trkpt lat="48.21006390760504" lon="11.61712010226151"><ele>495.0</ele><time>2026-04-17T09:13:33.999Z</time></trkpt><trkpt lat="48.210147691236415" lon="11.617211646239925"><ele>495.33333333333337</ele><time>2026-04-17T09:13:35.999Z</time></trkpt><trkpt lat="48.21021791825488" lon="11.617237379763809"><ele>495.6666666666667</ele><time>2026-04-17T09:13:37.999Z</time></trkpt><trkpt lat="48.21028126392735" lon="11.617270884963425"><ele>496.0</ele><time>2026-04-17T09:13:39.999Z</time></trkpt><trkpt lat="48.21024755519873" lon="11.617158290537375"><ele>496.00000000000006</ele><time>2026-04-17T09:13:45.999Z</time></trkpt><trkpt lat="48.210158676748804" lon="11.617131500144176"><ele>496.0</ele><time>2026-04-17T09:13:47.999Z</time></trkpt><trkpt lat="48.210072058819044" lon="11.617088020837903"><ele>496.0</ele><time>2026-04-17T09:13:49.999Z</time></trkpt><trkpt lat="48.210003996444996" lon="11.617045140428088"><ele>496.0</ele><time>2026-04-17T09:13:50.999Z</time></trkpt><trkpt lat="48.20992501104438" lon="11.617007942963124"><ele>496.00000000000006</ele><time>2026-04-17T09:13:51.999Z</time></trkpt><trkpt lat="48.2098335111456" lon="11.616991709123978"><ele>496.0</ele><time>2026-04-17T09:13:52.999Z</time></trkpt><trkpt lat="48.209752377623346" lon="11.616947383273503"><ele>495.6666666666667</ele><time>2026-04-17T09:13:53.999Z</time></trkpt><trkpt lat="48.209680054887805" lon="11.616885356759601"><ele>495.33333333333337</ele><time>2026-04-17T09:13:54.999Z</time></trkpt><trkpt lat="48.20960690130084" lon="11.616830608536224"><ele>495.0</ele><time>2026-04-17T09:13:55.999Z</time></trkpt><trkpt lat="48.20952913208273" lon="11.616785378470224"><ele>494.66666666666663</ele><time>2026-04-17T09:13:56.999Z</time></trkpt><trkpt lat="48.20945519155388" lon="11.616747352091343"><ele>494.3333333333333</ele><time>2026-04-17T09:13:57.999Z</time></trkpt><trkpt lat="48.20938345380816" lon="11.616712856738864"><ele>494.0</ele><time>2026-04-17T09:13:58.999Z</time></trkpt><trkpt lat="48.209320848470675" lon="11.616677435227423"><ele>494.0</ele><time>2026-04-17T09:13:59.999Z</time></trkpt><trkpt lat="48.209256321790605" lon="11.616637787417872"><ele>494.0</ele><time>2026-04-17T09:14:00.999Z</time></trkpt><trkpt lat="48.209130263722734" lon="11.616577577800179"><ele>494.0</ele><time>2026-04-17T09:14:02.999Z</time></trkpt><trkpt lat="48.209043916736874" lon="11.616534564692325"><ele>494.0</ele><time>2026-04-17T09:14:03.999Z</time></trkpt><trkpt lat="48.20893940672483" lon="11.616478379140878"><ele>494.0</ele><time>2026-04-17T09:14:04.999Z</time></trkpt><trkpt lat="48.208829668580066" lon="11.6164240550378"><ele>493.99999999999994</ele><time>2026-04-17T09:14:05.999Z</time></trkpt><trkpt lat="48.20876489909943" lon="11.61639337925535"><ele>494.0</ele><time>2026-04-17T09:14:06.999Z</time></trkpt><trkpt lat="48.208673833780466" lon="11.616340753141673"><ele>494.0</ele><time>2026-04-17T09:14:08.999Z</time></trkpt><trkpt lat="48.20855067450372" lon="11.61630691110169"><ele>494.0</ele><time>2026-04-17T09:14:10.999Z</time></trkpt><trkpt lat="48.20848301725306" lon="11.616323593588302"><ele>493.99999999999994</ele><time>2026-04-17T09:14:11.999Z</time></trkpt><trkpt lat="48.20841223523485" lon="11.616353609045797"><ele>494.0</ele><time>2026-04-17T09:14:12.999Z</time></trkpt><trkpt lat="48.20834419644648" lon="11.616404191034567"><ele>493.99999999999994</ele><time>2026-04-17T09:14:13.999Z</time></trkpt><trkpt lat="48.208285421456225" lon="11.616498970150081"><ele>494.0</ele><time>2026-04-17T09:14:14.999Z</time></trkpt><trkpt lat="48.208236251671664" lon="11.616596362716283"><ele>494.0</ele><time>2026-04-17T09:14:15.999Z</time></trkpt><trkpt lat="48.20819623583263" lon="11.61671038209077"><ele>494.0</ele><time>2026-04-17T09:14:16.999Z</time></trkpt><trkpt lat="48.20816120493372" lon="11.61683500305514"><ele>493.99999999999994</ele><time>2026-04-17T09:14:17.999Z</time></trkpt><trkpt lat="48.20813379052785" lon="11.616966300640275"><ele>494.0</ele><time>2026-04-17T09:14:18.999Z</time></trkpt><trkpt lat="48.20810536159395" lon="11.617094716564598"><ele>493.99999999999994</ele><time>2026-04-17T09:14:19.999Z</time></trkpt><trkpt lat="48.20807367560801" lon="11.617213693430841"><ele>494.0</ele><time>2026-04-17T09:14:20.999Z</time></trkpt><trkpt lat="48.208042622661765" lon="11.617325587838776"><ele>494.0</ele><time>2026-04-17T09:14:21.999Z</time></trkpt><trkpt lat="48.20801065224192" lon="11.617435353924208"><ele>494.0</ele><time>2026-04-17T09:14:22.999Z</time></trkpt><trkpt lat="48.207982010794666" lon="11.617551546439667"><ele>493.99999999999994</ele><time>2026-04-17T09:14:23.999Z</time></trkpt><trkpt lat="48.20795434408841" lon="11.617670221531666"><ele>494.0</ele><time>2026-04-17T09:14:24.999Z</time></trkpt><trkpt lat="48.20791998684503" lon="11.61779102362086"><ele>494.0</ele><time>2026-04-17T09:14:25.999Z</time></trkpt><trkpt lat="48.20788315935805" lon="11.617920275858681"><ele>494.0</ele><time>2026-04-17T09:14:26.999Z</time></trkpt><trkpt lat="48.207847463924665" lon="11.618052406292884"><ele>494.0</ele><time>2026-04-17T09:14:27.999Z</time></trkpt><trkpt lat="48.20781658238571" lon="11.618180436117035"><ele>494.0</ele><time>2026-04-17T09:14:28.999Z</time></trkpt><trkpt lat="48.207772127753714" lon="11.618295697720574"><ele>494.0</ele><time>2026-04-17T09:14:29.999Z</time></trkpt><trkpt lat="48.20775595681932" lon="11.618424194117136"><ele>493.99999999999994</ele><time>2026-04-17T09:14:30.999Z</time></trkpt><trkpt lat="48.20771943926116" lon="11.618538995143208"><ele>494.0</ele><time>2026-04-17T09:14:31.999Z</time></trkpt><trkpt lat="48.20769106135814" lon="11.618653733110884"><ele>494.0</ele><time>2026-04-17T09:14:32.999Z</time></trkpt><trkpt lat="48.207651487761105" lon="11.618763143987817"><ele>494.0</ele><time>2026-04-17T09:14:33.999Z</time></trkpt><trkpt lat="48.20761967456894" lon="11.618884055945603"><ele>493.99999999999994</ele><time>2026-04-17T09:14:34.999Z</time></trkpt><trkpt lat="48.20758724758136" lon="11.619011332610507"><ele>494.0</ele><time>2026-04-17T09:14:35.999Z</time></trkpt><trkpt lat="48.2075623409411" lon="11.61914879077729"><ele>494.0</ele><time>2026-04-17T09:14:36.999Z</time></trkpt><trkpt lat="48.20752834297221" lon="11.619285504724019"><ele>494.0</ele><time>2026-04-17T09:14:37.999Z</time></trkpt><trkpt lat="48.20747063377825" lon="11.619413737398736"><ele>494.0</ele><time>2026-04-17T09:14:38.999Z</time></trkpt><trkpt lat="48.2074168738321" lon="11.619552746065146"><ele>494.0</ele><time>2026-04-17T09:14:39.999Z</time></trkpt><trkpt lat="48.207354865606355" lon="11.619692321950216"><ele>494.0</ele><time>2026-04-17T09:14:40.999Z</time></trkpt><trkpt lat="48.20728468861767" lon="11.619828342412543"><ele>494.0</ele><time>2026-04-17T09:14:41.999Z</time></trkpt><trkpt lat="48.20722058359383" lon="11.619968011728673"><ele>494.0</ele><time>2026-04-17T09:14:42.999Z</time></trkpt><trkpt lat="48.207142399885505" lon="11.620070654218674"><ele>494.0</ele><time>2026-04-17T09:14:43.999Z</time></trkpt><trkpt lat="48.207068614405436" lon="11.620173725564626"><ele>494.0</ele><time>2026-04-17T09:14:44.999Z</time></trkpt><trkpt lat="48.2070014922395" lon="11.620283484492862"><ele>494.0</ele><time>2026-04-17T09:14:45.999Z</time></trkpt><trkpt lat="48.20694003323838" lon="11.620398521240881"><ele>494.2</ele><time>2026-04-17T09:14:46.999Z</time></trkpt><trkpt lat="48.20689101451119" lon="11.620524214176122"><ele>494.4</ele><time>2026-04-17T09:14:47.999Z</time></trkpt><trkpt lat="48.20685963576723" lon="11.620668655765527"><ele>494.6</ele><time>2026-04-17T09:14:48.999Z</time></trkpt><trkpt lat="48.20684972607074" lon="11.620823265028065"><ele>494.8</ele><time>2026-04-17T09:14:49.999Z</time></trkpt><trkpt lat="48.20685128284228" lon="11.620978715391495"><ele>495.0</ele><time>2026-04-17T09:14:50.999Z</time></trkpt><trkpt lat="48.20689839161837" lon="11.621114042368044"><ele>495.0</ele><time>2026-04-17T09:14:51.999Z</time></trkpt><trkpt lat="48.20697361909667" lon="11.62122612091527"><ele>495.0</ele><time>2026-04-17T09:14:52.999Z</time></trkpt><trkpt lat="48.207060453760285" lon="11.62130876461658"><ele>495.0</ele><time>2026-04-17T09:14:53.999Z</time></trkpt><trkpt lat="48.20716993798598" lon="11.621372414494108"><ele>495.0</ele><time>2026-04-17T09:14:54.999Z</time></trkpt><trkpt lat="48.20727023332865" lon="11.621327223145027"><ele>495.0</ele><time>2026-04-17T09:14:56.999Z</time></trkpt><trkpt lat="48.20736043425974" lon="11.62127318081986"><ele>495.0</ele><time>2026-04-17T09:14:57.999Z</time></trkpt><trkpt lat="48.20743881691253" lon="11.621178723116108"><ele>495.0</ele><time>2026-04-17T09:14:58.999Z</time></trkpt><trkpt lat="48.20751462326972" lon="11.621039774331773"><ele>495.0</ele><time>2026-04-17T09:14:59.999Z</time></trkpt><trkpt lat="48.20759635631653" lon="11.620855573601016"><ele>495.0</ele><time>2026-04-17T09:15:00.999Z</time></trkpt><trkpt lat="48.2076436976709" lon="11.620649995914539"><ele>494.8</ele><time>2026-04-17T09:15:01.999Z</time></trkpt><trkpt lat="48.20767151919189" lon="11.620480307320507"><ele>494.6</ele><time>2026-04-17T09:15:02.999Z</time></trkpt><trkpt lat="48.20769436816982" lon="11.620329377897177"><ele>494.4</ele><time>2026-04-17T09:15:03.999Z</time></trkpt><trkpt lat="48.207721508407396" lon="11.620188348331583"><ele>494.2</ele><time>2026-04-17T09:15:04.999Z</time></trkpt><trkpt lat="48.20774572945446" lon="11.620043722976344"><ele>494.0</ele><time>2026-04-17T09:15:05.999Z</time></trkpt><trkpt lat="48.207772590676775" lon="11.619900434259083"><ele>493.8333333333333</ele><time>2026-04-17T09:15:06.999Z</time></trkpt><trkpt lat="48.207796899203274" lon="11.619756876197076"><ele>493.66666666666663</ele><time>2026-04-17T09:15:07.999Z</time></trkpt><trkpt lat="48.207820414524065" lon="11.619634323977058"><ele>493.5</ele><time>2026-04-17T09:15:08.999Z</time></trkpt><trkpt lat="48.20784076199568" lon="11.619530017874482"><ele>493.33333333333337</ele><time>2026-04-17T09:15:09.999Z</time></trkpt><trkpt lat="48.20786248625769" lon="11.619438892925903"><ele>493.1666666666667</ele><time>2026-04-17T09:15:10.999Z</time></trkpt><trkpt lat="48.207897288702746" lon="11.619262341723648"><ele>493.0</ele><time>2026-04-17T09:15:12.999Z</time></trkpt><trkpt lat="48.20791662668326" lon="11.619113308283552"><ele>493.0</ele><time>2026-04-17T09:15:14.999Z</time></trkpt><trkpt lat="48.20795592067604" lon="11.61903502378601"><ele>492.99999999999994</ele><time>2026-04-17T09:15:18.999Z</time></trkpt><trkpt lat="48.20809519160795" lon="11.619006957367956"><ele>492.99999999999994</ele><time>2026-04-17T09:15:22.999Z</time></trkpt><trkpt lat="48.208174804688184" lon="11.619059808289492"><ele>493.0</ele><time>2026-04-17T09:15:23.999Z</time></trkpt><trkpt lat="48.20827000870873" lon="11.619146440896282"><ele>493.0</ele><time>2026-04-17T09:15:25.999Z</time></trkpt><trkpt lat="48.20838446587317" lon="11.619213992056324"><ele>493.00000000000006</ele><time>2026-04-17T09:15:27.999Z</time></trkpt><trkpt lat="48.20845162131724" lon="11.619259136664258"><ele>493.0</ele><time>2026-04-17T09:15:28.999Z</time></trkpt><trkpt lat="48.20852014521003" lon="11.619310089771385"><ele>493.0</ele><time>2026-04-17T09:15:29.999Z</time></trkpt><trkpt lat="48.20859375760039" lon="11.619364347564664"><ele>493.0</ele><time>2026-04-17T09:15:30.999Z</time></trkpt><trkpt lat="48.208668036804745" lon="11.619414562263945"><ele>493.00000000000006</ele><time>2026-04-17T09:15:31.999Z</time></trkpt><trkpt lat="48.20873272280394" lon="11.619465878005597"><ele>493.0</ele><time>2026-04-17T09:15:32.999Z</time></trkpt><trkpt lat="48.20879231361379" lon="11.619506894628614"><ele>493.0</ele><time>2026-04-17T09:15:33.999Z</time></trkpt><trkpt lat="48.208890234301236" lon="11.619582520342151"><ele>492.99999999999994</ele><time>2026-04-17T09:15:35.999Z</time></trkpt><trkpt lat="48.20900739183664" lon="11.619673332330313"><ele>492.99999999999994</ele><time>2026-04-17T09:15:37.999Z</time></trkpt><trkpt lat="48.20908321061569" lon="11.619727037810222"><ele>493.0</ele><time>2026-04-17T09:15:38.999Z</time></trkpt><trkpt lat="48.20917479362858" lon="11.619801923297153"><ele>493.0</ele><time>2026-04-17T09:15:39.999Z</time></trkpt><trkpt lat="48.209275132472854" lon="11.619884974443917"><ele>493.0</ele><time>2026-04-17T09:15:40.999Z</time></trkpt><trkpt lat="48.20937116960872" lon="11.619964926109265"><ele>492.99999999999994</ele><time>2026-04-17T09:15:41.999Z</time></trkpt><trkpt lat="48.20945601203437" lon="11.62004233659739"><ele>492.99999999999994</ele><time>2026-04-17T09:15:42.999Z</time></trkpt><trkpt lat="48.20954058537725" lon="11.620116631752753"><ele>493.0</ele><time>2026-04-17T09:15:43.999Z</time></trkpt><trkpt lat="48.209633309311485" lon="11.620174882208136"><ele>493.0</ele><time>2026-04-17T09:15:44.999Z</time></trkpt><trkpt lat="48.209720221867016" lon="11.620251387389361"><ele>493.00000000000006</ele><time>2026-04-17T09:15:45.999Z</time></trkpt><trkpt lat="48.209796368610064" lon="11.620318584668697"><ele>493.0</ele><time>2026-04-17T09:15:46.999Z</time></trkpt><trkpt lat="48.20986221581203" lon="11.620378630181484"><ele>493.0</ele><time>2026-04-17T09:15:47.999Z</time></trkpt><trkpt lat="48.20992690486905" lon="11.62043895694577"><ele>493.0</ele><time>2026-04-17T09:15:48.999Z</time></trkpt><trkpt lat="48.20999455171911" lon="11.620502042129775"><ele>493.00000000000006</ele><time>2026-04-17T09:15:49.999Z</time></trkpt><trkpt lat="48.21006394881047" lon="11.620569123615823"><ele>493.0</ele><time>2026-04-17T09:15:50.999Z</time></trkpt><trkpt lat="48.21013541596498" lon="11.620639168345496"><ele>493.4</ele><time>2026-04-17T09:15:51.999Z</time></trkpt><trkpt lat="48.21022184613023" lon="11.620685490259087"><ele>493.79999999999995</ele><time>2026-04-17T09:15:52.999Z</time></trkpt><trkpt lat="48.210293091908724" lon="11.620773128266487"><ele>494.2</ele><time>2026-04-17T09:15:53.999Z</time></trkpt><trkpt lat="48.21035956074425" lon="11.620862185760016"><ele>494.6</ele><time>2026-04-17T09:15:54.999Z</time></trkpt><trkpt lat="48.21044650427827" lon="11.620933348052487"><ele>495.0</ele><time>2026-04-17T09:15:55.999Z</time></trkpt><trkpt lat="48.210503426618445" lon="11.621054051307462"><ele>495.0</ele><time>2026-04-17T09:15:56.999Z</time></trkpt><trkpt lat="48.210458349208054" lon="11.621272957287683"><ele>495.0</ele><time>2026-04-17T09:15:57.999Z</time></trkpt><trkpt lat="48.21044809855716" lon="11.621424609444079"><ele>495.0</ele><time>2026-04-17T09:15:58.999Z</time></trkpt><trkpt lat="48.210416042696075" lon="11.62157086124758"><ele>495.0</ele><time>2026-04-17T09:15:59.999Z</time></trkpt><trkpt lat="48.210376792095815" lon="11.621717426052708"><ele>495.0</ele><time>2026-04-17T09:16:00.999Z</time></trkpt><trkpt lat="48.210347772579404" lon="11.62186914261855"><ele>495.0</ele><time>2026-04-17T09:16:01.999Z</time></trkpt><trkpt lat="48.21032890324543" lon="11.622024906646768"><ele>495.0</ele><time>2026-04-17T09:16:02.999Z</time></trkpt><trkpt lat="48.21031634048969" lon="11.62217729143739"><ele>495.0</ele><time>2026-04-17T09:16:03.999Z</time></trkpt><trkpt lat="48.21032033216499" lon="11.622330233876863"><ele>495.0</ele><time>2026-04-17T09:16:04.999Z</time></trkpt><trkpt lat="48.21035379630502" lon="11.62247476212215"><ele>495.0</ele><time>2026-04-17T09:16:05.999Z</time></trkpt><trkpt lat="48.21043751202731" lon="11.622572906538585"><ele>495.0</ele><time>2026-04-17T09:16:06.999Z</time></trkpt><trkpt lat="48.210508282128245" lon="11.62266984022255"><ele>495.0</ele><time>2026-04-17T09:16:07.999Z</time></trkpt><trkpt lat="48.21058537704064" lon="11.622736659943476"><ele>495.0</ele><time>2026-04-17T09:16:08.999Z</time></trkpt><trkpt lat="48.2106735853636" lon="11.622785624178949"><ele>495.0</ele><time>2026-04-17T09:16:09.999Z</time></trkpt><trkpt lat="48.21077447736167" lon="11.622840819398649"><ele>494.75</ele><time>2026-04-17T09:16:10.999Z</time></trkpt><trkpt lat="48.2108829782291" lon="11.622901314086295"><ele>494.5</ele><time>2026-04-17T09:16:11.999Z</time></trkpt><trkpt lat="48.21099096239859" lon="11.622961967428676"><ele>494.25</ele><time>2026-04-17T09:16:12.999Z</time></trkpt><trkpt lat="48.211097025322694" lon="11.62302107419275"><ele>494.0</ele><time>2026-04-17T09:16:13.999Z</time></trkpt><trkpt lat="48.211197627332076" lon="11.623077024437618"><ele>494.0</ele><time>2026-04-17T09:16:14.999Z</time></trkpt><trkpt lat="48.2112970750336" lon="11.623152790673732"><ele>494.0</ele><time>2026-04-17T09:16:15.999Z</time></trkpt><trkpt lat="48.21141184605364" lon="11.623196001094795"><ele>494.0</ele><time>2026-04-17T09:16:16.999Z</time></trkpt><trkpt lat="48.21152579547793" lon="11.623260013000142"><ele>494.0</ele><time>2026-04-17T09:16:17.999Z</time></trkpt><trkpt lat="48.211635344265936" lon="11.62334625978763"><ele>493.75</ele><time>2026-04-17T09:16:18.999Z</time></trkpt><trkpt lat="48.211750734233824" lon="11.62341346265698"><ele>493.5</ele><time>2026-04-17T09:16:19.999Z</time></trkpt><trkpt lat="48.2118710039346" lon="11.623475735299817"><ele>493.25</ele><time>2026-04-17T09:16:20.999Z</time></trkpt><trkpt lat="48.21199204464283" lon="11.623545983065881"><ele>493.0</ele><time>2026-04-17T09:16:21.999Z</time></trkpt><trkpt lat="48.21211603723508" lon="11.623614137375158"><ele>493.0</ele><time>2026-04-17T09:16:22.999Z</time></trkpt><trkpt lat="48.2122410449986" lon="11.623685376410863"><ele>493.0</ele><time>2026-04-17T09:16:23.999Z</time></trkpt><trkpt lat="48.21237075936453" lon="11.623751279275552"><ele>493.0</ele><time>2026-04-17T09:16:24.999Z</time></trkpt><trkpt lat="48.21250165196681" lon="11.62382441086133"><ele>493.0</ele><time>2026-04-17T09:16:25.999Z</time></trkpt><trkpt lat="48.21262471138962" lon="11.62389324773865"><ele>492.59999999999997</ele><time>2026-04-17T09:16:26.999Z</time></trkpt><trkpt lat="48.212732934234005" lon="11.62395394443649"><ele>492.19999999999993</ele><time>2026-04-17T09:16:27.999Z</time></trkpt><trkpt lat="48.21283171820257" lon="11.624014761747047"><ele>491.8</ele><time>2026-04-17T09:16:28.999Z</time></trkpt><trkpt lat="48.21293068112039" lon="11.624065974771401"><ele>491.4</ele><time>2026-04-17T09:16:29.999Z</time></trkpt><trkpt lat="48.21302533996836" lon="11.624122888991272"><ele>491.0</ele><time>2026-04-17T09:16:30.999Z</time></trkpt><trkpt lat="48.21311875451966" lon="11.62417036728596"><ele>491.20000000000005</ele><time>2026-04-17T09:16:31.999Z</time></trkpt><trkpt lat="48.213214806706226" lon="11.624223321508707"><ele>491.40000000000003</ele><time>2026-04-17T09:16:32.999Z</time></trkpt><trkpt lat="48.213309666604715" lon="11.62427821719571"><ele>491.6</ele><time>2026-04-17T09:16:33.999Z</time></trkpt><trkpt lat="48.21340311231952" lon="11.624326442935597"><ele>491.8</ele><time>2026-04-17T09:16:34.999Z</time></trkpt><trkpt lat="48.21349643031908" lon="11.624380893924043"><ele>492.0</ele><time>2026-04-17T09:16:35.999Z</time></trkpt><trkpt lat="48.213586783486036" lon="11.624434505761005"><ele>492.0</ele><time>2026-04-17T09:16:36.999Z</time></trkpt><trkpt lat="48.2136836468238" lon="11.624461646724564"><ele>492.00000000000006</ele><time>2026-04-17T09:16:37.999Z</time></trkpt><trkpt lat="48.21377534502121" lon="11.624512054986745"><ele>492.00000000000006</ele><time>2026-04-17T09:16:38.999Z</time></trkpt><trkpt lat="48.21386963611121" lon="11.624585654599398"><ele>492.0</ele><time>2026-04-17T09:16:39.999Z</time></trkpt><trkpt lat="48.213983676681906" lon="11.624646076511521"><ele>492.0</ele><time>2026-04-17T09:16:40.999Z</time></trkpt><trkpt lat="48.21410433148709" lon="11.624712064103292"><ele>492.0</ele><time>2026-04-17T09:16:41.999Z</time></trkpt><trkpt lat="48.21421702678626" lon="11.624773361176674"><ele>492.00000000000006</ele><time>2026-04-17T09:16:42.999Z</time></trkpt><trkpt lat="48.2143197674661" lon="11.624831049681596"><ele>492.00000000000006</ele><time>2026-04-17T09:16:43.999Z</time></trkpt><trkpt lat="48.21441716857969" lon="11.624891355671398"><ele>492.0</ele><time>2026-04-17T09:16:44.999Z</time></trkpt><trkpt lat="48.21451423320948" lon="11.624944730104131"><ele>492.0</ele><time>2026-04-17T09:16:45.999Z</time></trkpt><trkpt lat="48.21460962079768" lon="11.625001705927495"><ele>492.0</ele><time>2026-04-17T09:16:46.999Z</time></trkpt><trkpt lat="48.21470928984423" lon="11.625054870694015"><ele>492.00000000000006</ele><time>2026-04-17T09:16:47.999Z</time></trkpt><trkpt lat="48.21480608006484" lon="11.625100454175252"><ele>492.00000000000006</ele><time>2026-04-17T09:16:48.999Z</time></trkpt><trkpt lat="48.214901295020645" lon="11.625150785306108"><ele>492.0</ele><time>2026-04-17T09:16:49.999Z</time></trkpt><trkpt lat="48.214995586574304" lon="11.625201461582572"><ele>492.0</ele><time>2026-04-17T09:16:50.999Z</time></trkpt><trkpt lat="48.21508966180905" lon="11.625255736279298"><ele>492.20000000000005</ele><time>2026-04-17T09:16:51.999Z</time></trkpt><trkpt lat="48.21518315184439" lon="11.625311277968764"><ele>492.40000000000003</ele><time>2026-04-17T09:16:52.999Z</time></trkpt><trkpt lat="48.21527543235295" lon="11.625366569240237"><ele>492.59999999999997</ele><time>2026-04-17T09:16:53.999Z</time></trkpt><trkpt lat="48.21537531931116" lon="11.625395503762292"><ele>492.79999999999995</ele><time>2026-04-17T09:16:54.999Z</time></trkpt><trkpt lat="48.21546961418955" lon="11.625447056608797"><ele>493.0</ele><time>2026-04-17T09:16:55.999Z</time></trkpt><trkpt lat="48.21556302867398" lon="11.625498383241336"><ele>492.59999999999997</ele><time>2026-04-17T09:16:56.999Z</time></trkpt><trkpt lat="48.21565808720294" lon="11.625550613229198"><ele>492.19999999999993</ele><time>2026-04-17T09:16:57.999Z</time></trkpt><trkpt lat="48.215751188139805" lon="11.625601767567915"><ele>491.8</ele><time>2026-04-17T09:16:58.999Z</time></trkpt><trkpt lat="48.21585228374313" lon="11.625678454332188"><ele>491.4</ele><time>2026-04-17T09:16:59.999Z</time></trkpt><trkpt lat="48.215973458515066" lon="11.625724690412564"><ele>491.0</ele><time>2026-04-17T09:17:00.999Z</time></trkpt><trkpt lat="48.216091205075344" lon="11.625814386238146"><ele>491.0</ele><time>2026-04-17T09:17:01.999Z</time></trkpt><trkpt lat="48.21621193451702" lon="11.625856973478067"><ele>491.0</ele><time>2026-04-17T09:17:02.999Z</time></trkpt><trkpt lat="48.21632222977636" lon="11.625944678989551"><ele>491.0</ele><time>2026-04-17T09:17:03.999Z</time></trkpt><trkpt lat="48.21643582709699" lon="11.626001220514206"><ele>491.0</ele><time>2026-04-17T09:17:04.999Z</time></trkpt><trkpt lat="48.216546379775515" lon="11.626061772597062"><ele>491.0</ele><time>2026-04-17T09:17:05.999Z</time></trkpt><trkpt lat="48.21665787754258" lon="11.626126135635625"><ele>491.0</ele><time>2026-04-17T09:17:06.999Z</time></trkpt><trkpt lat="48.21677886085134" lon="11.626195053772204"><ele>491.0</ele><time>2026-04-17T09:17:07.999Z</time></trkpt><trkpt lat="48.21693139688745" lon="11.626280810736121"><ele>491.0</ele><time>2026-04-17T09:17:08.999Z</time></trkpt><trkpt lat="48.21709582056542" lon="11.626370396493364"><ele>491.0</ele><time>2026-04-17T09:17:09.999Z</time></trkpt><trkpt lat="48.21724548818667" lon="11.626467091209397"><ele>491.0</ele><time>2026-04-17T09:17:10.999Z</time></trkpt><trkpt lat="48.217384708228735" lon="11.626530852313396"><ele>491.0</ele><time>2026-04-17T09:17:11.999Z</time></trkpt><trkpt lat="48.217514357151444" lon="11.626601550994424"><ele>491.0</ele><time>2026-04-17T09:17:12.999Z</time></trkpt><trkpt lat="48.21764110983464" lon="11.626673054991754"><ele>491.25</ele><time>2026-04-17T09:17:13.999Z</time></trkpt><trkpt lat="48.21776102982064" lon="11.626735198439947"><ele>491.5</ele><time>2026-04-17T09:17:14.999Z</time></trkpt><trkpt lat="48.21787425565636" lon="11.626799735876537"><ele>491.75</ele><time>2026-04-17T09:17:15.999Z</time></trkpt><trkpt lat="48.21798274377065" lon="11.626858873368471"><ele>492.0</ele><time>2026-04-17T09:17:16.999Z</time></trkpt><trkpt lat="48.21809392425144" lon="11.626916044543135"><ele>491.75</ele><time>2026-04-17T09:17:17.999Z</time></trkpt><trkpt lat="48.218209473218266" lon="11.626967366251792"><ele>491.5</ele><time>2026-04-17T09:17:18.999Z</time></trkpt><trkpt lat="48.21832660877763" lon="11.627021295503347"><ele>491.25</ele><time>2026-04-17T09:17:19.999Z</time></trkpt><trkpt lat="48.21844648188656" lon="11.627077843326024"><ele>491.0</ele><time>2026-04-17T09:17:20.999Z</time></trkpt><trkpt lat="48.218572398108634" lon="11.627130076542837"><ele>491.25</ele><time>2026-04-17T09:17:21.999Z</time></trkpt><trkpt lat="48.21870179577066" lon="11.627177136456377"><ele>491.5</ele><time>2026-04-17T09:17:22.999Z</time></trkpt><trkpt lat="48.218836109426064" lon="11.627216331060955"><ele>491.75</ele><time>2026-04-17T09:17:23.999Z</time></trkpt><trkpt lat="48.21896577407755" lon="11.627258773751104"><ele>492.0</ele><time>2026-04-17T09:17:24.999Z</time></trkpt><trkpt lat="48.21908105893352" lon="11.627287505686224"><ele>492.0</ele><time>2026-04-17T09:17:25.999Z</time></trkpt><trkpt lat="48.219185206709696" lon="11.62730282210567"><ele>492.00000000000006</ele><time>2026-04-17T09:17:26.999Z</time></trkpt><trkpt lat="48.219283959500245" lon="11.627328990836725"><ele>492.00000000000006</ele><time>2026-04-17T09:17:27.999Z</time></trkpt><trkpt lat="48.21937728502744" lon="11.627349906274679"><ele>492.0</ele><time>2026-04-17T09:17:28.999Z</time></trkpt><trkpt lat="48.219466952824185" lon="11.627360206036021"><ele>492.0</ele><time>2026-04-17T09:17:29.999Z</time></trkpt><trkpt lat="48.219561764185855" lon="11.627360851799686"><ele>492.0</ele><time>2026-04-17T09:17:30.999Z</time></trkpt><trkpt lat="48.21967422908853" lon="11.627355934930586"><ele>492.0</ele><time>2026-04-17T09:17:31.999Z</time></trkpt><trkpt lat="48.21980920332208" lon="11.627351428254793"><ele>492.0</ele><time>2026-04-17T09:17:32.999Z</time></trkpt><trkpt lat="48.219958788831626" lon="11.627342082345866"><ele>492.0</ele><time>2026-04-17T09:17:33.999Z</time></trkpt><trkpt lat="48.2201167090496" lon="11.627299344916322"><ele>491.75</ele><time>2026-04-17T09:17:34.999Z</time></trkpt><trkpt lat="48.220253658661754" lon="11.627243212090816"><ele>491.5</ele><time>2026-04-17T09:17:35.999Z</time></trkpt><trkpt lat="48.220373654512805" lon="11.627189942734674"><ele>491.25</ele><time>2026-04-17T09:17:36.999Z</time></trkpt><trkpt lat="48.220482967271934" lon="11.627139590171922"><ele>491.0</ele><time>2026-04-17T09:17:37.999Z</time></trkpt><trkpt lat="48.22058823042506" lon="11.627081638775266"><ele>491.0</ele><time>2026-04-17T09:17:38.999Z</time></trkpt><trkpt lat="48.22069184329273" lon="11.627018749554829"><ele>491.0</ele><time>2026-04-17T09:17:39.999Z</time></trkpt><trkpt lat="48.22079473293711" lon="11.62694869519932"><ele>491.0</ele><time>2026-04-17T09:17:40.999Z</time></trkpt><trkpt lat="48.22089241803665" lon="11.626872000683566"><ele>491.0</ele><time>2026-04-17T09:17:41.999Z</time></trkpt><trkpt lat="48.22098807972922" lon="11.626789669343138"><ele>491.0</ele><time>2026-04-17T09:17:42.999Z</time></trkpt><trkpt lat="48.22108371265225" lon="11.626701458366478"><ele>491.0</ele><time>2026-04-17T09:17:43.999Z</time></trkpt><trkpt lat="48.22118193340789" lon="11.626602934611345"><ele>491.0</ele><time>2026-04-17T09:17:44.999Z</time></trkpt><trkpt lat="48.22128651344204" lon="11.626483607816441"><ele>491.0</ele><time>2026-04-17T09:17:45.999Z</time></trkpt><trkpt lat="48.22137786864425" lon="11.626363140464568"><ele>491.0</ele><time>2026-04-17T09:17:46.999Z</time></trkpt><trkpt lat="48.22146016857784" lon="11.626241667280496"><ele>491.0</ele><time>2026-04-17T09:17:47.999Z</time></trkpt><trkpt lat="48.221538340430236" lon="11.626115446814689"><ele>491.0</ele><time>2026-04-17T09:17:48.999Z</time></trkpt><trkpt lat="48.2216170620619" lon="11.62598396178189"><ele>491.0</ele><time>2026-04-17T09:17:49.999Z</time></trkpt><trkpt lat="48.2216900045954" lon="11.625845879003103"><ele>491.0</ele><time>2026-04-17T09:17:50.999Z</time></trkpt><trkpt lat="48.22176012316403" lon="11.625705713354009"><ele>491.0</ele><time>2026-04-17T09:17:51.999Z</time></trkpt><trkpt lat="48.221827652075646" lon="11.625562864418427"><ele>491.0</ele><time>2026-04-17T09:17:52.999Z</time></trkpt><trkpt lat="48.22189364681381" lon="11.625415638920897"><ele>491.0</ele><time>2026-04-17T09:17:53.999Z</time></trkpt><trkpt lat="48.22196111010914" lon="11.625268936497857"><ele>491.0</ele><time>2026-04-17T09:17:54.999Z</time></trkpt><trkpt lat="48.22202975560712" lon="11.625120862205875"><ele>490.5</ele><time>2026-04-17T09:17:55.999Z</time></trkpt><trkpt lat="48.222099160262694" lon="11.624973277624473"><ele>490.0</ele><time>2026-04-17T09:17:56.999Z</time></trkpt><trkpt lat="48.222168188072146" lon="11.624824158621282"><ele>489.5</ele><time>2026-04-17T09:17:57.999Z</time></trkpt><trkpt lat="48.222237642573546" lon="11.624670552063446"><ele>489.0</ele><time>2026-04-17T09:17:58.999Z</time></trkpt><trkpt lat="48.22230871170045" lon="11.624511335604659"><ele>489.5</ele><time>2026-04-17T09:17:59.999Z</time></trkpt><trkpt lat="48.22237958704404" lon="11.624351011341203"><ele>490.0</ele><time>2026-04-17T09:18:00.999Z</time></trkpt><trkpt lat="48.22244754111234" lon="11.62419626055753"><ele>490.5</ele><time>2026-04-17T09:18:01.999Z</time></trkpt><trkpt lat="48.2225122008906" lon="11.624048769482334"><ele>491.0</ele><time>2026-04-17T09:18:02.999Z</time></trkpt><trkpt lat="48.222577543003716" lon="11.62389889300162"><ele>491.0</ele><time>2026-04-17T09:18:03.999Z</time></trkpt><trkpt lat="48.22264685952218" lon="11.623744736032615"><ele>491.0</ele><time>2026-04-17T09:18:04.999Z</time></trkpt><trkpt lat="48.222720022863896" lon="11.623581959315281"><ele>491.0</ele><time>2026-04-17T09:18:05.999Z</time></trkpt><trkpt lat="48.22279114057838" lon="11.623420793388059"><ele>491.0</ele><time>2026-04-17T09:18:06.999Z</time></trkpt><trkpt lat="48.22286043184539" lon="11.623262308365893"><ele>491.0</ele><time>2026-04-17T09:18:07.999Z</time></trkpt><trkpt lat="48.22292442559785" lon="11.623109536464145"><ele>491.0</ele><time>2026-04-17T09:18:08.999Z</time></trkpt><trkpt lat="48.22298365214136" lon="11.622959688642059"><ele>491.0</ele><time>2026-04-17T09:18:09.999Z</time></trkpt><trkpt lat="48.2230377478246" lon="11.622806942838238"><ele>491.0</ele><time>2026-04-17T09:18:10.999Z</time></trkpt><trkpt lat="48.22308817492351" lon="11.62265225537043"><ele>491.0</ele><time>2026-04-17T09:18:11.999Z</time></trkpt><trkpt lat="48.22313800833149" lon="11.622496397370382"><ele>491.0</ele><time>2026-04-17T09:18:12.999Z</time></trkpt><trkpt lat="48.22319165170007" lon="11.622344828942783"><ele>491.0</ele><time>2026-04-17T09:18:13.999Z</time></trkpt><trkpt lat="48.223247969711274" lon="11.62219079076399"><ele>491.0</ele><time>2026-04-17T09:18:14.999Z</time></trkpt><trkpt lat="48.223310097194286" lon="11.62203830194285"><ele>491.0</ele><time>2026-04-17T09:18:15.999Z</time></trkpt><trkpt lat="48.22337894142216" lon="11.621878526257614"><ele>491.0</ele><time>2026-04-17T09:18:16.999Z</time></trkpt><trkpt lat="48.223454529386785" lon="11.621710180458996"><ele>491.0</ele><time>2026-04-17T09:18:17.999Z</time></trkpt><trkpt lat="48.223536578321394" lon="11.621529379654746"><ele>491.0</ele><time>2026-04-17T09:18:18.999Z</time></trkpt><trkpt lat="48.223620365487214" lon="11.62133668775536"><ele>491.0</ele><time>2026-04-17T09:18:19.999Z</time></trkpt><trkpt lat="48.22369584199338" lon="11.62116068841996"><ele>491.0</ele><time>2026-04-17T09:18:20.999Z</time></trkpt><trkpt lat="48.223768155178135" lon="11.620995670185213"><ele>491.0</ele><time>2026-04-17T09:18:21.999Z</time></trkpt><trkpt lat="48.22384073739589" lon="11.620836665492863"><ele>491.0</ele><time>2026-04-17T09:18:22.999Z</time></trkpt><trkpt lat="48.22391720017813" lon="11.620682148086084"><ele>491.0</ele><time>2026-04-17T09:18:23.999Z</time></trkpt><trkpt lat="48.2239751369054" lon="11.620504770313584"><ele>491.0</ele><time>2026-04-17T09:18:24.999Z</time></trkpt><trkpt lat="48.22403906124327" lon="11.620332140453527"><ele>491.0</ele><time>2026-04-17T09:18:25.999Z</time></trkpt><trkpt lat="48.22409201728098" lon="11.620153052899875"><ele>491.0</ele><time>2026-04-17T09:18:26.999Z</time></trkpt><trkpt lat="48.224148810553295" lon="11.619973213958826"><ele>490.75</ele><time>2026-04-17T09:18:27.999Z</time></trkpt><trkpt lat="48.224174262557746" lon="11.619778438202514"><ele>490.5</ele><time>2026-04-17T09:18:28.999Z</time></trkpt><trkpt lat="48.22420135119154" lon="11.61958729324584"><ele>490.25</ele><time>2026-04-17T09:18:29.999Z</time></trkpt><trkpt lat="48.224236242406306" lon="11.619411180212184"><ele>490.0</ele><time>2026-04-17T09:18:30.999Z</time></trkpt><trkpt lat="48.224278295373146" lon="11.619237436180804"><ele>489.75</ele><time>2026-04-17T09:18:31.999Z</time></trkpt><trkpt lat="48.22433593281749" lon="11.619062836238763"><ele>489.5</ele><time>2026-04-17T09:18:32.999Z</time></trkpt><trkpt lat="48.224411506575905" lon="11.618893309709497"><ele>489.25</ele><time>2026-04-17T09:18:33.999Z</time></trkpt><trkpt lat="48.22450452113106" lon="11.618735687895237"><ele>489.0</ele><time>2026-04-17T09:18:34.999Z</time></trkpt><trkpt lat="48.2246074226649" lon="11.618597334942494"><ele>488.75</ele><time>2026-04-17T09:18:35.999Z</time></trkpt><trkpt lat="48.22471775320456" lon="11.618487557244096"><ele>488.5</ele><time>2026-04-17T09:18:36.999Z</time></trkpt><trkpt lat="48.22483103916448" lon="11.618406456621045"><ele>488.25</ele><time>2026-04-17T09:18:37.999Z</time></trkpt><trkpt lat="48.224945210681305" lon="11.61834053240283"><ele>488.0</ele><time>2026-04-17T09:18:38.999Z</time></trkpt><trkpt lat="48.22505811116721" lon="11.618275243120637"><ele>488.5</ele><time>2026-04-17T09:18:39.998Z</time></trkpt><trkpt lat="48.22517351859631" lon="11.6182092282677"><ele>489.0</ele><time>2026-04-17T09:18:40.998Z</time></trkpt><trkpt lat="48.22528946488527" lon="11.618141239002561"><ele>489.5</ele><time>2026-04-17T09:18:41.998Z</time></trkpt><trkpt lat="48.22540838771368" lon="11.618070805235957"><ele>490.0</ele><time>2026-04-17T09:18:42.998Z</time></trkpt><trkpt lat="48.22553006629549" lon="11.617997728086324"><ele>490.0</ele><time>2026-04-17T09:18:43.998Z</time></trkpt><trkpt lat="48.225655684878554" lon="11.61792392567559"><ele>490.0</ele><time>2026-04-17T09:18:44.998Z</time></trkpt><trkpt lat="48.22578081044455" lon="11.617849084775768"><ele>490.0</ele><time>2026-04-17T09:18:45.998Z</time></trkpt><trkpt lat="48.22590290981899" lon="11.617775434282992"><ele>490.0</ele><time>2026-04-17T09:18:46.998Z</time></trkpt><trkpt lat="48.226015972360884" lon="11.617711044628406"><ele>490.0</ele><time>2026-04-17T09:18:47.998Z</time></trkpt><trkpt lat="48.226125857554514" lon="11.617635220546545"><ele>490.0</ele><time>2026-04-17T09:18:48.998Z</time></trkpt><trkpt lat="48.22621851354507" lon="11.617513273159267"><ele>490.0</ele><time>2026-04-17T09:18:49.998Z</time></trkpt><trkpt lat="48.22632737672415" lon="11.617406439665828"><ele>490.0</ele><time>2026-04-17T09:18:50.999Z</time></trkpt><trkpt lat="48.226417368383515" lon="11.617255160526899"><ele>489.0</ele><time>2026-04-17T09:18:51.999Z</time></trkpt><trkpt lat="48.22649922958405" lon="11.617076575719068"><ele>488.0</ele><time>2026-04-17T09:18:52.999Z</time></trkpt><trkpt lat="48.2265713864004" lon="11.616871825114137"><ele>487.0</ele><time>2026-04-17T09:18:53.999Z</time></trkpt><trkpt lat="48.22662417767894" lon="11.616631050606651"><ele>486.6666666666667</ele><time>2026-04-17T09:18:54.999Z</time></trkpt><trkpt lat="48.22664909090006" lon="11.616347515059692"><ele>486.33333333333337</ele><time>2026-04-17T09:18:55.999Z</time></trkpt><trkpt lat="48.22665181956226" lon="11.616062149395102"><ele>486.0</ele><time>2026-04-17T09:18:56.999Z</time></trkpt><trkpt lat="48.226649768635774" lon="11.615808297256365"><ele>486.66666666666663</ele><time>2026-04-17T09:18:57.999Z</time></trkpt><trkpt lat="48.22664709594127" lon="11.615563485289895"><ele>487.3333333333333</ele><time>2026-04-17T09:18:58.999Z</time></trkpt><trkpt lat="48.22664941323439" lon="11.615332829580634"><ele>488.0</ele><time>2026-04-17T09:18:59.999Z</time></trkpt><trkpt lat="48.22665323477416" lon="11.61511013443612"><ele>488.0</ele><time>2026-04-17T09:19:00.999Z</time></trkpt><trkpt lat="48.22666262492303" lon="11.614884643403611"><ele>488.0</ele><time>2026-04-17T09:19:01.999Z</time></trkpt><trkpt lat="48.22667666939671" lon="11.614645445891883"><ele>488.0</ele><time>2026-04-17T09:19:02.999Z</time></trkpt><trkpt lat="48.22669731068317" lon="11.614393345922352"><ele>488.0</ele><time>2026-04-17T09:19:03.999Z</time></trkpt><trkpt lat="48.22672691212845" lon="11.61412759643134"><ele>488.0</ele><time>2026-04-17T09:19:04.999Z</time></trkpt><trkpt lat="48.22676967429158" lon="11.613839811555193"><ele>488.0</ele><time>2026-04-17T09:19:05.999Z</time></trkpt><trkpt lat="48.22682152082716" lon="11.613531074962848"><ele>488.3333333333333</ele><time>2026-04-17T09:19:06.999Z</time></trkpt><trkpt lat="48.22687693488969" lon="11.613235827788516"><ele>488.66666666666663</ele><time>2026-04-17T09:19:07.999Z</time></trkpt><trkpt lat="48.22693910778489" lon="11.61293311536937"><ele>489.0</ele><time>2026-04-17T09:19:08.999Z</time></trkpt><trkpt lat="48.22695590845084" lon="11.612600834777997"><ele>489.0</ele><time>2026-04-17T09:19:09.999Z</time></trkpt><trkpt lat="48.22705703185868" lon="11.612279569529388"><ele>489.0</ele><time>2026-04-17T09:19:10.999Z</time></trkpt><trkpt lat="48.22714003963606" lon="11.611976516325074"><ele>489.5</ele><time>2026-04-17T09:19:11.999Z</time></trkpt><trkpt lat="48.227205473098756" lon="11.611651998560438"><ele>490.0</ele><time>2026-04-17T09:19:12.999Z</time></trkpt><trkpt lat="48.227272310393865" lon="11.611319281726443"><ele>490.0</ele><time>2026-04-17T09:19:13.999Z</time></trkpt><trkpt lat="48.227341184964665" lon="11.610963579011218"><ele>490.0</ele><time>2026-04-17T09:19:14.999Z</time></trkpt><trkpt lat="48.227404442316875" lon="11.610627246142888"><ele>490.5</ele><time>2026-04-17T09:19:15.999Z</time></trkpt><trkpt lat="48.22746697857891" lon="11.610299859240714"><ele>491.0</ele><time>2026-04-17T09:19:16.999Z</time></trkpt><trkpt lat="48.22752904554696" lon="11.60996901640848"><ele>491.0</ele><time>2026-04-17T09:19:17.999Z</time></trkpt><trkpt lat="48.22759026586576" lon="11.609629461182037"><ele>491.0</ele><time>2026-04-17T09:19:18.999Z</time></trkpt><trkpt lat="48.227650578788754" lon="11.609286201225128"><ele>490.0</ele><time>2026-04-17T09:19:19.999Z</time></trkpt><trkpt lat="48.227708397234494" lon="11.608945992433455"><ele>489.0</ele><time>2026-04-17T09:19:20.999Z</time></trkpt><trkpt lat="48.2277660450361" lon="11.608604102815354"><ele>488.5</ele><time>2026-04-17T09:19:21.999Z</time></trkpt><trkpt lat="48.22782449039629" lon="11.608252760211126"><ele>488.0</ele><time>2026-04-17T09:19:22.999Z</time></trkpt><trkpt lat="48.227883243073066" lon="11.607883154473052"><ele>489.5</ele><time>2026-04-17T09:19:23.999Z</time></trkpt><trkpt lat="48.22794511251511" lon="11.607490958337118"><ele>491.0</ele><time>2026-04-17T09:19:24.999Z</time></trkpt><trkpt lat="48.228009568888645" lon="11.607081863371995"><ele>490.5</ele><time>2026-04-17T09:19:25.999Z</time></trkpt><trkpt lat="48.22807508502082" lon="11.606644362833757"><ele>490.0</ele><time>2026-04-17T09:19:26.999Z</time></trkpt><trkpt lat="48.2281357293061" lon="11.606222783153914"><ele>490.0</ele><time>2026-04-17T09:19:27.999Z</time></trkpt><trkpt lat="48.228195439692776" lon="11.605793253329452"><ele>490.0</ele><time>2026-04-17T09:19:28.999Z</time></trkpt><trkpt lat="48.22825709035252" lon="11.605367206869362"><ele>490.0</ele><time>2026-04-17T09:19:29.999Z</time></trkpt><trkpt lat="48.22831962914368" lon="11.60494382483745"><ele>490.0</ele><time>2026-04-17T09:19:30.999Z</time></trkpt><trkpt lat="48.228379390561855" lon="11.604535764287531"><ele>490.0</ele><time>2026-04-17T09:19:31.999Z</time></trkpt><trkpt lat="48.228428182708726" lon="11.604151904760425"><ele>490.0</ele><time>2026-04-17T09:19:32.999Z</time></trkpt><trkpt lat="48.22847027104785" lon="11.603771953922708"><ele>490.0</ele><time>2026-04-17T09:19:33.999Z</time></trkpt><trkpt lat="48.22851137789791" lon="11.603371823150688"><ele>490.0</ele><time>2026-04-17T09:19:34.999Z</time></trkpt><trkpt lat="48.22854850487783" lon="11.60299247659761"><ele>490.5</ele><time>2026-04-17T09:19:35.999Z</time></trkpt><trkpt lat="48.228584852677976" lon="11.602629734544905"><ele>491.0</ele><time>2026-04-17T09:19:36.999Z</time></trkpt><trkpt lat="48.22861559835252" lon="11.602280939516687"><ele>490.66666666666663</ele><time>2026-04-17T09:19:37.999Z</time></trkpt><trkpt lat="48.22864116201987" lon="11.601947575429405"><ele>490.33333333333337</ele><time>2026-04-17T09:19:38.999Z</time></trkpt><trkpt lat="48.228666640455266" lon="11.601629362812915"><ele>490.0</ele><time>2026-04-17T09:19:39.999Z</time></trkpt><trkpt lat="48.22869246977793" lon="11.601321433939836"><ele>490.6666666666667</ele><time>2026-04-17T09:19:40.999Z</time></trkpt><trkpt lat="48.22872123758565" lon="11.60101247953901"><ele>491.33333333333337</ele><time>2026-04-17T09:19:41.999Z</time></trkpt><trkpt lat="48.22874153727905" lon="11.600696897751925"><ele>492.0</ele><time>2026-04-17T09:19:42.999Z</time></trkpt><trkpt lat="48.22875908538519" lon="11.600388707598356"><ele>492.0</ele><time>2026-04-17T09:19:43.999Z</time></trkpt><trkpt lat="48.228781453773124" lon="11.600096420134866"><ele>492.0</ele><time>2026-04-17T09:19:44.999Z</time></trkpt><trkpt lat="48.22880230138231" lon="11.59980424708478"><ele>492.0</ele><time>2026-04-17T09:19:45.999Z</time></trkpt><trkpt lat="48.22881985165601" lon="11.599511394528118"><ele>492.0</ele><time>2026-04-17T09:19:46.999Z</time></trkpt><trkpt lat="48.228835008181164" lon="11.599221810233324"><ele>492.0</ele><time>2026-04-17T09:19:47.999Z</time></trkpt><trkpt lat="48.22884459384206" lon="11.598930563732305"><ele>492.0</ele><time>2026-04-17T09:19:48.999Z</time></trkpt><trkpt lat="48.228851464839785" lon="11.59862970038072"><ele>492.0</ele><time>2026-04-17T09:19:49.999Z</time></trkpt><trkpt lat="48.22885967140565" lon="11.598325206097112"><ele>492.0</ele><time>2026-04-17T09:19:50.999Z</time></trkpt><trkpt lat="48.2288718999577" lon="11.598006417953238"><ele>492.0</ele><time>2026-04-17T09:19:51.999Z</time></trkpt><trkpt lat="48.22888528459816" lon="11.597670524209377"><ele>492.5</ele><time>2026-04-17T09:19:52.999Z</time></trkpt><trkpt lat="48.228904362595145" lon="11.597330500788727"><ele>493.0</ele><time>2026-04-17T09:19:53.999Z</time></trkpt><trkpt lat="48.228930515310914" lon="11.596994975111292"><ele>492.33333333333337</ele><time>2026-04-17T09:19:54.999Z</time></trkpt><trkpt lat="48.22895109004326" lon="11.596672470527631"><ele>491.66666666666663</ele><time>2026-04-17T09:19:55.999Z</time></trkpt><trkpt lat="48.228966656769074" lon="11.59635006036691"><ele>491.0</ele><time>2026-04-17T09:19:56.999Z</time></trkpt><trkpt lat="48.22897663102458" lon="11.596039935089633"><ele>491.0</ele><time>2026-04-17T09:19:57.999Z</time></trkpt><trkpt lat="48.22898574794972" lon="11.595743194551364"><ele>491.0</ele><time>2026-04-17T09:19:58.999Z</time></trkpt><trkpt lat="48.22899296626779" lon="11.595451964485443"><ele>491.0</ele><time>2026-04-17T09:19:59.999Z</time></trkpt><trkpt lat="48.22899592089362" lon="11.595152296812072"><ele>491.0</ele><time>2026-04-17T09:20:00.999Z</time></trkpt><trkpt lat="48.22899744753555" lon="11.594849302109095"><ele>491.0</ele><time>2026-04-17T09:20:01.999Z</time></trkpt><trkpt lat="48.22899601060394" lon="11.594538740229972"><ele>491.0</ele><time>2026-04-17T09:20:02.999Z</time></trkpt><trkpt lat="48.22899383562722" lon="11.59421489972981"><ele>491.0</ele><time>2026-04-17T09:20:03.999Z</time></trkpt><trkpt lat="48.228991823373576" lon="11.593886279633601"><ele>491.0</ele><time>2026-04-17T09:20:04.999Z</time></trkpt><trkpt lat="48.22899125994067" lon="11.593563825444651"><ele>491.0</ele><time>2026-04-17T09:20:05.999Z</time></trkpt><trkpt lat="48.22899146920145" lon="11.593250797783819"><ele>491.3333333333333</ele><time>2026-04-17T09:20:06.999Z</time></trkpt><trkpt lat="48.228991989664934" lon="11.592945488187981"><ele>491.66666666666663</ele><time>2026-04-17T09:20:07.999Z</time></trkpt><trkpt lat="48.22899300565239" lon="11.592643165929655"><ele>492.0</ele><time>2026-04-17T09:20:08.999Z</time></trkpt><trkpt lat="48.22899931908377" lon="11.592348009130145"><ele>492.0</ele><time>2026-04-17T09:20:09.999Z</time></trkpt><trkpt lat="48.229010976212386" lon="11.592047333389532"><ele>492.0</ele><time>2026-04-17T09:20:10.999Z</time></trkpt><trkpt lat="48.229011410178586" lon="11.591751017634065"><ele>492.0</ele><time>2026-04-17T09:20:11.999Z</time></trkpt><trkpt lat="48.22900430941817" lon="11.591459480523488"><ele>492.33333333333337</ele><time>2026-04-17T09:20:12.999Z</time></trkpt><trkpt lat="48.228996685305546" lon="11.591178588642212"><ele>492.6666666666667</ele><time>2026-04-17T09:20:13.999Z</time></trkpt><trkpt lat="48.22898762088132" lon="11.590907768789075"><ele>493.0</ele><time>2026-04-17T09:20:14.999Z</time></trkpt><trkpt lat="48.22897923262309" lon="11.590637272941889"><ele>493.33333333333337</ele><time>2026-04-17T09:20:15.999Z</time></trkpt><trkpt lat="48.22897309066138" lon="11.590379438007032"><ele>493.66666666666663</ele><time>2026-04-17T09:20:16.999Z</time></trkpt><trkpt lat="48.228964611182555" lon="11.590130832879066"><ele>494.0</ele><time>2026-04-17T09:20:17.999Z</time></trkpt><trkpt lat="48.22895434007034" lon="11.589899557664667"><ele>493.5</ele><time>2026-04-17T09:20:18.999Z</time></trkpt><trkpt lat="48.22894621923813" lon="11.58969344941084"><ele>493.0</ele><time>2026-04-17T09:20:19.999Z</time></trkpt><trkpt lat="48.22893963696218" lon="11.589506211669304"><ele>492.5</ele><time>2026-04-17T09:20:20.999Z</time></trkpt><trkpt lat="48.228931985950275" lon="11.5893263047068"><ele>492.0</ele><time>2026-04-17T09:20:21.999Z</time></trkpt><trkpt lat="48.22892064687327" lon="11.589151940594455"><ele>491.75</ele><time>2026-04-17T09:20:22.999Z</time></trkpt><trkpt lat="48.22891484197994" lon="11.588992519072427"><ele>491.5</ele><time>2026-04-17T09:20:23.999Z</time></trkpt><trkpt lat="48.22891736886149" lon="11.588829839018176"><ele>491.25</ele><time>2026-04-17T09:20:24.999Z</time></trkpt><trkpt lat="48.22893823119035" lon="11.588660992445044"><ele>491.0</ele><time>2026-04-17T09:20:25.999Z</time></trkpt><trkpt lat="48.22897505461717" lon="11.588485568031771"><ele>491.5</ele><time>2026-04-17T09:20:26.999Z</time></trkpt><trkpt lat="48.22903181122387" lon="11.588312758190822"><ele>492.0</ele><time>2026-04-17T09:20:27.999Z</time></trkpt><trkpt lat="48.22911009375991" lon="11.588160725547649"><ele>492.5</ele><time>2026-04-17T09:20:28.999Z</time></trkpt><trkpt lat="48.22920686243013" lon="11.588041922242917"><ele>493.0</ele><time>2026-04-17T09:20:29.999Z</time></trkpt><trkpt lat="48.229310230992" lon="11.587954285906141"><ele>493.0</ele><time>2026-04-17T09:20:30.999Z</time></trkpt><trkpt lat="48.22938775190232" lon="11.587853322205197"><ele>492.99999999999994</ele><time>2026-04-17T09:20:31.999Z</time></trkpt><trkpt lat="48.22950712073239" lon="11.587853510529923"><ele>492.99999999999994</ele><time>2026-04-17T09:20:32.999Z</time></trkpt><trkpt lat="48.229596397596346" lon="11.587789728397933"><ele>493.0</ele><time>2026-04-17T09:20:33.999Z</time></trkpt><trkpt lat="48.2296832665852" lon="11.587711994490169"><ele>493.0</ele><time>2026-04-17T09:20:34.999Z</time></trkpt><trkpt lat="48.229760923015625" lon="11.587614862875673"><ele>493.00000000000006</ele><time>2026-04-17T09:20:35.999Z</time></trkpt><trkpt lat="48.22981824613945" lon="11.587510092901693"><ele>493.0</ele><time>2026-04-17T09:20:36.999Z</time></trkpt><trkpt lat="48.229856541311854" lon="11.587398491951777"><ele>493.0</ele><time>2026-04-17T09:20:37.999Z</time></trkpt><trkpt lat="48.229885488071666" lon="11.5872851049183"><ele>493.0</ele><time>2026-04-17T09:20:38.999Z</time></trkpt><trkpt lat="48.22990272031363" lon="11.587165279955432"><ele>493.00000000000006</ele><time>2026-04-17T09:20:39.999Z</time></trkpt><trkpt lat="48.22990197981178" lon="11.587036373083102"><ele>493.0</ele><time>2026-04-17T09:20:40.999Z</time></trkpt><trkpt lat="48.22989220791478" lon="11.586884105848101"><ele>493.2</ele><time>2026-04-17T09:20:41.999Z</time></trkpt><trkpt lat="48.22987522343565" lon="11.586704365469885"><ele>493.4</ele><time>2026-04-17T09:20:42.999Z</time></trkpt><trkpt lat="48.229864054400416" lon="11.586542760218109"><ele>493.59999999999997</ele><time>2026-04-17T09:20:43.999Z</time></trkpt><trkpt lat="48.229859524007175" lon="11.586396250787242"><ele>493.79999999999995</ele><time>2026-04-17T09:20:44.999Z</time></trkpt><trkpt lat="48.22984745911439" lon="11.586269376250204"><ele>494.0</ele><time>2026-04-17T09:20:45.999Z</time></trkpt><trkpt lat="48.22983131547954" lon="11.586154711137992"><ele>494.0</ele><time>2026-04-17T09:20:46.999Z</time></trkpt><trkpt lat="48.229819520376466" lon="11.586047872203915"><ele>494.0</ele><time>2026-04-17T09:20:47.999Z</time></trkpt><trkpt lat="48.229793687369856" lon="11.585950540174565"><ele>494.0</ele><time>2026-04-17T09:20:48.999Z</time></trkpt><trkpt lat="48.229753130578786" lon="11.585845627467323"><ele>494.0</ele><time>2026-04-17T09:20:50.999Z</time></trkpt><trkpt lat="48.229601047267" lon="11.585853380859318"><ele>494.0</ele><time>2026-04-17T09:20:51.999Z</time></trkpt><trkpt lat="48.229512088447365" lon="11.585880714193113"><ele>493.6</ele><time>2026-04-17T09:20:52.999Z</time></trkpt><trkpt lat="48.22941012590505" lon="11.585923495524431"><ele>493.2</ele><time>2026-04-17T09:20:53.999Z</time></trkpt><trkpt lat="48.22929031738327" lon="11.585965132028115"><ele>492.80000000000007</ele><time>2026-04-17T09:20:54.999Z</time></trkpt><trkpt lat="48.22917742688322" lon="11.58600378605381"><ele>492.40000000000003</ele><time>2026-04-17T09:20:55.999Z</time></trkpt><trkpt lat="48.22908116703187" lon="11.586033197444007"><ele>492.0</ele><time>2026-04-17T09:20:56.999Z</time></trkpt><trkpt lat="48.22899759494082" lon="11.58606122493322"><ele>492.0</ele><time>2026-04-17T09:20:57.999Z</time></trkpt><trkpt lat="48.22891615544537" lon="11.586087057241064"><ele>492.0</ele><time>2026-04-17T09:20:58.999Z</time></trkpt><trkpt lat="48.228833222815226" lon="11.586110728294333"><ele>492.0</ele><time>2026-04-17T09:20:59.999Z</time></trkpt><trkpt lat="48.22875273841401" lon="11.58613878797343"><ele>492.0</ele><time>2026-04-17T09:21:00.999Z</time></trkpt><trkpt lat="48.22867015115319" lon="11.586167686859298"><ele>492.0</ele><time>2026-04-17T09:21:01.999Z</time></trkpt><trkpt lat="48.22859025705824" lon="11.586193359364641"><ele>492.0</ele><time>2026-04-17T09:21:02.999Z</time></trkpt><trkpt lat="48.2284928475245" lon="11.586221030858642"><ele>492.6</ele><time>2026-04-17T09:21:03.999Z</time></trkpt><trkpt lat="48.22837711909638" lon="11.586258831817153"><ele>493.20000000000005</ele><time>2026-04-17T09:21:04.999Z</time></trkpt><trkpt lat="48.228253243072814" lon="11.586296737049453"><ele>493.8</ele><time>2026-04-17T09:21:05.999Z</time></trkpt><trkpt lat="48.22815307341987" lon="11.586325731669001"><ele>494.4</ele><time>2026-04-17T09:21:06.999Z</time></trkpt><trkpt lat="48.22806487037762" lon="11.586350856723774"><ele>495.0</ele><time>2026-04-17T09:21:07.999Z</time></trkpt><trkpt lat="48.22797833859833" lon="11.586371602282648"><ele>495.0</ele><time>2026-04-17T09:21:09Z</time></trkpt><trkpt lat="48.22789210389808" lon="11.586422795394283"><ele>495.0</ele><time>2026-04-17T09:21:10Z</time></trkpt><trkpt lat="48.227808810356734" lon="11.586400795718816"><ele>495.0</ele><time>2026-04-17T09:21:11Z</time></trkpt><trkpt lat="48.22772343785798" lon="11.586412020551021"><ele>495.0</ele><time>2026-04-17T09:21:12Z</time></trkpt><trkpt lat="48.22763019615711" lon="11.586424612381034"><ele>495.0</ele><time>2026-04-17T09:21:13Z</time></trkpt><trkpt lat="48.227536688546785" lon="11.586433697828587"><ele>495.0</ele><time>2026-04-17T09:21:14Z</time></trkpt><trkpt lat="48.2274566726298" lon="11.586431447081154"><ele>495.0</ele><time>2026-04-17T09:21:15Z</time></trkpt><trkpt lat="48.22738606892211" lon="11.58642266380427"><ele>495.0</ele><time>2026-04-17T09:21:16Z</time></trkpt><trkpt lat="48.22731908165482" lon="11.586402442463541"><ele>495.0</ele><time>2026-04-17T09:21:17Z</time></trkpt><trkpt lat="48.22720960996303" lon="11.586347654661571"><ele>495.0</ele><time>2026-04-17T09:21:19Z</time></trkpt><trkpt lat="48.22712649462671" lon="11.586287012717788"><ele>495.0</ele><time>2026-04-17T09:21:21Z</time></trkpt><trkpt lat="48.22706701096222" lon="11.586226520967603"><ele>494.8333333333333</ele><time>2026-04-17T09:21:24Z</time></trkpt><trkpt lat="48.22700721954664" lon="11.586142239628957"><ele>494.66666666666663</ele><time>2026-04-17T09:21:38Z</time></trkpt><trkpt lat="48.22694788494366" lon="11.586004012379103"><ele>494.5</ele><time>2026-04-17T09:21:46Z</time></trkpt><trkpt lat="48.226923260099895" lon="11.58589231351036"><ele>494.3333333333333</ele><time>2026-04-17T09:21:47Z</time></trkpt><trkpt lat="48.22691524984661" lon="11.585763061799685"><ele>494.16666666666663</ele><time>2026-04-17T09:21:48Z</time></trkpt><trkpt lat="48.226919429009996" lon="11.585652015212768"><ele>494.0</ele><time>2026-04-17T09:21:49Z</time></trkpt><trkpt lat="48.22693665647317" lon="11.58553760336531"><ele>494.0</ele><time>2026-04-17T09:21:50Z</time></trkpt><trkpt lat="48.226965846890955" lon="11.585412237479956"><ele>494.0</ele><time>2026-04-17T09:21:51Z</time></trkpt><trkpt lat="48.227017908116224" lon="11.585287614458741"><ele>494.0</ele><time>2026-04-17T09:21:52Z</time></trkpt><trkpt lat="48.22708847700258" lon="11.58518309908892"><ele>494.0</ele><time>2026-04-17T09:21:53Z</time></trkpt><trkpt lat="48.227167917851034" lon="11.585101257443778"><ele>494.0</ele><time>2026-04-17T09:21:54Z</time></trkpt><trkpt lat="48.22724958035632" lon="11.585035406446197"><ele>493.0</ele><time>2026-04-17T09:21:55Z</time></trkpt><trkpt lat="48.22733572717828" lon="11.584979287851068"><ele>492.0</ele><time>2026-04-17T09:21:56Z</time></trkpt><trkpt lat="48.22742687488722" lon="11.584927670057187"><ele>491.0</ele><time>2026-04-17T09:21:57Z</time></trkpt><trkpt lat="48.227526451450984" lon="11.584899609625069"><ele>490.0</ele><time>2026-04-17T09:21:58Z</time></trkpt><trkpt lat="48.2276292013757" lon="11.584871971212257"><ele>489.0</ele><time>2026-04-17T09:21:59Z</time></trkpt><trkpt lat="48.2277325924221" lon="11.584836869000464"><ele>489.0</ele><time>2026-04-17T09:22:00Z</time></trkpt><trkpt lat="48.22783763275969" lon="11.584812884865126"><ele>489.0</ele><time>2026-04-17T09:22:01Z</time></trkpt><trkpt lat="48.22794703038796" lon="11.584827829278408"><ele>489.0</ele><time>2026-04-17T09:22:02Z</time></trkpt><trkpt lat="48.22804989772159" lon="11.584894417569975"><ele>489.0</ele><time>2026-04-17T09:22:03Z</time></trkpt><trkpt lat="48.22814781453674" lon="11.584979037947935"><ele>489.0</ele><time>2026-04-17T09:22:04Z</time></trkpt><trkpt lat="48.228242595519205" lon="11.585094369156499"><ele>489.25</ele><time>2026-04-17T09:22:05Z</time></trkpt><trkpt lat="48.22831745441798" lon="11.585260550939887"><ele>489.5</ele><time>2026-04-17T09:22:06Z</time></trkpt><trkpt lat="48.2283661281487" lon="11.585464218761958"><ele>489.75</ele><time>2026-04-17T09:22:07Z</time></trkpt><trkpt lat="48.22841069891219" lon="11.585666110052223"><ele>490.0</ele><time>2026-04-17T09:22:08Z</time></trkpt><trkpt lat="48.228403608179754" lon="11.585901203144234"><ele>490.6666666666667</ele><time>2026-04-17T09:22:09Z</time></trkpt><trkpt lat="48.228423036683104" lon="11.586148942585128"><ele>491.33333333333337</ele><time>2026-04-17T09:22:10Z</time></trkpt><trkpt lat="48.22844581629859" lon="11.58644274015763"><ele>492.0</ele><time>2026-04-17T09:22:11Z</time></trkpt><trkpt lat="48.22847064600547" lon="11.586802998917037"><ele>493.0</ele><time>2026-04-17T09:22:12Z</time></trkpt><trkpt lat="48.22849488266655" lon="11.587217237975526"><ele>494.0</ele><time>2026-04-17T09:22:13Z</time></trkpt><trkpt lat="48.22851148184414" lon="11.587654713706936"><ele>493.5</ele><time>2026-04-17T09:22:14Z</time></trkpt><trkpt lat="48.22853589731974" lon="11.588047619758784"><ele>493.0</ele><time>2026-04-17T09:22:15Z</time></trkpt><trkpt lat="48.22855502732294" lon="11.58839036214878"><ele>492.33333333333337</ele><time>2026-04-17T09:22:16Z</time></trkpt><trkpt lat="48.22857385769847" lon="11.588699417124591"><ele>491.66666666666663</ele><time>2026-04-17T09:22:17Z</time></trkpt><trkpt lat="48.228588857386434" lon="11.58900224442596"><ele>491.0</ele><time>2026-04-17T09:22:18Z</time></trkpt><trkpt lat="48.22860178053085" lon="11.58930143208845"><ele>491.3333333333333</ele><time>2026-04-17T09:22:19Z</time></trkpt><trkpt lat="48.22861421933153" lon="11.58960219263754"><ele>491.66666666666663</ele><time>2026-04-17T09:22:20Z</time></trkpt><trkpt lat="48.22862704030014" lon="11.589892105389216"><ele>492.0</ele><time>2026-04-17T09:22:21Z</time></trkpt><trkpt lat="48.2286390055575" lon="11.59018280812321"><ele>492.66666666666663</ele><time>2026-04-17T09:22:22Z</time></trkpt><trkpt lat="48.22864794458256" lon="11.590471615108568"><ele>493.3333333333333</ele><time>2026-04-17T09:22:23Z</time></trkpt><trkpt lat="48.22865679108539" lon="11.59076261117091"><ele>494.0</ele><time>2026-04-17T09:22:24Z</time></trkpt><trkpt lat="48.22866761993743" lon="11.591060193012346"><ele>493.66666666666663</ele><time>2026-04-17T09:22:25Z</time></trkpt><trkpt lat="48.22868019726439" lon="11.59137879188532"><ele>493.33333333333337</ele><time>2026-04-17T09:22:26Z</time></trkpt><trkpt lat="48.22868765964121" lon="11.591713933726282"><ele>493.0</ele><time>2026-04-17T09:22:27Z</time></trkpt><trkpt lat="48.22869289648359" lon="11.592055231865515"><ele>493.0</ele><time>2026-04-17T09:22:28Z</time></trkpt><trkpt lat="48.22869865139701" lon="11.592398153380218"><ele>493.0</ele><time>2026-04-17T09:22:29Z</time></trkpt><trkpt lat="48.22870402013969" lon="11.592764954928429"><ele>492.0</ele><time>2026-04-17T09:22:30Z</time></trkpt><trkpt lat="48.22870622279202" lon="11.593148094993419"><ele>491.0</ele><time>2026-04-17T09:22:31Z</time></trkpt><trkpt lat="48.22870785987048" lon="11.593537185172691"><ele>491.0</ele><time>2026-04-17T09:22:32Z</time></trkpt><trkpt lat="48.22870742668723" lon="11.593940776955352"><ele>491.0</ele><time>2026-04-17T09:22:33Z</time></trkpt><trkpt lat="48.228704136641525" lon="11.594369037733479"><ele>490.0</ele><time>2026-04-17T09:22:34Z</time></trkpt><trkpt lat="48.22870017990807" lon="11.594784377787228"><ele>489.0</ele><time>2026-04-17T09:22:35Z</time></trkpt><trkpt lat="48.228692386308694" lon="11.59516340331285"><ele>489.0</ele><time>2026-04-17T09:22:36Z</time></trkpt><trkpt lat="48.22868600095831" lon="11.595531849863029"><ele>489.0</ele><time>2026-04-17T09:22:37Z</time></trkpt><trkpt lat="48.22867749259184" lon="11.595897123504608"><ele>490.0</ele><time>2026-04-17T09:22:38Z</time></trkpt><trkpt lat="48.228666945544106" lon="11.596258553983144"><ele>491.0</ele><time>2026-04-17T09:22:39Z</time></trkpt><trkpt lat="48.228654491249095" lon="11.596619681914037"><ele>491.0</ele><time>2026-04-17T09:22:40Z</time></trkpt><trkpt lat="48.2286426699693" lon="11.596981775573152"><ele>491.0</ele><time>2026-04-17T09:22:41Z</time></trkpt><trkpt lat="48.228628690233066" lon="11.597354350036916"><ele>491.5</ele><time>2026-04-17T09:22:42Z</time></trkpt><trkpt lat="48.22861169290857" lon="11.59773518309436"><ele>492.0</ele><time>2026-04-17T09:22:43Z</time></trkpt><trkpt lat="48.22859170760425" lon="11.598128812466845"><ele>492.0</ele><time>2026-04-17T09:22:44Z</time></trkpt><trkpt lat="48.228575380768255" lon="11.598535940893267"><ele>492.0</ele><time>2026-04-17T09:22:45Z</time></trkpt><trkpt lat="48.22856328964944" lon="11.59894143154918"><ele>492.0</ele><time>2026-04-17T09:22:46Z</time></trkpt><trkpt lat="48.2285429809966" lon="11.599343203826733"><ele>492.0</ele><time>2026-04-17T09:22:47Z</time></trkpt><trkpt lat="48.22851868272365" lon="11.599734023268335"><ele>492.0</ele><time>2026-04-17T09:22:48Z</time></trkpt><trkpt lat="48.22849290535995" lon="11.600110828785818"><ele>492.0</ele><time>2026-04-17T09:22:49Z</time></trkpt><trkpt lat="48.2284661116544" lon="11.600482001286197"><ele>492.0</ele><time>2026-04-17T09:22:50Z</time></trkpt><trkpt lat="48.228440427991565" lon="11.600844829302197"><ele>492.0</ele><time>2026-04-17T09:22:51Z</time></trkpt><trkpt lat="48.228413101980955" lon="11.601194182540842"><ele>491.0</ele><time>2026-04-17T09:22:52Z</time></trkpt><trkpt lat="48.22838816846283" lon="11.601533815570267"><ele>490.0</ele><time>2026-04-17T09:22:53Z</time></trkpt><trkpt lat="48.228362823906096" lon="11.601866382748534"><ele>490.0</ele><time>2026-04-17T09:22:54Z</time></trkpt><trkpt lat="48.22833373635054" lon="11.602196672464443"><ele>490.0</ele><time>2026-04-17T09:22:55Z</time></trkpt><trkpt lat="48.228302312137714" lon="11.602530940489915"><ele>490.0</ele><time>2026-04-17T09:22:56Z</time></trkpt><trkpt lat="48.228268992012886" lon="11.602883291430588"><ele>490.0</ele><time>2026-04-17T09:22:57Z</time></trkpt><trkpt lat="48.22823002723208" lon="11.603256697982037"><ele>490.0</ele><time>2026-04-17T09:22:58Z</time></trkpt><trkpt lat="48.22818404173675" lon="11.603647667942885"><ele>491.0</ele><time>2026-04-17T09:22:59Z</time></trkpt><trkpt lat="48.22813174346872" lon="11.60405019996694"><ele>492.0</ele><time>2026-04-17T09:23:00Z</time></trkpt><trkpt lat="48.22808232828068" lon="11.604442858060132"><ele>492.0</ele><time>2026-04-17T09:23:01Z</time></trkpt><trkpt lat="48.22803832702713" lon="11.604805324809398"><ele>492.0</ele><time>2026-04-17T09:23:02Z</time></trkpt><trkpt lat="48.227997765352775" lon="11.605145423953756"><ele>491.33333333333337</ele><time>2026-04-17T09:23:03Z</time></trkpt><trkpt lat="48.22795290113817" lon="11.605470281772513"><ele>490.6666666666667</ele><time>2026-04-17T09:23:04Z</time></trkpt><trkpt lat="48.22790774948403" lon="11.605784327129964"><ele>490.0</ele><time>2026-04-17T09:23:05Z</time></trkpt><trkpt lat="48.22786410213463" lon="11.606095833500454"><ele>490.0</ele><time>2026-04-17T09:23:06Z</time></trkpt><trkpt lat="48.22781904472572" lon="11.606411761638626"><ele>490.0</ele><time>2026-04-17T09:23:07Z</time></trkpt><trkpt lat="48.22777007854904" lon="11.606745974483655"><ele>490.0</ele><time>2026-04-17T09:23:08Z</time></trkpt><trkpt lat="48.227714798409856" lon="11.607103281779276"><ele>490.5</ele><time>2026-04-17T09:23:09Z</time></trkpt><trkpt lat="48.22765391890804" lon="11.607484217958298"><ele>491.0</ele><time>2026-04-17T09:23:10Z</time></trkpt><trkpt lat="48.22759245769484" lon="11.607884595831134"><ele>490.0</ele><time>2026-04-17T09:23:11Z</time></trkpt><trkpt lat="48.22752767406296" lon="11.608294736508837"><ele>489.0</ele><time>2026-04-17T09:23:12Z</time></trkpt><trkpt lat="48.227458040646866" lon="11.608694038327926"><ele>489.0</ele><time>2026-04-17T09:23:13Z</time></trkpt><trkpt lat="48.22738969567075" lon="11.60906801829029"><ele>489.0</ele><time>2026-04-17T09:23:14Z</time></trkpt><trkpt lat="48.22732275678169" lon="11.609428491101639"><ele>489.0</ele><time>2026-04-17T09:23:15Z</time></trkpt><trkpt lat="48.227253710345366" lon="11.609785218175052"><ele>489.0</ele><time>2026-04-17T09:23:16Z</time></trkpt><trkpt lat="48.227179446840054" lon="11.610148120828471"><ele>489.5</ele><time>2026-04-17T09:23:17Z</time></trkpt><trkpt lat="48.22710460273902" lon="11.610518820468945"><ele>490.0</ele><time>2026-04-17T09:23:18Z</time></trkpt><trkpt lat="48.22702891518137" lon="11.61089852475257"><ele>490.0</ele><time>2026-04-17T09:23:19Z</time></trkpt><trkpt lat="48.22695118394991" lon="11.611277087272777"><ele>490.0</ele><time>2026-04-17T09:23:20Z</time></trkpt><trkpt lat="48.226874450305914" lon="11.61163164107331"><ele>490.0</ele><time>2026-04-17T09:23:21Z</time></trkpt><trkpt lat="48.22679657755375" lon="11.61198271811514"><ele>490.0</ele><time>2026-04-17T09:23:22Z</time></trkpt><trkpt lat="48.22671480450219" lon="11.612345759485482"><ele>489.5</ele><time>2026-04-17T09:23:23Z</time></trkpt><trkpt lat="48.22662961576069" lon="11.61272251482641"><ele>489.0</ele><time>2026-04-17T09:23:24Z</time></trkpt><trkpt lat="48.22654277857506" lon="11.613095388380001"><ele>488.5</ele><time>2026-04-17T09:23:25Z</time></trkpt><trkpt lat="48.22645876705019" lon="11.613450533325228"><ele>488.0</ele><time>2026-04-17T09:23:26Z</time></trkpt><trkpt lat="48.22637678737083" lon="11.613790651421091"><ele>487.5</ele><time>2026-04-17T09:23:27Z</time></trkpt><trkpt lat="48.226293919803446" lon="11.614128015489467"><ele>487.0</ele><time>2026-04-17T09:23:28Z</time></trkpt><trkpt lat="48.22620964081842" lon="11.614466450368527"><ele>487.5</ele><time>2026-04-17T09:23:29Z</time></trkpt><trkpt lat="48.22612332320907" lon="11.614807991283493"><ele>488.0</ele><time>2026-04-17T09:23:30Z</time></trkpt><trkpt lat="48.226034076089306" lon="11.615150026725027"><ele>489.0</ele><time>2026-04-17T09:23:31Z</time></trkpt><trkpt lat="48.2259452751896" lon="11.615490186105312"><ele>490.0</ele><time>2026-04-17T09:23:32Z</time></trkpt><trkpt lat="48.2258594512938" lon="11.615836905300812"><ele>490.0</ele><time>2026-04-17T09:23:33Z</time></trkpt><trkpt lat="48.22577428729895" lon="11.616180970985269"><ele>490.0</ele><time>2026-04-17T09:23:34Z</time></trkpt><trkpt lat="48.225684644900085" lon="11.616512696612523"><ele>490.0</ele><time>2026-04-17T09:23:35Z</time></trkpt><trkpt lat="48.22558644902698" lon="11.616828080939042"><ele>490.0</ele><time>2026-04-17T09:23:36Z</time></trkpt><trkpt lat="48.225487905445384" lon="11.617121333072324"><ele>490.0</ele><time>2026-04-17T09:23:37Z</time></trkpt><trkpt lat="48.22539717920945" lon="11.61740341972608"><ele>490.0</ele><time>2026-04-17T09:23:38Z</time></trkpt><trkpt lat="48.22531380620953" lon="11.6176812516914"><ele>490.0</ele><time>2026-04-17T09:23:39Z</time></trkpt><trkpt lat="48.225233064218244" lon="11.617958476076515"><ele>490.0</ele><time>2026-04-17T09:23:40Z</time></trkpt><trkpt lat="48.22514909909088" lon="11.618237602573641"><ele>490.0</ele><time>2026-04-17T09:23:41Z</time></trkpt><trkpt lat="48.22506443840693" lon="11.618519362470261"><ele>490.0</ele><time>2026-04-17T09:23:42Z</time></trkpt><trkpt lat="48.22498086346661" lon="11.61879989219835"><ele>490.0</ele><time>2026-04-17T09:23:43Z</time></trkpt><trkpt lat="48.22489794233556" lon="11.619070998055358"><ele>490.0</ele><time>2026-04-17T09:23:44Z</time></trkpt><trkpt lat="48.2248115683279" lon="11.619334763587174"><ele>490.0</ele><time>2026-04-17T09:23:45Z</time></trkpt><trkpt lat="48.224725347848924" lon="11.619595413090742"><ele>490.0</ele><time>2026-04-17T09:23:46Z</time></trkpt><trkpt lat="48.22464076645668" lon="11.619857420874482"><ele>490.0</ele><time>2026-04-17T09:23:47Z</time></trkpt><trkpt lat="48.224554707735805" lon="11.620128011318156"><ele>490.0</ele><time>2026-04-17T09:23:48Z</time></trkpt><trkpt lat="48.2244622412015" lon="11.620414195280352"><ele>490.0</ele><time>2026-04-17T09:23:49Z</time></trkpt><trkpt lat="48.224362337643115" lon="11.620709380801543"><ele>490.0</ele><time>2026-04-17T09:23:50Z</time></trkpt><trkpt lat="48.22425612705894" lon="11.621018396113435"><ele>490.5</ele><time>2026-04-17T09:23:51Z</time></trkpt><trkpt lat="48.22414545032294" lon="11.621340812199156"><ele>491.0</ele><time>2026-04-17T09:23:52Z</time></trkpt><trkpt lat="48.224031463368874" lon="11.621667611346059"><ele>491.5</ele><time>2026-04-17T09:23:53Z</time></trkpt><trkpt lat="48.223914165631086" lon="11.621993909397089"><ele>492.0</ele><time>2026-04-17T09:23:54Z</time></trkpt><trkpt lat="48.22379714444258" lon="11.62230900948647"><ele>492.0</ele><time>2026-04-17T09:23:55Z</time></trkpt><trkpt lat="48.22367982596314" lon="11.622613484605523"><ele>492.0</ele><time>2026-04-17T09:23:56Z</time></trkpt><trkpt lat="48.22356566413873" lon="11.622899287371993"><ele>492.0</ele><time>2026-04-17T09:23:57.001Z</time></trkpt><trkpt lat="48.22345149603159" lon="11.623182625767427"><ele>492.0</ele><time>2026-04-17T09:23:58.001Z</time></trkpt><trkpt lat="48.223341285879215" lon="11.623451135189073"><ele>492.0</ele><time>2026-04-17T09:23:59.001Z</time></trkpt><trkpt lat="48.22323514231206" lon="11.623698446692462"><ele>491.66666666666663</ele><time>2026-04-17T09:24:00.001Z</time></trkpt><trkpt lat="48.22313749401507" lon="11.623924796882001"><ele>491.3333333333333</ele><time>2026-04-17T09:24:01.001Z</time></trkpt><trkpt lat="48.223042083413304" lon="11.624140892321034"><ele>491.0</ele><time>2026-04-17T09:24:02.001Z</time></trkpt><trkpt lat="48.222943558766175" lon="11.624355362990618"><ele>491.3333333333333</ele><time>2026-04-17T09:24:03.001Z</time></trkpt><trkpt lat="48.2228403917983" lon="11.62457736762813"><ele>491.66666666666663</ele><time>2026-04-17T09:24:04.001Z</time></trkpt><trkpt lat="48.222735960698074" lon="11.624801111958357"><ele>492.0</ele><time>2026-04-17T09:24:05.001Z</time></trkpt><trkpt lat="48.22263245593339" lon="11.625018705716881"><ele>492.0</ele><time>2026-04-17T09:24:06.001Z</time></trkpt><trkpt lat="48.222526439535564" lon="11.62523628689257"><ele>492.0</ele><time>2026-04-17T09:24:07.001Z</time></trkpt><trkpt lat="48.22242097348097" lon="11.625449475829694"><ele>492.0</ele><time>2026-04-17T09:24:08.001Z</time></trkpt><trkpt lat="48.22231443449432" lon="11.625658537309482"><ele>492.0</ele><time>2026-04-17T09:24:09.001Z</time></trkpt><trkpt lat="48.22220448431196" lon="11.62585842990963"><ele>492.0</ele><time>2026-04-17T09:24:10.001Z</time></trkpt><trkpt lat="48.222094241940326" lon="11.62605319273739"><ele>492.0</ele><time>2026-04-17T09:24:11.001Z</time></trkpt><trkpt lat="48.221981305384894" lon="11.626240115528073"><ele>492.0</ele><time>2026-04-17T09:24:12.001Z</time></trkpt><trkpt lat="48.22186302594634" lon="11.626414189458327"><ele>492.0</ele><time>2026-04-17T09:24:13.001Z</time></trkpt><trkpt lat="48.221737257954004" lon="11.626578410816801"><ele>492.0</ele><time>2026-04-17T09:24:14.001Z</time></trkpt><trkpt lat="48.22160613782941" lon="11.626736508618611"><ele>492.0</ele><time>2026-04-17T09:24:15.001Z</time></trkpt><trkpt lat="48.22146935402451" lon="11.6268896066634"><ele>492.0</ele><time>2026-04-17T09:24:16.001Z</time></trkpt><trkpt lat="48.221321110947805" lon="11.627041173386075"><ele>492.0</ele><time>2026-04-17T09:24:17.001Z</time></trkpt><trkpt lat="48.22116511374156" lon="11.62718488007465"><ele>492.0</ele><time>2026-04-17T09:24:18.001Z</time></trkpt><trkpt lat="48.220999339602194" lon="11.627321061706326"><ele>492.0</ele><time>2026-04-17T09:24:19.001Z</time></trkpt><trkpt lat="48.22082471196992" lon="11.627448658725394"><ele>492.0</ele><time>2026-04-17T09:24:20.001Z</time></trkpt><trkpt lat="48.22064934568364" lon="11.627557315817945"><ele>491.66666666666663</ele><time>2026-04-17T09:24:21.001Z</time></trkpt><trkpt lat="48.220480092634475" lon="11.627645162573085"><ele>491.3333333333333</ele><time>2026-04-17T09:24:22.001Z</time></trkpt><trkpt lat="48.220311787420265" lon="11.627718003877462"><ele>491.0</ele><time>2026-04-17T09:24:23.001Z</time></trkpt><trkpt lat="48.22014618678849" lon="11.627773486391048"><ele>491.3333333333333</ele><time>2026-04-17T09:24:24.001Z</time></trkpt><trkpt lat="48.21998316975026" lon="11.627816791935167"><ele>491.66666666666663</ele><time>2026-04-17T09:24:25.001Z</time></trkpt><trkpt lat="48.21981616049945" lon="11.627848290869212"><ele>492.0</ele><time>2026-04-17T09:24:26.001Z</time></trkpt><trkpt lat="48.21964589116915" lon="11.627864568692974"><ele>492.66666666666663</ele><time>2026-04-17T09:24:27.001Z</time></trkpt><trkpt lat="48.21947657340458" lon="11.627876117485224"><ele>493.3333333333333</ele><time>2026-04-17T09:24:28.001Z</time></trkpt><trkpt lat="48.2192982062858" lon="11.627881521147378"><ele>494.0</ele><time>2026-04-17T09:24:29.001Z</time></trkpt><trkpt lat="48.21910810181952" lon="11.627871703523288"><ele>493.66666666666663</ele><time>2026-04-17T09:24:30.001Z</time></trkpt><trkpt lat="48.218902867574975" lon="11.62783882479074"><ele>493.33333333333337</ele><time>2026-04-17T09:24:31.001Z</time></trkpt><trkpt lat="48.21868600341313" lon="11.627782651073339"><ele>493.0</ele><time>2026-04-17T09:24:32.001Z</time></trkpt><trkpt lat="48.218461792148176" lon="11.627700886130798"><ele>493.0</ele><time>2026-04-17T09:24:33.001Z</time></trkpt><trkpt lat="48.218229549250424" lon="11.627597529963396"><ele>493.0</ele><time>2026-04-17T09:24:34.001Z</time></trkpt><trkpt lat="48.21799288683348" lon="11.627492587689078"><ele>492.5</ele><time>2026-04-17T09:24:35.001Z</time></trkpt><trkpt lat="48.21775740881262" lon="11.627381976517219"><ele>492.0</ele><time>2026-04-17T09:24:36.001Z</time></trkpt><trkpt lat="48.21752516402389" lon="11.627264215522159"><ele>492.0</ele><time>2026-04-17T09:24:37.001Z</time></trkpt><trkpt lat="48.21729403868791" lon="11.627146708886096"><ele>492.0</ele><time>2026-04-17T09:24:38.001Z</time></trkpt><trkpt lat="48.21706462900327" lon="11.62703405007717"><ele>491.5</ele><time>2026-04-17T09:24:39.001Z</time></trkpt><trkpt lat="48.2168389190282" lon="11.626919234467298"><ele>491.0</ele><time>2026-04-17T09:24:40.001Z</time></trkpt><trkpt lat="48.21661410256015" lon="11.626806512010559"><ele>491.5</ele><time>2026-04-17T09:24:41.001Z</time></trkpt><trkpt lat="48.21639060164516" lon="11.626685953922719"><ele>492.0</ele><time>2026-04-17T09:24:42.001Z</time></trkpt><trkpt lat="48.216168629804685" lon="11.626555601676184"><ele>492.0</ele><time>2026-04-17T09:24:43.001Z</time></trkpt><trkpt lat="48.21594152660414" lon="11.626437120334918"><ele>492.0</ele><time>2026-04-17T09:24:44.001Z</time></trkpt><trkpt lat="48.21571266862413" lon="11.626321111406448"><ele>492.5</ele><time>2026-04-17T09:24:45.001Z</time></trkpt><trkpt lat="48.21548506790847" lon="11.626205868818024"><ele>493.0</ele><time>2026-04-17T09:24:46.001Z</time></trkpt><trkpt lat="48.21526443066052" lon="11.626096132698727"><ele>493.5</ele><time>2026-04-17T09:24:47.001Z</time></trkpt><trkpt lat="48.21504241794433" lon="11.625984876421727"><ele>494.0</ele><time>2026-04-17T09:24:48.001Z</time></trkpt><trkpt lat="48.214814107318" lon="11.625870838282678"><ele>492.0</ele><time>2026-04-17T09:24:49.001Z</time></trkpt><trkpt lat="48.21457674412138" lon="11.625754097323643"><ele>490.0</ele><time>2026-04-17T09:24:50.001Z</time></trkpt><trkpt lat="48.214333899827786" lon="11.62563532145842"><ele>490.0</ele><time>2026-04-17T09:24:51.001Z</time></trkpt><trkpt lat="48.21409330869856" lon="11.625514986349758"><ele>490.0</ele><time>2026-04-17T09:24:52.001Z</time></trkpt><trkpt lat="48.21385668582766" lon="11.625397183788326"><ele>491.5</ele><time>2026-04-17T09:24:53.001Z</time></trkpt><trkpt lat="48.21362884627658" lon="11.62528360596226"><ele>493.0</ele><time>2026-04-17T09:24:54.001Z</time></trkpt><trkpt lat="48.21340936403658" lon="11.625174839582018"><ele>493.0</ele><time>2026-04-17T09:24:55.001Z</time></trkpt><trkpt lat="48.21318798107848" lon="11.62507418654108"><ele>493.0</ele><time>2026-04-17T09:24:56.001Z</time></trkpt><trkpt lat="48.212959555038026" lon="11.62497703739438"><ele>494.0</ele><time>2026-04-17T09:24:57.001Z</time></trkpt><trkpt lat="48.21272254960045" lon="11.624875259155663"><ele>495.0</ele><time>2026-04-17T09:24:58.001Z</time></trkpt><trkpt lat="48.212480586438566" lon="11.624765845721937"><ele>494.5</ele><time>2026-04-17T09:24:59.001Z</time></trkpt><trkpt lat="48.212241377607725" lon="11.624650379629117"><ele>494.0</ele><time>2026-04-17T09:25:00.001Z</time></trkpt><trkpt lat="48.21201390055696" lon="11.624531561865082"><ele>493.5</ele><time>2026-04-17T09:25:01.001Z</time></trkpt><trkpt lat="48.21178999714369" lon="11.62441056292684"><ele>493.0</ele><time>2026-04-17T09:25:02.001Z</time></trkpt><trkpt lat="48.21156477499275" lon="11.624291350193564"><ele>493.0</ele><time>2026-04-17T09:25:03.001Z</time></trkpt><trkpt lat="48.21133696443514" lon="11.62417796872656"><ele>493.0</ele><time>2026-04-17T09:25:04.001Z</time></trkpt><trkpt lat="48.211108721054785" lon="11.624063107002407"><ele>493.0</ele><time>2026-04-17T09:25:05.001Z</time></trkpt><trkpt lat="48.21087485910124" lon="11.623944441874235"><ele>493.0</ele><time>2026-04-17T09:25:06.001Z</time></trkpt><trkpt lat="48.210631263718746" lon="11.623822488622311"><ele>492.5</ele><time>2026-04-17T09:25:07.001Z</time></trkpt><trkpt lat="48.210375359372115" lon="11.62369171100356"><ele>492.0</ele><time>2026-04-17T09:25:08.001Z</time></trkpt><trkpt lat="48.21011136319366" lon="11.623558494625604"><ele>493.0</ele><time>2026-04-17T09:25:09.001Z</time></trkpt><trkpt lat="48.20985830243439" lon="11.623429067039838"><ele>494.0</ele><time>2026-04-17T09:25:10.001Z</time></trkpt><trkpt lat="48.209622151941566" lon="11.623306034477173"><ele>494.0</ele><time>2026-04-17T09:25:11.001Z</time></trkpt><trkpt lat="48.2093973239271" lon="11.62318849084343"><ele>494.0</ele><time>2026-04-17T09:25:12.001Z</time></trkpt><trkpt lat="48.20918679819259" lon="11.623073672506088"><ele>494.0</ele><time>2026-04-17T09:25:13.001Z</time></trkpt><trkpt lat="48.20898611691052" lon="11.622963133792087"><ele>494.0</ele><time>2026-04-17T09:25:14.001Z</time></trkpt><trkpt lat="48.20879272501592" lon="11.622860670966132"><ele>494.0</ele><time>2026-04-17T09:25:15Z</time></trkpt><trkpt lat="48.20860357451212" lon="11.622761484202005"><ele>494.0</ele><time>2026-04-17T09:25:16Z</time></trkpt><trkpt lat="48.208421101771506" lon="11.622668620791007"><ele>494.0</ele><time>2026-04-17T09:25:17Z</time></trkpt><trkpt lat="48.20824830556419" lon="11.62258259561207"><ele>494.0</ele><time>2026-04-17T09:25:18Z</time></trkpt><trkpt lat="48.208079465612265" lon="11.62249902887429"><ele>494.3333333333333</ele><time>2026-04-17T09:25:19Z</time></trkpt><trkpt lat="48.20790962413141" lon="11.622414122735735"><ele>494.66666666666663</ele><time>2026-04-17T09:25:20Z</time></trkpt><trkpt lat="48.20773865879397" lon="11.622328139450905"><ele>495.0</ele><time>2026-04-17T09:25:21Z</time></trkpt><trkpt lat="48.20757545672628" lon="11.622246548543867"><ele>495.0</ele><time>2026-04-17T09:25:22Z</time></trkpt><trkpt lat="48.20741618501672" lon="11.622172458782838"><ele>495.0</ele><time>2026-04-17T09:25:23Z</time></trkpt><trkpt lat="48.207263264723245" lon="11.622100398737347"><ele>495.0</ele><time>2026-04-17T09:25:24Z</time></trkpt><trkpt lat="48.20712018135432" lon="11.622024021511622"><ele>495.25</ele><time>2026-04-17T09:25:25Z</time></trkpt><trkpt lat="48.20698424151319" lon="11.621965009455419"><ele>495.5</ele><time>2026-04-17T09:25:26Z</time></trkpt><trkpt lat="48.206874953017014" lon="11.621833092860962"><ele>495.75</ele><time>2026-04-17T09:25:27Z</time></trkpt><trkpt lat="48.20677592042087" lon="11.621713676759946"><ele>496.0</ele><time>2026-04-17T09:25:28Z</time></trkpt><trkpt lat="48.206692135945424" lon="11.621576276337466"><ele>496.0</ele><time>2026-04-17T09:25:29Z</time></trkpt><trkpt lat="48.20662372565306" lon="11.621429854354172"><ele>496.0</ele><time>2026-04-17T09:25:30Z</time></trkpt><trkpt lat="48.206572837876735" lon="11.621278902375433"><ele>496.0</ele><time>2026-04-17T09:25:31Z</time></trkpt><trkpt lat="48.20653652843443" lon="11.621123928610613"><ele>496.0</ele><time>2026-04-17T09:25:32Z</time></trkpt><trkpt lat="48.20651659183497" lon="11.620965718056123"><ele>496.0</ele><time>2026-04-17T09:25:33Z</time></trkpt><trkpt lat="48.20651130458441" lon="11.62080939557902"><ele>495.8</ele><time>2026-04-17T09:25:34Z</time></trkpt><trkpt lat="48.206519650022855" lon="11.620653238176327"><ele>495.6</ele><time>2026-04-17T09:25:35Z</time></trkpt><trkpt lat="48.2065399850377" lon="11.620495764104016"><ele>495.4</ele><time>2026-04-17T09:25:36Z</time></trkpt><trkpt lat="48.206572627347484" lon="11.620339036735805"><ele>495.2</ele><time>2026-04-17T09:25:37Z</time></trkpt><trkpt lat="48.20662095433459" lon="11.620188960418467"><ele>495.0</ele><time>2026-04-17T09:25:38Z</time></trkpt><trkpt lat="48.206682637541306" lon="11.620046663463723"><ele>494.75</ele><time>2026-04-17T09:25:39Z</time></trkpt><trkpt lat="48.206698050342744" lon="11.619852138625552"><ele>494.5</ele><time>2026-04-17T09:25:40Z</time></trkpt><trkpt lat="48.20680546965168" lon="11.619758665426755"><ele>494.25</ele><time>2026-04-17T09:25:41Z</time></trkpt><trkpt lat="48.20687050428064" lon="11.619623669147872"><ele>494.0</ele><time>2026-04-17T09:25:42Z</time></trkpt><trkpt lat="48.206936339166106" lon="11.619497183002581"><ele>493.79999999999995</ele><time>2026-04-17T09:25:43Z</time></trkpt><trkpt lat="48.20699733621734" lon="11.619378955575247"><ele>493.59999999999997</ele><time>2026-04-17T09:25:44Z</time></trkpt><trkpt lat="48.207022262858985" lon="11.619222314271235"><ele>493.4</ele><time>2026-04-17T09:25:45Z</time></trkpt><trkpt lat="48.20707977676035" lon="11.61910451534178"><ele>493.2</ele><time>2026-04-17T09:25:46Z</time></trkpt><trkpt lat="48.20713996699912" lon="11.618986790838628"><ele>493.0</ele><time>2026-04-17T09:25:47Z</time></trkpt><trkpt lat="48.20720957489737" lon="11.618871702579323"><ele>493.0</ele><time>2026-04-17T09:25:48Z</time></trkpt><trkpt lat="48.207295991075156" lon="11.618791501118935"><ele>492.99999999999994</ele><time>2026-04-17T09:25:49Z</time></trkpt><trkpt lat="48.207389500655275" lon="11.618748207895056"><ele>492.99999999999994</ele><time>2026-04-17T09:25:50Z</time></trkpt><trkpt lat="48.20747905225961" lon="11.61872639778048"><ele>493.0</ele><time>2026-04-17T09:25:51Z</time></trkpt><trkpt lat="48.20756404561197" lon="11.618729025571882"><ele>493.0</ele><time>2026-04-17T09:25:52Z</time></trkpt><trkpt lat="48.207641051224925" lon="11.618733897045272"><ele>493.4</ele><time>2026-04-17T09:25:53Z</time></trkpt><trkpt lat="48.207732884233664" lon="11.618782311071747"><ele>493.79999999999995</ele><time>2026-04-17T09:25:54Z</time></trkpt><trkpt lat="48.20780916023848" lon="11.618831248872059"><ele>494.2</ele><time>2026-04-17T09:25:55Z</time></trkpt><trkpt lat="48.207836206964274" lon="11.61901540206353"><ele>494.6</ele><time>2026-04-17T09:25:56Z</time></trkpt><trkpt lat="48.20786711459709" lon="11.619126572939685"><ele>495.0</ele><time>2026-04-17T09:25:57Z</time></trkpt><trkpt lat="48.20787140872644" lon="11.61924543852454"><ele>495.0</ele><time>2026-04-17T09:25:58Z</time></trkpt><trkpt lat="48.20785570029162" lon="11.619360211284281"><ele>495.0</ele><time>2026-04-17T09:25:59Z</time></trkpt><trkpt lat="48.20783501809163" lon="11.619469418393923"><ele>495.0</ele><time>2026-04-17T09:26:00Z</time></trkpt><trkpt lat="48.207807820734416" lon="11.619599023764158"><ele>495.0</ele><time>2026-04-17T09:26:01Z</time></trkpt><trkpt lat="48.20777939705075" lon="11.61974454360948"><ele>495.0</ele><time>2026-04-17T09:26:02Z</time></trkpt><trkpt lat="48.207745597290796" lon="11.619912296423255"><ele>494.75</ele><time>2026-04-17T09:26:03Z</time></trkpt><trkpt lat="48.207710808247775" lon="11.62009395681595"><ele>494.5</ele><time>2026-04-17T09:26:04Z</time></trkpt><trkpt lat="48.20767329031167" lon="11.620285504381139"><ele>494.25</ele><time>2026-04-17T09:26:05Z</time></trkpt><trkpt lat="48.207635758614074" lon="11.62047854408601"><ele>494.0</ele><time>2026-04-17T09:26:06Z</time></trkpt><trkpt lat="48.20758161097575" lon="11.620662431706041"><ele>494.0</ele><time>2026-04-17T09:26:07Z</time></trkpt><trkpt lat="48.20753508831519" lon="11.620835383993178"><ele>494.0</ele><time>2026-04-17T09:26:08Z</time></trkpt><trkpt lat="48.20747763645395" lon="11.620985507413296"><ele>494.0</ele><time>2026-04-17T09:26:09Z</time></trkpt><trkpt lat="48.20741178124721" lon="11.621106875494474"><ele>494.0</ele><time>2026-04-17T09:26:10Z</time></trkpt><trkpt lat="48.20734399100361" lon="11.621219491616065"><ele>494.0</ele><time>2026-04-17T09:26:11Z</time></trkpt><trkpt lat="48.2072408484706" lon="11.621258587339716"><ele>494.2</ele><time>2026-04-17T09:26:12Z</time></trkpt><trkpt lat="48.20713898285738" lon="11.621300401905458"><ele>494.4</ele><time>2026-04-17T09:26:13Z</time></trkpt><trkpt lat="48.20703416153284" lon="11.621255340624666"><ele>494.6</ele><time>2026-04-17T09:26:14Z</time></trkpt><trkpt lat="48.20694782189787" lon="11.621158762232229"><ele>494.8</ele><time>2026-04-17T09:26:15Z</time></trkpt><trkpt lat="48.20689330464087" lon="11.621018269032692"><ele>495.0</ele><time>2026-04-17T09:26:16Z</time></trkpt><trkpt lat="48.2068695051834" lon="11.620858939750095"><ele>495.0</ele><time>2026-04-17T09:26:17Z</time></trkpt><trkpt lat="48.20688351557626" lon="11.620699789562313"><ele>495.0</ele><time>2026-04-17T09:26:18Z</time></trkpt><trkpt lat="48.20692905199522" lon="11.620555641451865"><ele>495.0</ele><time>2026-04-17T09:26:19Z</time></trkpt><trkpt lat="48.206994888237304" lon="11.620415845813339"><ele>495.0</ele><time>2026-04-17T09:26:20Z</time></trkpt><trkpt lat="48.207066777213726" lon="11.620281354033251"><ele>495.0</ele><time>2026-04-17T09:26:21Z</time></trkpt><trkpt lat="48.20714837192743" lon="11.620151724949002"><ele>494.75</ele><time>2026-04-17T09:26:22Z</time></trkpt><trkpt lat="48.207233975056305" lon="11.62001833950433"><ele>494.5</ele><time>2026-04-17T09:26:23Z</time></trkpt><trkpt lat="48.20731205861729" lon="11.619876700630723"><ele>494.25</ele><time>2026-04-17T09:26:24Z</time></trkpt><trkpt lat="48.20738180741808" lon="11.61973627603334"><ele>494.0</ele><time>2026-04-17T09:26:25Z</time></trkpt><trkpt lat="48.20744672407426" lon="11.619594261193052"><ele>494.2</ele><time>2026-04-17T09:26:26Z</time></trkpt><trkpt lat="48.20750774669493" lon="11.619441461924952"><ele>494.4</ele><time>2026-04-17T09:26:27Z</time></trkpt><trkpt lat="48.20755798080415" lon="11.619286292205015"><ele>494.6</ele><time>2026-04-17T09:26:28Z</time></trkpt><trkpt lat="48.20759940245501" lon="11.619131616970403"><ele>494.8</ele><time>2026-04-17T09:26:29Z</time></trkpt><trkpt lat="48.207633286747466" lon="11.618989716923375"><ele>495.0</ele><time>2026-04-17T09:26:30Z</time></trkpt><trkpt lat="48.207668626182844" lon="11.618848874644026"><ele>495.0</ele><time>2026-04-17T09:26:31Z</time></trkpt><trkpt lat="48.20770412265943" lon="11.618705522277722"><ele>495.0</ele><time>2026-04-17T09:26:32Z</time></trkpt><trkpt lat="48.207743202603446" lon="11.618553881860986"><ele>495.0</ele><time>2026-04-17T09:26:33Z</time></trkpt><trkpt lat="48.20778719676419" lon="11.618389219832796"><ele>495.0</ele><time>2026-04-17T09:26:34Z</time></trkpt><trkpt lat="48.2078345686644" lon="11.618210033605951"><ele>494.75</ele><time>2026-04-17T09:26:35Z</time></trkpt><trkpt lat="48.20788436922304" lon="11.618019881641604"><ele>494.5</ele><time>2026-04-17T09:26:36Z</time></trkpt><trkpt lat="48.207934164822376" lon="11.617817159088464"><ele>494.25</ele><time>2026-04-17T09:26:37Z</time></trkpt><trkpt lat="48.207979891245195" lon="11.617631029378217"><ele>494.0</ele><time>2026-04-17T09:26:38Z</time></trkpt><trkpt lat="48.20802310656087" lon="11.617454306223419"><ele>494.0</ele><time>2026-04-17T09:26:39Z</time></trkpt><trkpt lat="48.20806445785593" lon="11.617295697106536"><ele>494.0</ele><time>2026-04-17T09:26:40Z</time></trkpt><trkpt lat="48.208100617758895" lon="11.6171589256191"><ele>494.0</ele><time>2026-04-17T09:26:41Z</time></trkpt><trkpt lat="48.20813422979116" lon="11.61703847835028"><ele>494.0</ele><time>2026-04-17T09:26:42Z</time></trkpt><trkpt lat="48.20817042474576" lon="11.616920733561123"><ele>494.0</ele><time>2026-04-17T09:26:43Z</time></trkpt><trkpt lat="48.20820664365107" lon="11.616798967650803"><ele>494.0</ele><time>2026-04-17T09:26:44Z</time></trkpt><trkpt lat="48.20824818474222" lon="11.61667115363225"><ele>494.0</ele><time>2026-04-17T09:26:45Z</time></trkpt><trkpt lat="48.208306020330774" lon="11.616550688038892"><ele>494.0</ele><time>2026-04-17T09:26:46Z</time></trkpt><trkpt lat="48.20838578044927" lon="11.616455986820934"><ele>494.0</ele><time>2026-04-17T09:26:47Z</time></trkpt><trkpt lat="48.208482123453365" lon="11.6163954937362"><ele>494.0</ele><time>2026-04-17T09:26:48Z</time></trkpt><trkpt lat="48.208586180304536" lon="11.616378001189668"><ele>494.0</ele><time>2026-04-17T09:26:49Z</time></trkpt><trkpt lat="48.20868343242689" lon="11.616400987666841"><ele>494.0</ele><time>2026-04-17T09:26:50Z</time></trkpt><trkpt lat="48.208777997444244" lon="11.616444377295354"><ele>494.0</ele><time>2026-04-17T09:26:51Z</time></trkpt><trkpt lat="48.2088799307322" lon="11.616493558416535"><ele>494.0</ele><time>2026-04-17T09:26:52Z</time></trkpt><trkpt lat="48.20899007032532" lon="11.616550351174416"><ele>494.0</ele><time>2026-04-17T09:26:53Z</time></trkpt><trkpt lat="48.20910475977397" lon="11.61661055125198"><ele>494.0</ele><time>2026-04-17T09:26:54Z</time></trkpt><trkpt lat="48.209222318464064" lon="11.616670917722988"><ele>494.0</ele><time>2026-04-17T09:26:55Z</time></trkpt><trkpt lat="48.20934250337084" lon="11.616730510469973"><ele>494.0</ele><time>2026-04-17T09:26:56Z</time></trkpt><trkpt lat="48.20945954293569" lon="11.616794403588221"><ele>494.0</ele><time>2026-04-17T09:26:57Z</time></trkpt><trkpt lat="48.20956759914946" lon="11.616854777097341"><ele>494.0</ele><time>2026-04-17T09:26:58Z</time></trkpt><trkpt lat="48.20966430939233" lon="11.616905525998142"><ele>494.0</ele><time>2026-04-17T09:26:59Z</time></trkpt><trkpt lat="48.209756405268976" lon="11.616953516137224"><ele>494.0</ele><time>2026-04-17T09:27:00Z</time></trkpt><trkpt lat="48.209842366410435" lon="11.617001427431774"><ele>494.0</ele><time>2026-04-17T09:27:01Z</time></trkpt><trkpt lat="48.20992411450921" lon="11.617044649889241"><ele>494.0</ele><time>2026-04-17T09:27:02Z</time></trkpt><trkpt lat="48.20999886449122" lon="11.617085132374191"><ele>494.4</ele><time>2026-04-17T09:27:03Z</time></trkpt><trkpt lat="48.21007859333236" lon="11.617131192199835"><ele>494.79999999999995</ele><time>2026-04-17T09:27:04.001Z</time></trkpt><trkpt lat="48.21016952960531" lon="11.61718432482458"><ele>495.20000000000005</ele><time>2026-04-17T09:27:05.001Z</time></trkpt><trkpt lat="48.21026827838439" lon="11.617239471803348"><ele>495.6</ele><time>2026-04-17T09:27:06Z</time></trkpt><trkpt lat="48.21037626778276" lon="11.617294023606973"><ele>496.0</ele><time>2026-04-17T09:27:07Z</time></trkpt><trkpt lat="48.21048414240442" lon="11.617346478461423"><ele>496.0</ele><time>2026-04-17T09:27:08Z</time></trkpt><trkpt lat="48.2105821248045" lon="11.617398841860858"><ele>496.0</ele><time>2026-04-17T09:27:09Z</time></trkpt><trkpt lat="48.21066262446094" lon="11.617443471774907"><ele>496.0</ele><time>2026-04-17T09:27:10Z</time></trkpt><trkpt lat="48.21072585976333" lon="11.617477582949256"><ele>496.0</ele><time>2026-04-17T09:27:11Z</time></trkpt><trkpt lat="48.21081442713153" lon="11.617532428166056"><ele>496.0</ele><time>2026-04-17T09:27:13Z</time></trkpt><trkpt lat="48.2108122387977" lon="11.617750632148091"><ele>496.0</ele><time>2026-04-17T09:27:16Z</time></trkpt><trkpt lat="48.21078474305598" lon="11.617847860414189"><ele>496.0</ele><time>2026-04-17T09:27:17Z</time></trkpt><trkpt lat="48.21075214568875" lon="11.61798784494211"><ele>496.0</ele><time>2026-04-17T09:27:18Z</time></trkpt><trkpt lat="48.21071730875016" lon="11.618147015353443"><ele>496.0</ele><time>2026-04-17T09:27:19Z</time></trkpt><trkpt lat="48.21067690779687" lon="11.618308904610695"><ele>496.0</ele><time>2026-04-17T09:27:20Z</time></trkpt><trkpt lat="48.210642580086926" lon="11.618442286030811"><ele>496.20000000000005</ele><time>2026-04-17T09:27:21Z</time></trkpt><trkpt lat="48.210613349546556" lon="11.618558894707624"><ele>496.40000000000003</ele><time>2026-04-17T09:27:22Z</time></trkpt><trkpt lat="48.21058419177387" lon="11.61867647929899"><ele>496.6</ele><time>2026-04-17T09:27:23Z</time></trkpt><trkpt lat="48.21055286191482" lon="11.618812075881035"><ele>496.8</ele><time>2026-04-17T09:27:24Z</time></trkpt><trkpt lat="48.210518906655174" lon="11.618960510781665"><ele>497.0</ele><time>2026-04-17T09:27:25Z</time></trkpt><trkpt lat="48.210472995103586" lon="11.619141890487757"><ele>497.0</ele><time>2026-04-17T09:27:26Z</time></trkpt><trkpt lat="48.21043035878876" lon="11.619303241653288"><ele>497.00000000000006</ele><time>2026-04-17T09:27:27Z</time></trkpt><trkpt lat="48.21039745722855" lon="11.619441651153343"><ele>497.00000000000006</ele><time>2026-04-17T09:27:28Z</time></trkpt><trkpt lat="48.21036843715751" lon="11.619574250122266"><ele>497.0</ele><time>2026-04-17T09:27:29Z</time></trkpt><trkpt lat="48.210340201384376" lon="11.619696733730468"><ele>497.0</ele><time>2026-04-17T09:27:30Z</time></trkpt><trkpt lat="48.21031232869607" lon="11.619809718175038"><ele>496.8333333333333</ele><time>2026-04-17T09:27:31Z</time></trkpt><trkpt lat="48.21028329833529" lon="11.619919392431305"><ele>496.66666666666663</ele><time>2026-04-17T09:27:32Z</time></trkpt><trkpt lat="48.21025860211552" lon="11.620026076537858"><ele>496.5</ele><time>2026-04-17T09:27:33Z</time></trkpt><trkpt lat="48.21023693704427" lon="11.620116348717561"><ele>496.33333333333337</ele><time>2026-04-17T09:27:34Z</time></trkpt><trkpt lat="48.21020082406244" lon="11.620252767780054"><ele>496.1666666666667</ele><time>2026-04-17T09:27:36Z</time></trkpt><trkpt lat="48.21016998185897" lon="11.620339361127638"><ele>496.0</ele><time>2026-04-17T09:27:39Z</time></trkpt><trkpt lat="48.21011737050503" lon="11.620406782748892"><ele>496.0</ele><time>2026-04-17T09:27:49Z</time></trkpt><trkpt lat="48.21000571024719" lon="11.620395130611477"><ele>496.0</ele><time>2026-04-17T09:27:51Z</time></trkpt><trkpt lat="48.20994181858956" lon="11.62033554738123"><ele>496.0</ele><time>2026-04-17T09:27:52Z</time></trkpt><trkpt lat="48.20986700758353" lon="11.620265781132773"><ele>496.0</ele><time>2026-04-17T09:27:53Z</time></trkpt><trkpt lat="48.20979112892359" lon="11.620198371907358"><ele>496.0</ele><time>2026-04-17T09:27:54Z</time></trkpt><trkpt lat="48.2097052401056" lon="11.620100929676608"><ele>495.25</ele><time>2026-04-17T09:27:55Z</time></trkpt><trkpt lat="48.20959698963524" lon="11.62001317333457"><ele>494.5</ele><time>2026-04-17T09:27:56Z</time></trkpt><trkpt lat="48.20950044036605" lon="11.61992910117494"><ele>493.75</ele><time>2026-04-17T09:27:57Z</time></trkpt><trkpt lat="48.20940241654124" lon="11.61984487346245"><ele>493.0</ele><time>2026-04-17T09:27:58Z</time></trkpt><trkpt lat="48.209301124039186" lon="11.619762258109255"><ele>493.0</ele><time>2026-04-17T09:27:59Z</time></trkpt><trkpt lat="48.20919913834221" lon="11.619681298306014"><ele>493.0</ele><time>2026-04-17T09:28:00Z</time></trkpt><trkpt lat="48.20909698513286" lon="11.619598470414443"><ele>493.0</ele><time>2026-04-17T09:28:01Z</time></trkpt><trkpt lat="48.20899403438717" lon="11.619516730959129"><ele>493.0</ele><time>2026-04-17T09:28:02Z</time></trkpt><trkpt lat="48.208890088888126" lon="11.61943962817555"><ele>493.0</ele><time>2026-04-17T09:28:03Z</time></trkpt><trkpt lat="48.20878877965515" lon="11.619368864637408"><ele>492.99999999999994</ele><time>2026-04-17T09:28:04Z</time></trkpt><trkpt lat="48.208699540276065" lon="11.619307066100209"><ele>492.99999999999994</ele><time>2026-04-17T09:28:05Z</time></trkpt><trkpt lat="48.208611897047234" lon="11.61924428894991"><ele>493.0</ele><time>2026-04-17T09:28:06Z</time></trkpt><trkpt lat="48.20852107372034" lon="11.619180955539305"><ele>493.0</ele><time>2026-04-17T09:28:07Z</time></trkpt><trkpt lat="48.208430033001065" lon="11.619114060910901"><ele>493.0</ele><time>2026-04-17T09:28:08Z</time></trkpt><trkpt lat="48.20833340029321" lon="11.619052810749258"><ele>492.99999999999994</ele><time>2026-04-17T09:28:09Z</time></trkpt><trkpt lat="48.2082376882059" lon="11.618979393013527"><ele>492.99999999999994</ele><time>2026-04-17T09:28:10Z</time></trkpt><trkpt lat="48.208136404670405" lon="11.618916820853418"><ele>493.0</ele><time>2026-04-17T09:28:11Z</time></trkpt><trkpt lat="48.20803517044264" lon="11.618845886338423"><ele>493.0</ele><time>2026-04-17T09:28:12Z</time></trkpt><trkpt lat="48.20792847231669" lon="11.618789289246822"><ele>493.2</ele><time>2026-04-17T09:28:13Z</time></trkpt><trkpt lat="48.20782338151177" lon="11.618725445388856"><ele>493.4</ele><time>2026-04-17T09:28:14Z</time></trkpt><trkpt lat="48.20772165422473" lon="11.61866688267309"><ele>493.59999999999997</ele><time>2026-04-17T09:28:15Z</time></trkpt><trkpt lat="48.20762426580039" lon="11.61861180494975"><ele>493.79999999999995</ele><time>2026-04-17T09:28:16Z</time></trkpt><trkpt lat="48.20753328969498" lon="11.618557784909926"><ele>494.0</ele><time>2026-04-17T09:28:17Z</time></trkpt><trkpt lat="48.207435596525656" lon="11.618519810825163"><ele>494.0</ele><time>2026-04-17T09:28:18Z</time></trkpt><trkpt lat="48.20733298047219" lon="11.6185201070581"><ele>494.0</ele><time>2026-04-17T09:28:19Z</time></trkpt><trkpt lat="48.20723517326283" lon="11.618560173429799"><ele>494.0</ele><time>2026-04-17T09:28:20Z</time></trkpt><trkpt lat="48.20714658342288" lon="11.618621514484934"><ele>494.0</ele><time>2026-04-17T09:28:21Z</time></trkpt><trkpt lat="48.207067662494104" lon="11.618703626226965"><ele>494.0</ele><time>2026-04-17T09:28:22Z</time></trkpt><trkpt lat="48.20699934280413" lon="11.618804979619592"><ele>494.0</ele><time>2026-04-17T09:28:23Z</time></trkpt><trkpt lat="48.20694495920302" lon="11.618929966278897"><ele>494.0</ele><time>2026-04-17T09:28:24Z</time></trkpt><trkpt lat="48.206901399346854" lon="11.619072987573489"><ele>494.0</ele><time>2026-04-17T09:28:25Z</time></trkpt><trkpt lat="48.206858314936696" lon="11.619229972035011"><ele>494.0</ele><time>2026-04-17T09:28:26Z</time></trkpt><trkpt lat="48.20680630976148" lon="11.619407543505174"><ele>494.0</ele><time>2026-04-17T09:28:27Z</time></trkpt><trkpt lat="48.20673655609143" lon="11.619582730268526"><ele>494.0</ele><time>2026-04-17T09:28:28Z</time></trkpt><trkpt lat="48.20666288288773" lon="11.619737367112906"><ele>494.0</ele><time>2026-04-17T09:28:29Z</time></trkpt><trkpt lat="48.20659193688063" lon="11.619881606123716"><ele>494.0</ele><time>2026-04-17T09:28:30Z</time></trkpt><trkpt lat="48.20652803133378" lon="11.620016364473313"><ele>494.0</ele><time>2026-04-17T09:28:31Z</time></trkpt><trkpt lat="48.20646404009234" lon="11.620145662076999"><ele>494.2</ele><time>2026-04-17T09:28:32Z</time></trkpt><trkpt lat="48.20637960784928" lon="11.620235276631304"><ele>494.4</ele><time>2026-04-17T09:28:33Z</time></trkpt><trkpt lat="48.20633360664743" lon="11.620396119782106"><ele>494.6</ele><time>2026-04-17T09:28:34Z</time></trkpt><trkpt lat="48.20626896031367" lon="11.620530042881557"><ele>494.8</ele><time>2026-04-17T09:28:35Z</time></trkpt><trkpt lat="48.206200191664756" lon="11.6206695878883"><ele>495.0</ele><time>2026-04-17T09:28:36Z</time></trkpt><trkpt lat="48.20612848703071" lon="11.620813069548248"><ele>494.5</ele><time>2026-04-17T09:28:37Z</time></trkpt><trkpt lat="48.206054543375075" lon="11.620956186463417"><ele>494.0</ele><time>2026-04-17T09:28:38Z</time></trkpt><trkpt lat="48.20598241075904" lon="11.621092942287836"><ele>493.5</ele><time>2026-04-17T09:28:39Z</time></trkpt><trkpt lat="48.20591200264083" lon="11.621246802504338"><ele>493.0</ele><time>2026-04-17T09:28:40Z</time></trkpt><trkpt lat="48.20581347541448" lon="11.621403595796094"><ele>492.75</ele><time>2026-04-17T09:28:41Z</time></trkpt><trkpt lat="48.20570820084397" lon="11.621577931615274"><ele>492.5</ele><time>2026-04-17T09:28:42Z</time></trkpt><trkpt lat="48.20561068285431" lon="11.621722405458007"><ele>492.25</ele><time>2026-04-17T09:28:43Z</time></trkpt><trkpt lat="48.2055184639669" lon="11.621859812696467"><ele>492.0</ele><time>2026-04-17T09:28:44Z</time></trkpt><trkpt lat="48.20542884570833" lon="11.622000553809082"><ele>492.5</ele><time>2026-04-17T09:28:45Z</time></trkpt><trkpt lat="48.20533545028233" lon="11.622146403719702"><ele>493.0</ele><time>2026-04-17T09:28:46Z</time></trkpt><trkpt lat="48.20524148974619" lon="11.622289107442512"><ele>493.5</ele><time>2026-04-17T09:28:47Z</time></trkpt><trkpt lat="48.20515336462571" lon="11.622415770879627"><ele>494.0</ele><time>2026-04-17T09:28:48Z</time></trkpt><trkpt lat="48.20505989226985" lon="11.62254092245325"><ele>494.0</ele><time>2026-04-17T09:28:49Z</time></trkpt><trkpt lat="48.204965641304504" lon="11.62266088437469"><ele>494.0</ele><time>2026-04-17T09:28:50Z</time></trkpt><trkpt lat="48.20486224110894" lon="11.622745225937953"><ele>494.0</ele><time>2026-04-17T09:28:51Z</time></trkpt><trkpt lat="48.204756954676505" lon="11.622807721564458"><ele>494.0</ele><time>2026-04-17T09:28:52Z</time></trkpt><trkpt lat="48.20464955924445" lon="11.622827701695336"><ele>494.0</ele><time>2026-04-17T09:28:53Z</time></trkpt><trkpt lat="48.20454415198278" lon="11.62281700392779"><ele>494.0</ele><time>2026-04-17T09:28:54Z</time></trkpt><trkpt lat="48.20443570306969" lon="11.6227768908176"><ele>494.0</ele><time>2026-04-17T09:28:55Z</time></trkpt><trkpt lat="48.20433026383042" lon="11.622708859591256"><ele>494.0</ele><time>2026-04-17T09:28:56Z</time></trkpt><trkpt lat="48.204242202692406" lon="11.62259789510872"><ele>494.0</ele><time>2026-04-17T09:28:57Z</time></trkpt><trkpt lat="48.20416939220541" lon="11.622458460262314"><ele>494.0</ele><time>2026-04-17T09:28:58Z</time></trkpt><trkpt lat="48.204089272241816" lon="11.622309763762992"><ele>494.0</ele><time>2026-04-17T09:28:59Z</time></trkpt><trkpt lat="48.20405879677229" lon="11.622126282742297"><ele>494.0</ele><time>2026-04-17T09:29:00Z</time></trkpt><trkpt lat="48.20406148692349" lon="11.621939519018229"><ele>494.0</ele><time>2026-04-17T09:29:01Z</time></trkpt><trkpt lat="48.20409054609858" lon="11.621754835224975"><ele>494.5</ele><time>2026-04-17T09:29:02Z</time></trkpt><trkpt lat="48.20414660728416" lon="11.621583749341454"><ele>495.0</ele><time>2026-04-17T09:29:03Z</time></trkpt><trkpt lat="48.204232004193855" lon="11.621443422958096"><ele>495.5</ele><time>2026-04-17T09:29:04Z</time></trkpt><trkpt lat="48.20434099369822" lon="11.621343426716926"><ele>496.0</ele><time>2026-04-17T09:29:05Z</time></trkpt><trkpt lat="48.2044658808884" lon="11.621288960376502"><ele>496.0</ele><time>2026-04-17T09:29:06Z</time></trkpt><trkpt lat="48.20459811075087" lon="11.621283729147741"><ele>496.0</ele><time>2026-04-17T09:29:07Z</time></trkpt><trkpt lat="48.20473431523525" lon="11.62131943355966"><ele>496.0</ele><time>2026-04-17T09:29:08Z</time></trkpt><trkpt lat="48.20487690496717" lon="11.621379820293594"><ele>496.0</ele><time>2026-04-17T09:29:09Z</time></trkpt><trkpt lat="48.20503233790819" lon="11.62145319721375"><ele>495.33333333333337</ele><time>2026-04-17T09:29:10Z</time></trkpt><trkpt lat="48.205201148961706" lon="11.621532791329004"><ele>494.66666666666663</ele><time>2026-04-17T09:29:11Z</time></trkpt><trkpt lat="48.20539436237263" lon="11.621629692627069"><ele>494.0</ele><time>2026-04-17T09:29:12Z</time></trkpt><trkpt lat="48.20561656255881" lon="11.62174465170747"><ele>494.5</ele><time>2026-04-17T09:29:13Z</time></trkpt><trkpt lat="48.20586165897681" lon="11.621863840816781"><ele>495.0</ele><time>2026-04-17T09:29:14Z</time></trkpt><trkpt lat="48.2061243749729" lon="11.621988290486442"><ele>495.0</ele><time>2026-04-17T09:29:15Z</time></trkpt><trkpt lat="48.20636422278746" lon="11.62211211012132"><ele>495.0</ele><time>2026-04-17T09:29:16Z</time></trkpt><trkpt lat="48.20661367117051" lon="11.622243306206952"><ele>496.0</ele><time>2026-04-17T09:29:17Z</time></trkpt><trkpt lat="48.20685198677756" lon="11.6223650313392"><ele>497.0</ele><time>2026-04-17T09:29:18Z</time></trkpt><trkpt lat="48.207077459193876" lon="11.622475883248352"><ele>497.0</ele><time>2026-04-17T09:29:19Z</time></trkpt><trkpt lat="48.20729669007752" lon="11.622583051835905"><ele>497.0</ele><time>2026-04-17T09:29:20Z</time></trkpt><trkpt lat="48.20752028469143" lon="11.622696622225472"><ele>496.0</ele><time>2026-04-17T09:29:21Z</time></trkpt><trkpt lat="48.20774816076954" lon="11.62280909192885"><ele>495.0</ele><time>2026-04-17T09:29:22Z</time></trkpt><trkpt lat="48.20797681112872" lon="11.622922755023058"><ele>493.0</ele><time>2026-04-17T09:29:23Z</time></trkpt><trkpt lat="48.20820574736358" lon="11.623038107184023"><ele>491.0</ele><time>2026-04-17T09:29:24Z</time></trkpt><trkpt lat="48.20843100761183" lon="11.623154103643705"><ele>491.0</ele><time>2026-04-17T09:29:25Z</time></trkpt><trkpt lat="48.20865249813802" lon="11.62326347414964"><ele>491.0</ele><time>2026-04-17T09:29:26Z</time></trkpt><trkpt lat="48.208888435079054" lon="11.623380060541471"><ele>492.5</ele><time>2026-04-17T09:29:27Z</time></trkpt><trkpt lat="48.20914001268966" lon="11.623507909635022"><ele>494.0</ele><time>2026-04-17T09:29:28Z</time></trkpt><trkpt lat="48.2094113319484" lon="11.623644854689735"><ele>493.0</ele><time>2026-04-17T09:29:29Z</time></trkpt><trkpt lat="48.20969240469398" lon="11.623785645163593"><ele>492.0</ele><time>2026-04-17T09:29:30Z</time></trkpt><trkpt lat="48.20996973389238" lon="11.623926059516984"><ele>492.0</ele><time>2026-04-17T09:29:31Z</time></trkpt><trkpt lat="48.21025330568712" lon="11.624070234369054"><ele>492.0</ele><time>2026-04-17T09:29:32Z</time></trkpt><trkpt lat="48.21053880262038" lon="11.624212278501261"><ele>492.5</ele><time>2026-04-17T09:29:33Z</time></trkpt><trkpt lat="48.2108249983186" lon="11.624353073043082"><ele>493.0</ele><time>2026-04-17T09:29:34Z</time></trkpt><trkpt lat="48.21111246570525" lon="11.624493238729222"><ele>493.5</ele><time>2026-04-17T09:29:35Z</time></trkpt><trkpt lat="48.21139439812141" lon="11.624628905251342"><ele>494.0</ele><time>2026-04-17T09:29:36Z</time></trkpt><trkpt lat="48.21165649537474" lon="11.624759081945172"><ele>494.0</ele><time>2026-04-17T09:29:37Z</time></trkpt><trkpt lat="48.211906612841034" lon="11.62486884383199"><ele>494.0</ele><time>2026-04-17T09:29:38Z</time></trkpt><trkpt lat="48.21214889440015" lon="11.624971171710492"><ele>494.5</ele><time>2026-04-17T09:29:39Z</time></trkpt><trkpt lat="48.21238723227644" lon="11.625084552997189"><ele>495.0</ele><time>2026-04-17T09:29:40Z</time></trkpt><trkpt lat="48.2126228720576" lon="11.625203786228312"><ele>494.0</ele><time>2026-04-17T09:29:41Z</time></trkpt><trkpt lat="48.21285725717015" lon="11.62532232635636"><ele>493.0</ele><time>2026-04-17T09:29:42Z</time></trkpt><trkpt lat="48.21310081496026" lon="11.625443004885836"><ele>492.5</ele><time>2026-04-17T09:29:43Z</time></trkpt><trkpt lat="48.2133337288826" lon="11.625558788132508"><ele>492.0</ele><time>2026-04-17T09:29:44Z</time></trkpt><trkpt lat="48.21356040212163" lon="11.62567870369568"><ele>492.0</ele><time>2026-04-17T09:29:45Z</time></trkpt><trkpt lat="48.213791009762" lon="11.62580622568776"><ele>492.0</ele><time>2026-04-17T09:29:46Z</time></trkpt><trkpt lat="48.21402336371949" lon="11.62593247763645"><ele>492.0</ele><time>2026-04-17T09:29:47Z</time></trkpt><trkpt lat="48.2142632980039" lon="11.626055552796085"><ele>492.0</ele><time>2026-04-17T09:29:48Z</time></trkpt><trkpt lat="48.21451321948565" lon="11.626181282443259"><ele>492.0</ele><time>2026-04-17T09:29:49Z</time></trkpt><trkpt lat="48.214772569312245" lon="11.626308501501567"><ele>492.0</ele><time>2026-04-17T09:29:50Z</time></trkpt><trkpt lat="48.215040888488815" lon="11.626443968210683"><ele>492.5</ele><time>2026-04-17T09:29:51Z</time></trkpt><trkpt lat="48.215317263291055" lon="11.626584058357556"><ele>493.0</ele><time>2026-04-17T09:29:52Z</time></trkpt><trkpt lat="48.21558226641178" lon="11.626717334929225"><ele>492.5</ele><time>2026-04-17T09:29:53Z</time></trkpt><trkpt lat="48.21582888697951" lon="11.626843588810408"><ele>492.0</ele><time>2026-04-17T09:29:54Z</time></trkpt><trkpt lat="48.21606822213471" lon="11.626967479952398"><ele>492.0</ele><time>2026-04-17T09:29:55Z</time></trkpt><trkpt lat="48.21630799857744" lon="11.627087707730928"><ele>492.0</ele><time>2026-04-17T09:29:56Z</time></trkpt><trkpt lat="48.216548044172825" lon="11.627206868312301"><ele>492.0</ele><time>2026-04-17T09:29:57Z</time></trkpt><trkpt lat="48.21678946281838" lon="11.627330482272328"><ele>492.0</ele><time>2026-04-17T09:29:58Z</time></trkpt><trkpt lat="48.21703291532908" lon="11.627452984817205"><ele>492.0</ele><time>2026-04-17T09:29:59Z</time></trkpt><trkpt lat="48.217281118605676" lon="11.627573568815576"><ele>492.0</ele><time>2026-04-17T09:30:00Z</time></trkpt><trkpt lat="48.217536023289135" lon="11.627699253194852"><ele>492.0</ele><time>2026-04-17T09:30:01Z</time></trkpt><trkpt lat="48.21779510006697" lon="11.627829474360555"><ele>492.0</ele><time>2026-04-17T09:30:02Z</time></trkpt><trkpt lat="48.218064616262716" lon="11.627962649058658"><ele>492.0</ele><time>2026-04-17T09:30:03Z</time></trkpt><trkpt lat="48.21834621405057" lon="11.628101742469166"><ele>492.0</ele><time>2026-04-17T09:30:04Z</time></trkpt><trkpt lat="48.218634848021594" lon="11.62824316602286"><ele>492.0</ele><time>2026-04-17T09:30:05Z</time></trkpt><trkpt lat="48.21891349249838" lon="11.62838166895304"><ele>492.0</ele><time>2026-04-17T09:30:06Z</time></trkpt><trkpt lat="48.21917811387536" lon="11.628513537065029"><ele>493.0</ele><time>2026-04-17T09:30:07Z</time></trkpt><trkpt lat="48.219441908656705" lon="11.628631207758708"><ele>494.0</ele><time>2026-04-17T09:30:08Z</time></trkpt><trkpt lat="48.21970750434965" lon="11.628745266960808"><ele>492.5</ele><time>2026-04-17T09:30:09Z</time></trkpt><trkpt lat="48.219970448459414" lon="11.628864819565216"><ele>491.0</ele><time>2026-04-17T09:30:10Z</time></trkpt><trkpt lat="48.22023031711934" lon="11.628991799679751"><ele>491.0</ele><time>2026-04-17T09:30:11Z</time></trkpt><trkpt lat="48.220485753831746" lon="11.629120749342828"><ele>491.0</ele><time>2026-04-17T09:30:12Z</time></trkpt><trkpt lat="48.22074402144976" lon="11.629251794626102"><ele>492.0</ele><time>2026-04-17T09:30:13Z</time></trkpt><trkpt lat="48.22101769655751" lon="11.629388306011737"><ele>493.0</ele><time>2026-04-17T09:30:14Z</time></trkpt><trkpt lat="48.22129419641505" lon="11.629529711474966"><ele>491.0</ele><time>2026-04-17T09:30:15Z</time></trkpt><trkpt lat="48.22156917100139" lon="11.629667343686677"><ele>489.0</ele><time>2026-04-17T09:30:16Z</time></trkpt><trkpt lat="48.22183841652993" lon="11.629798448322259"><ele>489.0</ele><time>2026-04-17T09:30:17Z</time></trkpt><trkpt lat="48.22210140876358" lon="11.629926855503676"><ele>489.0</ele><time>2026-04-17T09:30:18Z</time></trkpt><trkpt lat="48.222365145064295" lon="11.630060471630818"><ele>489.5</ele><time>2026-04-17T09:30:19Z</time></trkpt><trkpt lat="48.22261275674481" lon="11.630187558505835"><ele>490.0</ele><time>2026-04-17T09:30:20Z</time></trkpt><trkpt lat="48.222860390266405" lon="11.630311288789288"><ele>492.0</ele><time>2026-04-17T09:30:21Z</time></trkpt><trkpt lat="48.22311129513484" lon="11.630434777336712"><ele>494.0</ele><time>2026-04-17T09:30:22Z</time></trkpt><trkpt lat="48.22336237710012" lon="11.630560282012683"><ele>494.0</ele><time>2026-04-17T09:30:23Z</time></trkpt><trkpt lat="48.223608570582904" lon="11.630684096771676"><ele>494.0</ele><time>2026-04-17T09:30:24Z</time></trkpt><trkpt lat="48.22384919171073" lon="11.63080692159605"><ele>493.0</ele><time>2026-04-17T09:30:25Z</time></trkpt><trkpt lat="48.2240892310574" lon="11.630928113782177"><ele>492.0</ele><time>2026-04-17T09:30:26Z</time></trkpt><trkpt lat="48.22434304641437" lon="11.631050846083781"><ele>492.5</ele><time>2026-04-17T09:30:27Z</time></trkpt><trkpt lat="48.22460528314864" lon="11.63117958374495"><ele>493.0</ele><time>2026-04-17T09:30:28Z</time></trkpt><trkpt lat="48.22486982471446" lon="11.631312180305107"><ele>491.5</ele><time>2026-04-17T09:30:29Z</time></trkpt><trkpt lat="48.225130225836104" lon="11.63144252116928"><ele>490.0</ele><time>2026-04-17T09:30:30Z</time></trkpt><trkpt lat="48.22538601165759" lon="11.631570297776314"><ele>490.0</ele><time>2026-04-17T09:30:31Z</time></trkpt><trkpt lat="48.225636998191" lon="11.631695327273588"><ele>490.0</ele><time>2026-04-17T09:30:32Z</time></trkpt><trkpt lat="48.22588548925584" lon="11.631820349940782"><ele>490.5</ele><time>2026-04-17T09:30:33Z</time></trkpt><trkpt lat="48.226135326160914" lon="11.631947476373663"><ele>491.0</ele><time>2026-04-17T09:30:34Z</time></trkpt><trkpt lat="48.22639108701917" lon="11.632076431553937"><ele>490.5</ele><time>2026-04-17T09:30:35Z</time></trkpt><trkpt lat="48.22665274667523" lon="11.632203824760808"><ele>490.0</ele><time>2026-04-17T09:30:36Z</time></trkpt><trkpt lat="48.226914189737656" lon="11.632336258299517"><ele>490.0</ele><time>2026-04-17T09:30:37Z</time></trkpt><trkpt lat="48.22717307609061" lon="11.632482205548184"><ele>490.0</ele><time>2026-04-17T09:30:38Z</time></trkpt><trkpt lat="48.22742643273665" lon="11.632632349447613"><ele>488.5</ele><time>2026-04-17T09:30:39Z</time></trkpt><trkpt lat="48.22766987812996" lon="11.632768662968418"><ele>487.0</ele><time>2026-04-17T09:30:40Z</time></trkpt><trkpt lat="48.22790519690913" lon="11.632889966270257"><ele>486.5</ele><time>2026-04-17T09:30:41Z</time></trkpt><trkpt lat="48.22813578386284" lon="11.633004178727269"><ele>486.0</ele><time>2026-04-17T09:30:42Z</time></trkpt><trkpt lat="48.22836925750761" lon="11.633122750521682"><ele>486.0</ele><time>2026-04-17T09:30:43Z</time></trkpt><trkpt lat="48.228606661843685" lon="11.6332424449863"><ele>486.0</ele><time>2026-04-17T09:30:44Z</time></trkpt><trkpt lat="48.22885040761987" lon="11.633362377754615"><ele>487.0</ele><time>2026-04-17T09:30:45Z</time></trkpt><trkpt lat="48.22909360625127" lon="11.633481513685009"><ele>488.0</ele><time>2026-04-17T09:30:46Z</time></trkpt><trkpt lat="48.22933426154661" lon="11.633598643131078"><ele>487.0</ele><time>2026-04-17T09:30:47Z</time></trkpt><trkpt lat="48.229567534437756" lon="11.633719465948703"><ele>486.0</ele><time>2026-04-17T09:30:48Z</time></trkpt><trkpt lat="48.229797764943136" lon="11.633837591727545"><ele>486.0</ele><time>2026-04-17T09:30:49Z</time></trkpt><trkpt lat="48.23002706616546" lon="11.63395215606825"><ele>486.0</ele><time>2026-04-17T09:30:50Z</time></trkpt><trkpt lat="48.2302605950376" lon="11.634070005662728"><ele>486.0</ele><time>2026-04-17T09:30:51Z</time></trkpt><trkpt lat="48.23049637346408" lon="11.634190365581707"><ele>486.0</ele><time>2026-04-17T09:30:52Z</time></trkpt><trkpt lat="48.230744982805" lon="11.634314203279512"><ele>486.0</ele><time>2026-04-17T09:30:53Z</time></trkpt><trkpt lat="48.231004810256465" lon="11.634444857241188"><ele>486.0</ele><time>2026-04-17T09:30:54Z</time></trkpt><trkpt lat="48.23126930452292" lon="11.634575638910473"><ele>485.5</ele><time>2026-04-17T09:30:55Z</time></trkpt><trkpt lat="48.23153619699119" lon="11.634706105905863"><ele>485.0</ele><time>2026-04-17T09:30:56Z</time></trkpt><trkpt lat="48.231800427381664" lon="11.634840273585175"><ele>485.0</ele><time>2026-04-17T09:30:57Z</time></trkpt><trkpt lat="48.232046925920606" lon="11.634965043090764"><ele>485.0</ele><time>2026-04-17T09:30:58Z</time></trkpt><trkpt lat="48.232288111664175" lon="11.635084866345524"><ele>486.0</ele><time>2026-04-17T09:30:59Z</time></trkpt><trkpt lat="48.23253955872703" lon="11.635208700082666"><ele>487.0</ele><time>2026-04-17T09:31:00Z</time></trkpt><trkpt lat="48.232791358272934" lon="11.635336057145008"><ele>487.0</ele><time>2026-04-17T09:31:01Z</time></trkpt><trkpt lat="48.23305173451843" lon="11.63546616317942"><ele>487.0</ele><time>2026-04-17T09:31:02Z</time></trkpt><trkpt lat="48.233319032605536" lon="11.635593674189908"><ele>488.0</ele><time>2026-04-17T09:31:03Z</time></trkpt><trkpt lat="48.23358227353403" lon="11.63571588117376"><ele>489.0</ele><time>2026-04-17T09:31:04Z</time></trkpt><trkpt lat="48.23383077857512" lon="11.635856637245594"><ele>487.5</ele><time>2026-04-17T09:31:05Z</time></trkpt><trkpt lat="48.234057445751866" lon="11.636006373961203"><ele>486.0</ele><time>2026-04-17T09:31:06Z</time></trkpt><trkpt lat="48.23428523836383" lon="11.636140949917305"><ele>485.5</ele><time>2026-04-17T09:31:07Z</time></trkpt><trkpt lat="48.23451281164095" lon="11.636256153321536"><ele>485.0</ele><time>2026-04-17T09:31:08Z</time></trkpt><trkpt lat="48.234734737189235" lon="11.636360389805894"><ele>485.0</ele><time>2026-04-17T09:31:09Z</time></trkpt><trkpt lat="48.23495538807405" lon="11.636467084159381"><ele>485.0</ele><time>2026-04-17T09:31:10Z</time></trkpt><trkpt lat="48.23517621367467" lon="11.636579584817008"><ele>485.0</ele><time>2026-04-17T09:31:11Z</time></trkpt><trkpt lat="48.235397301782996" lon="11.636692439730922"><ele>485.0</ele><time>2026-04-17T09:31:12Z</time></trkpt><trkpt lat="48.23561101316401" lon="11.636798219421218"><ele>484.5</ele><time>2026-04-17T09:31:13Z</time></trkpt><trkpt lat="48.23582725892087" lon="11.63688776441646"><ele>484.0</ele><time>2026-04-17T09:31:14Z</time></trkpt><trkpt lat="48.236052551366775" lon="11.636993168134318"><ele>483.5</ele><time>2026-04-17T09:31:15Z</time></trkpt><trkpt lat="48.23627291777577" lon="11.63710735324131"><ele>483.0</ele><time>2026-04-17T09:31:16Z</time></trkpt><trkpt lat="48.236483704359365" lon="11.637212100128245"><ele>483.0</ele><time>2026-04-17T09:31:17Z</time></trkpt><trkpt lat="48.23669039888341" lon="11.637316317089587"><ele>483.0</ele><time>2026-04-17T09:31:18Z</time></trkpt><trkpt lat="48.23689885623189" lon="11.63742024937152"><ele>483.0</ele><time>2026-04-17T09:31:19Z</time></trkpt><trkpt lat="48.237107277667185" lon="11.637522584266547"><ele>483.33333333333337</ele><time>2026-04-17T09:31:20Z</time></trkpt><trkpt lat="48.23731363226674" lon="11.63763081809255"><ele>483.6666666666667</ele><time>2026-04-17T09:31:21Z</time></trkpt><trkpt lat="48.23751986741465" lon="11.637749258577097"><ele>484.0</ele><time>2026-04-17T09:31:22Z</time></trkpt><trkpt lat="48.23772467138584" lon="11.637873287944311"><ele>484.0</ele><time>2026-04-17T09:31:23Z</time></trkpt><trkpt lat="48.237924700181146" lon="11.63798101281029"><ele>484.0</ele><time>2026-04-17T09:31:24Z</time></trkpt><trkpt lat="48.238112053642695" lon="11.638073462414908"><ele>484.0</ele><time>2026-04-17T09:31:25Z</time></trkpt><trkpt lat="48.238278066580655" lon="11.638156943819444"><ele>484.0</ele><time>2026-04-17T09:31:26Z</time></trkpt><trkpt lat="48.238441645781776" lon="11.638219282201817"><ele>484.0</ele><time>2026-04-17T09:31:27Z</time></trkpt><trkpt lat="48.23859264127135" lon="11.638294408642036"><ele>484.0</ele><time>2026-04-17T09:31:28Z</time></trkpt><trkpt lat="48.238742011580634" lon="11.63836872626579"><ele>484.0</ele><time>2026-04-17T09:31:29Z</time></trkpt><trkpt lat="48.2388996175846" lon="11.638447266721508"><ele>484.0</ele><time>2026-04-17T09:31:30Z</time></trkpt><trkpt lat="48.23905144698096" lon="11.638524104794412"><ele>484.0</ele><time>2026-04-17T09:31:31Z</time></trkpt><trkpt lat="48.239198669973" lon="11.638598611382301"><ele>483.6666666666667</ele><time>2026-04-17T09:31:32Z</time></trkpt><trkpt lat="48.23934338023118" lon="11.638671691084461"><ele>483.33333333333337</ele><time>2026-04-17T09:31:33Z</time></trkpt><trkpt lat="48.23949147389032" lon="11.638746224463747"><ele>483.0</ele><time>2026-04-17T09:31:34Z</time></trkpt><trkpt lat="48.23964131681231" lon="11.638821638436202"><ele>483.0</ele><time>2026-04-17T09:31:35Z</time></trkpt><trkpt lat="48.239787770298214" lon="11.638895223520718"><ele>483.0</ele><time>2026-04-17T09:31:36Z</time></trkpt><trkpt lat="48.23992721143249" lon="11.63896479417596"><ele>483.0</ele><time>2026-04-17T09:31:37Z</time></trkpt><trkpt lat="48.24006699884427" lon="11.639034547624245"><ele>483.0</ele><time>2026-04-17T09:31:38Z</time></trkpt><trkpt lat="48.24021133432446" lon="11.639106389597403"><ele>482.75</ele><time>2026-04-17T09:31:39Z</time></trkpt><trkpt lat="48.24034174592215" lon="11.63917132648062"><ele>482.5</ele><time>2026-04-17T09:31:40Z</time></trkpt><trkpt lat="48.24044661163984" lon="11.63931506212327"><ele>482.25</ele><time>2026-04-17T09:31:41Z</time></trkpt><trkpt lat="48.24055617943861" lon="11.63941604141734"><ele>482.0</ele><time>2026-04-17T09:31:42Z</time></trkpt><trkpt lat="48.24065042306714" lon="11.63953884416312"><ele>482.0</ele><time>2026-04-17T09:31:43Z</time></trkpt><trkpt lat="48.24073407727142" lon="11.639678920607482"><ele>482.0</ele><time>2026-04-17T09:31:44Z</time></trkpt><trkpt lat="48.24081262667448" lon="11.639843514987032"><ele>482.0</ele><time>2026-04-17T09:31:45Z</time></trkpt><trkpt lat="48.24087832985817" lon="11.640027441979289"><ele>482.0</ele><time>2026-04-17T09:31:46Z</time></trkpt><trkpt lat="48.240926310382314" lon="11.640213793565882"><ele>482.0</ele><time>2026-04-17T09:31:47Z</time></trkpt><trkpt lat="48.24095710601772" lon="11.640385597583156"><ele>482.0</ele><time>2026-04-17T09:31:48Z</time></trkpt><trkpt lat="48.24098117179732" lon="11.640554431644503"><ele>482.0</ele><time>2026-04-17T09:31:49Z</time></trkpt><trkpt lat="48.241010900896974" lon="11.64072292715724"><ele>482.0</ele><time>2026-04-17T09:31:50Z</time></trkpt><trkpt lat="48.24105432027659" lon="11.640872478769802"><ele>482.0</ele><time>2026-04-17T09:31:51Z</time></trkpt><trkpt lat="48.241126594943445" lon="11.640972769787655"><ele>482.00000000000006</ele><time>2026-04-17T09:31:52Z</time></trkpt><trkpt lat="48.24116426776867" lon="11.641120247471314"><ele>482.00000000000006</ele><time>2026-04-17T09:31:53Z</time></trkpt><trkpt lat="48.24122671025141" lon="11.641237382272992"><ele>482.0</ele><time>2026-04-17T09:31:54Z</time></trkpt><trkpt lat="48.241295266872974" lon="11.641360853088775"><ele>482.0</ele><time>2026-04-17T09:31:55Z</time></trkpt><trkpt lat="48.24136280781753" lon="11.641479458509444"><ele>482.3333333333333</ele><time>2026-04-17T09:31:56Z</time></trkpt><trkpt lat="48.241418881455665" lon="11.641583076102325"><ele>482.66666666666663</ele><time>2026-04-17T09:31:57Z</time></trkpt><trkpt lat="48.24146965998011" lon="11.641677138962656"><ele>483.0</ele><time>2026-04-17T09:31:58Z</time></trkpt><trkpt lat="48.24151246217686" lon="11.641759504875948"><ele>483.33333333333337</ele><time>2026-04-17T09:31:59Z</time></trkpt><trkpt lat="48.24157013122936" lon="11.64186916591742"><ele>483.6666666666667</ele><time>2026-04-17T09:32:01Z</time></trkpt><trkpt lat="48.2416225894652" lon="11.641972955533426"><ele>484.0</ele><time>2026-04-17T09:32:04Z</time></trkpt><trkpt lat="48.24166399324263" lon="11.642045783223008"><ele>484.2</ele><time>2026-04-17T09:32:06Z</time></trkpt><trkpt lat="48.24171308728564" lon="11.642150333466782"><ele>484.4</ele><time>2026-04-17T09:32:26Z</time></trkpt><trkpt lat="48.24175338815299" lon="11.642228161041771"><ele>484.6</ele><time>2026-04-17T09:32:27Z</time></trkpt><trkpt lat="48.241845117693124" lon="11.64232352582758"><ele>484.8</ele><time>2026-04-17T09:32:29Z</time></trkpt><trkpt lat="48.241935295913166" lon="11.642268502971383"><ele>485.0</ele><time>2026-04-17T09:32:31Z</time></trkpt><trkpt lat="48.24201928854351" lon="11.642164279313127"><ele>485.0</ele><time>2026-04-17T09:32:33Z</time></trkpt><trkpt lat="48.2420779815482" lon="11.642086306429047"><ele>485.0</ele><time>2026-04-17T09:32:34Z</time></trkpt><trkpt lat="48.24215931145085" lon="11.641987512026404"><ele>485.0</ele><time>2026-04-17T09:32:35Z</time></trkpt><trkpt lat="48.24226034376182" lon="11.641861563240194"><ele>485.0</ele><time>2026-04-17T09:32:36Z</time></trkpt><trkpt lat="48.24235598489619" lon="11.64173598229877"><ele>485.0</ele><time>2026-04-17T09:32:37Z</time></trkpt><trkpt lat="48.242434484965976" lon="11.641631866885703"><ele>484.8</ele><time>2026-04-17T09:32:38Z</time></trkpt><trkpt lat="48.24251141746779" lon="11.641535612210841"><ele>484.6</ele><time>2026-04-17T09:32:39Z</time></trkpt><trkpt lat="48.24259066187581" lon="11.641432656023623"><ele>484.4</ele><time>2026-04-17T09:32:40Z</time></trkpt><trkpt lat="48.242677016277206" lon="11.641324175251114"><ele>484.2</ele><time>2026-04-17T09:32:41Z</time></trkpt><trkpt lat="48.242765799208264" lon="11.641213198447259"><ele>484.0</ele><time>2026-04-17T09:32:42Z</time></trkpt><trkpt lat="48.2428560209373" lon="11.641099500124849"><ele>484.0</ele><time>2026-04-17T09:32:43Z</time></trkpt><trkpt lat="48.242946811342414" lon="11.640992437309398"><ele>484.0</ele><time>2026-04-17T09:32:44Z</time></trkpt><trkpt lat="48.24303551726696" lon="11.640887100361638"><ele>484.0</ele><time>2026-04-17T09:32:45Z</time></trkpt><trkpt lat="48.24312178928972" lon="11.640784313551407"><ele>484.0</ele><time>2026-04-17T09:32:46Z</time></trkpt><trkpt lat="48.24320084319392" lon="11.640681756675065"><ele>484.0</ele><time>2026-04-17T09:32:47Z</time></trkpt><trkpt lat="48.24327774661388" lon="11.640575680992846"><ele>484.25</ele><time>2026-04-17T09:32:48Z</time></trkpt><trkpt lat="48.243362426102344" lon="11.640471539260789"><ele>484.5</ele><time>2026-04-17T09:32:49Z</time></trkpt><trkpt lat="48.243452281737085" lon="11.640361198814665"><ele>484.75</ele><time>2026-04-17T09:32:50Z</time></trkpt><trkpt lat="48.243541958642986" lon="11.640247841805175"><ele>485.0</ele><time>2026-04-17T09:32:51Z</time></trkpt><trkpt lat="48.24363286956409" lon="11.640136670822292"><ele>485.0</ele><time>2026-04-17T09:32:52Z</time></trkpt><trkpt lat="48.2437223772605" lon="11.64003196703578"><ele>485.0</ele><time>2026-04-17T09:32:53Z</time></trkpt><trkpt lat="48.243807563269065" lon="11.639943336837403"><ele>485.0</ele><time>2026-04-17T09:32:54Z</time></trkpt><trkpt lat="48.24389812211773" lon="11.63985444480072"><ele>485.0</ele><time>2026-04-17T09:32:55Z</time></trkpt><trkpt lat="48.24397647006261" lon="11.639735218762427"><ele>485.0</ele><time>2026-04-17T09:32:56Z</time></trkpt><trkpt lat="48.244074543316884" lon="11.63961354416843"><ele>485.2</ele><time>2026-04-17T09:32:57Z</time></trkpt><trkpt lat="48.24417923139041" lon="11.639485300191986"><ele>485.4</ele><time>2026-04-17T09:32:58Z</time></trkpt><trkpt lat="48.244273693152806" lon="11.639370063610965"><ele>485.6</ele><time>2026-04-17T09:32:59Z</time></trkpt><trkpt lat="48.24435023775746" lon="11.639276684641667"><ele>485.8</ele><time>2026-04-17T09:33:00Z</time></trkpt><trkpt lat="48.24441155082265" lon="11.639201890241182"><ele>486.0</ele><time>2026-04-17T09:33:01Z</time></trkpt><trkpt lat="48.24449125220575" lon="11.639107379521386"><ele>486.0</ele><time>2026-04-17T09:33:03Z</time></trkpt><trkpt lat="48.24457648781118" lon="11.63910840338587"><ele>486.0</ele><time>2026-04-17T09:33:05Z</time></trkpt><trkpt lat="48.24465366766577" lon="11.639120457515325"><ele>486.0</ele><time>2026-04-17T09:33:07Z</time></trkpt><trkpt lat="48.24476075245987" lon="11.639141840996299"><ele>486.0</ele><time>2026-04-17T09:33:09Z</time></trkpt><trkpt lat="48.24482939433122" lon="11.639277915892897"><ele>486.0</ele><time>2026-04-17T09:33:10Z</time></trkpt><trkpt lat="48.24489767837663" lon="11.639378737742424"><ele>485.6</ele><time>2026-04-17T09:33:11Z</time></trkpt><trkpt lat="48.244961660371715" lon="11.639480160392829"><ele>485.20000000000005</ele><time>2026-04-17T09:33:12Z</time></trkpt><trkpt lat="48.2450272960619" lon="11.639592910595054"><ele>484.79999999999995</ele><time>2026-04-17T09:33:13Z</time></trkpt><trkpt lat="48.24509776715138" lon="11.639711698705565"><ele>484.4</ele><time>2026-04-17T09:33:14Z</time></trkpt><trkpt lat="48.24516594235285" lon="11.639838125475169"><ele>484.0</ele><time>2026-04-17T09:33:15Z</time></trkpt><trkpt lat="48.24523394852088" lon="11.639962450380313"><ele>484.0</ele><time>2026-04-17T09:33:16Z</time></trkpt><trkpt lat="48.24530457800071" lon="11.64007931367463"><ele>484.0</ele><time>2026-04-17T09:33:17Z</time></trkpt><trkpt lat="48.245379261872934" lon="11.64020105627194"><ele>484.0</ele><time>2026-04-17T09:33:18Z</time></trkpt><trkpt lat="48.2454677663167" lon="11.640317841934094"><ele>484.0</ele><time>2026-04-17T09:33:19Z</time></trkpt><trkpt lat="48.245579425078276" lon="11.640396446213124"><ele>483.79999999999995</ele><time>2026-04-17T09:33:20Z</time></trkpt><trkpt lat="48.24569176800845" lon="11.640452857555417"><ele>483.59999999999997</ele><time>2026-04-17T09:33:21Z</time></trkpt><trkpt lat="48.245796064337455" lon="11.640474743288083"><ele>483.4</ele><time>2026-04-17T09:33:22Z</time></trkpt><trkpt lat="48.245904214752706" lon="11.640477628909982"><ele>483.2</ele><time>2026-04-17T09:33:23Z</time></trkpt><trkpt lat="48.24601523337578" lon="11.640462232132023"><ele>483.0</ele><time>2026-04-17T09:33:24Z</time></trkpt><trkpt lat="48.24612679479795" lon="11.640431035436142"><ele>483.0</ele><time>2026-04-17T09:33:25Z</time></trkpt><trkpt lat="48.24623513607278" lon="11.640386854950927"><ele>482.99999999999994</ele><time>2026-04-17T09:33:26Z</time></trkpt><trkpt lat="48.24633907381397" lon="11.640351014765454"><ele>482.99999999999994</ele><time>2026-04-17T09:33:27Z</time></trkpt><trkpt lat="48.246447324413" lon="11.640317433584473"><ele>483.0</ele><time>2026-04-17T09:33:28Z</time></trkpt><trkpt lat="48.24656019008337" lon="11.640319885612184"><ele>483.0</ele><time>2026-04-17T09:33:29Z</time></trkpt><trkpt lat="48.2466726844457" lon="11.640357326705258"><ele>482.79999999999995</ele><time>2026-04-17T09:33:30Z</time></trkpt><trkpt lat="48.246777093069" lon="11.64043577389414"><ele>482.59999999999997</ele><time>2026-04-17T09:33:31Z</time></trkpt><trkpt lat="48.24685947860831" lon="11.640542157839755"><ele>482.40000000000003</ele><time>2026-04-17T09:33:32Z</time></trkpt><trkpt lat="48.246915116831" lon="11.640655762086023"><ele>482.20000000000005</ele><time>2026-04-17T09:33:33Z</time></trkpt><trkpt lat="48.24695134123854" lon="11.640774729105047"><ele>482.0</ele><time>2026-04-17T09:33:34Z</time></trkpt><trkpt lat="48.24697499752601" lon="11.640887063445488"><ele>481.99999999999994</ele><time>2026-04-17T09:33:35Z</time></trkpt><trkpt lat="48.24698814210179" lon="11.64100210138113"><ele>482.0</ele><time>2026-04-17T09:33:36Z</time></trkpt><trkpt lat="48.24698992205723" lon="11.641118295229"><ele>482.0</ele><time>2026-04-17T09:33:37Z</time></trkpt><trkpt lat="48.246977995202336" lon="11.641242276433339"><ele>482.0</ele><time>2026-04-17T09:33:38Z</time></trkpt><trkpt lat="48.246947428603235" lon="11.641364439736545"><ele>481.99999999999994</ele><time>2026-04-17T09:33:39Z</time></trkpt><trkpt lat="48.2469003528881" lon="11.641479891771677"><ele>482.0</ele><time>2026-04-17T09:33:40Z</time></trkpt><trkpt lat="48.24683523697729" lon="11.641583940671964"><ele>482.40000000000003</ele><time>2026-04-17T09:33:41Z</time></trkpt><trkpt lat="48.24675072139627" lon="11.641664100464638"><ele>482.80000000000007</ele><time>2026-04-17T09:33:42Z</time></trkpt><trkpt lat="48.24665875875521" lon="11.6417217026315"><ele>483.2</ele><time>2026-04-17T09:33:43Z</time></trkpt><trkpt lat="48.246564768536146" lon="11.641747639668987"><ele>483.6</ele><time>2026-04-17T09:33:44Z</time></trkpt><trkpt lat="48.246467382238286" lon="11.64173774746249"><ele>484.0</ele><time>2026-04-17T09:33:45Z</time></trkpt><trkpt lat="48.246367771196894" lon="11.641699432817596"><ele>484.0</ele><time>2026-04-17T09:33:46Z</time></trkpt><trkpt lat="48.24626100578488" lon="11.641645761536523"><ele>484.0</ele><time>2026-04-17T09:33:47Z</time></trkpt><trkpt lat="48.2461298215251" lon="11.641578233351966"><ele>484.0</ele><time>2026-04-17T09:33:48Z</time></trkpt><trkpt lat="48.245967094643945" lon="11.641499440288126"><ele>484.0</ele><time>2026-04-17T09:33:49Z</time></trkpt><trkpt lat="48.24578255905758" lon="11.64140503906797"><ele>483.33333333333337</ele><time>2026-04-17T09:33:50Z</time></trkpt><trkpt lat="48.245608074353065" lon="11.641303685038778"><ele>482.66666666666663</ele><time>2026-04-17T09:33:51Z</time></trkpt><trkpt lat="48.24543609129679" lon="11.6412139794446"><ele>482.0</ele><time>2026-04-17T09:33:52Z</time></trkpt><trkpt lat="48.245273258500234" lon="11.641140709732287"><ele>482.66666666666663</ele><time>2026-04-17T09:33:53Z</time></trkpt><trkpt lat="48.24511414545546" lon="11.641072710999698"><ele>483.33333333333337</ele><time>2026-04-17T09:33:54Z</time></trkpt><trkpt lat="48.244944612517564" lon="11.641005593622314"><ele>484.0</ele><time>2026-04-17T09:33:55Z</time></trkpt><trkpt lat="48.244759483853414" lon="11.640930073033557"><ele>485.0</ele><time>2026-04-17T09:33:56Z</time></trkpt><trkpt lat="48.2445784557154" lon="11.640848569572366"><ele>486.0</ele><time>2026-04-17T09:33:57Z</time></trkpt><trkpt lat="48.244399073372485" lon="11.640765416943292"><ele>487.0</ele><time>2026-04-17T09:33:58Z</time></trkpt><trkpt lat="48.2442124739802" lon="11.64067937195958"><ele>487.0</ele><time>2026-04-17T09:33:59Z</time></trkpt><trkpt lat="48.244015411338374" lon="11.640591074022579"><ele>487.0</ele><time>2026-04-17T09:34:00Z</time></trkpt><trkpt lat="48.243805868536576" lon="11.640500712130404"><ele>487.0</ele><time>2026-04-17T09:34:01Z</time></trkpt><trkpt lat="48.24358779211087" lon="11.640404787220833"><ele>486.0</ele><time>2026-04-17T09:34:02Z</time></trkpt><trkpt lat="48.2433691246947" lon="11.640297896471628"><ele>485.0</ele><time>2026-04-17T09:34:03Z</time></trkpt><trkpt lat="48.24315801260495" lon="11.64018570999201"><ele>484.0</ele><time>2026-04-17T09:34:04Z</time></trkpt><trkpt lat="48.24294573465928" lon="11.640074049249588"><ele>483.0</ele><time>2026-04-17T09:34:05Z</time></trkpt><trkpt lat="48.24273489365551" lon="11.63996831823168"><ele>482.0</ele><time>2026-04-17T09:34:06Z</time></trkpt><trkpt lat="48.24252777784004" lon="11.639860713052151"><ele>482.0</ele><time>2026-04-17T09:34:07Z</time></trkpt><trkpt lat="48.242320101840285" lon="11.639752529623333"><ele>482.0</ele><time>2026-04-17T09:34:08Z</time></trkpt><trkpt lat="48.24211428357001" lon="11.639648818727778"><ele>482.0</ele><time>2026-04-17T09:34:09Z</time></trkpt><trkpt lat="48.241899456610014" lon="11.639542036776849"><ele>482.0</ele><time>2026-04-17T09:34:10Z</time></trkpt><trkpt lat="48.24166980895002" lon="11.639426845643149"><ele>482.0</ele><time>2026-04-17T09:34:11Z</time></trkpt><trkpt lat="48.24141670872565" lon="11.639299096955149"><ele>482.0</ele><time>2026-04-17T09:34:12Z</time></trkpt><trkpt lat="48.24115320046563" lon="11.639166849079063"><ele>482.0</ele><time>2026-04-17T09:34:13Z</time></trkpt><trkpt lat="48.24090452642645" lon="11.639043077412703"><ele>482.0</ele><time>2026-04-17T09:34:14Z</time></trkpt><trkpt lat="48.24065565295684" lon="11.638919361967268"><ele>482.0</ele><time>2026-04-17T09:34:15Z</time></trkpt><trkpt lat="48.24039987186531" lon="11.638792735493414"><ele>482.0</ele><time>2026-04-17T09:34:16Z</time></trkpt><trkpt lat="48.24013620795834" lon="11.638658986217457"><ele>482.0</ele><time>2026-04-17T09:34:17Z</time></trkpt><trkpt lat="48.239875281054005" lon="11.638524717174244"><ele>482.0</ele><time>2026-04-17T09:34:18Z</time></trkpt><trkpt lat="48.239625781497715" lon="11.6383984985093"><ele>482.0</ele><time>2026-04-17T09:34:19Z</time></trkpt><trkpt lat="48.239391139296615" lon="11.638280730618012"><ele>482.0</ele><time>2026-04-17T09:34:20Z</time></trkpt><trkpt lat="48.23916504335207" lon="11.63816672522332"><ele>482.0</ele><time>2026-04-17T09:34:21Z</time></trkpt><trkpt lat="48.23893969710094" lon="11.638056278902086"><ele>483.0</ele><time>2026-04-17T09:34:22Z</time></trkpt><trkpt lat="48.23871256906031" lon="11.637945304946891"><ele>484.0</ele><time>2026-04-17T09:34:23Z</time></trkpt><trkpt lat="48.23847322211977" lon="11.637826500305902"><ele>484.0</ele><time>2026-04-17T09:34:24Z</time></trkpt><trkpt lat="48.23822975086177" lon="11.637702150724497"><ele>484.0</ele><time>2026-04-17T09:34:25Z</time></trkpt><trkpt lat="48.23796700850854" lon="11.63757019271747"><ele>484.0</ele><time>2026-04-17T09:34:26Z</time></trkpt><trkpt lat="48.23769435398772" lon="11.637433121686922"><ele>484.0</ele><time>2026-04-17T09:34:27Z</time></trkpt><trkpt lat="48.237426866287606" lon="11.637296902474981"><ele>483.5</ele><time>2026-04-17T09:34:28Z</time></trkpt><trkpt lat="48.2371570302155" lon="11.637162900679705"><ele>483.0</ele><time>2026-04-17T09:34:29Z</time></trkpt><trkpt lat="48.23688970754714" lon="11.63703421820939"><ele>483.5</ele><time>2026-04-17T09:34:30Z</time></trkpt><trkpt lat="48.23662209329746" lon="11.63690428228613"><ele>484.0</ele><time>2026-04-17T09:34:31Z</time></trkpt><trkpt lat="48.236366451205704" lon="11.636777386568733"><ele>484.0</ele><time>2026-04-17T09:34:32Z</time></trkpt><trkpt lat="48.23612447855461" lon="11.636652621606514"><ele>484.0</ele><time>2026-04-17T09:34:33Z</time></trkpt><trkpt lat="48.23590852995603" lon="11.636542274877753"><ele>484.0</ele><time>2026-04-17T09:34:34Z</time></trkpt><trkpt lat="48.23569371054887" lon="11.636436889211033"><ele>484.0</ele><time>2026-04-17T09:34:35Z</time></trkpt><trkpt lat="48.23546818608125" lon="11.636324739213023"><ele>484.5</ele><time>2026-04-17T09:34:36Z</time></trkpt><trkpt lat="48.23523686115968" lon="11.636206663466412"><ele>485.0</ele><time>2026-04-17T09:34:37Z</time></trkpt><trkpt lat="48.23499348131691" lon="11.636083059979896"><ele>485.5</ele><time>2026-04-17T09:34:38Z</time></trkpt><trkpt lat="48.23473968373681" lon="11.63595820655642"><ele>486.0</ele><time>2026-04-17T09:34:39Z</time></trkpt><trkpt lat="48.23448004974147" lon="11.63583318560163"><ele>486.0</ele><time>2026-04-17T09:34:40Z</time></trkpt><trkpt lat="48.23422558185967" lon="11.63570994767096"><ele>486.0</ele><time>2026-04-17T09:34:41Z</time></trkpt><trkpt lat="48.23398036005278" lon="11.63559170708826"><ele>487.5</ele><time>2026-04-17T09:34:42Z</time></trkpt><trkpt lat="48.23375082950321" lon="11.635471901851057"><ele>489.0</ele><time>2026-04-17T09:34:43Z</time></trkpt><trkpt lat="48.233524880229986" lon="11.635354895805802"><ele>488.5</ele><time>2026-04-17T09:34:44Z</time></trkpt><trkpt lat="48.23329130130853" lon="11.635245178885954"><ele>488.0</ele><time>2026-04-17T09:34:45Z</time></trkpt><trkpt lat="48.23305042259832" lon="11.635137305076064"><ele>487.5</ele><time>2026-04-17T09:34:46Z</time></trkpt><trkpt lat="48.23282041392555" lon="11.63502647733636"><ele>487.0</ele><time>2026-04-17T09:34:47Z</time></trkpt><trkpt lat="48.23259094681828" lon="11.634920426033919"><ele>487.0</ele><time>2026-04-17T09:34:48Z</time></trkpt><trkpt lat="48.232361997813285" lon="11.634812875011248"><ele>487.0</ele><time>2026-04-17T09:34:49Z</time></trkpt><trkpt lat="48.23212931158679" lon="11.634700228455982"><ele>486.0</ele><time>2026-04-17T09:34:50Z</time></trkpt><trkpt lat="48.23189149950993" lon="11.63459768225636"><ele>485.0</ele><time>2026-04-17T09:34:51Z</time></trkpt><trkpt lat="48.23164507119288" lon="11.634484078858762"><ele>485.5</ele><time>2026-04-17T09:34:52Z</time></trkpt><trkpt lat="48.23141098189975" lon="11.634362498611406"><ele>486.0</ele><time>2026-04-17T09:34:53Z</time></trkpt><trkpt lat="48.231173259879185" lon="11.63424296533932"><ele>486.0</ele><time>2026-04-17T09:34:54Z</time></trkpt><trkpt lat="48.230928788276394" lon="11.634121033826109"><ele>486.0</ele><time>2026-04-17T09:34:55Z</time></trkpt><trkpt lat="48.230672587496855" lon="11.633993323552147"><ele>486.0</ele><time>2026-04-17T09:34:56Z</time></trkpt><trkpt lat="48.23040972454599" lon="11.633862797811387"><ele>486.0</ele><time>2026-04-17T09:34:57Z</time></trkpt><trkpt lat="48.23014507463157" lon="11.633730393828758"><ele>486.5</ele><time>2026-04-17T09:34:58Z</time></trkpt><trkpt lat="48.229884918233346" lon="11.633599615469981"><ele>487.0</ele><time>2026-04-17T09:34:59Z</time></trkpt><trkpt lat="48.229628030081486" lon="11.633470614292587"><ele>487.5</ele><time>2026-04-17T09:35:00Z</time></trkpt><trkpt lat="48.22938581442219" lon="11.633351020747295"><ele>488.0</ele><time>2026-04-17T09:35:01Z</time></trkpt><trkpt lat="48.22914378093565" lon="11.633227812460186"><ele>487.0</ele><time>2026-04-17T09:35:02Z</time></trkpt><trkpt lat="48.22890443787637" lon="11.633106465514844"><ele>486.0</ele><time>2026-04-17T09:35:03Z</time></trkpt><trkpt lat="48.22866814365988" lon="11.632990516659286"><ele>486.0</ele><time>2026-04-17T09:35:04Z</time></trkpt><trkpt lat="48.22843691763454" lon="11.632876031698292"><ele>486.0</ele><time>2026-04-17T09:35:05Z</time></trkpt><trkpt lat="48.22820809712991" lon="11.632758846336888"><ele>486.5</ele><time>2026-04-17T09:35:06Z</time></trkpt><trkpt lat="48.2279859632117" lon="11.632645237170674"><ele>487.0</ele><time>2026-04-17T09:35:07Z</time></trkpt><trkpt lat="48.22777189852742" lon="11.632539690083862"><ele>487.0</ele><time>2026-04-17T09:35:08Z</time></trkpt><trkpt lat="48.22756120567688" lon="11.63243607438681"><ele>487.0</ele><time>2026-04-17T09:35:09Z</time></trkpt><trkpt lat="48.227349328811435" lon="11.632329495582773"><ele>487.0</ele><time>2026-04-17T09:35:10Z</time></trkpt><trkpt lat="48.22713183588515" lon="11.632219061836208"><ele>488.5</ele><time>2026-04-17T09:35:11Z</time></trkpt><trkpt lat="48.22690901310473" lon="11.63210677519394"><ele>490.0</ele><time>2026-04-17T09:35:12Z</time></trkpt><trkpt lat="48.22668038069082" lon="11.63199170466843"><ele>490.5</ele><time>2026-04-17T09:35:13Z</time></trkpt><trkpt lat="48.22644648116369" lon="11.631876895066176"><ele>491.0</ele><time>2026-04-17T09:35:14Z</time></trkpt><trkpt lat="48.226214412175985" lon="11.631762767821739"><ele>491.0</ele><time>2026-04-17T09:35:15Z</time></trkpt><trkpt lat="48.22599125682005" lon="11.631652368404104"><ele>491.0</ele><time>2026-04-17T09:35:16Z</time></trkpt><trkpt lat="48.225779161121615" lon="11.631544950864717"><ele>490.66666666666663</ele><time>2026-04-17T09:35:17Z</time></trkpt><trkpt lat="48.22557107905876" lon="11.63144162260426"><ele>490.33333333333337</ele><time>2026-04-17T09:35:18Z</time></trkpt><trkpt lat="48.225365826206854" lon="11.63133935147051"><ele>490.0</ele><time>2026-04-17T09:35:19Z</time></trkpt><trkpt lat="48.22516221976304" lon="11.631236986350569"><ele>490.6666666666667</ele><time>2026-04-17T09:35:20Z</time></trkpt><trkpt lat="48.22495758009184" lon="11.631133468692802"><ele>491.33333333333337</ele><time>2026-04-17T09:35:21Z</time></trkpt><trkpt lat="48.224753410447256" lon="11.631028684222763"><ele>492.0</ele><time>2026-04-17T09:35:22Z</time></trkpt><trkpt lat="48.22454532777911" lon="11.630925184413837"><ele>492.0</ele><time>2026-04-17T09:35:23Z</time></trkpt><trkpt lat="48.22433513912659" lon="11.630820880920005"><ele>492.0</ele><time>2026-04-17T09:35:24Z</time></trkpt><trkpt lat="48.2241197205063" lon="11.630716159091003"><ele>492.0</ele><time>2026-04-17T09:35:25Z</time></trkpt><trkpt lat="48.22390378608588" lon="11.630613764704062"><ele>492.0</ele><time>2026-04-17T09:35:26Z</time></trkpt><trkpt lat="48.22369376190594" lon="11.63049801347951"><ele>492.0</ele><time>2026-04-17T09:35:27Z</time></trkpt><trkpt lat="48.22348189503425" lon="11.630388315936749"><ele>492.0</ele><time>2026-04-17T09:35:28Z</time></trkpt><trkpt lat="48.22327163271686" lon="11.630281285915425"><ele>491.0</ele><time>2026-04-17T09:35:29Z</time></trkpt><trkpt lat="48.22305827065762" lon="11.63017482093749"><ele>490.0</ele><time>2026-04-17T09:35:30Z</time></trkpt><trkpt lat="48.22283442051357" lon="11.630064101824411"><ele>490.0</ele><time>2026-04-17T09:35:31Z</time></trkpt><trkpt lat="48.2225953699391" lon="11.629943259664293"><ele>490.0</ele><time>2026-04-17T09:35:32Z</time></trkpt><trkpt lat="48.222346003066775" lon="11.629815339104324"><ele>489.5</ele><time>2026-04-17T09:35:33Z</time></trkpt><trkpt lat="48.22209607484864" lon="11.629702004268877"><ele>489.0</ele><time>2026-04-17T09:35:34Z</time></trkpt><trkpt lat="48.221851027649976" lon="11.629595115303292"><ele>489.0</ele><time>2026-04-17T09:35:35Z</time></trkpt><trkpt lat="48.22160884690098" lon="11.629481088979297"><ele>489.0</ele><time>2026-04-17T09:35:36Z</time></trkpt><trkpt lat="48.221371911167736" lon="11.629364337864994"><ele>491.0</ele><time>2026-04-17T09:35:37Z</time></trkpt><trkpt lat="48.221131310950284" lon="11.629240605734264"><ele>493.0</ele><time>2026-04-17T09:35:38Z</time></trkpt><trkpt lat="48.22088289097833" lon="11.629117536642074"><ele>492.0</ele><time>2026-04-17T09:35:39Z</time></trkpt><trkpt lat="48.220626930635156" lon="11.62899442192141"><ele>491.0</ele><time>2026-04-17T09:35:40Z</time></trkpt><trkpt lat="48.220381351240974" lon="11.628875649966215"><ele>491.0</ele><time>2026-04-17T09:35:41Z</time></trkpt><trkpt lat="48.220132176955985" lon="11.6287478094544"><ele>491.0</ele><time>2026-04-17T09:35:42Z</time></trkpt><trkpt lat="48.21988190241676" lon="11.62862015996774"><ele>492.5</ele><time>2026-04-17T09:35:43Z</time></trkpt><trkpt lat="48.219635567046105" lon="11.628490900426382"><ele>494.0</ele><time>2026-04-17T09:35:44Z</time></trkpt><trkpt lat="48.21939744706417" lon="11.628366288201136"><ele>494.0</ele><time>2026-04-17T09:35:45Z</time></trkpt><trkpt lat="48.21916118272676" lon="11.628247534055314"><ele>494.0</ele><time>2026-04-17T09:35:46Z</time></trkpt><trkpt lat="48.21892447078054" lon="11.628128867526552"><ele>493.0</ele><time>2026-04-17T09:35:47Z</time></trkpt><trkpt lat="48.218681479001205" lon="11.628005466723733"><ele>492.0</ele><time>2026-04-17T09:35:48Z</time></trkpt><trkpt lat="48.21843322946877" lon="11.627881410691588"><ele>492.0</ele><time>2026-04-17T09:35:49Z</time></trkpt><trkpt lat="48.21818074599369" lon="11.62775758252681"><ele>492.0</ele><time>2026-04-17T09:35:50Z</time></trkpt><trkpt lat="48.21792502866074" lon="11.627629890519831"><ele>492.0</ele><time>2026-04-17T09:35:51Z</time></trkpt><trkpt lat="48.21765822738726" lon="11.627498502142835"><ele>492.0</ele><time>2026-04-17T09:35:52Z</time></trkpt><trkpt lat="48.21738480105217" lon="11.627362665921563"><ele>492.0</ele><time>2026-04-17T09:35:53Z</time></trkpt><trkpt lat="48.21711249417231" lon="11.627222314742982"><ele>492.0</ele><time>2026-04-17T09:35:54Z</time></trkpt><trkpt lat="48.21684160209384" lon="11.627080723600542"><ele>492.0</ele><time>2026-04-17T09:35:55Z</time></trkpt><trkpt lat="48.21657146605832" lon="11.626940857908265"><ele>492.0</ele><time>2026-04-17T09:35:56Z</time></trkpt><trkpt lat="48.216301240296076" lon="11.626802358477219"><ele>492.0</ele><time>2026-04-17T09:35:57Z</time></trkpt><trkpt lat="48.21602075320585" lon="11.626665533046816"><ele>492.0</ele><time>2026-04-17T09:35:58Z</time></trkpt><trkpt lat="48.2157407830577" lon="11.626530048574303"><ele>492.5</ele><time>2026-04-17T09:35:59Z</time></trkpt><trkpt lat="48.21546994621206" lon="11.626401500028987"><ele>493.0</ele><time>2026-04-17T09:36:00Z</time></trkpt><trkpt lat="48.215209301541385" lon="11.626269854446493"><ele>493.5</ele><time>2026-04-17T09:36:01Z</time></trkpt><trkpt lat="48.21493593318774" lon="11.62613388199236"><ele>494.0</ele><time>2026-04-17T09:36:02Z</time></trkpt><trkpt lat="48.214657813082276" lon="11.625993026164494"><ele>492.0</ele><time>2026-04-17T09:36:03Z</time></trkpt><trkpt lat="48.21437295858134" lon="11.625848573905115"><ele>490.0</ele><time>2026-04-17T09:36:04Z</time></trkpt><trkpt lat="48.214083877129426" lon="11.625702170281636"><ele>491.0</ele><time>2026-04-17T09:36:05Z</time></trkpt><trkpt lat="48.21379575254896" lon="11.625557638266601"><ele>492.0</ele><time>2026-04-17T09:36:06Z</time></trkpt><trkpt lat="48.213519343294024" lon="11.62541786365593"><ele>492.5</ele><time>2026-04-17T09:36:07Z</time></trkpt><trkpt lat="48.213257051561875" lon="11.625286524119097"><ele>493.0</ele><time>2026-04-17T09:36:08Z</time></trkpt><trkpt lat="48.2130002418069" lon="11.62515988884986"><ele>494.0</ele><time>2026-04-17T09:36:09Z</time></trkpt><trkpt lat="48.21274076549066" lon="11.62502932510984"><ele>495.0</ele><time>2026-04-17T09:36:10Z</time></trkpt><trkpt lat="48.21247628611947" lon="11.624895063515577"><ele>494.5</ele><time>2026-04-17T09:36:11Z</time></trkpt><trkpt lat="48.21220649974537" lon="11.62476189666291"><ele>494.0</ele><time>2026-04-17T09:36:12Z</time></trkpt><trkpt lat="48.211931112066466" lon="11.624628679247246"><ele>494.0</ele><time>2026-04-17T09:36:13Z</time></trkpt><trkpt lat="48.21164861803381" lon="11.624487195911493"><ele>494.0</ele><time>2026-04-17T09:36:14Z</time></trkpt><trkpt lat="48.21136070245325" lon="11.624342245770361"><ele>493.5</ele><time>2026-04-17T09:36:15Z</time></trkpt><trkpt lat="48.21107202207906" lon="11.624198011939043"><ele>493.0</ele><time>2026-04-17T09:36:16Z</time></trkpt><trkpt lat="48.21078973863831" lon="11.624056722638999"><ele>492.5</ele><time>2026-04-17T09:36:17Z</time></trkpt><trkpt lat="48.21050852852426" lon="11.623914794924971"><ele>492.0</ele><time>2026-04-17T09:36:18Z</time></trkpt><trkpt lat="48.21023016706499" lon="11.623773330837947"><ele>493.0</ele><time>2026-04-17T09:36:19Z</time></trkpt><trkpt lat="48.209957794162875" lon="11.623638566240228"><ele>494.0</ele><time>2026-04-17T09:36:20Z</time></trkpt><trkpt lat="48.209689832173346" lon="11.623504882436855"><ele>494.0</ele><time>2026-04-17T09:36:21Z</time></trkpt><trkpt lat="48.209425520550305" lon="11.623370452813562"><ele>494.0</ele><time>2026-04-17T09:36:22Z</time></trkpt><trkpt lat="48.20916227826609" lon="11.623235802009546"><ele>492.5</ele><time>2026-04-17T09:36:23Z</time></trkpt><trkpt lat="48.208898490811066" lon="11.623104894328707"><ele>491.0</ele><time>2026-04-17T09:36:24Z</time></trkpt><trkpt lat="48.20862950840125" lon="11.622972798178724"><ele>491.0</ele><time>2026-04-17T09:36:25Z</time></trkpt><trkpt lat="48.20835431443238" lon="11.62283255053185"><ele>491.0</ele><time>2026-04-17T09:36:26Z</time></trkpt><trkpt lat="48.20807590448429" lon="11.62268961932183"><ele>493.0</ele><time>2026-04-17T09:36:27Z</time></trkpt><trkpt lat="48.20779328755885" lon="11.62254923405144"><ele>495.0</ele><time>2026-04-17T09:36:28Z</time></trkpt><trkpt lat="48.207509040334315" lon="11.622407355685816"><ele>496.0</ele><time>2026-04-17T09:36:29Z</time></trkpt><trkpt lat="48.20722473350407" lon="11.622262307799032"><ele>497.0</ele><time>2026-04-17T09:36:30Z</time></trkpt><trkpt lat="48.206942065824954" lon="11.622119145968021"><ele>497.0</ele><time>2026-04-17T09:36:31Z</time></trkpt><trkpt lat="48.206663664207134" lon="11.621983383975278"><ele>497.0</ele><time>2026-04-17T09:36:32Z</time></trkpt><trkpt lat="48.20640353183175" lon="11.621852947874451"><ele>494.5</ele><time>2026-04-17T09:36:33Z</time></trkpt><trkpt lat="48.20616135236477" lon="11.621733303948085"><ele>492.0</ele><time>2026-04-17T09:36:34Z</time></trkpt><trkpt lat="48.205911614983584" lon="11.621611830823342"><ele>493.0</ele><time>2026-04-17T09:36:35Z</time></trkpt><trkpt lat="48.20565537583953" lon="11.62148527834838"><ele>494.0</ele><time>2026-04-17T09:36:36Z</time></trkpt><trkpt lat="48.20538551755175" lon="11.62135332857748"><ele>494.0</ele><time>2026-04-17T09:36:37Z</time></trkpt><trkpt lat="48.20510040884087" lon="11.62120762378352"><ele>494.0</ele><time>2026-04-17T09:36:38Z</time></trkpt><trkpt lat="48.20481624782249" lon="11.621060889171796"><ele>495.0</ele><time>2026-04-17T09:36:39Z</time></trkpt><trkpt lat="48.204549860721166" lon="11.62092451169926"><ele>496.0</ele><time>2026-04-17T09:36:40Z</time></trkpt><trkpt lat="48.20429476166067" lon="11.620796216534673"><ele>496.0</ele><time>2026-04-17T09:36:41Z</time></trkpt><trkpt lat="48.20406198726869" lon="11.620674457516886"><ele>496.0</ele><time>2026-04-17T09:36:42Z</time></trkpt><trkpt lat="48.203841875139695" lon="11.620543508569705"><ele>496.5</ele><time>2026-04-17T09:36:43Z</time></trkpt><trkpt lat="48.20363042031342" lon="11.620419257469361"><ele>497.0</ele><time>2026-04-17T09:36:44Z</time></trkpt><trkpt lat="48.20341693789921" lon="11.620311333942313"><ele>497.3333333333333</ele><time>2026-04-17T09:36:45Z</time></trkpt><trkpt lat="48.20320449666742" lon="11.62020596976369"><ele>497.66666666666663</ele><time>2026-04-17T09:36:46Z</time></trkpt><trkpt lat="48.20299376157163" lon="11.620099494696555"><ele>498.0</ele><time>2026-04-17T09:36:47Z</time></trkpt><trkpt lat="48.202785997069284" lon="11.619996014281817"><ele>496.66666666666663</ele><time>2026-04-17T09:36:48Z</time></trkpt><trkpt lat="48.202589105005046" lon="11.619896610880463"><ele>495.3333333333333</ele><time>2026-04-17T09:36:49Z</time></trkpt><trkpt lat="48.202399120088074" lon="11.619800045149331"><ele>494.0</ele><time>2026-04-17T09:36:50Z</time></trkpt><trkpt lat="48.2022127040103" lon="11.619707036345604"><ele>494.0</ele><time>2026-04-17T09:36:51Z</time></trkpt><trkpt lat="48.20202866490876" lon="11.61961578797542"><ele>494.0</ele><time>2026-04-17T09:36:52Z</time></trkpt><trkpt lat="48.20185072188408" lon="11.619522809119601"><ele>494.0</ele><time>2026-04-17T09:36:53Z</time></trkpt><trkpt lat="48.20168137710933" lon="11.619435220378643"><ele>494.66666666666663</ele><time>2026-04-17T09:36:54Z</time></trkpt><trkpt lat="48.201514773588414" lon="11.61935196467221"><ele>495.33333333333337</ele><time>2026-04-17T09:36:55Z</time></trkpt><trkpt lat="48.20134431856423" lon="11.61926875162788"><ele>496.0</ele><time>2026-04-17T09:36:56Z</time></trkpt><trkpt lat="48.20116749763415" lon="11.619181074757936"><ele>496.33333333333337</ele><time>2026-04-17T09:36:57Z</time></trkpt><trkpt lat="48.200985285440716" lon="11.619092121481197"><ele>496.66666666666663</ele><time>2026-04-17T09:36:58Z</time></trkpt><trkpt lat="48.2008004945706" lon="11.619000611440393"><ele>497.0</ele><time>2026-04-17T09:36:59Z</time></trkpt><trkpt lat="48.2006171066903" lon="11.618909234165157"><ele>497.0</ele><time>2026-04-17T09:37:00Z</time></trkpt><trkpt lat="48.20043563929255" lon="11.61881988161461"><ele>497.0</ele><time>2026-04-17T09:37:01Z</time></trkpt><trkpt lat="48.20025035961961" lon="11.618728151483955"><ele>497.0</ele><time>2026-04-17T09:37:02Z</time></trkpt><trkpt lat="48.20006203805764" lon="11.61863453204198"><ele>497.0</ele><time>2026-04-17T09:37:03Z</time></trkpt><trkpt lat="48.19987083164715" lon="11.618541693802992"><ele>497.0</ele><time>2026-04-17T09:37:04Z</time></trkpt><trkpt lat="48.199681852291796" lon="11.618448261778322"><ele>497.0</ele><time>2026-04-17T09:37:05Z</time></trkpt><trkpt lat="48.19949731614841" lon="11.618357206533258"><ele>496.3333333333333</ele><time>2026-04-17T09:37:06Z</time></trkpt><trkpt lat="48.19931569691692" lon="11.618266338000156"><ele>495.66666666666663</ele><time>2026-04-17T09:37:07Z</time></trkpt><trkpt lat="48.199134391855495" lon="11.618174758872742"><ele>495.0</ele><time>2026-04-17T09:37:08Z</time></trkpt><trkpt lat="48.19895420787326" lon="11.618083372316486"><ele>495.0</ele><time>2026-04-17T09:37:09Z</time></trkpt><trkpt lat="48.19877472178592" lon="11.617991477290985"><ele>495.0</ele><time>2026-04-17T09:37:10Z</time></trkpt><trkpt lat="48.198593570622" lon="11.617903406487413"><ele>495.0</ele><time>2026-04-17T09:37:11Z</time></trkpt><trkpt lat="48.1984128234889" lon="11.617818683329828"><ele>494.0</ele><time>2026-04-17T09:37:12Z</time></trkpt><trkpt lat="48.19823447838381" lon="11.61773432924206"><ele>493.0</ele><time>2026-04-17T09:37:13Z</time></trkpt><trkpt lat="48.198056749449016" lon="11.617645963548851"><ele>492.0</ele><time>2026-04-17T09:37:14Z</time></trkpt><trkpt lat="48.19787407994388" lon="11.617557750833463"><ele>494.0</ele><time>2026-04-17T09:37:15Z</time></trkpt><trkpt lat="48.197682948644236" lon="11.617466980059005"><ele>496.0</ele><time>2026-04-17T09:37:16Z</time></trkpt><trkpt lat="48.19748826973519" lon="11.617374437010533"><ele>498.0</ele><time>2026-04-17T09:37:17Z</time></trkpt><trkpt lat="48.197285681520306" lon="11.61727799383272"><ele>499.0</ele><time>2026-04-17T09:37:18Z</time></trkpt><trkpt lat="48.19709333373779" lon="11.617183924834983"><ele>500.0</ele><time>2026-04-17T09:37:19Z</time></trkpt><trkpt lat="48.19690176554253" lon="11.61708969255234"><ele>501.0</ele><time>2026-04-17T09:37:20Z</time></trkpt><trkpt lat="48.19671196087349" lon="11.616997315020447"><ele>501.33333333333337</ele><time>2026-04-17T09:37:21Z</time></trkpt><trkpt lat="48.196518197043574" lon="11.616908879616766"><ele>501.6666666666667</ele><time>2026-04-17T09:37:22Z</time></trkpt><trkpt lat="48.19632157064523" lon="11.616821074499171"><ele>502.0</ele><time>2026-04-17T09:37:23Z</time></trkpt><trkpt lat="48.19612593205712" lon="11.616723817982924"><ele>501.33333333333337</ele><time>2026-04-17T09:37:24Z</time></trkpt><trkpt lat="48.19592978449463" lon="11.616623623886792"><ele>500.66666666666663</ele><time>2026-04-17T09:37:25Z</time></trkpt><trkpt lat="48.19573267499682" lon="11.61652473822712"><ele>500.0</ele><time>2026-04-17T09:37:26Z</time></trkpt><trkpt lat="48.19553387710618" lon="11.61642687256736"><ele>499.66666666666663</ele><time>2026-04-17T09:37:27Z</time></trkpt><trkpt lat="48.195338593142075" lon="11.616330928989816"><ele>499.33333333333337</ele><time>2026-04-17T09:37:28Z</time></trkpt><trkpt lat="48.195150659623216" lon="11.616238029616992"><ele>499.0</ele><time>2026-04-17T09:37:29Z</time></trkpt><trkpt lat="48.1949650597618" lon="11.616147151859659"><ele>499.0</ele><time>2026-04-17T09:37:30Z</time></trkpt><trkpt lat="48.19478492269064" lon="11.61605899384486"><ele>499.0</ele><time>2026-04-17T09:37:31Z</time></trkpt><trkpt lat="48.19460749097035" lon="11.615969071380198"><ele>499.0</ele><time>2026-04-17T09:37:32Z</time></trkpt><trkpt lat="48.19442421003708" lon="11.615877442089294"><ele>499.0</ele><time>2026-04-17T09:37:33Z</time></trkpt><trkpt lat="48.194239331294845" lon="11.615785957843444"><ele>499.0</ele><time>2026-04-17T09:37:34.001Z</time></trkpt><trkpt lat="48.19405063644148" lon="11.61569141620533"><ele>499.0</ele><time>2026-04-17T09:37:35.001Z</time></trkpt><trkpt lat="48.19385959373689" lon="11.615596891628165"><ele>499.0</ele><time>2026-04-17T09:37:36.001Z</time></trkpt><trkpt lat="48.19366630706964" lon="11.615501394746449"><ele>499.0</ele><time>2026-04-17T09:37:37.001Z</time></trkpt><trkpt lat="48.193471339663176" lon="11.615406095922552"><ele>499.0</ele><time>2026-04-17T09:37:38.001Z</time></trkpt><trkpt lat="48.19327793369622" lon="11.615310988063465"><ele>498.33333333333337</ele><time>2026-04-17T09:37:39.001Z</time></trkpt><trkpt lat="48.19308522072842" lon="11.615212327907948"><ele>497.66666666666663</ele><time>2026-04-17T09:37:40.001Z</time></trkpt><trkpt lat="48.19289124752913" lon="11.615114013434038"><ele>497.0</ele><time>2026-04-17T09:37:41.001Z</time></trkpt><trkpt lat="48.192695931090554" lon="11.61501513693771"><ele>497.0</ele><time>2026-04-17T09:37:42.001Z</time></trkpt><trkpt lat="48.19250147150957" lon="11.614919905227174"><ele>497.0</ele><time>2026-04-17T09:37:43.001Z</time></trkpt><trkpt lat="48.19231031548081" lon="11.614821149073496"><ele>497.0</ele><time>2026-04-17T09:37:44.001Z</time></trkpt><trkpt lat="48.19211927866228" lon="11.614724790216906"><ele>497.3333333333333</ele><time>2026-04-17T09:37:45.001Z</time></trkpt><trkpt lat="48.191930639241534" lon="11.614631334608655"><ele>497.66666666666663</ele><time>2026-04-17T09:37:46.001Z</time></trkpt><trkpt lat="48.191745337559084" lon="11.614535990056511"><ele>498.0</ele><time>2026-04-17T09:37:47.001Z</time></trkpt><trkpt lat="48.19156188554123" lon="11.614441285015799"><ele>498.66666666666663</ele><time>2026-04-17T09:37:48.001Z</time></trkpt><trkpt lat="48.19137738840014" lon="11.614346723647142"><ele>499.3333333333333</ele><time>2026-04-17T09:37:49.001Z</time></trkpt><trkpt lat="48.19119334422323" lon="11.61425262650415"><ele>500.0</ele><time>2026-04-17T09:37:50.001Z</time></trkpt><trkpt lat="48.191010903082905" lon="11.614157988149287"><ele>500.0</ele><time>2026-04-17T09:37:51.001Z</time></trkpt><trkpt lat="48.19082904842028" lon="11.614063668592175"><ele>500.0</ele><time>2026-04-17T09:37:52.001Z</time></trkpt><trkpt lat="48.1906485252921" lon="11.613968070512998"><ele>500.0</ele><time>2026-04-17T09:37:53.001Z</time></trkpt><trkpt lat="48.19046981738543" lon="11.613871360048567"><ele>500.0</ele><time>2026-04-17T09:37:54.001Z</time></trkpt><trkpt lat="48.19029119713672" lon="11.613774065669269"><ele>500.0</ele><time>2026-04-17T09:37:55.001Z</time></trkpt><trkpt lat="48.19011648558838" lon="11.613675540362946"><ele>500.0</ele><time>2026-04-17T09:37:56.001Z</time></trkpt><trkpt lat="48.189944078916724" lon="11.613571131819421"><ele>499.66666666666663</ele><time>2026-04-17T09:37:57.001Z</time></trkpt><trkpt lat="48.18976944230059" lon="11.61347021350858"><ele>499.33333333333337</ele><time>2026-04-17T09:37:58.001Z</time></trkpt><trkpt lat="48.189601028249086" lon="11.613363504470227"><ele>499.0</ele><time>2026-04-17T09:37:59.001Z</time></trkpt><trkpt lat="48.189433045136454" lon="11.613257022921506"><ele>499.0</ele><time>2026-04-17T09:38:00.001Z</time></trkpt><trkpt lat="48.18926465862911" lon="11.613151674105046"><ele>499.0</ele><time>2026-04-17T09:38:01.001Z</time></trkpt><trkpt lat="48.18910157782139" lon="11.613045155565592"><ele>499.0</ele><time>2026-04-17T09:38:02.001Z</time></trkpt><trkpt lat="48.188932962040006" lon="11.612925428179183"><ele>499.0</ele><time>2026-04-17T09:38:03.001Z</time></trkpt><trkpt lat="48.188747976837064" lon="11.612788182270386"><ele>499.0</ele><time>2026-04-17T09:38:04.001Z</time></trkpt><trkpt lat="48.18856718097748" lon="11.61264362955884"><ele>499.0</ele><time>2026-04-17T09:38:05.001Z</time></trkpt><trkpt lat="48.188402707672374" lon="11.612500705911344"><ele>499.0</ele><time>2026-04-17T09:38:06.001Z</time></trkpt><trkpt lat="48.188241069656314" lon="11.612356104961263"><ele>499.0</ele><time>2026-04-17T09:38:07.001Z</time></trkpt><trkpt lat="48.188080087894605" lon="11.612210435605435"><ele>499.0</ele><time>2026-04-17T09:38:08.001Z</time></trkpt><trkpt lat="48.187920670307896" lon="11.612057266736967"><ele>499.6666666666667</ele><time>2026-04-17T09:38:09.001Z</time></trkpt><trkpt lat="48.18775298483546" lon="11.611891452780332"><ele>500.33333333333337</ele><time>2026-04-17T09:38:10.001Z</time></trkpt><trkpt lat="48.18758357153849" lon="11.611716315232927"><ele>501.0</ele><time>2026-04-17T09:38:11.001Z</time></trkpt><trkpt lat="48.18742819973382" lon="11.611545416308788"><ele>501.66666666666663</ele><time>2026-04-17T09:38:12.001Z</time></trkpt><trkpt lat="48.18728031354102" lon="11.6113814986258"><ele>502.3333333333333</ele><time>2026-04-17T09:38:13.001Z</time></trkpt><trkpt lat="48.18713585136487" lon="11.61121409730364"><ele>503.0</ele><time>2026-04-17T09:38:14.001Z</time></trkpt><trkpt lat="48.18699169335283" lon="11.611036307809965"><ele>503.0</ele><time>2026-04-17T09:38:15.001Z</time></trkpt><trkpt lat="48.186843364138845" lon="11.61084544519668"><ele>503.0</ele><time>2026-04-17T09:38:16.001Z</time></trkpt><trkpt lat="48.18668895674953" lon="11.610632201242044"><ele>503.0</ele><time>2026-04-17T09:38:17.001Z</time></trkpt><trkpt lat="48.186549199931946" lon="11.610426561210314"><ele>503.66666666666663</ele><time>2026-04-17T09:38:18.001Z</time></trkpt><trkpt lat="48.18641573957655" lon="11.610228252842791"><ele>504.33333333333337</ele><time>2026-04-17T09:38:19.001Z</time></trkpt><trkpt lat="48.186288032428166" lon="11.610033430029086"><ele>505.0</ele><time>2026-04-17T09:38:20.001Z</time></trkpt><trkpt lat="48.18616270864001" lon="11.609832023611096"><ele>505.0</ele><time>2026-04-17T09:38:21.001Z</time></trkpt><trkpt lat="48.18603803139501" lon="11.609619925020535"><ele>505.0</ele><time>2026-04-17T09:38:22.001Z</time></trkpt><trkpt lat="48.18591152850162" lon="11.609394654267968"><ele>505.0</ele><time>2026-04-17T09:38:23.001Z</time></trkpt><trkpt lat="48.18578168587566" lon="11.609155301707617"><ele>504.0</ele><time>2026-04-17T09:38:24.001Z</time></trkpt><trkpt lat="48.18565013644489" lon="11.608899972570422"><ele>503.0</ele><time>2026-04-17T09:38:25.001Z</time></trkpt><trkpt lat="48.18552802004608" lon="11.608648461827363"><ele>502.0</ele><time>2026-04-17T09:38:26.001Z</time></trkpt><trkpt lat="48.18541665193375" lon="11.608404368462589"><ele>502.0</ele><time>2026-04-17T09:38:27.001Z</time></trkpt><trkpt lat="48.185310325804735" lon="11.608166368431316"><ele>502.0</ele><time>2026-04-17T09:38:28.001Z</time></trkpt><trkpt lat="48.18520492231483" lon="11.607922986874343"><ele>502.0</ele><time>2026-04-17T09:38:29.001Z</time></trkpt><trkpt lat="48.18510481171259" lon="11.607669112969672"><ele>501.6666666666667</ele><time>2026-04-17T09:38:30.001Z</time></trkpt><trkpt lat="48.18500580673576" lon="11.607411738640291"><ele>501.33333333333337</ele><time>2026-04-17T09:38:31.001Z</time></trkpt><trkpt lat="48.18490979815243" lon="11.607145114682458"><ele>501.0</ele><time>2026-04-17T09:38:32.001Z</time></trkpt><trkpt lat="48.184815547826666" lon="11.606872423622503"><ele>501.0</ele><time>2026-04-17T09:38:33.001Z</time></trkpt><trkpt lat="48.18472632463426" lon="11.606593970935528"><ele>501.0</ele><time>2026-04-17T09:38:34.001Z</time></trkpt><trkpt lat="48.18464063057427" lon="11.606314111863515"><ele>501.0</ele><time>2026-04-17T09:38:35.001Z</time></trkpt><trkpt lat="48.18456002697223" lon="11.606033976039923"><ele>501.66666666666663</ele><time>2026-04-17T09:38:36.001Z</time></trkpt><trkpt lat="48.18448343975649" lon="11.60575312228176"><ele>502.3333333333333</ele><time>2026-04-17T09:38:37.001Z</time></trkpt><trkpt lat="48.18441180710504" lon="11.605468862348093"><ele>503.0</ele><time>2026-04-17T09:38:38.001Z</time></trkpt><trkpt lat="48.184345155531965" lon="11.605188516633135"><ele>503.0</ele><time>2026-04-17T09:38:39.001Z</time></trkpt><trkpt lat="48.18428301333959" lon="11.604905299490182"><ele>503.0</ele><time>2026-04-17T09:38:40.001Z</time></trkpt><trkpt lat="48.18422571348871" lon="11.604621991054255"><ele>503.0</ele><time>2026-04-17T09:38:41.001Z</time></trkpt><trkpt lat="48.184172147353195" lon="11.60433999456462"><ele>502.3333333333333</ele><time>2026-04-17T09:38:42.001Z</time></trkpt><trkpt lat="48.18411990638019" lon="11.604058512846306"><ele>501.66666666666663</ele><time>2026-04-17T09:38:43.001Z</time></trkpt><trkpt lat="48.18406667940079" lon="11.603778292554406"><ele>501.0</ele><time>2026-04-17T09:38:44.001Z</time></trkpt><trkpt lat="48.1840114176111" lon="11.603501233096798"><ele>500.66666666666663</ele><time>2026-04-17T09:38:45.001Z</time></trkpt><trkpt lat="48.18395117928306" lon="11.603231322647881"><ele>500.3333333333333</ele><time>2026-04-17T09:38:46.001Z</time></trkpt><trkpt lat="48.1838874044936" lon="11.602967505113732"><ele>500.0</ele><time>2026-04-17T09:38:47.001Z</time></trkpt><trkpt lat="48.183821161347794" lon="11.602716677360414"><ele>500.66666666666663</ele><time>2026-04-17T09:38:48.001Z</time></trkpt><trkpt lat="48.183748757281805" lon="11.602465156267268"><ele>501.33333333333337</ele><time>2026-04-17T09:38:49.001Z</time></trkpt><trkpt lat="48.183670862965364" lon="11.602209544732212"><ele>502.0</ele><time>2026-04-17T09:38:50.001Z</time></trkpt><trkpt lat="48.183586559390804" lon="11.60195535191668"><ele>502.33333333333337</ele><time>2026-04-17T09:38:51.001Z</time></trkpt><trkpt lat="48.18349795391043" lon="11.601708831905501"><ele>502.66666666666663</ele><time>2026-04-17T09:38:52.001Z</time></trkpt><trkpt lat="48.18340754770888" lon="11.60146870159119"><ele>503.0</ele><time>2026-04-17T09:38:53.001Z</time></trkpt><trkpt lat="48.18331438452755" lon="11.601227479931008"><ele>503.0</ele><time>2026-04-17T09:38:54.001Z</time></trkpt><trkpt lat="48.183220508764116" lon="11.601007356546443"><ele>503.0</ele><time>2026-04-17T09:38:55.001Z</time></trkpt><trkpt lat="48.183140677131206" lon="11.600830111500594"><ele>503.0</ele><time>2026-04-17T09:38:56.001Z</time></trkpt><trkpt lat="48.1830638692713" lon="11.600663380337247"><ele>503.0</ele><time>2026-04-17T09:38:57.001Z</time></trkpt><trkpt lat="48.182982650938676" lon="11.600504079063365"><ele>503.0</ele><time>2026-04-17T09:38:58.001Z</time></trkpt><trkpt lat="48.18289543202199" lon="11.600332165503923"><ele>503.0</ele><time>2026-04-17T09:38:59.001Z</time></trkpt><trkpt lat="48.18279669387872" lon="11.60015414830729"><ele>503.0</ele><time>2026-04-17T09:39:00.001Z</time></trkpt><trkpt lat="48.18269598020842" lon="11.599967645380232"><ele>503.0</ele><time>2026-04-17T09:39:01.001Z</time></trkpt><trkpt lat="48.182592583096195" lon="11.599797757790125"><ele>503.0</ele><time>2026-04-17T09:39:02.001Z</time></trkpt><trkpt lat="48.18249259240114" lon="11.599634779562935"><ele>503.0</ele><time>2026-04-17T09:39:03.001Z</time></trkpt><trkpt lat="48.18239403849018" lon="11.599476730238942"><ele>503.0</ele><time>2026-04-17T09:39:04.001Z</time></trkpt><trkpt lat="48.18229413350367" lon="11.599321355233082"><ele>503.0</ele><time>2026-04-17T09:39:05.001Z</time></trkpt><trkpt lat="48.182189327502286" lon="11.599170909241346"><ele>503.0</ele><time>2026-04-17T09:39:06.001Z</time></trkpt><trkpt lat="48.18208233078868" lon="11.59901322366964"><ele>503.0</ele><time>2026-04-17T09:39:07.001Z</time></trkpt><trkpt lat="48.18196799229495" lon="11.598863547233755"><ele>503.0</ele><time>2026-04-17T09:39:08.001Z</time></trkpt><trkpt lat="48.18185515366808" lon="11.598717328344184"><ele>503.0</ele><time>2026-04-17T09:39:09.001Z</time></trkpt><trkpt lat="48.181750243120604" lon="11.598585690596742"><ele>503.0</ele><time>2026-04-17T09:39:10.001Z</time></trkpt><trkpt lat="48.181650283696655" lon="11.598455371907303"><ele>503.0</ele><time>2026-04-17T09:39:11.001Z</time></trkpt><trkpt lat="48.18154543306949" lon="11.598327389280017"><ele>503.0</ele><time>2026-04-17T09:39:12.001Z</time></trkpt><trkpt lat="48.181436725437045" lon="11.598201931360562"><ele>503.0</ele><time>2026-04-17T09:39:13.001Z</time></trkpt><trkpt lat="48.18132381045433" lon="11.598075264684"><ele>503.0</ele><time>2026-04-17T09:39:14.001Z</time></trkpt><trkpt lat="48.18120470576951" lon="11.597953550891242"><ele>503.0</ele><time>2026-04-17T09:39:15.001Z</time></trkpt><trkpt lat="48.18108087416794" lon="11.597824864936445"><ele>503.0</ele><time>2026-04-17T09:39:16.001Z</time></trkpt><trkpt lat="48.18095289177451" lon="11.597691010978776"><ele>503.0</ele><time>2026-04-17T09:39:17.001Z</time></trkpt><trkpt lat="48.180822739026596" lon="11.597553655169017"><ele>503.0</ele><time>2026-04-17T09:39:18.001Z</time></trkpt><trkpt lat="48.180690889742195" lon="11.597413980808401"><ele>503.0</ele><time>2026-04-17T09:39:19.001Z</time></trkpt><trkpt lat="48.18056675290948" lon="11.597287043066537"><ele>503.25</ele><time>2026-04-17T09:39:20.001Z</time></trkpt><trkpt lat="48.18044627550312" lon="11.597165700684641"><ele>503.5</ele><time>2026-04-17T09:39:21.001Z</time></trkpt><trkpt lat="48.180324820481125" lon="11.597047608287811"><ele>503.75</ele><time>2026-04-17T09:39:22.001Z</time></trkpt><trkpt lat="48.18020329200783" lon="11.596931148155917"><ele>504.0</ele><time>2026-04-17T09:39:23.001Z</time></trkpt><trkpt lat="48.180087662770205" lon="11.596817866468573"><ele>504.0</ele><time>2026-04-17T09:39:24.001Z</time></trkpt><trkpt lat="48.17998244369604" lon="11.596713780174415"><ele>504.0</ele><time>2026-04-17T09:39:25.001Z</time></trkpt><trkpt lat="48.17987997046946" lon="11.59661139591132"><ele>504.0</ele><time>2026-04-17T09:39:26.001Z</time></trkpt><trkpt lat="48.17977590715635" lon="11.596507404109891"><ele>504.0</ele><time>2026-04-17T09:39:27.001Z</time></trkpt><trkpt lat="48.17966910375215" lon="11.596402584005533"><ele>503.75</ele><time>2026-04-17T09:39:28.001Z</time></trkpt><trkpt lat="48.17956045149806" lon="11.596294153751886"><ele>503.5</ele><time>2026-04-17T09:39:29.001Z</time></trkpt><trkpt lat="48.17944775049131" lon="11.596188934420729"><ele>503.25</ele><time>2026-04-17T09:39:30.001Z</time></trkpt><trkpt lat="48.17933607466137" lon="11.596086966731688"><ele>503.0</ele><time>2026-04-17T09:39:31.001Z</time></trkpt><trkpt lat="48.179225280241205" lon="11.595981875348127"><ele>502.75</ele><time>2026-04-17T09:39:32.001Z</time></trkpt><trkpt lat="48.17911449005808" lon="11.595875882958614"><ele>502.5</ele><time>2026-04-17T09:39:33.001Z</time></trkpt><trkpt lat="48.179003934440374" lon="11.59577475441689"><ele>502.25</ele><time>2026-04-17T09:39:34.001Z</time></trkpt><trkpt lat="48.17889385746032" lon="11.59567663852974"><ele>502.0</ele><time>2026-04-17T09:39:35.001Z</time></trkpt><trkpt lat="48.17878465881816" lon="11.595579386357125"><ele>502.5</ele><time>2026-04-17T09:39:36.001Z</time></trkpt><trkpt lat="48.17867715114397" lon="11.595476523221096"><ele>503.0</ele><time>2026-04-17T09:39:37.001Z</time></trkpt><trkpt lat="48.178570820809476" lon="11.595369273105332"><ele>503.5</ele><time>2026-04-17T09:39:38.001Z</time></trkpt><trkpt lat="48.17846355149094" lon="11.595260004751436"><ele>504.0</ele><time>2026-04-17T09:39:39.001Z</time></trkpt><trkpt lat="48.17835488289958" lon="11.595153526711826"><ele>504.0</ele><time>2026-04-17T09:39:40.001Z</time></trkpt><trkpt lat="48.17824323247569" lon="11.595044261532214"><ele>504.0</ele><time>2026-04-17T09:39:41.001Z</time></trkpt><trkpt lat="48.17813069066527" lon="11.594936789540274"><ele>504.0</ele><time>2026-04-17T09:39:42.001Z</time></trkpt><trkpt lat="48.17802164314728" lon="11.594833057226555"><ele>504.0</ele><time>2026-04-17T09:39:43.001Z</time></trkpt><trkpt lat="48.1779156863279" lon="11.594728797001284"><ele>504.25</ele><time>2026-04-17T09:39:44.001Z</time></trkpt><trkpt lat="48.177788981063685" lon="11.594683318089322"><ele>504.5</ele><time>2026-04-17T09:39:45.001Z</time></trkpt><trkpt lat="48.17767846259413" lon="11.594590499301841"><ele>504.75</ele><time>2026-04-17T09:39:46.001Z</time></trkpt><trkpt lat="48.177597221843875" lon="11.5944221471912"><ele>505.0</ele><time>2026-04-17T09:39:47.001Z</time></trkpt><trkpt lat="48.177490636662185" lon="11.594319454776699"><ele>505.0</ele><time>2026-04-17T09:39:48Z</time></trkpt><trkpt lat="48.177384492731036" lon="11.59421501592838"><ele>505.0</ele><time>2026-04-17T09:39:49Z</time></trkpt><trkpt lat="48.177276318942496" lon="11.594111159078132"><ele>505.0</ele><time>2026-04-17T09:39:50Z</time></trkpt><trkpt lat="48.177170673733194" lon="11.59401181139069"><ele>505.0</ele><time>2026-04-17T09:39:51Z</time></trkpt><trkpt lat="48.17707340319591" lon="11.593915742671296"><ele>505.2</ele><time>2026-04-17T09:39:52Z</time></trkpt><trkpt lat="48.176983036655706" lon="11.593826757469047"><ele>505.4</ele><time>2026-04-17T09:39:53Z</time></trkpt><trkpt lat="48.17689680052823" lon="11.593743873755228"><ele>505.6</ele><time>2026-04-17T09:39:54Z</time></trkpt><trkpt lat="48.17680912686416" lon="11.593659725460066"><ele>505.8</ele><time>2026-04-17T09:39:55Z</time></trkpt><trkpt lat="48.176721810548024" lon="11.593575883264693"><ele>506.0</ele><time>2026-04-17T09:39:56Z</time></trkpt><trkpt lat="48.17664086538865" lon="11.593492629739094"><ele>505.99999999999994</ele><time>2026-04-17T09:39:57Z</time></trkpt><trkpt lat="48.17656711785761" lon="11.593404820377879"><ele>506.0</ele><time>2026-04-17T09:39:58Z</time></trkpt><trkpt lat="48.17649273660236" lon="11.593325762473885"><ele>506.0</ele><time>2026-04-17T09:39:59Z</time></trkpt><trkpt lat="48.176418065019476" lon="11.593255148267417"><ele>506.0</ele><time>2026-04-17T09:40:00Z</time></trkpt><trkpt lat="48.17634673511683" lon="11.59318169888658"><ele>505.99999999999994</ele><time>2026-04-17T09:40:01Z</time></trkpt><trkpt lat="48.17627680861277" lon="11.593104069036928"><ele>506.0</ele><time>2026-04-17T09:40:02Z</time></trkpt><trkpt lat="48.17620423224794" lon="11.593025080874758"><ele>505.8</ele><time>2026-04-17T09:40:03Z</time></trkpt><trkpt lat="48.17612941392524" lon="11.592926291292853"><ele>505.6</ele><time>2026-04-17T09:40:04Z</time></trkpt><trkpt lat="48.17607508302585" lon="11.592796053806397"><ele>505.4</ele><time>2026-04-17T09:40:05Z</time></trkpt><trkpt lat="48.176040938618954" lon="11.592649735897306"><ele>505.2</ele><time>2026-04-17T09:40:06Z</time></trkpt><trkpt lat="48.176024563487644" lon="11.592507762477567"><ele>505.0</ele><time>2026-04-17T09:40:07Z</time></trkpt><trkpt lat="48.176017215267876" lon="11.592360941953972"><ele>504.8</ele><time>2026-04-17T09:40:08Z</time></trkpt><trkpt lat="48.17602552895762" lon="11.592213639972705"><ele>504.6</ele><time>2026-04-17T09:40:09Z</time></trkpt><trkpt lat="48.176057842879295" lon="11.592072139663037"><ele>504.4</ele><time>2026-04-17T09:40:10Z</time></trkpt><trkpt lat="48.176107009723296" lon="11.59192557895915"><ele>504.2</ele><time>2026-04-17T09:40:11Z</time></trkpt><trkpt lat="48.17616805449937" lon="11.591785846143228"><ele>504.0</ele><time>2026-04-17T09:40:12Z</time></trkpt><trkpt lat="48.176225196808886" lon="11.591659508570809"><ele>503.5</ele><time>2026-04-17T09:40:13Z</time></trkpt><trkpt lat="48.17627490724868" lon="11.591550141444886"><ele>503.0</ele><time>2026-04-17T09:40:14Z</time></trkpt><trkpt lat="48.176322905130306" lon="11.591443526576418"><ele>502.5</ele><time>2026-04-17T09:40:15Z</time></trkpt><trkpt lat="48.176368260592554" lon="11.59132527414639"><ele>502.0</ele><time>2026-04-17T09:40:16Z</time></trkpt><trkpt lat="48.176412792772155" lon="11.591210626608616"><ele>501.5</ele><time>2026-04-17T09:40:17Z</time></trkpt><trkpt lat="48.176457407189325" lon="11.591114845260831"><ele>501.0</ele><time>2026-04-17T09:40:18Z</time></trkpt><trkpt lat="48.17650084015097" lon="11.591018152073719"><ele>501.5</ele><time>2026-04-17T09:40:19Z</time></trkpt><trkpt lat="48.17654227632403" lon="11.590920842010945"><ele>502.0</ele><time>2026-04-17T09:40:20Z</time></trkpt><trkpt lat="48.1765838976091" lon="11.590815130819715"><ele>502.5</ele><time>2026-04-17T09:40:21Z</time></trkpt><trkpt lat="48.17662353369622" lon="11.590707298785523"><ele>503.0</ele><time>2026-04-17T09:40:22Z</time></trkpt><trkpt lat="48.176663938815025" lon="11.590605050208534"><ele>503.5</ele><time>2026-04-17T09:40:23Z</time></trkpt><trkpt lat="48.176701754921076" lon="11.590510925210431"><ele>504.0</ele><time>2026-04-17T09:40:24Z</time></trkpt><trkpt lat="48.17673653596589" lon="11.590422191772035"><ele>504.1666666666667</ele><time>2026-04-17T09:40:25Z</time></trkpt><trkpt lat="48.17677205655271" lon="11.590327552865062"><ele>504.33333333333337</ele><time>2026-04-17T09:40:26Z</time></trkpt><trkpt lat="48.17681281648423" lon="11.590221713445597"><ele>504.5</ele><time>2026-04-17T09:40:27Z</time></trkpt><trkpt lat="48.17685465093175" lon="11.59011388667327"><ele>504.6666666666667</ele><time>2026-04-17T09:40:28Z</time></trkpt><trkpt lat="48.176893354866955" lon="11.590008722280817"><ele>504.83333333333337</ele><time>2026-04-17T09:40:29Z</time></trkpt><trkpt lat="48.17693132267709" lon="11.589907191853275"><ele>505.0</ele><time>2026-04-17T09:40:30Z</time></trkpt><trkpt lat="48.176971724944046" lon="11.589789593156071"><ele>505.0</ele><time>2026-04-17T09:40:31Z</time></trkpt><trkpt lat="48.17700752269776" lon="11.58965102963967"><ele>505.0</ele><time>2026-04-17T09:40:32Z</time></trkpt><trkpt lat="48.177051671938436" lon="11.589507927838602"><ele>505.0</ele><time>2026-04-17T09:40:33Z</time></trkpt><trkpt lat="48.177098511162505" lon="11.589374639511597"><ele>505.0</ele><time>2026-04-17T09:40:34Z</time></trkpt><trkpt lat="48.17714216601727" lon="11.589247639726203"><ele>505.0</ele><time>2026-04-17T09:40:35Z</time></trkpt><trkpt lat="48.17718714995392" lon="11.589119055293635"><ele>505.0</ele><time>2026-04-17T09:40:36Z</time></trkpt><trkpt lat="48.17723362643255" lon="11.588981928373759"><ele>505.0</ele><time>2026-04-17T09:40:37Z</time></trkpt><trkpt lat="48.1772825970198" lon="11.588828868474467"><ele>505.0</ele><time>2026-04-17T09:40:38Z</time></trkpt><trkpt lat="48.177333993720254" lon="11.588655873914274"><ele>505.0</ele><time>2026-04-17T09:40:39Z</time></trkpt><trkpt lat="48.177375418147484" lon="11.588498932166384"><ele>505.0</ele><time>2026-04-17T09:40:40Z</time></trkpt><trkpt lat="48.17741341511251" lon="11.58834777003994"><ele>505.0</ele><time>2026-04-17T09:40:41Z</time></trkpt><trkpt lat="48.17745257378544" lon="11.588185141176654"><ele>505.0</ele><time>2026-04-17T09:40:42Z</time></trkpt><trkpt lat="48.17749310435215" lon="11.588006985985343"><ele>505.0</ele><time>2026-04-17T09:40:43Z</time></trkpt><trkpt lat="48.17752834805639" lon="11.587835585034107"><ele>505.00000000000006</ele><time>2026-04-17T09:40:44Z</time></trkpt><trkpt lat="48.17755320623293" lon="11.587687143784269"><ele>505.0</ele><time>2026-04-17T09:40:45Z</time></trkpt><trkpt lat="48.17757488420623" lon="11.58755992831967"><ele>505.0</ele><time>2026-04-17T09:40:46Z</time></trkpt><trkpt lat="48.17759397654928" lon="11.587436240086006"><ele>505.0</ele><time>2026-04-17T09:40:47Z</time></trkpt><trkpt lat="48.177612661766126" lon="11.587308035521607"><ele>505.00000000000006</ele><time>2026-04-17T09:40:48Z</time></trkpt><trkpt lat="48.17762845683306" lon="11.587181978699325"><ele>505.0</ele><time>2026-04-17T09:40:49Z</time></trkpt><trkpt lat="48.177643579756904" lon="11.587050066632978"><ele>505.50000000000006</ele><time>2026-04-17T09:40:50Z</time></trkpt><trkpt lat="48.17765985613672" lon="11.586904408935357"><ele>506.0</ele><time>2026-04-17T09:40:51Z</time></trkpt><trkpt lat="48.17767404332968" lon="11.586769103525214"><ele>506.5</ele><time>2026-04-17T09:40:52Z</time></trkpt><trkpt lat="48.177683822067024" lon="11.5866480448432"><ele>507.0</ele><time>2026-04-17T09:40:53Z</time></trkpt><trkpt lat="48.17769381095452" lon="11.586520055075793"><ele>507.50000000000006</ele><time>2026-04-17T09:40:54Z</time></trkpt><trkpt lat="48.17770127664469" lon="11.586383259616493"><ele>508.0</ele><time>2026-04-17T09:40:55Z</time></trkpt><trkpt lat="48.1777076521732" lon="11.586244619891534"><ele>507.83333333333337</ele><time>2026-04-17T09:40:56Z</time></trkpt><trkpt lat="48.17771087825254" lon="11.586126669769854"><ele>507.6666666666667</ele><time>2026-04-17T09:40:57Z</time></trkpt><trkpt lat="48.17771271928802" lon="11.586013051732838"><ele>507.5</ele><time>2026-04-17T09:40:58Z</time></trkpt><trkpt lat="48.17771256911759" lon="11.585892925952544"><ele>507.33333333333337</ele><time>2026-04-17T09:40:59Z</time></trkpt><trkpt lat="48.1777107963477" lon="11.585758392560146"><ele>507.1666666666667</ele><time>2026-04-17T09:41:00Z</time></trkpt><trkpt lat="48.17770702583521" lon="11.58561800883465"><ele>507.0</ele><time>2026-04-17T09:41:01Z</time></trkpt><trkpt lat="48.177702566803816" lon="11.585483416860107"><ele>507.0</ele><time>2026-04-17T09:41:02Z</time></trkpt><trkpt lat="48.17769852341118" lon="11.585365263382608"><ele>507.0</ele><time>2026-04-17T09:41:03Z</time></trkpt><trkpt lat="48.17769290249537" lon="11.585251145630345"><ele>507.0</ele><time>2026-04-17T09:41:04Z</time></trkpt><trkpt lat="48.17769026142399" lon="11.58513379135439"><ele>507.0</ele><time>2026-04-17T09:41:05Z</time></trkpt><trkpt lat="48.17768896749459" lon="11.585008392165765"><ele>507.0</ele><time>2026-04-17T09:41:06Z</time></trkpt><trkpt lat="48.17768830613255" lon="11.58487022340316"><ele>507.0</ele><time>2026-04-17T09:41:07Z</time></trkpt><trkpt lat="48.177687609987586" lon="11.584728262275783"><ele>506.8333333333333</ele><time>2026-04-17T09:41:08Z</time></trkpt><trkpt lat="48.17768595400688" lon="11.584583619938519"><ele>506.66666666666663</ele><time>2026-04-17T09:41:09Z</time></trkpt><trkpt lat="48.17768413628809" lon="11.584453720526865"><ele>506.5</ele><time>2026-04-17T09:41:10Z</time></trkpt><trkpt lat="48.17768258093861" lon="11.584337451416834"><ele>506.3333333333333</ele><time>2026-04-17T09:41:11Z</time></trkpt><trkpt lat="48.17768050291028" lon="11.584231268811278"><ele>506.16666666666663</ele><time>2026-04-17T09:41:12Z</time></trkpt><trkpt lat="48.177680452133764" lon="11.584072066163806"><ele>506.0</ele><time>2026-04-17T09:41:14Z</time></trkpt><trkpt lat="48.177677566449304" lon="11.583951398361513"><ele>505.99999999999994</ele><time>2026-04-17T09:41:16Z</time></trkpt><trkpt lat="48.17767063431681" lon="11.583797820997642"><ele>506.0</ele><time>2026-04-17T09:41:18Z</time></trkpt><trkpt lat="48.17766854967184" lon="11.583696581474957"><ele>506.0</ele><time>2026-04-17T09:41:19Z</time></trkpt><trkpt lat="48.17766662630773" lon="11.583566592705127"><ele>506.0</ele><time>2026-04-17T09:41:20Z</time></trkpt><trkpt lat="48.177664103900526" lon="11.583442694048605"><ele>505.99999999999994</ele><time>2026-04-17T09:41:21Z</time></trkpt><trkpt lat="48.17766238363559" lon="11.583320293488836"><ele>506.0</ele><time>2026-04-17T09:41:22Z</time></trkpt><trkpt lat="48.17765821070644" lon="11.583191057272579"><ele>505.8</ele><time>2026-04-17T09:41:23Z</time></trkpt><trkpt lat="48.17765950766441" lon="11.583052463642082"><ele>505.6</ele><time>2026-04-17T09:41:24Z</time></trkpt><trkpt lat="48.177658819851594" lon="11.582897762403906"><ele>505.4</ele><time>2026-04-17T09:41:25Z</time></trkpt><trkpt lat="48.17765582060195" lon="11.582722744566855"><ele>505.2</ele><time>2026-04-17T09:41:26Z</time></trkpt><trkpt lat="48.177650793428356" lon="11.582531694733262"><ele>505.0</ele><time>2026-04-17T09:41:27Z</time></trkpt><trkpt lat="48.17764594273377" lon="11.582351151723826"><ele>505.6</ele><time>2026-04-17T09:41:28Z</time></trkpt><trkpt lat="48.17764670528108" lon="11.582190593464754"><ele>506.2</ele><time>2026-04-17T09:41:29Z</time></trkpt><trkpt lat="48.177653168993466" lon="11.582028450818058"><ele>506.79999999999995</ele><time>2026-04-17T09:41:30Z</time></trkpt><trkpt lat="48.17766175413993" lon="11.581862320342001"><ele>507.4</ele><time>2026-04-17T09:41:31Z</time></trkpt><trkpt lat="48.17767541221404" lon="11.58169654433317"><ele>508.0</ele><time>2026-04-17T09:41:32Z</time></trkpt><trkpt lat="48.17768987235819" lon="11.58153568141419"><ele>508.0</ele><time>2026-04-17T09:41:33Z</time></trkpt><trkpt lat="48.17770969140126" lon="11.581397677562615"><ele>508.0</ele><time>2026-04-17T09:41:34Z</time></trkpt><trkpt lat="48.177727399071074" lon="11.581261326717627"><ele>508.0</ele><time>2026-04-17T09:41:35Z</time></trkpt><trkpt lat="48.177628861948975" lon="11.580969018533072"><ele>508.0</ele><time>2026-04-17T09:41:36Z</time></trkpt><trkpt lat="48.177635345150385" lon="11.580808456605057"><ele>507.75</ele><time>2026-04-17T09:41:37Z</time></trkpt><trkpt lat="48.177638987085956" lon="11.580640313156028"><ele>507.5</ele><time>2026-04-17T09:41:38Z</time></trkpt><trkpt lat="48.177652525769375" lon="11.580476674652035"><ele>507.25</ele><time>2026-04-17T09:41:39Z</time></trkpt><trkpt lat="48.1776638878236" lon="11.580294894068125"><ele>507.0</ele><time>2026-04-17T09:41:40Z</time></trkpt><trkpt lat="48.177676453078064" lon="11.580104769731824"><ele>506.75</ele><time>2026-04-17T09:41:41Z</time></trkpt><trkpt lat="48.17769557541388" lon="11.579895737972029"><ele>506.5</ele><time>2026-04-17T09:41:42Z</time></trkpt><trkpt lat="48.177708869983285" lon="11.579692812508025"><ele>506.25</ele><time>2026-04-17T09:41:43Z</time></trkpt><trkpt lat="48.17771657722481" lon="11.579520912646101"><ele>506.0</ele><time>2026-04-17T09:41:44Z</time></trkpt><trkpt lat="48.17773111374853" lon="11.57935407026385"><ele>506.25</ele><time>2026-04-17T09:41:45Z</time></trkpt><trkpt lat="48.177742393661305" lon="11.579167715004644"><ele>506.5</ele><time>2026-04-17T09:41:46Z</time></trkpt><trkpt lat="48.17775821163862" lon="11.57898740927883"><ele>506.75</ele><time>2026-04-17T09:41:47Z</time></trkpt><trkpt lat="48.17777016054117" lon="11.578795215795774"><ele>507.0</ele><time>2026-04-17T09:41:48Z</time></trkpt><trkpt lat="48.17778429815248" lon="11.578598382165525"><ele>507.0</ele><time>2026-04-17T09:41:49Z</time></trkpt><trkpt lat="48.17779377150348" lon="11.578411388147693"><ele>507.0</ele><time>2026-04-17T09:41:50Z</time></trkpt><trkpt lat="48.17780774688253" lon="11.578218159201091"><ele>507.0</ele><time>2026-04-17T09:41:51Z</time></trkpt><trkpt lat="48.177822790888776" lon="11.578040085049471"><ele>507.0</ele><time>2026-04-17T09:41:52Z</time></trkpt><trkpt lat="48.17783401700862" lon="11.57784032777921"><ele>506.66666666666663</ele><time>2026-04-17T09:41:53Z</time></trkpt><trkpt lat="48.17784962096389" lon="11.577664988972456"><ele>506.3333333333333</ele><time>2026-04-17T09:41:54Z</time></trkpt><trkpt lat="48.17786329891772" lon="11.577525181662649"><ele>506.0</ele><time>2026-04-17T09:41:55.046Z</time></trkpt><trkpt lat="48.17791767923159" lon="11.574806893814964"><ele>506.66666666666663</ele><time>2026-04-17T09:42:08Z</time></trkpt><trkpt lat="48.17790999539514" lon="11.574630377604517"><ele>507.33333333333337</ele><time>2026-04-17T09:42:09Z</time></trkpt><trkpt lat="48.178102441536076" lon="11.574380337405357"><ele>508.0</ele><time>2026-04-17T09:42:10Z</time></trkpt><trkpt lat="48.17807521650791" lon="11.574260236370316"><ele>508.0</ele><time>2026-04-17T09:42:11Z</time></trkpt><trkpt lat="48.178138243182495" lon="11.57408490487566"><ele>508.0</ele><time>2026-04-17T09:42:12Z</time></trkpt><trkpt lat="48.17815000228164" lon="11.573912715706767"><ele>508.0</ele><time>2026-04-17T09:42:13Z</time></trkpt><trkpt lat="48.17815286129106" lon="11.573755955097367"><ele>508.0</ele><time>2026-04-17T09:42:14Z</time></trkpt><trkpt lat="48.17815634752981" lon="11.573596097299387"><ele>507.75</ele><time>2026-04-17T09:42:15Z</time></trkpt><trkpt lat="48.17814397385006" lon="11.573417631082835"><ele>507.5</ele><time>2026-04-17T09:42:16Z</time></trkpt><trkpt lat="48.17813669699998" lon="11.573204753546163"><ele>507.25</ele><time>2026-04-17T09:42:17Z</time></trkpt><trkpt lat="48.17808893701085" lon="11.572981897250207"><ele>507.0</ele><time>2026-04-17T09:42:18Z</time></trkpt><trkpt lat="48.17806124303201" lon="11.572807877315217"><ele>507.0</ele><time>2026-04-17T09:42:19Z</time></trkpt><trkpt lat="48.17803278984895" lon="11.572638711388425"><ele>507.0</ele><time>2026-04-17T09:42:20Z</time></trkpt><trkpt lat="48.17800776789251" lon="11.57246913576404"><ele>507.0</ele><time>2026-04-17T09:42:21Z</time></trkpt><trkpt lat="48.177983424819764" lon="11.572295111371023"><ele>507.0</ele><time>2026-04-17T09:42:22Z</time></trkpt><trkpt lat="48.17795322226568" lon="11.572121184982503"><ele>506.5</ele><time>2026-04-17T09:42:23Z</time></trkpt><trkpt lat="48.17792179338809" lon="11.571947328917327"><ele>506.0</ele><time>2026-04-17T09:42:24Z</time></trkpt><trkpt lat="48.17788670125219" lon="11.571774579733669"><ele>505.5</ele><time>2026-04-17T09:42:25Z</time></trkpt><trkpt lat="48.177845461054645" lon="11.571604910542574"><ele>505.0</ele><time>2026-04-17T09:42:26Z</time></trkpt><trkpt lat="48.17780012730037" lon="11.571437433153221"><ele>505.0</ele><time>2026-04-17T09:42:27Z</time></trkpt><trkpt lat="48.1777517190191" lon="11.571266153257225"><ele>505.0</ele><time>2026-04-17T09:42:28Z</time></trkpt><trkpt lat="48.17770312975582" lon="11.57109224858943"><ele>505.0</ele><time>2026-04-17T09:42:29Z</time></trkpt><trkpt lat="48.17765631720843" lon="11.570927083167414"><ele>505.0</ele><time>2026-04-17T09:42:30Z</time></trkpt><trkpt lat="48.177615854173226" lon="11.570779080242973"><ele>505.2</ele><time>2026-04-17T09:42:31Z</time></trkpt><trkpt lat="48.17757879236131" lon="11.570636664531882"><ele>505.4</ele><time>2026-04-17T09:42:32Z</time></trkpt><trkpt lat="48.177535311362575" lon="11.570495464000048"><ele>505.6</ele><time>2026-04-17T09:42:33Z</time></trkpt><trkpt lat="48.17749911403284" lon="11.570349875694342"><ele>505.8</ele><time>2026-04-17T09:42:34Z</time></trkpt><trkpt lat="48.177454398562766" lon="11.570205155611738"><ele>506.0</ele><time>2026-04-17T09:42:35Z</time></trkpt><trkpt lat="48.177415348620215" lon="11.570047484556348"><ele>506.75</ele><time>2026-04-17T09:42:36Z</time></trkpt><trkpt lat="48.17736703413383" lon="11.569885223918886"><ele>507.5</ele><time>2026-04-17T09:42:37Z</time></trkpt><trkpt lat="48.17731804360368" lon="11.569723260269567"><ele>508.25</ele><time>2026-04-17T09:42:38Z</time></trkpt><trkpt lat="48.17726945359528" lon="11.569550307875152"><ele>509.0</ele><time>2026-04-17T09:42:39Z</time></trkpt><trkpt lat="48.17722069316527" lon="11.569377005431484"><ele>509.0</ele><time>2026-04-17T09:42:40Z</time></trkpt><trkpt lat="48.177175042364716" lon="11.569210788244387"><ele>509.0</ele><time>2026-04-17T09:42:41Z</time></trkpt><trkpt lat="48.177131892166535" lon="11.569053629528115"><ele>509.0</ele><time>2026-04-17T09:42:42Z</time></trkpt><trkpt lat="48.177089206070974" lon="11.568900611746566"><ele>509.0</ele><time>2026-04-17T09:42:43Z</time></trkpt><trkpt lat="48.17704726533241" lon="11.568754941497492"><ele>509.25</ele><time>2026-04-17T09:42:44Z</time></trkpt><trkpt lat="48.17700604073787" lon="11.568616717951242"><ele>509.5</ele><time>2026-04-17T09:42:45Z</time></trkpt><trkpt lat="48.176961752778986" lon="11.56845572413426"><ele>509.75</ele><time>2026-04-17T09:42:46Z</time></trkpt><trkpt lat="48.17691446304594" lon="11.568284566112744"><ele>510.0</ele><time>2026-04-17T09:42:47Z</time></trkpt><trkpt lat="48.17687180398686" lon="11.56813303703919"><ele>510.0</ele><time>2026-04-17T09:42:48Z</time></trkpt><trkpt lat="48.176842356446905" lon="11.568024544252847"><ele>510.0</ele><time>2026-04-17T09:42:49Z</time></trkpt><trkpt lat="48.17681886140081" lon="11.567932379685416"><ele>510.0</ele><time>2026-04-17T09:42:52Z</time></trkpt><trkpt lat="48.17678479571354" lon="11.567837547904524"><ele>510.0</ele><time>2026-04-17T09:43:59Z</time></trkpt><trkpt lat="48.17676529708679" lon="11.56774551722544"><ele>510.0</ele><time>2026-04-17T09:44:00Z</time></trkpt><trkpt lat="48.17673884798903" lon="11.567616529731177"><ele>510.0</ele><time>2026-04-17T09:44:01Z</time></trkpt><trkpt lat="48.17670406294518" lon="11.567471915125909"><ele>509.75</ele><time>2026-04-17T09:44:02Z</time></trkpt><trkpt lat="48.17666766495263" lon="11.567326181084303"><ele>509.5</ele><time>2026-04-17T09:44:03Z</time></trkpt><trkpt lat="48.17662571012294" lon="11.567163845531848"><ele>509.25</ele><time>2026-04-17T09:44:04Z</time></trkpt><trkpt lat="48.17657681085597" lon="11.566977165691297"><ele>509.0</ele><time>2026-04-17T09:44:05Z</time></trkpt><trkpt lat="48.17653227319594" lon="11.56680810540853"><ele>509.25</ele><time>2026-04-17T09:44:06Z</time></trkpt><trkpt lat="48.17648505273237" lon="11.566633228906557"><ele>509.5</ele><time>2026-04-17T09:44:07Z</time></trkpt><trkpt lat="48.17644033700539" lon="11.566467769298708"><ele>509.75</ele><time>2026-04-17T09:44:08Z</time></trkpt><trkpt lat="48.176385156849314" lon="11.566332078293682"><ele>510.0</ele><time>2026-04-17T09:44:09Z</time></trkpt><trkpt lat="48.17634648242245" lon="11.566190064816722"><ele>510.5</ele><time>2026-04-17T09:44:10Z</time></trkpt><trkpt lat="48.17631032980144" lon="11.566050549336124"><ele>511.0</ele><time>2026-04-17T09:44:11Z</time></trkpt><trkpt lat="48.17627792578613" lon="11.565920929198938"><ele>511.5</ele><time>2026-04-17T09:44:12Z</time></trkpt><trkpt lat="48.17625242784569" lon="11.565810550268301"><ele>512.0</ele><time>2026-04-17T09:44:13Z</time></trkpt><trkpt lat="48.17623350001337" lon="11.565719683485156"><ele>512.5</ele><time>2026-04-17T09:44:14Z</time></trkpt><trkpt lat="48.17620665494157" lon="11.565579468354612"><ele>513.0</ele><time>2026-04-17T09:44:16Z</time></trkpt><trkpt lat="48.1761857469471" lon="11.565457919969004"><ele>512.3333333333334</ele><time>2026-04-17T09:44:18Z</time></trkpt><trkpt lat="48.17651725705945" lon="11.565270816503451"><ele>511.6666666666667</ele><time>2026-04-17T09:44:22Z</time></trkpt><trkpt lat="48.176599225599034" lon="11.565228733036774"><ele>511.0</ele><time>2026-04-17T09:44:23Z</time></trkpt><trkpt lat="48.17667242335643" lon="11.565195639123564"><ele>511.00000000000006</ele><time>2026-04-17T09:44:24Z</time></trkpt><trkpt lat="48.176748402079795" lon="11.565161131113916"><ele>511.0</ele><time>2026-04-17T09:44:25Z</time></trkpt><trkpt lat="48.17682969721288" lon="11.56512579030506"><ele>511.0</ele><time>2026-04-17T09:44:26Z</time></trkpt><trkpt lat="48.17691364591997" lon="11.565090554349911"><ele>511.0</ele><time>2026-04-17T09:44:27Z</time></trkpt><trkpt lat="48.17700035317519" lon="11.56505242862613"><ele>511.00000000000006</ele><time>2026-04-17T09:44:28Z</time></trkpt><trkpt lat="48.17709093186225" lon="11.565009388093667"><ele>511.0</ele><time>2026-04-17T09:44:29Z</time></trkpt><trkpt lat="48.177183628392896" lon="11.564967137419323"><ele>511.0</ele><time>2026-04-17T09:44:30Z</time></trkpt><trkpt lat="48.177277371290984" lon="11.564924208925495"><ele>511.0</ele><time>2026-04-17T09:44:31Z</time></trkpt><trkpt lat="48.177374965200706" lon="11.564880175938416"><ele>511.0</ele><time>2026-04-17T09:44:32Z</time></trkpt><trkpt lat="48.17747281954126" lon="11.56483549614337"><ele>511.0</ele><time>2026-04-17T09:44:33Z</time></trkpt><trkpt lat="48.1775748079383" lon="11.564792994289803"><ele>511.0</ele><time>2026-04-17T09:44:34Z</time></trkpt><trkpt lat="48.177677589244375" lon="11.56474981322958"><ele>511.0</ele><time>2026-04-17T09:44:35Z</time></trkpt><trkpt lat="48.177771328792595" lon="11.564710188998303"><ele>511.0</ele><time>2026-04-17T09:44:36Z</time></trkpt><trkpt lat="48.177865417489336" lon="11.564667906447571"><ele>511.0</ele><time>2026-04-17T09:44:37Z</time></trkpt><trkpt lat="48.17795617614519" lon="11.564624400567096"><ele>511.0</ele><time>2026-04-17T09:44:38Z</time></trkpt><trkpt lat="48.17804860332011" lon="11.564579645508061"><ele>511.0</ele><time>2026-04-17T09:44:39Z</time></trkpt><trkpt lat="48.17813281494644" lon="11.564536280842614"><ele>511.1428571428571</ele><time>2026-04-17T09:44:40Z</time></trkpt><trkpt lat="48.1782062998579" lon="11.564501716300791"><ele>511.2857142857143</ele><time>2026-04-17T09:44:41Z</time></trkpt><trkpt lat="48.17827574798116" lon="11.564472593553052"><ele>511.42857142857144</ele><time>2026-04-17T09:44:42Z</time></trkpt><trkpt lat="48.17834218801202" lon="11.564437589531686"><ele>511.57142857142856</ele><time>2026-04-17T09:44:43Z</time></trkpt><trkpt lat="48.1784040157625" lon="11.564411185597097"><ele>511.71428571428567</ele><time>2026-04-17T09:44:44Z</time></trkpt><trkpt lat="48.178465040563054" lon="11.564386183101435"><ele>511.85714285714283</ele><time>2026-04-17T09:44:45Z</time></trkpt><trkpt lat="48.17853562860208" lon="11.564353521576177"><ele>512.0</ele><time>2026-04-17T09:44:47Z</time></trkpt><trkpt lat="48.1786046600749" lon="11.564320450374309"><ele>511.99999999999994</ele><time>2026-04-17T09:44:51Z</time></trkpt><trkpt lat="48.17869024125785" lon="11.564295067204885"><ele>512.0</ele><time>2026-04-17T09:44:56Z</time></trkpt><trkpt lat="48.17879069314282" lon="11.564246951712917"><ele>512.0</ele><time>2026-04-17T09:44:58Z</time></trkpt><trkpt lat="48.17887193086809" lon="11.564222528489957"><ele>512.0</ele><time>2026-04-17T09:45:01Z</time></trkpt><trkpt lat="48.17893446213156" lon="11.564178087803224"><ele>511.99999999999994</ele><time>2026-04-17T09:45:04Z</time></trkpt><trkpt lat="48.17899452572539" lon="11.56414931792055"><ele>512.0</ele><time>2026-04-17T09:45:09Z</time></trkpt><trkpt lat="48.178928021856564" lon="11.564181172995545"><ele>512.0</ele><time>2026-04-17T09:45:59.999Z</time></trkpt><trkpt lat="48.178928673043984" lon="11.564323561146782"><ele>512.0</ele><time>2026-04-17T09:46:03.999Z</time></trkpt><trkpt lat="48.17894662846951" lon="11.564418658401944"><ele>512.0</ele><time>2026-04-17T09:46:14.999Z</time></trkpt><trkpt lat="48.17892150002579" lon="11.564519029794273"><ele>512.0</ele><time>2026-04-17T09:46:23.999Z</time></trkpt><trkpt lat="48.17893829791102" lon="11.564362157059236"><ele>512.0</ele><time>2026-04-17T09:46:31.999Z</time></trkpt><trkpt lat="48.17897541101932" lon="11.56412022433454"><ele>512.0</ele><time>2026-04-17T09:47:11Z</time></trkpt><trkpt lat="48.17892111989284" lon="11.564036158894867"><ele>511.99999999999994</ele><time>2026-04-17T09:53:29.001Z</time></trkpt><trkpt lat="48.17893187080613" lon="11.56393128503843"><ele>512.0</ele><time>2026-04-17T09:53:39.001Z</time></trkpt><trkpt lat="48.17886779885283" lon="11.563937911569457"><ele>512.0</ele><time>2026-04-17T09:53:42.001Z</time></trkpt><trkpt lat="48.178803813671124" lon="11.563902625216892"><ele>511.99999999999994</ele><time>2026-04-17T09:54:07Z</time></trkpt><trkpt lat="48.17875464103705" lon="11.563975901882577"><ele>512.0</ele><time>2026-04-17T09:54:11Z</time></trkpt><trkpt lat="48.1786917529499" lon="11.56403248059162"><ele>512.0</ele><time>2026-04-17T09:54:16Z</time></trkpt><trkpt lat="48.178663645132886" lon="11.564132054021304"><ele>512.0</ele><time>2026-04-17T09:54:21Z</time></trkpt><trkpt lat="48.178638113912456" lon="11.56422834570476"><ele>511.99999999999994</ele><time>2026-04-17T09:54:26.001Z</time></trkpt><trkpt lat="48.17861701224606" lon="11.564319794758198"><ele>512.0</ele><time>2026-04-17T09:54:30Z</time></trkpt><trkpt lat="48.178587563349254" lon="11.564410591928036"><ele>512.0</ele><time>2026-04-17T09:54:34Z</time></trkpt><trkpt lat="48.17855974835866" lon="11.564500410979312"><ele>511.99999999999994</ele><time>2026-04-17T09:54:38Z</time></trkpt><trkpt lat="48.178489353682046" lon="11.564533785160789"><ele>512.0</ele><time>2026-04-17T09:54:44Z</time></trkpt><trkpt lat="48.17842401987331" lon="11.564528208209195"><ele>512.0</ele><time>2026-04-17T09:54:49Z</time></trkpt><trkpt lat="48.178357003810525" lon="11.564551653522022"><ele>511.99999999999994</ele><time>2026-04-17T09:54:55Z</time></trkpt><trkpt lat="48.17829436684981" lon="11.564582435627992"><ele>512.0</ele><time>2026-04-17T09:55:01Z</time></trkpt><trkpt lat="48.178225672685954" lon="11.564616194452238"><ele>512.0</ele><time>2026-04-17T09:55:07Z</time></trkpt><trkpt lat="48.17816177682679" lon="11.564647595186987"><ele>512.0</ele><time>2026-04-17T09:55:17Z</time></trkpt><trkpt lat="48.17808711744069" lon="11.564781727853848"><ele>511.99999999999994</ele><time>2026-04-17T09:55:24Z</time></trkpt><trkpt lat="48.17808241481167" lon="11.564876258842592"><ele>512.0</ele><time>2026-04-17T09:55:28.049Z</time></trkpt><trkpt lat="48.17804189118378" lon="11.564951648118848"><ele>511.66666666666663</ele><time>2026-04-17T09:55:34.048Z</time></trkpt><trkpt lat="48.17793428572971" lon="11.5647195240615"><ele>511.33333333333337</ele><time>2026-04-17T09:55:36.054Z</time></trkpt><trkpt lat="48.17800153419028" lon="11.564672904646217"><ele>511.0</ele><time>2026-04-17T09:55:57.601Z</time></trkpt><trkpt lat="48.17812632918686" lon="11.565256130949965"><ele>511.0</ele><time>2026-04-17T09:57:57.764Z</time></trkpt><trkpt lat="48.17813046804605" lon="11.56459932018036"><ele>511.0</ele><time>2026-04-17T09:58:13.314Z</time></trkpt></trkseg></trk></gpx>